<?xml version="1.0" encoding="UTF-8" standalone="no" ?>
<gpx xmlns="http://www.topografix.com/GPX/1/1" xmlns:xsi="http://www.w3.org/2001/XMLSchema-instance" xsi:schemaLocation="http://www.topografix.com/GPX/1/1 http://www.topografix.com/GPX/1/1/gpx.xsd" version="1.1" creator="VisuGPX - https://www.visugpx.com">
  <metadata>
    <name>Nyons</name>
    <desc><![CDATA[Toujours froid et venté]]></desc>
  </metadata>
  <trk>
    <name><![CDATA[Nyons]]></name>
    <trkseg>
      <trkpt lat="44.40708" lon="5.19913">
        <ele>357.6</ele>
        <time>2021-11-19T09:40:55Z</time>
      </trkpt>
      <trkpt lat="44.40707" lon="5.19913">
        <ele>357.6</ele>
        <time>2021-11-19T09:40:56Z</time>
      </trkpt>
      <trkpt lat="44.40707" lon="5.19913">
        <ele>357.6</ele>
        <time>2021-11-19T09:40:57Z</time>
      </trkpt>
      <trkpt lat="44.40707" lon="5.19912">
        <ele>357.6</ele>
        <time>2021-11-19T09:40:58Z</time>
      </trkpt>
      <trkpt lat="44.40707" lon="5.19912">
        <ele>357.6</ele>
        <time>2021-11-19T09:40:59Z</time>
      </trkpt>
      <trkpt lat="44.40707" lon="5.19911">
        <ele>357.6</ele>
        <time>2021-11-19T09:41:00Z</time>
      </trkpt>
      <trkpt lat="44.40707" lon="5.19911">
        <ele>357.6</ele>
        <time>2021-11-19T09:41:01Z</time>
      </trkpt>
      <trkpt lat="44.40707" lon="5.19912">
        <ele>357.6</ele>
        <time>2021-11-19T09:41:02Z</time>
      </trkpt>
      <trkpt lat="44.40707" lon="5.19911">
        <ele>357.6</ele>
        <time>2021-11-19T09:41:03Z</time>
      </trkpt>
      <trkpt lat="44.40707" lon="5.19911">
        <ele>357.6</ele>
        <time>2021-11-19T09:41:04Z</time>
      </trkpt>
      <trkpt lat="44.40707" lon="5.19911">
        <ele>357.6</ele>
        <time>2021-11-19T09:41:05Z</time>
      </trkpt>
      <trkpt lat="44.40707" lon="5.19912">
        <ele>357.6</ele>
        <time>2021-11-19T09:41:06Z</time>
      </trkpt>
      <trkpt lat="44.40708" lon="5.19912">
        <ele>357.6</ele>
        <time>2021-11-19T09:41:07Z</time>
      </trkpt>
      <trkpt lat="44.40707" lon="5.19912">
        <ele>357.6</ele>
        <time>2021-11-19T09:41:08Z</time>
      </trkpt>
      <trkpt lat="44.40707" lon="5.19911">
        <ele>357.6</ele>
        <time>2021-11-19T09:41:09Z</time>
      </trkpt>
      <trkpt lat="44.40707" lon="5.19912">
        <ele>357.6</ele>
        <time>2021-11-19T09:41:10Z</time>
      </trkpt>
      <trkpt lat="44.40708" lon="5.19908">
        <ele>357.5</ele>
        <time>2021-11-19T09:41:18Z</time>
      </trkpt>
      <trkpt lat="44.40707" lon="5.19908">
        <ele>357.5</ele>
        <time>2021-11-19T09:41:19Z</time>
      </trkpt>
      <trkpt lat="44.40708" lon="5.19908">
        <ele>357.5</ele>
        <time>2021-11-19T09:41:20Z</time>
      </trkpt>
      <trkpt lat="44.40707" lon="5.19909">
        <ele>357.5</ele>
        <time>2021-11-19T09:41:21Z</time>
      </trkpt>
      <trkpt lat="44.40707" lon="5.19909">
        <ele>357.5</ele>
        <time>2021-11-19T09:41:23Z</time>
      </trkpt>
      <trkpt lat="44.40707" lon="5.19909">
        <ele>357.5</ele>
        <time>2021-11-19T09:41:24Z</time>
      </trkpt>
      <trkpt lat="44.407" lon="5.19905">
        <ele>357.3</ele>
        <time>2021-11-19T09:41:26Z</time>
      </trkpt>
      <trkpt lat="44.40691" lon="5.19906">
        <ele>357.1</ele>
        <time>2021-11-19T09:41:27Z</time>
      </trkpt>
      <trkpt lat="44.40688" lon="5.19913">
        <ele>357</ele>
        <time>2021-11-19T09:41:29Z</time>
      </trkpt>
      <trkpt lat="44.40679" lon="5.19929">
        <ele>356.7</ele>
        <time>2021-11-19T09:41:32Z</time>
      </trkpt>
      <trkpt lat="44.40675" lon="5.19931">
        <ele>356.6</ele>
        <time>2021-11-19T09:41:33Z</time>
      </trkpt>
      <trkpt lat="44.40669" lon="5.19931">
        <ele>356.6</ele>
        <time>2021-11-19T09:41:34Z</time>
      </trkpt>
      <trkpt lat="44.40656" lon="5.19917">
        <ele>356.3</ele>
        <time>2021-11-19T09:41:37Z</time>
      </trkpt>
      <trkpt lat="44.40652" lon="5.19912">
        <ele>356.3</ele>
        <time>2021-11-19T09:41:38Z</time>
      </trkpt>
      <trkpt lat="44.40649" lon="5.19907">
        <ele>356.3</ele>
        <time>2021-11-19T09:41:39Z</time>
      </trkpt>
      <trkpt lat="44.40646" lon="5.19901">
        <ele>356.2</ele>
        <time>2021-11-19T09:41:40Z</time>
      </trkpt>
      <trkpt lat="44.40642" lon="5.19896">
        <ele>356.2</ele>
        <time>2021-11-19T09:41:41Z</time>
      </trkpt>
      <trkpt lat="44.40637" lon="5.19891">
        <ele>356.1</ele>
        <time>2021-11-19T09:41:42Z</time>
      </trkpt>
      <trkpt lat="44.40626" lon="5.19882">
        <ele>356</ele>
        <time>2021-11-19T09:41:43Z</time>
      </trkpt>
      <trkpt lat="44.40618" lon="5.19891">
        <ele>355.9</ele>
        <time>2021-11-19T09:41:46Z</time>
      </trkpt>
      <trkpt lat="44.40614" lon="5.19897">
        <ele>355.9</ele>
        <time>2021-11-19T09:41:47Z</time>
      </trkpt>
      <trkpt lat="44.40611" lon="5.19903">
        <ele>355.9</ele>
        <time>2021-11-19T09:41:48Z</time>
      </trkpt>
      <trkpt lat="44.40607" lon="5.19908">
        <ele>355.9</ele>
        <time>2021-11-19T09:41:49Z</time>
      </trkpt>
      <trkpt lat="44.40596" lon="5.19913">
        <ele>355.9</ele>
        <time>2021-11-19T09:41:50Z</time>
      </trkpt>
      <trkpt lat="44.40588" lon="5.19912">
        <ele>355.7</ele>
        <time>2021-11-19T09:41:52Z</time>
      </trkpt>
      <trkpt lat="44.40582" lon="5.19915">
        <ele>355.6</ele>
        <time>2021-11-19T09:41:53Z</time>
      </trkpt>
      <trkpt lat="44.40583" lon="5.19914">
        <ele>355.6</ele>
        <time>2021-11-19T09:41:55Z</time>
      </trkpt>
      <trkpt lat="44.40584" lon="5.19911">
        <ele>355.6</ele>
        <time>2021-11-19T09:41:56Z</time>
      </trkpt>
      <trkpt lat="44.40582" lon="5.19903">
        <ele>355.5</ele>
        <time>2021-11-19T09:41:59Z</time>
      </trkpt>
      <trkpt lat="44.4058" lon="5.19896">
        <ele>355.4</ele>
        <time>2021-11-19T09:42:00Z</time>
      </trkpt>
      <trkpt lat="44.40567" lon="5.19878">
        <ele>355.1</ele>
        <time>2021-11-19T09:42:03Z</time>
      </trkpt>
      <trkpt lat="44.40562" lon="5.19872">
        <ele>355</ele>
        <time>2021-11-19T09:42:05Z</time>
      </trkpt>
      <trkpt lat="44.40556" lon="5.19871">
        <ele>354.8</ele>
        <time>2021-11-19T09:42:06Z</time>
      </trkpt>
      <trkpt lat="44.40552" lon="5.19865">
        <ele>354.7</ele>
        <time>2021-11-19T09:42:07Z</time>
      </trkpt>
      <trkpt lat="44.40549" lon="5.19859">
        <ele>354.6</ele>
        <time>2021-11-19T09:42:10Z</time>
      </trkpt>
      <trkpt lat="44.40537" lon="5.19853">
        <ele>354.2</ele>
        <time>2021-11-19T09:42:11Z</time>
      </trkpt>
      <trkpt lat="44.40529" lon="5.19848">
        <ele>354</ele>
        <time>2021-11-19T09:42:12Z</time>
      </trkpt>
      <trkpt lat="44.40524" lon="5.19846">
        <ele>353.9</ele>
        <time>2021-11-19T09:42:15Z</time>
      </trkpt>
      <trkpt lat="44.40518" lon="5.19844">
        <ele>353.7</ele>
        <time>2021-11-19T09:42:16Z</time>
      </trkpt>
      <trkpt lat="44.40511" lon="5.1984">
        <ele>353.5</ele>
        <time>2021-11-19T09:42:17Z</time>
      </trkpt>
      <trkpt lat="44.40505" lon="5.19836">
        <ele>353.3</ele>
        <time>2021-11-19T09:42:18Z</time>
      </trkpt>
      <trkpt lat="44.40498" lon="5.19833">
        <ele>353</ele>
        <time>2021-11-19T09:42:19Z</time>
      </trkpt>
      <trkpt lat="44.4049" lon="5.19831">
        <ele>352.7</ele>
        <time>2021-11-19T09:42:20Z</time>
      </trkpt>
      <trkpt lat="44.40483" lon="5.19828">
        <ele>352.4</ele>
        <time>2021-11-19T09:42:21Z</time>
      </trkpt>
      <trkpt lat="44.40477" lon="5.19824">
        <ele>352.2</ele>
        <time>2021-11-19T09:42:22Z</time>
      </trkpt>
      <trkpt lat="44.40471" lon="5.1982">
        <ele>351.9</ele>
        <time>2021-11-19T09:42:23Z</time>
      </trkpt>
      <trkpt lat="44.40465" lon="5.19816">
        <ele>351.7</ele>
        <time>2021-11-19T09:42:24Z</time>
      </trkpt>
      <trkpt lat="44.40458" lon="5.19813">
        <ele>351.4</ele>
        <time>2021-11-19T09:42:25Z</time>
      </trkpt>
      <trkpt lat="44.40451" lon="5.19809">
        <ele>351.1</ele>
        <time>2021-11-19T09:42:26Z</time>
      </trkpt>
      <trkpt lat="44.40444" lon="5.19806">
        <ele>350.8</ele>
        <time>2021-11-19T09:42:27Z</time>
      </trkpt>
      <trkpt lat="44.40437" lon="5.19803">
        <ele>350.5</ele>
        <time>2021-11-19T09:42:28Z</time>
      </trkpt>
      <trkpt lat="44.4043" lon="5.19802">
        <ele>350.1</ele>
        <time>2021-11-19T09:42:29Z</time>
      </trkpt>
      <trkpt lat="44.40422" lon="5.198">
        <ele>349.8</ele>
        <time>2021-11-19T09:42:30Z</time>
      </trkpt>
      <trkpt lat="44.40414" lon="5.19795">
        <ele>349.4</ele>
        <time>2021-11-19T09:42:31Z</time>
      </trkpt>
      <trkpt lat="44.40406" lon="5.19791">
        <ele>349</ele>
        <time>2021-11-19T09:42:32Z</time>
      </trkpt>
      <trkpt lat="44.40398" lon="5.19786">
        <ele>348.5</ele>
        <time>2021-11-19T09:42:33Z</time>
      </trkpt>
      <trkpt lat="44.40391" lon="5.1978">
        <ele>348.2</ele>
        <time>2021-11-19T09:42:34Z</time>
      </trkpt>
      <trkpt lat="44.40384" lon="5.19775">
        <ele>347.8</ele>
        <time>2021-11-19T09:42:35Z</time>
      </trkpt>
      <trkpt lat="44.40376" lon="5.19771">
        <ele>347.4</ele>
        <time>2021-11-19T09:42:36Z</time>
      </trkpt>
      <trkpt lat="44.40368" lon="5.19767">
        <ele>347</ele>
        <time>2021-11-19T09:42:37Z</time>
      </trkpt>
      <trkpt lat="44.4036" lon="5.19764">
        <ele>346.6</ele>
        <time>2021-11-19T09:42:38Z</time>
      </trkpt>
      <trkpt lat="44.40353" lon="5.19759">
        <ele>346.2</ele>
        <time>2021-11-19T09:42:39Z</time>
      </trkpt>
      <trkpt lat="44.40345" lon="5.19755">
        <ele>345.9</ele>
        <time>2021-11-19T09:42:40Z</time>
      </trkpt>
      <trkpt lat="44.40338" lon="5.19753">
        <ele>345.6</ele>
        <time>2021-11-19T09:42:41Z</time>
      </trkpt>
      <trkpt lat="44.40329" lon="5.19749">
        <ele>345.3</ele>
        <time>2021-11-19T09:42:42Z</time>
      </trkpt>
      <trkpt lat="44.40321" lon="5.19746">
        <ele>345</ele>
        <time>2021-11-19T09:42:43Z</time>
      </trkpt>
      <trkpt lat="44.40313" lon="5.19742">
        <ele>344.7</ele>
        <time>2021-11-19T09:42:44Z</time>
      </trkpt>
      <trkpt lat="44.40305" lon="5.19738">
        <ele>344.5</ele>
        <time>2021-11-19T09:42:45Z</time>
      </trkpt>
      <trkpt lat="44.40296" lon="5.19734">
        <ele>344.3</ele>
        <time>2021-11-19T09:42:46Z</time>
      </trkpt>
      <trkpt lat="44.40288" lon="5.1973">
        <ele>344.1</ele>
        <time>2021-11-19T09:42:47Z</time>
      </trkpt>
      <trkpt lat="44.40281" lon="5.19725">
        <ele>343.9</ele>
        <time>2021-11-19T09:42:48Z</time>
      </trkpt>
      <trkpt lat="44.40274" lon="5.19722">
        <ele>343.8</ele>
        <time>2021-11-19T09:42:49Z</time>
      </trkpt>
      <trkpt lat="44.40266" lon="5.19718">
        <ele>343.6</ele>
        <time>2021-11-19T09:42:50Z</time>
      </trkpt>
      <trkpt lat="44.40259" lon="5.19714">
        <ele>343.6</ele>
        <time>2021-11-19T09:42:51Z</time>
      </trkpt>
      <trkpt lat="44.40252" lon="5.1971">
        <ele>343.5</ele>
        <time>2021-11-19T09:42:52Z</time>
      </trkpt>
      <trkpt lat="44.40245" lon="5.19706">
        <ele>343.4</ele>
        <time>2021-11-19T09:42:53Z</time>
      </trkpt>
      <trkpt lat="44.40237" lon="5.19703">
        <ele>343.4</ele>
        <time>2021-11-19T09:42:54Z</time>
      </trkpt>
      <trkpt lat="44.4023" lon="5.197">
        <ele>343.3</ele>
        <time>2021-11-19T09:42:55Z</time>
      </trkpt>
      <trkpt lat="44.40223" lon="5.19697">
        <ele>343.3</ele>
        <time>2021-11-19T09:42:56Z</time>
      </trkpt>
      <trkpt lat="44.40217" lon="5.19696">
        <ele>343.2</ele>
        <time>2021-11-19T09:42:57Z</time>
      </trkpt>
      <trkpt lat="44.4021" lon="5.19694">
        <ele>343.1</ele>
        <time>2021-11-19T09:42:58Z</time>
      </trkpt>
      <trkpt lat="44.40203" lon="5.19692">
        <ele>343.1</ele>
        <time>2021-11-19T09:42:59Z</time>
      </trkpt>
      <trkpt lat="44.40196" lon="5.1969">
        <ele>343</ele>
        <time>2021-11-19T09:43:00Z</time>
      </trkpt>
      <trkpt lat="44.4019" lon="5.19689">
        <ele>342.9</ele>
        <time>2021-11-19T09:43:01Z</time>
      </trkpt>
      <trkpt lat="44.40183" lon="5.19688">
        <ele>342.8</ele>
        <time>2021-11-19T09:43:02Z</time>
      </trkpt>
      <trkpt lat="44.40176" lon="5.19686">
        <ele>342.8</ele>
        <time>2021-11-19T09:43:03Z</time>
      </trkpt>
      <trkpt lat="44.40169" lon="5.19685">
        <ele>342.6</ele>
        <time>2021-11-19T09:43:04Z</time>
      </trkpt>
      <trkpt lat="44.40162" lon="5.19684">
        <ele>342.5</ele>
        <time>2021-11-19T09:43:05Z</time>
      </trkpt>
      <trkpt lat="44.40156" lon="5.19682">
        <ele>342.4</ele>
        <time>2021-11-19T09:43:06Z</time>
      </trkpt>
      <trkpt lat="44.40149" lon="5.19681">
        <ele>342.3</ele>
        <time>2021-11-19T09:43:07Z</time>
      </trkpt>
      <trkpt lat="44.40142" lon="5.1968">
        <ele>342.1</ele>
        <time>2021-11-19T09:43:08Z</time>
      </trkpt>
      <trkpt lat="44.40135" lon="5.19678">
        <ele>342</ele>
        <time>2021-11-19T09:43:09Z</time>
      </trkpt>
      <trkpt lat="44.40128" lon="5.19677">
        <ele>341.9</ele>
        <time>2021-11-19T09:43:10Z</time>
      </trkpt>
      <trkpt lat="44.40121" lon="5.19676">
        <ele>341.7</ele>
        <time>2021-11-19T09:43:11Z</time>
      </trkpt>
      <trkpt lat="44.40115" lon="5.19675">
        <ele>341.6</ele>
        <time>2021-11-19T09:43:12Z</time>
      </trkpt>
      <trkpt lat="44.40108" lon="5.19674">
        <ele>341.5</ele>
        <time>2021-11-19T09:43:13Z</time>
      </trkpt>
      <trkpt lat="44.40101" lon="5.19673">
        <ele>341.4</ele>
        <time>2021-11-19T09:43:14Z</time>
      </trkpt>
      <trkpt lat="44.40094" lon="5.19672">
        <ele>341.3</ele>
        <time>2021-11-19T09:43:15Z</time>
      </trkpt>
      <trkpt lat="44.40088" lon="5.1967">
        <ele>341.1</ele>
        <time>2021-11-19T09:43:16Z</time>
      </trkpt>
      <trkpt lat="44.40081" lon="5.19668">
        <ele>341</ele>
        <time>2021-11-19T09:43:17Z</time>
      </trkpt>
      <trkpt lat="44.40074" lon="5.19667">
        <ele>340.8</ele>
        <time>2021-11-19T09:43:18Z</time>
      </trkpt>
      <trkpt lat="44.40067" lon="5.19665">
        <ele>340.7</ele>
        <time>2021-11-19T09:43:19Z</time>
      </trkpt>
      <trkpt lat="44.40061" lon="5.19663">
        <ele>340.5</ele>
        <time>2021-11-19T09:43:20Z</time>
      </trkpt>
      <trkpt lat="44.40054" lon="5.1966">
        <ele>340.2</ele>
        <time>2021-11-19T09:43:21Z</time>
      </trkpt>
      <trkpt lat="44.40046" lon="5.19657">
        <ele>340</ele>
        <time>2021-11-19T09:43:22Z</time>
      </trkpt>
      <trkpt lat="44.4004" lon="5.19654">
        <ele>339.8</ele>
        <time>2021-11-19T09:43:23Z</time>
      </trkpt>
      <trkpt lat="44.40033" lon="5.19649">
        <ele>339.5</ele>
        <time>2021-11-19T09:43:24Z</time>
      </trkpt>
      <trkpt lat="44.40026" lon="5.19642">
        <ele>339.3</ele>
        <time>2021-11-19T09:43:25Z</time>
      </trkpt>
      <trkpt lat="44.40019" lon="5.19636">
        <ele>339.1</ele>
        <time>2021-11-19T09:43:26Z</time>
      </trkpt>
      <trkpt lat="44.40013" lon="5.1963">
        <ele>339</ele>
        <time>2021-11-19T09:43:27Z</time>
      </trkpt>
      <trkpt lat="44.40007" lon="5.19624">
        <ele>338.9</ele>
        <time>2021-11-19T09:43:28Z</time>
      </trkpt>
      <trkpt lat="44.40002" lon="5.19617">
        <ele>338.8</ele>
        <time>2021-11-19T09:43:29Z</time>
      </trkpt>
      <trkpt lat="44.39997" lon="5.1961">
        <ele>338.7</ele>
        <time>2021-11-19T09:43:30Z</time>
      </trkpt>
      <trkpt lat="44.39992" lon="5.19603">
        <ele>338.6</ele>
        <time>2021-11-19T09:43:31Z</time>
      </trkpt>
      <trkpt lat="44.39987" lon="5.19596">
        <ele>338.6</ele>
        <time>2021-11-19T09:43:32Z</time>
      </trkpt>
      <trkpt lat="44.39982" lon="5.19589">
        <ele>338.6</ele>
        <time>2021-11-19T09:43:33Z</time>
      </trkpt>
      <trkpt lat="44.39977" lon="5.19583">
        <ele>338.6</ele>
        <time>2021-11-19T09:43:34Z</time>
      </trkpt>
      <trkpt lat="44.39972" lon="5.19577">
        <ele>338.6</ele>
        <time>2021-11-19T09:43:35Z</time>
      </trkpt>
      <trkpt lat="44.39967" lon="5.1957">
        <ele>338.5</ele>
        <time>2021-11-19T09:43:36Z</time>
      </trkpt>
      <trkpt lat="44.39963" lon="5.19565">
        <ele>338.5</ele>
        <time>2021-11-19T09:43:37Z</time>
      </trkpt>
      <trkpt lat="44.39958" lon="5.1956">
        <ele>338.5</ele>
        <time>2021-11-19T09:43:38Z</time>
      </trkpt>
      <trkpt lat="44.39953" lon="5.19556">
        <ele>338.6</ele>
        <time>2021-11-19T09:43:39Z</time>
      </trkpt>
      <trkpt lat="44.39948" lon="5.19551">
        <ele>338.6</ele>
        <time>2021-11-19T09:43:40Z</time>
      </trkpt>
      <trkpt lat="44.39943" lon="5.19549">
        <ele>338.6</ele>
        <time>2021-11-19T09:43:41Z</time>
      </trkpt>
      <trkpt lat="44.39937" lon="5.19546">
        <ele>338.7</ele>
        <time>2021-11-19T09:43:42Z</time>
      </trkpt>
      <trkpt lat="44.39932" lon="5.19546">
        <ele>338.7</ele>
        <time>2021-11-19T09:43:43Z</time>
      </trkpt>
      <trkpt lat="44.39926" lon="5.19544">
        <ele>338.7</ele>
        <time>2021-11-19T09:43:44Z</time>
      </trkpt>
      <trkpt lat="44.3992" lon="5.19544">
        <ele>338.8</ele>
        <time>2021-11-19T09:43:45Z</time>
      </trkpt>
      <trkpt lat="44.39914" lon="5.19544">
        <ele>338.8</ele>
        <time>2021-11-19T09:43:46Z</time>
      </trkpt>
      <trkpt lat="44.39908" lon="5.19543">
        <ele>338.8</ele>
        <time>2021-11-19T09:43:47Z</time>
      </trkpt>
      <trkpt lat="44.39901" lon="5.19543">
        <ele>338.7</ele>
        <time>2021-11-19T09:43:48Z</time>
      </trkpt>
      <trkpt lat="44.39895" lon="5.19544">
        <ele>338.7</ele>
        <time>2021-11-19T09:43:49Z</time>
      </trkpt>
      <trkpt lat="44.3989" lon="5.19543">
        <ele>338.7</ele>
        <time>2021-11-19T09:43:50Z</time>
      </trkpt>
      <trkpt lat="44.39884" lon="5.19544">
        <ele>338.6</ele>
        <time>2021-11-19T09:43:51Z</time>
      </trkpt>
      <trkpt lat="44.39878" lon="5.19544">
        <ele>338.6</ele>
        <time>2021-11-19T09:43:52Z</time>
      </trkpt>
      <trkpt lat="44.39871" lon="5.19544">
        <ele>338.5</ele>
        <time>2021-11-19T09:43:53Z</time>
      </trkpt>
      <trkpt lat="44.39864" lon="5.19543">
        <ele>338.5</ele>
        <time>2021-11-19T09:43:54Z</time>
      </trkpt>
      <trkpt lat="44.39858" lon="5.1954">
        <ele>338.4</ele>
        <time>2021-11-19T09:43:55Z</time>
      </trkpt>
      <trkpt lat="44.39851" lon="5.19539">
        <ele>338.4</ele>
        <time>2021-11-19T09:43:56Z</time>
      </trkpt>
      <trkpt lat="44.39845" lon="5.19539">
        <ele>338.3</ele>
        <time>2021-11-19T09:43:57Z</time>
      </trkpt>
      <trkpt lat="44.39837" lon="5.19537">
        <ele>338.2</ele>
        <time>2021-11-19T09:43:58Z</time>
      </trkpt>
      <trkpt lat="44.39829" lon="5.19533">
        <ele>338.1</ele>
        <time>2021-11-19T09:43:59Z</time>
      </trkpt>
      <trkpt lat="44.39822" lon="5.19527">
        <ele>338</ele>
        <time>2021-11-19T09:44:00Z</time>
      </trkpt>
      <trkpt lat="44.39814" lon="5.19522">
        <ele>337.9</ele>
        <time>2021-11-19T09:44:01Z</time>
      </trkpt>
      <trkpt lat="44.39808" lon="5.1952">
        <ele>337.8</ele>
        <time>2021-11-19T09:44:02Z</time>
      </trkpt>
      <trkpt lat="44.39802" lon="5.19519">
        <ele>337.7</ele>
        <time>2021-11-19T09:44:03Z</time>
      </trkpt>
      <trkpt lat="44.39798" lon="5.1952">
        <ele>337.7</ele>
        <time>2021-11-19T09:44:04Z</time>
      </trkpt>
      <trkpt lat="44.39793" lon="5.19521">
        <ele>337.6</ele>
        <time>2021-11-19T09:44:05Z</time>
      </trkpt>
      <trkpt lat="44.39786" lon="5.19521">
        <ele>337.5</ele>
        <time>2021-11-19T09:44:06Z</time>
      </trkpt>
      <trkpt lat="44.39778" lon="5.19522">
        <ele>337.3</ele>
        <time>2021-11-19T09:44:07Z</time>
      </trkpt>
      <trkpt lat="44.3977" lon="5.19524">
        <ele>337.2</ele>
        <time>2021-11-19T09:44:08Z</time>
      </trkpt>
      <trkpt lat="44.39762" lon="5.19526">
        <ele>337</ele>
        <time>2021-11-19T09:44:09Z</time>
      </trkpt>
      <trkpt lat="44.39755" lon="5.19528">
        <ele>336.9</ele>
        <time>2021-11-19T09:44:10Z</time>
      </trkpt>
      <trkpt lat="44.39748" lon="5.19529">
        <ele>336.7</ele>
        <time>2021-11-19T09:44:11Z</time>
      </trkpt>
      <trkpt lat="44.39742" lon="5.19529">
        <ele>336.6</ele>
        <time>2021-11-19T09:44:12Z</time>
      </trkpt>
      <trkpt lat="44.39735" lon="5.19532">
        <ele>336.5</ele>
        <time>2021-11-19T09:44:13Z</time>
      </trkpt>
      <trkpt lat="44.39729" lon="5.19535">
        <ele>336.4</ele>
        <time>2021-11-19T09:44:14Z</time>
      </trkpt>
      <trkpt lat="44.39723" lon="5.19538">
        <ele>336.3</ele>
        <time>2021-11-19T09:44:15Z</time>
      </trkpt>
      <trkpt lat="44.39717" lon="5.19539">
        <ele>336.1</ele>
        <time>2021-11-19T09:44:16Z</time>
      </trkpt>
      <trkpt lat="44.3971" lon="5.19538">
        <ele>336</ele>
        <time>2021-11-19T09:44:17Z</time>
      </trkpt>
      <trkpt lat="44.39703" lon="5.19534">
        <ele>335.9</ele>
        <time>2021-11-19T09:44:18Z</time>
      </trkpt>
      <trkpt lat="44.39699" lon="5.19529">
        <ele>335.8</ele>
        <time>2021-11-19T09:44:19Z</time>
      </trkpt>
      <trkpt lat="44.39692" lon="5.19526">
        <ele>335.7</ele>
        <time>2021-11-19T09:44:20Z</time>
      </trkpt>
      <trkpt lat="44.39685" lon="5.19524">
        <ele>335.5</ele>
        <time>2021-11-19T09:44:21Z</time>
      </trkpt>
      <trkpt lat="44.39677" lon="5.19522">
        <ele>335.3</ele>
        <time>2021-11-19T09:44:22Z</time>
      </trkpt>
      <trkpt lat="44.3967" lon="5.19523">
        <ele>335.2</ele>
        <time>2021-11-19T09:44:23Z</time>
      </trkpt>
      <trkpt lat="44.39662" lon="5.19524">
        <ele>335.1</ele>
        <time>2021-11-19T09:44:24Z</time>
      </trkpt>
      <trkpt lat="44.39654" lon="5.19524">
        <ele>334.9</ele>
        <time>2021-11-19T09:44:25Z</time>
      </trkpt>
      <trkpt lat="44.39647" lon="5.19524">
        <ele>334.8</ele>
        <time>2021-11-19T09:44:26Z</time>
      </trkpt>
      <trkpt lat="44.39639" lon="5.19524">
        <ele>334.7</ele>
        <time>2021-11-19T09:44:27Z</time>
      </trkpt>
      <trkpt lat="44.39632" lon="5.19525">
        <ele>334.5</ele>
        <time>2021-11-19T09:44:28Z</time>
      </trkpt>
      <trkpt lat="44.39625" lon="5.19526">
        <ele>334.4</ele>
        <time>2021-11-19T09:44:29Z</time>
      </trkpt>
      <trkpt lat="44.39619" lon="5.19527">
        <ele>334.3</ele>
        <time>2021-11-19T09:44:30Z</time>
      </trkpt>
      <trkpt lat="44.39612" lon="5.19529">
        <ele>334.2</ele>
        <time>2021-11-19T09:44:31Z</time>
      </trkpt>
      <trkpt lat="44.39606" lon="5.1953">
        <ele>334.1</ele>
        <time>2021-11-19T09:44:32Z</time>
      </trkpt>
      <trkpt lat="44.396" lon="5.19529">
        <ele>334</ele>
        <time>2021-11-19T09:44:33Z</time>
      </trkpt>
      <trkpt lat="44.39594" lon="5.19528">
        <ele>333.9</ele>
        <time>2021-11-19T09:44:34Z</time>
      </trkpt>
      <trkpt lat="44.39588" lon="5.19528">
        <ele>333.8</ele>
        <time>2021-11-19T09:44:35Z</time>
      </trkpt>
      <trkpt lat="44.39581" lon="5.19527">
        <ele>333.7</ele>
        <time>2021-11-19T09:44:36Z</time>
      </trkpt>
      <trkpt lat="44.39574" lon="5.19527">
        <ele>333.6</ele>
        <time>2021-11-19T09:44:37Z</time>
      </trkpt>
      <trkpt lat="44.39567" lon="5.19526">
        <ele>333.5</ele>
        <time>2021-11-19T09:44:38Z</time>
      </trkpt>
      <trkpt lat="44.3956" lon="5.19526">
        <ele>333.3</ele>
        <time>2021-11-19T09:44:39Z</time>
      </trkpt>
      <trkpt lat="44.39553" lon="5.19526">
        <ele>333.2</ele>
        <time>2021-11-19T09:44:40Z</time>
      </trkpt>
      <trkpt lat="44.39545" lon="5.19525">
        <ele>333.1</ele>
        <time>2021-11-19T09:44:41Z</time>
      </trkpt>
      <trkpt lat="44.39537" lon="5.19526">
        <ele>333</ele>
        <time>2021-11-19T09:44:42Z</time>
      </trkpt>
      <trkpt lat="44.3953" lon="5.19527">
        <ele>332.9</ele>
        <time>2021-11-19T09:44:43Z</time>
      </trkpt>
      <trkpt lat="44.39522" lon="5.19525">
        <ele>332.8</ele>
        <time>2021-11-19T09:44:44Z</time>
      </trkpt>
      <trkpt lat="44.39515" lon="5.19527">
        <ele>332.7</ele>
        <time>2021-11-19T09:44:45Z</time>
      </trkpt>
      <trkpt lat="44.3951" lon="5.19533">
        <ele>332.6</ele>
        <time>2021-11-19T09:44:46Z</time>
      </trkpt>
      <trkpt lat="44.39505" lon="5.19538">
        <ele>332.6</ele>
        <time>2021-11-19T09:44:47Z</time>
      </trkpt>
      <trkpt lat="44.39499" lon="5.19542">
        <ele>332.5</ele>
        <time>2021-11-19T09:44:48Z</time>
      </trkpt>
      <trkpt lat="44.39494" lon="5.19547">
        <ele>332.4</ele>
        <time>2021-11-19T09:44:49Z</time>
      </trkpt>
      <trkpt lat="44.39489" lon="5.1955">
        <ele>332.3</ele>
        <time>2021-11-19T09:44:50Z</time>
      </trkpt>
      <trkpt lat="44.39487" lon="5.19552">
        <ele>332.3</ele>
        <time>2021-11-19T09:44:51Z</time>
      </trkpt>
      <trkpt lat="44.39487" lon="5.19551">
        <ele>332.3</ele>
        <time>2021-11-19T09:44:52Z</time>
      </trkpt>
      <trkpt lat="44.39486" lon="5.19551">
        <ele>332.3</ele>
        <time>2021-11-19T09:44:53Z</time>
      </trkpt>
      <trkpt lat="44.39485" lon="5.19551">
        <ele>332.3</ele>
        <time>2021-11-19T09:44:54Z</time>
      </trkpt>
      <trkpt lat="44.39484" lon="5.19551">
        <ele>332.3</ele>
        <time>2021-11-19T09:44:55Z</time>
      </trkpt>
      <trkpt lat="44.39485" lon="5.19551">
        <ele>332.3</ele>
        <time>2021-11-19T09:44:56Z</time>
      </trkpt>
      <trkpt lat="44.39485" lon="5.19551">
        <ele>332.3</ele>
        <time>2021-11-19T09:44:57Z</time>
      </trkpt>
      <trkpt lat="44.39485" lon="5.19551">
        <ele>332.3</ele>
        <time>2021-11-19T09:44:58Z</time>
      </trkpt>
      <trkpt lat="44.39485" lon="5.19551">
        <ele>332.2</ele>
        <time>2021-11-19T09:44:59Z</time>
      </trkpt>
      <trkpt lat="44.39485" lon="5.19551">
        <ele>332.2</ele>
        <time>2021-11-19T09:45:00Z</time>
      </trkpt>
      <trkpt lat="44.39485" lon="5.19551">
        <ele>332.2</ele>
        <time>2021-11-19T09:45:01Z</time>
      </trkpt>
      <trkpt lat="44.39485" lon="5.19551">
        <ele>332.2</ele>
        <time>2021-11-19T09:45:02Z</time>
      </trkpt>
      <trkpt lat="44.39485" lon="5.19551">
        <ele>332.2</ele>
        <time>2021-11-19T09:45:03Z</time>
      </trkpt>
      <trkpt lat="44.39485" lon="5.19552">
        <ele>332.2</ele>
        <time>2021-11-19T09:45:04Z</time>
      </trkpt>
      <trkpt lat="44.39486" lon="5.19552">
        <ele>332.2</ele>
        <time>2021-11-19T09:45:05Z</time>
      </trkpt>
      <trkpt lat="44.39482" lon="5.19552">
        <ele>332.2</ele>
        <time>2021-11-19T09:45:24Z</time>
      </trkpt>
      <trkpt lat="44.3948" lon="5.19554">
        <ele>332.1</ele>
        <time>2021-11-19T09:45:25Z</time>
      </trkpt>
      <trkpt lat="44.39475" lon="5.19558">
        <ele>332.1</ele>
        <time>2021-11-19T09:45:26Z</time>
      </trkpt>
      <trkpt lat="44.39473" lon="5.1956">
        <ele>332</ele>
        <time>2021-11-19T09:45:27Z</time>
      </trkpt>
      <trkpt lat="44.39455" lon="5.19573">
        <ele>331.8</ele>
        <time>2021-11-19T09:45:31Z</time>
      </trkpt>
      <trkpt lat="44.39449" lon="5.19576">
        <ele>331.7</ele>
        <time>2021-11-19T09:45:32Z</time>
      </trkpt>
      <trkpt lat="44.39439" lon="5.19584">
        <ele>331.5</ele>
        <time>2021-11-19T09:45:33Z</time>
      </trkpt>
      <trkpt lat="44.39433" lon="5.19572">
        <ele>331.4</ele>
        <time>2021-11-19T09:45:35Z</time>
      </trkpt>
      <trkpt lat="44.39426" lon="5.19574">
        <ele>331.3</ele>
        <time>2021-11-19T09:45:36Z</time>
      </trkpt>
      <trkpt lat="44.39415" lon="5.19592">
        <ele>331</ele>
        <time>2021-11-19T09:45:39Z</time>
      </trkpt>
      <trkpt lat="44.3941" lon="5.19595">
        <ele>330.9</ele>
        <time>2021-11-19T09:45:40Z</time>
      </trkpt>
      <trkpt lat="44.39405" lon="5.19599">
        <ele>330.8</ele>
        <time>2021-11-19T09:45:41Z</time>
      </trkpt>
      <trkpt lat="44.39399" lon="5.19601">
        <ele>330.7</ele>
        <time>2021-11-19T09:45:42Z</time>
      </trkpt>
      <trkpt lat="44.39392" lon="5.19602">
        <ele>330.6</ele>
        <time>2021-11-19T09:45:43Z</time>
      </trkpt>
      <trkpt lat="44.39386" lon="5.19602">
        <ele>330.5</ele>
        <time>2021-11-19T09:45:44Z</time>
      </trkpt>
      <trkpt lat="44.3938" lon="5.19601">
        <ele>330.5</ele>
        <time>2021-11-19T09:45:45Z</time>
      </trkpt>
      <trkpt lat="44.39374" lon="5.196">
        <ele>330.4</ele>
        <time>2021-11-19T09:45:46Z</time>
      </trkpt>
      <trkpt lat="44.39367" lon="5.19599">
        <ele>330.3</ele>
        <time>2021-11-19T09:45:47Z</time>
      </trkpt>
      <trkpt lat="44.39361" lon="5.19596">
        <ele>330.2</ele>
        <time>2021-11-19T09:45:48Z</time>
      </trkpt>
      <trkpt lat="44.39355" lon="5.19593">
        <ele>330.1</ele>
        <time>2021-11-19T09:45:49Z</time>
      </trkpt>
      <trkpt lat="44.3935" lon="5.1959">
        <ele>330</ele>
        <time>2021-11-19T09:45:50Z</time>
      </trkpt>
      <trkpt lat="44.39346" lon="5.19588">
        <ele>329.9</ele>
        <time>2021-11-19T09:45:51Z</time>
      </trkpt>
      <trkpt lat="44.39342" lon="5.19585">
        <ele>329.9</ele>
        <time>2021-11-19T09:45:52Z</time>
      </trkpt>
      <trkpt lat="44.39336" lon="5.19581">
        <ele>329.8</ele>
        <time>2021-11-19T09:45:53Z</time>
      </trkpt>
      <trkpt lat="44.39331" lon="5.19577">
        <ele>329.7</ele>
        <time>2021-11-19T09:45:54Z</time>
      </trkpt>
      <trkpt lat="44.39326" lon="5.19575">
        <ele>329.6</ele>
        <time>2021-11-19T09:45:55Z</time>
      </trkpt>
      <trkpt lat="44.3932" lon="5.19572">
        <ele>329.5</ele>
        <time>2021-11-19T09:45:56Z</time>
      </trkpt>
      <trkpt lat="44.39314" lon="5.1957">
        <ele>329.4</ele>
        <time>2021-11-19T09:45:57Z</time>
      </trkpt>
      <trkpt lat="44.39309" lon="5.19567">
        <ele>329.4</ele>
        <time>2021-11-19T09:45:58Z</time>
      </trkpt>
      <trkpt lat="44.39304" lon="5.19563">
        <ele>329.3</ele>
        <time>2021-11-19T09:45:59Z</time>
      </trkpt>
      <trkpt lat="44.39299" lon="5.19558">
        <ele>329.3</ele>
        <time>2021-11-19T09:46:00Z</time>
      </trkpt>
      <trkpt lat="44.39293" lon="5.19554">
        <ele>329.2</ele>
        <time>2021-11-19T09:46:01Z</time>
      </trkpt>
      <trkpt lat="44.39288" lon="5.19551">
        <ele>329.1</ele>
        <time>2021-11-19T09:46:02Z</time>
      </trkpt>
      <trkpt lat="44.39282" lon="5.19548">
        <ele>329.1</ele>
        <time>2021-11-19T09:46:03Z</time>
      </trkpt>
      <trkpt lat="44.39276" lon="5.19545">
        <ele>329</ele>
        <time>2021-11-19T09:46:04Z</time>
      </trkpt>
      <trkpt lat="44.3927" lon="5.19541">
        <ele>328.9</ele>
        <time>2021-11-19T09:46:05Z</time>
      </trkpt>
      <trkpt lat="44.39264" lon="5.19539">
        <ele>328.8</ele>
        <time>2021-11-19T09:46:06Z</time>
      </trkpt>
      <trkpt lat="44.39258" lon="5.19536">
        <ele>328.8</ele>
        <time>2021-11-19T09:46:07Z</time>
      </trkpt>
      <trkpt lat="44.39252" lon="5.19535">
        <ele>328.7</ele>
        <time>2021-11-19T09:46:08Z</time>
      </trkpt>
      <trkpt lat="44.39246" lon="5.19533">
        <ele>328.6</ele>
        <time>2021-11-19T09:46:09Z</time>
      </trkpt>
      <trkpt lat="44.39239" lon="5.19531">
        <ele>328.5</ele>
        <time>2021-11-19T09:46:10Z</time>
      </trkpt>
      <trkpt lat="44.39232" lon="5.19529">
        <ele>328.4</ele>
        <time>2021-11-19T09:46:11Z</time>
      </trkpt>
      <trkpt lat="44.39224" lon="5.19527">
        <ele>328.3</ele>
        <time>2021-11-19T09:46:12Z</time>
      </trkpt>
      <trkpt lat="44.39218" lon="5.19526">
        <ele>328.2</ele>
        <time>2021-11-19T09:46:13Z</time>
      </trkpt>
      <trkpt lat="44.39212" lon="5.19524">
        <ele>328.1</ele>
        <time>2021-11-19T09:46:14Z</time>
      </trkpt>
      <trkpt lat="44.39205" lon="5.19523">
        <ele>328</ele>
        <time>2021-11-19T09:46:15Z</time>
      </trkpt>
      <trkpt lat="44.39198" lon="5.19522">
        <ele>327.9</ele>
        <time>2021-11-19T09:46:16Z</time>
      </trkpt>
      <trkpt lat="44.39191" lon="5.1952">
        <ele>327.9</ele>
        <time>2021-11-19T09:46:17Z</time>
      </trkpt>
      <trkpt lat="44.39184" lon="5.19519">
        <ele>327.8</ele>
        <time>2021-11-19T09:46:18Z</time>
      </trkpt>
      <trkpt lat="44.39177" lon="5.19518">
        <ele>327.7</ele>
        <time>2021-11-19T09:46:19Z</time>
      </trkpt>
      <trkpt lat="44.39171" lon="5.19517">
        <ele>327.6</ele>
        <time>2021-11-19T09:46:20Z</time>
      </trkpt>
      <trkpt lat="44.39164" lon="5.19517">
        <ele>327.5</ele>
        <time>2021-11-19T09:46:21Z</time>
      </trkpt>
      <trkpt lat="44.39158" lon="5.19517">
        <ele>327.3</ele>
        <time>2021-11-19T09:46:22Z</time>
      </trkpt>
      <trkpt lat="44.3915" lon="5.19516">
        <ele>327.2</ele>
        <time>2021-11-19T09:46:23Z</time>
      </trkpt>
      <trkpt lat="44.39143" lon="5.19516">
        <ele>327</ele>
        <time>2021-11-19T09:46:24Z</time>
      </trkpt>
      <trkpt lat="44.39137" lon="5.19514">
        <ele>326.9</ele>
        <time>2021-11-19T09:46:25Z</time>
      </trkpt>
      <trkpt lat="44.39129" lon="5.19514">
        <ele>326.8</ele>
        <time>2021-11-19T09:46:26Z</time>
      </trkpt>
      <trkpt lat="44.39123" lon="5.19512">
        <ele>326.7</ele>
        <time>2021-11-19T09:46:27Z</time>
      </trkpt>
      <trkpt lat="44.39117" lon="5.19512">
        <ele>326.6</ele>
        <time>2021-11-19T09:46:28Z</time>
      </trkpt>
      <trkpt lat="44.39111" lon="5.19512">
        <ele>326.6</ele>
        <time>2021-11-19T09:46:29Z</time>
      </trkpt>
      <trkpt lat="44.39104" lon="5.19512">
        <ele>326.5</ele>
        <time>2021-11-19T09:46:30Z</time>
      </trkpt>
      <trkpt lat="44.39097" lon="5.19512">
        <ele>326.5</ele>
        <time>2021-11-19T09:46:31Z</time>
      </trkpt>
      <trkpt lat="44.39091" lon="5.19512">
        <ele>326.4</ele>
        <time>2021-11-19T09:46:32Z</time>
      </trkpt>
      <trkpt lat="44.39084" lon="5.19514">
        <ele>326.4</ele>
        <time>2021-11-19T09:46:33Z</time>
      </trkpt>
      <trkpt lat="44.39078" lon="5.19516">
        <ele>326.4</ele>
        <time>2021-11-19T09:46:34Z</time>
      </trkpt>
      <trkpt lat="44.39072" lon="5.19518">
        <ele>326.4</ele>
        <time>2021-11-19T09:46:35Z</time>
      </trkpt>
      <trkpt lat="44.39066" lon="5.1952">
        <ele>326.4</ele>
        <time>2021-11-19T09:46:36Z</time>
      </trkpt>
      <trkpt lat="44.39059" lon="5.19522">
        <ele>326.4</ele>
        <time>2021-11-19T09:46:37Z</time>
      </trkpt>
      <trkpt lat="44.39053" lon="5.19524">
        <ele>326.3</ele>
        <time>2021-11-19T09:46:38Z</time>
      </trkpt>
      <trkpt lat="44.39047" lon="5.19526">
        <ele>326.3</ele>
        <time>2021-11-19T09:46:39Z</time>
      </trkpt>
      <trkpt lat="44.39041" lon="5.19527">
        <ele>326.3</ele>
        <time>2021-11-19T09:46:40Z</time>
      </trkpt>
      <trkpt lat="44.39035" lon="5.19529">
        <ele>326.2</ele>
        <time>2021-11-19T09:46:41Z</time>
      </trkpt>
      <trkpt lat="44.39029" lon="5.19533">
        <ele>326.2</ele>
        <time>2021-11-19T09:46:42Z</time>
      </trkpt>
      <trkpt lat="44.39024" lon="5.19535">
        <ele>326.2</ele>
        <time>2021-11-19T09:46:43Z</time>
      </trkpt>
      <trkpt lat="44.39018" lon="5.19537">
        <ele>326.2</ele>
        <time>2021-11-19T09:46:44Z</time>
      </trkpt>
      <trkpt lat="44.39012" lon="5.1954">
        <ele>326.1</ele>
        <time>2021-11-19T09:46:45Z</time>
      </trkpt>
      <trkpt lat="44.39006" lon="5.19542">
        <ele>326.1</ele>
        <time>2021-11-19T09:46:46Z</time>
      </trkpt>
      <trkpt lat="44.39" lon="5.19545">
        <ele>326.1</ele>
        <time>2021-11-19T09:46:47Z</time>
      </trkpt>
      <trkpt lat="44.38994" lon="5.19547">
        <ele>326.1</ele>
        <time>2021-11-19T09:46:48Z</time>
      </trkpt>
      <trkpt lat="44.38988" lon="5.19549">
        <ele>326</ele>
        <time>2021-11-19T09:46:49Z</time>
      </trkpt>
      <trkpt lat="44.38982" lon="5.19553">
        <ele>326</ele>
        <time>2021-11-19T09:46:50Z</time>
      </trkpt>
      <trkpt lat="44.38977" lon="5.19557">
        <ele>325.9</ele>
        <time>2021-11-19T09:46:51Z</time>
      </trkpt>
      <trkpt lat="44.38972" lon="5.19561">
        <ele>325.8</ele>
        <time>2021-11-19T09:46:52Z</time>
      </trkpt>
      <trkpt lat="44.38967" lon="5.19565">
        <ele>325.8</ele>
        <time>2021-11-19T09:46:53Z</time>
      </trkpt>
      <trkpt lat="44.38962" lon="5.19568">
        <ele>325.7</ele>
        <time>2021-11-19T09:46:54Z</time>
      </trkpt>
      <trkpt lat="44.38957" lon="5.19571">
        <ele>325.6</ele>
        <time>2021-11-19T09:46:55Z</time>
      </trkpt>
      <trkpt lat="44.38951" lon="5.19574">
        <ele>325.5</ele>
        <time>2021-11-19T09:46:56Z</time>
      </trkpt>
      <trkpt lat="44.38945" lon="5.19579">
        <ele>325.4</ele>
        <time>2021-11-19T09:46:57Z</time>
      </trkpt>
      <trkpt lat="44.3894" lon="5.19583">
        <ele>325.2</ele>
        <time>2021-11-19T09:46:58Z</time>
      </trkpt>
      <trkpt lat="44.38936" lon="5.19586">
        <ele>325.1</ele>
        <time>2021-11-19T09:46:59Z</time>
      </trkpt>
      <trkpt lat="44.38931" lon="5.19589">
        <ele>325</ele>
        <time>2021-11-19T09:47:00Z</time>
      </trkpt>
      <trkpt lat="44.38927" lon="5.19592">
        <ele>324.9</ele>
        <time>2021-11-19T09:47:01Z</time>
      </trkpt>
      <trkpt lat="44.38922" lon="5.19594">
        <ele>324.8</ele>
        <time>2021-11-19T09:47:02Z</time>
      </trkpt>
      <trkpt lat="44.38917" lon="5.19596">
        <ele>324.6</ele>
        <time>2021-11-19T09:47:03Z</time>
      </trkpt>
      <trkpt lat="44.38912" lon="5.19599">
        <ele>324.5</ele>
        <time>2021-11-19T09:47:04Z</time>
      </trkpt>
      <trkpt lat="44.38907" lon="5.19603">
        <ele>324.3</ele>
        <time>2021-11-19T09:47:05Z</time>
      </trkpt>
      <trkpt lat="44.389" lon="5.19608">
        <ele>324.1</ele>
        <time>2021-11-19T09:47:06Z</time>
      </trkpt>
      <trkpt lat="44.38895" lon="5.19611">
        <ele>323.9</ele>
        <time>2021-11-19T09:47:07Z</time>
      </trkpt>
      <trkpt lat="44.38889" lon="5.19615">
        <ele>323.7</ele>
        <time>2021-11-19T09:47:08Z</time>
      </trkpt>
      <trkpt lat="44.38882" lon="5.1962">
        <ele>323.5</ele>
        <time>2021-11-19T09:47:09Z</time>
      </trkpt>
      <trkpt lat="44.38876" lon="5.19625">
        <ele>323.3</ele>
        <time>2021-11-19T09:47:10Z</time>
      </trkpt>
      <trkpt lat="44.38869" lon="5.1963">
        <ele>323.2</ele>
        <time>2021-11-19T09:47:11Z</time>
      </trkpt>
      <trkpt lat="44.38861" lon="5.19636">
        <ele>323.1</ele>
        <time>2021-11-19T09:47:12Z</time>
      </trkpt>
      <trkpt lat="44.38854" lon="5.19641">
        <ele>323</ele>
        <time>2021-11-19T09:47:13Z</time>
      </trkpt>
      <trkpt lat="44.38845" lon="5.19644">
        <ele>322.7</ele>
        <time>2021-11-19T09:47:14Z</time>
      </trkpt>
      <trkpt lat="44.38839" lon="5.19642">
        <ele>322.6</ele>
        <time>2021-11-19T09:47:15Z</time>
      </trkpt>
      <trkpt lat="44.38836" lon="5.19636">
        <ele>322.5</ele>
        <time>2021-11-19T09:47:16Z</time>
      </trkpt>
      <trkpt lat="44.38832" lon="5.1963">
        <ele>322.4</ele>
        <time>2021-11-19T09:47:17Z</time>
      </trkpt>
      <trkpt lat="44.3883" lon="5.19625">
        <ele>322.3</ele>
        <time>2021-11-19T09:47:18Z</time>
      </trkpt>
      <trkpt lat="44.38826" lon="5.1962">
        <ele>322.3</ele>
        <time>2021-11-19T09:47:19Z</time>
      </trkpt>
      <trkpt lat="44.38822" lon="5.19616">
        <ele>322.2</ele>
        <time>2021-11-19T09:47:20Z</time>
      </trkpt>
      <trkpt lat="44.38817" lon="5.19612">
        <ele>322.1</ele>
        <time>2021-11-19T09:47:21Z</time>
      </trkpt>
      <trkpt lat="44.38812" lon="5.19609">
        <ele>322.1</ele>
        <time>2021-11-19T09:47:22Z</time>
      </trkpt>
      <trkpt lat="44.38806" lon="5.19606">
        <ele>322</ele>
        <time>2021-11-19T09:47:23Z</time>
      </trkpt>
      <trkpt lat="44.388" lon="5.19604">
        <ele>322</ele>
        <time>2021-11-19T09:47:24Z</time>
      </trkpt>
      <trkpt lat="44.38794" lon="5.19602">
        <ele>321.9</ele>
        <time>2021-11-19T09:47:25Z</time>
      </trkpt>
      <trkpt lat="44.38788" lon="5.19599">
        <ele>321.9</ele>
        <time>2021-11-19T09:47:26Z</time>
      </trkpt>
      <trkpt lat="44.38782" lon="5.19596">
        <ele>321.9</ele>
        <time>2021-11-19T09:47:27Z</time>
      </trkpt>
      <trkpt lat="44.38776" lon="5.19593">
        <ele>321.8</ele>
        <time>2021-11-19T09:47:28Z</time>
      </trkpt>
      <trkpt lat="44.3877" lon="5.1959">
        <ele>321.8</ele>
        <time>2021-11-19T09:47:29Z</time>
      </trkpt>
      <trkpt lat="44.38765" lon="5.19587">
        <ele>321.8</ele>
        <time>2021-11-19T09:47:30Z</time>
      </trkpt>
      <trkpt lat="44.38758" lon="5.19584">
        <ele>321.8</ele>
        <time>2021-11-19T09:47:31Z</time>
      </trkpt>
      <trkpt lat="44.38752" lon="5.19582">
        <ele>321.8</ele>
        <time>2021-11-19T09:47:32Z</time>
      </trkpt>
      <trkpt lat="44.38746" lon="5.19578">
        <ele>321.7</ele>
        <time>2021-11-19T09:47:33Z</time>
      </trkpt>
      <trkpt lat="44.38739" lon="5.19578">
        <ele>321.7</ele>
        <time>2021-11-19T09:47:34Z</time>
      </trkpt>
      <trkpt lat="44.38733" lon="5.19576">
        <ele>321.5</ele>
        <time>2021-11-19T09:47:35Z</time>
      </trkpt>
      <trkpt lat="44.38726" lon="5.19574">
        <ele>321.3</ele>
        <time>2021-11-19T09:47:36Z</time>
      </trkpt>
      <trkpt lat="44.38719" lon="5.19572">
        <ele>321.2</ele>
        <time>2021-11-19T09:47:37Z</time>
      </trkpt>
      <trkpt lat="44.38712" lon="5.19569">
        <ele>321</ele>
        <time>2021-11-19T09:47:38Z</time>
      </trkpt>
      <trkpt lat="44.38705" lon="5.19566">
        <ele>320.9</ele>
        <time>2021-11-19T09:47:39Z</time>
      </trkpt>
      <trkpt lat="44.38698" lon="5.19564">
        <ele>320.7</ele>
        <time>2021-11-19T09:47:40Z</time>
      </trkpt>
      <trkpt lat="44.3869" lon="5.19561">
        <ele>320.5</ele>
        <time>2021-11-19T09:47:41Z</time>
      </trkpt>
      <trkpt lat="44.38683" lon="5.19558">
        <ele>320.4</ele>
        <time>2021-11-19T09:47:42Z</time>
      </trkpt>
      <trkpt lat="44.38675" lon="5.19556">
        <ele>320.2</ele>
        <time>2021-11-19T09:47:43Z</time>
      </trkpt>
      <trkpt lat="44.38667" lon="5.19553">
        <ele>320</ele>
        <time>2021-11-19T09:47:44Z</time>
      </trkpt>
      <trkpt lat="44.38659" lon="5.19549">
        <ele>319.8</ele>
        <time>2021-11-19T09:47:45Z</time>
      </trkpt>
      <trkpt lat="44.38651" lon="5.19546">
        <ele>319.6</ele>
        <time>2021-11-19T09:47:46Z</time>
      </trkpt>
      <trkpt lat="44.38643" lon="5.19543">
        <ele>319.4</ele>
        <time>2021-11-19T09:47:47Z</time>
      </trkpt>
      <trkpt lat="44.38635" lon="5.1954">
        <ele>319.3</ele>
        <time>2021-11-19T09:47:48Z</time>
      </trkpt>
      <trkpt lat="44.38628" lon="5.19537">
        <ele>319.1</ele>
        <time>2021-11-19T09:47:49Z</time>
      </trkpt>
      <trkpt lat="44.3862" lon="5.19534">
        <ele>318.9</ele>
        <time>2021-11-19T09:47:50Z</time>
      </trkpt>
      <trkpt lat="44.38613" lon="5.19531">
        <ele>318.8</ele>
        <time>2021-11-19T09:47:51Z</time>
      </trkpt>
      <trkpt lat="44.38605" lon="5.19528">
        <ele>318.7</ele>
        <time>2021-11-19T09:47:52Z</time>
      </trkpt>
      <trkpt lat="44.38598" lon="5.19526">
        <ele>318.5</ele>
        <time>2021-11-19T09:47:53Z</time>
      </trkpt>
      <trkpt lat="44.3859" lon="5.19523">
        <ele>318.4</ele>
        <time>2021-11-19T09:47:54Z</time>
      </trkpt>
      <trkpt lat="44.38582" lon="5.1952">
        <ele>318.3</ele>
        <time>2021-11-19T09:47:55Z</time>
      </trkpt>
      <trkpt lat="44.38575" lon="5.19516">
        <ele>318.2</ele>
        <time>2021-11-19T09:47:56Z</time>
      </trkpt>
      <trkpt lat="44.38567" lon="5.19513">
        <ele>318.1</ele>
        <time>2021-11-19T09:47:57Z</time>
      </trkpt>
      <trkpt lat="44.38559" lon="5.1951">
        <ele>318</ele>
        <time>2021-11-19T09:47:58Z</time>
      </trkpt>
      <trkpt lat="44.38551" lon="5.19507">
        <ele>317.9</ele>
        <time>2021-11-19T09:47:59Z</time>
      </trkpt>
      <trkpt lat="44.38543" lon="5.19503">
        <ele>317.7</ele>
        <time>2021-11-19T09:48:00Z</time>
      </trkpt>
      <trkpt lat="44.38535" lon="5.195">
        <ele>317.5</ele>
        <time>2021-11-19T09:48:01Z</time>
      </trkpt>
      <trkpt lat="44.38527" lon="5.19496">
        <ele>317.3</ele>
        <time>2021-11-19T09:48:02Z</time>
      </trkpt>
      <trkpt lat="44.3852" lon="5.19493">
        <ele>317.2</ele>
        <time>2021-11-19T09:48:03Z</time>
      </trkpt>
      <trkpt lat="44.38513" lon="5.1949">
        <ele>317</ele>
        <time>2021-11-19T09:48:04Z</time>
      </trkpt>
      <trkpt lat="44.38505" lon="5.19488">
        <ele>316.9</ele>
        <time>2021-11-19T09:48:05Z</time>
      </trkpt>
      <trkpt lat="44.38497" lon="5.19485">
        <ele>316.8</ele>
        <time>2021-11-19T09:48:06Z</time>
      </trkpt>
      <trkpt lat="44.38489" lon="5.19481">
        <ele>316.6</ele>
        <time>2021-11-19T09:48:07Z</time>
      </trkpt>
      <trkpt lat="44.38481" lon="5.19478">
        <ele>316.5</ele>
        <time>2021-11-19T09:48:08Z</time>
      </trkpt>
      <trkpt lat="44.38474" lon="5.19474">
        <ele>316.3</ele>
        <time>2021-11-19T09:48:09Z</time>
      </trkpt>
      <trkpt lat="44.38466" lon="5.19471">
        <ele>316.2</ele>
        <time>2021-11-19T09:48:10Z</time>
      </trkpt>
      <trkpt lat="44.38458" lon="5.19468">
        <ele>316.1</ele>
        <time>2021-11-19T09:48:11Z</time>
      </trkpt>
      <trkpt lat="44.38451" lon="5.19466">
        <ele>315.9</ele>
        <time>2021-11-19T09:48:12Z</time>
      </trkpt>
      <trkpt lat="44.38443" lon="5.19463">
        <ele>315.8</ele>
        <time>2021-11-19T09:48:13Z</time>
      </trkpt>
      <trkpt lat="44.38435" lon="5.1946">
        <ele>315.7</ele>
        <time>2021-11-19T09:48:14Z</time>
      </trkpt>
      <trkpt lat="44.38427" lon="5.19456">
        <ele>315.5</ele>
        <time>2021-11-19T09:48:15Z</time>
      </trkpt>
      <trkpt lat="44.38419" lon="5.19454">
        <ele>315.4</ele>
        <time>2021-11-19T09:48:16Z</time>
      </trkpt>
      <trkpt lat="44.38411" lon="5.19452">
        <ele>315.3</ele>
        <time>2021-11-19T09:48:17Z</time>
      </trkpt>
      <trkpt lat="44.38404" lon="5.19449">
        <ele>315.2</ele>
        <time>2021-11-19T09:48:18Z</time>
      </trkpt>
      <trkpt lat="44.38396" lon="5.19446">
        <ele>315.1</ele>
        <time>2021-11-19T09:48:19Z</time>
      </trkpt>
      <trkpt lat="44.38388" lon="5.19444">
        <ele>315</ele>
        <time>2021-11-19T09:48:20Z</time>
      </trkpt>
      <trkpt lat="44.3838" lon="5.19441">
        <ele>314.9</ele>
        <time>2021-11-19T09:48:21Z</time>
      </trkpt>
      <trkpt lat="44.38373" lon="5.19439">
        <ele>314.8</ele>
        <time>2021-11-19T09:48:22Z</time>
      </trkpt>
      <trkpt lat="44.38366" lon="5.19436">
        <ele>314.7</ele>
        <time>2021-11-19T09:48:23Z</time>
      </trkpt>
      <trkpt lat="44.38359" lon="5.19432">
        <ele>314.6</ele>
        <time>2021-11-19T09:48:24Z</time>
      </trkpt>
      <trkpt lat="44.38351" lon="5.19429">
        <ele>314.6</ele>
        <time>2021-11-19T09:48:25Z</time>
      </trkpt>
      <trkpt lat="44.38344" lon="5.19426">
        <ele>314.5</ele>
        <time>2021-11-19T09:48:26Z</time>
      </trkpt>
      <trkpt lat="44.38337" lon="5.19424">
        <ele>314.5</ele>
        <time>2021-11-19T09:48:27Z</time>
      </trkpt>
      <trkpt lat="44.38329" lon="5.1942">
        <ele>314.5</ele>
        <time>2021-11-19T09:48:28Z</time>
      </trkpt>
      <trkpt lat="44.38321" lon="5.19417">
        <ele>314.4</ele>
        <time>2021-11-19T09:48:29Z</time>
      </trkpt>
      <trkpt lat="44.38313" lon="5.19414">
        <ele>314.3</ele>
        <time>2021-11-19T09:48:30Z</time>
      </trkpt>
      <trkpt lat="44.38305" lon="5.19412">
        <ele>314.1</ele>
        <time>2021-11-19T09:48:31Z</time>
      </trkpt>
      <trkpt lat="44.38296" lon="5.1941">
        <ele>314</ele>
        <time>2021-11-19T09:48:32Z</time>
      </trkpt>
      <trkpt lat="44.38288" lon="5.19406">
        <ele>313.8</ele>
        <time>2021-11-19T09:48:33Z</time>
      </trkpt>
      <trkpt lat="44.3828" lon="5.19402">
        <ele>313.5</ele>
        <time>2021-11-19T09:48:34Z</time>
      </trkpt>
      <trkpt lat="44.38272" lon="5.19398">
        <ele>313.3</ele>
        <time>2021-11-19T09:48:35Z</time>
      </trkpt>
      <trkpt lat="44.38265" lon="5.19393">
        <ele>312.9</ele>
        <time>2021-11-19T09:48:36Z</time>
      </trkpt>
      <trkpt lat="44.38258" lon="5.19386">
        <ele>312.7</ele>
        <time>2021-11-19T09:48:37Z</time>
      </trkpt>
      <trkpt lat="44.38251" lon="5.19379">
        <ele>312.4</ele>
        <time>2021-11-19T09:48:38Z</time>
      </trkpt>
      <trkpt lat="44.38244" lon="5.19372">
        <ele>312.2</ele>
        <time>2021-11-19T09:48:39Z</time>
      </trkpt>
      <trkpt lat="44.38238" lon="5.19365">
        <ele>311.9</ele>
        <time>2021-11-19T09:48:40Z</time>
      </trkpt>
      <trkpt lat="44.38231" lon="5.1936">
        <ele>311.7</ele>
        <time>2021-11-19T09:48:41Z</time>
      </trkpt>
      <trkpt lat="44.38224" lon="5.19354">
        <ele>311.4</ele>
        <time>2021-11-19T09:48:42Z</time>
      </trkpt>
      <trkpt lat="44.38216" lon="5.19349">
        <ele>311.1</ele>
        <time>2021-11-19T09:48:43Z</time>
      </trkpt>
      <trkpt lat="44.38208" lon="5.19343">
        <ele>310.8</ele>
        <time>2021-11-19T09:48:44Z</time>
      </trkpt>
      <trkpt lat="44.382" lon="5.19338">
        <ele>310.5</ele>
        <time>2021-11-19T09:48:45Z</time>
      </trkpt>
      <trkpt lat="44.38192" lon="5.19332">
        <ele>310.2</ele>
        <time>2021-11-19T09:48:46Z</time>
      </trkpt>
      <trkpt lat="44.38184" lon="5.19327">
        <ele>309.9</ele>
        <time>2021-11-19T09:48:47Z</time>
      </trkpt>
      <trkpt lat="44.38176" lon="5.19321">
        <ele>309.6</ele>
        <time>2021-11-19T09:48:48Z</time>
      </trkpt>
      <trkpt lat="44.38168" lon="5.19315">
        <ele>309.4</ele>
        <time>2021-11-19T09:48:49Z</time>
      </trkpt>
      <trkpt lat="44.3816" lon="5.19308">
        <ele>309.1</ele>
        <time>2021-11-19T09:48:50Z</time>
      </trkpt>
      <trkpt lat="44.38152" lon="5.19303">
        <ele>308.9</ele>
        <time>2021-11-19T09:48:51Z</time>
      </trkpt>
      <trkpt lat="44.38145" lon="5.19298">
        <ele>308.6</ele>
        <time>2021-11-19T09:48:52Z</time>
      </trkpt>
      <trkpt lat="44.38137" lon="5.19291">
        <ele>308.5</ele>
        <time>2021-11-19T09:48:53Z</time>
      </trkpt>
      <trkpt lat="44.38129" lon="5.19286">
        <ele>308.4</ele>
        <time>2021-11-19T09:48:54Z</time>
      </trkpt>
      <trkpt lat="44.38122" lon="5.1928">
        <ele>308.3</ele>
        <time>2021-11-19T09:48:55Z</time>
      </trkpt>
      <trkpt lat="44.38114" lon="5.19273">
        <ele>308.2</ele>
        <time>2021-11-19T09:48:56Z</time>
      </trkpt>
      <trkpt lat="44.38106" lon="5.19267">
        <ele>308.1</ele>
        <time>2021-11-19T09:48:57Z</time>
      </trkpt>
      <trkpt lat="44.38099" lon="5.19261">
        <ele>308.2</ele>
        <time>2021-11-19T09:48:58Z</time>
      </trkpt>
      <trkpt lat="44.38092" lon="5.19255">
        <ele>308.2</ele>
        <time>2021-11-19T09:48:59Z</time>
      </trkpt>
      <trkpt lat="44.38086" lon="5.1925">
        <ele>308.3</ele>
        <time>2021-11-19T09:49:00Z</time>
      </trkpt>
      <trkpt lat="44.3808" lon="5.19244">
        <ele>308.4</ele>
        <time>2021-11-19T09:49:01Z</time>
      </trkpt>
      <trkpt lat="44.38074" lon="5.19238">
        <ele>308.5</ele>
        <time>2021-11-19T09:49:02Z</time>
      </trkpt>
      <trkpt lat="44.38071" lon="5.19234">
        <ele>308.5</ele>
        <time>2021-11-19T09:49:03Z</time>
      </trkpt>
      <trkpt lat="44.38069" lon="5.19231">
        <ele>308.5</ele>
        <time>2021-11-19T09:49:04Z</time>
      </trkpt>
      <trkpt lat="44.38069" lon="5.1923">
        <ele>308.5</ele>
        <time>2021-11-19T09:49:05Z</time>
      </trkpt>
      <trkpt lat="44.38069" lon="5.1923">
        <ele>308.5</ele>
        <time>2021-11-19T09:49:06Z</time>
      </trkpt>
      <trkpt lat="44.38069" lon="5.1923">
        <ele>308.6</ele>
        <time>2021-11-19T09:49:07Z</time>
      </trkpt>
      <trkpt lat="44.38071" lon="5.19232">
        <ele>308.6</ele>
        <time>2021-11-19T09:49:08Z</time>
      </trkpt>
      <trkpt lat="44.38071" lon="5.19232">
        <ele>308.6</ele>
        <time>2021-11-19T09:49:09Z</time>
      </trkpt>
      <trkpt lat="44.38071" lon="5.19232">
        <ele>308.6</ele>
        <time>2021-11-19T09:49:10Z</time>
      </trkpt>
      <trkpt lat="44.38071" lon="5.1923">
        <ele>308.6</ele>
        <time>2021-11-19T09:49:13Z</time>
      </trkpt>
      <trkpt lat="44.3807" lon="5.1923">
        <ele>308.6</ele>
        <time>2021-11-19T09:49:16Z</time>
      </trkpt>
      <trkpt lat="44.3807" lon="5.1923">
        <ele>308.6</ele>
        <time>2021-11-19T09:49:17Z</time>
      </trkpt>
      <trkpt lat="44.3807" lon="5.1923">
        <ele>308.6</ele>
        <time>2021-11-19T09:49:18Z</time>
      </trkpt>
      <trkpt lat="44.3807" lon="5.1923">
        <ele>308.6</ele>
        <time>2021-11-19T09:49:19Z</time>
      </trkpt>
      <trkpt lat="44.38068" lon="5.19229">
        <ele>308.6</ele>
        <time>2021-11-19T09:49:43Z</time>
      </trkpt>
      <trkpt lat="44.38067" lon="5.19229">
        <ele>308.6</ele>
        <time>2021-11-19T09:49:44Z</time>
      </trkpt>
      <trkpt lat="44.38066" lon="5.19229">
        <ele>308.6</ele>
        <time>2021-11-19T09:49:47Z</time>
      </trkpt>
      <trkpt lat="44.38066" lon="5.19228">
        <ele>308.6</ele>
        <time>2021-11-19T09:49:48Z</time>
      </trkpt>
      <trkpt lat="44.38064" lon="5.19227">
        <ele>308.7</ele>
        <time>2021-11-19T09:49:49Z</time>
      </trkpt>
      <trkpt lat="44.38061" lon="5.19222">
        <ele>308.7</ele>
        <time>2021-11-19T09:49:52Z</time>
      </trkpt>
      <trkpt lat="44.38058" lon="5.19213">
        <ele>308.8</ele>
        <time>2021-11-19T09:49:54Z</time>
      </trkpt>
      <trkpt lat="44.38055" lon="5.19209">
        <ele>308.9</ele>
        <time>2021-11-19T09:49:55Z</time>
      </trkpt>
      <trkpt lat="44.38054" lon="5.19207">
        <ele>308.9</ele>
        <time>2021-11-19T09:49:56Z</time>
      </trkpt>
      <trkpt lat="44.38052" lon="5.19203">
        <ele>309</ele>
        <time>2021-11-19T09:49:57Z</time>
      </trkpt>
      <trkpt lat="44.38051" lon="5.19201">
        <ele>309</ele>
        <time>2021-11-19T09:49:58Z</time>
      </trkpt>
      <trkpt lat="44.38049" lon="5.19197">
        <ele>309.1</ele>
        <time>2021-11-19T09:49:59Z</time>
      </trkpt>
      <trkpt lat="44.38048" lon="5.19195">
        <ele>309.1</ele>
        <time>2021-11-19T09:50:00Z</time>
      </trkpt>
      <trkpt lat="44.38046" lon="5.19191">
        <ele>309.2</ele>
        <time>2021-11-19T09:50:01Z</time>
      </trkpt>
      <trkpt lat="44.38046" lon="5.19191">
        <ele>309.2</ele>
        <time>2021-11-19T09:50:02Z</time>
      </trkpt>
      <trkpt lat="44.38046" lon="5.1919">
        <ele>309.2</ele>
        <time>2021-11-19T09:50:03Z</time>
      </trkpt>
      <trkpt lat="44.38046" lon="5.1919">
        <ele>309.2</ele>
        <time>2021-11-19T09:50:04Z</time>
      </trkpt>
      <trkpt lat="44.38046" lon="5.19189">
        <ele>309.2</ele>
        <time>2021-11-19T09:50:05Z</time>
      </trkpt>
      <trkpt lat="44.38046" lon="5.19189">
        <ele>309.2</ele>
        <time>2021-11-19T09:50:06Z</time>
      </trkpt>
      <trkpt lat="44.38046" lon="5.19189">
        <ele>309.2</ele>
        <time>2021-11-19T09:50:07Z</time>
      </trkpt>
      <trkpt lat="44.38046" lon="5.19188">
        <ele>309.2</ele>
        <time>2021-11-19T09:50:08Z</time>
      </trkpt>
      <trkpt lat="44.38046" lon="5.19188">
        <ele>309.2</ele>
        <time>2021-11-19T09:50:09Z</time>
      </trkpt>
      <trkpt lat="44.38046" lon="5.19187">
        <ele>309.2</ele>
        <time>2021-11-19T09:50:10Z</time>
      </trkpt>
      <trkpt lat="44.38046" lon="5.19187">
        <ele>309.2</ele>
        <time>2021-11-19T09:50:11Z</time>
      </trkpt>
      <trkpt lat="44.38045" lon="5.19186">
        <ele>309.2</ele>
        <time>2021-11-19T09:50:12Z</time>
      </trkpt>
      <trkpt lat="44.38045" lon="5.19186">
        <ele>309.2</ele>
        <time>2021-11-19T09:50:13Z</time>
      </trkpt>
      <trkpt lat="44.38045" lon="5.19186">
        <ele>309.2</ele>
        <time>2021-11-19T09:50:14Z</time>
      </trkpt>
      <trkpt lat="44.38045" lon="5.19185">
        <ele>309.2</ele>
        <time>2021-11-19T09:50:15Z</time>
      </trkpt>
      <trkpt lat="44.38045" lon="5.1918">
        <ele>309.3</ele>
        <time>2021-11-19T09:50:16Z</time>
      </trkpt>
      <trkpt lat="44.38045" lon="5.19178">
        <ele>309.3</ele>
        <time>2021-11-19T09:50:17Z</time>
      </trkpt>
      <trkpt lat="44.38044" lon="5.19174">
        <ele>309.3</ele>
        <time>2021-11-19T09:50:18Z</time>
      </trkpt>
      <trkpt lat="44.38043" lon="5.1917">
        <ele>309.4</ele>
        <time>2021-11-19T09:50:19Z</time>
      </trkpt>
      <trkpt lat="44.38041" lon="5.19165">
        <ele>309.4</ele>
        <time>2021-11-19T09:50:20Z</time>
      </trkpt>
      <trkpt lat="44.38038" lon="5.19161">
        <ele>309.5</ele>
        <time>2021-11-19T09:50:21Z</time>
      </trkpt>
      <trkpt lat="44.38034" lon="5.19159">
        <ele>309.5</ele>
        <time>2021-11-19T09:50:22Z</time>
      </trkpt>
      <trkpt lat="44.38027" lon="5.19153">
        <ele>309.5</ele>
        <time>2021-11-19T09:50:23Z</time>
      </trkpt>
      <trkpt lat="44.38022" lon="5.1915">
        <ele>309.6</ele>
        <time>2021-11-19T09:50:24Z</time>
      </trkpt>
      <trkpt lat="44.38017" lon="5.19148">
        <ele>309.6</ele>
        <time>2021-11-19T09:50:26Z</time>
      </trkpt>
      <trkpt lat="44.3801" lon="5.19148">
        <ele>309.6</ele>
        <time>2021-11-19T09:50:30Z</time>
      </trkpt>
      <trkpt lat="44.38011" lon="5.19149">
        <ele>309.6</ele>
        <time>2021-11-19T09:50:31Z</time>
      </trkpt>
      <trkpt lat="44.38008" lon="5.19149">
        <ele>309.6</ele>
        <time>2021-11-19T09:50:33Z</time>
      </trkpt>
      <trkpt lat="44.38008" lon="5.19149">
        <ele>309.6</ele>
        <time>2021-11-19T09:50:34Z</time>
      </trkpt>
      <trkpt lat="44.37992" lon="5.19128">
        <ele>309.9</ele>
        <time>2021-11-19T09:50:45Z</time>
      </trkpt>
      <trkpt lat="44.37992" lon="5.19128">
        <ele>309.9</ele>
        <time>2021-11-19T09:50:45Z</time>
      </trkpt>
      <trkpt lat="44.37975" lon="5.19079">
        <ele>309.4</ele>
        <time>2021-11-19T09:50:46Z</time>
      </trkpt>
      <trkpt lat="44.37968" lon="5.19053">
        <ele>308.9</ele>
        <time>2021-11-19T09:50:47Z</time>
      </trkpt>
      <trkpt lat="44.3796" lon="5.19027">
        <ele>308.3</ele>
        <time>2021-11-19T09:50:48Z</time>
      </trkpt>
      <trkpt lat="44.37952" lon="5.18997">
        <ele>307.6</ele>
        <time>2021-11-19T09:50:49Z</time>
      </trkpt>
      <trkpt lat="44.37948" lon="5.18974">
        <ele>307.2</ele>
        <time>2021-11-19T09:50:50Z</time>
      </trkpt>
      <trkpt lat="44.37945" lon="5.18955">
        <ele>307.3</ele>
        <time>2021-11-19T09:50:51Z</time>
      </trkpt>
      <trkpt lat="44.37942" lon="5.18938">
        <ele>307.3</ele>
        <time>2021-11-19T09:50:52Z</time>
      </trkpt>
      <trkpt lat="44.37939" lon="5.1892">
        <ele>307.3</ele>
        <time>2021-11-19T09:50:53Z</time>
      </trkpt>
      <trkpt lat="44.37938" lon="5.18905">
        <ele>307.2</ele>
        <time>2021-11-19T09:50:54Z</time>
      </trkpt>
      <trkpt lat="44.37937" lon="5.18892">
        <ele>307.1</ele>
        <time>2021-11-19T09:50:55Z</time>
      </trkpt>
      <trkpt lat="44.37936" lon="5.1888">
        <ele>307.1</ele>
        <time>2021-11-19T09:50:56Z</time>
      </trkpt>
      <trkpt lat="44.37937" lon="5.18869">
        <ele>307.1</ele>
        <time>2021-11-19T09:50:57Z</time>
      </trkpt>
      <trkpt lat="44.37938" lon="5.18859">
        <ele>307</ele>
        <time>2021-11-19T09:50:58Z</time>
      </trkpt>
      <trkpt lat="44.3794" lon="5.18849">
        <ele>307</ele>
        <time>2021-11-19T09:50:59Z</time>
      </trkpt>
      <trkpt lat="44.37941" lon="5.18838">
        <ele>307</ele>
        <time>2021-11-19T09:51:00Z</time>
      </trkpt>
      <trkpt lat="44.37943" lon="5.18827">
        <ele>307</ele>
        <time>2021-11-19T09:51:01Z</time>
      </trkpt>
      <trkpt lat="44.37945" lon="5.18818">
        <ele>307</ele>
        <time>2021-11-19T09:51:02Z</time>
      </trkpt>
      <trkpt lat="44.37946" lon="5.18808">
        <ele>307</ele>
        <time>2021-11-19T09:51:03Z</time>
      </trkpt>
      <trkpt lat="44.37948" lon="5.18799">
        <ele>307</ele>
        <time>2021-11-19T09:51:04Z</time>
      </trkpt>
      <trkpt lat="44.37951" lon="5.1879">
        <ele>306.9</ele>
        <time>2021-11-19T09:51:05Z</time>
      </trkpt>
      <trkpt lat="44.37953" lon="5.18781">
        <ele>306.9</ele>
        <time>2021-11-19T09:51:06Z</time>
      </trkpt>
      <trkpt lat="44.37955" lon="5.18772">
        <ele>306.9</ele>
        <time>2021-11-19T09:51:07Z</time>
      </trkpt>
      <trkpt lat="44.37957" lon="5.18764">
        <ele>306.9</ele>
        <time>2021-11-19T09:51:08Z</time>
      </trkpt>
      <trkpt lat="44.37959" lon="5.18757">
        <ele>307</ele>
        <time>2021-11-19T09:51:09Z</time>
      </trkpt>
      <trkpt lat="44.37961" lon="5.18749">
        <ele>307</ele>
        <time>2021-11-19T09:51:10Z</time>
      </trkpt>
      <trkpt lat="44.37963" lon="5.1874">
        <ele>307</ele>
        <time>2021-11-19T09:51:11Z</time>
      </trkpt>
      <trkpt lat="44.37965" lon="5.18731">
        <ele>307</ele>
        <time>2021-11-19T09:51:12Z</time>
      </trkpt>
      <trkpt lat="44.37966" lon="5.18722">
        <ele>307</ele>
        <time>2021-11-19T09:51:13Z</time>
      </trkpt>
      <trkpt lat="44.37967" lon="5.18714">
        <ele>307</ele>
        <time>2021-11-19T09:51:14Z</time>
      </trkpt>
      <trkpt lat="44.37969" lon="5.18707">
        <ele>307</ele>
        <time>2021-11-19T09:51:15Z</time>
      </trkpt>
      <trkpt lat="44.3797" lon="5.187">
        <ele>307</ele>
        <time>2021-11-19T09:51:16Z</time>
      </trkpt>
      <trkpt lat="44.37971" lon="5.18693">
        <ele>307</ele>
        <time>2021-11-19T09:51:17Z</time>
      </trkpt>
      <trkpt lat="44.37972" lon="5.18687">
        <ele>307</ele>
        <time>2021-11-19T09:51:18Z</time>
      </trkpt>
      <trkpt lat="44.37973" lon="5.18681">
        <ele>307</ele>
        <time>2021-11-19T09:51:19Z</time>
      </trkpt>
      <trkpt lat="44.37975" lon="5.18674">
        <ele>307</ele>
        <time>2021-11-19T09:51:20Z</time>
      </trkpt>
      <trkpt lat="44.37976" lon="5.18668">
        <ele>307</ele>
        <time>2021-11-19T09:51:21Z</time>
      </trkpt>
      <trkpt lat="44.37976" lon="5.18661">
        <ele>307</ele>
        <time>2021-11-19T09:51:22Z</time>
      </trkpt>
      <trkpt lat="44.37978" lon="5.18653">
        <ele>307</ele>
        <time>2021-11-19T09:51:23Z</time>
      </trkpt>
      <trkpt lat="44.37979" lon="5.18645">
        <ele>307</ele>
        <time>2021-11-19T09:51:24Z</time>
      </trkpt>
      <trkpt lat="44.3798" lon="5.18638">
        <ele>307.1</ele>
        <time>2021-11-19T09:51:25Z</time>
      </trkpt>
      <trkpt lat="44.3798" lon="5.1863">
        <ele>307.1</ele>
        <time>2021-11-19T09:51:26Z</time>
      </trkpt>
      <trkpt lat="44.3798" lon="5.18622">
        <ele>307.1</ele>
        <time>2021-11-19T09:51:27Z</time>
      </trkpt>
      <trkpt lat="44.3798" lon="5.18615">
        <ele>307.1</ele>
        <time>2021-11-19T09:51:28Z</time>
      </trkpt>
      <trkpt lat="44.37979" lon="5.18607">
        <ele>307.1</ele>
        <time>2021-11-19T09:51:29Z</time>
      </trkpt>
      <trkpt lat="44.37978" lon="5.186">
        <ele>307.1</ele>
        <time>2021-11-19T09:51:30Z</time>
      </trkpt>
      <trkpt lat="44.37976" lon="5.18592">
        <ele>307.1</ele>
        <time>2021-11-19T09:51:31Z</time>
      </trkpt>
      <trkpt lat="44.37975" lon="5.18584">
        <ele>307.1</ele>
        <time>2021-11-19T09:51:32Z</time>
      </trkpt>
      <trkpt lat="44.37973" lon="5.18576">
        <ele>307.1</ele>
        <time>2021-11-19T09:51:33Z</time>
      </trkpt>
      <trkpt lat="44.37971" lon="5.18568">
        <ele>307.1</ele>
        <time>2021-11-19T09:51:34Z</time>
      </trkpt>
      <trkpt lat="44.37968" lon="5.18562">
        <ele>307</ele>
        <time>2021-11-19T09:51:35Z</time>
      </trkpt>
      <trkpt lat="44.37965" lon="5.18555">
        <ele>307</ele>
        <time>2021-11-19T09:51:36Z</time>
      </trkpt>
      <trkpt lat="44.37962" lon="5.18548">
        <ele>307</ele>
        <time>2021-11-19T09:51:37Z</time>
      </trkpt>
      <trkpt lat="44.37959" lon="5.1854">
        <ele>307</ele>
        <time>2021-11-19T09:51:38Z</time>
      </trkpt>
      <trkpt lat="44.37956" lon="5.18533">
        <ele>307</ele>
        <time>2021-11-19T09:51:39Z</time>
      </trkpt>
      <trkpt lat="44.37954" lon="5.18526">
        <ele>307</ele>
        <time>2021-11-19T09:51:40Z</time>
      </trkpt>
      <trkpt lat="44.3795" lon="5.1852">
        <ele>306.9</ele>
        <time>2021-11-19T09:51:41Z</time>
      </trkpt>
      <trkpt lat="44.37946" lon="5.18514">
        <ele>306.9</ele>
        <time>2021-11-19T09:51:42Z</time>
      </trkpt>
      <trkpt lat="44.37941" lon="5.18507">
        <ele>306.9</ele>
        <time>2021-11-19T09:51:43Z</time>
      </trkpt>
      <trkpt lat="44.37937" lon="5.18501">
        <ele>306.9</ele>
        <time>2021-11-19T09:51:44Z</time>
      </trkpt>
      <trkpt lat="44.37933" lon="5.18495">
        <ele>306.8</ele>
        <time>2021-11-19T09:51:45Z</time>
      </trkpt>
      <trkpt lat="44.37928" lon="5.18489">
        <ele>306.8</ele>
        <time>2021-11-19T09:51:46Z</time>
      </trkpt>
      <trkpt lat="44.37924" lon="5.18483">
        <ele>306.8</ele>
        <time>2021-11-19T09:51:47Z</time>
      </trkpt>
      <trkpt lat="44.37919" lon="5.18477">
        <ele>306.8</ele>
        <time>2021-11-19T09:51:48Z</time>
      </trkpt>
      <trkpt lat="44.37913" lon="5.1847">
        <ele>306.8</ele>
        <time>2021-11-19T09:51:49Z</time>
      </trkpt>
      <trkpt lat="44.37908" lon="5.18464">
        <ele>306.8</ele>
        <time>2021-11-19T09:51:50Z</time>
      </trkpt>
      <trkpt lat="44.37904" lon="5.18459">
        <ele>306.8</ele>
        <time>2021-11-19T09:51:51Z</time>
      </trkpt>
      <trkpt lat="44.37899" lon="5.18452">
        <ele>306.8</ele>
        <time>2021-11-19T09:51:52Z</time>
      </trkpt>
      <trkpt lat="44.37895" lon="5.18445">
        <ele>306.7</ele>
        <time>2021-11-19T09:51:53Z</time>
      </trkpt>
      <trkpt lat="44.37891" lon="5.18439">
        <ele>306.7</ele>
        <time>2021-11-19T09:51:54Z</time>
      </trkpt>
      <trkpt lat="44.37887" lon="5.18431">
        <ele>306.7</ele>
        <time>2021-11-19T09:51:55Z</time>
      </trkpt>
      <trkpt lat="44.37884" lon="5.18423">
        <ele>306.7</ele>
        <time>2021-11-19T09:51:56Z</time>
      </trkpt>
      <trkpt lat="44.37881" lon="5.18416">
        <ele>306.7</ele>
        <time>2021-11-19T09:51:57Z</time>
      </trkpt>
      <trkpt lat="44.37878" lon="5.18409">
        <ele>306.7</ele>
        <time>2021-11-19T09:51:58Z</time>
      </trkpt>
      <trkpt lat="44.37877" lon="5.18401">
        <ele>306.7</ele>
        <time>2021-11-19T09:51:59Z</time>
      </trkpt>
      <trkpt lat="44.37875" lon="5.18392">
        <ele>306.8</ele>
        <time>2021-11-19T09:52:00Z</time>
      </trkpt>
      <trkpt lat="44.37874" lon="5.18384">
        <ele>306.8</ele>
        <time>2021-11-19T09:52:01Z</time>
      </trkpt>
      <trkpt lat="44.37874" lon="5.18375">
        <ele>306.8</ele>
        <time>2021-11-19T09:52:02Z</time>
      </trkpt>
      <trkpt lat="44.37874" lon="5.18367">
        <ele>306.8</ele>
        <time>2021-11-19T09:52:03Z</time>
      </trkpt>
      <trkpt lat="44.37874" lon="5.18359">
        <ele>306.8</ele>
        <time>2021-11-19T09:52:04Z</time>
      </trkpt>
      <trkpt lat="44.37875" lon="5.18351">
        <ele>306.8</ele>
        <time>2021-11-19T09:52:05Z</time>
      </trkpt>
      <trkpt lat="44.37876" lon="5.18343">
        <ele>306.8</ele>
        <time>2021-11-19T09:52:06Z</time>
      </trkpt>
      <trkpt lat="44.37877" lon="5.18336">
        <ele>306.8</ele>
        <time>2021-11-19T09:52:07Z</time>
      </trkpt>
      <trkpt lat="44.37878" lon="5.18329">
        <ele>306.8</ele>
        <time>2021-11-19T09:52:08Z</time>
      </trkpt>
      <trkpt lat="44.37879" lon="5.18321">
        <ele>306.8</ele>
        <time>2021-11-19T09:52:09Z</time>
      </trkpt>
      <trkpt lat="44.3788" lon="5.18313">
        <ele>306.8</ele>
        <time>2021-11-19T09:52:10Z</time>
      </trkpt>
      <trkpt lat="44.37881" lon="5.18306">
        <ele>306.8</ele>
        <time>2021-11-19T09:52:11Z</time>
      </trkpt>
      <trkpt lat="44.37883" lon="5.183">
        <ele>306.8</ele>
        <time>2021-11-19T09:52:12Z</time>
      </trkpt>
      <trkpt lat="44.37885" lon="5.18294">
        <ele>306.8</ele>
        <time>2021-11-19T09:52:13Z</time>
      </trkpt>
      <trkpt lat="44.37888" lon="5.18285">
        <ele>306.8</ele>
        <time>2021-11-19T09:52:14Z</time>
      </trkpt>
      <trkpt lat="44.37889" lon="5.18276">
        <ele>306.8</ele>
        <time>2021-11-19T09:52:15Z</time>
      </trkpt>
      <trkpt lat="44.3789" lon="5.18269">
        <ele>306.8</ele>
        <time>2021-11-19T09:52:16Z</time>
      </trkpt>
      <trkpt lat="44.37892" lon="5.18261">
        <ele>306.8</ele>
        <time>2021-11-19T09:52:17Z</time>
      </trkpt>
      <trkpt lat="44.37894" lon="5.18253">
        <ele>306.8</ele>
        <time>2021-11-19T09:52:18Z</time>
      </trkpt>
      <trkpt lat="44.37896" lon="5.18246">
        <ele>306.8</ele>
        <time>2021-11-19T09:52:19Z</time>
      </trkpt>
      <trkpt lat="44.37899" lon="5.18239">
        <ele>306.8</ele>
        <time>2021-11-19T09:52:20Z</time>
      </trkpt>
      <trkpt lat="44.37902" lon="5.18231">
        <ele>306.8</ele>
        <time>2021-11-19T09:52:21Z</time>
      </trkpt>
      <trkpt lat="44.37904" lon="5.18223">
        <ele>306.8</ele>
        <time>2021-11-19T09:52:22Z</time>
      </trkpt>
      <trkpt lat="44.37908" lon="5.18216">
        <ele>306.8</ele>
        <time>2021-11-19T09:52:23Z</time>
      </trkpt>
      <trkpt lat="44.37912" lon="5.18209">
        <ele>306.8</ele>
        <time>2021-11-19T09:52:24Z</time>
      </trkpt>
      <trkpt lat="44.37916" lon="5.18203">
        <ele>306.8</ele>
        <time>2021-11-19T09:52:25Z</time>
      </trkpt>
      <trkpt lat="44.37919" lon="5.18195">
        <ele>306.7</ele>
        <time>2021-11-19T09:52:26Z</time>
      </trkpt>
      <trkpt lat="44.37923" lon="5.18189">
        <ele>306.7</ele>
        <time>2021-11-19T09:52:27Z</time>
      </trkpt>
      <trkpt lat="44.37928" lon="5.18182">
        <ele>306.7</ele>
        <time>2021-11-19T09:52:28Z</time>
      </trkpt>
      <trkpt lat="44.37932" lon="5.18175">
        <ele>306.7</ele>
        <time>2021-11-19T09:52:29Z</time>
      </trkpt>
      <trkpt lat="44.37935" lon="5.18169">
        <ele>306.7</ele>
        <time>2021-11-19T09:52:30Z</time>
      </trkpt>
      <trkpt lat="44.3794" lon="5.18161">
        <ele>306.7</ele>
        <time>2021-11-19T09:52:31Z</time>
      </trkpt>
      <trkpt lat="44.37944" lon="5.18154">
        <ele>306.7</ele>
        <time>2021-11-19T09:52:32Z</time>
      </trkpt>
      <trkpt lat="44.37949" lon="5.18147">
        <ele>306.7</ele>
        <time>2021-11-19T09:52:33Z</time>
      </trkpt>
      <trkpt lat="44.37954" lon="5.1814">
        <ele>306.7</ele>
        <time>2021-11-19T09:52:34Z</time>
      </trkpt>
      <trkpt lat="44.37959" lon="5.18136">
        <ele>306.7</ele>
        <time>2021-11-19T09:52:35Z</time>
      </trkpt>
      <trkpt lat="44.37964" lon="5.18133">
        <ele>306.7</ele>
        <time>2021-11-19T09:52:36Z</time>
      </trkpt>
      <trkpt lat="44.37969" lon="5.1813">
        <ele>306.6</ele>
        <time>2021-11-19T09:52:37Z</time>
      </trkpt>
      <trkpt lat="44.37975" lon="5.18127">
        <ele>306.6</ele>
        <time>2021-11-19T09:52:38Z</time>
      </trkpt>
      <trkpt lat="44.37981" lon="5.18124">
        <ele>306.6</ele>
        <time>2021-11-19T09:52:39Z</time>
      </trkpt>
      <trkpt lat="44.37987" lon="5.18122">
        <ele>306.6</ele>
        <time>2021-11-19T09:52:40Z</time>
      </trkpt>
      <trkpt lat="44.37992" lon="5.18119">
        <ele>306.5</ele>
        <time>2021-11-19T09:52:41Z</time>
      </trkpt>
      <trkpt lat="44.37997" lon="5.18115">
        <ele>306.5</ele>
        <time>2021-11-19T09:52:42Z</time>
      </trkpt>
      <trkpt lat="44.38002" lon="5.18112">
        <ele>306.5</ele>
        <time>2021-11-19T09:52:43Z</time>
      </trkpt>
      <trkpt lat="44.38007" lon="5.18107">
        <ele>306.5</ele>
        <time>2021-11-19T09:52:44Z</time>
      </trkpt>
      <trkpt lat="44.38013" lon="5.18103">
        <ele>306.4</ele>
        <time>2021-11-19T09:52:45Z</time>
      </trkpt>
      <trkpt lat="44.38019" lon="5.181">
        <ele>306.4</ele>
        <time>2021-11-19T09:52:46Z</time>
      </trkpt>
      <trkpt lat="44.38024" lon="5.18097">
        <ele>306.3</ele>
        <time>2021-11-19T09:52:47Z</time>
      </trkpt>
      <trkpt lat="44.3803" lon="5.18094">
        <ele>306.3</ele>
        <time>2021-11-19T09:52:48Z</time>
      </trkpt>
      <trkpt lat="44.38035" lon="5.18092">
        <ele>306.2</ele>
        <time>2021-11-19T09:52:49Z</time>
      </trkpt>
      <trkpt lat="44.38041" lon="5.1809">
        <ele>306.1</ele>
        <time>2021-11-19T09:52:50Z</time>
      </trkpt>
      <trkpt lat="44.38048" lon="5.18086">
        <ele>306.1</ele>
        <time>2021-11-19T09:52:51Z</time>
      </trkpt>
      <trkpt lat="44.38055" lon="5.18081">
        <ele>306</ele>
        <time>2021-11-19T09:52:52Z</time>
      </trkpt>
      <trkpt lat="44.38061" lon="5.18077">
        <ele>306</ele>
        <time>2021-11-19T09:52:53Z</time>
      </trkpt>
      <trkpt lat="44.38068" lon="5.18072">
        <ele>305.9</ele>
        <time>2021-11-19T09:52:54Z</time>
      </trkpt>
      <trkpt lat="44.38074" lon="5.18067">
        <ele>305.9</ele>
        <time>2021-11-19T09:52:55Z</time>
      </trkpt>
      <trkpt lat="44.38081" lon="5.18062">
        <ele>305.8</ele>
        <time>2021-11-19T09:52:56Z</time>
      </trkpt>
      <trkpt lat="44.38087" lon="5.18057">
        <ele>305.7</ele>
        <time>2021-11-19T09:52:57Z</time>
      </trkpt>
      <trkpt lat="44.38093" lon="5.18052">
        <ele>305.7</ele>
        <time>2021-11-19T09:52:58Z</time>
      </trkpt>
      <trkpt lat="44.38099" lon="5.18046">
        <ele>305.6</ele>
        <time>2021-11-19T09:52:59Z</time>
      </trkpt>
      <trkpt lat="44.38106" lon="5.18041">
        <ele>305.5</ele>
        <time>2021-11-19T09:53:00Z</time>
      </trkpt>
      <trkpt lat="44.38112" lon="5.18036">
        <ele>305.5</ele>
        <time>2021-11-19T09:53:01Z</time>
      </trkpt>
      <trkpt lat="44.38118" lon="5.18031">
        <ele>305.5</ele>
        <time>2021-11-19T09:53:02Z</time>
      </trkpt>
      <trkpt lat="44.38124" lon="5.18025">
        <ele>305.4</ele>
        <time>2021-11-19T09:53:03Z</time>
      </trkpt>
      <trkpt lat="44.3813" lon="5.18019">
        <ele>305.4</ele>
        <time>2021-11-19T09:53:04Z</time>
      </trkpt>
      <trkpt lat="44.38136" lon="5.18013">
        <ele>305.3</ele>
        <time>2021-11-19T09:53:05Z</time>
      </trkpt>
      <trkpt lat="44.38141" lon="5.18007">
        <ele>305.3</ele>
        <time>2021-11-19T09:53:06Z</time>
      </trkpt>
      <trkpt lat="44.38148" lon="5.18001">
        <ele>305.2</ele>
        <time>2021-11-19T09:53:07Z</time>
      </trkpt>
      <trkpt lat="44.38155" lon="5.17996">
        <ele>305.1</ele>
        <time>2021-11-19T09:53:08Z</time>
      </trkpt>
      <trkpt lat="44.38162" lon="5.17991">
        <ele>305</ele>
        <time>2021-11-19T09:53:09Z</time>
      </trkpt>
      <trkpt lat="44.3817" lon="5.17987">
        <ele>304.9</ele>
        <time>2021-11-19T09:53:10Z</time>
      </trkpt>
      <trkpt lat="44.38177" lon="5.17982">
        <ele>304.8</ele>
        <time>2021-11-19T09:53:11Z</time>
      </trkpt>
      <trkpt lat="44.38183" lon="5.17978">
        <ele>304.7</ele>
        <time>2021-11-19T09:53:12Z</time>
      </trkpt>
      <trkpt lat="44.3819" lon="5.17974">
        <ele>304.6</ele>
        <time>2021-11-19T09:53:13Z</time>
      </trkpt>
      <trkpt lat="44.38197" lon="5.1797">
        <ele>304.5</ele>
        <time>2021-11-19T09:53:14Z</time>
      </trkpt>
      <trkpt lat="44.38204" lon="5.17966">
        <ele>304.4</ele>
        <time>2021-11-19T09:53:15Z</time>
      </trkpt>
      <trkpt lat="44.38211" lon="5.17963">
        <ele>304.2</ele>
        <time>2021-11-19T09:53:16Z</time>
      </trkpt>
      <trkpt lat="44.38219" lon="5.17959">
        <ele>304</ele>
        <time>2021-11-19T09:53:17Z</time>
      </trkpt>
      <trkpt lat="44.38226" lon="5.17956">
        <ele>303.9</ele>
        <time>2021-11-19T09:53:18Z</time>
      </trkpt>
      <trkpt lat="44.38233" lon="5.17953">
        <ele>303.7</ele>
        <time>2021-11-19T09:53:19Z</time>
      </trkpt>
      <trkpt lat="44.3824" lon="5.1795">
        <ele>303.6</ele>
        <time>2021-11-19T09:53:20Z</time>
      </trkpt>
      <trkpt lat="44.38247" lon="5.17946">
        <ele>303.4</ele>
        <time>2021-11-19T09:53:21Z</time>
      </trkpt>
      <trkpt lat="44.38254" lon="5.17943">
        <ele>303.2</ele>
        <time>2021-11-19T09:53:22Z</time>
      </trkpt>
      <trkpt lat="44.38262" lon="5.17939">
        <ele>303.1</ele>
        <time>2021-11-19T09:53:23Z</time>
      </trkpt>
      <trkpt lat="44.3827" lon="5.17935">
        <ele>302.9</ele>
        <time>2021-11-19T09:53:24Z</time>
      </trkpt>
      <trkpt lat="44.38277" lon="5.17931">
        <ele>302.7</ele>
        <time>2021-11-19T09:53:25Z</time>
      </trkpt>
      <trkpt lat="44.38283" lon="5.17927">
        <ele>302.6</ele>
        <time>2021-11-19T09:53:26Z</time>
      </trkpt>
      <trkpt lat="44.38291" lon="5.17922">
        <ele>302.4</ele>
        <time>2021-11-19T09:53:27Z</time>
      </trkpt>
      <trkpt lat="44.38298" lon="5.17917">
        <ele>302.3</ele>
        <time>2021-11-19T09:53:28Z</time>
      </trkpt>
      <trkpt lat="44.38305" lon="5.1791">
        <ele>302.2</ele>
        <time>2021-11-19T09:53:29Z</time>
      </trkpt>
      <trkpt lat="44.38311" lon="5.17903">
        <ele>302.1</ele>
        <time>2021-11-19T09:53:30Z</time>
      </trkpt>
      <trkpt lat="44.38317" lon="5.17894">
        <ele>301.9</ele>
        <time>2021-11-19T09:53:31Z</time>
      </trkpt>
      <trkpt lat="44.38322" lon="5.17885">
        <ele>301.8</ele>
        <time>2021-11-19T09:53:32Z</time>
      </trkpt>
      <trkpt lat="44.38328" lon="5.17877">
        <ele>301.6</ele>
        <time>2021-11-19T09:53:33Z</time>
      </trkpt>
      <trkpt lat="44.38334" lon="5.17867">
        <ele>301.5</ele>
        <time>2021-11-19T09:53:34Z</time>
      </trkpt>
      <trkpt lat="44.38339" lon="5.17858">
        <ele>301.3</ele>
        <time>2021-11-19T09:53:35Z</time>
      </trkpt>
      <trkpt lat="44.38345" lon="5.17849">
        <ele>301.2</ele>
        <time>2021-11-19T09:53:36Z</time>
      </trkpt>
      <trkpt lat="44.3835" lon="5.17841">
        <ele>301.1</ele>
        <time>2021-11-19T09:53:37Z</time>
      </trkpt>
      <trkpt lat="44.38356" lon="5.17832">
        <ele>301</ele>
        <time>2021-11-19T09:53:38Z</time>
      </trkpt>
      <trkpt lat="44.38361" lon="5.17824">
        <ele>300.8</ele>
        <time>2021-11-19T09:53:39Z</time>
      </trkpt>
      <trkpt lat="44.38367" lon="5.17816">
        <ele>300.7</ele>
        <time>2021-11-19T09:53:40Z</time>
      </trkpt>
      <trkpt lat="44.38373" lon="5.17808">
        <ele>300.6</ele>
        <time>2021-11-19T09:53:41Z</time>
      </trkpt>
      <trkpt lat="44.38379" lon="5.178">
        <ele>300.4</ele>
        <time>2021-11-19T09:53:42Z</time>
      </trkpt>
      <trkpt lat="44.38385" lon="5.17791">
        <ele>300.3</ele>
        <time>2021-11-19T09:53:43Z</time>
      </trkpt>
      <trkpt lat="44.38391" lon="5.17782">
        <ele>300.1</ele>
        <time>2021-11-19T09:53:44Z</time>
      </trkpt>
      <trkpt lat="44.38397" lon="5.17774">
        <ele>300</ele>
        <time>2021-11-19T09:53:45Z</time>
      </trkpt>
      <trkpt lat="44.38402" lon="5.17765">
        <ele>299.8</ele>
        <time>2021-11-19T09:53:46Z</time>
      </trkpt>
      <trkpt lat="44.38408" lon="5.17758">
        <ele>299.7</ele>
        <time>2021-11-19T09:53:47Z</time>
      </trkpt>
      <trkpt lat="44.38414" lon="5.1775">
        <ele>299.6</ele>
        <time>2021-11-19T09:53:48Z</time>
      </trkpt>
      <trkpt lat="44.3842" lon="5.1774">
        <ele>299.4</ele>
        <time>2021-11-19T09:53:49Z</time>
      </trkpt>
      <trkpt lat="44.38426" lon="5.17731">
        <ele>299.3</ele>
        <time>2021-11-19T09:53:50Z</time>
      </trkpt>
      <trkpt lat="44.3843" lon="5.17721">
        <ele>299.2</ele>
        <time>2021-11-19T09:53:51Z</time>
      </trkpt>
      <trkpt lat="44.38433" lon="5.1771">
        <ele>299.1</ele>
        <time>2021-11-19T09:53:52Z</time>
      </trkpt>
      <trkpt lat="44.38436" lon="5.177">
        <ele>299</ele>
        <time>2021-11-19T09:53:53Z</time>
      </trkpt>
      <trkpt lat="44.38436" lon="5.17689">
        <ele>298.9</ele>
        <time>2021-11-19T09:53:54Z</time>
      </trkpt>
      <trkpt lat="44.38436" lon="5.17677">
        <ele>298.9</ele>
        <time>2021-11-19T09:53:55Z</time>
      </trkpt>
      <trkpt lat="44.38437" lon="5.17666">
        <ele>298.8</ele>
        <time>2021-11-19T09:53:56Z</time>
      </trkpt>
      <trkpt lat="44.38438" lon="5.17655">
        <ele>298.7</ele>
        <time>2021-11-19T09:53:57Z</time>
      </trkpt>
      <trkpt lat="44.38439" lon="5.17643">
        <ele>298.6</ele>
        <time>2021-11-19T09:53:58Z</time>
      </trkpt>
      <trkpt lat="44.38439" lon="5.17631">
        <ele>298.6</ele>
        <time>2021-11-19T09:53:59Z</time>
      </trkpt>
      <trkpt lat="44.38439" lon="5.17619">
        <ele>298.5</ele>
        <time>2021-11-19T09:54:00Z</time>
      </trkpt>
      <trkpt lat="44.3844" lon="5.17608">
        <ele>298.4</ele>
        <time>2021-11-19T09:54:01Z</time>
      </trkpt>
      <trkpt lat="44.38441" lon="5.17597">
        <ele>298.4</ele>
        <time>2021-11-19T09:54:02Z</time>
      </trkpt>
      <trkpt lat="44.38442" lon="5.17586">
        <ele>298.4</ele>
        <time>2021-11-19T09:54:03Z</time>
      </trkpt>
      <trkpt lat="44.38442" lon="5.17575">
        <ele>298.3</ele>
        <time>2021-11-19T09:54:04Z</time>
      </trkpt>
      <trkpt lat="44.38441" lon="5.17562">
        <ele>298.3</ele>
        <time>2021-11-19T09:54:05Z</time>
      </trkpt>
      <trkpt lat="44.38441" lon="5.17551">
        <ele>298.3</ele>
        <time>2021-11-19T09:54:06Z</time>
      </trkpt>
      <trkpt lat="44.3844" lon="5.17541">
        <ele>298.3</ele>
        <time>2021-11-19T09:54:07Z</time>
      </trkpt>
      <trkpt lat="44.38439" lon="5.1753">
        <ele>298.3</ele>
        <time>2021-11-19T09:54:08Z</time>
      </trkpt>
      <trkpt lat="44.38438" lon="5.17518">
        <ele>298.3</ele>
        <time>2021-11-19T09:54:09Z</time>
      </trkpt>
      <trkpt lat="44.38437" lon="5.17508">
        <ele>298.4</ele>
        <time>2021-11-19T09:54:10Z</time>
      </trkpt>
      <trkpt lat="44.38436" lon="5.17498">
        <ele>298.4</ele>
        <time>2021-11-19T09:54:11Z</time>
      </trkpt>
      <trkpt lat="44.38435" lon="5.17487">
        <ele>298.4</ele>
        <time>2021-11-19T09:54:12Z</time>
      </trkpt>
      <trkpt lat="44.38434" lon="5.17477">
        <ele>298.4</ele>
        <time>2021-11-19T09:54:13Z</time>
      </trkpt>
      <trkpt lat="44.38433" lon="5.17467">
        <ele>298.4</ele>
        <time>2021-11-19T09:54:14Z</time>
      </trkpt>
      <trkpt lat="44.38432" lon="5.17457">
        <ele>298.4</ele>
        <time>2021-11-19T09:54:15Z</time>
      </trkpt>
      <trkpt lat="44.3843" lon="5.17447">
        <ele>298.4</ele>
        <time>2021-11-19T09:54:16Z</time>
      </trkpt>
      <trkpt lat="44.38429" lon="5.17436">
        <ele>298.5</ele>
        <time>2021-11-19T09:54:17Z</time>
      </trkpt>
      <trkpt lat="44.38428" lon="5.17427">
        <ele>298.5</ele>
        <time>2021-11-19T09:54:18Z</time>
      </trkpt>
      <trkpt lat="44.38427" lon="5.17417">
        <ele>298.6</ele>
        <time>2021-11-19T09:54:19Z</time>
      </trkpt>
      <trkpt lat="44.38426" lon="5.17407">
        <ele>298.7</ele>
        <time>2021-11-19T09:54:20Z</time>
      </trkpt>
      <trkpt lat="44.38425" lon="5.17398">
        <ele>298.7</ele>
        <time>2021-11-19T09:54:21Z</time>
      </trkpt>
      <trkpt lat="44.38424" lon="5.17389">
        <ele>298.8</ele>
        <time>2021-11-19T09:54:22Z</time>
      </trkpt>
      <trkpt lat="44.38423" lon="5.1738">
        <ele>298.9</ele>
        <time>2021-11-19T09:54:23Z</time>
      </trkpt>
      <trkpt lat="44.38422" lon="5.1737">
        <ele>299</ele>
        <time>2021-11-19T09:54:24Z</time>
      </trkpt>
      <trkpt lat="44.38421" lon="5.1736">
        <ele>299.2</ele>
        <time>2021-11-19T09:54:25Z</time>
      </trkpt>
      <trkpt lat="44.3842" lon="5.1735">
        <ele>299.3</ele>
        <time>2021-11-19T09:54:26Z</time>
      </trkpt>
      <trkpt lat="44.38419" lon="5.17342">
        <ele>299.4</ele>
        <time>2021-11-19T09:54:27Z</time>
      </trkpt>
      <trkpt lat="44.38418" lon="5.17335">
        <ele>299.5</ele>
        <time>2021-11-19T09:54:28Z</time>
      </trkpt>
      <trkpt lat="44.38417" lon="5.17327">
        <ele>299.6</ele>
        <time>2021-11-19T09:54:29Z</time>
      </trkpt>
      <trkpt lat="44.38416" lon="5.17319">
        <ele>299.7</ele>
        <time>2021-11-19T09:54:30Z</time>
      </trkpt>
      <trkpt lat="44.38415" lon="5.17311">
        <ele>299.8</ele>
        <time>2021-11-19T09:54:31Z</time>
      </trkpt>
      <trkpt lat="44.38415" lon="5.17303">
        <ele>299.9</ele>
        <time>2021-11-19T09:54:32Z</time>
      </trkpt>
      <trkpt lat="44.38413" lon="5.17294">
        <ele>300.1</ele>
        <time>2021-11-19T09:54:33Z</time>
      </trkpt>
      <trkpt lat="44.38411" lon="5.17286">
        <ele>300.2</ele>
        <time>2021-11-19T09:54:34Z</time>
      </trkpt>
      <trkpt lat="44.38407" lon="5.17279">
        <ele>300.4</ele>
        <time>2021-11-19T09:54:35Z</time>
      </trkpt>
      <trkpt lat="44.38405" lon="5.17271">
        <ele>300.5</ele>
        <time>2021-11-19T09:54:36Z</time>
      </trkpt>
      <trkpt lat="44.38404" lon="5.17263">
        <ele>300.6</ele>
        <time>2021-11-19T09:54:37Z</time>
      </trkpt>
      <trkpt lat="44.38403" lon="5.17256">
        <ele>300.7</ele>
        <time>2021-11-19T09:54:38Z</time>
      </trkpt>
      <trkpt lat="44.384" lon="5.1725">
        <ele>300.8</ele>
        <time>2021-11-19T09:54:39Z</time>
      </trkpt>
      <trkpt lat="44.38396" lon="5.17244">
        <ele>300.9</ele>
        <time>2021-11-19T09:54:40Z</time>
      </trkpt>
      <trkpt lat="44.38392" lon="5.17238">
        <ele>301</ele>
        <time>2021-11-19T09:54:41Z</time>
      </trkpt>
      <trkpt lat="44.38389" lon="5.17233">
        <ele>301.1</ele>
        <time>2021-11-19T09:54:42Z</time>
      </trkpt>
      <trkpt lat="44.38385" lon="5.17228">
        <ele>301.2</ele>
        <time>2021-11-19T09:54:43Z</time>
      </trkpt>
      <trkpt lat="44.38381" lon="5.17222">
        <ele>301.3</ele>
        <time>2021-11-19T09:54:44Z</time>
      </trkpt>
      <trkpt lat="44.38377" lon="5.17215">
        <ele>301.3</ele>
        <time>2021-11-19T09:54:45Z</time>
      </trkpt>
      <trkpt lat="44.38373" lon="5.17209">
        <ele>301.4</ele>
        <time>2021-11-19T09:54:46Z</time>
      </trkpt>
      <trkpt lat="44.38369" lon="5.17204">
        <ele>301.5</ele>
        <time>2021-11-19T09:54:47Z</time>
      </trkpt>
      <trkpt lat="44.38365" lon="5.17198">
        <ele>301.5</ele>
        <time>2021-11-19T09:54:48Z</time>
      </trkpt>
      <trkpt lat="44.3836" lon="5.17193">
        <ele>301.6</ele>
        <time>2021-11-19T09:54:49Z</time>
      </trkpt>
      <trkpt lat="44.38356" lon="5.17187">
        <ele>301.6</ele>
        <time>2021-11-19T09:54:50Z</time>
      </trkpt>
      <trkpt lat="44.38352" lon="5.17182">
        <ele>301.6</ele>
        <time>2021-11-19T09:54:51Z</time>
      </trkpt>
      <trkpt lat="44.38347" lon="5.17177">
        <ele>301.6</ele>
        <time>2021-11-19T09:54:52Z</time>
      </trkpt>
      <trkpt lat="44.38343" lon="5.17173">
        <ele>301.6</ele>
        <time>2021-11-19T09:54:53Z</time>
      </trkpt>
      <trkpt lat="44.38338" lon="5.17169">
        <ele>301.7</ele>
        <time>2021-11-19T09:54:54Z</time>
      </trkpt>
      <trkpt lat="44.38333" lon="5.17166">
        <ele>301.7</ele>
        <time>2021-11-19T09:54:55Z</time>
      </trkpt>
      <trkpt lat="44.38327" lon="5.17162">
        <ele>301.7</ele>
        <time>2021-11-19T09:54:56Z</time>
      </trkpt>
      <trkpt lat="44.38322" lon="5.17159">
        <ele>301.8</ele>
        <time>2021-11-19T09:54:57Z</time>
      </trkpt>
      <trkpt lat="44.38317" lon="5.17155">
        <ele>301.8</ele>
        <time>2021-11-19T09:54:58Z</time>
      </trkpt>
      <trkpt lat="44.38312" lon="5.17152">
        <ele>301.9</ele>
        <time>2021-11-19T09:54:59Z</time>
      </trkpt>
      <trkpt lat="44.38307" lon="5.17149">
        <ele>301.9</ele>
        <time>2021-11-19T09:55:00Z</time>
      </trkpt>
      <trkpt lat="44.38302" lon="5.17144">
        <ele>301.9</ele>
        <time>2021-11-19T09:55:01Z</time>
      </trkpt>
      <trkpt lat="44.38298" lon="5.1714">
        <ele>301.9</ele>
        <time>2021-11-19T09:55:02Z</time>
      </trkpt>
      <trkpt lat="44.38293" lon="5.17135">
        <ele>301.9</ele>
        <time>2021-11-19T09:55:03Z</time>
      </trkpt>
      <trkpt lat="44.38289" lon="5.17131">
        <ele>301.9</ele>
        <time>2021-11-19T09:55:04Z</time>
      </trkpt>
      <trkpt lat="44.38284" lon="5.17129">
        <ele>301.9</ele>
        <time>2021-11-19T09:55:05Z</time>
      </trkpt>
      <trkpt lat="44.38278" lon="5.17126">
        <ele>301.9</ele>
        <time>2021-11-19T09:55:06Z</time>
      </trkpt>
      <trkpt lat="44.38273" lon="5.17124">
        <ele>301.9</ele>
        <time>2021-11-19T09:55:07Z</time>
      </trkpt>
      <trkpt lat="44.38267" lon="5.17122">
        <ele>301.9</ele>
        <time>2021-11-19T09:55:08Z</time>
      </trkpt>
      <trkpt lat="44.38261" lon="5.1712">
        <ele>301.8</ele>
        <time>2021-11-19T09:55:09Z</time>
      </trkpt>
      <trkpt lat="44.38256" lon="5.17118">
        <ele>301.8</ele>
        <time>2021-11-19T09:55:10Z</time>
      </trkpt>
      <trkpt lat="44.38251" lon="5.17117">
        <ele>301.8</ele>
        <time>2021-11-19T09:55:11Z</time>
      </trkpt>
      <trkpt lat="44.38246" lon="5.17116">
        <ele>301.8</ele>
        <time>2021-11-19T09:55:12Z</time>
      </trkpt>
      <trkpt lat="44.38241" lon="5.17114">
        <ele>301.8</ele>
        <time>2021-11-19T09:55:13Z</time>
      </trkpt>
      <trkpt lat="44.38235" lon="5.17113">
        <ele>301.8</ele>
        <time>2021-11-19T09:55:14Z</time>
      </trkpt>
      <trkpt lat="44.3823" lon="5.17112">
        <ele>301.8</ele>
        <time>2021-11-19T09:55:15Z</time>
      </trkpt>
      <trkpt lat="44.38225" lon="5.17111">
        <ele>301.7</ele>
        <time>2021-11-19T09:55:16Z</time>
      </trkpt>
      <trkpt lat="44.38221" lon="5.17109">
        <ele>301.7</ele>
        <time>2021-11-19T09:55:17Z</time>
      </trkpt>
      <trkpt lat="44.38216" lon="5.17108">
        <ele>301.7</ele>
        <time>2021-11-19T09:55:18Z</time>
      </trkpt>
      <trkpt lat="44.38211" lon="5.17107">
        <ele>301.7</ele>
        <time>2021-11-19T09:55:19Z</time>
      </trkpt>
      <trkpt lat="44.38204" lon="5.17105">
        <ele>301.7</ele>
        <time>2021-11-19T09:55:20Z</time>
      </trkpt>
      <trkpt lat="44.38199" lon="5.17103">
        <ele>301.7</ele>
        <time>2021-11-19T09:55:21Z</time>
      </trkpt>
      <trkpt lat="44.38195" lon="5.17101">
        <ele>301.7</ele>
        <time>2021-11-19T09:55:22Z</time>
      </trkpt>
      <trkpt lat="44.38189" lon="5.171">
        <ele>301.7</ele>
        <time>2021-11-19T09:55:23Z</time>
      </trkpt>
      <trkpt lat="44.38184" lon="5.17099">
        <ele>301.7</ele>
        <time>2021-11-19T09:55:24Z</time>
      </trkpt>
      <trkpt lat="44.3818" lon="5.17094">
        <ele>301.7</ele>
        <time>2021-11-19T09:55:25Z</time>
      </trkpt>
      <trkpt lat="44.38179" lon="5.17086">
        <ele>301.7</ele>
        <time>2021-11-19T09:55:26Z</time>
      </trkpt>
      <trkpt lat="44.38156" lon="5.17097">
        <ele>301.7</ele>
        <time>2021-11-19T09:55:29Z</time>
      </trkpt>
      <trkpt lat="44.38146" lon="5.171">
        <ele>301.8</ele>
        <time>2021-11-19T09:55:30Z</time>
      </trkpt>
      <trkpt lat="44.38137" lon="5.17102">
        <ele>301.7</ele>
        <time>2021-11-19T09:55:31Z</time>
      </trkpt>
      <trkpt lat="44.38129" lon="5.17103">
        <ele>301.7</ele>
        <time>2021-11-19T09:55:32Z</time>
      </trkpt>
      <trkpt lat="44.38121" lon="5.17104">
        <ele>301.7</ele>
        <time>2021-11-19T09:55:33Z</time>
      </trkpt>
      <trkpt lat="44.38114" lon="5.17105">
        <ele>301.7</ele>
        <time>2021-11-19T09:55:34Z</time>
      </trkpt>
      <trkpt lat="44.38108" lon="5.17104">
        <ele>301.7</ele>
        <time>2021-11-19T09:55:35Z</time>
      </trkpt>
      <trkpt lat="44.38101" lon="5.17104">
        <ele>301.7</ele>
        <time>2021-11-19T09:55:36Z</time>
      </trkpt>
      <trkpt lat="44.38094" lon="5.17104">
        <ele>301.6</ele>
        <time>2021-11-19T09:55:37Z</time>
      </trkpt>
      <trkpt lat="44.38087" lon="5.17103">
        <ele>301.6</ele>
        <time>2021-11-19T09:55:38Z</time>
      </trkpt>
      <trkpt lat="44.3808" lon="5.17103">
        <ele>301.6</ele>
        <time>2021-11-19T09:55:39Z</time>
      </trkpt>
      <trkpt lat="44.38074" lon="5.17101">
        <ele>301.6</ele>
        <time>2021-11-19T09:55:40Z</time>
      </trkpt>
      <trkpt lat="44.38068" lon="5.171">
        <ele>301.6</ele>
        <time>2021-11-19T09:55:41Z</time>
      </trkpt>
      <trkpt lat="44.38063" lon="5.17098">
        <ele>301.6</ele>
        <time>2021-11-19T09:55:42Z</time>
      </trkpt>
      <trkpt lat="44.38057" lon="5.17098">
        <ele>301.6</ele>
        <time>2021-11-19T09:55:43Z</time>
      </trkpt>
      <trkpt lat="44.38051" lon="5.17098">
        <ele>301.6</ele>
        <time>2021-11-19T09:55:44Z</time>
      </trkpt>
      <trkpt lat="44.38044" lon="5.17097">
        <ele>301.6</ele>
        <time>2021-11-19T09:55:45Z</time>
      </trkpt>
      <trkpt lat="44.38039" lon="5.17097">
        <ele>301.6</ele>
        <time>2021-11-19T09:55:46Z</time>
      </trkpt>
      <trkpt lat="44.38032" lon="5.17097">
        <ele>301.6</ele>
        <time>2021-11-19T09:55:47Z</time>
      </trkpt>
      <trkpt lat="44.38026" lon="5.17097">
        <ele>301.6</ele>
        <time>2021-11-19T09:55:48Z</time>
      </trkpt>
      <trkpt lat="44.38021" lon="5.17097">
        <ele>301.6</ele>
        <time>2021-11-19T09:55:49Z</time>
      </trkpt>
      <trkpt lat="44.38015" lon="5.17097">
        <ele>301.6</ele>
        <time>2021-11-19T09:55:50Z</time>
      </trkpt>
      <trkpt lat="44.3801" lon="5.17097">
        <ele>301.5</ele>
        <time>2021-11-19T09:55:51Z</time>
      </trkpt>
      <trkpt lat="44.38005" lon="5.17097">
        <ele>301.5</ele>
        <time>2021-11-19T09:55:52Z</time>
      </trkpt>
      <trkpt lat="44.38" lon="5.17096">
        <ele>301.5</ele>
        <time>2021-11-19T09:55:53Z</time>
      </trkpt>
      <trkpt lat="44.37994" lon="5.17095">
        <ele>301.5</ele>
        <time>2021-11-19T09:55:54Z</time>
      </trkpt>
      <trkpt lat="44.37988" lon="5.17094">
        <ele>301.4</ele>
        <time>2021-11-19T09:55:55Z</time>
      </trkpt>
      <trkpt lat="44.3798" lon="5.17093">
        <ele>301.4</ele>
        <time>2021-11-19T09:55:56Z</time>
      </trkpt>
      <trkpt lat="44.37973" lon="5.17091">
        <ele>301.4</ele>
        <time>2021-11-19T09:55:57Z</time>
      </trkpt>
      <trkpt lat="44.37966" lon="5.1709">
        <ele>301.4</ele>
        <time>2021-11-19T09:55:58Z</time>
      </trkpt>
      <trkpt lat="44.37958" lon="5.17089">
        <ele>301.3</ele>
        <time>2021-11-19T09:55:59Z</time>
      </trkpt>
      <trkpt lat="44.3795" lon="5.17089">
        <ele>301.3</ele>
        <time>2021-11-19T09:56:00Z</time>
      </trkpt>
      <trkpt lat="44.37943" lon="5.17089">
        <ele>301.3</ele>
        <time>2021-11-19T09:56:01Z</time>
      </trkpt>
      <trkpt lat="44.37935" lon="5.17089">
        <ele>301.2</ele>
        <time>2021-11-19T09:56:02Z</time>
      </trkpt>
      <trkpt lat="44.37928" lon="5.17089">
        <ele>301.2</ele>
        <time>2021-11-19T09:56:03Z</time>
      </trkpt>
      <trkpt lat="44.37921" lon="5.17089">
        <ele>301.2</ele>
        <time>2021-11-19T09:56:04Z</time>
      </trkpt>
      <trkpt lat="44.37915" lon="5.17088">
        <ele>301.2</ele>
        <time>2021-11-19T09:56:05Z</time>
      </trkpt>
      <trkpt lat="44.37912" lon="5.17087">
        <ele>301.2</ele>
        <time>2021-11-19T09:56:06Z</time>
      </trkpt>
      <trkpt lat="44.37915" lon="5.17084">
        <ele>301.1</ele>
        <time>2021-11-19T09:56:07Z</time>
      </trkpt>
      <trkpt lat="44.37917" lon="5.17083">
        <ele>301.1</ele>
        <time>2021-11-19T09:56:08Z</time>
      </trkpt>
      <trkpt lat="44.37909" lon="5.17083">
        <ele>301.1</ele>
        <time>2021-11-19T09:56:09Z</time>
      </trkpt>
      <trkpt lat="44.37898" lon="5.17085">
        <ele>301.1</ele>
        <time>2021-11-19T09:56:10Z</time>
      </trkpt>
      <trkpt lat="44.37888" lon="5.17087">
        <ele>301.1</ele>
        <time>2021-11-19T09:56:11Z</time>
      </trkpt>
      <trkpt lat="44.37878" lon="5.17089">
        <ele>301.1</ele>
        <time>2021-11-19T09:56:12Z</time>
      </trkpt>
      <trkpt lat="44.3787" lon="5.17089">
        <ele>301.1</ele>
        <time>2021-11-19T09:56:13Z</time>
      </trkpt>
      <trkpt lat="44.37863" lon="5.17089">
        <ele>301.1</ele>
        <time>2021-11-19T09:56:14Z</time>
      </trkpt>
      <trkpt lat="44.37856" lon="5.17089">
        <ele>301.1</ele>
        <time>2021-11-19T09:56:15Z</time>
      </trkpt>
      <trkpt lat="44.37849" lon="5.17088">
        <ele>301.1</ele>
        <time>2021-11-19T09:56:16Z</time>
      </trkpt>
      <trkpt lat="44.37844" lon="5.17087">
        <ele>301.1</ele>
        <time>2021-11-19T09:56:17Z</time>
      </trkpt>
      <trkpt lat="44.37839" lon="5.17084">
        <ele>301.1</ele>
        <time>2021-11-19T09:56:18Z</time>
      </trkpt>
      <trkpt lat="44.37834" lon="5.17083">
        <ele>301.1</ele>
        <time>2021-11-19T09:56:19Z</time>
      </trkpt>
      <trkpt lat="44.37829" lon="5.17081">
        <ele>301.1</ele>
        <time>2021-11-19T09:56:20Z</time>
      </trkpt>
      <trkpt lat="44.37825" lon="5.17079">
        <ele>301.1</ele>
        <time>2021-11-19T09:56:21Z</time>
      </trkpt>
      <trkpt lat="44.37821" lon="5.17077">
        <ele>301.1</ele>
        <time>2021-11-19T09:56:22Z</time>
      </trkpt>
      <trkpt lat="44.37815" lon="5.17075">
        <ele>301</ele>
        <time>2021-11-19T09:56:23Z</time>
      </trkpt>
      <trkpt lat="44.3781" lon="5.17073">
        <ele>301</ele>
        <time>2021-11-19T09:56:24Z</time>
      </trkpt>
      <trkpt lat="44.37804" lon="5.17071">
        <ele>301</ele>
        <time>2021-11-19T09:56:25Z</time>
      </trkpt>
      <trkpt lat="44.37799" lon="5.17069">
        <ele>301</ele>
        <time>2021-11-19T09:56:26Z</time>
      </trkpt>
      <trkpt lat="44.37793" lon="5.17068">
        <ele>301</ele>
        <time>2021-11-19T09:56:27Z</time>
      </trkpt>
      <trkpt lat="44.37787" lon="5.17064">
        <ele>301</ele>
        <time>2021-11-19T09:56:28Z</time>
      </trkpt>
      <trkpt lat="44.37782" lon="5.17061">
        <ele>300.9</ele>
        <time>2021-11-19T09:56:29Z</time>
      </trkpt>
      <trkpt lat="44.37776" lon="5.17058">
        <ele>300.9</ele>
        <time>2021-11-19T09:56:30Z</time>
      </trkpt>
      <trkpt lat="44.3777" lon="5.17055">
        <ele>300.9</ele>
        <time>2021-11-19T09:56:31Z</time>
      </trkpt>
      <trkpt lat="44.37765" lon="5.17051">
        <ele>300.8</ele>
        <time>2021-11-19T09:56:32Z</time>
      </trkpt>
      <trkpt lat="44.37761" lon="5.17046">
        <ele>300.9</ele>
        <time>2021-11-19T09:56:33Z</time>
      </trkpt>
      <trkpt lat="44.3776" lon="5.17038">
        <ele>300.9</ele>
        <time>2021-11-19T09:56:34Z</time>
      </trkpt>
      <trkpt lat="44.37757" lon="5.17032">
        <ele>300.9</ele>
        <time>2021-11-19T09:56:35Z</time>
      </trkpt>
      <trkpt lat="44.37752" lon="5.17028">
        <ele>301</ele>
        <time>2021-11-19T09:56:36Z</time>
      </trkpt>
      <trkpt lat="44.37745" lon="5.17026">
        <ele>300.9</ele>
        <time>2021-11-19T09:56:37Z</time>
      </trkpt>
      <trkpt lat="44.37739" lon="5.17025">
        <ele>300.4</ele>
        <time>2021-11-19T09:56:38Z</time>
      </trkpt>
      <trkpt lat="44.37732" lon="5.17023">
        <ele>300.2</ele>
        <time>2021-11-19T09:56:39Z</time>
      </trkpt>
      <trkpt lat="44.37726" lon="5.17019">
        <ele>300</ele>
        <time>2021-11-19T09:56:40Z</time>
      </trkpt>
      <trkpt lat="44.37722" lon="5.17012">
        <ele>299.8</ele>
        <time>2021-11-19T09:56:41Z</time>
      </trkpt>
      <trkpt lat="44.37719" lon="5.17004">
        <ele>299.6</ele>
        <time>2021-11-19T09:56:42Z</time>
      </trkpt>
      <trkpt lat="44.37717" lon="5.16994">
        <ele>299.3</ele>
        <time>2021-11-19T09:56:43Z</time>
      </trkpt>
      <trkpt lat="44.37715" lon="5.16983">
        <ele>299</ele>
        <time>2021-11-19T09:56:44Z</time>
      </trkpt>
      <trkpt lat="44.37712" lon="5.16972">
        <ele>298.7</ele>
        <time>2021-11-19T09:56:45Z</time>
      </trkpt>
      <trkpt lat="44.37709" lon="5.16961">
        <ele>298.4</ele>
        <time>2021-11-19T09:56:46Z</time>
      </trkpt>
      <trkpt lat="44.37707" lon="5.1695">
        <ele>298.2</ele>
        <time>2021-11-19T09:56:47Z</time>
      </trkpt>
      <trkpt lat="44.37704" lon="5.16941">
        <ele>298</ele>
        <time>2021-11-19T09:56:48Z</time>
      </trkpt>
      <trkpt lat="44.37701" lon="5.16931">
        <ele>297.8</ele>
        <time>2021-11-19T09:56:49Z</time>
      </trkpt>
      <trkpt lat="44.37697" lon="5.16922">
        <ele>297.7</ele>
        <time>2021-11-19T09:56:50Z</time>
      </trkpt>
      <trkpt lat="44.37694" lon="5.16913">
        <ele>297.5</ele>
        <time>2021-11-19T09:56:51Z</time>
      </trkpt>
      <trkpt lat="44.37691" lon="5.16905">
        <ele>297.4</ele>
        <time>2021-11-19T09:56:52Z</time>
      </trkpt>
      <trkpt lat="44.37688" lon="5.16896">
        <ele>297.3</ele>
        <time>2021-11-19T09:56:53Z</time>
      </trkpt>
      <trkpt lat="44.37686" lon="5.16887">
        <ele>297.2</ele>
        <time>2021-11-19T09:56:54Z</time>
      </trkpt>
      <trkpt lat="44.37684" lon="5.16878">
        <ele>297.1</ele>
        <time>2021-11-19T09:56:55Z</time>
      </trkpt>
      <trkpt lat="44.37682" lon="5.16869">
        <ele>297</ele>
        <time>2021-11-19T09:56:56Z</time>
      </trkpt>
      <trkpt lat="44.37679" lon="5.16859">
        <ele>296.9</ele>
        <time>2021-11-19T09:56:57Z</time>
      </trkpt>
      <trkpt lat="44.37676" lon="5.16848">
        <ele>296.8</ele>
        <time>2021-11-19T09:56:58Z</time>
      </trkpt>
      <trkpt lat="44.37674" lon="5.16839">
        <ele>296.8</ele>
        <time>2021-11-19T09:56:59Z</time>
      </trkpt>
      <trkpt lat="44.37672" lon="5.16829">
        <ele>296.7</ele>
        <time>2021-11-19T09:57:00Z</time>
      </trkpt>
      <trkpt lat="44.37669" lon="5.1682">
        <ele>296.7</ele>
        <time>2021-11-19T09:57:01Z</time>
      </trkpt>
      <trkpt lat="44.37666" lon="5.16811">
        <ele>296.7</ele>
        <time>2021-11-19T09:57:02Z</time>
      </trkpt>
      <trkpt lat="44.37664" lon="5.16803">
        <ele>296.6</ele>
        <time>2021-11-19T09:57:03Z</time>
      </trkpt>
      <trkpt lat="44.37661" lon="5.16794">
        <ele>296.6</ele>
        <time>2021-11-19T09:57:04Z</time>
      </trkpt>
      <trkpt lat="44.37657" lon="5.16784">
        <ele>296.6</ele>
        <time>2021-11-19T09:57:05Z</time>
      </trkpt>
      <trkpt lat="44.37653" lon="5.16778">
        <ele>296.5</ele>
        <time>2021-11-19T09:57:06Z</time>
      </trkpt>
      <trkpt lat="44.37649" lon="5.16772">
        <ele>296.5</ele>
        <time>2021-11-19T09:57:07Z</time>
      </trkpt>
      <trkpt lat="44.37644" lon="5.16768">
        <ele>296.5</ele>
        <time>2021-11-19T09:57:08Z</time>
      </trkpt>
      <trkpt lat="44.37638" lon="5.16764">
        <ele>296.4</ele>
        <time>2021-11-19T09:57:09Z</time>
      </trkpt>
      <trkpt lat="44.37632" lon="5.16761">
        <ele>296.4</ele>
        <time>2021-11-19T09:57:10Z</time>
      </trkpt>
      <trkpt lat="44.37625" lon="5.16758">
        <ele>296.3</ele>
        <time>2021-11-19T09:57:11Z</time>
      </trkpt>
      <trkpt lat="44.37619" lon="5.16754">
        <ele>296.3</ele>
        <time>2021-11-19T09:57:12Z</time>
      </trkpt>
      <trkpt lat="44.37612" lon="5.1675">
        <ele>296.2</ele>
        <time>2021-11-19T09:57:13Z</time>
      </trkpt>
      <trkpt lat="44.37606" lon="5.16746">
        <ele>296.1</ele>
        <time>2021-11-19T09:57:14Z</time>
      </trkpt>
      <trkpt lat="44.376" lon="5.16741">
        <ele>296.1</ele>
        <time>2021-11-19T09:57:15Z</time>
      </trkpt>
      <trkpt lat="44.37594" lon="5.16736">
        <ele>295.9</ele>
        <time>2021-11-19T09:57:16Z</time>
      </trkpt>
      <trkpt lat="44.37588" lon="5.16731">
        <ele>295.8</ele>
        <time>2021-11-19T09:57:17Z</time>
      </trkpt>
      <trkpt lat="44.37582" lon="5.16725">
        <ele>295.7</ele>
        <time>2021-11-19T09:57:18Z</time>
      </trkpt>
      <trkpt lat="44.37576" lon="5.1672">
        <ele>295.6</ele>
        <time>2021-11-19T09:57:19Z</time>
      </trkpt>
      <trkpt lat="44.37571" lon="5.16713">
        <ele>295.5</ele>
        <time>2021-11-19T09:57:20Z</time>
      </trkpt>
      <trkpt lat="44.37566" lon="5.16707">
        <ele>295.4</ele>
        <time>2021-11-19T09:57:21Z</time>
      </trkpt>
      <trkpt lat="44.37561" lon="5.167">
        <ele>295.3</ele>
        <time>2021-11-19T09:57:22Z</time>
      </trkpt>
      <trkpt lat="44.37556" lon="5.16694">
        <ele>295.2</ele>
        <time>2021-11-19T09:57:23Z</time>
      </trkpt>
      <trkpt lat="44.37551" lon="5.16687">
        <ele>295.1</ele>
        <time>2021-11-19T09:57:24Z</time>
      </trkpt>
      <trkpt lat="44.37545" lon="5.16681">
        <ele>295</ele>
        <time>2021-11-19T09:57:25Z</time>
      </trkpt>
      <trkpt lat="44.3754" lon="5.16675">
        <ele>294.9</ele>
        <time>2021-11-19T09:57:26Z</time>
      </trkpt>
      <trkpt lat="44.37534" lon="5.1667">
        <ele>294.8</ele>
        <time>2021-11-19T09:57:27Z</time>
      </trkpt>
      <trkpt lat="44.37528" lon="5.16664">
        <ele>294.7</ele>
        <time>2021-11-19T09:57:28Z</time>
      </trkpt>
      <trkpt lat="44.37522" lon="5.16658">
        <ele>294.6</ele>
        <time>2021-11-19T09:57:29Z</time>
      </trkpt>
      <trkpt lat="44.37516" lon="5.16652">
        <ele>294.5</ele>
        <time>2021-11-19T09:57:30Z</time>
      </trkpt>
      <trkpt lat="44.37509" lon="5.16646">
        <ele>294.3</ele>
        <time>2021-11-19T09:57:31Z</time>
      </trkpt>
      <trkpt lat="44.37503" lon="5.16639">
        <ele>294.2</ele>
        <time>2021-11-19T09:57:32Z</time>
      </trkpt>
      <trkpt lat="44.37497" lon="5.16633">
        <ele>294.1</ele>
        <time>2021-11-19T09:57:33Z</time>
      </trkpt>
      <trkpt lat="44.3749" lon="5.16628">
        <ele>294</ele>
        <time>2021-11-19T09:57:34Z</time>
      </trkpt>
      <trkpt lat="44.37484" lon="5.16621">
        <ele>293.8</ele>
        <time>2021-11-19T09:57:35Z</time>
      </trkpt>
      <trkpt lat="44.37478" lon="5.16614">
        <ele>293.7</ele>
        <time>2021-11-19T09:57:36Z</time>
      </trkpt>
      <trkpt lat="44.37473" lon="5.16608">
        <ele>293.6</ele>
        <time>2021-11-19T09:57:37Z</time>
      </trkpt>
      <trkpt lat="44.37468" lon="5.16601">
        <ele>293.5</ele>
        <time>2021-11-19T09:57:38Z</time>
      </trkpt>
      <trkpt lat="44.37464" lon="5.16595">
        <ele>293.4</ele>
        <time>2021-11-19T09:57:39Z</time>
      </trkpt>
      <trkpt lat="44.3746" lon="5.16587">
        <ele>293.4</ele>
        <time>2021-11-19T09:57:40Z</time>
      </trkpt>
      <trkpt lat="44.37457" lon="5.16579">
        <ele>293.3</ele>
        <time>2021-11-19T09:57:41Z</time>
      </trkpt>
      <trkpt lat="44.37453" lon="5.16571">
        <ele>293.2</ele>
        <time>2021-11-19T09:57:42Z</time>
      </trkpt>
      <trkpt lat="44.37449" lon="5.16562">
        <ele>293.1</ele>
        <time>2021-11-19T09:57:43Z</time>
      </trkpt>
      <trkpt lat="44.37445" lon="5.16554">
        <ele>292.9</ele>
        <time>2021-11-19T09:57:44Z</time>
      </trkpt>
      <trkpt lat="44.37441" lon="5.16545">
        <ele>292.8</ele>
        <time>2021-11-19T09:57:45Z</time>
      </trkpt>
      <trkpt lat="44.37437" lon="5.16538">
        <ele>292.7</ele>
        <time>2021-11-19T09:57:46Z</time>
      </trkpt>
      <trkpt lat="44.37432" lon="5.16531">
        <ele>292.7</ele>
        <time>2021-11-19T09:57:47Z</time>
      </trkpt>
      <trkpt lat="44.37426" lon="5.16524">
        <ele>292.6</ele>
        <time>2021-11-19T09:57:48Z</time>
      </trkpt>
      <trkpt lat="44.3742" lon="5.16519">
        <ele>292.6</ele>
        <time>2021-11-19T09:57:49Z</time>
      </trkpt>
      <trkpt lat="44.37414" lon="5.16513">
        <ele>292.6</ele>
        <time>2021-11-19T09:57:50Z</time>
      </trkpt>
      <trkpt lat="44.37407" lon="5.16507">
        <ele>292.5</ele>
        <time>2021-11-19T09:57:51Z</time>
      </trkpt>
      <trkpt lat="44.374" lon="5.16502">
        <ele>292.5</ele>
        <time>2021-11-19T09:57:52Z</time>
      </trkpt>
      <trkpt lat="44.37393" lon="5.16497">
        <ele>292.4</ele>
        <time>2021-11-19T09:57:53Z</time>
      </trkpt>
      <trkpt lat="44.37387" lon="5.16492">
        <ele>292.3</ele>
        <time>2021-11-19T09:57:54Z</time>
      </trkpt>
      <trkpt lat="44.37381" lon="5.16488">
        <ele>292.2</ele>
        <time>2021-11-19T09:57:55Z</time>
      </trkpt>
      <trkpt lat="44.37375" lon="5.16484">
        <ele>292.1</ele>
        <time>2021-11-19T09:57:56Z</time>
      </trkpt>
      <trkpt lat="44.37369" lon="5.16479">
        <ele>292</ele>
        <time>2021-11-19T09:57:57Z</time>
      </trkpt>
      <trkpt lat="44.37363" lon="5.16472">
        <ele>291.9</ele>
        <time>2021-11-19T09:57:58Z</time>
      </trkpt>
      <trkpt lat="44.37357" lon="5.16466">
        <ele>291.9</ele>
        <time>2021-11-19T09:57:59Z</time>
      </trkpt>
      <trkpt lat="44.37351" lon="5.1646">
        <ele>291.8</ele>
        <time>2021-11-19T09:58:00Z</time>
      </trkpt>
      <trkpt lat="44.37345" lon="5.16453">
        <ele>291.7</ele>
        <time>2021-11-19T09:58:01Z</time>
      </trkpt>
      <trkpt lat="44.3734" lon="5.16446">
        <ele>291.6</ele>
        <time>2021-11-19T09:58:02Z</time>
      </trkpt>
      <trkpt lat="44.37335" lon="5.16439">
        <ele>291.6</ele>
        <time>2021-11-19T09:58:03Z</time>
      </trkpt>
      <trkpt lat="44.3733" lon="5.16432">
        <ele>291.5</ele>
        <time>2021-11-19T09:58:04Z</time>
      </trkpt>
      <trkpt lat="44.37325" lon="5.16424">
        <ele>291.5</ele>
        <time>2021-11-19T09:58:05Z</time>
      </trkpt>
      <trkpt lat="44.37321" lon="5.16417">
        <ele>291.5</ele>
        <time>2021-11-19T09:58:06Z</time>
      </trkpt>
      <trkpt lat="44.37317" lon="5.16409">
        <ele>291.4</ele>
        <time>2021-11-19T09:58:07Z</time>
      </trkpt>
      <trkpt lat="44.37313" lon="5.16401">
        <ele>291.4</ele>
        <time>2021-11-19T09:58:08Z</time>
      </trkpt>
      <trkpt lat="44.37309" lon="5.16393">
        <ele>291.4</ele>
        <time>2021-11-19T09:58:09Z</time>
      </trkpt>
      <trkpt lat="44.37305" lon="5.16384">
        <ele>291.4</ele>
        <time>2021-11-19T09:58:10Z</time>
      </trkpt>
      <trkpt lat="44.37301" lon="5.16376">
        <ele>291.4</ele>
        <time>2021-11-19T09:58:11Z</time>
      </trkpt>
      <trkpt lat="44.37299" lon="5.16367">
        <ele>291.4</ele>
        <time>2021-11-19T09:58:12Z</time>
      </trkpt>
      <trkpt lat="44.37295" lon="5.16359">
        <ele>291.3</ele>
        <time>2021-11-19T09:58:13Z</time>
      </trkpt>
      <trkpt lat="44.37292" lon="5.16349">
        <ele>291.3</ele>
        <time>2021-11-19T09:58:14Z</time>
      </trkpt>
      <trkpt lat="44.3729" lon="5.16339">
        <ele>291.3</ele>
        <time>2021-11-19T09:58:15Z</time>
      </trkpt>
      <trkpt lat="44.37287" lon="5.16328">
        <ele>291.2</ele>
        <time>2021-11-19T09:58:16Z</time>
      </trkpt>
      <trkpt lat="44.37285" lon="5.16318">
        <ele>291.2</ele>
        <time>2021-11-19T09:58:17Z</time>
      </trkpt>
      <trkpt lat="44.37283" lon="5.16309">
        <ele>291.1</ele>
        <time>2021-11-19T09:58:18Z</time>
      </trkpt>
      <trkpt lat="44.37281" lon="5.16299">
        <ele>291.1</ele>
        <time>2021-11-19T09:58:19Z</time>
      </trkpt>
      <trkpt lat="44.3728" lon="5.1629">
        <ele>291</ele>
        <time>2021-11-19T09:58:20Z</time>
      </trkpt>
      <trkpt lat="44.37278" lon="5.16281">
        <ele>291</ele>
        <time>2021-11-19T09:58:21Z</time>
      </trkpt>
      <trkpt lat="44.37278" lon="5.16271">
        <ele>290.9</ele>
        <time>2021-11-19T09:58:22Z</time>
      </trkpt>
      <trkpt lat="44.37277" lon="5.16261">
        <ele>290.9</ele>
        <time>2021-11-19T09:58:23Z</time>
      </trkpt>
      <trkpt lat="44.37276" lon="5.16252">
        <ele>290.8</ele>
        <time>2021-11-19T09:58:24Z</time>
      </trkpt>
      <trkpt lat="44.37276" lon="5.16242">
        <ele>290.8</ele>
        <time>2021-11-19T09:58:25Z</time>
      </trkpt>
      <trkpt lat="44.37276" lon="5.16232">
        <ele>290.8</ele>
        <time>2021-11-19T09:58:26Z</time>
      </trkpt>
      <trkpt lat="44.37276" lon="5.16222">
        <ele>290.7</ele>
        <time>2021-11-19T09:58:27Z</time>
      </trkpt>
      <trkpt lat="44.37277" lon="5.16211">
        <ele>290.6</ele>
        <time>2021-11-19T09:58:28Z</time>
      </trkpt>
      <trkpt lat="44.37278" lon="5.16201">
        <ele>290.6</ele>
        <time>2021-11-19T09:58:29Z</time>
      </trkpt>
      <trkpt lat="44.37278" lon="5.16192">
        <ele>290.5</ele>
        <time>2021-11-19T09:58:30Z</time>
      </trkpt>
      <trkpt lat="44.37279" lon="5.16183">
        <ele>290.4</ele>
        <time>2021-11-19T09:58:31Z</time>
      </trkpt>
      <trkpt lat="44.3728" lon="5.16173">
        <ele>290.3</ele>
        <time>2021-11-19T09:58:32Z</time>
      </trkpt>
      <trkpt lat="44.37281" lon="5.16162">
        <ele>290.2</ele>
        <time>2021-11-19T09:58:33Z</time>
      </trkpt>
      <trkpt lat="44.37281" lon="5.16152">
        <ele>290.2</ele>
        <time>2021-11-19T09:58:34Z</time>
      </trkpt>
      <trkpt lat="44.37282" lon="5.16142">
        <ele>290.1</ele>
        <time>2021-11-19T09:58:35Z</time>
      </trkpt>
      <trkpt lat="44.37282" lon="5.16132">
        <ele>290.1</ele>
        <time>2021-11-19T09:58:36Z</time>
      </trkpt>
      <trkpt lat="44.37281" lon="5.16123">
        <ele>290</ele>
        <time>2021-11-19T09:58:37Z</time>
      </trkpt>
      <trkpt lat="44.37281" lon="5.16113">
        <ele>289.9</ele>
        <time>2021-11-19T09:58:38Z</time>
      </trkpt>
      <trkpt lat="44.3728" lon="5.16103">
        <ele>289.9</ele>
        <time>2021-11-19T09:58:39Z</time>
      </trkpt>
      <trkpt lat="44.37279" lon="5.16092">
        <ele>289.8</ele>
        <time>2021-11-19T09:58:40Z</time>
      </trkpt>
      <trkpt lat="44.37278" lon="5.16082">
        <ele>289.7</ele>
        <time>2021-11-19T09:58:41Z</time>
      </trkpt>
      <trkpt lat="44.37277" lon="5.16071">
        <ele>289.7</ele>
        <time>2021-11-19T09:58:42Z</time>
      </trkpt>
      <trkpt lat="44.37275" lon="5.1606">
        <ele>289.6</ele>
        <time>2021-11-19T09:58:43Z</time>
      </trkpt>
      <trkpt lat="44.37273" lon="5.16049">
        <ele>289.5</ele>
        <time>2021-11-19T09:58:44Z</time>
      </trkpt>
      <trkpt lat="44.37273" lon="5.16039">
        <ele>289.5</ele>
        <time>2021-11-19T09:58:45Z</time>
      </trkpt>
      <trkpt lat="44.37272" lon="5.16028">
        <ele>289.4</ele>
        <time>2021-11-19T09:58:46Z</time>
      </trkpt>
      <trkpt lat="44.37273" lon="5.16017">
        <ele>289.3</ele>
        <time>2021-11-19T09:58:47Z</time>
      </trkpt>
      <trkpt lat="44.37274" lon="5.16007">
        <ele>289.3</ele>
        <time>2021-11-19T09:58:48Z</time>
      </trkpt>
      <trkpt lat="44.37276" lon="5.15997">
        <ele>289.3</ele>
        <time>2021-11-19T09:58:49Z</time>
      </trkpt>
      <trkpt lat="44.37277" lon="5.15986">
        <ele>289.3</ele>
        <time>2021-11-19T09:58:50Z</time>
      </trkpt>
      <trkpt lat="44.37278" lon="5.15975">
        <ele>289.3</ele>
        <time>2021-11-19T09:58:51Z</time>
      </trkpt>
      <trkpt lat="44.37278" lon="5.15964">
        <ele>289.3</ele>
        <time>2021-11-19T09:58:52Z</time>
      </trkpt>
      <trkpt lat="44.37277" lon="5.15954">
        <ele>289.3</ele>
        <time>2021-11-19T09:58:53Z</time>
      </trkpt>
      <trkpt lat="44.37276" lon="5.15944">
        <ele>289.3</ele>
        <time>2021-11-19T09:58:54Z</time>
      </trkpt>
      <trkpt lat="44.37275" lon="5.15933">
        <ele>289.3</ele>
        <time>2021-11-19T09:58:55Z</time>
      </trkpt>
      <trkpt lat="44.37273" lon="5.15923">
        <ele>289.3</ele>
        <time>2021-11-19T09:58:56Z</time>
      </trkpt>
      <trkpt lat="44.37272" lon="5.15913">
        <ele>289.3</ele>
        <time>2021-11-19T09:58:57Z</time>
      </trkpt>
      <trkpt lat="44.37272" lon="5.15904">
        <ele>289.3</ele>
        <time>2021-11-19T09:58:58Z</time>
      </trkpt>
      <trkpt lat="44.37271" lon="5.15896">
        <ele>289.2</ele>
        <time>2021-11-19T09:58:59Z</time>
      </trkpt>
      <trkpt lat="44.3727" lon="5.15887">
        <ele>289.3</ele>
        <time>2021-11-19T09:59:00Z</time>
      </trkpt>
      <trkpt lat="44.37269" lon="5.15878">
        <ele>289.3</ele>
        <time>2021-11-19T09:59:01Z</time>
      </trkpt>
      <trkpt lat="44.37268" lon="5.15869">
        <ele>289.3</ele>
        <time>2021-11-19T09:59:02Z</time>
      </trkpt>
      <trkpt lat="44.37267" lon="5.15859">
        <ele>289.3</ele>
        <time>2021-11-19T09:59:03Z</time>
      </trkpt>
      <trkpt lat="44.37266" lon="5.15849">
        <ele>289.3</ele>
        <time>2021-11-19T09:59:04Z</time>
      </trkpt>
      <trkpt lat="44.37265" lon="5.15838">
        <ele>289.3</ele>
        <time>2021-11-19T09:59:05Z</time>
      </trkpt>
      <trkpt lat="44.37264" lon="5.15828">
        <ele>289.3</ele>
        <time>2021-11-19T09:59:06Z</time>
      </trkpt>
      <trkpt lat="44.37262" lon="5.15818">
        <ele>289.3</ele>
        <time>2021-11-19T09:59:07Z</time>
      </trkpt>
      <trkpt lat="44.37261" lon="5.15808">
        <ele>289.3</ele>
        <time>2021-11-19T09:59:08Z</time>
      </trkpt>
      <trkpt lat="44.3726" lon="5.15798">
        <ele>289.2</ele>
        <time>2021-11-19T09:59:09Z</time>
      </trkpt>
      <trkpt lat="44.3726" lon="5.15789">
        <ele>289.2</ele>
        <time>2021-11-19T09:59:10Z</time>
      </trkpt>
      <trkpt lat="44.3726" lon="5.1578">
        <ele>289.2</ele>
        <time>2021-11-19T09:59:11Z</time>
      </trkpt>
      <trkpt lat="44.3726" lon="5.15771">
        <ele>289.2</ele>
        <time>2021-11-19T09:59:12Z</time>
      </trkpt>
      <trkpt lat="44.3726" lon="5.1576">
        <ele>289.2</ele>
        <time>2021-11-19T09:59:13Z</time>
      </trkpt>
      <trkpt lat="44.3726" lon="5.15749">
        <ele>289.2</ele>
        <time>2021-11-19T09:59:14Z</time>
      </trkpt>
      <trkpt lat="44.3726" lon="5.15739">
        <ele>289.2</ele>
        <time>2021-11-19T09:59:15Z</time>
      </trkpt>
      <trkpt lat="44.37259" lon="5.15729">
        <ele>289.2</ele>
        <time>2021-11-19T09:59:16Z</time>
      </trkpt>
      <trkpt lat="44.37259" lon="5.15719">
        <ele>289.2</ele>
        <time>2021-11-19T09:59:17Z</time>
      </trkpt>
      <trkpt lat="44.37257" lon="5.15709">
        <ele>289.2</ele>
        <time>2021-11-19T09:59:18Z</time>
      </trkpt>
      <trkpt lat="44.37256" lon="5.157">
        <ele>289.2</ele>
        <time>2021-11-19T09:59:19Z</time>
      </trkpt>
      <trkpt lat="44.37254" lon="5.15691">
        <ele>289.2</ele>
        <time>2021-11-19T09:59:20Z</time>
      </trkpt>
      <trkpt lat="44.37253" lon="5.15683">
        <ele>289.1</ele>
        <time>2021-11-19T09:59:21Z</time>
      </trkpt>
      <trkpt lat="44.37251" lon="5.15674">
        <ele>289.1</ele>
        <time>2021-11-19T09:59:22Z</time>
      </trkpt>
      <trkpt lat="44.37249" lon="5.15664">
        <ele>289.1</ele>
        <time>2021-11-19T09:59:23Z</time>
      </trkpt>
      <trkpt lat="44.37247" lon="5.15654">
        <ele>289</ele>
        <time>2021-11-19T09:59:24Z</time>
      </trkpt>
      <trkpt lat="44.37245" lon="5.15645">
        <ele>288.9</ele>
        <time>2021-11-19T09:59:25Z</time>
      </trkpt>
      <trkpt lat="44.37244" lon="5.15635">
        <ele>288.9</ele>
        <time>2021-11-19T09:59:26Z</time>
      </trkpt>
      <trkpt lat="44.37243" lon="5.15625">
        <ele>288.8</ele>
        <time>2021-11-19T09:59:27Z</time>
      </trkpt>
      <trkpt lat="44.37241" lon="5.15616">
        <ele>288.8</ele>
        <time>2021-11-19T09:59:28Z</time>
      </trkpt>
      <trkpt lat="44.3724" lon="5.15605">
        <ele>288.8</ele>
        <time>2021-11-19T09:59:29Z</time>
      </trkpt>
      <trkpt lat="44.37238" lon="5.15595">
        <ele>288.7</ele>
        <time>2021-11-19T09:59:30Z</time>
      </trkpt>
      <trkpt lat="44.37237" lon="5.15585">
        <ele>288.6</ele>
        <time>2021-11-19T09:59:31Z</time>
      </trkpt>
      <trkpt lat="44.37236" lon="5.15576">
        <ele>288.5</ele>
        <time>2021-11-19T09:59:32Z</time>
      </trkpt>
      <trkpt lat="44.37233" lon="5.15565">
        <ele>288.4</ele>
        <time>2021-11-19T09:59:33Z</time>
      </trkpt>
      <trkpt lat="44.3723" lon="5.15555">
        <ele>288.3</ele>
        <time>2021-11-19T09:59:34Z</time>
      </trkpt>
      <trkpt lat="44.37227" lon="5.15544">
        <ele>288.2</ele>
        <time>2021-11-19T09:59:35Z</time>
      </trkpt>
      <trkpt lat="44.37225" lon="5.15534">
        <ele>288.1</ele>
        <time>2021-11-19T09:59:36Z</time>
      </trkpt>
      <trkpt lat="44.37222" lon="5.15525">
        <ele>287.9</ele>
        <time>2021-11-19T09:59:37Z</time>
      </trkpt>
      <trkpt lat="44.37219" lon="5.15515">
        <ele>287.8</ele>
        <time>2021-11-19T09:59:38Z</time>
      </trkpt>
      <trkpt lat="44.37217" lon="5.15504">
        <ele>287.7</ele>
        <time>2021-11-19T09:59:39Z</time>
      </trkpt>
      <trkpt lat="44.37214" lon="5.15493">
        <ele>287.5</ele>
        <time>2021-11-19T09:59:40Z</time>
      </trkpt>
      <trkpt lat="44.37213" lon="5.15483">
        <ele>287.4</ele>
        <time>2021-11-19T09:59:41Z</time>
      </trkpt>
      <trkpt lat="44.37211" lon="5.15472">
        <ele>287.2</ele>
        <time>2021-11-19T09:59:42Z</time>
      </trkpt>
      <trkpt lat="44.37211" lon="5.15461">
        <ele>287.1</ele>
        <time>2021-11-19T09:59:43Z</time>
      </trkpt>
      <trkpt lat="44.3721" lon="5.15449">
        <ele>286.9</ele>
        <time>2021-11-19T09:59:44Z</time>
      </trkpt>
      <trkpt lat="44.37208" lon="5.15437">
        <ele>286.8</ele>
        <time>2021-11-19T09:59:45Z</time>
      </trkpt>
      <trkpt lat="44.37206" lon="5.15426">
        <ele>286.6</ele>
        <time>2021-11-19T09:59:46Z</time>
      </trkpt>
      <trkpt lat="44.37204" lon="5.15415">
        <ele>286.5</ele>
        <time>2021-11-19T09:59:47Z</time>
      </trkpt>
      <trkpt lat="44.37202" lon="5.15403">
        <ele>286.4</ele>
        <time>2021-11-19T09:59:48Z</time>
      </trkpt>
      <trkpt lat="44.37199" lon="5.15391">
        <ele>286.3</ele>
        <time>2021-11-19T09:59:49Z</time>
      </trkpt>
      <trkpt lat="44.37196" lon="5.15379">
        <ele>286.3</ele>
        <time>2021-11-19T09:59:50Z</time>
      </trkpt>
      <trkpt lat="44.37193" lon="5.15368">
        <ele>286.2</ele>
        <time>2021-11-19T09:59:51Z</time>
      </trkpt>
      <trkpt lat="44.37189" lon="5.15357">
        <ele>286.2</ele>
        <time>2021-11-19T09:59:52Z</time>
      </trkpt>
      <trkpt lat="44.37186" lon="5.15348">
        <ele>286.1</ele>
        <time>2021-11-19T09:59:53Z</time>
      </trkpt>
      <trkpt lat="44.37183" lon="5.15338">
        <ele>286</ele>
        <time>2021-11-19T09:59:54Z</time>
      </trkpt>
      <trkpt lat="44.3718" lon="5.15329">
        <ele>286</ele>
        <time>2021-11-19T09:59:55Z</time>
      </trkpt>
      <trkpt lat="44.37177" lon="5.1532">
        <ele>285.9</ele>
        <time>2021-11-19T09:59:56Z</time>
      </trkpt>
      <trkpt lat="44.37174" lon="5.1531">
        <ele>285.8</ele>
        <time>2021-11-19T09:59:57Z</time>
      </trkpt>
      <trkpt lat="44.37172" lon="5.15301">
        <ele>285.8</ele>
        <time>2021-11-19T09:59:58Z</time>
      </trkpt>
      <trkpt lat="44.37169" lon="5.15293">
        <ele>285.8</ele>
        <time>2021-11-19T09:59:59Z</time>
      </trkpt>
      <trkpt lat="44.37167" lon="5.15284">
        <ele>285.7</ele>
        <time>2021-11-19T10:00:00Z</time>
      </trkpt>
      <trkpt lat="44.37165" lon="5.15276">
        <ele>285.7</ele>
        <time>2021-11-19T10:00:01Z</time>
      </trkpt>
      <trkpt lat="44.37163" lon="5.15265">
        <ele>285.7</ele>
        <time>2021-11-19T10:00:02Z</time>
      </trkpt>
      <trkpt lat="44.37161" lon="5.15256">
        <ele>285.6</ele>
        <time>2021-11-19T10:00:03Z</time>
      </trkpt>
      <trkpt lat="44.37159" lon="5.15247">
        <ele>285.5</ele>
        <time>2021-11-19T10:00:04Z</time>
      </trkpt>
      <trkpt lat="44.37156" lon="5.15238">
        <ele>285.4</ele>
        <time>2021-11-19T10:00:05Z</time>
      </trkpt>
      <trkpt lat="44.37153" lon="5.15229">
        <ele>285.3</ele>
        <time>2021-11-19T10:00:06Z</time>
      </trkpt>
      <trkpt lat="44.37149" lon="5.15219">
        <ele>285.2</ele>
        <time>2021-11-19T10:00:07Z</time>
      </trkpt>
      <trkpt lat="44.37145" lon="5.15208">
        <ele>285.1</ele>
        <time>2021-11-19T10:00:08Z</time>
      </trkpt>
      <trkpt lat="44.37141" lon="5.15198">
        <ele>285</ele>
        <time>2021-11-19T10:00:09Z</time>
      </trkpt>
      <trkpt lat="44.37136" lon="5.1519">
        <ele>284.9</ele>
        <time>2021-11-19T10:00:10Z</time>
      </trkpt>
      <trkpt lat="44.37131" lon="5.15183">
        <ele>284.9</ele>
        <time>2021-11-19T10:00:11Z</time>
      </trkpt>
      <trkpt lat="44.37126" lon="5.15176">
        <ele>284.8</ele>
        <time>2021-11-19T10:00:12Z</time>
      </trkpt>
      <trkpt lat="44.37121" lon="5.15169">
        <ele>284.8</ele>
        <time>2021-11-19T10:00:13Z</time>
      </trkpt>
      <trkpt lat="44.37116" lon="5.15162">
        <ele>284.8</ele>
        <time>2021-11-19T10:00:14Z</time>
      </trkpt>
      <trkpt lat="44.3711" lon="5.15156">
        <ele>284.8</ele>
        <time>2021-11-19T10:00:15Z</time>
      </trkpt>
      <trkpt lat="44.37105" lon="5.1515">
        <ele>284.8</ele>
        <time>2021-11-19T10:00:16Z</time>
      </trkpt>
      <trkpt lat="44.37099" lon="5.15145">
        <ele>284.8</ele>
        <time>2021-11-19T10:00:17Z</time>
      </trkpt>
      <trkpt lat="44.37094" lon="5.1514">
        <ele>284.8</ele>
        <time>2021-11-19T10:00:18Z</time>
      </trkpt>
      <trkpt lat="44.37089" lon="5.15136">
        <ele>284.9</ele>
        <time>2021-11-19T10:00:19Z</time>
      </trkpt>
      <trkpt lat="44.37085" lon="5.15132">
        <ele>284.9</ele>
        <time>2021-11-19T10:00:20Z</time>
      </trkpt>
      <trkpt lat="44.37081" lon="5.15129">
        <ele>285</ele>
        <time>2021-11-19T10:00:21Z</time>
      </trkpt>
      <trkpt lat="44.37076" lon="5.15127">
        <ele>285</ele>
        <time>2021-11-19T10:00:22Z</time>
      </trkpt>
      <trkpt lat="44.37071" lon="5.15124">
        <ele>285.1</ele>
        <time>2021-11-19T10:00:23Z</time>
      </trkpt>
      <trkpt lat="44.37066" lon="5.1512">
        <ele>285.1</ele>
        <time>2021-11-19T10:00:24Z</time>
      </trkpt>
      <trkpt lat="44.3706" lon="5.15116">
        <ele>285.2</ele>
        <time>2021-11-19T10:00:25Z</time>
      </trkpt>
      <trkpt lat="44.37056" lon="5.15113">
        <ele>285.3</ele>
        <time>2021-11-19T10:00:26Z</time>
      </trkpt>
      <trkpt lat="44.3705" lon="5.15111">
        <ele>285.4</ele>
        <time>2021-11-19T10:00:27Z</time>
      </trkpt>
      <trkpt lat="44.37043" lon="5.15111">
        <ele>285.5</ele>
        <time>2021-11-19T10:00:28Z</time>
      </trkpt>
      <trkpt lat="44.37037" lon="5.1511">
        <ele>285.5</ele>
        <time>2021-11-19T10:00:29Z</time>
      </trkpt>
      <trkpt lat="44.37032" lon="5.15107">
        <ele>285.6</ele>
        <time>2021-11-19T10:00:30Z</time>
      </trkpt>
      <trkpt lat="44.37028" lon="5.15104">
        <ele>285.6</ele>
        <time>2021-11-19T10:00:31Z</time>
      </trkpt>
      <trkpt lat="44.37023" lon="5.15101">
        <ele>285.7</ele>
        <time>2021-11-19T10:00:32Z</time>
      </trkpt>
      <trkpt lat="44.37017" lon="5.151">
        <ele>285.8</ele>
        <time>2021-11-19T10:00:33Z</time>
      </trkpt>
      <trkpt lat="44.37013" lon="5.15096">
        <ele>285.8</ele>
        <time>2021-11-19T10:00:34Z</time>
      </trkpt>
      <trkpt lat="44.37009" lon="5.15093">
        <ele>285.9</ele>
        <time>2021-11-19T10:00:35Z</time>
      </trkpt>
      <trkpt lat="44.37004" lon="5.15088">
        <ele>285.9</ele>
        <time>2021-11-19T10:00:36Z</time>
      </trkpt>
      <trkpt lat="44.37" lon="5.15087">
        <ele>286</ele>
        <time>2021-11-19T10:00:37Z</time>
      </trkpt>
      <trkpt lat="44.36995" lon="5.15085">
        <ele>286</ele>
        <time>2021-11-19T10:00:38Z</time>
      </trkpt>
      <trkpt lat="44.36989" lon="5.15083">
        <ele>286</ele>
        <time>2021-11-19T10:00:39Z</time>
      </trkpt>
      <trkpt lat="44.36982" lon="5.15082">
        <ele>286.1</ele>
        <time>2021-11-19T10:00:40Z</time>
      </trkpt>
      <trkpt lat="44.36975" lon="5.15082">
        <ele>286.1</ele>
        <time>2021-11-19T10:00:41Z</time>
      </trkpt>
      <trkpt lat="44.36967" lon="5.15083">
        <ele>286.2</ele>
        <time>2021-11-19T10:00:42Z</time>
      </trkpt>
      <trkpt lat="44.3696" lon="5.15082">
        <ele>286.2</ele>
        <time>2021-11-19T10:00:43Z</time>
      </trkpt>
      <trkpt lat="44.36953" lon="5.15081">
        <ele>286.3</ele>
        <time>2021-11-19T10:00:44Z</time>
      </trkpt>
      <trkpt lat="44.36946" lon="5.15081">
        <ele>286.4</ele>
        <time>2021-11-19T10:00:45Z</time>
      </trkpt>
      <trkpt lat="44.36938" lon="5.15081">
        <ele>286.5</ele>
        <time>2021-11-19T10:00:46Z</time>
      </trkpt>
      <trkpt lat="44.36932" lon="5.15081">
        <ele>286.5</ele>
        <time>2021-11-19T10:00:47Z</time>
      </trkpt>
      <trkpt lat="44.36926" lon="5.15081">
        <ele>286.6</ele>
        <time>2021-11-19T10:00:48Z</time>
      </trkpt>
      <trkpt lat="44.36921" lon="5.15081">
        <ele>286.6</ele>
        <time>2021-11-19T10:00:49Z</time>
      </trkpt>
      <trkpt lat="44.36915" lon="5.15081">
        <ele>286.7</ele>
        <time>2021-11-19T10:00:50Z</time>
      </trkpt>
      <trkpt lat="44.36909" lon="5.15079">
        <ele>286.8</ele>
        <time>2021-11-19T10:00:51Z</time>
      </trkpt>
      <trkpt lat="44.36904" lon="5.15077">
        <ele>286.9</ele>
        <time>2021-11-19T10:00:52Z</time>
      </trkpt>
      <trkpt lat="44.369" lon="5.15075">
        <ele>287</ele>
        <time>2021-11-19T10:00:53Z</time>
      </trkpt>
      <trkpt lat="44.36896" lon="5.15073">
        <ele>287.1</ele>
        <time>2021-11-19T10:00:54Z</time>
      </trkpt>
      <trkpt lat="44.36891" lon="5.15071">
        <ele>287.2</ele>
        <time>2021-11-19T10:00:55Z</time>
      </trkpt>
      <trkpt lat="44.36886" lon="5.15069">
        <ele>287.3</ele>
        <time>2021-11-19T10:00:56Z</time>
      </trkpt>
      <trkpt lat="44.36882" lon="5.15068">
        <ele>287.3</ele>
        <time>2021-11-19T10:00:57Z</time>
      </trkpt>
      <trkpt lat="44.36878" lon="5.15067">
        <ele>287.4</ele>
        <time>2021-11-19T10:00:58Z</time>
      </trkpt>
      <trkpt lat="44.36873" lon="5.15066">
        <ele>287.5</ele>
        <time>2021-11-19T10:00:59Z</time>
      </trkpt>
      <trkpt lat="44.36868" lon="5.15067">
        <ele>287.6</ele>
        <time>2021-11-19T10:01:00Z</time>
      </trkpt>
      <trkpt lat="44.36861" lon="5.15066">
        <ele>287.7</ele>
        <time>2021-11-19T10:01:01Z</time>
      </trkpt>
      <trkpt lat="44.36854" lon="5.15065">
        <ele>287.8</ele>
        <time>2021-11-19T10:01:02Z</time>
      </trkpt>
      <trkpt lat="44.36847" lon="5.15065">
        <ele>287.9</ele>
        <time>2021-11-19T10:01:03Z</time>
      </trkpt>
      <trkpt lat="44.36841" lon="5.15067">
        <ele>288</ele>
        <time>2021-11-19T10:01:04Z</time>
      </trkpt>
      <trkpt lat="44.36835" lon="5.15068">
        <ele>288.1</ele>
        <time>2021-11-19T10:01:05Z</time>
      </trkpt>
      <trkpt lat="44.36828" lon="5.15066">
        <ele>288.3</ele>
        <time>2021-11-19T10:01:06Z</time>
      </trkpt>
      <trkpt lat="44.36822" lon="5.15063">
        <ele>288.3</ele>
        <time>2021-11-19T10:01:07Z</time>
      </trkpt>
      <trkpt lat="44.36817" lon="5.15061">
        <ele>288.4</ele>
        <time>2021-11-19T10:01:08Z</time>
      </trkpt>
      <trkpt lat="44.36813" lon="5.15058">
        <ele>288.5</ele>
        <time>2021-11-19T10:01:09Z</time>
      </trkpt>
      <trkpt lat="44.36807" lon="5.15056">
        <ele>288.6</ele>
        <time>2021-11-19T10:01:10Z</time>
      </trkpt>
      <trkpt lat="44.36801" lon="5.15052">
        <ele>288.6</ele>
        <time>2021-11-19T10:01:11Z</time>
      </trkpt>
      <trkpt lat="44.36796" lon="5.15052">
        <ele>288.7</ele>
        <time>2021-11-19T10:01:12Z</time>
      </trkpt>
      <trkpt lat="44.36792" lon="5.15059">
        <ele>288.7</ele>
        <time>2021-11-19T10:01:13Z</time>
      </trkpt>
      <trkpt lat="44.36786" lon="5.15068">
        <ele>288.8</ele>
        <time>2021-11-19T10:01:14Z</time>
      </trkpt>
      <trkpt lat="44.36783" lon="5.15074">
        <ele>288.8</ele>
        <time>2021-11-19T10:01:15Z</time>
      </trkpt>
      <trkpt lat="44.36779" lon="5.1508">
        <ele>288.9</ele>
        <time>2021-11-19T10:01:16Z</time>
      </trkpt>
      <trkpt lat="44.36774" lon="5.15088">
        <ele>288.9</ele>
        <time>2021-11-19T10:01:17Z</time>
      </trkpt>
      <trkpt lat="44.36764" lon="5.15092">
        <ele>289</ele>
        <time>2021-11-19T10:01:18Z</time>
      </trkpt>
      <trkpt lat="44.36766" lon="5.15098">
        <ele>289</ele>
        <time>2021-11-19T10:01:20Z</time>
      </trkpt>
      <trkpt lat="44.36745" lon="5.15097">
        <ele>289.1</ele>
        <time>2021-11-19T10:01:23Z</time>
      </trkpt>
      <trkpt lat="44.36739" lon="5.15097">
        <ele>289.1</ele>
        <time>2021-11-19T10:01:24Z</time>
      </trkpt>
      <trkpt lat="44.36734" lon="5.15098">
        <ele>289</ele>
        <time>2021-11-19T10:01:25Z</time>
      </trkpt>
      <trkpt lat="44.36727" lon="5.15098">
        <ele>289</ele>
        <time>2021-11-19T10:01:26Z</time>
      </trkpt>
      <trkpt lat="44.3672" lon="5.15099">
        <ele>289</ele>
        <time>2021-11-19T10:01:27Z</time>
      </trkpt>
      <trkpt lat="44.36716" lon="5.15103">
        <ele>288.9</ele>
        <time>2021-11-19T10:01:28Z</time>
      </trkpt>
      <trkpt lat="44.36712" lon="5.15109">
        <ele>288.9</ele>
        <time>2021-11-19T10:01:29Z</time>
      </trkpt>
      <trkpt lat="44.36707" lon="5.15113">
        <ele>288.9</ele>
        <time>2021-11-19T10:01:30Z</time>
      </trkpt>
      <trkpt lat="44.36701" lon="5.15115">
        <ele>288.8</ele>
        <time>2021-11-19T10:01:31Z</time>
      </trkpt>
      <trkpt lat="44.36695" lon="5.1512">
        <ele>288.7</ele>
        <time>2021-11-19T10:01:32Z</time>
      </trkpt>
      <trkpt lat="44.36691" lon="5.15126">
        <ele>288.6</ele>
        <time>2021-11-19T10:01:33Z</time>
      </trkpt>
      <trkpt lat="44.36689" lon="5.15134">
        <ele>288.5</ele>
        <time>2021-11-19T10:01:34Z</time>
      </trkpt>
      <trkpt lat="44.36686" lon="5.15142">
        <ele>288.2</ele>
        <time>2021-11-19T10:01:35Z</time>
      </trkpt>
      <trkpt lat="44.36683" lon="5.15152">
        <ele>288</ele>
        <time>2021-11-19T10:01:36Z</time>
      </trkpt>
      <trkpt lat="44.3668" lon="5.15161">
        <ele>287.7</ele>
        <time>2021-11-19T10:01:37Z</time>
      </trkpt>
      <trkpt lat="44.36677" lon="5.1517">
        <ele>287.3</ele>
        <time>2021-11-19T10:01:38Z</time>
      </trkpt>
      <trkpt lat="44.36673" lon="5.15179">
        <ele>287</ele>
        <time>2021-11-19T10:01:39Z</time>
      </trkpt>
      <trkpt lat="44.36669" lon="5.15189">
        <ele>286.6</ele>
        <time>2021-11-19T10:01:40Z</time>
      </trkpt>
      <trkpt lat="44.36665" lon="5.15199">
        <ele>286.2</ele>
        <time>2021-11-19T10:01:41Z</time>
      </trkpt>
      <trkpt lat="44.3666" lon="5.1521">
        <ele>285.7</ele>
        <time>2021-11-19T10:01:42Z</time>
      </trkpt>
      <trkpt lat="44.36655" lon="5.15221">
        <ele>285.3</ele>
        <time>2021-11-19T10:01:43Z</time>
      </trkpt>
      <trkpt lat="44.3665" lon="5.15231">
        <ele>284.8</ele>
        <time>2021-11-19T10:01:44Z</time>
      </trkpt>
      <trkpt lat="44.36646" lon="5.15241">
        <ele>284.4</ele>
        <time>2021-11-19T10:01:45Z</time>
      </trkpt>
      <trkpt lat="44.36641" lon="5.15251">
        <ele>283.9</ele>
        <time>2021-11-19T10:01:46Z</time>
      </trkpt>
      <trkpt lat="44.36636" lon="5.15261">
        <ele>283.4</ele>
        <time>2021-11-19T10:01:47Z</time>
      </trkpt>
      <trkpt lat="44.36631" lon="5.1527">
        <ele>283</ele>
        <time>2021-11-19T10:01:48Z</time>
      </trkpt>
      <trkpt lat="44.36626" lon="5.1528">
        <ele>282.5</ele>
        <time>2021-11-19T10:01:49Z</time>
      </trkpt>
      <trkpt lat="44.3662" lon="5.1529">
        <ele>281.9</ele>
        <time>2021-11-19T10:01:50Z</time>
      </trkpt>
      <trkpt lat="44.36613" lon="5.15301">
        <ele>281.3</ele>
        <time>2021-11-19T10:01:51Z</time>
      </trkpt>
      <trkpt lat="44.36606" lon="5.15311">
        <ele>280.7</ele>
        <time>2021-11-19T10:01:52Z</time>
      </trkpt>
      <trkpt lat="44.36599" lon="5.15321">
        <ele>280.1</ele>
        <time>2021-11-19T10:01:53Z</time>
      </trkpt>
      <trkpt lat="44.36591" lon="5.15331">
        <ele>279.5</ele>
        <time>2021-11-19T10:01:54Z</time>
      </trkpt>
      <trkpt lat="44.36583" lon="5.1534">
        <ele>278.9</ele>
        <time>2021-11-19T10:01:55Z</time>
      </trkpt>
      <trkpt lat="44.36574" lon="5.15352">
        <ele>278.2</ele>
        <time>2021-11-19T10:01:56Z</time>
      </trkpt>
      <trkpt lat="44.36563" lon="5.15363">
        <ele>277.6</ele>
        <time>2021-11-19T10:01:57Z</time>
      </trkpt>
      <trkpt lat="44.36552" lon="5.15371">
        <ele>277.1</ele>
        <time>2021-11-19T10:01:58Z</time>
      </trkpt>
      <trkpt lat="44.36541" lon="5.1538">
        <ele>276.7</ele>
        <time>2021-11-19T10:01:59Z</time>
      </trkpt>
      <trkpt lat="44.36531" lon="5.15382">
        <ele>276.4</ele>
        <time>2021-11-19T10:02:00Z</time>
      </trkpt>
      <trkpt lat="44.3652" lon="5.15385">
        <ele>276.1</ele>
        <time>2021-11-19T10:02:01Z</time>
      </trkpt>
      <trkpt lat="44.36508" lon="5.15381">
        <ele>275.8</ele>
        <time>2021-11-19T10:02:02Z</time>
      </trkpt>
      <trkpt lat="44.36496" lon="5.15375">
        <ele>275.6</ele>
        <time>2021-11-19T10:02:03Z</time>
      </trkpt>
      <trkpt lat="44.36485" lon="5.15368">
        <ele>275.4</ele>
        <time>2021-11-19T10:02:04Z</time>
      </trkpt>
      <trkpt lat="44.36475" lon="5.1536">
        <ele>275.2</ele>
        <time>2021-11-19T10:02:05Z</time>
      </trkpt>
      <trkpt lat="44.36466" lon="5.1535">
        <ele>275.2</ele>
        <time>2021-11-19T10:02:06Z</time>
      </trkpt>
      <trkpt lat="44.36458" lon="5.15341">
        <ele>275.1</ele>
        <time>2021-11-19T10:02:07Z</time>
      </trkpt>
      <trkpt lat="44.36449" lon="5.15332">
        <ele>275.1</ele>
        <time>2021-11-19T10:02:08Z</time>
      </trkpt>
      <trkpt lat="44.36441" lon="5.15323">
        <ele>275</ele>
        <time>2021-11-19T10:02:09Z</time>
      </trkpt>
      <trkpt lat="44.36434" lon="5.15314">
        <ele>274.9</ele>
        <time>2021-11-19T10:02:10Z</time>
      </trkpt>
      <trkpt lat="44.36427" lon="5.15305">
        <ele>274.9</ele>
        <time>2021-11-19T10:02:11Z</time>
      </trkpt>
      <trkpt lat="44.36419" lon="5.15295">
        <ele>274.9</ele>
        <time>2021-11-19T10:02:12Z</time>
      </trkpt>
      <trkpt lat="44.36413" lon="5.15286">
        <ele>274.9</ele>
        <time>2021-11-19T10:02:13Z</time>
      </trkpt>
      <trkpt lat="44.36406" lon="5.15279">
        <ele>274.9</ele>
        <time>2021-11-19T10:02:14Z</time>
      </trkpt>
      <trkpt lat="44.36399" lon="5.1527">
        <ele>274.9</ele>
        <time>2021-11-19T10:02:15Z</time>
      </trkpt>
      <trkpt lat="44.36392" lon="5.15262">
        <ele>274.9</ele>
        <time>2021-11-19T10:02:16Z</time>
      </trkpt>
      <trkpt lat="44.36385" lon="5.15254">
        <ele>275</ele>
        <time>2021-11-19T10:02:17Z</time>
      </trkpt>
      <trkpt lat="44.36379" lon="5.15246">
        <ele>274.9</ele>
        <time>2021-11-19T10:02:18Z</time>
      </trkpt>
      <trkpt lat="44.36372" lon="5.15238">
        <ele>274.9</ele>
        <time>2021-11-19T10:02:19Z</time>
      </trkpt>
      <trkpt lat="44.36366" lon="5.1523">
        <ele>274.9</ele>
        <time>2021-11-19T10:02:20Z</time>
      </trkpt>
      <trkpt lat="44.36359" lon="5.15222">
        <ele>274.8</ele>
        <time>2021-11-19T10:02:21Z</time>
      </trkpt>
      <trkpt lat="44.36353" lon="5.15215">
        <ele>274.8</ele>
        <time>2021-11-19T10:02:22Z</time>
      </trkpt>
      <trkpt lat="44.36347" lon="5.15207">
        <ele>274.7</ele>
        <time>2021-11-19T10:02:23Z</time>
      </trkpt>
      <trkpt lat="44.36341" lon="5.152">
        <ele>274.7</ele>
        <time>2021-11-19T10:02:24Z</time>
      </trkpt>
      <trkpt lat="44.36335" lon="5.15193">
        <ele>274.6</ele>
        <time>2021-11-19T10:02:25Z</time>
      </trkpt>
      <trkpt lat="44.36329" lon="5.15186">
        <ele>274.6</ele>
        <time>2021-11-19T10:02:26Z</time>
      </trkpt>
      <trkpt lat="44.36323" lon="5.15178">
        <ele>274.6</ele>
        <time>2021-11-19T10:02:27Z</time>
      </trkpt>
      <trkpt lat="44.36316" lon="5.1517">
        <ele>274.5</ele>
        <time>2021-11-19T10:02:28Z</time>
      </trkpt>
      <trkpt lat="44.3631" lon="5.15163">
        <ele>274.4</ele>
        <time>2021-11-19T10:02:29Z</time>
      </trkpt>
      <trkpt lat="44.36304" lon="5.15156">
        <ele>274.3</ele>
        <time>2021-11-19T10:02:30Z</time>
      </trkpt>
      <trkpt lat="44.36298" lon="5.15148">
        <ele>274.2</ele>
        <time>2021-11-19T10:02:31Z</time>
      </trkpt>
      <trkpt lat="44.36292" lon="5.15141">
        <ele>274.2</ele>
        <time>2021-11-19T10:02:32Z</time>
      </trkpt>
      <trkpt lat="44.36286" lon="5.15133">
        <ele>274.1</ele>
        <time>2021-11-19T10:02:33Z</time>
      </trkpt>
      <trkpt lat="44.3628" lon="5.15125">
        <ele>273.9</ele>
        <time>2021-11-19T10:02:34Z</time>
      </trkpt>
      <trkpt lat="44.36273" lon="5.15118">
        <ele>273.8</ele>
        <time>2021-11-19T10:02:35Z</time>
      </trkpt>
      <trkpt lat="44.36267" lon="5.1511">
        <ele>273.7</ele>
        <time>2021-11-19T10:02:36Z</time>
      </trkpt>
      <trkpt lat="44.3626" lon="5.15103">
        <ele>273.5</ele>
        <time>2021-11-19T10:02:37Z</time>
      </trkpt>
      <trkpt lat="44.36254" lon="5.15095">
        <ele>273.4</ele>
        <time>2021-11-19T10:02:38Z</time>
      </trkpt>
      <trkpt lat="44.36248" lon="5.15087">
        <ele>273.2</ele>
        <time>2021-11-19T10:02:39Z</time>
      </trkpt>
      <trkpt lat="44.36241" lon="5.1508">
        <ele>273.1</ele>
        <time>2021-11-19T10:02:40Z</time>
      </trkpt>
      <trkpt lat="44.36235" lon="5.15073">
        <ele>273</ele>
        <time>2021-11-19T10:02:41Z</time>
      </trkpt>
      <trkpt lat="44.36228" lon="5.15066">
        <ele>272.8</ele>
        <time>2021-11-19T10:02:42Z</time>
      </trkpt>
      <trkpt lat="44.36221" lon="5.15059">
        <ele>272.7</ele>
        <time>2021-11-19T10:02:43Z</time>
      </trkpt>
      <trkpt lat="44.36214" lon="5.15052">
        <ele>272.5</ele>
        <time>2021-11-19T10:02:44Z</time>
      </trkpt>
      <trkpt lat="44.36207" lon="5.15045">
        <ele>272.4</ele>
        <time>2021-11-19T10:02:45Z</time>
      </trkpt>
      <trkpt lat="44.36199" lon="5.15038">
        <ele>272.3</ele>
        <time>2021-11-19T10:02:46Z</time>
      </trkpt>
      <trkpt lat="44.36192" lon="5.15031">
        <ele>272.2</ele>
        <time>2021-11-19T10:02:47Z</time>
      </trkpt>
      <trkpt lat="44.36185" lon="5.15024">
        <ele>272.1</ele>
        <time>2021-11-19T10:02:48Z</time>
      </trkpt>
      <trkpt lat="44.36178" lon="5.15017">
        <ele>272</ele>
        <time>2021-11-19T10:02:49Z</time>
      </trkpt>
      <trkpt lat="44.36171" lon="5.15011">
        <ele>271.9</ele>
        <time>2021-11-19T10:02:50Z</time>
      </trkpt>
      <trkpt lat="44.36164" lon="5.15004">
        <ele>271.8</ele>
        <time>2021-11-19T10:02:51Z</time>
      </trkpt>
      <trkpt lat="44.36156" lon="5.14997">
        <ele>271.8</ele>
        <time>2021-11-19T10:02:52Z</time>
      </trkpt>
      <trkpt lat="44.36149" lon="5.14991">
        <ele>271.7</ele>
        <time>2021-11-19T10:02:53Z</time>
      </trkpt>
      <trkpt lat="44.36142" lon="5.14984">
        <ele>271.6</ele>
        <time>2021-11-19T10:02:54Z</time>
      </trkpt>
      <trkpt lat="44.36136" lon="5.14978">
        <ele>271.6</ele>
        <time>2021-11-19T10:02:55Z</time>
      </trkpt>
      <trkpt lat="44.36129" lon="5.14971">
        <ele>271.5</ele>
        <time>2021-11-19T10:02:56Z</time>
      </trkpt>
      <trkpt lat="44.36122" lon="5.14965">
        <ele>271.4</ele>
        <time>2021-11-19T10:02:57Z</time>
      </trkpt>
      <trkpt lat="44.36115" lon="5.14958">
        <ele>271.3</ele>
        <time>2021-11-19T10:02:58Z</time>
      </trkpt>
      <trkpt lat="44.36108" lon="5.1495">
        <ele>271.2</ele>
        <time>2021-11-19T10:02:59Z</time>
      </trkpt>
      <trkpt lat="44.36102" lon="5.14943">
        <ele>271.1</ele>
        <time>2021-11-19T10:03:00Z</time>
      </trkpt>
      <trkpt lat="44.36096" lon="5.14936">
        <ele>271.1</ele>
        <time>2021-11-19T10:03:01Z</time>
      </trkpt>
      <trkpt lat="44.36089" lon="5.14928">
        <ele>271.1</ele>
        <time>2021-11-19T10:03:02Z</time>
      </trkpt>
      <trkpt lat="44.36083" lon="5.14921">
        <ele>271</ele>
        <time>2021-11-19T10:03:03Z</time>
      </trkpt>
      <trkpt lat="44.36077" lon="5.14913">
        <ele>270.9</ele>
        <time>2021-11-19T10:03:04Z</time>
      </trkpt>
      <trkpt lat="44.36071" lon="5.14905">
        <ele>270.9</ele>
        <time>2021-11-19T10:03:05Z</time>
      </trkpt>
      <trkpt lat="44.36065" lon="5.14898">
        <ele>270.8</ele>
        <time>2021-11-19T10:03:06Z</time>
      </trkpt>
      <trkpt lat="44.36059" lon="5.1489">
        <ele>270.6</ele>
        <time>2021-11-19T10:03:07Z</time>
      </trkpt>
      <trkpt lat="44.36053" lon="5.14881">
        <ele>270.5</ele>
        <time>2021-11-19T10:03:08Z</time>
      </trkpt>
      <trkpt lat="44.36048" lon="5.14872">
        <ele>270.3</ele>
        <time>2021-11-19T10:03:09Z</time>
      </trkpt>
      <trkpt lat="44.36042" lon="5.14863">
        <ele>270.2</ele>
        <time>2021-11-19T10:03:10Z</time>
      </trkpt>
      <trkpt lat="44.36037" lon="5.14853">
        <ele>269.9</ele>
        <time>2021-11-19T10:03:11Z</time>
      </trkpt>
      <trkpt lat="44.36031" lon="5.14844">
        <ele>269.7</ele>
        <time>2021-11-19T10:03:12Z</time>
      </trkpt>
      <trkpt lat="44.36025" lon="5.14835">
        <ele>269.5</ele>
        <time>2021-11-19T10:03:13Z</time>
      </trkpt>
      <trkpt lat="44.3602" lon="5.14826">
        <ele>269.3</ele>
        <time>2021-11-19T10:03:14Z</time>
      </trkpt>
      <trkpt lat="44.36015" lon="5.14817">
        <ele>269.1</ele>
        <time>2021-11-19T10:03:15Z</time>
      </trkpt>
      <trkpt lat="44.3601" lon="5.14807">
        <ele>268.9</ele>
        <time>2021-11-19T10:03:16Z</time>
      </trkpt>
      <trkpt lat="44.36005" lon="5.14798">
        <ele>268.8</ele>
        <time>2021-11-19T10:03:17Z</time>
      </trkpt>
      <trkpt lat="44.36" lon="5.14788">
        <ele>268.8</ele>
        <time>2021-11-19T10:03:18Z</time>
      </trkpt>
      <trkpt lat="44.35995" lon="5.14779">
        <ele>268.8</ele>
        <time>2021-11-19T10:03:19Z</time>
      </trkpt>
      <trkpt lat="44.3599" lon="5.14769">
        <ele>268.8</ele>
        <time>2021-11-19T10:03:20Z</time>
      </trkpt>
      <trkpt lat="44.35985" lon="5.1476">
        <ele>268.9</ele>
        <time>2021-11-19T10:03:21Z</time>
      </trkpt>
      <trkpt lat="44.3598" lon="5.14752">
        <ele>269</ele>
        <time>2021-11-19T10:03:22Z</time>
      </trkpt>
      <trkpt lat="44.35974" lon="5.14743">
        <ele>269.1</ele>
        <time>2021-11-19T10:03:23Z</time>
      </trkpt>
      <trkpt lat="44.35969" lon="5.14734">
        <ele>269.2</ele>
        <time>2021-11-19T10:03:24Z</time>
      </trkpt>
      <trkpt lat="44.35965" lon="5.14725">
        <ele>269.4</ele>
        <time>2021-11-19T10:03:25Z</time>
      </trkpt>
      <trkpt lat="44.3596" lon="5.14717">
        <ele>269.6</ele>
        <time>2021-11-19T10:03:26Z</time>
      </trkpt>
      <trkpt lat="44.35956" lon="5.14709">
        <ele>269.8</ele>
        <time>2021-11-19T10:03:27Z</time>
      </trkpt>
      <trkpt lat="44.35952" lon="5.14701">
        <ele>270</ele>
        <time>2021-11-19T10:03:28Z</time>
      </trkpt>
      <trkpt lat="44.35949" lon="5.14693">
        <ele>270.2</ele>
        <time>2021-11-19T10:03:29Z</time>
      </trkpt>
      <trkpt lat="44.35945" lon="5.14685">
        <ele>270.4</ele>
        <time>2021-11-19T10:03:30Z</time>
      </trkpt>
      <trkpt lat="44.35943" lon="5.14678">
        <ele>270.6</ele>
        <time>2021-11-19T10:03:31Z</time>
      </trkpt>
      <trkpt lat="44.35941" lon="5.1467">
        <ele>270.8</ele>
        <time>2021-11-19T10:03:32Z</time>
      </trkpt>
      <trkpt lat="44.35939" lon="5.14663">
        <ele>271</ele>
        <time>2021-11-19T10:03:33Z</time>
      </trkpt>
      <trkpt lat="44.35938" lon="5.14656">
        <ele>271.2</ele>
        <time>2021-11-19T10:03:34Z</time>
      </trkpt>
      <trkpt lat="44.35936" lon="5.1465">
        <ele>271.4</ele>
        <time>2021-11-19T10:03:35Z</time>
      </trkpt>
      <trkpt lat="44.35935" lon="5.14642">
        <ele>271.6</ele>
        <time>2021-11-19T10:03:36Z</time>
      </trkpt>
      <trkpt lat="44.35933" lon="5.14633">
        <ele>271.8</ele>
        <time>2021-11-19T10:03:37Z</time>
      </trkpt>
      <trkpt lat="44.35933" lon="5.14625">
        <ele>272</ele>
        <time>2021-11-19T10:03:38Z</time>
      </trkpt>
      <trkpt lat="44.35932" lon="5.14618">
        <ele>272.2</ele>
        <time>2021-11-19T10:03:39Z</time>
      </trkpt>
      <trkpt lat="44.35931" lon="5.14611">
        <ele>272.4</ele>
        <time>2021-11-19T10:03:40Z</time>
      </trkpt>
      <trkpt lat="44.35931" lon="5.14605">
        <ele>272.5</ele>
        <time>2021-11-19T10:03:41Z</time>
      </trkpt>
      <trkpt lat="44.35931" lon="5.14599">
        <ele>272.6</ele>
        <time>2021-11-19T10:03:42Z</time>
      </trkpt>
      <trkpt lat="44.35931" lon="5.14591">
        <ele>272.8</ele>
        <time>2021-11-19T10:03:43Z</time>
      </trkpt>
      <trkpt lat="44.35931" lon="5.14585">
        <ele>272.8</ele>
        <time>2021-11-19T10:03:44Z</time>
      </trkpt>
      <trkpt lat="44.35931" lon="5.14577">
        <ele>273</ele>
        <time>2021-11-19T10:03:45Z</time>
      </trkpt>
      <trkpt lat="44.35932" lon="5.14567">
        <ele>273.1</ele>
        <time>2021-11-19T10:03:46Z</time>
      </trkpt>
      <trkpt lat="44.35932" lon="5.14561">
        <ele>273.2</ele>
        <time>2021-11-19T10:03:47Z</time>
      </trkpt>
      <trkpt lat="44.35932" lon="5.14555">
        <ele>273.3</ele>
        <time>2021-11-19T10:03:48Z</time>
      </trkpt>
      <trkpt lat="44.35932" lon="5.14547">
        <ele>273.4</ele>
        <time>2021-11-19T10:03:49Z</time>
      </trkpt>
      <trkpt lat="44.35936" lon="5.14544">
        <ele>273.5</ele>
        <time>2021-11-19T10:03:52Z</time>
      </trkpt>
      <trkpt lat="44.35936" lon="5.14535">
        <ele>273.7</ele>
        <time>2021-11-19T10:03:53Z</time>
      </trkpt>
      <trkpt lat="44.35935" lon="5.14524">
        <ele>273.9</ele>
        <time>2021-11-19T10:03:54Z</time>
      </trkpt>
      <trkpt lat="44.35934" lon="5.14505">
        <ele>274.2</ele>
        <time>2021-11-19T10:03:56Z</time>
      </trkpt>
      <trkpt lat="44.35932" lon="5.14482">
        <ele>274.6</ele>
        <time>2021-11-19T10:03:59Z</time>
      </trkpt>
      <trkpt lat="44.35938" lon="5.14478">
        <ele>274.7</ele>
        <time>2021-11-19T10:04:01Z</time>
      </trkpt>
      <trkpt lat="44.35944" lon="5.1447">
        <ele>274.9</ele>
        <time>2021-11-19T10:04:03Z</time>
      </trkpt>
      <trkpt lat="44.35943" lon="5.14459">
        <ele>275.1</ele>
        <time>2021-11-19T10:04:04Z</time>
      </trkpt>
      <trkpt lat="44.35942" lon="5.14442">
        <ele>275.5</ele>
        <time>2021-11-19T10:04:05Z</time>
      </trkpt>
      <trkpt lat="44.3594" lon="5.14434">
        <ele>275.6</ele>
        <time>2021-11-19T10:04:07Z</time>
      </trkpt>
      <trkpt lat="44.35938" lon="5.14419">
        <ele>275.8</ele>
        <time>2021-11-19T10:04:09Z</time>
      </trkpt>
      <trkpt lat="44.35937" lon="5.14409">
        <ele>276</ele>
        <time>2021-11-19T10:04:10Z</time>
      </trkpt>
      <trkpt lat="44.35936" lon="5.14403">
        <ele>276.1</ele>
        <time>2021-11-19T10:04:12Z</time>
      </trkpt>
      <trkpt lat="44.35935" lon="5.14397">
        <ele>276.1</ele>
        <time>2021-11-19T10:04:13Z</time>
      </trkpt>
      <trkpt lat="44.35933" lon="5.14389">
        <ele>276.2</ele>
        <time>2021-11-19T10:04:15Z</time>
      </trkpt>
      <trkpt lat="44.35931" lon="5.14385">
        <ele>276.2</ele>
        <time>2021-11-19T10:04:16Z</time>
      </trkpt>
      <trkpt lat="44.35931" lon="5.14384">
        <ele>276.3</ele>
        <time>2021-11-19T10:04:17Z</time>
      </trkpt>
      <trkpt lat="44.35929" lon="5.1438">
        <ele>276.3</ele>
        <time>2021-11-19T10:04:19Z</time>
      </trkpt>
      <trkpt lat="44.35926" lon="5.14371">
        <ele>276.4</ele>
        <time>2021-11-19T10:04:21Z</time>
      </trkpt>
      <trkpt lat="44.35923" lon="5.14359">
        <ele>276.4</ele>
        <time>2021-11-19T10:04:23Z</time>
      </trkpt>
      <trkpt lat="44.35922" lon="5.14363">
        <ele>276.4</ele>
        <time>2021-11-19T10:04:24Z</time>
      </trkpt>
      <trkpt lat="44.35922" lon="5.14366">
        <ele>276.4</ele>
        <time>2021-11-19T10:04:25Z</time>
      </trkpt>
      <trkpt lat="44.35923" lon="5.14368">
        <ele>276.4</ele>
        <time>2021-11-19T10:04:28Z</time>
      </trkpt>
      <trkpt lat="44.35925" lon="5.14369">
        <ele>276.4</ele>
        <time>2021-11-19T10:04:29Z</time>
      </trkpt>
      <trkpt lat="44.35926" lon="5.1437">
        <ele>276.4</ele>
        <time>2021-11-19T10:04:30Z</time>
      </trkpt>
      <trkpt lat="44.35929" lon="5.14373">
        <ele>276.4</ele>
        <time>2021-11-19T10:04:31Z</time>
      </trkpt>
      <trkpt lat="44.3593" lon="5.14374">
        <ele>276.4</ele>
        <time>2021-11-19T10:04:32Z</time>
      </trkpt>
      <trkpt lat="44.3594" lon="5.14382">
        <ele>276.4</ele>
        <time>2021-11-19T10:04:33Z</time>
      </trkpt>
      <trkpt lat="44.35945" lon="5.14386">
        <ele>276.4</ele>
        <time>2021-11-19T10:04:35Z</time>
      </trkpt>
      <trkpt lat="44.35949" lon="5.14389">
        <ele>276.5</ele>
        <time>2021-11-19T10:04:38Z</time>
      </trkpt>
      <trkpt lat="44.3595" lon="5.1439">
        <ele>276.5</ele>
        <time>2021-11-19T10:04:39Z</time>
      </trkpt>
      <trkpt lat="44.35951" lon="5.14391">
        <ele>276.5</ele>
        <time>2021-11-19T10:04:40Z</time>
      </trkpt>
      <trkpt lat="44.35952" lon="5.14391">
        <ele>276.5</ele>
        <time>2021-11-19T10:04:41Z</time>
      </trkpt>
      <trkpt lat="44.35952" lon="5.1439">
        <ele>276.5</ele>
        <time>2021-11-19T10:04:42Z</time>
      </trkpt>
      <trkpt lat="44.35951" lon="5.1439">
        <ele>276.5</ele>
        <time>2021-11-19T10:04:43Z</time>
      </trkpt>
      <trkpt lat="44.3595" lon="5.14389">
        <ele>276.5</ele>
        <time>2021-11-19T10:04:46Z</time>
      </trkpt>
      <trkpt lat="44.3595" lon="5.14388">
        <ele>276.5</ele>
        <time>2021-11-19T10:04:47Z</time>
      </trkpt>
      <trkpt lat="44.3595" lon="5.14388">
        <ele>276.5</ele>
        <time>2021-11-19T10:04:48Z</time>
      </trkpt>
      <trkpt lat="44.3595" lon="5.14388">
        <ele>276.5</ele>
        <time>2021-11-19T10:04:50Z</time>
      </trkpt>
      <trkpt lat="44.3595" lon="5.14388">
        <ele>276.5</ele>
        <time>2021-11-19T10:04:51Z</time>
      </trkpt>
      <trkpt lat="44.3595" lon="5.14387">
        <ele>276.5</ele>
        <time>2021-11-19T10:04:52Z</time>
      </trkpt>
      <trkpt lat="44.3595" lon="5.14387">
        <ele>276.5</ele>
        <time>2021-11-19T10:04:53Z</time>
      </trkpt>
      <trkpt lat="44.35961" lon="5.144">
        <ele>276.6</ele>
        <time>2021-11-19T10:06:42Z</time>
      </trkpt>
      <trkpt lat="44.35966" lon="5.14406">
        <ele>276.6</ele>
        <time>2021-11-19T10:06:44Z</time>
      </trkpt>
      <trkpt lat="44.35968" lon="5.14408">
        <ele>276.6</ele>
        <time>2021-11-19T10:06:45Z</time>
      </trkpt>
      <trkpt lat="44.3597" lon="5.14409">
        <ele>276.7</ele>
        <time>2021-11-19T10:06:47Z</time>
      </trkpt>
      <trkpt lat="44.35967" lon="5.14408">
        <ele>276.8</ele>
        <time>2021-11-19T10:06:48Z</time>
      </trkpt>
      <trkpt lat="44.35967" lon="5.14408">
        <ele>276.8</ele>
        <time>2021-11-19T10:06:50Z</time>
      </trkpt>
      <trkpt lat="44.35969" lon="5.14408">
        <ele>276.9</ele>
        <time>2021-11-19T10:06:53Z</time>
      </trkpt>
      <trkpt lat="44.35971" lon="5.14408">
        <ele>277</ele>
        <time>2021-11-19T10:06:54Z</time>
      </trkpt>
      <trkpt lat="44.35973" lon="5.14408">
        <ele>277</ele>
        <time>2021-11-19T10:06:55Z</time>
      </trkpt>
      <trkpt lat="44.35975" lon="5.14408">
        <ele>277.1</ele>
        <time>2021-11-19T10:07:30Z</time>
      </trkpt>
      <trkpt lat="44.35977" lon="5.14409">
        <ele>277.1</ele>
        <time>2021-11-19T10:07:31Z</time>
      </trkpt>
      <trkpt lat="44.35981" lon="5.14409">
        <ele>277.2</ele>
        <time>2021-11-19T10:07:33Z</time>
      </trkpt>
      <trkpt lat="44.35985" lon="5.14409">
        <ele>277.3</ele>
        <time>2021-11-19T10:07:35Z</time>
      </trkpt>
      <trkpt lat="44.35992" lon="5.14409">
        <ele>277.3</ele>
        <time>2021-11-19T10:07:36Z</time>
      </trkpt>
      <trkpt lat="44.35994" lon="5.14408">
        <ele>277.3</ele>
        <time>2021-11-19T10:07:38Z</time>
      </trkpt>
      <trkpt lat="44.35999" lon="5.14408">
        <ele>277.1</ele>
        <time>2021-11-19T10:07:41Z</time>
      </trkpt>
      <trkpt lat="44.36" lon="5.14408">
        <ele>277.1</ele>
        <time>2021-11-19T10:07:42Z</time>
      </trkpt>
      <trkpt lat="44.36002" lon="5.14407">
        <ele>277</ele>
        <time>2021-11-19T10:07:43Z</time>
      </trkpt>
      <trkpt lat="44.36005" lon="5.14407">
        <ele>276.8</ele>
        <time>2021-11-19T10:07:45Z</time>
      </trkpt>
      <trkpt lat="44.36012" lon="5.14408">
        <ele>276.4</ele>
        <time>2021-11-19T10:07:47Z</time>
      </trkpt>
      <trkpt lat="44.3602" lon="5.14409">
        <ele>275.9</ele>
        <time>2021-11-19T10:07:49Z</time>
      </trkpt>
      <trkpt lat="44.36024" lon="5.14409">
        <ele>275.8</ele>
        <time>2021-11-19T10:07:50Z</time>
      </trkpt>
      <trkpt lat="44.36031" lon="5.14411">
        <ele>275.6</ele>
        <time>2021-11-19T10:07:52Z</time>
      </trkpt>
      <trkpt lat="44.36037" lon="5.14414">
        <ele>275.4</ele>
        <time>2021-11-19T10:07:54Z</time>
      </trkpt>
      <trkpt lat="44.3604" lon="5.14413">
        <ele>275.3</ele>
        <time>2021-11-19T10:07:55Z</time>
      </trkpt>
      <trkpt lat="44.36048" lon="5.14412">
        <ele>275.3</ele>
        <time>2021-11-19T10:07:57Z</time>
      </trkpt>
      <trkpt lat="44.36047" lon="5.14407">
        <ele>275.2</ele>
        <time>2021-11-19T10:07:58Z</time>
      </trkpt>
      <trkpt lat="44.36047" lon="5.14403">
        <ele>275.2</ele>
        <time>2021-11-19T10:07:59Z</time>
      </trkpt>
      <trkpt lat="44.36048" lon="5.14395">
        <ele>275.1</ele>
        <time>2021-11-19T10:08:01Z</time>
      </trkpt>
      <trkpt lat="44.3605" lon="5.14391">
        <ele>275.2</ele>
        <time>2021-11-19T10:08:02Z</time>
      </trkpt>
      <trkpt lat="44.36049" lon="5.14387">
        <ele>275.2</ele>
        <time>2021-11-19T10:08:03Z</time>
      </trkpt>
      <trkpt lat="44.36048" lon="5.14382">
        <ele>275.3</ele>
        <time>2021-11-19T10:08:04Z</time>
      </trkpt>
      <trkpt lat="44.36049" lon="5.14374">
        <ele>275.4</ele>
        <time>2021-11-19T10:08:06Z</time>
      </trkpt>
      <trkpt lat="44.36051" lon="5.14365">
        <ele>275.5</ele>
        <time>2021-11-19T10:08:09Z</time>
      </trkpt>
      <trkpt lat="44.36052" lon="5.1436">
        <ele>275.5</ele>
        <time>2021-11-19T10:08:10Z</time>
      </trkpt>
      <trkpt lat="44.36053" lon="5.14354">
        <ele>275.5</ele>
        <time>2021-11-19T10:08:11Z</time>
      </trkpt>
      <trkpt lat="44.36056" lon="5.14343">
        <ele>275.6</ele>
        <time>2021-11-19T10:08:13Z</time>
      </trkpt>
      <trkpt lat="44.3606" lon="5.14327">
        <ele>275.4</ele>
        <time>2021-11-19T10:08:16Z</time>
      </trkpt>
      <trkpt lat="44.36061" lon="5.14321">
        <ele>275.2</ele>
        <time>2021-11-19T10:08:17Z</time>
      </trkpt>
      <trkpt lat="44.36064" lon="5.14309">
        <ele>274.9</ele>
        <time>2021-11-19T10:08:19Z</time>
      </trkpt>
      <trkpt lat="44.36064" lon="5.14302">
        <ele>274.8</ele>
        <time>2021-11-19T10:08:21Z</time>
      </trkpt>
      <trkpt lat="44.36063" lon="5.14307">
        <ele>274.6</ele>
        <time>2021-11-19T10:08:23Z</time>
      </trkpt>
      <trkpt lat="44.36063" lon="5.14304">
        <ele>274.5</ele>
        <time>2021-11-19T10:08:25Z</time>
      </trkpt>
      <trkpt lat="44.36063" lon="5.14297">
        <ele>274.4</ele>
        <time>2021-11-19T10:08:27Z</time>
      </trkpt>
      <trkpt lat="44.36062" lon="5.14292">
        <ele>274.2</ele>
        <time>2021-11-19T10:08:28Z</time>
      </trkpt>
      <trkpt lat="44.36062" lon="5.14289">
        <ele>274.2</ele>
        <time>2021-11-19T10:08:29Z</time>
      </trkpt>
      <trkpt lat="44.36063" lon="5.14284">
        <ele>274</ele>
        <time>2021-11-19T10:08:31Z</time>
      </trkpt>
      <trkpt lat="44.36064" lon="5.14276">
        <ele>273.9</ele>
        <time>2021-11-19T10:08:33Z</time>
      </trkpt>
      <trkpt lat="44.36064" lon="5.14268">
        <ele>273.8</ele>
        <time>2021-11-19T10:08:34Z</time>
      </trkpt>
      <trkpt lat="44.36065" lon="5.14254">
        <ele>273.7</ele>
        <time>2021-11-19T10:08:36Z</time>
      </trkpt>
      <trkpt lat="44.36066" lon="5.14242">
        <ele>273.7</ele>
        <time>2021-11-19T10:08:38Z</time>
      </trkpt>
      <trkpt lat="44.36065" lon="5.14229">
        <ele>273.8</ele>
        <time>2021-11-19T10:08:41Z</time>
      </trkpt>
      <trkpt lat="44.36064" lon="5.14224">
        <ele>273.8</ele>
        <time>2021-11-19T10:08:43Z</time>
      </trkpt>
      <trkpt lat="44.36065" lon="5.14219">
        <ele>273.9</ele>
        <time>2021-11-19T10:08:45Z</time>
      </trkpt>
      <trkpt lat="44.36066" lon="5.14214">
        <ele>273.9</ele>
        <time>2021-11-19T10:08:46Z</time>
      </trkpt>
      <trkpt lat="44.36066" lon="5.14213">
        <ele>273.9</ele>
        <time>2021-11-19T10:08:47Z</time>
      </trkpt>
      <trkpt lat="44.36068" lon="5.14208">
        <ele>273.9</ele>
        <time>2021-11-19T10:08:49Z</time>
      </trkpt>
      <trkpt lat="44.36073" lon="5.14205">
        <ele>273.9</ele>
        <time>2021-11-19T10:08:52Z</time>
      </trkpt>
      <trkpt lat="44.36076" lon="5.14203">
        <ele>274.1</ele>
        <time>2021-11-19T10:08:53Z</time>
      </trkpt>
      <trkpt lat="44.36077" lon="5.14202">
        <ele>274.1</ele>
        <time>2021-11-19T10:08:54Z</time>
      </trkpt>
      <trkpt lat="44.3608" lon="5.14194">
        <ele>274.1</ele>
        <time>2021-11-19T10:08:55Z</time>
      </trkpt>
      <trkpt lat="44.36077" lon="5.14178">
        <ele>273.7</ele>
        <time>2021-11-19T10:08:57Z</time>
      </trkpt>
      <trkpt lat="44.36075" lon="5.14169">
        <ele>273.5</ele>
        <time>2021-11-19T10:08:58Z</time>
      </trkpt>
      <trkpt lat="44.36071" lon="5.1416">
        <ele>273.2</ele>
        <time>2021-11-19T10:08:59Z</time>
      </trkpt>
      <trkpt lat="44.36067" lon="5.14144">
        <ele>272.7</ele>
        <time>2021-11-19T10:09:01Z</time>
      </trkpt>
      <trkpt lat="44.36065" lon="5.14135">
        <ele>272.4</ele>
        <time>2021-11-19T10:09:02Z</time>
      </trkpt>
      <trkpt lat="44.36064" lon="5.1413">
        <ele>272.4</ele>
        <time>2021-11-19T10:09:03Z</time>
      </trkpt>
      <trkpt lat="44.36066" lon="5.14135">
        <ele>272.3</ele>
        <time>2021-11-19T10:09:05Z</time>
      </trkpt>
      <trkpt lat="44.36066" lon="5.14132">
        <ele>272.2</ele>
        <time>2021-11-19T10:09:06Z</time>
      </trkpt>
      <trkpt lat="44.36065" lon="5.1413">
        <ele>272.2</ele>
        <time>2021-11-19T10:09:07Z</time>
      </trkpt>
      <trkpt lat="44.36065" lon="5.14126">
        <ele>272.2</ele>
        <time>2021-11-19T10:09:08Z</time>
      </trkpt>
      <trkpt lat="44.36065" lon="5.14123">
        <ele>272.1</ele>
        <time>2021-11-19T10:09:10Z</time>
      </trkpt>
      <trkpt lat="44.36066" lon="5.14116">
        <ele>272</ele>
        <time>2021-11-19T10:09:11Z</time>
      </trkpt>
      <trkpt lat="44.36068" lon="5.14113">
        <ele>272</ele>
        <time>2021-11-19T10:09:12Z</time>
      </trkpt>
      <trkpt lat="44.36071" lon="5.14108">
        <ele>271.9</ele>
        <time>2021-11-19T10:09:15Z</time>
      </trkpt>
      <trkpt lat="44.36072" lon="5.14101">
        <ele>271.8</ele>
        <time>2021-11-19T10:09:17Z</time>
      </trkpt>
      <trkpt lat="44.36074" lon="5.14097">
        <ele>271.7</ele>
        <time>2021-11-19T10:09:19Z</time>
      </trkpt>
      <trkpt lat="44.36074" lon="5.14087">
        <ele>271.5</ele>
        <time>2021-11-19T10:09:21Z</time>
      </trkpt>
      <trkpt lat="44.36073" lon="5.1408">
        <ele>271.4</ele>
        <time>2021-11-19T10:09:22Z</time>
      </trkpt>
      <trkpt lat="44.36071" lon="5.14074">
        <ele>271.2</ele>
        <time>2021-11-19T10:09:23Z</time>
      </trkpt>
      <trkpt lat="44.36071" lon="5.14069">
        <ele>271.2</ele>
        <time>2021-11-19T10:09:24Z</time>
      </trkpt>
      <trkpt lat="44.36069" lon="5.14066">
        <ele>271.1</ele>
        <time>2021-11-19T10:09:26Z</time>
      </trkpt>
      <trkpt lat="44.36069" lon="5.14062">
        <ele>271.1</ele>
        <time>2021-11-19T10:09:29Z</time>
      </trkpt>
      <trkpt lat="44.36066" lon="5.14062">
        <ele>271</ele>
        <time>2021-11-19T10:09:30Z</time>
      </trkpt>
      <trkpt lat="44.36064" lon="5.14065">
        <ele>271</ele>
        <time>2021-11-19T10:09:33Z</time>
      </trkpt>
      <trkpt lat="44.36063" lon="5.14064">
        <ele>271</ele>
        <time>2021-11-19T10:09:34Z</time>
      </trkpt>
      <trkpt lat="44.36063" lon="5.14065">
        <ele>271</ele>
        <time>2021-11-19T10:09:35Z</time>
      </trkpt>
      <trkpt lat="44.36061" lon="5.14065">
        <ele>270.9</ele>
        <time>2021-11-19T10:09:36Z</time>
      </trkpt>
      <trkpt lat="44.3606" lon="5.14065">
        <ele>270.9</ele>
        <time>2021-11-19T10:09:39Z</time>
      </trkpt>
      <trkpt lat="44.3606" lon="5.14063">
        <ele>270.9</ele>
        <time>2021-11-19T10:09:40Z</time>
      </trkpt>
      <trkpt lat="44.36059" lon="5.1406">
        <ele>270.9</ele>
        <time>2021-11-19T10:09:42Z</time>
      </trkpt>
      <trkpt lat="44.36058" lon="5.14057">
        <ele>270.9</ele>
        <time>2021-11-19T10:09:43Z</time>
      </trkpt>
      <trkpt lat="44.36056" lon="5.14049">
        <ele>270.8</ele>
        <time>2021-11-19T10:09:45Z</time>
      </trkpt>
      <trkpt lat="44.36055" lon="5.14041">
        <ele>270.7</ele>
        <time>2021-11-19T10:09:46Z</time>
      </trkpt>
      <trkpt lat="44.36056" lon="5.14034">
        <ele>270.6</ele>
        <time>2021-11-19T10:09:47Z</time>
      </trkpt>
      <trkpt lat="44.36053" lon="5.1402">
        <ele>270.2</ele>
        <time>2021-11-19T10:09:48Z</time>
      </trkpt>
      <trkpt lat="44.36051" lon="5.14014">
        <ele>270</ele>
        <time>2021-11-19T10:09:49Z</time>
      </trkpt>
      <trkpt lat="44.36048" lon="5.14006">
        <ele>269.7</ele>
        <time>2021-11-19T10:09:51Z</time>
      </trkpt>
      <trkpt lat="44.36046" lon="5.13997">
        <ele>269.5</ele>
        <time>2021-11-19T10:09:52Z</time>
      </trkpt>
      <trkpt lat="44.36044" lon="5.13987">
        <ele>269.1</ele>
        <time>2021-11-19T10:09:55Z</time>
      </trkpt>
      <trkpt lat="44.36044" lon="5.13986">
        <ele>269.1</ele>
        <time>2021-11-19T10:09:56Z</time>
      </trkpt>
      <trkpt lat="44.36044" lon="5.13985">
        <ele>269.1</ele>
        <time>2021-11-19T10:09:57Z</time>
      </trkpt>
      <trkpt lat="44.36047" lon="5.13992">
        <ele>269.2</ele>
        <time>2021-11-19T10:09:58Z</time>
      </trkpt>
      <trkpt lat="44.36048" lon="5.13995">
        <ele>269.2</ele>
        <time>2021-11-19T10:10:01Z</time>
      </trkpt>
      <trkpt lat="44.36049" lon="5.13994">
        <ele>269.2</ele>
        <time>2021-11-19T10:10:02Z</time>
      </trkpt>
      <trkpt lat="44.3605" lon="5.13993">
        <ele>269.2</ele>
        <time>2021-11-19T10:10:05Z</time>
      </trkpt>
      <trkpt lat="44.3605" lon="5.13992">
        <ele>269.2</ele>
        <time>2021-11-19T10:10:06Z</time>
      </trkpt>
      <trkpt lat="44.36051" lon="5.13992">
        <ele>269.3</ele>
        <time>2021-11-19T10:10:27Z</time>
      </trkpt>
      <trkpt lat="44.36051" lon="5.13991">
        <ele>269.3</ele>
        <time>2021-11-19T10:10:29Z</time>
      </trkpt>
      <trkpt lat="44.36052" lon="5.1399">
        <ele>269.3</ele>
        <time>2021-11-19T10:10:32Z</time>
      </trkpt>
      <trkpt lat="44.36052" lon="5.1399">
        <ele>269.3</ele>
        <time>2021-11-19T10:10:33Z</time>
      </trkpt>
      <trkpt lat="44.36053" lon="5.13989">
        <ele>269.3</ele>
        <time>2021-11-19T10:10:34Z</time>
      </trkpt>
      <trkpt lat="44.36053" lon="5.13988">
        <ele>269.3</ele>
        <time>2021-11-19T10:10:35Z</time>
      </trkpt>
      <trkpt lat="44.36054" lon="5.13988">
        <ele>269.3</ele>
        <time>2021-11-19T10:10:36Z</time>
      </trkpt>
      <trkpt lat="44.36054" lon="5.13987">
        <ele>269.3</ele>
        <time>2021-11-19T10:10:37Z</time>
      </trkpt>
      <trkpt lat="44.36055" lon="5.13986">
        <ele>269.3</ele>
        <time>2021-11-19T10:10:38Z</time>
      </trkpt>
      <trkpt lat="44.36055" lon="5.13986">
        <ele>269.3</ele>
        <time>2021-11-19T10:10:39Z</time>
      </trkpt>
      <trkpt lat="44.36056" lon="5.13985">
        <ele>269.3</ele>
        <time>2021-11-19T10:11:23Z</time>
      </trkpt>
      <trkpt lat="44.36056" lon="5.13984">
        <ele>269.4</ele>
        <time>2021-11-19T10:11:24Z</time>
      </trkpt>
      <trkpt lat="44.36057" lon="5.13984">
        <ele>269.4</ele>
        <time>2021-11-19T10:11:25Z</time>
      </trkpt>
      <trkpt lat="44.36059" lon="5.1398">
        <ele>269.4</ele>
        <time>2021-11-19T10:11:26Z</time>
      </trkpt>
      <trkpt lat="44.36059" lon="5.13979">
        <ele>269.4</ele>
        <time>2021-11-19T10:11:27Z</time>
      </trkpt>
      <trkpt lat="44.36061" lon="5.13976">
        <ele>269.4</ele>
        <time>2021-11-19T10:11:28Z</time>
      </trkpt>
      <trkpt lat="44.36062" lon="5.13972">
        <ele>269.5</ele>
        <time>2021-11-19T10:11:29Z</time>
      </trkpt>
      <trkpt lat="44.36064" lon="5.13968">
        <ele>269.5</ele>
        <time>2021-11-19T10:11:30Z</time>
      </trkpt>
      <trkpt lat="44.36068" lon="5.13962">
        <ele>269.9</ele>
        <time>2021-11-19T10:11:32Z</time>
      </trkpt>
      <trkpt lat="44.36069" lon="5.13957">
        <ele>269.9</ele>
        <time>2021-11-19T10:11:33Z</time>
      </trkpt>
      <trkpt lat="44.36071" lon="5.13943">
        <ele>270.3</ele>
        <time>2021-11-19T10:11:35Z</time>
      </trkpt>
      <trkpt lat="44.36072" lon="5.13938">
        <ele>270.3</ele>
        <time>2021-11-19T10:11:36Z</time>
      </trkpt>
      <trkpt lat="44.36074" lon="5.13925">
        <ele>270.5</ele>
        <time>2021-11-19T10:11:39Z</time>
      </trkpt>
      <trkpt lat="44.36075" lon="5.13912">
        <ele>270.6</ele>
        <time>2021-11-19T10:11:42Z</time>
      </trkpt>
      <trkpt lat="44.36075" lon="5.13907">
        <ele>270.6</ele>
        <time>2021-11-19T10:11:43Z</time>
      </trkpt>
      <trkpt lat="44.36076" lon="5.13903">
        <ele>270.7</ele>
        <time>2021-11-19T10:11:44Z</time>
      </trkpt>
      <trkpt lat="44.36078" lon="5.13898">
        <ele>270.7</ele>
        <time>2021-11-19T10:11:45Z</time>
      </trkpt>
      <trkpt lat="44.36081" lon="5.13897">
        <ele>270.7</ele>
        <time>2021-11-19T10:11:48Z</time>
      </trkpt>
      <trkpt lat="44.36083" lon="5.13893">
        <ele>270.8</ele>
        <time>2021-11-19T10:11:49Z</time>
      </trkpt>
      <trkpt lat="44.36087" lon="5.13884">
        <ele>270.8</ele>
        <time>2021-11-19T10:11:52Z</time>
      </trkpt>
      <trkpt lat="44.3609" lon="5.13876">
        <ele>270.9</ele>
        <time>2021-11-19T10:11:53Z</time>
      </trkpt>
      <trkpt lat="44.36097" lon="5.13863">
        <ele>270.9</ele>
        <time>2021-11-19T10:11:55Z</time>
      </trkpt>
      <trkpt lat="44.36101" lon="5.13856">
        <ele>271</ele>
        <time>2021-11-19T10:11:56Z</time>
      </trkpt>
      <trkpt lat="44.36109" lon="5.13842">
        <ele>271</ele>
        <time>2021-11-19T10:11:58Z</time>
      </trkpt>
      <trkpt lat="44.36111" lon="5.13836">
        <ele>271</ele>
        <time>2021-11-19T10:11:59Z</time>
      </trkpt>
      <trkpt lat="44.36114" lon="5.1383">
        <ele>271</ele>
        <time>2021-11-19T10:12:01Z</time>
      </trkpt>
      <trkpt lat="44.36113" lon="5.13835">
        <ele>271.1</ele>
        <time>2021-11-19T10:12:02Z</time>
      </trkpt>
      <trkpt lat="44.36114" lon="5.13832">
        <ele>271.1</ele>
        <time>2021-11-19T10:12:03Z</time>
      </trkpt>
      <trkpt lat="44.36114" lon="5.1383">
        <ele>271.1</ele>
        <time>2021-11-19T10:12:04Z</time>
      </trkpt>
      <trkpt lat="44.36118" lon="5.13822">
        <ele>271.1</ele>
        <time>2021-11-19T10:12:07Z</time>
      </trkpt>
      <trkpt lat="44.3612" lon="5.13816">
        <ele>271.2</ele>
        <time>2021-11-19T10:12:08Z</time>
      </trkpt>
      <trkpt lat="44.36123" lon="5.13802">
        <ele>271.3</ele>
        <time>2021-11-19T10:12:09Z</time>
      </trkpt>
      <trkpt lat="44.36125" lon="5.13787">
        <ele>271.4</ele>
        <time>2021-11-19T10:12:12Z</time>
      </trkpt>
      <trkpt lat="44.36126" lon="5.13768">
        <ele>271.5</ele>
        <time>2021-11-19T10:12:14Z</time>
      </trkpt>
      <trkpt lat="44.36129" lon="5.13758">
        <ele>271.6</ele>
        <time>2021-11-19T10:12:16Z</time>
      </trkpt>
      <trkpt lat="44.36134" lon="5.13746">
        <ele>271.7</ele>
        <time>2021-11-19T10:12:19Z</time>
      </trkpt>
      <trkpt lat="44.36137" lon="5.13744">
        <ele>271.8</ele>
        <time>2021-11-19T10:12:20Z</time>
      </trkpt>
      <trkpt lat="44.36142" lon="5.13732">
        <ele>271.9</ele>
        <time>2021-11-19T10:12:21Z</time>
      </trkpt>
      <trkpt lat="44.36143" lon="5.13726">
        <ele>272</ele>
        <time>2021-11-19T10:12:22Z</time>
      </trkpt>
      <trkpt lat="44.36141" lon="5.1372">
        <ele>272</ele>
        <time>2021-11-19T10:12:23Z</time>
      </trkpt>
      <trkpt lat="44.36146" lon="5.13705">
        <ele>272.2</ele>
        <time>2021-11-19T10:12:26Z</time>
      </trkpt>
      <trkpt lat="44.36153" lon="5.13688">
        <ele>272.6</ele>
        <time>2021-11-19T10:12:28Z</time>
      </trkpt>
      <trkpt lat="44.36156" lon="5.13681">
        <ele>272.8</ele>
        <time>2021-11-19T10:12:29Z</time>
      </trkpt>
      <trkpt lat="44.36162" lon="5.13664">
        <ele>273.2</ele>
        <time>2021-11-19T10:12:31Z</time>
      </trkpt>
      <trkpt lat="44.36163" lon="5.13658">
        <ele>273.4</ele>
        <time>2021-11-19T10:12:33Z</time>
      </trkpt>
      <trkpt lat="44.36165" lon="5.13652">
        <ele>273.5</ele>
        <time>2021-11-19T10:12:34Z</time>
      </trkpt>
      <trkpt lat="44.36171" lon="5.13639">
        <ele>273.9</ele>
        <time>2021-11-19T10:12:35Z</time>
      </trkpt>
      <trkpt lat="44.36176" lon="5.13625">
        <ele>274.3</ele>
        <time>2021-11-19T10:12:37Z</time>
      </trkpt>
      <trkpt lat="44.3618" lon="5.13612">
        <ele>274.6</ele>
        <time>2021-11-19T10:12:39Z</time>
      </trkpt>
      <trkpt lat="44.36183" lon="5.13605">
        <ele>274.9</ele>
        <time>2021-11-19T10:12:40Z</time>
      </trkpt>
      <trkpt lat="44.36185" lon="5.13597">
        <ele>275.1</ele>
        <time>2021-11-19T10:12:42Z</time>
      </trkpt>
      <trkpt lat="44.3619" lon="5.13582">
        <ele>275.7</ele>
        <time>2021-11-19T10:12:44Z</time>
      </trkpt>
      <trkpt lat="44.36193" lon="5.13574">
        <ele>276.1</ele>
        <time>2021-11-19T10:12:45Z</time>
      </trkpt>
      <trkpt lat="44.36196" lon="5.13565">
        <ele>276.1</ele>
        <time>2021-11-19T10:12:46Z</time>
      </trkpt>
      <trkpt lat="44.36199" lon="5.13552">
        <ele>276.5</ele>
        <time>2021-11-19T10:12:48Z</time>
      </trkpt>
      <trkpt lat="44.36199" lon="5.13541">
        <ele>276.8</ele>
        <time>2021-11-19T10:12:49Z</time>
      </trkpt>
      <trkpt lat="44.36199" lon="5.13533">
        <ele>277</ele>
        <time>2021-11-19T10:12:52Z</time>
      </trkpt>
      <trkpt lat="44.36201" lon="5.13521">
        <ele>277.4</ele>
        <time>2021-11-19T10:12:54Z</time>
      </trkpt>
      <trkpt lat="44.36202" lon="5.13505">
        <ele>277.9</ele>
        <time>2021-11-19T10:12:55Z</time>
      </trkpt>
      <trkpt lat="44.36204" lon="5.13494">
        <ele>278.3</ele>
        <time>2021-11-19T10:12:58Z</time>
      </trkpt>
      <trkpt lat="44.36206" lon="5.13485">
        <ele>278.6</ele>
        <time>2021-11-19T10:12:59Z</time>
      </trkpt>
      <trkpt lat="44.36208" lon="5.13473">
        <ele>279</ele>
        <time>2021-11-19T10:13:01Z</time>
      </trkpt>
      <trkpt lat="44.36206" lon="5.13478">
        <ele>279.2</ele>
        <time>2021-11-19T10:13:03Z</time>
      </trkpt>
      <trkpt lat="44.36208" lon="5.13472">
        <ele>279.4</ele>
        <time>2021-11-19T10:13:05Z</time>
      </trkpt>
      <trkpt lat="44.36213" lon="5.13457">
        <ele>279.9</ele>
        <time>2021-11-19T10:13:08Z</time>
      </trkpt>
      <trkpt lat="44.36214" lon="5.13452">
        <ele>280.1</ele>
        <time>2021-11-19T10:13:09Z</time>
      </trkpt>
      <trkpt lat="44.36216" lon="5.13435">
        <ele>280.6</ele>
        <time>2021-11-19T10:13:12Z</time>
      </trkpt>
      <trkpt lat="44.36217" lon="5.13429">
        <ele>280.7</ele>
        <time>2021-11-19T10:13:13Z</time>
      </trkpt>
      <trkpt lat="44.36217" lon="5.13418">
        <ele>280.9</ele>
        <time>2021-11-19T10:13:15Z</time>
      </trkpt>
      <trkpt lat="44.36217" lon="5.13412">
        <ele>281.1</ele>
        <time>2021-11-19T10:13:16Z</time>
      </trkpt>
      <trkpt lat="44.36217" lon="5.13401">
        <ele>281.4</ele>
        <time>2021-11-19T10:13:18Z</time>
      </trkpt>
      <trkpt lat="44.36218" lon="5.13392">
        <ele>281.7</ele>
        <time>2021-11-19T10:13:19Z</time>
      </trkpt>
      <trkpt lat="44.36219" lon="5.13386">
        <ele>281.9</ele>
        <time>2021-11-19T10:13:21Z</time>
      </trkpt>
      <trkpt lat="44.3622" lon="5.13381">
        <ele>282.1</ele>
        <time>2021-11-19T10:13:23Z</time>
      </trkpt>
      <trkpt lat="44.3622" lon="5.13373">
        <ele>282.3</ele>
        <time>2021-11-19T10:13:24Z</time>
      </trkpt>
      <trkpt lat="44.36221" lon="5.1337">
        <ele>282.4</ele>
        <time>2021-11-19T10:13:25Z</time>
      </trkpt>
      <trkpt lat="44.36221" lon="5.13355">
        <ele>282.8</ele>
        <time>2021-11-19T10:13:27Z</time>
      </trkpt>
      <trkpt lat="44.36223" lon="5.13341">
        <ele>283.1</ele>
        <time>2021-11-19T10:13:29Z</time>
      </trkpt>
      <trkpt lat="44.36223" lon="5.13333">
        <ele>283.3</ele>
        <time>2021-11-19T10:13:30Z</time>
      </trkpt>
      <trkpt lat="44.36223" lon="5.13328">
        <ele>283.4</ele>
        <time>2021-11-19T10:13:32Z</time>
      </trkpt>
      <trkpt lat="44.36224" lon="5.13322">
        <ele>283.5</ele>
        <time>2021-11-19T10:13:33Z</time>
      </trkpt>
      <trkpt lat="44.36226" lon="5.13308">
        <ele>283.6</ele>
        <time>2021-11-19T10:13:35Z</time>
      </trkpt>
      <trkpt lat="44.36228" lon="5.13299">
        <ele>283.6</ele>
        <time>2021-11-19T10:13:36Z</time>
      </trkpt>
      <trkpt lat="44.36228" lon="5.13283">
        <ele>283.5</ele>
        <time>2021-11-19T10:13:39Z</time>
      </trkpt>
      <trkpt lat="44.36229" lon="5.13274">
        <ele>283.5</ele>
        <time>2021-11-19T10:13:40Z</time>
      </trkpt>
      <trkpt lat="44.36231" lon="5.13259">
        <ele>283.5</ele>
        <time>2021-11-19T10:13:42Z</time>
      </trkpt>
      <trkpt lat="44.36232" lon="5.13247">
        <ele>283.4</ele>
        <time>2021-11-19T10:13:44Z</time>
      </trkpt>
      <trkpt lat="44.36233" lon="5.1324">
        <ele>283.4</ele>
        <time>2021-11-19T10:13:45Z</time>
      </trkpt>
      <trkpt lat="44.36236" lon="5.13229">
        <ele>283.3</ele>
        <time>2021-11-19T10:13:46Z</time>
      </trkpt>
      <trkpt lat="44.36234" lon="5.13234">
        <ele>283.3</ele>
        <time>2021-11-19T10:13:49Z</time>
      </trkpt>
      <trkpt lat="44.36234" lon="5.13228">
        <ele>283.2</ele>
        <time>2021-11-19T10:13:50Z</time>
      </trkpt>
      <trkpt lat="44.36234" lon="5.13221">
        <ele>283.2</ele>
        <time>2021-11-19T10:13:51Z</time>
      </trkpt>
      <trkpt lat="44.36234" lon="5.13215">
        <ele>283.1</ele>
        <time>2021-11-19T10:13:52Z</time>
      </trkpt>
      <trkpt lat="44.36235" lon="5.13208">
        <ele>283</ele>
        <time>2021-11-19T10:13:53Z</time>
      </trkpt>
      <trkpt lat="44.36235" lon="5.13201">
        <ele>283</ele>
        <time>2021-11-19T10:13:54Z</time>
      </trkpt>
      <trkpt lat="44.36236" lon="5.13194">
        <ele>283</ele>
        <time>2021-11-19T10:13:55Z</time>
      </trkpt>
      <trkpt lat="44.36237" lon="5.13186">
        <ele>282.9</ele>
        <time>2021-11-19T10:13:56Z</time>
      </trkpt>
      <trkpt lat="44.36237" lon="5.13177">
        <ele>282.9</ele>
        <time>2021-11-19T10:13:57Z</time>
      </trkpt>
      <trkpt lat="44.36237" lon="5.13169">
        <ele>282.9</ele>
        <time>2021-11-19T10:13:58Z</time>
      </trkpt>
      <trkpt lat="44.36238" lon="5.13159">
        <ele>282.9</ele>
        <time>2021-11-19T10:13:59Z</time>
      </trkpt>
      <trkpt lat="44.36238" lon="5.1315">
        <ele>282.9</ele>
        <time>2021-11-19T10:14:00Z</time>
      </trkpt>
      <trkpt lat="44.36239" lon="5.13142">
        <ele>282.9</ele>
        <time>2021-11-19T10:14:01Z</time>
      </trkpt>
      <trkpt lat="44.3624" lon="5.13134">
        <ele>282.9</ele>
        <time>2021-11-19T10:14:02Z</time>
      </trkpt>
      <trkpt lat="44.36241" lon="5.13126">
        <ele>283</ele>
        <time>2021-11-19T10:14:03Z</time>
      </trkpt>
      <trkpt lat="44.36242" lon="5.13118">
        <ele>283</ele>
        <time>2021-11-19T10:14:04Z</time>
      </trkpt>
      <trkpt lat="44.36242" lon="5.13111">
        <ele>283.1</ele>
        <time>2021-11-19T10:14:05Z</time>
      </trkpt>
      <trkpt lat="44.36243" lon="5.13103">
        <ele>283.2</ele>
        <time>2021-11-19T10:14:06Z</time>
      </trkpt>
      <trkpt lat="44.36242" lon="5.13095">
        <ele>283.3</ele>
        <time>2021-11-19T10:14:07Z</time>
      </trkpt>
      <trkpt lat="44.36242" lon="5.13087">
        <ele>283.4</ele>
        <time>2021-11-19T10:14:08Z</time>
      </trkpt>
      <trkpt lat="44.36242" lon="5.13079">
        <ele>283.5</ele>
        <time>2021-11-19T10:14:09Z</time>
      </trkpt>
      <trkpt lat="44.36242" lon="5.13071">
        <ele>283.7</ele>
        <time>2021-11-19T10:14:10Z</time>
      </trkpt>
      <trkpt lat="44.36242" lon="5.13064">
        <ele>283.9</ele>
        <time>2021-11-19T10:14:11Z</time>
      </trkpt>
      <trkpt lat="44.36242" lon="5.13056">
        <ele>284.1</ele>
        <time>2021-11-19T10:14:12Z</time>
      </trkpt>
      <trkpt lat="44.36241" lon="5.13048">
        <ele>284.2</ele>
        <time>2021-11-19T10:14:13Z</time>
      </trkpt>
      <trkpt lat="44.3624" lon="5.13041">
        <ele>284.4</ele>
        <time>2021-11-19T10:14:14Z</time>
      </trkpt>
      <trkpt lat="44.3624" lon="5.13035">
        <ele>284.6</ele>
        <time>2021-11-19T10:14:15Z</time>
      </trkpt>
      <trkpt lat="44.3624" lon="5.13028">
        <ele>284.7</ele>
        <time>2021-11-19T10:14:16Z</time>
      </trkpt>
      <trkpt lat="44.36241" lon="5.13024">
        <ele>284.8</ele>
        <time>2021-11-19T10:14:17Z</time>
      </trkpt>
      <trkpt lat="44.36241" lon="5.13018">
        <ele>285</ele>
        <time>2021-11-19T10:14:18Z</time>
      </trkpt>
      <trkpt lat="44.36241" lon="5.13012">
        <ele>285.1</ele>
        <time>2021-11-19T10:14:19Z</time>
      </trkpt>
      <trkpt lat="44.3624" lon="5.13005">
        <ele>285.3</ele>
        <time>2021-11-19T10:14:20Z</time>
      </trkpt>
      <trkpt lat="44.36238" lon="5.12998">
        <ele>285.5</ele>
        <time>2021-11-19T10:14:21Z</time>
      </trkpt>
      <trkpt lat="44.3623" lon="5.12985">
        <ele>285.9</ele>
        <time>2021-11-19T10:14:24Z</time>
      </trkpt>
      <trkpt lat="44.36238" lon="5.12977">
        <ele>286.2</ele>
        <time>2021-11-19T10:14:25Z</time>
      </trkpt>
      <trkpt lat="44.36234" lon="5.12971">
        <ele>286.3</ele>
        <time>2021-11-19T10:14:26Z</time>
      </trkpt>
      <trkpt lat="44.36237" lon="5.12965">
        <ele>286.5</ele>
        <time>2021-11-19T10:14:27Z</time>
      </trkpt>
      <trkpt lat="44.36245" lon="5.12952">
        <ele>286.9</ele>
        <time>2021-11-19T10:14:29Z</time>
      </trkpt>
      <trkpt lat="44.36248" lon="5.12943">
        <ele>287.1</ele>
        <time>2021-11-19T10:14:31Z</time>
      </trkpt>
      <trkpt lat="44.36249" lon="5.12934">
        <ele>287.2</ele>
        <time>2021-11-19T10:14:32Z</time>
      </trkpt>
      <trkpt lat="44.36249" lon="5.12923">
        <ele>287.5</ele>
        <time>2021-11-19T10:14:34Z</time>
      </trkpt>
      <trkpt lat="44.36249" lon="5.12911">
        <ele>287.8</ele>
        <time>2021-11-19T10:14:36Z</time>
      </trkpt>
      <trkpt lat="44.36249" lon="5.12905">
        <ele>288</ele>
        <time>2021-11-19T10:14:38Z</time>
      </trkpt>
      <trkpt lat="44.3625" lon="5.12907">
        <ele>288.1</ele>
        <time>2021-11-19T10:14:40Z</time>
      </trkpt>
      <trkpt lat="44.36251" lon="5.12905">
        <ele>288.2</ele>
        <time>2021-11-19T10:14:41Z</time>
      </trkpt>
      <trkpt lat="44.36251" lon="5.12898">
        <ele>288.4</ele>
        <time>2021-11-19T10:14:43Z</time>
      </trkpt>
      <trkpt lat="44.36253" lon="5.12892">
        <ele>288.5</ele>
        <time>2021-11-19T10:14:44Z</time>
      </trkpt>
      <trkpt lat="44.36252" lon="5.12871">
        <ele>289.2</ele>
        <time>2021-11-19T10:14:47Z</time>
      </trkpt>
      <trkpt lat="44.36252" lon="5.12864">
        <ele>289.4</ele>
        <time>2021-11-19T10:14:49Z</time>
      </trkpt>
      <trkpt lat="44.36252" lon="5.12859">
        <ele>289.5</ele>
        <time>2021-11-19T10:14:50Z</time>
      </trkpt>
      <trkpt lat="44.36252" lon="5.12853">
        <ele>289.7</ele>
        <time>2021-11-19T10:14:51Z</time>
      </trkpt>
      <trkpt lat="44.36252" lon="5.12838">
        <ele>290.2</ele>
        <time>2021-11-19T10:14:53Z</time>
      </trkpt>
      <trkpt lat="44.36252" lon="5.12823">
        <ele>290.8</ele>
        <time>2021-11-19T10:14:55Z</time>
      </trkpt>
      <trkpt lat="44.36251" lon="5.12816">
        <ele>291</ele>
        <time>2021-11-19T10:14:56Z</time>
      </trkpt>
      <trkpt lat="44.36251" lon="5.12819">
        <ele>291.1</ele>
        <time>2021-11-19T10:14:57Z</time>
      </trkpt>
      <trkpt lat="44.36251" lon="5.12816">
        <ele>291.2</ele>
        <time>2021-11-19T10:14:58Z</time>
      </trkpt>
      <trkpt lat="44.36253" lon="5.12807">
        <ele>291.5</ele>
        <time>2021-11-19T10:15:00Z</time>
      </trkpt>
      <trkpt lat="44.36258" lon="5.12801">
        <ele>291.8</ele>
        <time>2021-11-19T10:15:02Z</time>
      </trkpt>
      <trkpt lat="44.36266" lon="5.12797">
        <ele>292.1</ele>
        <time>2021-11-19T10:15:04Z</time>
      </trkpt>
      <trkpt lat="44.36274" lon="5.12786">
        <ele>292.6</ele>
        <time>2021-11-19T10:15:06Z</time>
      </trkpt>
      <trkpt lat="44.36279" lon="5.12781">
        <ele>292.9</ele>
        <time>2021-11-19T10:15:08Z</time>
      </trkpt>
      <trkpt lat="44.36283" lon="5.12777">
        <ele>293.1</ele>
        <time>2021-11-19T10:15:09Z</time>
      </trkpt>
      <trkpt lat="44.36288" lon="5.12771">
        <ele>293.4</ele>
        <time>2021-11-19T10:15:11Z</time>
      </trkpt>
      <trkpt lat="44.36296" lon="5.12767">
        <ele>293.7</ele>
        <time>2021-11-19T10:15:13Z</time>
      </trkpt>
      <trkpt lat="44.36303" lon="5.12765">
        <ele>294</ele>
        <time>2021-11-19T10:15:14Z</time>
      </trkpt>
      <trkpt lat="44.36306" lon="5.12762">
        <ele>294.2</ele>
        <time>2021-11-19T10:15:17Z</time>
      </trkpt>
      <trkpt lat="44.36309" lon="5.12761">
        <ele>294.3</ele>
        <time>2021-11-19T10:15:18Z</time>
      </trkpt>
      <trkpt lat="44.36316" lon="5.12758">
        <ele>294.6</ele>
        <time>2021-11-19T10:15:19Z</time>
      </trkpt>
      <trkpt lat="44.36327" lon="5.12754">
        <ele>295.1</ele>
        <time>2021-11-19T10:15:21Z</time>
      </trkpt>
      <trkpt lat="44.36335" lon="5.12748">
        <ele>295.4</ele>
        <time>2021-11-19T10:15:22Z</time>
      </trkpt>
      <trkpt lat="44.36339" lon="5.12748">
        <ele>295.6</ele>
        <time>2021-11-19T10:15:24Z</time>
      </trkpt>
      <trkpt lat="44.36343" lon="5.12748">
        <ele>295.7</ele>
        <time>2021-11-19T10:15:25Z</time>
      </trkpt>
      <trkpt lat="44.36349" lon="5.12746">
        <ele>295.9</ele>
        <time>2021-11-19T10:15:27Z</time>
      </trkpt>
      <trkpt lat="44.36352" lon="5.12745">
        <ele>296</ele>
        <time>2021-11-19T10:15:28Z</time>
      </trkpt>
      <trkpt lat="44.36355" lon="5.12744">
        <ele>296.1</ele>
        <time>2021-11-19T10:15:29Z</time>
      </trkpt>
      <trkpt lat="44.36356" lon="5.12747">
        <ele>296.1</ele>
        <time>2021-11-19T10:15:31Z</time>
      </trkpt>
      <trkpt lat="44.36357" lon="5.12748">
        <ele>296.2</ele>
        <time>2021-11-19T10:15:32Z</time>
      </trkpt>
      <trkpt lat="44.36358" lon="5.12741">
        <ele>296.3</ele>
        <time>2021-11-19T10:15:34Z</time>
      </trkpt>
      <trkpt lat="44.36364" lon="5.12738">
        <ele>296.4</ele>
        <time>2021-11-19T10:15:35Z</time>
      </trkpt>
      <trkpt lat="44.36371" lon="5.12734">
        <ele>296.5</ele>
        <time>2021-11-19T10:15:37Z</time>
      </trkpt>
      <trkpt lat="44.36375" lon="5.12728">
        <ele>296.6</ele>
        <time>2021-11-19T10:15:39Z</time>
      </trkpt>
      <trkpt lat="44.36379" lon="5.12724">
        <ele>296.7</ele>
        <time>2021-11-19T10:15:40Z</time>
      </trkpt>
      <trkpt lat="44.36383" lon="5.12722">
        <ele>296.8</ele>
        <time>2021-11-19T10:15:42Z</time>
      </trkpt>
      <trkpt lat="44.36394" lon="5.12715">
        <ele>297</ele>
        <time>2021-11-19T10:15:44Z</time>
      </trkpt>
      <trkpt lat="44.36398" lon="5.12714">
        <ele>297</ele>
        <time>2021-11-19T10:15:45Z</time>
      </trkpt>
      <trkpt lat="44.364" lon="5.12714">
        <ele>297.1</ele>
        <time>2021-11-19T10:15:46Z</time>
      </trkpt>
      <trkpt lat="44.36395" lon="5.12714">
        <ele>297.1</ele>
        <time>2021-11-19T10:15:48Z</time>
      </trkpt>
      <trkpt lat="44.36396" lon="5.1271">
        <ele>297.2</ele>
        <time>2021-11-19T10:15:49Z</time>
      </trkpt>
      <trkpt lat="44.36399" lon="5.12707">
        <ele>297.2</ele>
        <time>2021-11-19T10:15:50Z</time>
      </trkpt>
      <trkpt lat="44.36405" lon="5.12701">
        <ele>297.4</ele>
        <time>2021-11-19T10:15:52Z</time>
      </trkpt>
      <trkpt lat="44.36412" lon="5.12694">
        <ele>297.5</ele>
        <time>2021-11-19T10:15:54Z</time>
      </trkpt>
      <trkpt lat="44.36418" lon="5.12687">
        <ele>297.6</ele>
        <time>2021-11-19T10:15:56Z</time>
      </trkpt>
      <trkpt lat="44.36421" lon="5.12683">
        <ele>297.7</ele>
        <time>2021-11-19T10:15:57Z</time>
      </trkpt>
      <trkpt lat="44.36429" lon="5.12671">
        <ele>297.8</ele>
        <time>2021-11-19T10:15:59Z</time>
      </trkpt>
      <trkpt lat="44.36435" lon="5.12661">
        <ele>297.9</ele>
        <time>2021-11-19T10:16:01Z</time>
      </trkpt>
      <trkpt lat="44.36446" lon="5.12648">
        <ele>298.1</ele>
        <time>2021-11-19T10:16:04Z</time>
      </trkpt>
      <trkpt lat="44.36455" lon="5.12638">
        <ele>298.5</ele>
        <time>2021-11-19T10:16:06Z</time>
      </trkpt>
      <trkpt lat="44.3646" lon="5.12633">
        <ele>298.7</ele>
        <time>2021-11-19T10:16:07Z</time>
      </trkpt>
      <trkpt lat="44.36466" lon="5.12625">
        <ele>299</ele>
        <time>2021-11-19T10:16:09Z</time>
      </trkpt>
      <trkpt lat="44.36471" lon="5.12618">
        <ele>299.3</ele>
        <time>2021-11-19T10:16:11Z</time>
      </trkpt>
      <trkpt lat="44.36476" lon="5.12609">
        <ele>299.6</ele>
        <time>2021-11-19T10:16:13Z</time>
      </trkpt>
      <trkpt lat="44.36482" lon="5.12601">
        <ele>299.6</ele>
        <time>2021-11-19T10:16:16Z</time>
      </trkpt>
      <trkpt lat="44.36485" lon="5.12597">
        <ele>299.9</ele>
        <time>2021-11-19T10:16:17Z</time>
      </trkpt>
      <trkpt lat="44.36488" lon="5.12592">
        <ele>300.2</ele>
        <time>2021-11-19T10:16:18Z</time>
      </trkpt>
      <trkpt lat="44.36494" lon="5.12584">
        <ele>300.8</ele>
        <time>2021-11-19T10:16:19Z</time>
      </trkpt>
      <trkpt lat="44.36497" lon="5.12579">
        <ele>301.2</ele>
        <time>2021-11-19T10:16:21Z</time>
      </trkpt>
      <trkpt lat="44.36503" lon="5.12568">
        <ele>301.9</ele>
        <time>2021-11-19T10:16:23Z</time>
      </trkpt>
      <trkpt lat="44.36507" lon="5.12561">
        <ele>302</ele>
        <time>2021-11-19T10:16:26Z</time>
      </trkpt>
      <trkpt lat="44.36511" lon="5.12553">
        <ele>302.1</ele>
        <time>2021-11-19T10:16:28Z</time>
      </trkpt>
      <trkpt lat="44.36514" lon="5.12547">
        <ele>302.2</ele>
        <time>2021-11-19T10:16:29Z</time>
      </trkpt>
      <trkpt lat="44.36518" lon="5.12542">
        <ele>302.2</ele>
        <time>2021-11-19T10:16:31Z</time>
      </trkpt>
      <trkpt lat="44.36521" lon="5.12538">
        <ele>302.3</ele>
        <time>2021-11-19T10:16:32Z</time>
      </trkpt>
      <trkpt lat="44.36525" lon="5.12532">
        <ele>302.5</ele>
        <time>2021-11-19T10:16:34Z</time>
      </trkpt>
      <trkpt lat="44.36527" lon="5.12529">
        <ele>302.7</ele>
        <time>2021-11-19T10:16:35Z</time>
      </trkpt>
      <trkpt lat="44.36534" lon="5.12521">
        <ele>303.2</ele>
        <time>2021-11-19T10:16:37Z</time>
      </trkpt>
      <trkpt lat="44.36539" lon="5.12515">
        <ele>303.5</ele>
        <time>2021-11-19T10:16:39Z</time>
      </trkpt>
      <trkpt lat="44.36542" lon="5.12512">
        <ele>303.7</ele>
        <time>2021-11-19T10:16:40Z</time>
      </trkpt>
      <trkpt lat="44.36549" lon="5.12504">
        <ele>304.2</ele>
        <time>2021-11-19T10:16:41Z</time>
      </trkpt>
      <trkpt lat="44.36552" lon="5.125">
        <ele>304.4</ele>
        <time>2021-11-19T10:16:43Z</time>
      </trkpt>
      <trkpt lat="44.36558" lon="5.12492">
        <ele>304.9</ele>
        <time>2021-11-19T10:16:45Z</time>
      </trkpt>
      <trkpt lat="44.36565" lon="5.12483">
        <ele>305.3</ele>
        <time>2021-11-19T10:16:47Z</time>
      </trkpt>
      <trkpt lat="44.36571" lon="5.12475">
        <ele>305.8</ele>
        <time>2021-11-19T10:16:49Z</time>
      </trkpt>
      <trkpt lat="44.36575" lon="5.12469">
        <ele>306.1</ele>
        <time>2021-11-19T10:16:50Z</time>
      </trkpt>
      <trkpt lat="44.36581" lon="5.12462">
        <ele>306.5</ele>
        <time>2021-11-19T10:16:51Z</time>
      </trkpt>
      <trkpt lat="44.36583" lon="5.1246">
        <ele>306.6</ele>
        <time>2021-11-19T10:16:53Z</time>
      </trkpt>
      <trkpt lat="44.36586" lon="5.12456">
        <ele>306.8</ele>
        <time>2021-11-19T10:16:54Z</time>
      </trkpt>
      <trkpt lat="44.36593" lon="5.12449">
        <ele>307.3</ele>
        <time>2021-11-19T10:16:55Z</time>
      </trkpt>
      <trkpt lat="44.36597" lon="5.12446">
        <ele>307.5</ele>
        <time>2021-11-19T10:16:57Z</time>
      </trkpt>
      <trkpt lat="44.366" lon="5.12443">
        <ele>307.6</ele>
        <time>2021-11-19T10:16:58Z</time>
      </trkpt>
      <trkpt lat="44.36605" lon="5.12436">
        <ele>308</ele>
        <time>2021-11-19T10:17:00Z</time>
      </trkpt>
      <trkpt lat="44.36608" lon="5.12432">
        <ele>308.2</ele>
        <time>2021-11-19T10:17:02Z</time>
      </trkpt>
      <trkpt lat="44.36611" lon="5.12427">
        <ele>308.5</ele>
        <time>2021-11-19T10:17:04Z</time>
      </trkpt>
      <trkpt lat="44.36613" lon="5.12423">
        <ele>308.7</ele>
        <time>2021-11-19T10:17:05Z</time>
      </trkpt>
      <trkpt lat="44.36617" lon="5.12416">
        <ele>309</ele>
        <time>2021-11-19T10:17:07Z</time>
      </trkpt>
      <trkpt lat="44.36618" lon="5.12412">
        <ele>309.2</ele>
        <time>2021-11-19T10:17:08Z</time>
      </trkpt>
      <trkpt lat="44.36622" lon="5.12405">
        <ele>309.6</ele>
        <time>2021-11-19T10:17:11Z</time>
      </trkpt>
      <trkpt lat="44.36625" lon="5.12401">
        <ele>309.8</ele>
        <time>2021-11-19T10:17:12Z</time>
      </trkpt>
      <trkpt lat="44.36629" lon="5.12395">
        <ele>310.1</ele>
        <time>2021-11-19T10:17:13Z</time>
      </trkpt>
      <trkpt lat="44.36633" lon="5.12388">
        <ele>310.5</ele>
        <time>2021-11-19T10:17:14Z</time>
      </trkpt>
      <trkpt lat="44.36635" lon="5.12385">
        <ele>310.6</ele>
        <time>2021-11-19T10:17:16Z</time>
      </trkpt>
      <trkpt lat="44.36639" lon="5.12378">
        <ele>311</ele>
        <time>2021-11-19T10:17:18Z</time>
      </trkpt>
      <trkpt lat="44.36644" lon="5.1237">
        <ele>311.4</ele>
        <time>2021-11-19T10:17:20Z</time>
      </trkpt>
      <trkpt lat="44.36646" lon="5.12366">
        <ele>311.5</ele>
        <time>2021-11-19T10:17:21Z</time>
      </trkpt>
      <trkpt lat="44.3665" lon="5.12361">
        <ele>311.8</ele>
        <time>2021-11-19T10:17:23Z</time>
      </trkpt>
      <trkpt lat="44.36653" lon="5.12356">
        <ele>312.1</ele>
        <time>2021-11-19T10:17:24Z</time>
      </trkpt>
      <trkpt lat="44.36654" lon="5.12353">
        <ele>312.2</ele>
        <time>2021-11-19T10:17:25Z</time>
      </trkpt>
      <trkpt lat="44.36658" lon="5.12345">
        <ele>312.5</ele>
        <time>2021-11-19T10:17:27Z</time>
      </trkpt>
      <trkpt lat="44.36662" lon="5.12336">
        <ele>312.9</ele>
        <time>2021-11-19T10:17:29Z</time>
      </trkpt>
      <trkpt lat="44.36665" lon="5.12328">
        <ele>313.2</ele>
        <time>2021-11-19T10:17:31Z</time>
      </trkpt>
      <trkpt lat="44.36666" lon="5.12321">
        <ele>313.5</ele>
        <time>2021-11-19T10:17:32Z</time>
      </trkpt>
      <trkpt lat="44.36667" lon="5.12315">
        <ele>313.7</ele>
        <time>2021-11-19T10:17:34Z</time>
      </trkpt>
      <trkpt lat="44.3667" lon="5.1231">
        <ele>314</ele>
        <time>2021-11-19T10:17:36Z</time>
      </trkpt>
      <trkpt lat="44.36675" lon="5.12302">
        <ele>314.2</ele>
        <time>2021-11-19T10:17:38Z</time>
      </trkpt>
      <trkpt lat="44.36677" lon="5.12298">
        <ele>314.2</ele>
        <time>2021-11-19T10:17:39Z</time>
      </trkpt>
      <trkpt lat="44.36679" lon="5.12289">
        <ele>314.3</ele>
        <time>2021-11-19T10:17:41Z</time>
      </trkpt>
      <trkpt lat="44.36681" lon="5.12284">
        <ele>314.3</ele>
        <time>2021-11-19T10:17:42Z</time>
      </trkpt>
      <trkpt lat="44.36684" lon="5.12277">
        <ele>314.3</ele>
        <time>2021-11-19T10:17:44Z</time>
      </trkpt>
      <trkpt lat="44.36687" lon="5.12274">
        <ele>314.4</ele>
        <time>2021-11-19T10:17:45Z</time>
      </trkpt>
      <trkpt lat="44.36689" lon="5.12276">
        <ele>314.5</ele>
        <time>2021-11-19T10:17:46Z</time>
      </trkpt>
      <trkpt lat="44.36687" lon="5.12282">
        <ele>314.6</ele>
        <time>2021-11-19T10:17:48Z</time>
      </trkpt>
      <trkpt lat="44.3668" lon="5.12299">
        <ele>314.9</ele>
        <time>2021-11-19T10:17:51Z</time>
      </trkpt>
      <trkpt lat="44.36679" lon="5.12303">
        <ele>315</ele>
        <time>2021-11-19T10:17:52Z</time>
      </trkpt>
      <trkpt lat="44.36679" lon="5.12304">
        <ele>315</ele>
        <time>2021-11-19T10:17:53Z</time>
      </trkpt>
      <trkpt lat="44.36679" lon="5.12305">
        <ele>315.1</ele>
        <time>2021-11-19T10:17:54Z</time>
      </trkpt>
      <trkpt lat="44.36681" lon="5.12305">
        <ele>315.1</ele>
        <time>2021-11-19T10:17:57Z</time>
      </trkpt>
      <trkpt lat="44.36682" lon="5.12305">
        <ele>315.1</ele>
        <time>2021-11-19T10:18:26Z</time>
      </trkpt>
      <trkpt lat="44.36683" lon="5.12305">
        <ele>315.1</ele>
        <time>2021-11-19T10:18:27Z</time>
      </trkpt>
      <trkpt lat="44.36684" lon="5.12304">
        <ele>315.2</ele>
        <time>2021-11-19T10:18:28Z</time>
      </trkpt>
      <trkpt lat="44.36686" lon="5.12306">
        <ele>315.2</ele>
        <time>2021-11-19T10:18:29Z</time>
      </trkpt>
      <trkpt lat="44.36689" lon="5.12307">
        <ele>315.3</ele>
        <time>2021-11-19T10:18:31Z</time>
      </trkpt>
      <trkpt lat="44.3669" lon="5.12308">
        <ele>315.3</ele>
        <time>2021-11-19T10:18:32Z</time>
      </trkpt>
      <trkpt lat="44.36691" lon="5.12309">
        <ele>315.3</ele>
        <time>2021-11-19T10:18:33Z</time>
      </trkpt>
      <trkpt lat="44.36693" lon="5.12311">
        <ele>315.4</ele>
        <time>2021-11-19T10:18:34Z</time>
      </trkpt>
      <trkpt lat="44.36695" lon="5.12311">
        <ele>315.4</ele>
        <time>2021-11-19T10:18:35Z</time>
      </trkpt>
      <trkpt lat="44.36696" lon="5.12312">
        <ele>315.4</ele>
        <time>2021-11-19T10:18:36Z</time>
      </trkpt>
      <trkpt lat="44.36699" lon="5.12313">
        <ele>315.5</ele>
        <time>2021-11-19T10:18:38Z</time>
      </trkpt>
      <trkpt lat="44.367" lon="5.12314">
        <ele>315.6</ele>
        <time>2021-11-19T10:18:39Z</time>
      </trkpt>
      <trkpt lat="44.36704" lon="5.12314">
        <ele>315.8</ele>
        <time>2021-11-19T10:18:41Z</time>
      </trkpt>
      <trkpt lat="44.36705" lon="5.12314">
        <ele>315.8</ele>
        <time>2021-11-19T10:18:42Z</time>
      </trkpt>
      <trkpt lat="44.36707" lon="5.12314">
        <ele>315.9</ele>
        <time>2021-11-19T10:18:43Z</time>
      </trkpt>
      <trkpt lat="44.36708" lon="5.12314">
        <ele>316</ele>
        <time>2021-11-19T10:18:44Z</time>
      </trkpt>
      <trkpt lat="44.36707" lon="5.12315">
        <ele>316.1</ele>
        <time>2021-11-19T10:18:47Z</time>
      </trkpt>
      <trkpt lat="44.36706" lon="5.12315">
        <ele>316.1</ele>
        <time>2021-11-19T10:18:48Z</time>
      </trkpt>
      <trkpt lat="44.36706" lon="5.12314">
        <ele>316.1</ele>
        <time>2021-11-19T10:18:49Z</time>
      </trkpt>
      <trkpt lat="44.36706" lon="5.12314">
        <ele>316.1</ele>
        <time>2021-11-19T10:18:50Z</time>
      </trkpt>
      <trkpt lat="44.36706" lon="5.12314">
        <ele>316.1</ele>
        <time>2021-11-19T10:18:51Z</time>
      </trkpt>
      <trkpt lat="44.36706" lon="5.12314">
        <ele>316.1</ele>
        <time>2021-11-19T10:18:52Z</time>
      </trkpt>
      <trkpt lat="44.36706" lon="5.12314">
        <ele>316.1</ele>
        <time>2021-11-19T10:18:53Z</time>
      </trkpt>
      <trkpt lat="44.36706" lon="5.12314">
        <ele>316.1</ele>
        <time>2021-11-19T10:18:54Z</time>
      </trkpt>
      <trkpt lat="44.36706" lon="5.12314">
        <ele>316.1</ele>
        <time>2021-11-19T10:18:55Z</time>
      </trkpt>
      <trkpt lat="44.36707" lon="5.12314">
        <ele>316.1</ele>
        <time>2021-11-19T10:18:56Z</time>
      </trkpt>
      <trkpt lat="44.36706" lon="5.12314">
        <ele>316.2</ele>
        <time>2021-11-19T10:18:58Z</time>
      </trkpt>
      <trkpt lat="44.36706" lon="5.12313">
        <ele>316.2</ele>
        <time>2021-11-19T10:19:01Z</time>
      </trkpt>
      <trkpt lat="44.36707" lon="5.12313">
        <ele>316.2</ele>
        <time>2021-11-19T10:19:02Z</time>
      </trkpt>
      <trkpt lat="44.36707" lon="5.12313">
        <ele>316.2</ele>
        <time>2021-11-19T10:19:05Z</time>
      </trkpt>
      <trkpt lat="44.36707" lon="5.12313">
        <ele>316.2</ele>
        <time>2021-11-19T10:19:06Z</time>
      </trkpt>
      <trkpt lat="44.3671" lon="5.12311">
        <ele>316.4</ele>
        <time>2021-11-19T10:20:43Z</time>
      </trkpt>
      <trkpt lat="44.36711" lon="5.1231">
        <ele>316.5</ele>
        <time>2021-11-19T10:20:45Z</time>
      </trkpt>
      <trkpt lat="44.36711" lon="5.1231">
        <ele>316.5</ele>
        <time>2021-11-19T10:20:46Z</time>
      </trkpt>
      <trkpt lat="44.36713" lon="5.12309">
        <ele>316.6</ele>
        <time>2021-11-19T10:20:48Z</time>
      </trkpt>
      <trkpt lat="44.36714" lon="5.12308">
        <ele>316.6</ele>
        <time>2021-11-19T10:20:49Z</time>
      </trkpt>
      <trkpt lat="44.36721" lon="5.12303">
        <ele>317.1</ele>
        <time>2021-11-19T10:20:51Z</time>
      </trkpt>
      <trkpt lat="44.36724" lon="5.12301">
        <ele>317.3</ele>
        <time>2021-11-19T10:20:52Z</time>
      </trkpt>
      <trkpt lat="44.36728" lon="5.12298">
        <ele>317.5</ele>
        <time>2021-11-19T10:20:53Z</time>
      </trkpt>
      <trkpt lat="44.36735" lon="5.12293">
        <ele>317.9</ele>
        <time>2021-11-19T10:20:55Z</time>
      </trkpt>
      <trkpt lat="44.3674" lon="5.12289">
        <ele>318.2</ele>
        <time>2021-11-19T10:20:57Z</time>
      </trkpt>
      <trkpt lat="44.36744" lon="5.12287">
        <ele>318.5</ele>
        <time>2021-11-19T10:20:58Z</time>
      </trkpt>
      <trkpt lat="44.36747" lon="5.12286">
        <ele>318.6</ele>
        <time>2021-11-19T10:20:59Z</time>
      </trkpt>
      <trkpt lat="44.36754" lon="5.12281">
        <ele>319</ele>
        <time>2021-11-19T10:21:02Z</time>
      </trkpt>
      <trkpt lat="44.36761" lon="5.12277">
        <ele>319.4</ele>
        <time>2021-11-19T10:21:05Z</time>
      </trkpt>
      <trkpt lat="44.36764" lon="5.12276">
        <ele>319.6</ele>
        <time>2021-11-19T10:21:06Z</time>
      </trkpt>
      <trkpt lat="44.36769" lon="5.12275">
        <ele>319.9</ele>
        <time>2021-11-19T10:21:08Z</time>
      </trkpt>
      <trkpt lat="44.36766" lon="5.12277">
        <ele>320</ele>
        <time>2021-11-19T10:21:09Z</time>
      </trkpt>
      <trkpt lat="44.3677" lon="5.12279">
        <ele>320.2</ele>
        <time>2021-11-19T10:21:11Z</time>
      </trkpt>
      <trkpt lat="44.36771" lon="5.1228">
        <ele>320.3</ele>
        <time>2021-11-19T10:21:12Z</time>
      </trkpt>
      <trkpt lat="44.36777" lon="5.1228">
        <ele>320.5</ele>
        <time>2021-11-19T10:21:14Z</time>
      </trkpt>
      <trkpt lat="44.3678" lon="5.1228">
        <ele>320.7</ele>
        <time>2021-11-19T10:21:16Z</time>
      </trkpt>
      <trkpt lat="44.36784" lon="5.12278">
        <ele>320.9</ele>
        <time>2021-11-19T10:21:17Z</time>
      </trkpt>
      <trkpt lat="44.36786" lon="5.12276">
        <ele>321</ele>
        <time>2021-11-19T10:21:18Z</time>
      </trkpt>
      <trkpt lat="44.36789" lon="5.12275">
        <ele>321.1</ele>
        <time>2021-11-19T10:21:20Z</time>
      </trkpt>
      <trkpt lat="44.36793" lon="5.12272">
        <ele>321.3</ele>
        <time>2021-11-19T10:21:22Z</time>
      </trkpt>
      <trkpt lat="44.36796" lon="5.1227">
        <ele>321.5</ele>
        <time>2021-11-19T10:21:23Z</time>
      </trkpt>
      <trkpt lat="44.36801" lon="5.12267">
        <ele>321.7</ele>
        <time>2021-11-19T10:21:25Z</time>
      </trkpt>
      <trkpt lat="44.36804" lon="5.12266">
        <ele>321.8</ele>
        <time>2021-11-19T10:21:26Z</time>
      </trkpt>
      <trkpt lat="44.36809" lon="5.12263">
        <ele>322.1</ele>
        <time>2021-11-19T10:21:28Z</time>
      </trkpt>
      <trkpt lat="44.36815" lon="5.1226">
        <ele>322.3</ele>
        <time>2021-11-19T10:21:29Z</time>
      </trkpt>
      <trkpt lat="44.36819" lon="5.12258">
        <ele>322.5</ele>
        <time>2021-11-19T10:21:31Z</time>
      </trkpt>
      <trkpt lat="44.36825" lon="5.12258">
        <ele>322.8</ele>
        <time>2021-11-19T10:21:33Z</time>
      </trkpt>
      <trkpt lat="44.3683" lon="5.12257">
        <ele>323</ele>
        <time>2021-11-19T10:21:34Z</time>
      </trkpt>
      <trkpt lat="44.36837" lon="5.12252">
        <ele>323.4</ele>
        <time>2021-11-19T10:21:35Z</time>
      </trkpt>
      <trkpt lat="44.36842" lon="5.12248">
        <ele>323.7</ele>
        <time>2021-11-19T10:21:37Z</time>
      </trkpt>
      <trkpt lat="44.36846" lon="5.12247">
        <ele>323.9</ele>
        <time>2021-11-19T10:21:38Z</time>
      </trkpt>
      <trkpt lat="44.36851" lon="5.12245">
        <ele>324.1</ele>
        <time>2021-11-19T10:21:40Z</time>
      </trkpt>
      <trkpt lat="44.36854" lon="5.12244">
        <ele>324.3</ele>
        <time>2021-11-19T10:21:41Z</time>
      </trkpt>
      <trkpt lat="44.36862" lon="5.12244">
        <ele>324.7</ele>
        <time>2021-11-19T10:21:43Z</time>
      </trkpt>
      <trkpt lat="44.36866" lon="5.12246">
        <ele>324.9</ele>
        <time>2021-11-19T10:21:44Z</time>
      </trkpt>
      <trkpt lat="44.36873" lon="5.12248">
        <ele>325.4</ele>
        <time>2021-11-19T10:21:45Z</time>
      </trkpt>
      <trkpt lat="44.36877" lon="5.1225">
        <ele>325.7</ele>
        <time>2021-11-19T10:21:48Z</time>
      </trkpt>
      <trkpt lat="44.36879" lon="5.1225">
        <ele>325.8</ele>
        <time>2021-11-19T10:21:49Z</time>
      </trkpt>
      <trkpt lat="44.3688" lon="5.1225">
        <ele>325.9</ele>
        <time>2021-11-19T10:21:50Z</time>
      </trkpt>
      <trkpt lat="44.36883" lon="5.1225">
        <ele>326.1</ele>
        <time>2021-11-19T10:21:51Z</time>
      </trkpt>
      <trkpt lat="44.36887" lon="5.1225">
        <ele>326.3</ele>
        <time>2021-11-19T10:21:52Z</time>
      </trkpt>
      <trkpt lat="44.36894" lon="5.1225">
        <ele>326.8</ele>
        <time>2021-11-19T10:21:54Z</time>
      </trkpt>
      <trkpt lat="44.36904" lon="5.12247">
        <ele>327.6</ele>
        <time>2021-11-19T10:21:56Z</time>
      </trkpt>
      <trkpt lat="44.36912" lon="5.12245">
        <ele>328.3</ele>
        <time>2021-11-19T10:21:58Z</time>
      </trkpt>
      <trkpt lat="44.36915" lon="5.12243">
        <ele>328.6</ele>
        <time>2021-11-19T10:21:59Z</time>
      </trkpt>
      <trkpt lat="44.36921" lon="5.12243">
        <ele>329.1</ele>
        <time>2021-11-19T10:22:01Z</time>
      </trkpt>
      <trkpt lat="44.36925" lon="5.12243">
        <ele>329.5</ele>
        <time>2021-11-19T10:22:02Z</time>
      </trkpt>
      <trkpt lat="44.36929" lon="5.12242">
        <ele>329.8</ele>
        <time>2021-11-19T10:22:04Z</time>
      </trkpt>
      <trkpt lat="44.36934" lon="5.12242">
        <ele>330.2</ele>
        <time>2021-11-19T10:22:05Z</time>
      </trkpt>
      <trkpt lat="44.36936" lon="5.12242">
        <ele>330.5</ele>
        <time>2021-11-19T10:22:06Z</time>
      </trkpt>
      <trkpt lat="44.3694" lon="5.12241">
        <ele>330.8</ele>
        <time>2021-11-19T10:22:08Z</time>
      </trkpt>
      <trkpt lat="44.36943" lon="5.12239">
        <ele>331.1</ele>
        <time>2021-11-19T10:22:09Z</time>
      </trkpt>
      <trkpt lat="44.36944" lon="5.12238">
        <ele>331.3</ele>
        <time>2021-11-19T10:22:11Z</time>
      </trkpt>
      <trkpt lat="44.3694" lon="5.12237">
        <ele>331.7</ele>
        <time>2021-11-19T10:22:14Z</time>
      </trkpt>
      <trkpt lat="44.36944" lon="5.12236">
        <ele>332</ele>
        <time>2021-11-19T10:22:16Z</time>
      </trkpt>
      <trkpt lat="44.36949" lon="5.12234">
        <ele>332.5</ele>
        <time>2021-11-19T10:22:17Z</time>
      </trkpt>
      <trkpt lat="44.36952" lon="5.12233">
        <ele>332.7</ele>
        <time>2021-11-19T10:22:18Z</time>
      </trkpt>
      <trkpt lat="44.36957" lon="5.12231">
        <ele>333</ele>
        <time>2021-11-19T10:22:20Z</time>
      </trkpt>
      <trkpt lat="44.3696" lon="5.1223">
        <ele>333.2</ele>
        <time>2021-11-19T10:22:21Z</time>
      </trkpt>
      <trkpt lat="44.36961" lon="5.1223">
        <ele>333.3</ele>
        <time>2021-11-19T10:22:23Z</time>
      </trkpt>
      <trkpt lat="44.36963" lon="5.12231">
        <ele>333.4</ele>
        <time>2021-11-19T10:22:24Z</time>
      </trkpt>
      <trkpt lat="44.36964" lon="5.12231">
        <ele>333.5</ele>
        <time>2021-11-19T10:22:25Z</time>
      </trkpt>
      <trkpt lat="44.36968" lon="5.12231">
        <ele>333.7</ele>
        <time>2021-11-19T10:22:26Z</time>
      </trkpt>
      <trkpt lat="44.3697" lon="5.12231">
        <ele>333.7</ele>
        <time>2021-11-19T10:22:27Z</time>
      </trkpt>
      <trkpt lat="44.36972" lon="5.12232">
        <ele>333.8</ele>
        <time>2021-11-19T10:22:29Z</time>
      </trkpt>
      <trkpt lat="44.36977" lon="5.12234">
        <ele>333.9</ele>
        <time>2021-11-19T10:22:31Z</time>
      </trkpt>
      <trkpt lat="44.3698" lon="5.12234">
        <ele>333.9</ele>
        <time>2021-11-19T10:22:32Z</time>
      </trkpt>
      <trkpt lat="44.36987" lon="5.12237">
        <ele>333.9</ele>
        <time>2021-11-19T10:22:34Z</time>
      </trkpt>
      <trkpt lat="44.36993" lon="5.12244">
        <ele>333.7</ele>
        <time>2021-11-19T10:22:35Z</time>
      </trkpt>
      <trkpt lat="44.37002" lon="5.12254">
        <ele>333.3</ele>
        <time>2021-11-19T10:22:38Z</time>
      </trkpt>
      <trkpt lat="44.37003" lon="5.12257">
        <ele>334.1</ele>
        <time>2021-11-19T10:22:40Z</time>
      </trkpt>
      <trkpt lat="44.36999" lon="5.12255">
        <ele>334.2</ele>
        <time>2021-11-19T10:22:41Z</time>
      </trkpt>
      <trkpt lat="44.36996" lon="5.12254">
        <ele>333.9</ele>
        <time>2021-11-19T10:22:42Z</time>
      </trkpt>
      <trkpt lat="44.36998" lon="5.12252">
        <ele>334.5</ele>
        <time>2021-11-19T10:22:44Z</time>
      </trkpt>
      <trkpt lat="44.37" lon="5.12247">
        <ele>334.5</ele>
        <time>2021-11-19T10:22:46Z</time>
      </trkpt>
      <trkpt lat="44.37004" lon="5.12236">
        <ele>334.6</ele>
        <time>2021-11-19T10:22:49Z</time>
      </trkpt>
      <trkpt lat="44.37008" lon="5.12224">
        <ele>334.4</ele>
        <time>2021-11-19T10:22:52Z</time>
      </trkpt>
      <trkpt lat="44.37009" lon="5.1222">
        <ele>334.5</ele>
        <time>2021-11-19T10:22:53Z</time>
      </trkpt>
      <trkpt lat="44.37012" lon="5.12216">
        <ele>334.8</ele>
        <time>2021-11-19T10:22:54Z</time>
      </trkpt>
      <trkpt lat="44.37013" lon="5.12214">
        <ele>335.2</ele>
        <time>2021-11-19T10:22:55Z</time>
      </trkpt>
      <trkpt lat="44.37021" lon="5.12211">
        <ele>335.8</ele>
        <time>2021-11-19T10:22:58Z</time>
      </trkpt>
      <trkpt lat="44.37025" lon="5.1221">
        <ele>336</ele>
        <time>2021-11-19T10:22:59Z</time>
      </trkpt>
      <trkpt lat="44.37026" lon="5.1221">
        <ele>336.1</ele>
        <time>2021-11-19T10:23:00Z</time>
      </trkpt>
      <trkpt lat="44.37029" lon="5.12208">
        <ele>336.3</ele>
        <time>2021-11-19T10:23:01Z</time>
      </trkpt>
      <trkpt lat="44.3703" lon="5.12207">
        <ele>336.3</ele>
        <time>2021-11-19T10:23:02Z</time>
      </trkpt>
      <trkpt lat="44.37033" lon="5.12205">
        <ele>336.5</ele>
        <time>2021-11-19T10:23:03Z</time>
      </trkpt>
      <trkpt lat="44.37036" lon="5.12204">
        <ele>336.7</ele>
        <time>2021-11-19T10:23:04Z</time>
      </trkpt>
      <trkpt lat="44.37038" lon="5.12203">
        <ele>336.8</ele>
        <time>2021-11-19T10:23:05Z</time>
      </trkpt>
      <trkpt lat="44.37043" lon="5.122">
        <ele>337</ele>
        <time>2021-11-19T10:23:06Z</time>
      </trkpt>
      <trkpt lat="44.37048" lon="5.12197">
        <ele>337.3</ele>
        <time>2021-11-19T10:23:08Z</time>
      </trkpt>
      <trkpt lat="44.3705" lon="5.12196">
        <ele>337.5</ele>
        <time>2021-11-19T10:23:09Z</time>
      </trkpt>
      <trkpt lat="44.37054" lon="5.12193">
        <ele>337.6</ele>
        <time>2021-11-19T10:23:11Z</time>
      </trkpt>
      <trkpt lat="44.37057" lon="5.12189">
        <ele>337.8</ele>
        <time>2021-11-19T10:23:12Z</time>
      </trkpt>
      <trkpt lat="44.37063" lon="5.12182">
        <ele>338.2</ele>
        <time>2021-11-19T10:23:15Z</time>
      </trkpt>
      <trkpt lat="44.37066" lon="5.12179">
        <ele>338.3</ele>
        <time>2021-11-19T10:23:16Z</time>
      </trkpt>
      <trkpt lat="44.37073" lon="5.12175">
        <ele>338.6</ele>
        <time>2021-11-19T10:23:18Z</time>
      </trkpt>
      <trkpt lat="44.37079" lon="5.12173">
        <ele>338.8</ele>
        <time>2021-11-19T10:23:20Z</time>
      </trkpt>
      <trkpt lat="44.37083" lon="5.12172">
        <ele>338.8</ele>
        <time>2021-11-19T10:23:21Z</time>
      </trkpt>
      <trkpt lat="44.37088" lon="5.12172">
        <ele>339</ele>
        <time>2021-11-19T10:23:22Z</time>
      </trkpt>
      <trkpt lat="44.37091" lon="5.12173">
        <ele>339</ele>
        <time>2021-11-19T10:23:24Z</time>
      </trkpt>
      <trkpt lat="44.371" lon="5.12173">
        <ele>339.2</ele>
        <time>2021-11-19T10:23:26Z</time>
      </trkpt>
      <trkpt lat="44.37103" lon="5.12174">
        <ele>339.3</ele>
        <time>2021-11-19T10:23:27Z</time>
      </trkpt>
      <trkpt lat="44.37111" lon="5.12174">
        <ele>339.5</ele>
        <time>2021-11-19T10:23:29Z</time>
      </trkpt>
      <trkpt lat="44.3712" lon="5.12175">
        <ele>339.7</ele>
        <time>2021-11-19T10:23:32Z</time>
      </trkpt>
      <trkpt lat="44.37124" lon="5.12175">
        <ele>339.8</ele>
        <time>2021-11-19T10:23:33Z</time>
      </trkpt>
      <trkpt lat="44.37134" lon="5.12175">
        <ele>340.1</ele>
        <time>2021-11-19T10:23:35Z</time>
      </trkpt>
      <trkpt lat="44.37139" lon="5.12173">
        <ele>340.3</ele>
        <time>2021-11-19T10:23:37Z</time>
      </trkpt>
      <trkpt lat="44.37141" lon="5.12169">
        <ele>340.4</ele>
        <time>2021-11-19T10:23:38Z</time>
      </trkpt>
      <trkpt lat="44.37141" lon="5.12168">
        <ele>340.5</ele>
        <time>2021-11-19T10:23:39Z</time>
      </trkpt>
      <trkpt lat="44.37146" lon="5.12165">
        <ele>340.6</ele>
        <time>2021-11-19T10:23:40Z</time>
      </trkpt>
      <trkpt lat="44.37151" lon="5.12165">
        <ele>340.8</ele>
        <time>2021-11-19T10:23:42Z</time>
      </trkpt>
      <trkpt lat="44.37152" lon="5.12165">
        <ele>340.9</ele>
        <time>2021-11-19T10:23:43Z</time>
      </trkpt>
      <trkpt lat="44.37156" lon="5.12162">
        <ele>341.1</ele>
        <time>2021-11-19T10:23:45Z</time>
      </trkpt>
      <trkpt lat="44.3716" lon="5.12161">
        <ele>341.2</ele>
        <time>2021-11-19T10:23:47Z</time>
      </trkpt>
      <trkpt lat="44.37167" lon="5.12158">
        <ele>341.5</ele>
        <time>2021-11-19T10:23:50Z</time>
      </trkpt>
      <trkpt lat="44.37171" lon="5.12156">
        <ele>341.7</ele>
        <time>2021-11-19T10:23:51Z</time>
      </trkpt>
      <trkpt lat="44.37179" lon="5.12154">
        <ele>342.1</ele>
        <time>2021-11-19T10:23:53Z</time>
      </trkpt>
      <trkpt lat="44.37182" lon="5.12152">
        <ele>342.2</ele>
        <time>2021-11-19T10:23:54Z</time>
      </trkpt>
      <trkpt lat="44.37188" lon="5.12149">
        <ele>342.5</ele>
        <time>2021-11-19T10:23:56Z</time>
      </trkpt>
      <trkpt lat="44.37194" lon="5.12147">
        <ele>342.8</ele>
        <time>2021-11-19T10:23:58Z</time>
      </trkpt>
      <trkpt lat="44.37202" lon="5.12143">
        <ele>343.2</ele>
        <time>2021-11-19T10:24:00Z</time>
      </trkpt>
      <trkpt lat="44.37214" lon="5.12138">
        <ele>343.9</ele>
        <time>2021-11-19T10:24:03Z</time>
      </trkpt>
      <trkpt lat="44.37222" lon="5.12134">
        <ele>344.5</ele>
        <time>2021-11-19T10:24:05Z</time>
      </trkpt>
      <trkpt lat="44.37226" lon="5.12132">
        <ele>344.8</ele>
        <time>2021-11-19T10:24:06Z</time>
      </trkpt>
      <trkpt lat="44.3723" lon="5.12131">
        <ele>345.1</ele>
        <time>2021-11-19T10:24:07Z</time>
      </trkpt>
      <trkpt lat="44.37235" lon="5.12129">
        <ele>345.4</ele>
        <time>2021-11-19T10:24:09Z</time>
      </trkpt>
      <trkpt lat="44.37238" lon="5.12129">
        <ele>345.6</ele>
        <time>2021-11-19T10:24:10Z</time>
      </trkpt>
      <trkpt lat="44.37242" lon="5.12128">
        <ele>345.9</ele>
        <time>2021-11-19T10:24:11Z</time>
      </trkpt>
      <trkpt lat="44.37248" lon="5.12124">
        <ele>346.4</ele>
        <time>2021-11-19T10:24:12Z</time>
      </trkpt>
      <trkpt lat="44.37253" lon="5.12123">
        <ele>346.7</ele>
        <time>2021-11-19T10:24:14Z</time>
      </trkpt>
      <trkpt lat="44.37257" lon="5.12122">
        <ele>347</ele>
        <time>2021-11-19T10:24:15Z</time>
      </trkpt>
      <trkpt lat="44.3726" lon="5.1212">
        <ele>347.1</ele>
        <time>2021-11-19T10:24:17Z</time>
      </trkpt>
      <trkpt lat="44.37264" lon="5.12116">
        <ele>347</ele>
        <time>2021-11-19T10:24:18Z</time>
      </trkpt>
      <trkpt lat="44.37267" lon="5.12112">
        <ele>346.9</ele>
        <time>2021-11-19T10:24:20Z</time>
      </trkpt>
      <trkpt lat="44.3727" lon="5.12108">
        <ele>346.8</ele>
        <time>2021-11-19T10:24:21Z</time>
      </trkpt>
      <trkpt lat="44.37271" lon="5.12106">
        <ele>346.7</ele>
        <time>2021-11-19T10:24:22Z</time>
      </trkpt>
      <trkpt lat="44.37273" lon="5.12099">
        <ele>346.6</ele>
        <time>2021-11-19T10:24:25Z</time>
      </trkpt>
      <trkpt lat="44.37274" lon="5.12091">
        <ele>346.5</ele>
        <time>2021-11-19T10:24:27Z</time>
      </trkpt>
      <trkpt lat="44.37273" lon="5.12085">
        <ele>346.5</ele>
        <time>2021-11-19T10:24:29Z</time>
      </trkpt>
      <trkpt lat="44.37272" lon="5.12087">
        <ele>346.5</ele>
        <time>2021-11-19T10:24:30Z</time>
      </trkpt>
      <trkpt lat="44.3727" lon="5.12091">
        <ele>346.4</ele>
        <time>2021-11-19T10:24:32Z</time>
      </trkpt>
      <trkpt lat="44.37269" lon="5.12094">
        <ele>346.4</ele>
        <time>2021-11-19T10:24:33Z</time>
      </trkpt>
      <trkpt lat="44.3727" lon="5.12095">
        <ele>346.4</ele>
        <time>2021-11-19T10:24:34Z</time>
      </trkpt>
      <trkpt lat="44.37271" lon="5.12094">
        <ele>346.4</ele>
        <time>2021-11-19T10:24:37Z</time>
      </trkpt>
      <trkpt lat="44.37272" lon="5.12094">
        <ele>346.4</ele>
        <time>2021-11-19T10:24:38Z</time>
      </trkpt>
      <trkpt lat="44.37272" lon="5.12094">
        <ele>346.4</ele>
        <time>2021-11-19T10:24:39Z</time>
      </trkpt>
      <trkpt lat="44.37272" lon="5.12093">
        <ele>346.4</ele>
        <time>2021-11-19T10:24:40Z</time>
      </trkpt>
      <trkpt lat="44.37272" lon="5.12093">
        <ele>346.4</ele>
        <time>2021-11-19T10:24:43Z</time>
      </trkpt>
      <trkpt lat="44.37272" lon="5.12093">
        <ele>346.4</ele>
        <time>2021-11-19T10:24:44Z</time>
      </trkpt>
      <trkpt lat="44.37272" lon="5.12093">
        <ele>346.4</ele>
        <time>2021-11-19T10:24:45Z</time>
      </trkpt>
      <trkpt lat="44.37272" lon="5.12093">
        <ele>346.4</ele>
        <time>2021-11-19T10:24:46Z</time>
      </trkpt>
      <trkpt lat="44.37273" lon="5.12093">
        <ele>346.4</ele>
        <time>2021-11-19T10:24:47Z</time>
      </trkpt>
      <trkpt lat="44.37277" lon="5.1209">
        <ele>346.5</ele>
        <time>2021-11-19T10:25:02Z</time>
      </trkpt>
      <trkpt lat="44.37282" lon="5.12076">
        <ele>346.5</ele>
        <time>2021-11-19T10:25:05Z</time>
      </trkpt>
      <trkpt lat="44.37287" lon="5.1206">
        <ele>346.6</ele>
        <time>2021-11-19T10:25:08Z</time>
      </trkpt>
      <trkpt lat="44.37291" lon="5.12056">
        <ele>346.7</ele>
        <time>2021-11-19T10:25:09Z</time>
      </trkpt>
      <trkpt lat="44.373" lon="5.1205">
        <ele>346.6</ele>
        <time>2021-11-19T10:25:11Z</time>
      </trkpt>
      <trkpt lat="44.37306" lon="5.12044">
        <ele>346.6</ele>
        <time>2021-11-19T10:25:13Z</time>
      </trkpt>
      <trkpt lat="44.37306" lon="5.12038">
        <ele>346.6</ele>
        <time>2021-11-19T10:25:15Z</time>
      </trkpt>
      <trkpt lat="44.37308" lon="5.12034">
        <ele>346.6</ele>
        <time>2021-11-19T10:25:16Z</time>
      </trkpt>
      <trkpt lat="44.3731" lon="5.12031">
        <ele>346.6</ele>
        <time>2021-11-19T10:25:17Z</time>
      </trkpt>
      <trkpt lat="44.37313" lon="5.12023">
        <ele>346.5</ele>
        <time>2021-11-19T10:25:19Z</time>
      </trkpt>
      <trkpt lat="44.3732" lon="5.12015">
        <ele>346.6</ele>
        <time>2021-11-19T10:25:20Z</time>
      </trkpt>
      <trkpt lat="44.37323" lon="5.12006">
        <ele>346.6</ele>
        <time>2021-11-19T10:25:22Z</time>
      </trkpt>
      <trkpt lat="44.37325" lon="5.11999">
        <ele>346.7</ele>
        <time>2021-11-19T10:25:25Z</time>
      </trkpt>
      <trkpt lat="44.37328" lon="5.11993">
        <ele>346.8</ele>
        <time>2021-11-19T10:25:26Z</time>
      </trkpt>
      <trkpt lat="44.37334" lon="5.11978">
        <ele>347.3</ele>
        <time>2021-11-19T10:25:27Z</time>
      </trkpt>
      <trkpt lat="44.37335" lon="5.11968">
        <ele>347.6</ele>
        <time>2021-11-19T10:25:29Z</time>
      </trkpt>
      <trkpt lat="44.37338" lon="5.11959">
        <ele>348</ele>
        <time>2021-11-19T10:25:30Z</time>
      </trkpt>
      <trkpt lat="44.37343" lon="5.11948">
        <ele>348.6</ele>
        <time>2021-11-19T10:25:32Z</time>
      </trkpt>
      <trkpt lat="44.37346" lon="5.11955">
        <ele>349.1</ele>
        <time>2021-11-19T10:25:34Z</time>
      </trkpt>
      <trkpt lat="44.37348" lon="5.11945">
        <ele>349.8</ele>
        <time>2021-11-19T10:25:35Z</time>
      </trkpt>
      <trkpt lat="44.37351" lon="5.11931">
        <ele>350.8</ele>
        <time>2021-11-19T10:25:36Z</time>
      </trkpt>
      <trkpt lat="44.37353" lon="5.11926">
        <ele>351.3</ele>
        <time>2021-11-19T10:25:38Z</time>
      </trkpt>
      <trkpt lat="44.37356" lon="5.1192">
        <ele>351.9</ele>
        <time>2021-11-19T10:25:39Z</time>
      </trkpt>
      <trkpt lat="44.37357" lon="5.1192">
        <ele>352</ele>
        <time>2021-11-19T10:25:41Z</time>
      </trkpt>
      <trkpt lat="44.37359" lon="5.11919">
        <ele>352.3</ele>
        <time>2021-11-19T10:25:42Z</time>
      </trkpt>
      <trkpt lat="44.37364" lon="5.11915">
        <ele>352.9</ele>
        <time>2021-11-19T10:25:44Z</time>
      </trkpt>
      <trkpt lat="44.37371" lon="5.1191">
        <ele>353.7</ele>
        <time>2021-11-19T10:25:47Z</time>
      </trkpt>
      <trkpt lat="44.37373" lon="5.11908">
        <ele>354</ele>
        <time>2021-11-19T10:25:48Z</time>
      </trkpt>
      <trkpt lat="44.37375" lon="5.11905">
        <ele>354.3</ele>
        <time>2021-11-19T10:25:50Z</time>
      </trkpt>
      <trkpt lat="44.37379" lon="5.119">
        <ele>354.9</ele>
        <time>2021-11-19T10:25:52Z</time>
      </trkpt>
      <trkpt lat="44.37381" lon="5.11896">
        <ele>355.3</ele>
        <time>2021-11-19T10:25:54Z</time>
      </trkpt>
      <trkpt lat="44.37383" lon="5.11895">
        <ele>355.5</ele>
        <time>2021-11-19T10:25:55Z</time>
      </trkpt>
      <trkpt lat="44.37385" lon="5.11892">
        <ele>355.8</ele>
        <time>2021-11-19T10:25:57Z</time>
      </trkpt>
      <trkpt lat="44.37386" lon="5.11889">
        <ele>356</ele>
        <time>2021-11-19T10:25:59Z</time>
      </trkpt>
      <trkpt lat="44.37388" lon="5.11888">
        <ele>356.3</ele>
        <time>2021-11-19T10:26:01Z</time>
      </trkpt>
      <trkpt lat="44.37391" lon="5.11883">
        <ele>356.7</ele>
        <time>2021-11-19T10:26:03Z</time>
      </trkpt>
      <trkpt lat="44.37392" lon="5.11874">
        <ele>357.4</ele>
        <time>2021-11-19T10:26:06Z</time>
      </trkpt>
      <trkpt lat="44.37393" lon="5.11869">
        <ele>357.8</ele>
        <time>2021-11-19T10:26:07Z</time>
      </trkpt>
      <trkpt lat="44.37395" lon="5.11857">
        <ele>358.6</ele>
        <time>2021-11-19T10:26:09Z</time>
      </trkpt>
      <trkpt lat="44.37398" lon="5.11849">
        <ele>359.2</ele>
        <time>2021-11-19T10:26:11Z</time>
      </trkpt>
      <trkpt lat="44.37398" lon="5.11841">
        <ele>359.6</ele>
        <time>2021-11-19T10:26:13Z</time>
      </trkpt>
      <trkpt lat="44.37398" lon="5.11831">
        <ele>359.9</ele>
        <time>2021-11-19T10:26:16Z</time>
      </trkpt>
      <trkpt lat="44.37398" lon="5.1183">
        <ele>359.9</ele>
        <time>2021-11-19T10:26:17Z</time>
      </trkpt>
      <trkpt lat="44.37399" lon="5.11828">
        <ele>360</ele>
        <time>2021-11-19T10:26:18Z</time>
      </trkpt>
      <trkpt lat="44.37399" lon="5.11827">
        <ele>360</ele>
        <time>2021-11-19T10:26:19Z</time>
      </trkpt>
      <trkpt lat="44.37399" lon="5.11825">
        <ele>360.1</ele>
        <time>2021-11-19T10:26:20Z</time>
      </trkpt>
      <trkpt lat="44.37399" lon="5.11823">
        <ele>360.1</ele>
        <time>2021-11-19T10:26:21Z</time>
      </trkpt>
      <trkpt lat="44.37402" lon="5.11817">
        <ele>360.2</ele>
        <time>2021-11-19T10:26:23Z</time>
      </trkpt>
      <trkpt lat="44.37403" lon="5.11814">
        <ele>360.2</ele>
        <time>2021-11-19T10:26:24Z</time>
      </trkpt>
      <trkpt lat="44.37404" lon="5.11813">
        <ele>360.2</ele>
        <time>2021-11-19T10:26:25Z</time>
      </trkpt>
      <trkpt lat="44.37405" lon="5.11809">
        <ele>360.2</ele>
        <time>2021-11-19T10:26:26Z</time>
      </trkpt>
      <trkpt lat="44.37407" lon="5.11805">
        <ele>360.1</ele>
        <time>2021-11-19T10:26:29Z</time>
      </trkpt>
      <trkpt lat="44.3741" lon="5.118">
        <ele>360</ele>
        <time>2021-11-19T10:26:31Z</time>
      </trkpt>
      <trkpt lat="44.37414" lon="5.11794">
        <ele>359.8</ele>
        <time>2021-11-19T10:26:33Z</time>
      </trkpt>
      <trkpt lat="44.37414" lon="5.11789">
        <ele>359.6</ele>
        <time>2021-11-19T10:26:35Z</time>
      </trkpt>
      <trkpt lat="44.37416" lon="5.11782">
        <ele>359.4</ele>
        <time>2021-11-19T10:26:37Z</time>
      </trkpt>
      <trkpt lat="44.37417" lon="5.11777">
        <ele>359.2</ele>
        <time>2021-11-19T10:26:38Z</time>
      </trkpt>
      <trkpt lat="44.37421" lon="5.1177">
        <ele>358.9</ele>
        <time>2021-11-19T10:26:40Z</time>
      </trkpt>
      <trkpt lat="44.37422" lon="5.11758">
        <ele>358.4</ele>
        <time>2021-11-19T10:26:42Z</time>
      </trkpt>
      <trkpt lat="44.37422" lon="5.1175">
        <ele>358</ele>
        <time>2021-11-19T10:26:43Z</time>
      </trkpt>
      <trkpt lat="44.37421" lon="5.11741">
        <ele>357.5</ele>
        <time>2021-11-19T10:26:44Z</time>
      </trkpt>
      <trkpt lat="44.37417" lon="5.11735">
        <ele>357.1</ele>
        <time>2021-11-19T10:26:47Z</time>
      </trkpt>
      <trkpt lat="44.37417" lon="5.11727">
        <ele>356.7</ele>
        <time>2021-11-19T10:26:48Z</time>
      </trkpt>
      <trkpt lat="44.37417" lon="5.11718">
        <ele>356.2</ele>
        <time>2021-11-19T10:26:49Z</time>
      </trkpt>
      <trkpt lat="44.37416" lon="5.11709">
        <ele>355.6</ele>
        <time>2021-11-19T10:26:50Z</time>
      </trkpt>
      <trkpt lat="44.37418" lon="5.11698">
        <ele>355</ele>
        <time>2021-11-19T10:26:51Z</time>
      </trkpt>
      <trkpt lat="44.37421" lon="5.11685">
        <ele>354.2</ele>
        <time>2021-11-19T10:26:52Z</time>
      </trkpt>
      <trkpt lat="44.37425" lon="5.11673">
        <ele>353.4</ele>
        <time>2021-11-19T10:26:53Z</time>
      </trkpt>
      <trkpt lat="44.37429" lon="5.11661">
        <ele>352.6</ele>
        <time>2021-11-19T10:26:54Z</time>
      </trkpt>
      <trkpt lat="44.37434" lon="5.1165">
        <ele>351.8</ele>
        <time>2021-11-19T10:26:55Z</time>
      </trkpt>
      <trkpt lat="44.37445" lon="5.11645">
        <ele>350.8</ele>
        <time>2021-11-19T10:26:56Z</time>
      </trkpt>
      <trkpt lat="44.37456" lon="5.11641">
        <ele>349.9</ele>
        <time>2021-11-19T10:26:57Z</time>
      </trkpt>
      <trkpt lat="44.37466" lon="5.11636">
        <ele>349.2</ele>
        <time>2021-11-19T10:26:58Z</time>
      </trkpt>
      <trkpt lat="44.37476" lon="5.1163">
        <ele>348.5</ele>
        <time>2021-11-19T10:26:59Z</time>
      </trkpt>
      <trkpt lat="44.37486" lon="5.11623">
        <ele>347.9</ele>
        <time>2021-11-19T10:27:00Z</time>
      </trkpt>
      <trkpt lat="44.37495" lon="5.11615">
        <ele>347.3</ele>
        <time>2021-11-19T10:27:01Z</time>
      </trkpt>
      <trkpt lat="44.37503" lon="5.11604">
        <ele>346.9</ele>
        <time>2021-11-19T10:27:02Z</time>
      </trkpt>
      <trkpt lat="44.37509" lon="5.11591">
        <ele>346.4</ele>
        <time>2021-11-19T10:27:03Z</time>
      </trkpt>
      <trkpt lat="44.37512" lon="5.11578">
        <ele>346.7</ele>
        <time>2021-11-19T10:27:04Z</time>
      </trkpt>
      <trkpt lat="44.37514" lon="5.11566">
        <ele>346.9</ele>
        <time>2021-11-19T10:27:05Z</time>
      </trkpt>
      <trkpt lat="44.37517" lon="5.11555">
        <ele>347</ele>
        <time>2021-11-19T10:27:06Z</time>
      </trkpt>
      <trkpt lat="44.37519" lon="5.11544">
        <ele>347.1</ele>
        <time>2021-11-19T10:27:07Z</time>
      </trkpt>
      <trkpt lat="44.37523" lon="5.11534">
        <ele>347.1</ele>
        <time>2021-11-19T10:27:08Z</time>
      </trkpt>
      <trkpt lat="44.37526" lon="5.11525">
        <ele>347.2</ele>
        <time>2021-11-19T10:27:09Z</time>
      </trkpt>
      <trkpt lat="44.37529" lon="5.11516">
        <ele>347.3</ele>
        <time>2021-11-19T10:27:10Z</time>
      </trkpt>
      <trkpt lat="44.37532" lon="5.11508">
        <ele>347.4</ele>
        <time>2021-11-19T10:27:11Z</time>
      </trkpt>
      <trkpt lat="44.37535" lon="5.11499">
        <ele>347.6</ele>
        <time>2021-11-19T10:27:12Z</time>
      </trkpt>
      <trkpt lat="44.37538" lon="5.11491">
        <ele>347.7</ele>
        <time>2021-11-19T10:27:13Z</time>
      </trkpt>
      <trkpt lat="44.37541" lon="5.11483">
        <ele>347.9</ele>
        <time>2021-11-19T10:27:14Z</time>
      </trkpt>
      <trkpt lat="44.37543" lon="5.11476">
        <ele>348.1</ele>
        <time>2021-11-19T10:27:15Z</time>
      </trkpt>
      <trkpt lat="44.37546" lon="5.11469">
        <ele>348.3</ele>
        <time>2021-11-19T10:27:16Z</time>
      </trkpt>
      <trkpt lat="44.37548" lon="5.11462">
        <ele>348.5</ele>
        <time>2021-11-19T10:27:17Z</time>
      </trkpt>
      <trkpt lat="44.37551" lon="5.11454">
        <ele>348.7</ele>
        <time>2021-11-19T10:27:18Z</time>
      </trkpt>
      <trkpt lat="44.37553" lon="5.11448">
        <ele>348.9</ele>
        <time>2021-11-19T10:27:19Z</time>
      </trkpt>
      <trkpt lat="44.37556" lon="5.11442">
        <ele>349</ele>
        <time>2021-11-19T10:27:20Z</time>
      </trkpt>
      <trkpt lat="44.37558" lon="5.11436">
        <ele>349.2</ele>
        <time>2021-11-19T10:27:21Z</time>
      </trkpt>
      <trkpt lat="44.3756" lon="5.1143">
        <ele>349.3</ele>
        <time>2021-11-19T10:27:22Z</time>
      </trkpt>
      <trkpt lat="44.37563" lon="5.11424">
        <ele>349.5</ele>
        <time>2021-11-19T10:27:23Z</time>
      </trkpt>
      <trkpt lat="44.37565" lon="5.11419">
        <ele>349.6</ele>
        <time>2021-11-19T10:27:24Z</time>
      </trkpt>
      <trkpt lat="44.37568" lon="5.11414">
        <ele>349.7</ele>
        <time>2021-11-19T10:27:25Z</time>
      </trkpt>
      <trkpt lat="44.37572" lon="5.11408">
        <ele>349.9</ele>
        <time>2021-11-19T10:27:26Z</time>
      </trkpt>
      <trkpt lat="44.37574" lon="5.11404">
        <ele>350.1</ele>
        <time>2021-11-19T10:27:27Z</time>
      </trkpt>
      <trkpt lat="44.37577" lon="5.11398">
        <ele>350.3</ele>
        <time>2021-11-19T10:27:28Z</time>
      </trkpt>
      <trkpt lat="44.3758" lon="5.11391">
        <ele>350.6</ele>
        <time>2021-11-19T10:27:29Z</time>
      </trkpt>
      <trkpt lat="44.37586" lon="5.11373">
        <ele>351.5</ele>
        <time>2021-11-19T10:27:30Z</time>
      </trkpt>
      <trkpt lat="44.37588" lon="5.11367">
        <ele>351.8</ele>
        <time>2021-11-19T10:27:31Z</time>
      </trkpt>
      <trkpt lat="44.37595" lon="5.11354">
        <ele>352.8</ele>
        <time>2021-11-19T10:27:32Z</time>
      </trkpt>
      <trkpt lat="44.37601" lon="5.1135">
        <ele>353.3</ele>
        <time>2021-11-19T10:27:34Z</time>
      </trkpt>
      <trkpt lat="44.37605" lon="5.11345">
        <ele>353.7</ele>
        <time>2021-11-19T10:27:35Z</time>
      </trkpt>
      <trkpt lat="44.37609" lon="5.11341">
        <ele>354.2</ele>
        <time>2021-11-19T10:27:37Z</time>
      </trkpt>
      <trkpt lat="44.37611" lon="5.11338">
        <ele>354.4</ele>
        <time>2021-11-19T10:27:38Z</time>
      </trkpt>
      <trkpt lat="44.37616" lon="5.11336">
        <ele>354.9</ele>
        <time>2021-11-19T10:27:40Z</time>
      </trkpt>
      <trkpt lat="44.37618" lon="5.11335">
        <ele>355.1</ele>
        <time>2021-11-19T10:27:41Z</time>
      </trkpt>
      <trkpt lat="44.3762" lon="5.11334">
        <ele>355.3</ele>
        <time>2021-11-19T10:27:42Z</time>
      </trkpt>
      <trkpt lat="44.37624" lon="5.11333">
        <ele>355.7</ele>
        <time>2021-11-19T10:27:44Z</time>
      </trkpt>
      <trkpt lat="44.37628" lon="5.11332">
        <ele>356.1</ele>
        <time>2021-11-19T10:27:45Z</time>
      </trkpt>
      <trkpt lat="44.37631" lon="5.1133">
        <ele>356.4</ele>
        <time>2021-11-19T10:27:46Z</time>
      </trkpt>
      <trkpt lat="44.37636" lon="5.11326">
        <ele>356.9</ele>
        <time>2021-11-19T10:27:49Z</time>
      </trkpt>
      <trkpt lat="44.37638" lon="5.11324">
        <ele>357.1</ele>
        <time>2021-11-19T10:27:50Z</time>
      </trkpt>
      <trkpt lat="44.37642" lon="5.11323">
        <ele>357.5</ele>
        <time>2021-11-19T10:27:51Z</time>
      </trkpt>
      <trkpt lat="44.37646" lon="5.11321">
        <ele>357.9</ele>
        <time>2021-11-19T10:27:52Z</time>
      </trkpt>
      <trkpt lat="44.37649" lon="5.11324">
        <ele>358.3</ele>
        <time>2021-11-19T10:27:54Z</time>
      </trkpt>
      <trkpt lat="44.37651" lon="5.11323">
        <ele>358.5</ele>
        <time>2021-11-19T10:27:56Z</time>
      </trkpt>
      <trkpt lat="44.37653" lon="5.11322">
        <ele>358.7</ele>
        <time>2021-11-19T10:27:57Z</time>
      </trkpt>
      <trkpt lat="44.37655" lon="5.11321">
        <ele>358.9</ele>
        <time>2021-11-19T10:27:58Z</time>
      </trkpt>
      <trkpt lat="44.37659" lon="5.11319">
        <ele>359.2</ele>
        <time>2021-11-19T10:27:59Z</time>
      </trkpt>
      <trkpt lat="44.37665" lon="5.11316">
        <ele>359.7</ele>
        <time>2021-11-19T10:28:02Z</time>
      </trkpt>
      <trkpt lat="44.37667" lon="5.11314">
        <ele>359.9</ele>
        <time>2021-11-19T10:28:03Z</time>
      </trkpt>
      <trkpt lat="44.37667" lon="5.11313">
        <ele>359.9</ele>
        <time>2021-11-19T10:28:04Z</time>
      </trkpt>
      <trkpt lat="44.3767" lon="5.11311">
        <ele>360.2</ele>
        <time>2021-11-19T10:28:05Z</time>
      </trkpt>
      <trkpt lat="44.37673" lon="5.11309">
        <ele>360.3</ele>
        <time>2021-11-19T10:28:06Z</time>
      </trkpt>
      <trkpt lat="44.37678" lon="5.11305">
        <ele>360.6</ele>
        <time>2021-11-19T10:28:08Z</time>
      </trkpt>
      <trkpt lat="44.37683" lon="5.11301">
        <ele>360.8</ele>
        <time>2021-11-19T10:28:10Z</time>
      </trkpt>
      <trkpt lat="44.37691" lon="5.11291">
        <ele>361.1</ele>
        <time>2021-11-19T10:28:13Z</time>
      </trkpt>
      <trkpt lat="44.37699" lon="5.11288">
        <ele>361.3</ele>
        <time>2021-11-19T10:28:15Z</time>
      </trkpt>
      <trkpt lat="44.37705" lon="5.11285">
        <ele>361.4</ele>
        <time>2021-11-19T10:28:17Z</time>
      </trkpt>
      <trkpt lat="44.37711" lon="5.11282">
        <ele>361.5</ele>
        <time>2021-11-19T10:28:18Z</time>
      </trkpt>
      <trkpt lat="44.3772" lon="5.11276">
        <ele>361.7</ele>
        <time>2021-11-19T10:28:20Z</time>
      </trkpt>
      <trkpt lat="44.37725" lon="5.11273">
        <ele>361.7</ele>
        <time>2021-11-19T10:28:22Z</time>
      </trkpt>
      <trkpt lat="44.37733" lon="5.11269">
        <ele>361.8</ele>
        <time>2021-11-19T10:28:24Z</time>
      </trkpt>
      <trkpt lat="44.37737" lon="5.11267">
        <ele>361.9</ele>
        <time>2021-11-19T10:28:25Z</time>
      </trkpt>
      <trkpt lat="44.37746" lon="5.11261">
        <ele>362</ele>
        <time>2021-11-19T10:28:27Z</time>
      </trkpt>
      <trkpt lat="44.37751" lon="5.11257">
        <ele>362</ele>
        <time>2021-11-19T10:28:29Z</time>
      </trkpt>
      <trkpt lat="44.37756" lon="5.1125">
        <ele>362.1</ele>
        <time>2021-11-19T10:28:31Z</time>
      </trkpt>
      <trkpt lat="44.3776" lon="5.11247">
        <ele>362.2</ele>
        <time>2021-11-19T10:28:32Z</time>
      </trkpt>
      <trkpt lat="44.37766" lon="5.1124">
        <ele>362.3</ele>
        <time>2021-11-19T10:28:33Z</time>
      </trkpt>
      <trkpt lat="44.37771" lon="5.11235">
        <ele>362.5</ele>
        <time>2021-11-19T10:28:35Z</time>
      </trkpt>
      <trkpt lat="44.37778" lon="5.1123">
        <ele>362.7</ele>
        <time>2021-11-19T10:28:37Z</time>
      </trkpt>
      <trkpt lat="44.37788" lon="5.11224">
        <ele>363.2</ele>
        <time>2021-11-19T10:28:39Z</time>
      </trkpt>
      <trkpt lat="44.37793" lon="5.11222">
        <ele>363.4</ele>
        <time>2021-11-19T10:28:40Z</time>
      </trkpt>
      <trkpt lat="44.37801" lon="5.11217">
        <ele>364</ele>
        <time>2021-11-19T10:28:42Z</time>
      </trkpt>
      <trkpt lat="44.37805" lon="5.11216">
        <ele>364.4</ele>
        <time>2021-11-19T10:28:44Z</time>
      </trkpt>
      <trkpt lat="44.37809" lon="5.11214">
        <ele>364.7</ele>
        <time>2021-11-19T10:28:45Z</time>
      </trkpt>
      <trkpt lat="44.3781" lon="5.11213">
        <ele>364.8</ele>
        <time>2021-11-19T10:28:46Z</time>
      </trkpt>
      <trkpt lat="44.37806" lon="5.11216">
        <ele>365.2</ele>
        <time>2021-11-19T10:28:47Z</time>
      </trkpt>
      <trkpt lat="44.37808" lon="5.11213">
        <ele>365.4</ele>
        <time>2021-11-19T10:28:49Z</time>
      </trkpt>
      <trkpt lat="44.37809" lon="5.11212">
        <ele>365.6</ele>
        <time>2021-11-19T10:28:50Z</time>
      </trkpt>
      <trkpt lat="44.37812" lon="5.11208">
        <ele>365.9</ele>
        <time>2021-11-19T10:28:52Z</time>
      </trkpt>
      <trkpt lat="44.37822" lon="5.11204">
        <ele>366.9</ele>
        <time>2021-11-19T10:28:54Z</time>
      </trkpt>
      <trkpt lat="44.37828" lon="5.11201">
        <ele>367.6</ele>
        <time>2021-11-19T10:28:56Z</time>
      </trkpt>
      <trkpt lat="44.37834" lon="5.11195">
        <ele>368.2</ele>
        <time>2021-11-19T10:28:58Z</time>
      </trkpt>
      <trkpt lat="44.37838" lon="5.11193">
        <ele>368.6</ele>
        <time>2021-11-19T10:28:59Z</time>
      </trkpt>
      <trkpt lat="44.37843" lon="5.11191">
        <ele>369.1</ele>
        <time>2021-11-19T10:29:02Z</time>
      </trkpt>
      <trkpt lat="44.37845" lon="5.11189">
        <ele>369.4</ele>
        <time>2021-11-19T10:29:03Z</time>
      </trkpt>
      <trkpt lat="44.37851" lon="5.11185">
        <ele>369.9</ele>
        <time>2021-11-19T10:29:06Z</time>
      </trkpt>
      <trkpt lat="44.37855" lon="5.1118">
        <ele>370.4</ele>
        <time>2021-11-19T10:29:07Z</time>
      </trkpt>
      <trkpt lat="44.37858" lon="5.11178">
        <ele>370.6</ele>
        <time>2021-11-19T10:29:09Z</time>
      </trkpt>
      <trkpt lat="44.37861" lon="5.11175">
        <ele>370.9</ele>
        <time>2021-11-19T10:29:10Z</time>
      </trkpt>
      <trkpt lat="44.37864" lon="5.11173">
        <ele>371.1</ele>
        <time>2021-11-19T10:29:11Z</time>
      </trkpt>
      <trkpt lat="44.37866" lon="5.11172">
        <ele>371.3</ele>
        <time>2021-11-19T10:29:12Z</time>
      </trkpt>
      <trkpt lat="44.37869" lon="5.11168">
        <ele>371.6</ele>
        <time>2021-11-19T10:29:14Z</time>
      </trkpt>
      <trkpt lat="44.37874" lon="5.11164">
        <ele>372</ele>
        <time>2021-11-19T10:29:16Z</time>
      </trkpt>
      <trkpt lat="44.37878" lon="5.11162">
        <ele>372.4</ele>
        <time>2021-11-19T10:29:17Z</time>
      </trkpt>
      <trkpt lat="44.37881" lon="5.11161">
        <ele>372.6</ele>
        <time>2021-11-19T10:29:18Z</time>
      </trkpt>
      <trkpt lat="44.37889" lon="5.11159">
        <ele>373.3</ele>
        <time>2021-11-19T10:29:21Z</time>
      </trkpt>
      <trkpt lat="44.37891" lon="5.11158">
        <ele>373.4</ele>
        <time>2021-11-19T10:29:22Z</time>
      </trkpt>
      <trkpt lat="44.37889" lon="5.11158">
        <ele>373.5</ele>
        <time>2021-11-19T10:29:23Z</time>
      </trkpt>
      <trkpt lat="44.37888" lon="5.11158">
        <ele>373.6</ele>
        <time>2021-11-19T10:29:24Z</time>
      </trkpt>
      <trkpt lat="44.37889" lon="5.11157">
        <ele>373.7</ele>
        <time>2021-11-19T10:29:25Z</time>
      </trkpt>
      <trkpt lat="44.37888" lon="5.11157">
        <ele>373.8</ele>
        <time>2021-11-19T10:29:26Z</time>
      </trkpt>
      <trkpt lat="44.37886" lon="5.11158">
        <ele>373.9</ele>
        <time>2021-11-19T10:29:27Z</time>
      </trkpt>
      <trkpt lat="44.37887" lon="5.11158">
        <ele>374</ele>
        <time>2021-11-19T10:29:28Z</time>
      </trkpt>
      <trkpt lat="44.37889" lon="5.11156">
        <ele>374.2</ele>
        <time>2021-11-19T10:29:29Z</time>
      </trkpt>
      <trkpt lat="44.3789" lon="5.11153">
        <ele>374.4</ele>
        <time>2021-11-19T10:29:31Z</time>
      </trkpt>
      <trkpt lat="44.37892" lon="5.1115">
        <ele>374.5</ele>
        <time>2021-11-19T10:29:32Z</time>
      </trkpt>
      <trkpt lat="44.37894" lon="5.11147">
        <ele>374.8</ele>
        <time>2021-11-19T10:29:34Z</time>
      </trkpt>
      <trkpt lat="44.37895" lon="5.11145">
        <ele>375</ele>
        <time>2021-11-19T10:29:35Z</time>
      </trkpt>
      <trkpt lat="44.37899" lon="5.1114">
        <ele>375.3</ele>
        <time>2021-11-19T10:29:37Z</time>
      </trkpt>
      <trkpt lat="44.37902" lon="5.11135">
        <ele>375.8</ele>
        <time>2021-11-19T10:29:39Z</time>
      </trkpt>
      <trkpt lat="44.37906" lon="5.11133">
        <ele>376.2</ele>
        <time>2021-11-19T10:29:40Z</time>
      </trkpt>
      <trkpt lat="44.37911" lon="5.11131">
        <ele>376.6</ele>
        <time>2021-11-19T10:29:42Z</time>
      </trkpt>
      <trkpt lat="44.3792" lon="5.11128">
        <ele>377.5</ele>
        <time>2021-11-19T10:29:43Z</time>
      </trkpt>
      <trkpt lat="44.37925" lon="5.11125">
        <ele>378</ele>
        <time>2021-11-19T10:29:46Z</time>
      </trkpt>
      <trkpt lat="44.37928" lon="5.11124">
        <ele>378.4</ele>
        <time>2021-11-19T10:29:47Z</time>
      </trkpt>
      <trkpt lat="44.37932" lon="5.11122">
        <ele>378.7</ele>
        <time>2021-11-19T10:29:48Z</time>
      </trkpt>
      <trkpt lat="44.37936" lon="5.11119">
        <ele>379.1</ele>
        <time>2021-11-19T10:29:51Z</time>
      </trkpt>
      <trkpt lat="44.37937" lon="5.11119">
        <ele>379.2</ele>
        <time>2021-11-19T10:29:52Z</time>
      </trkpt>
      <trkpt lat="44.37938" lon="5.11117">
        <ele>379.4</ele>
        <time>2021-11-19T10:29:53Z</time>
      </trkpt>
      <trkpt lat="44.37941" lon="5.11115">
        <ele>379.7</ele>
        <time>2021-11-19T10:29:54Z</time>
      </trkpt>
      <trkpt lat="44.37944" lon="5.11113">
        <ele>379.9</ele>
        <time>2021-11-19T10:29:56Z</time>
      </trkpt>
      <trkpt lat="44.37949" lon="5.11107">
        <ele>380.5</ele>
        <time>2021-11-19T10:29:58Z</time>
      </trkpt>
      <trkpt lat="44.37953" lon="5.11102">
        <ele>380.9</ele>
        <time>2021-11-19T10:30:00Z</time>
      </trkpt>
      <trkpt lat="44.37955" lon="5.11099">
        <ele>381.2</ele>
        <time>2021-11-19T10:30:02Z</time>
      </trkpt>
      <trkpt lat="44.37956" lon="5.11095">
        <ele>381.4</ele>
        <time>2021-11-19T10:30:04Z</time>
      </trkpt>
      <trkpt lat="44.37957" lon="5.11091">
        <ele>381.6</ele>
        <time>2021-11-19T10:30:05Z</time>
      </trkpt>
      <trkpt lat="44.37958" lon="5.11089">
        <ele>381.7</ele>
        <time>2021-11-19T10:30:07Z</time>
      </trkpt>
      <trkpt lat="44.37959" lon="5.11085">
        <ele>381.8</ele>
        <time>2021-11-19T10:30:09Z</time>
      </trkpt>
      <trkpt lat="44.37959" lon="5.11083">
        <ele>381.9</ele>
        <time>2021-11-19T10:30:10Z</time>
      </trkpt>
      <trkpt lat="44.37961" lon="5.11076">
        <ele>382.1</ele>
        <time>2021-11-19T10:30:12Z</time>
      </trkpt>
      <trkpt lat="44.37963" lon="5.11071">
        <ele>382.3</ele>
        <time>2021-11-19T10:30:14Z</time>
      </trkpt>
      <trkpt lat="44.37964" lon="5.11066">
        <ele>382.4</ele>
        <time>2021-11-19T10:30:15Z</time>
      </trkpt>
      <trkpt lat="44.37967" lon="5.11061">
        <ele>382.4</ele>
        <time>2021-11-19T10:30:18Z</time>
      </trkpt>
      <trkpt lat="44.37969" lon="5.11055">
        <ele>382.4</ele>
        <time>2021-11-19T10:30:20Z</time>
      </trkpt>
      <trkpt lat="44.37973" lon="5.11048">
        <ele>382.2</ele>
        <time>2021-11-19T10:30:23Z</time>
      </trkpt>
      <trkpt lat="44.37974" lon="5.11043">
        <ele>382.1</ele>
        <time>2021-11-19T10:30:24Z</time>
      </trkpt>
      <trkpt lat="44.37975" lon="5.11041">
        <ele>382.1</ele>
        <time>2021-11-19T10:30:25Z</time>
      </trkpt>
      <trkpt lat="44.37977" lon="5.11035">
        <ele>381.8</ele>
        <time>2021-11-19T10:30:27Z</time>
      </trkpt>
      <trkpt lat="44.3798" lon="5.11026">
        <ele>381.4</ele>
        <time>2021-11-19T10:30:30Z</time>
      </trkpt>
      <trkpt lat="44.3798" lon="5.11024">
        <ele>381.3</ele>
        <time>2021-11-19T10:30:31Z</time>
      </trkpt>
      <trkpt lat="44.37981" lon="5.11021">
        <ele>381.2</ele>
        <time>2021-11-19T10:30:32Z</time>
      </trkpt>
      <trkpt lat="44.37985" lon="5.11016">
        <ele>380.9</ele>
        <time>2021-11-19T10:30:34Z</time>
      </trkpt>
      <trkpt lat="44.37987" lon="5.11013">
        <ele>380.7</ele>
        <time>2021-11-19T10:30:35Z</time>
      </trkpt>
      <trkpt lat="44.37991" lon="5.11008">
        <ele>380.4</ele>
        <time>2021-11-19T10:30:37Z</time>
      </trkpt>
      <trkpt lat="44.37996" lon="5.11005">
        <ele>380.1</ele>
        <time>2021-11-19T10:30:38Z</time>
      </trkpt>
      <trkpt lat="44.37999" lon="5.11003">
        <ele>380</ele>
        <time>2021-11-19T10:30:40Z</time>
      </trkpt>
      <trkpt lat="44.38005" lon="5.11002">
        <ele>379.6</ele>
        <time>2021-11-19T10:30:42Z</time>
      </trkpt>
      <trkpt lat="44.38008" lon="5.11001">
        <ele>379.5</ele>
        <time>2021-11-19T10:30:43Z</time>
      </trkpt>
      <trkpt lat="44.3804" lon="5.10959">
        <ele>378.4</ele>
        <time>2021-11-19T10:30:46Z</time>
      </trkpt>
      <trkpt lat="44.38047" lon="5.10951">
        <ele>378.4</ele>
        <time>2021-11-19T10:30:47Z</time>
      </trkpt>
      <trkpt lat="44.38054" lon="5.10944">
        <ele>378.4</ele>
        <time>2021-11-19T10:30:48Z</time>
      </trkpt>
      <trkpt lat="44.38058" lon="5.10938">
        <ele>378.5</ele>
        <time>2021-11-19T10:30:49Z</time>
      </trkpt>
      <trkpt lat="44.38063" lon="5.10932">
        <ele>378.5</ele>
        <time>2021-11-19T10:30:50Z</time>
      </trkpt>
      <trkpt lat="44.38068" lon="5.10926">
        <ele>378.6</ele>
        <time>2021-11-19T10:30:51Z</time>
      </trkpt>
      <trkpt lat="44.38073" lon="5.10921">
        <ele>378.7</ele>
        <time>2021-11-19T10:30:52Z</time>
      </trkpt>
      <trkpt lat="44.38079" lon="5.10917">
        <ele>378.8</ele>
        <time>2021-11-19T10:30:53Z</time>
      </trkpt>
      <trkpt lat="44.38085" lon="5.10912">
        <ele>379</ele>
        <time>2021-11-19T10:30:54Z</time>
      </trkpt>
      <trkpt lat="44.38092" lon="5.10908">
        <ele>379.1</ele>
        <time>2021-11-19T10:30:55Z</time>
      </trkpt>
      <trkpt lat="44.38097" lon="5.10902">
        <ele>379.2</ele>
        <time>2021-11-19T10:30:56Z</time>
      </trkpt>
      <trkpt lat="44.38099" lon="5.10896">
        <ele>379.3</ele>
        <time>2021-11-19T10:30:57Z</time>
      </trkpt>
      <trkpt lat="44.38101" lon="5.1089">
        <ele>379.4</ele>
        <time>2021-11-19T10:30:58Z</time>
      </trkpt>
      <trkpt lat="44.38103" lon="5.10883">
        <ele>379.4</ele>
        <time>2021-11-19T10:30:59Z</time>
      </trkpt>
      <trkpt lat="44.38104" lon="5.10876">
        <ele>379.5</ele>
        <time>2021-11-19T10:31:00Z</time>
      </trkpt>
      <trkpt lat="44.38105" lon="5.1087">
        <ele>379.6</ele>
        <time>2021-11-19T10:31:01Z</time>
      </trkpt>
      <trkpt lat="44.38107" lon="5.10864">
        <ele>379.7</ele>
        <time>2021-11-19T10:31:02Z</time>
      </trkpt>
      <trkpt lat="44.38108" lon="5.10858">
        <ele>379.8</ele>
        <time>2021-11-19T10:31:03Z</time>
      </trkpt>
      <trkpt lat="44.3811" lon="5.1085">
        <ele>379.9</ele>
        <time>2021-11-19T10:31:04Z</time>
      </trkpt>
      <trkpt lat="44.38112" lon="5.10845">
        <ele>380</ele>
        <time>2021-11-19T10:31:05Z</time>
      </trkpt>
      <trkpt lat="44.38114" lon="5.10838">
        <ele>380.1</ele>
        <time>2021-11-19T10:31:06Z</time>
      </trkpt>
      <trkpt lat="44.38116" lon="5.10834">
        <ele>380.2</ele>
        <time>2021-11-19T10:31:07Z</time>
      </trkpt>
      <trkpt lat="44.38118" lon="5.10829">
        <ele>380.2</ele>
        <time>2021-11-19T10:31:08Z</time>
      </trkpt>
      <trkpt lat="44.3812" lon="5.10825">
        <ele>380.3</ele>
        <time>2021-11-19T10:31:09Z</time>
      </trkpt>
      <trkpt lat="44.38122" lon="5.1082">
        <ele>380.3</ele>
        <time>2021-11-19T10:31:10Z</time>
      </trkpt>
      <trkpt lat="44.38129" lon="5.10807">
        <ele>380.4</ele>
        <time>2021-11-19T10:31:11Z</time>
      </trkpt>
      <trkpt lat="44.38135" lon="5.10803">
        <ele>380.5</ele>
        <time>2021-11-19T10:31:14Z</time>
      </trkpt>
      <trkpt lat="44.3814" lon="5.108">
        <ele>380.5</ele>
        <time>2021-11-19T10:31:15Z</time>
      </trkpt>
      <trkpt lat="44.38145" lon="5.10798">
        <ele>380.6</ele>
        <time>2021-11-19T10:31:16Z</time>
      </trkpt>
      <trkpt lat="44.3815" lon="5.10797">
        <ele>380.7</ele>
        <time>2021-11-19T10:31:17Z</time>
      </trkpt>
      <trkpt lat="44.38156" lon="5.10794">
        <ele>380.7</ele>
        <time>2021-11-19T10:31:18Z</time>
      </trkpt>
      <trkpt lat="44.38161" lon="5.10792">
        <ele>380.8</ele>
        <time>2021-11-19T10:31:19Z</time>
      </trkpt>
      <trkpt lat="44.38166" lon="5.10789">
        <ele>380.9</ele>
        <time>2021-11-19T10:31:20Z</time>
      </trkpt>
      <trkpt lat="44.3817" lon="5.10788">
        <ele>381.1</ele>
        <time>2021-11-19T10:31:21Z</time>
      </trkpt>
      <trkpt lat="44.38182" lon="5.10781">
        <ele>381.5</ele>
        <time>2021-11-19T10:31:22Z</time>
      </trkpt>
      <trkpt lat="44.3819" lon="5.10779">
        <ele>381.8</ele>
        <time>2021-11-19T10:31:24Z</time>
      </trkpt>
      <trkpt lat="44.38197" lon="5.10773">
        <ele>381.9</ele>
        <time>2021-11-19T10:31:25Z</time>
      </trkpt>
      <trkpt lat="44.38203" lon="5.1077">
        <ele>382.1</ele>
        <time>2021-11-19T10:31:28Z</time>
      </trkpt>
      <trkpt lat="44.38202" lon="5.1077">
        <ele>382.1</ele>
        <time>2021-11-19T10:31:29Z</time>
      </trkpt>
      <trkpt lat="44.38202" lon="5.10769">
        <ele>382.1</ele>
        <time>2021-11-19T10:31:30Z</time>
      </trkpt>
      <trkpt lat="44.38206" lon="5.10761">
        <ele>382.2</ele>
        <time>2021-11-19T10:31:33Z</time>
      </trkpt>
      <trkpt lat="44.38214" lon="5.10752">
        <ele>382.4</ele>
        <time>2021-11-19T10:31:35Z</time>
      </trkpt>
      <trkpt lat="44.38233" lon="5.10738">
        <ele>382.6</ele>
        <time>2021-11-19T10:31:38Z</time>
      </trkpt>
      <trkpt lat="44.38243" lon="5.10725">
        <ele>382.8</ele>
        <time>2021-11-19T10:31:39Z</time>
      </trkpt>
      <trkpt lat="44.38245" lon="5.10733">
        <ele>382.9</ele>
        <time>2021-11-19T10:31:40Z</time>
      </trkpt>
      <trkpt lat="44.38248" lon="5.1072">
        <ele>383</ele>
        <time>2021-11-19T10:31:41Z</time>
      </trkpt>
      <trkpt lat="44.38251" lon="5.10705">
        <ele>383.1</ele>
        <time>2021-11-19T10:31:43Z</time>
      </trkpt>
      <trkpt lat="44.38256" lon="5.10697">
        <ele>383.1</ele>
        <time>2021-11-19T10:31:46Z</time>
      </trkpt>
      <trkpt lat="44.3826" lon="5.10692">
        <ele>383.1</ele>
        <time>2021-11-19T10:31:47Z</time>
      </trkpt>
      <trkpt lat="44.38263" lon="5.10686">
        <ele>383.1</ele>
        <time>2021-11-19T10:31:48Z</time>
      </trkpt>
      <trkpt lat="44.38266" lon="5.10682">
        <ele>383.1</ele>
        <time>2021-11-19T10:31:49Z</time>
      </trkpt>
      <trkpt lat="44.38269" lon="5.10677">
        <ele>383.2</ele>
        <time>2021-11-19T10:31:50Z</time>
      </trkpt>
      <trkpt lat="44.38273" lon="5.10672">
        <ele>383.2</ele>
        <time>2021-11-19T10:31:51Z</time>
      </trkpt>
      <trkpt lat="44.38277" lon="5.10666">
        <ele>383.2</ele>
        <time>2021-11-19T10:31:52Z</time>
      </trkpt>
      <trkpt lat="44.38281" lon="5.10662">
        <ele>383.3</ele>
        <time>2021-11-19T10:31:53Z</time>
      </trkpt>
      <trkpt lat="44.38284" lon="5.10657">
        <ele>383.4</ele>
        <time>2021-11-19T10:31:54Z</time>
      </trkpt>
      <trkpt lat="44.38288" lon="5.10653">
        <ele>383.4</ele>
        <time>2021-11-19T10:31:55Z</time>
      </trkpt>
      <trkpt lat="44.38291" lon="5.1065">
        <ele>383.5</ele>
        <time>2021-11-19T10:31:56Z</time>
      </trkpt>
      <trkpt lat="44.38295" lon="5.10646">
        <ele>383.6</ele>
        <time>2021-11-19T10:31:57Z</time>
      </trkpt>
      <trkpt lat="44.38298" lon="5.10643">
        <ele>383.7</ele>
        <time>2021-11-19T10:31:58Z</time>
      </trkpt>
      <trkpt lat="44.38302" lon="5.1064">
        <ele>383.8</ele>
        <time>2021-11-19T10:31:59Z</time>
      </trkpt>
      <trkpt lat="44.38305" lon="5.10631">
        <ele>383.9</ele>
        <time>2021-11-19T10:32:00Z</time>
      </trkpt>
      <trkpt lat="44.38302" lon="5.10629">
        <ele>384</ele>
        <time>2021-11-19T10:32:01Z</time>
      </trkpt>
      <trkpt lat="44.3831" lon="5.10623">
        <ele>384.3</ele>
        <time>2021-11-19T10:32:02Z</time>
      </trkpt>
      <trkpt lat="44.38326" lon="5.10615">
        <ele>384.8</ele>
        <time>2021-11-19T10:32:04Z</time>
      </trkpt>
      <trkpt lat="44.38336" lon="5.10613">
        <ele>385.1</ele>
        <time>2021-11-19T10:32:06Z</time>
      </trkpt>
      <trkpt lat="44.38341" lon="5.1061">
        <ele>385.2</ele>
        <time>2021-11-19T10:32:08Z</time>
      </trkpt>
      <trkpt lat="44.38346" lon="5.10608">
        <ele>385.4</ele>
        <time>2021-11-19T10:32:09Z</time>
      </trkpt>
      <trkpt lat="44.38349" lon="5.10607">
        <ele>385.5</ele>
        <time>2021-11-19T10:32:10Z</time>
      </trkpt>
      <trkpt lat="44.38354" lon="5.10606">
        <ele>385.6</ele>
        <time>2021-11-19T10:32:11Z</time>
      </trkpt>
      <trkpt lat="44.38361" lon="5.10601">
        <ele>385.8</ele>
        <time>2021-11-19T10:32:12Z</time>
      </trkpt>
      <trkpt lat="44.38368" lon="5.10596">
        <ele>386</ele>
        <time>2021-11-19T10:32:14Z</time>
      </trkpt>
      <trkpt lat="44.38371" lon="5.10593">
        <ele>386.1</ele>
        <time>2021-11-19T10:32:16Z</time>
      </trkpt>
      <trkpt lat="44.38378" lon="5.10587">
        <ele>386.4</ele>
        <time>2021-11-19T10:32:18Z</time>
      </trkpt>
      <trkpt lat="44.38386" lon="5.10583">
        <ele>386.6</ele>
        <time>2021-11-19T10:32:20Z</time>
      </trkpt>
      <trkpt lat="44.38396" lon="5.10578">
        <ele>387</ele>
        <time>2021-11-19T10:32:22Z</time>
      </trkpt>
      <trkpt lat="44.38406" lon="5.10572">
        <ele>387.4</ele>
        <time>2021-11-19T10:32:24Z</time>
      </trkpt>
      <trkpt lat="44.38415" lon="5.10565">
        <ele>387.8</ele>
        <time>2021-11-19T10:32:26Z</time>
      </trkpt>
      <trkpt lat="44.38422" lon="5.10558">
        <ele>388.2</ele>
        <time>2021-11-19T10:32:28Z</time>
      </trkpt>
      <trkpt lat="44.38426" lon="5.10552">
        <ele>388.4</ele>
        <time>2021-11-19T10:32:30Z</time>
      </trkpt>
      <trkpt lat="44.38427" lon="5.10548">
        <ele>388.5</ele>
        <time>2021-11-19T10:32:31Z</time>
      </trkpt>
      <trkpt lat="44.3843" lon="5.10545">
        <ele>388.6</ele>
        <time>2021-11-19T10:32:32Z</time>
      </trkpt>
      <trkpt lat="44.38432" lon="5.10542">
        <ele>388.8</ele>
        <time>2021-11-19T10:32:33Z</time>
      </trkpt>
      <trkpt lat="44.38438" lon="5.10537">
        <ele>389</ele>
        <time>2021-11-19T10:32:35Z</time>
      </trkpt>
      <trkpt lat="44.38441" lon="5.10534">
        <ele>389.2</ele>
        <time>2021-11-19T10:32:36Z</time>
      </trkpt>
      <trkpt lat="44.38444" lon="5.10531">
        <ele>389.3</ele>
        <time>2021-11-19T10:32:37Z</time>
      </trkpt>
      <trkpt lat="44.38453" lon="5.10526">
        <ele>389.8</ele>
        <time>2021-11-19T10:32:40Z</time>
      </trkpt>
      <trkpt lat="44.38459" lon="5.10522">
        <ele>390.2</ele>
        <time>2021-11-19T10:32:43Z</time>
      </trkpt>
      <trkpt lat="44.38463" lon="5.10519">
        <ele>390.4</ele>
        <time>2021-11-19T10:32:44Z</time>
      </trkpt>
      <trkpt lat="44.38467" lon="5.10516">
        <ele>390.7</ele>
        <time>2021-11-19T10:32:46Z</time>
      </trkpt>
      <trkpt lat="44.38472" lon="5.10515">
        <ele>391</ele>
        <time>2021-11-19T10:32:48Z</time>
      </trkpt>
      <trkpt lat="44.3848" lon="5.10514">
        <ele>391.5</ele>
        <time>2021-11-19T10:32:50Z</time>
      </trkpt>
      <trkpt lat="44.38487" lon="5.10513">
        <ele>391.9</ele>
        <time>2021-11-19T10:32:52Z</time>
      </trkpt>
      <trkpt lat="44.38494" lon="5.10512">
        <ele>392.4</ele>
        <time>2021-11-19T10:32:55Z</time>
      </trkpt>
      <trkpt lat="44.38498" lon="5.10511">
        <ele>392.7</ele>
        <time>2021-11-19T10:32:56Z</time>
      </trkpt>
      <trkpt lat="44.385" lon="5.1051">
        <ele>392.8</ele>
        <time>2021-11-19T10:32:57Z</time>
      </trkpt>
      <trkpt lat="44.38503" lon="5.10508">
        <ele>393.1</ele>
        <time>2021-11-19T10:32:59Z</time>
      </trkpt>
      <trkpt lat="44.38505" lon="5.10507">
        <ele>393.2</ele>
        <time>2021-11-19T10:33:00Z</time>
      </trkpt>
      <trkpt lat="44.38509" lon="5.10502">
        <ele>393.7</ele>
        <time>2021-11-19T10:33:03Z</time>
      </trkpt>
      <trkpt lat="44.38513" lon="5.105">
        <ele>394.1</ele>
        <time>2021-11-19T10:33:05Z</time>
      </trkpt>
      <trkpt lat="44.38516" lon="5.10497">
        <ele>394.3</ele>
        <time>2021-11-19T10:33:06Z</time>
      </trkpt>
      <trkpt lat="44.38519" lon="5.10495">
        <ele>394.6</ele>
        <time>2021-11-19T10:33:08Z</time>
      </trkpt>
      <trkpt lat="44.38521" lon="5.10494">
        <ele>394.7</ele>
        <time>2021-11-19T10:33:09Z</time>
      </trkpt>
      <trkpt lat="44.38524" lon="5.10491">
        <ele>395.1</ele>
        <time>2021-11-19T10:33:12Z</time>
      </trkpt>
      <trkpt lat="44.38526" lon="5.10489">
        <ele>395.3</ele>
        <time>2021-11-19T10:33:13Z</time>
      </trkpt>
      <trkpt lat="44.38529" lon="5.10486">
        <ele>395.6</ele>
        <time>2021-11-19T10:33:15Z</time>
      </trkpt>
      <trkpt lat="44.38532" lon="5.10484">
        <ele>395.9</ele>
        <time>2021-11-19T10:33:17Z</time>
      </trkpt>
      <trkpt lat="44.38536" lon="5.10481">
        <ele>396.2</ele>
        <time>2021-11-19T10:33:19Z</time>
      </trkpt>
      <trkpt lat="44.38538" lon="5.10479">
        <ele>396.5</ele>
        <time>2021-11-19T10:33:21Z</time>
      </trkpt>
      <trkpt lat="44.38544" lon="5.10474">
        <ele>397.1</ele>
        <time>2021-11-19T10:33:23Z</time>
      </trkpt>
      <trkpt lat="44.38548" lon="5.10472">
        <ele>397.4</ele>
        <time>2021-11-19T10:33:25Z</time>
      </trkpt>
      <trkpt lat="44.38551" lon="5.10471">
        <ele>397.7</ele>
        <time>2021-11-19T10:33:26Z</time>
      </trkpt>
      <trkpt lat="44.38557" lon="5.10468">
        <ele>398.1</ele>
        <time>2021-11-19T10:33:28Z</time>
      </trkpt>
      <trkpt lat="44.38561" lon="5.10465">
        <ele>398.5</ele>
        <time>2021-11-19T10:33:29Z</time>
      </trkpt>
      <trkpt lat="44.38565" lon="5.10463">
        <ele>398.9</ele>
        <time>2021-11-19T10:33:32Z</time>
      </trkpt>
      <trkpt lat="44.38568" lon="5.10461">
        <ele>399.1</ele>
        <time>2021-11-19T10:33:33Z</time>
      </trkpt>
      <trkpt lat="44.38573" lon="5.10457">
        <ele>399.5</ele>
        <time>2021-11-19T10:33:35Z</time>
      </trkpt>
      <trkpt lat="44.38576" lon="5.10454">
        <ele>399.9</ele>
        <time>2021-11-19T10:33:37Z</time>
      </trkpt>
      <trkpt lat="44.3858" lon="5.10451">
        <ele>400.2</ele>
        <time>2021-11-19T10:33:38Z</time>
      </trkpt>
      <trkpt lat="44.38582" lon="5.1045">
        <ele>400.3</ele>
        <time>2021-11-19T10:33:39Z</time>
      </trkpt>
      <trkpt lat="44.38584" lon="5.10449">
        <ele>400.5</ele>
        <time>2021-11-19T10:33:42Z</time>
      </trkpt>
      <trkpt lat="44.38586" lon="5.10447">
        <ele>400.8</ele>
        <time>2021-11-19T10:33:43Z</time>
      </trkpt>
      <trkpt lat="44.38591" lon="5.10444">
        <ele>401.2</ele>
        <time>2021-11-19T10:33:45Z</time>
      </trkpt>
      <trkpt lat="44.38594" lon="5.1044">
        <ele>401.5</ele>
        <time>2021-11-19T10:33:47Z</time>
      </trkpt>
      <trkpt lat="44.38597" lon="5.10435">
        <ele>401.9</ele>
        <time>2021-11-19T10:33:50Z</time>
      </trkpt>
      <trkpt lat="44.38602" lon="5.10429">
        <ele>402.4</ele>
        <time>2021-11-19T10:33:52Z</time>
      </trkpt>
      <trkpt lat="44.38605" lon="5.10427">
        <ele>402.7</ele>
        <time>2021-11-19T10:33:54Z</time>
      </trkpt>
      <trkpt lat="44.3861" lon="5.10424">
        <ele>403.1</ele>
        <time>2021-11-19T10:33:57Z</time>
      </trkpt>
      <trkpt lat="44.38616" lon="5.10421">
        <ele>403.5</ele>
        <time>2021-11-19T10:33:59Z</time>
      </trkpt>
      <trkpt lat="44.3862" lon="5.10419">
        <ele>403.8</ele>
        <time>2021-11-19T10:34:01Z</time>
      </trkpt>
      <trkpt lat="44.38623" lon="5.10419">
        <ele>404.1</ele>
        <time>2021-11-19T10:34:03Z</time>
      </trkpt>
      <trkpt lat="44.38627" lon="5.10417">
        <ele>404.3</ele>
        <time>2021-11-19T10:34:04Z</time>
      </trkpt>
      <trkpt lat="44.38632" lon="5.10416">
        <ele>404.6</ele>
        <time>2021-11-19T10:34:06Z</time>
      </trkpt>
      <trkpt lat="44.38634" lon="5.10418">
        <ele>404.8</ele>
        <time>2021-11-19T10:34:07Z</time>
      </trkpt>
      <trkpt lat="44.38639" lon="5.10422">
        <ele>405.1</ele>
        <time>2021-11-19T10:34:08Z</time>
      </trkpt>
      <trkpt lat="44.38642" lon="5.10425">
        <ele>405.3</ele>
        <time>2021-11-19T10:34:10Z</time>
      </trkpt>
      <trkpt lat="44.38648" lon="5.1043">
        <ele>405.6</ele>
        <time>2021-11-19T10:34:11Z</time>
      </trkpt>
      <trkpt lat="44.38652" lon="5.10433">
        <ele>405.7</ele>
        <time>2021-11-19T10:34:13Z</time>
      </trkpt>
      <trkpt lat="44.38654" lon="5.10434">
        <ele>405.8</ele>
        <time>2021-11-19T10:34:15Z</time>
      </trkpt>
      <trkpt lat="44.3865" lon="5.10435">
        <ele>405.9</ele>
        <time>2021-11-19T10:34:17Z</time>
      </trkpt>
      <trkpt lat="44.38647" lon="5.10435">
        <ele>406</ele>
        <time>2021-11-19T10:34:18Z</time>
      </trkpt>
      <trkpt lat="44.38633" lon="5.10436">
        <ele>406.1</ele>
        <time>2021-11-19T10:34:20Z</time>
      </trkpt>
      <trkpt lat="44.38645" lon="5.10434">
        <ele>405.9</ele>
        <time>2021-11-19T10:34:23Z</time>
      </trkpt>
      <trkpt lat="44.38645" lon="5.10434">
        <ele>405.9</ele>
        <time>2021-11-19T10:34:23Z</time>
      </trkpt>
      <trkpt lat="44.38652" lon="5.10429">
        <ele>405.7</ele>
        <time>2021-11-19T10:34:24Z</time>
      </trkpt>
      <trkpt lat="44.38658" lon="5.10426">
        <ele>405.5</ele>
        <time>2021-11-19T10:34:26Z</time>
      </trkpt>
      <trkpt lat="44.3867" lon="5.10413">
        <ele>405.1</ele>
        <time>2021-11-19T10:34:28Z</time>
      </trkpt>
      <trkpt lat="44.38677" lon="5.10415">
        <ele>404.9</ele>
        <time>2021-11-19T10:34:30Z</time>
      </trkpt>
      <trkpt lat="44.3869" lon="5.10414">
        <ele>404.8</ele>
        <time>2021-11-19T10:34:31Z</time>
      </trkpt>
      <trkpt lat="44.38691" lon="5.10403">
        <ele>404.8</ele>
        <time>2021-11-19T10:34:33Z</time>
      </trkpt>
      <trkpt lat="44.38694" lon="5.10385">
        <ele>404.9</ele>
        <time>2021-11-19T10:34:35Z</time>
      </trkpt>
      <trkpt lat="44.38696" lon="5.10377">
        <ele>405</ele>
        <time>2021-11-19T10:34:36Z</time>
      </trkpt>
      <trkpt lat="44.387" lon="5.10367">
        <ele>405.3</ele>
        <time>2021-11-19T10:34:38Z</time>
      </trkpt>
      <trkpt lat="44.38701" lon="5.10355">
        <ele>405.7</ele>
        <time>2021-11-19T10:34:40Z</time>
      </trkpt>
      <trkpt lat="44.38705" lon="5.10348">
        <ele>406.2</ele>
        <time>2021-11-19T10:34:41Z</time>
      </trkpt>
      <trkpt lat="44.38708" lon="5.10345">
        <ele>406.4</ele>
        <time>2021-11-19T10:34:43Z</time>
      </trkpt>
      <trkpt lat="44.38709" lon="5.10343">
        <ele>406.6</ele>
        <time>2021-11-19T10:34:44Z</time>
      </trkpt>
      <trkpt lat="44.38712" lon="5.1034">
        <ele>406.9</ele>
        <time>2021-11-19T10:34:45Z</time>
      </trkpt>
      <trkpt lat="44.38714" lon="5.10338">
        <ele>407.1</ele>
        <time>2021-11-19T10:34:47Z</time>
      </trkpt>
      <trkpt lat="44.38716" lon="5.10333">
        <ele>407.5</ele>
        <time>2021-11-19T10:34:50Z</time>
      </trkpt>
      <trkpt lat="44.38718" lon="5.10326">
        <ele>407.9</ele>
        <time>2021-11-19T10:34:52Z</time>
      </trkpt>
      <trkpt lat="44.38719" lon="5.10321">
        <ele>408.3</ele>
        <time>2021-11-19T10:34:53Z</time>
      </trkpt>
      <trkpt lat="44.38721" lon="5.10319">
        <ele>408.5</ele>
        <time>2021-11-19T10:34:54Z</time>
      </trkpt>
      <trkpt lat="44.38723" lon="5.10321">
        <ele>408.8</ele>
        <time>2021-11-19T10:34:56Z</time>
      </trkpt>
      <trkpt lat="44.38724" lon="5.10322">
        <ele>408.8</ele>
        <time>2021-11-19T10:34:57Z</time>
      </trkpt>
      <trkpt lat="44.38724" lon="5.10321">
        <ele>408.9</ele>
        <time>2021-11-19T10:34:59Z</time>
      </trkpt>
      <trkpt lat="44.38724" lon="5.10319">
        <ele>409</ele>
        <time>2021-11-19T10:35:01Z</time>
      </trkpt>
      <trkpt lat="44.38724" lon="5.10317">
        <ele>409.1</ele>
        <time>2021-11-19T10:35:02Z</time>
      </trkpt>
      <trkpt lat="44.38724" lon="5.10315">
        <ele>409.3</ele>
        <time>2021-11-19T10:35:04Z</time>
      </trkpt>
      <trkpt lat="44.38724" lon="5.10311">
        <ele>409.6</ele>
        <time>2021-11-19T10:35:06Z</time>
      </trkpt>
      <trkpt lat="44.38721" lon="5.10302">
        <ele>410.2</ele>
        <time>2021-11-19T10:35:08Z</time>
      </trkpt>
      <trkpt lat="44.3872" lon="5.10295">
        <ele>410.8</ele>
        <time>2021-11-19T10:35:10Z</time>
      </trkpt>
      <trkpt lat="44.38719" lon="5.10291">
        <ele>411.1</ele>
        <time>2021-11-19T10:35:11Z</time>
      </trkpt>
      <trkpt lat="44.38719" lon="5.10286">
        <ele>411.5</ele>
        <time>2021-11-19T10:35:12Z</time>
      </trkpt>
      <trkpt lat="44.38719" lon="5.10284">
        <ele>411.7</ele>
        <time>2021-11-19T10:35:13Z</time>
      </trkpt>
      <trkpt lat="44.38718" lon="5.10281">
        <ele>411.9</ele>
        <time>2021-11-19T10:35:14Z</time>
      </trkpt>
      <trkpt lat="44.38715" lon="5.10274">
        <ele>412.6</ele>
        <time>2021-11-19T10:35:16Z</time>
      </trkpt>
      <trkpt lat="44.38713" lon="5.10273">
        <ele>412.8</ele>
        <time>2021-11-19T10:35:17Z</time>
      </trkpt>
      <trkpt lat="44.38711" lon="5.10273">
        <ele>413</ele>
        <time>2021-11-19T10:35:18Z</time>
      </trkpt>
      <trkpt lat="44.3871" lon="5.1027">
        <ele>413.4</ele>
        <time>2021-11-19T10:35:20Z</time>
      </trkpt>
      <trkpt lat="44.38708" lon="5.10265">
        <ele>413.8</ele>
        <time>2021-11-19T10:35:21Z</time>
      </trkpt>
      <trkpt lat="44.38706" lon="5.1026">
        <ele>414.2</ele>
        <time>2021-11-19T10:35:22Z</time>
      </trkpt>
      <trkpt lat="44.38705" lon="5.10258">
        <ele>414.5</ele>
        <time>2021-11-19T10:35:23Z</time>
      </trkpt>
      <trkpt lat="44.38703" lon="5.1025">
        <ele>415.2</ele>
        <time>2021-11-19T10:35:25Z</time>
      </trkpt>
      <trkpt lat="44.38701" lon="5.10246">
        <ele>415.5</ele>
        <time>2021-11-19T10:35:27Z</time>
      </trkpt>
      <trkpt lat="44.387" lon="5.1024">
        <ele>416</ele>
        <time>2021-11-19T10:35:29Z</time>
      </trkpt>
      <trkpt lat="44.387" lon="5.10236">
        <ele>416.3</ele>
        <time>2021-11-19T10:35:31Z</time>
      </trkpt>
      <trkpt lat="44.38699" lon="5.10231">
        <ele>416.7</ele>
        <time>2021-11-19T10:35:33Z</time>
      </trkpt>
      <trkpt lat="44.38697" lon="5.10225">
        <ele>417.2</ele>
        <time>2021-11-19T10:35:35Z</time>
      </trkpt>
      <trkpt lat="44.38694" lon="5.10219">
        <ele>417.7</ele>
        <time>2021-11-19T10:35:37Z</time>
      </trkpt>
      <trkpt lat="44.38688" lon="5.10215">
        <ele>418.3</ele>
        <time>2021-11-19T10:35:39Z</time>
      </trkpt>
      <trkpt lat="44.38681" lon="5.10213">
        <ele>419.1</ele>
        <time>2021-11-19T10:35:41Z</time>
      </trkpt>
      <trkpt lat="44.38676" lon="5.10213">
        <ele>419.5</ele>
        <time>2021-11-19T10:35:42Z</time>
      </trkpt>
      <trkpt lat="44.38672" lon="5.10214">
        <ele>419.9</ele>
        <time>2021-11-19T10:35:43Z</time>
      </trkpt>
      <trkpt lat="44.3867" lon="5.10216">
        <ele>420.2</ele>
        <time>2021-11-19T10:35:44Z</time>
      </trkpt>
      <trkpt lat="44.38667" lon="5.10217">
        <ele>420.5</ele>
        <time>2021-11-19T10:35:45Z</time>
      </trkpt>
      <trkpt lat="44.38664" lon="5.10218">
        <ele>420.9</ele>
        <time>2021-11-19T10:35:46Z</time>
      </trkpt>
      <trkpt lat="44.3866" lon="5.10218">
        <ele>421.2</ele>
        <time>2021-11-19T10:35:47Z</time>
      </trkpt>
      <trkpt lat="44.38658" lon="5.10217">
        <ele>421.4</ele>
        <time>2021-11-19T10:35:48Z</time>
      </trkpt>
      <trkpt lat="44.38658" lon="5.10215">
        <ele>421.6</ele>
        <time>2021-11-19T10:35:51Z</time>
      </trkpt>
      <trkpt lat="44.38657" lon="5.10213">
        <ele>421.8</ele>
        <time>2021-11-19T10:35:52Z</time>
      </trkpt>
      <trkpt lat="44.38656" lon="5.10211">
        <ele>421.9</ele>
        <time>2021-11-19T10:35:53Z</time>
      </trkpt>
      <trkpt lat="44.38654" lon="5.10209">
        <ele>422.2</ele>
        <time>2021-11-19T10:35:54Z</time>
      </trkpt>
      <trkpt lat="44.38653" lon="5.10207">
        <ele>422.4</ele>
        <time>2021-11-19T10:35:55Z</time>
      </trkpt>
      <trkpt lat="44.38651" lon="5.10202">
        <ele>422.8</ele>
        <time>2021-11-19T10:35:57Z</time>
      </trkpt>
      <trkpt lat="44.38651" lon="5.10199">
        <ele>423.1</ele>
        <time>2021-11-19T10:35:58Z</time>
      </trkpt>
      <trkpt lat="44.38651" lon="5.10196">
        <ele>423.3</ele>
        <time>2021-11-19T10:36:00Z</time>
      </trkpt>
      <trkpt lat="44.3865" lon="5.10192">
        <ele>423.6</ele>
        <time>2021-11-19T10:36:01Z</time>
      </trkpt>
      <trkpt lat="44.3865" lon="5.10191">
        <ele>423.6</ele>
        <time>2021-11-19T10:36:02Z</time>
      </trkpt>
      <trkpt lat="44.38649" lon="5.10189">
        <ele>423.8</ele>
        <time>2021-11-19T10:36:03Z</time>
      </trkpt>
      <trkpt lat="44.38648" lon="5.10187">
        <ele>424</ele>
        <time>2021-11-19T10:36:04Z</time>
      </trkpt>
      <trkpt lat="44.38647" lon="5.10185">
        <ele>424.1</ele>
        <time>2021-11-19T10:36:05Z</time>
      </trkpt>
      <trkpt lat="44.38646" lon="5.10183">
        <ele>424.3</ele>
        <time>2021-11-19T10:36:06Z</time>
      </trkpt>
      <trkpt lat="44.38646" lon="5.10181">
        <ele>424.5</ele>
        <time>2021-11-19T10:36:07Z</time>
      </trkpt>
      <trkpt lat="44.38644" lon="5.10179">
        <ele>424.7</ele>
        <time>2021-11-19T10:36:08Z</time>
      </trkpt>
      <trkpt lat="44.38642" lon="5.10176">
        <ele>425</ele>
        <time>2021-11-19T10:36:09Z</time>
      </trkpt>
      <trkpt lat="44.38641" lon="5.10175">
        <ele>425.2</ele>
        <time>2021-11-19T10:36:10Z</time>
      </trkpt>
      <trkpt lat="44.38638" lon="5.10172">
        <ele>425.6</ele>
        <time>2021-11-19T10:36:11Z</time>
      </trkpt>
      <trkpt lat="44.38637" lon="5.10171">
        <ele>425.7</ele>
        <time>2021-11-19T10:36:12Z</time>
      </trkpt>
      <trkpt lat="44.38634" lon="5.10167">
        <ele>426.1</ele>
        <time>2021-11-19T10:36:13Z</time>
      </trkpt>
      <trkpt lat="44.38633" lon="5.10166">
        <ele>426.2</ele>
        <time>2021-11-19T10:36:14Z</time>
      </trkpt>
      <trkpt lat="44.38631" lon="5.10163">
        <ele>426.6</ele>
        <time>2021-11-19T10:36:16Z</time>
      </trkpt>
      <trkpt lat="44.38629" lon="5.1016">
        <ele>426.9</ele>
        <time>2021-11-19T10:36:17Z</time>
      </trkpt>
      <trkpt lat="44.38628" lon="5.10158">
        <ele>427</ele>
        <time>2021-11-19T10:36:18Z</time>
      </trkpt>
      <trkpt lat="44.38626" lon="5.10154">
        <ele>427.5</ele>
        <time>2021-11-19T10:36:20Z</time>
      </trkpt>
      <trkpt lat="44.38625" lon="5.10149">
        <ele>427.8</ele>
        <time>2021-11-19T10:36:22Z</time>
      </trkpt>
      <trkpt lat="44.38624" lon="5.10145">
        <ele>428.2</ele>
        <time>2021-11-19T10:36:23Z</time>
      </trkpt>
      <trkpt lat="44.38623" lon="5.10144">
        <ele>428.3</ele>
        <time>2021-11-19T10:36:24Z</time>
      </trkpt>
      <trkpt lat="44.38622" lon="5.1014">
        <ele>428.6</ele>
        <time>2021-11-19T10:36:25Z</time>
      </trkpt>
      <trkpt lat="44.38622" lon="5.10136">
        <ele>429</ele>
        <time>2021-11-19T10:36:27Z</time>
      </trkpt>
      <trkpt lat="44.38622" lon="5.10134">
        <ele>429.1</ele>
        <time>2021-11-19T10:36:28Z</time>
      </trkpt>
      <trkpt lat="44.38623" lon="5.10128">
        <ele>429.6</ele>
        <time>2021-11-19T10:36:30Z</time>
      </trkpt>
      <trkpt lat="44.38624" lon="5.10123">
        <ele>429.9</ele>
        <time>2021-11-19T10:36:31Z</time>
      </trkpt>
      <trkpt lat="44.38624" lon="5.10122">
        <ele>430</ele>
        <time>2021-11-19T10:36:32Z</time>
      </trkpt>
      <trkpt lat="44.38625" lon="5.10125">
        <ele>430.2</ele>
        <time>2021-11-19T10:36:33Z</time>
      </trkpt>
      <trkpt lat="44.38626" lon="5.10132">
        <ele>430.6</ele>
        <time>2021-11-19T10:36:36Z</time>
      </trkpt>
      <trkpt lat="44.38626" lon="5.10136">
        <ele>430.9</ele>
        <time>2021-11-19T10:36:37Z</time>
      </trkpt>
      <trkpt lat="44.38626" lon="5.10139">
        <ele>431</ele>
        <time>2021-11-19T10:36:38Z</time>
      </trkpt>
      <trkpt lat="44.38627" lon="5.10141">
        <ele>431.2</ele>
        <time>2021-11-19T10:36:39Z</time>
      </trkpt>
      <trkpt lat="44.38632" lon="5.10143">
        <ele>431.5</ele>
        <time>2021-11-19T10:36:41Z</time>
      </trkpt>
      <trkpt lat="44.38637" lon="5.10133">
        <ele>431.9</ele>
        <time>2021-11-19T10:36:43Z</time>
      </trkpt>
      <trkpt lat="44.38645" lon="5.10123">
        <ele>432.1</ele>
        <time>2021-11-19T10:36:45Z</time>
      </trkpt>
      <trkpt lat="44.38649" lon="5.10116">
        <ele>432.3</ele>
        <time>2021-11-19T10:36:46Z</time>
      </trkpt>
      <trkpt lat="44.38652" lon="5.10111">
        <ele>432.3</ele>
        <time>2021-11-19T10:36:48Z</time>
      </trkpt>
      <trkpt lat="44.38655" lon="5.10106">
        <ele>432.4</ele>
        <time>2021-11-19T10:36:49Z</time>
      </trkpt>
      <trkpt lat="44.3866" lon="5.10099">
        <ele>432.4</ele>
        <time>2021-11-19T10:36:50Z</time>
      </trkpt>
      <trkpt lat="44.38664" lon="5.10094">
        <ele>432.4</ele>
        <time>2021-11-19T10:36:52Z</time>
      </trkpt>
      <trkpt lat="44.38667" lon="5.10089">
        <ele>432.4</ele>
        <time>2021-11-19T10:36:53Z</time>
      </trkpt>
      <trkpt lat="44.3867" lon="5.10084">
        <ele>432.4</ele>
        <time>2021-11-19T10:36:54Z</time>
      </trkpt>
      <trkpt lat="44.38674" lon="5.10078">
        <ele>432.4</ele>
        <time>2021-11-19T10:36:55Z</time>
      </trkpt>
      <trkpt lat="44.38678" lon="5.10076">
        <ele>432.4</ele>
        <time>2021-11-19T10:36:57Z</time>
      </trkpt>
      <trkpt lat="44.38681" lon="5.10075">
        <ele>432.4</ele>
        <time>2021-11-19T10:36:58Z</time>
      </trkpt>
      <trkpt lat="44.38691" lon="5.10069">
        <ele>432.3</ele>
        <time>2021-11-19T10:37:00Z</time>
      </trkpt>
      <trkpt lat="44.38696" lon="5.10062">
        <ele>432.2</ele>
        <time>2021-11-19T10:37:01Z</time>
      </trkpt>
      <trkpt lat="44.38701" lon="5.10056">
        <ele>432.2</ele>
        <time>2021-11-19T10:37:03Z</time>
      </trkpt>
      <trkpt lat="44.38709" lon="5.10045">
        <ele>432.1</ele>
        <time>2021-11-19T10:37:05Z</time>
      </trkpt>
      <trkpt lat="44.38716" lon="5.10038">
        <ele>431.8</ele>
        <time>2021-11-19T10:37:07Z</time>
      </trkpt>
      <trkpt lat="44.3872" lon="5.10031">
        <ele>431.5</ele>
        <time>2021-11-19T10:37:09Z</time>
      </trkpt>
      <trkpt lat="44.38727" lon="5.10033">
        <ele>431</ele>
        <time>2021-11-19T10:37:12Z</time>
      </trkpt>
      <trkpt lat="44.3873" lon="5.10032">
        <ele>430.8</ele>
        <time>2021-11-19T10:37:13Z</time>
      </trkpt>
      <trkpt lat="44.38736" lon="5.1003">
        <ele>430.3</ele>
        <time>2021-11-19T10:37:14Z</time>
      </trkpt>
      <trkpt lat="44.38743" lon="5.10028">
        <ele>429.8</ele>
        <time>2021-11-19T10:37:15Z</time>
      </trkpt>
      <trkpt lat="44.38751" lon="5.10027">
        <ele>429.2</ele>
        <time>2021-11-19T10:37:16Z</time>
      </trkpt>
      <trkpt lat="44.38759" lon="5.10027">
        <ele>428.5</ele>
        <time>2021-11-19T10:37:17Z</time>
      </trkpt>
      <trkpt lat="44.38768" lon="5.10024">
        <ele>427.9</ele>
        <time>2021-11-19T10:37:18Z</time>
      </trkpt>
      <trkpt lat="44.38778" lon="5.10023">
        <ele>427.3</ele>
        <time>2021-11-19T10:37:19Z</time>
      </trkpt>
      <trkpt lat="44.38787" lon="5.10022">
        <ele>426.7</ele>
        <time>2021-11-19T10:37:20Z</time>
      </trkpt>
      <trkpt lat="44.38797" lon="5.10022">
        <ele>426.3</ele>
        <time>2021-11-19T10:37:21Z</time>
      </trkpt>
      <trkpt lat="44.38806" lon="5.10021">
        <ele>425.9</ele>
        <time>2021-11-19T10:37:22Z</time>
      </trkpt>
      <trkpt lat="44.38817" lon="5.10021">
        <ele>425.7</ele>
        <time>2021-11-19T10:37:23Z</time>
      </trkpt>
      <trkpt lat="44.38827" lon="5.1002">
        <ele>425.5</ele>
        <time>2021-11-19T10:37:24Z</time>
      </trkpt>
      <trkpt lat="44.38835" lon="5.10019">
        <ele>425.4</ele>
        <time>2021-11-19T10:37:25Z</time>
      </trkpt>
      <trkpt lat="44.38845" lon="5.10018">
        <ele>425.4</ele>
        <time>2021-11-19T10:37:26Z</time>
      </trkpt>
      <trkpt lat="44.38853" lon="5.10017">
        <ele>425.3</ele>
        <time>2021-11-19T10:37:27Z</time>
      </trkpt>
      <trkpt lat="44.38861" lon="5.10017">
        <ele>425.3</ele>
        <time>2021-11-19T10:37:28Z</time>
      </trkpt>
      <trkpt lat="44.38868" lon="5.10019">
        <ele>425.3</ele>
        <time>2021-11-19T10:37:29Z</time>
      </trkpt>
      <trkpt lat="44.38874" lon="5.1002">
        <ele>425.4</ele>
        <time>2021-11-19T10:37:30Z</time>
      </trkpt>
      <trkpt lat="44.3888" lon="5.1002">
        <ele>425.4</ele>
        <time>2021-11-19T10:37:31Z</time>
      </trkpt>
      <trkpt lat="44.38885" lon="5.1002">
        <ele>425.4</ele>
        <time>2021-11-19T10:37:32Z</time>
      </trkpt>
      <trkpt lat="44.3889" lon="5.10021">
        <ele>425.4</ele>
        <time>2021-11-19T10:37:33Z</time>
      </trkpt>
      <trkpt lat="44.38895" lon="5.10021">
        <ele>425.4</ele>
        <time>2021-11-19T10:37:34Z</time>
      </trkpt>
      <trkpt lat="44.389" lon="5.10022">
        <ele>425.4</ele>
        <time>2021-11-19T10:37:35Z</time>
      </trkpt>
      <trkpt lat="44.38905" lon="5.10024">
        <ele>425.3</ele>
        <time>2021-11-19T10:37:36Z</time>
      </trkpt>
      <trkpt lat="44.38911" lon="5.10024">
        <ele>425.3</ele>
        <time>2021-11-19T10:37:37Z</time>
      </trkpt>
      <trkpt lat="44.38917" lon="5.10025">
        <ele>425.1</ele>
        <time>2021-11-19T10:37:38Z</time>
      </trkpt>
      <trkpt lat="44.38922" lon="5.10024">
        <ele>425</ele>
        <time>2021-11-19T10:37:39Z</time>
      </trkpt>
      <trkpt lat="44.38928" lon="5.10023">
        <ele>424.8</ele>
        <time>2021-11-19T10:37:40Z</time>
      </trkpt>
      <trkpt lat="44.38934" lon="5.1002">
        <ele>424.5</ele>
        <time>2021-11-19T10:37:41Z</time>
      </trkpt>
      <trkpt lat="44.38941" lon="5.10016">
        <ele>424.2</ele>
        <time>2021-11-19T10:37:42Z</time>
      </trkpt>
      <trkpt lat="44.38947" lon="5.10012">
        <ele>423.8</ele>
        <time>2021-11-19T10:37:43Z</time>
      </trkpt>
      <trkpt lat="44.38953" lon="5.10009">
        <ele>423.4</ele>
        <time>2021-11-19T10:37:44Z</time>
      </trkpt>
      <trkpt lat="44.38959" lon="5.10006">
        <ele>423</ele>
        <time>2021-11-19T10:37:45Z</time>
      </trkpt>
      <trkpt lat="44.38965" lon="5.10003">
        <ele>422.6</ele>
        <time>2021-11-19T10:37:46Z</time>
      </trkpt>
      <trkpt lat="44.38971" lon="5.09999">
        <ele>422.1</ele>
        <time>2021-11-19T10:37:47Z</time>
      </trkpt>
      <trkpt lat="44.38976" lon="5.09992">
        <ele>421.6</ele>
        <time>2021-11-19T10:37:48Z</time>
      </trkpt>
      <trkpt lat="44.38981" lon="5.09985">
        <ele>421.1</ele>
        <time>2021-11-19T10:37:49Z</time>
      </trkpt>
      <trkpt lat="44.38986" lon="5.09978">
        <ele>420.5</ele>
        <time>2021-11-19T10:37:50Z</time>
      </trkpt>
      <trkpt lat="44.3899" lon="5.09971">
        <ele>420.1</ele>
        <time>2021-11-19T10:37:51Z</time>
      </trkpt>
      <trkpt lat="44.38989" lon="5.09965">
        <ele>419.8</ele>
        <time>2021-11-19T10:37:52Z</time>
      </trkpt>
      <trkpt lat="44.3898" lon="5.09952">
        <ele>419</ele>
        <time>2021-11-19T10:37:53Z</time>
      </trkpt>
      <trkpt lat="44.38978" lon="5.09944">
        <ele>418.8</ele>
        <time>2021-11-19T10:37:54Z</time>
      </trkpt>
      <trkpt lat="44.38976" lon="5.09942">
        <ele>418.7</ele>
        <time>2021-11-19T10:37:55Z</time>
      </trkpt>
      <trkpt lat="44.38976" lon="5.09941">
        <ele>418.7</ele>
        <time>2021-11-19T10:37:56Z</time>
      </trkpt>
      <trkpt lat="44.38975" lon="5.0994">
        <ele>418.7</ele>
        <time>2021-11-19T10:37:57Z</time>
      </trkpt>
      <trkpt lat="44.38975" lon="5.09939">
        <ele>418.7</ele>
        <time>2021-11-19T10:37:58Z</time>
      </trkpt>
      <trkpt lat="44.38975" lon="5.09939">
        <ele>418.7</ele>
        <time>2021-11-19T10:37:59Z</time>
      </trkpt>
      <trkpt lat="44.38975" lon="5.09939">
        <ele>418.6</ele>
        <time>2021-11-19T10:38:00Z</time>
      </trkpt>
      <trkpt lat="44.38976" lon="5.09937">
        <ele>418.6</ele>
        <time>2021-11-19T10:38:01Z</time>
      </trkpt>
      <trkpt lat="44.38976" lon="5.09937">
        <ele>418.6</ele>
        <time>2021-11-19T10:38:02Z</time>
      </trkpt>
      <trkpt lat="44.38976" lon="5.09936">
        <ele>418.6</ele>
        <time>2021-11-19T10:38:03Z</time>
      </trkpt>
      <trkpt lat="44.38975" lon="5.09936">
        <ele>418.6</ele>
        <time>2021-11-19T10:38:04Z</time>
      </trkpt>
      <trkpt lat="44.38975" lon="5.09936">
        <ele>418.6</ele>
        <time>2021-11-19T10:38:05Z</time>
      </trkpt>
      <trkpt lat="44.38975" lon="5.09936">
        <ele>418.6</ele>
        <time>2021-11-19T10:38:06Z</time>
      </trkpt>
      <trkpt lat="44.38975" lon="5.09936">
        <ele>418.6</ele>
        <time>2021-11-19T10:38:07Z</time>
      </trkpt>
      <trkpt lat="44.38981" lon="5.09929">
        <ele>418.3</ele>
        <time>2021-11-19T10:38:34Z</time>
      </trkpt>
      <trkpt lat="44.38988" lon="5.09922">
        <ele>417.9</ele>
        <time>2021-11-19T10:38:37Z</time>
      </trkpt>
      <trkpt lat="44.38991" lon="5.09919">
        <ele>417.7</ele>
        <time>2021-11-19T10:38:38Z</time>
      </trkpt>
      <trkpt lat="44.38992" lon="5.09918">
        <ele>417.7</ele>
        <time>2021-11-19T10:38:39Z</time>
      </trkpt>
      <trkpt lat="44.38994" lon="5.09915">
        <ele>417.5</ele>
        <time>2021-11-19T10:38:40Z</time>
      </trkpt>
      <trkpt lat="44.38997" lon="5.0991">
        <ele>417.3</ele>
        <time>2021-11-19T10:38:41Z</time>
      </trkpt>
      <trkpt lat="44.38998" lon="5.09897">
        <ele>416.8</ele>
        <time>2021-11-19T10:38:43Z</time>
      </trkpt>
      <trkpt lat="44.38997" lon="5.0988">
        <ele>416.4</ele>
        <time>2021-11-19T10:38:45Z</time>
      </trkpt>
      <trkpt lat="44.39026" lon="5.09895">
        <ele>415.8</ele>
        <time>2021-11-19T10:38:48Z</time>
      </trkpt>
      <trkpt lat="44.39031" lon="5.09892">
        <ele>415.8</ele>
        <time>2021-11-19T10:38:49Z</time>
      </trkpt>
      <trkpt lat="44.39037" lon="5.09889">
        <ele>415.8</ele>
        <time>2021-11-19T10:38:50Z</time>
      </trkpt>
      <trkpt lat="44.39042" lon="5.09886">
        <ele>415.9</ele>
        <time>2021-11-19T10:38:51Z</time>
      </trkpt>
      <trkpt lat="44.39047" lon="5.09883">
        <ele>416</ele>
        <time>2021-11-19T10:38:52Z</time>
      </trkpt>
      <trkpt lat="44.39052" lon="5.09881">
        <ele>416.1</ele>
        <time>2021-11-19T10:38:53Z</time>
      </trkpt>
      <trkpt lat="44.39057" lon="5.09877">
        <ele>416.2</ele>
        <time>2021-11-19T10:38:54Z</time>
      </trkpt>
      <trkpt lat="44.39061" lon="5.09872">
        <ele>416.3</ele>
        <time>2021-11-19T10:38:55Z</time>
      </trkpt>
      <trkpt lat="44.39067" lon="5.09859">
        <ele>416.4</ele>
        <time>2021-11-19T10:38:56Z</time>
      </trkpt>
      <trkpt lat="44.39076" lon="5.09854">
        <ele>416.4</ele>
        <time>2021-11-19T10:38:58Z</time>
      </trkpt>
      <trkpt lat="44.39077" lon="5.09844">
        <ele>416.3</ele>
        <time>2021-11-19T10:38:59Z</time>
      </trkpt>
      <trkpt lat="44.39077" lon="5.09834">
        <ele>416.1</ele>
        <time>2021-11-19T10:39:01Z</time>
      </trkpt>
      <trkpt lat="44.39078" lon="5.09829">
        <ele>416</ele>
        <time>2021-11-19T10:39:02Z</time>
      </trkpt>
      <trkpt lat="44.39083" lon="5.09816">
        <ele>415.7</ele>
        <time>2021-11-19T10:39:04Z</time>
      </trkpt>
      <trkpt lat="44.39088" lon="5.09807">
        <ele>415.5</ele>
        <time>2021-11-19T10:39:06Z</time>
      </trkpt>
      <trkpt lat="44.39096" lon="5.09803">
        <ele>415.2</ele>
        <time>2021-11-19T10:39:08Z</time>
      </trkpt>
      <trkpt lat="44.39098" lon="5.09792">
        <ele>414.8</ele>
        <time>2021-11-19T10:39:11Z</time>
      </trkpt>
      <trkpt lat="44.39101" lon="5.09785">
        <ele>414.6</ele>
        <time>2021-11-19T10:39:12Z</time>
      </trkpt>
      <trkpt lat="44.39105" lon="5.09778">
        <ele>414.3</ele>
        <time>2021-11-19T10:39:13Z</time>
      </trkpt>
      <trkpt lat="44.39109" lon="5.09769">
        <ele>414.1</ele>
        <time>2021-11-19T10:39:14Z</time>
      </trkpt>
      <trkpt lat="44.39113" lon="5.0976">
        <ele>413.8</ele>
        <time>2021-11-19T10:39:15Z</time>
      </trkpt>
      <trkpt lat="44.39118" lon="5.09751">
        <ele>413.5</ele>
        <time>2021-11-19T10:39:16Z</time>
      </trkpt>
      <trkpt lat="44.39123" lon="5.09741">
        <ele>413</ele>
        <time>2021-11-19T10:39:17Z</time>
      </trkpt>
      <trkpt lat="44.39128" lon="5.09732">
        <ele>412.5</ele>
        <time>2021-11-19T10:39:18Z</time>
      </trkpt>
      <trkpt lat="44.39132" lon="5.09723">
        <ele>412.1</ele>
        <time>2021-11-19T10:39:19Z</time>
      </trkpt>
      <trkpt lat="44.39137" lon="5.09714">
        <ele>411.6</ele>
        <time>2021-11-19T10:39:20Z</time>
      </trkpt>
      <trkpt lat="44.39141" lon="5.09705">
        <ele>411.3</ele>
        <time>2021-11-19T10:39:21Z</time>
      </trkpt>
      <trkpt lat="44.39145" lon="5.09696">
        <ele>410.8</ele>
        <time>2021-11-19T10:39:22Z</time>
      </trkpt>
      <trkpt lat="44.3915" lon="5.09687">
        <ele>410.5</ele>
        <time>2021-11-19T10:39:23Z</time>
      </trkpt>
      <trkpt lat="44.39154" lon="5.09679">
        <ele>410.2</ele>
        <time>2021-11-19T10:39:24Z</time>
      </trkpt>
      <trkpt lat="44.39159" lon="5.0967">
        <ele>409.8</ele>
        <time>2021-11-19T10:39:25Z</time>
      </trkpt>
      <trkpt lat="44.39163" lon="5.0966">
        <ele>409.5</ele>
        <time>2021-11-19T10:39:26Z</time>
      </trkpt>
      <trkpt lat="44.39167" lon="5.09652">
        <ele>409.3</ele>
        <time>2021-11-19T10:39:27Z</time>
      </trkpt>
      <trkpt lat="44.39171" lon="5.09644">
        <ele>409.1</ele>
        <time>2021-11-19T10:39:28Z</time>
      </trkpt>
      <trkpt lat="44.39175" lon="5.09635">
        <ele>409</ele>
        <time>2021-11-19T10:39:29Z</time>
      </trkpt>
      <trkpt lat="44.39179" lon="5.09626">
        <ele>408.8</ele>
        <time>2021-11-19T10:39:30Z</time>
      </trkpt>
      <trkpt lat="44.39182" lon="5.09618">
        <ele>408.8</ele>
        <time>2021-11-19T10:39:31Z</time>
      </trkpt>
      <trkpt lat="44.39185" lon="5.09609">
        <ele>408.7</ele>
        <time>2021-11-19T10:39:32Z</time>
      </trkpt>
      <trkpt lat="44.39188" lon="5.09602">
        <ele>408.7</ele>
        <time>2021-11-19T10:39:33Z</time>
      </trkpt>
      <trkpt lat="44.39192" lon="5.09594">
        <ele>408.6</ele>
        <time>2021-11-19T10:39:34Z</time>
      </trkpt>
      <trkpt lat="44.39196" lon="5.09587">
        <ele>408.6</ele>
        <time>2021-11-19T10:39:35Z</time>
      </trkpt>
      <trkpt lat="44.392" lon="5.09579">
        <ele>408.5</ele>
        <time>2021-11-19T10:39:36Z</time>
      </trkpt>
      <trkpt lat="44.39204" lon="5.09571">
        <ele>408.4</ele>
        <time>2021-11-19T10:39:37Z</time>
      </trkpt>
      <trkpt lat="44.39208" lon="5.09564">
        <ele>408.4</ele>
        <time>2021-11-19T10:39:38Z</time>
      </trkpt>
      <trkpt lat="44.39212" lon="5.09557">
        <ele>408.4</ele>
        <time>2021-11-19T10:39:39Z</time>
      </trkpt>
      <trkpt lat="44.39215" lon="5.0955">
        <ele>408.4</ele>
        <time>2021-11-19T10:39:40Z</time>
      </trkpt>
      <trkpt lat="44.39218" lon="5.09543">
        <ele>408.4</ele>
        <time>2021-11-19T10:39:41Z</time>
      </trkpt>
      <trkpt lat="44.39221" lon="5.09537">
        <ele>408.4</ele>
        <time>2021-11-19T10:39:42Z</time>
      </trkpt>
      <trkpt lat="44.39225" lon="5.09531">
        <ele>408.5</ele>
        <time>2021-11-19T10:39:43Z</time>
      </trkpt>
      <trkpt lat="44.39228" lon="5.09526">
        <ele>408.5</ele>
        <time>2021-11-19T10:39:44Z</time>
      </trkpt>
      <trkpt lat="44.3923" lon="5.0952">
        <ele>408.6</ele>
        <time>2021-11-19T10:39:45Z</time>
      </trkpt>
      <trkpt lat="44.39233" lon="5.09514">
        <ele>408.7</ele>
        <time>2021-11-19T10:39:46Z</time>
      </trkpt>
      <trkpt lat="44.39236" lon="5.09508">
        <ele>408.8</ele>
        <time>2021-11-19T10:39:47Z</time>
      </trkpt>
      <trkpt lat="44.39238" lon="5.09502">
        <ele>408.8</ele>
        <time>2021-11-19T10:39:48Z</time>
      </trkpt>
      <trkpt lat="44.3924" lon="5.09497">
        <ele>408.9</ele>
        <time>2021-11-19T10:39:49Z</time>
      </trkpt>
      <trkpt lat="44.39244" lon="5.09487">
        <ele>409</ele>
        <time>2021-11-19T10:39:50Z</time>
      </trkpt>
      <trkpt lat="44.39252" lon="5.09467">
        <ele>409.1</ele>
        <time>2021-11-19T10:39:53Z</time>
      </trkpt>
      <trkpt lat="44.39255" lon="5.0946">
        <ele>409</ele>
        <time>2021-11-19T10:39:54Z</time>
      </trkpt>
      <trkpt lat="44.39259" lon="5.09454">
        <ele>409</ele>
        <time>2021-11-19T10:39:55Z</time>
      </trkpt>
      <trkpt lat="44.39261" lon="5.09448">
        <ele>408.9</ele>
        <time>2021-11-19T10:39:56Z</time>
      </trkpt>
      <trkpt lat="44.39265" lon="5.09442">
        <ele>408.7</ele>
        <time>2021-11-19T10:39:57Z</time>
      </trkpt>
      <trkpt lat="44.39268" lon="5.09435">
        <ele>408.6</ele>
        <time>2021-11-19T10:39:58Z</time>
      </trkpt>
      <trkpt lat="44.39272" lon="5.09428">
        <ele>408.4</ele>
        <time>2021-11-19T10:39:59Z</time>
      </trkpt>
      <trkpt lat="44.39276" lon="5.09421">
        <ele>408.1</ele>
        <time>2021-11-19T10:40:00Z</time>
      </trkpt>
      <trkpt lat="44.39281" lon="5.09414">
        <ele>407.8</ele>
        <time>2021-11-19T10:40:01Z</time>
      </trkpt>
      <trkpt lat="44.39287" lon="5.09407">
        <ele>407.4</ele>
        <time>2021-11-19T10:40:02Z</time>
      </trkpt>
      <trkpt lat="44.39294" lon="5.09401">
        <ele>407</ele>
        <time>2021-11-19T10:40:03Z</time>
      </trkpt>
      <trkpt lat="44.39302" lon="5.09395">
        <ele>406.5</ele>
        <time>2021-11-19T10:40:04Z</time>
      </trkpt>
      <trkpt lat="44.3931" lon="5.0939">
        <ele>406.1</ele>
        <time>2021-11-19T10:40:05Z</time>
      </trkpt>
      <trkpt lat="44.39319" lon="5.09387">
        <ele>405.7</ele>
        <time>2021-11-19T10:40:06Z</time>
      </trkpt>
      <trkpt lat="44.39329" lon="5.09384">
        <ele>405.3</ele>
        <time>2021-11-19T10:40:07Z</time>
      </trkpt>
      <trkpt lat="44.39336" lon="5.09382">
        <ele>405</ele>
        <time>2021-11-19T10:40:08Z</time>
      </trkpt>
      <trkpt lat="44.39344" lon="5.09381">
        <ele>404.8</ele>
        <time>2021-11-19T10:40:09Z</time>
      </trkpt>
      <trkpt lat="44.39352" lon="5.0938">
        <ele>404.6</ele>
        <time>2021-11-19T10:40:10Z</time>
      </trkpt>
      <trkpt lat="44.3936" lon="5.09378">
        <ele>404.4</ele>
        <time>2021-11-19T10:40:11Z</time>
      </trkpt>
      <trkpt lat="44.39368" lon="5.09378">
        <ele>404.2</ele>
        <time>2021-11-19T10:40:12Z</time>
      </trkpt>
      <trkpt lat="44.39375" lon="5.09378">
        <ele>404.1</ele>
        <time>2021-11-19T10:40:13Z</time>
      </trkpt>
      <trkpt lat="44.39381" lon="5.09378">
        <ele>403.9</ele>
        <time>2021-11-19T10:40:14Z</time>
      </trkpt>
      <trkpt lat="44.39388" lon="5.09376">
        <ele>403.8</ele>
        <time>2021-11-19T10:40:15Z</time>
      </trkpt>
      <trkpt lat="44.39394" lon="5.09372">
        <ele>403.7</ele>
        <time>2021-11-19T10:40:16Z</time>
      </trkpt>
      <trkpt lat="44.39399" lon="5.09368">
        <ele>403.6</ele>
        <time>2021-11-19T10:40:17Z</time>
      </trkpt>
      <trkpt lat="44.39404" lon="5.09362">
        <ele>403.4</ele>
        <time>2021-11-19T10:40:18Z</time>
      </trkpt>
      <trkpt lat="44.39409" lon="5.09356">
        <ele>403.3</ele>
        <time>2021-11-19T10:40:19Z</time>
      </trkpt>
      <trkpt lat="44.39416" lon="5.09349">
        <ele>403.1</ele>
        <time>2021-11-19T10:40:20Z</time>
      </trkpt>
      <trkpt lat="44.39422" lon="5.09341">
        <ele>402.9</ele>
        <time>2021-11-19T10:40:21Z</time>
      </trkpt>
      <trkpt lat="44.39428" lon="5.09332">
        <ele>402.8</ele>
        <time>2021-11-19T10:40:22Z</time>
      </trkpt>
      <trkpt lat="44.39433" lon="5.09322">
        <ele>402.7</ele>
        <time>2021-11-19T10:40:23Z</time>
      </trkpt>
      <trkpt lat="44.39436" lon="5.09312">
        <ele>402.6</ele>
        <time>2021-11-19T10:40:24Z</time>
      </trkpt>
      <trkpt lat="44.39437" lon="5.09301">
        <ele>402.5</ele>
        <time>2021-11-19T10:40:25Z</time>
      </trkpt>
      <trkpt lat="44.39438" lon="5.09289">
        <ele>402.4</ele>
        <time>2021-11-19T10:40:26Z</time>
      </trkpt>
      <trkpt lat="44.39437" lon="5.09278">
        <ele>402.3</ele>
        <time>2021-11-19T10:40:27Z</time>
      </trkpt>
      <trkpt lat="44.39434" lon="5.09269">
        <ele>402.3</ele>
        <time>2021-11-19T10:40:28Z</time>
      </trkpt>
      <trkpt lat="44.3943" lon="5.0926">
        <ele>402.3</ele>
        <time>2021-11-19T10:40:29Z</time>
      </trkpt>
      <trkpt lat="44.39427" lon="5.09251">
        <ele>402.4</ele>
        <time>2021-11-19T10:40:30Z</time>
      </trkpt>
      <trkpt lat="44.39425" lon="5.09243">
        <ele>402.5</ele>
        <time>2021-11-19T10:40:31Z</time>
      </trkpt>
      <trkpt lat="44.39422" lon="5.09236">
        <ele>402.6</ele>
        <time>2021-11-19T10:40:32Z</time>
      </trkpt>
      <trkpt lat="44.3942" lon="5.09228">
        <ele>402.7</ele>
        <time>2021-11-19T10:40:33Z</time>
      </trkpt>
      <trkpt lat="44.39417" lon="5.09221">
        <ele>402.8</ele>
        <time>2021-11-19T10:40:34Z</time>
      </trkpt>
      <trkpt lat="44.39414" lon="5.09214">
        <ele>402.9</ele>
        <time>2021-11-19T10:40:35Z</time>
      </trkpt>
      <trkpt lat="44.39412" lon="5.09207">
        <ele>403</ele>
        <time>2021-11-19T10:40:36Z</time>
      </trkpt>
      <trkpt lat="44.39409" lon="5.092">
        <ele>403</ele>
        <time>2021-11-19T10:40:37Z</time>
      </trkpt>
      <trkpt lat="44.39406" lon="5.09192">
        <ele>403</ele>
        <time>2021-11-19T10:40:38Z</time>
      </trkpt>
      <trkpt lat="44.39404" lon="5.09185">
        <ele>403.1</ele>
        <time>2021-11-19T10:40:39Z</time>
      </trkpt>
      <trkpt lat="44.39403" lon="5.09178">
        <ele>403.1</ele>
        <time>2021-11-19T10:40:40Z</time>
      </trkpt>
      <trkpt lat="44.39403" lon="5.0917">
        <ele>403.3</ele>
        <time>2021-11-19T10:40:41Z</time>
      </trkpt>
      <trkpt lat="44.39404" lon="5.09164">
        <ele>403.4</ele>
        <time>2021-11-19T10:40:42Z</time>
      </trkpt>
      <trkpt lat="44.39406" lon="5.09158">
        <ele>403.5</ele>
        <time>2021-11-19T10:40:43Z</time>
      </trkpt>
      <trkpt lat="44.39407" lon="5.09152">
        <ele>403.7</ele>
        <time>2021-11-19T10:40:44Z</time>
      </trkpt>
      <trkpt lat="44.39409" lon="5.09147">
        <ele>403.8</ele>
        <time>2021-11-19T10:40:45Z</time>
      </trkpt>
      <trkpt lat="44.3941" lon="5.09141">
        <ele>404</ele>
        <time>2021-11-19T10:40:46Z</time>
      </trkpt>
      <trkpt lat="44.39412" lon="5.09133">
        <ele>404.2</ele>
        <time>2021-11-19T10:40:47Z</time>
      </trkpt>
      <trkpt lat="44.39408" lon="5.09138">
        <ele>404.4</ele>
        <time>2021-11-19T10:40:48Z</time>
      </trkpt>
      <trkpt lat="44.39411" lon="5.0913">
        <ele>404.7</ele>
        <time>2021-11-19T10:40:49Z</time>
      </trkpt>
      <trkpt lat="44.39411" lon="5.09116">
        <ele>405.2</ele>
        <time>2021-11-19T10:40:51Z</time>
      </trkpt>
      <trkpt lat="44.39419" lon="5.09103">
        <ele>405.9</ele>
        <time>2021-11-19T10:40:53Z</time>
      </trkpt>
      <trkpt lat="44.39431" lon="5.09095">
        <ele>406.6</ele>
        <time>2021-11-19T10:40:56Z</time>
      </trkpt>
      <trkpt lat="44.39439" lon="5.09087">
        <ele>407.1</ele>
        <time>2021-11-19T10:40:58Z</time>
      </trkpt>
      <trkpt lat="44.39443" lon="5.09084">
        <ele>407.3</ele>
        <time>2021-11-19T10:41:00Z</time>
      </trkpt>
      <trkpt lat="44.3945" lon="5.09078">
        <ele>407.7</ele>
        <time>2021-11-19T10:41:01Z</time>
      </trkpt>
      <trkpt lat="44.39453" lon="5.09076">
        <ele>407.9</ele>
        <time>2021-11-19T10:41:02Z</time>
      </trkpt>
      <trkpt lat="44.39455" lon="5.09074">
        <ele>408</ele>
        <time>2021-11-19T10:41:04Z</time>
      </trkpt>
      <trkpt lat="44.39458" lon="5.09071">
        <ele>408.2</ele>
        <time>2021-11-19T10:41:05Z</time>
      </trkpt>
      <trkpt lat="44.39462" lon="5.09067">
        <ele>408.4</ele>
        <time>2021-11-19T10:41:06Z</time>
      </trkpt>
      <trkpt lat="44.39466" lon="5.09062">
        <ele>408.7</ele>
        <time>2021-11-19T10:41:08Z</time>
      </trkpt>
      <trkpt lat="44.39471" lon="5.09055">
        <ele>408.9</ele>
        <time>2021-11-19T10:41:10Z</time>
      </trkpt>
      <trkpt lat="44.39471" lon="5.09051">
        <ele>409</ele>
        <time>2021-11-19T10:41:11Z</time>
      </trkpt>
      <trkpt lat="44.39472" lon="5.09049">
        <ele>409</ele>
        <time>2021-11-19T10:41:12Z</time>
      </trkpt>
      <trkpt lat="44.39473" lon="5.09041">
        <ele>409.2</ele>
        <time>2021-11-19T10:41:13Z</time>
      </trkpt>
      <trkpt lat="44.39474" lon="5.09035">
        <ele>409.3</ele>
        <time>2021-11-19T10:41:15Z</time>
      </trkpt>
      <trkpt lat="44.39476" lon="5.09027">
        <ele>409.5</ele>
        <time>2021-11-19T10:41:16Z</time>
      </trkpt>
      <trkpt lat="44.39478" lon="5.09015">
        <ele>409.6</ele>
        <time>2021-11-19T10:41:18Z</time>
      </trkpt>
      <trkpt lat="44.39478" lon="5.09008">
        <ele>409.7</ele>
        <time>2021-11-19T10:41:19Z</time>
      </trkpt>
      <trkpt lat="44.39478" lon="5.09002">
        <ele>409.8</ele>
        <time>2021-11-19T10:41:20Z</time>
      </trkpt>
      <trkpt lat="44.39478" lon="5.08988">
        <ele>410</ele>
        <time>2021-11-19T10:41:22Z</time>
      </trkpt>
      <trkpt lat="44.39479" lon="5.08978">
        <ele>410.1</ele>
        <time>2021-11-19T10:41:23Z</time>
      </trkpt>
      <trkpt lat="44.3948" lon="5.08964">
        <ele>410.3</ele>
        <time>2021-11-19T10:41:25Z</time>
      </trkpt>
      <trkpt lat="44.39481" lon="5.08952">
        <ele>410.2</ele>
        <time>2021-11-19T10:41:27Z</time>
      </trkpt>
      <trkpt lat="44.39482" lon="5.08942">
        <ele>410.2</ele>
        <time>2021-11-19T10:41:28Z</time>
      </trkpt>
      <trkpt lat="44.39483" lon="5.08936">
        <ele>410.1</ele>
        <time>2021-11-19T10:41:30Z</time>
      </trkpt>
      <trkpt lat="44.39485" lon="5.08919">
        <ele>410</ele>
        <time>2021-11-19T10:41:32Z</time>
      </trkpt>
      <trkpt lat="44.39486" lon="5.08913">
        <ele>409.9</ele>
        <time>2021-11-19T10:41:33Z</time>
      </trkpt>
      <trkpt lat="44.39485" lon="5.08923">
        <ele>409.8</ele>
        <time>2021-11-19T10:41:36Z</time>
      </trkpt>
      <trkpt lat="44.39486" lon="5.08918">
        <ele>409.7</ele>
        <time>2021-11-19T10:41:37Z</time>
      </trkpt>
      <trkpt lat="44.39487" lon="5.08911">
        <ele>409.6</ele>
        <time>2021-11-19T10:41:38Z</time>
      </trkpt>
      <trkpt lat="44.39488" lon="5.08905">
        <ele>409.6</ele>
        <time>2021-11-19T10:41:39Z</time>
      </trkpt>
      <trkpt lat="44.39489" lon="5.08898">
        <ele>409.5</ele>
        <time>2021-11-19T10:41:40Z</time>
      </trkpt>
      <trkpt lat="44.3949" lon="5.08891">
        <ele>409.4</ele>
        <time>2021-11-19T10:41:41Z</time>
      </trkpt>
      <trkpt lat="44.39491" lon="5.08884">
        <ele>409.3</ele>
        <time>2021-11-19T10:41:42Z</time>
      </trkpt>
      <trkpt lat="44.39492" lon="5.08877">
        <ele>409.2</ele>
        <time>2021-11-19T10:41:43Z</time>
      </trkpt>
      <trkpt lat="44.39493" lon="5.08871">
        <ele>409.1</ele>
        <time>2021-11-19T10:41:44Z</time>
      </trkpt>
      <trkpt lat="44.39495" lon="5.08865">
        <ele>408.9</ele>
        <time>2021-11-19T10:41:45Z</time>
      </trkpt>
      <trkpt lat="44.39496" lon="5.08859">
        <ele>408.8</ele>
        <time>2021-11-19T10:41:46Z</time>
      </trkpt>
      <trkpt lat="44.39498" lon="5.08853">
        <ele>408.7</ele>
        <time>2021-11-19T10:41:47Z</time>
      </trkpt>
      <trkpt lat="44.39499" lon="5.08846">
        <ele>408.6</ele>
        <time>2021-11-19T10:41:48Z</time>
      </trkpt>
      <trkpt lat="44.395" lon="5.08838">
        <ele>408.5</ele>
        <time>2021-11-19T10:41:49Z</time>
      </trkpt>
      <trkpt lat="44.39502" lon="5.08829">
        <ele>408.3</ele>
        <time>2021-11-19T10:41:50Z</time>
      </trkpt>
      <trkpt lat="44.39503" lon="5.08821">
        <ele>408.2</ele>
        <time>2021-11-19T10:41:51Z</time>
      </trkpt>
      <trkpt lat="44.39504" lon="5.08812">
        <ele>408.1</ele>
        <time>2021-11-19T10:41:52Z</time>
      </trkpt>
      <trkpt lat="44.39506" lon="5.08804">
        <ele>408</ele>
        <time>2021-11-19T10:41:53Z</time>
      </trkpt>
      <trkpt lat="44.39507" lon="5.08796">
        <ele>407.9</ele>
        <time>2021-11-19T10:41:54Z</time>
      </trkpt>
      <trkpt lat="44.39509" lon="5.08786">
        <ele>407.8</ele>
        <time>2021-11-19T10:41:55Z</time>
      </trkpt>
      <trkpt lat="44.39511" lon="5.08777">
        <ele>407.8</ele>
        <time>2021-11-19T10:41:56Z</time>
      </trkpt>
      <trkpt lat="44.39513" lon="5.08768">
        <ele>407.7</ele>
        <time>2021-11-19T10:41:57Z</time>
      </trkpt>
      <trkpt lat="44.39514" lon="5.08758">
        <ele>407.7</ele>
        <time>2021-11-19T10:41:58Z</time>
      </trkpt>
      <trkpt lat="44.39516" lon="5.08749">
        <ele>407.6</ele>
        <time>2021-11-19T10:41:59Z</time>
      </trkpt>
      <trkpt lat="44.39517" lon="5.08739">
        <ele>407.6</ele>
        <time>2021-11-19T10:42:00Z</time>
      </trkpt>
      <trkpt lat="44.39518" lon="5.0873">
        <ele>407.5</ele>
        <time>2021-11-19T10:42:01Z</time>
      </trkpt>
      <trkpt lat="44.39519" lon="5.08722">
        <ele>407.5</ele>
        <time>2021-11-19T10:42:02Z</time>
      </trkpt>
      <trkpt lat="44.3952" lon="5.08714">
        <ele>407.5</ele>
        <time>2021-11-19T10:42:03Z</time>
      </trkpt>
      <trkpt lat="44.39521" lon="5.08705">
        <ele>407.5</ele>
        <time>2021-11-19T10:42:04Z</time>
      </trkpt>
      <trkpt lat="44.39522" lon="5.08697">
        <ele>407.5</ele>
        <time>2021-11-19T10:42:05Z</time>
      </trkpt>
      <trkpt lat="44.39523" lon="5.08689">
        <ele>407.5</ele>
        <time>2021-11-19T10:42:06Z</time>
      </trkpt>
      <trkpt lat="44.39524" lon="5.08682">
        <ele>407.5</ele>
        <time>2021-11-19T10:42:07Z</time>
      </trkpt>
      <trkpt lat="44.39526" lon="5.08676">
        <ele>407.5</ele>
        <time>2021-11-19T10:42:08Z</time>
      </trkpt>
      <trkpt lat="44.39527" lon="5.08669">
        <ele>407.5</ele>
        <time>2021-11-19T10:42:09Z</time>
      </trkpt>
      <trkpt lat="44.39528" lon="5.08662">
        <ele>407.5</ele>
        <time>2021-11-19T10:42:10Z</time>
      </trkpt>
      <trkpt lat="44.3953" lon="5.08655">
        <ele>407.6</ele>
        <time>2021-11-19T10:42:11Z</time>
      </trkpt>
      <trkpt lat="44.39531" lon="5.08648">
        <ele>407.6</ele>
        <time>2021-11-19T10:42:12Z</time>
      </trkpt>
      <trkpt lat="44.39532" lon="5.08641">
        <ele>407.6</ele>
        <time>2021-11-19T10:42:13Z</time>
      </trkpt>
      <trkpt lat="44.39533" lon="5.08634">
        <ele>407.7</ele>
        <time>2021-11-19T10:42:14Z</time>
      </trkpt>
      <trkpt lat="44.39534" lon="5.08627">
        <ele>407.8</ele>
        <time>2021-11-19T10:42:15Z</time>
      </trkpt>
      <trkpt lat="44.39535" lon="5.08621">
        <ele>407.8</ele>
        <time>2021-11-19T10:42:16Z</time>
      </trkpt>
      <trkpt lat="44.39538" lon="5.08615">
        <ele>407.9</ele>
        <time>2021-11-19T10:42:17Z</time>
      </trkpt>
      <trkpt lat="44.3954" lon="5.08608">
        <ele>408</ele>
        <time>2021-11-19T10:42:18Z</time>
      </trkpt>
      <trkpt lat="44.39541" lon="5.08601">
        <ele>408.2</ele>
        <time>2021-11-19T10:42:19Z</time>
      </trkpt>
      <trkpt lat="44.39543" lon="5.08595">
        <ele>408.3</ele>
        <time>2021-11-19T10:42:20Z</time>
      </trkpt>
      <trkpt lat="44.39544" lon="5.0859">
        <ele>408.4</ele>
        <time>2021-11-19T10:42:21Z</time>
      </trkpt>
      <trkpt lat="44.39545" lon="5.08583">
        <ele>408.5</ele>
        <time>2021-11-19T10:42:22Z</time>
      </trkpt>
      <trkpt lat="44.39549" lon="5.08576">
        <ele>408.8</ele>
        <time>2021-11-19T10:42:23Z</time>
      </trkpt>
      <trkpt lat="44.39555" lon="5.08564">
        <ele>409.1</ele>
        <time>2021-11-19T10:42:24Z</time>
      </trkpt>
      <trkpt lat="44.39557" lon="5.08543">
        <ele>409.6</ele>
        <time>2021-11-19T10:42:27Z</time>
      </trkpt>
      <trkpt lat="44.39558" lon="5.08537">
        <ele>409.6</ele>
        <time>2021-11-19T10:42:28Z</time>
      </trkpt>
      <trkpt lat="44.3956" lon="5.08524">
        <ele>409.7</ele>
        <time>2021-11-19T10:42:29Z</time>
      </trkpt>
      <trkpt lat="44.3956" lon="5.08518">
        <ele>409.7</ele>
        <time>2021-11-19T10:42:30Z</time>
      </trkpt>
      <trkpt lat="44.39558" lon="5.08509">
        <ele>409.7</ele>
        <time>2021-11-19T10:42:32Z</time>
      </trkpt>
      <trkpt lat="44.39553" lon="5.08515">
        <ele>409.7</ele>
        <time>2021-11-19T10:42:35Z</time>
      </trkpt>
      <trkpt lat="44.39549" lon="5.08528">
        <ele>409.7</ele>
        <time>2021-11-19T10:42:38Z</time>
      </trkpt>
      <trkpt lat="44.39549" lon="5.08529">
        <ele>409.7</ele>
        <time>2021-11-19T10:42:39Z</time>
      </trkpt>
      <trkpt lat="44.39548" lon="5.08529">
        <ele>409.7</ele>
        <time>2021-11-19T10:42:41Z</time>
      </trkpt>
      <trkpt lat="44.39548" lon="5.08528">
        <ele>409.7</ele>
        <time>2021-11-19T10:42:44Z</time>
      </trkpt>
      <trkpt lat="44.39548" lon="5.08528">
        <ele>409.7</ele>
        <time>2021-11-19T10:42:45Z</time>
      </trkpt>
      <trkpt lat="44.39547" lon="5.08525">
        <ele>409.7</ele>
        <time>2021-11-19T10:43:13Z</time>
      </trkpt>
      <trkpt lat="44.39547" lon="5.08525">
        <ele>409.7</ele>
        <time>2021-11-19T10:43:14Z</time>
      </trkpt>
      <trkpt lat="44.39548" lon="5.08526">
        <ele>409.7</ele>
        <time>2021-11-19T10:43:15Z</time>
      </trkpt>
      <trkpt lat="44.39548" lon="5.08525">
        <ele>409.7</ele>
        <time>2021-11-19T10:43:17Z</time>
      </trkpt>
      <trkpt lat="44.39548" lon="5.08522">
        <ele>409.7</ele>
        <time>2021-11-19T10:43:20Z</time>
      </trkpt>
      <trkpt lat="44.39548" lon="5.08521">
        <ele>409.7</ele>
        <time>2021-11-19T10:43:21Z</time>
      </trkpt>
      <trkpt lat="44.39549" lon="5.0852">
        <ele>409.7</ele>
        <time>2021-11-19T10:43:22Z</time>
      </trkpt>
      <trkpt lat="44.39549" lon="5.08519">
        <ele>409.7</ele>
        <time>2021-11-19T10:43:23Z</time>
      </trkpt>
      <trkpt lat="44.39553" lon="5.08511">
        <ele>409.6</ele>
        <time>2021-11-19T10:43:25Z</time>
      </trkpt>
      <trkpt lat="44.39557" lon="5.08506">
        <ele>409.7</ele>
        <time>2021-11-19T10:43:26Z</time>
      </trkpt>
      <trkpt lat="44.39564" lon="5.08498">
        <ele>409.8</ele>
        <time>2021-11-19T10:43:27Z</time>
      </trkpt>
      <trkpt lat="44.39569" lon="5.08493">
        <ele>409.9</ele>
        <time>2021-11-19T10:43:28Z</time>
      </trkpt>
      <trkpt lat="44.39575" lon="5.08488">
        <ele>409.9</ele>
        <time>2021-11-19T10:43:30Z</time>
      </trkpt>
      <trkpt lat="44.3958" lon="5.08483">
        <ele>410</ele>
        <time>2021-11-19T10:43:31Z</time>
      </trkpt>
      <trkpt lat="44.39586" lon="5.08478">
        <ele>410.1</ele>
        <time>2021-11-19T10:43:32Z</time>
      </trkpt>
      <trkpt lat="44.39594" lon="5.08472">
        <ele>410.2</ele>
        <time>2021-11-19T10:43:33Z</time>
      </trkpt>
      <trkpt lat="44.39605" lon="5.08464">
        <ele>410.5</ele>
        <time>2021-11-19T10:43:35Z</time>
      </trkpt>
      <trkpt lat="44.39611" lon="5.08461">
        <ele>410.6</ele>
        <time>2021-11-19T10:43:36Z</time>
      </trkpt>
      <trkpt lat="44.39617" lon="5.08456">
        <ele>410.7</ele>
        <time>2021-11-19T10:43:37Z</time>
      </trkpt>
      <trkpt lat="44.39622" lon="5.08452">
        <ele>410.8</ele>
        <time>2021-11-19T10:43:38Z</time>
      </trkpt>
      <trkpt lat="44.39626" lon="5.08448">
        <ele>410.9</ele>
        <time>2021-11-19T10:43:39Z</time>
      </trkpt>
      <trkpt lat="44.39629" lon="5.08444">
        <ele>410.9</ele>
        <time>2021-11-19T10:43:42Z</time>
      </trkpt>
      <trkpt lat="44.39636" lon="5.08437">
        <ele>411</ele>
        <time>2021-11-19T10:43:43Z</time>
      </trkpt>
      <trkpt lat="44.39642" lon="5.08426">
        <ele>411.2</ele>
        <time>2021-11-19T10:43:46Z</time>
      </trkpt>
      <trkpt lat="44.39646" lon="5.08418">
        <ele>411.3</ele>
        <time>2021-11-19T10:43:47Z</time>
      </trkpt>
      <trkpt lat="44.39651" lon="5.08406">
        <ele>411.4</ele>
        <time>2021-11-19T10:43:49Z</time>
      </trkpt>
      <trkpt lat="44.39653" lon="5.08397">
        <ele>411.5</ele>
        <time>2021-11-19T10:43:50Z</time>
      </trkpt>
      <trkpt lat="44.39658" lon="5.08397">
        <ele>411.6</ele>
        <time>2021-11-19T10:43:53Z</time>
      </trkpt>
      <trkpt lat="44.3966" lon="5.08395">
        <ele>411.6</ele>
        <time>2021-11-19T10:43:54Z</time>
      </trkpt>
      <trkpt lat="44.39664" lon="5.08391">
        <ele>411.7</ele>
        <time>2021-11-19T10:43:55Z</time>
      </trkpt>
      <trkpt lat="44.39669" lon="5.08387">
        <ele>411.9</ele>
        <time>2021-11-19T10:43:56Z</time>
      </trkpt>
      <trkpt lat="44.39673" lon="5.08383">
        <ele>412</ele>
        <time>2021-11-19T10:43:57Z</time>
      </trkpt>
      <trkpt lat="44.39681" lon="5.08372">
        <ele>412.3</ele>
        <time>2021-11-19T10:43:58Z</time>
      </trkpt>
      <trkpt lat="44.39693" lon="5.08359">
        <ele>412.6</ele>
        <time>2021-11-19T10:44:01Z</time>
      </trkpt>
      <trkpt lat="44.39695" lon="5.0836">
        <ele>412.7</ele>
        <time>2021-11-19T10:44:02Z</time>
      </trkpt>
      <trkpt lat="44.397" lon="5.08353">
        <ele>412.9</ele>
        <time>2021-11-19T10:44:03Z</time>
      </trkpt>
      <trkpt lat="44.39706" lon="5.08343">
        <ele>413.2</ele>
        <time>2021-11-19T10:44:05Z</time>
      </trkpt>
      <trkpt lat="44.39711" lon="5.08335">
        <ele>413.4</ele>
        <time>2021-11-19T10:44:07Z</time>
      </trkpt>
      <trkpt lat="44.39716" lon="5.08326">
        <ele>413.7</ele>
        <time>2021-11-19T10:44:09Z</time>
      </trkpt>
      <trkpt lat="44.39719" lon="5.08322">
        <ele>413.8</ele>
        <time>2021-11-19T10:44:10Z</time>
      </trkpt>
      <trkpt lat="44.39723" lon="5.08315">
        <ele>413.9</ele>
        <time>2021-11-19T10:44:11Z</time>
      </trkpt>
      <trkpt lat="44.39725" lon="5.08311">
        <ele>414.1</ele>
        <time>2021-11-19T10:44:13Z</time>
      </trkpt>
      <trkpt lat="44.39728" lon="5.08306">
        <ele>414.2</ele>
        <time>2021-11-19T10:44:14Z</time>
      </trkpt>
      <trkpt lat="44.39734" lon="5.08296">
        <ele>414.5</ele>
        <time>2021-11-19T10:44:16Z</time>
      </trkpt>
      <trkpt lat="44.39737" lon="5.08288">
        <ele>414.7</ele>
        <time>2021-11-19T10:44:18Z</time>
      </trkpt>
      <trkpt lat="44.39741" lon="5.08281">
        <ele>414.9</ele>
        <time>2021-11-19T10:44:19Z</time>
      </trkpt>
      <trkpt lat="44.39747" lon="5.08274">
        <ele>415.1</ele>
        <time>2021-11-19T10:44:22Z</time>
      </trkpt>
      <trkpt lat="44.39754" lon="5.08264">
        <ele>415.4</ele>
        <time>2021-11-19T10:44:24Z</time>
      </trkpt>
      <trkpt lat="44.39761" lon="5.08252">
        <ele>415.8</ele>
        <time>2021-11-19T10:44:25Z</time>
      </trkpt>
      <trkpt lat="44.39769" lon="5.0824">
        <ele>416.2</ele>
        <time>2021-11-19T10:44:28Z</time>
      </trkpt>
      <trkpt lat="44.39777" lon="5.08226">
        <ele>416.7</ele>
        <time>2021-11-19T10:44:30Z</time>
      </trkpt>
      <trkpt lat="44.39781" lon="5.08216">
        <ele>417</ele>
        <time>2021-11-19T10:44:32Z</time>
      </trkpt>
      <trkpt lat="44.39785" lon="5.08205">
        <ele>417.3</ele>
        <time>2021-11-19T10:44:34Z</time>
      </trkpt>
      <trkpt lat="44.3979" lon="5.08194">
        <ele>417.6</ele>
        <time>2021-11-19T10:44:37Z</time>
      </trkpt>
      <trkpt lat="44.39792" lon="5.08189">
        <ele>417.7</ele>
        <time>2021-11-19T10:44:38Z</time>
      </trkpt>
      <trkpt lat="44.39795" lon="5.08176">
        <ele>418</ele>
        <time>2021-11-19T10:44:40Z</time>
      </trkpt>
      <trkpt lat="44.39796" lon="5.08166">
        <ele>418.3</ele>
        <time>2021-11-19T10:44:42Z</time>
      </trkpt>
      <trkpt lat="44.39799" lon="5.08153">
        <ele>418.6</ele>
        <time>2021-11-19T10:44:45Z</time>
      </trkpt>
      <trkpt lat="44.39801" lon="5.08146">
        <ele>418.8</ele>
        <time>2021-11-19T10:44:46Z</time>
      </trkpt>
      <trkpt lat="44.39804" lon="5.08132">
        <ele>419.2</ele>
        <time>2021-11-19T10:44:48Z</time>
      </trkpt>
      <trkpt lat="44.39806" lon="5.08122">
        <ele>419.4</ele>
        <time>2021-11-19T10:44:50Z</time>
      </trkpt>
      <trkpt lat="44.39807" lon="5.08114">
        <ele>419.6</ele>
        <time>2021-11-19T10:44:51Z</time>
      </trkpt>
      <trkpt lat="44.39808" lon="5.08106">
        <ele>419.8</ele>
        <time>2021-11-19T10:44:53Z</time>
      </trkpt>
      <trkpt lat="44.39811" lon="5.08095">
        <ele>420</ele>
        <time>2021-11-19T10:44:55Z</time>
      </trkpt>
      <trkpt lat="44.39814" lon="5.08085">
        <ele>420.2</ele>
        <time>2021-11-19T10:44:56Z</time>
      </trkpt>
      <trkpt lat="44.39816" lon="5.0808">
        <ele>420.3</ele>
        <time>2021-11-19T10:44:58Z</time>
      </trkpt>
      <trkpt lat="44.39821" lon="5.0807">
        <ele>420.6</ele>
        <time>2021-11-19T10:45:00Z</time>
      </trkpt>
      <trkpt lat="44.39825" lon="5.08062">
        <ele>420.7</ele>
        <time>2021-11-19T10:45:01Z</time>
      </trkpt>
      <trkpt lat="44.3983" lon="5.08056">
        <ele>420.9</ele>
        <time>2021-11-19T10:45:04Z</time>
      </trkpt>
      <trkpt lat="44.39832" lon="5.08053">
        <ele>421</ele>
        <time>2021-11-19T10:45:05Z</time>
      </trkpt>
      <trkpt lat="44.3984" lon="5.08043">
        <ele>421.2</ele>
        <time>2021-11-19T10:45:07Z</time>
      </trkpt>
      <trkpt lat="44.39847" lon="5.08035">
        <ele>421.4</ele>
        <time>2021-11-19T10:45:09Z</time>
      </trkpt>
      <trkpt lat="44.39855" lon="5.08027">
        <ele>421.6</ele>
        <time>2021-11-19T10:45:12Z</time>
      </trkpt>
      <trkpt lat="44.39859" lon="5.08022">
        <ele>421.7</ele>
        <time>2021-11-19T10:45:13Z</time>
      </trkpt>
      <trkpt lat="44.39865" lon="5.08015">
        <ele>421.8</ele>
        <time>2021-11-19T10:45:15Z</time>
      </trkpt>
      <trkpt lat="44.39871" lon="5.08012">
        <ele>421.9</ele>
        <time>2021-11-19T10:45:17Z</time>
      </trkpt>
      <trkpt lat="44.3988" lon="5.08008">
        <ele>422</ele>
        <time>2021-11-19T10:45:20Z</time>
      </trkpt>
      <trkpt lat="44.39885" lon="5.08004">
        <ele>422.1</ele>
        <time>2021-11-19T10:45:21Z</time>
      </trkpt>
      <trkpt lat="44.39896" lon="5.07996">
        <ele>422.2</ele>
        <time>2021-11-19T10:45:23Z</time>
      </trkpt>
      <trkpt lat="44.39907" lon="5.07992">
        <ele>422.2</ele>
        <time>2021-11-19T10:45:25Z</time>
      </trkpt>
      <trkpt lat="44.39907" lon="5.07998">
        <ele>422.3</ele>
        <time>2021-11-19T10:45:26Z</time>
      </trkpt>
      <trkpt lat="44.399" lon="5.07997">
        <ele>422.3</ele>
        <time>2021-11-19T10:45:28Z</time>
      </trkpt>
      <trkpt lat="44.39914" lon="5.07994">
        <ele>422.3</ele>
        <time>2021-11-19T10:45:31Z</time>
      </trkpt>
      <trkpt lat="44.39918" lon="5.07991">
        <ele>422.3</ele>
        <time>2021-11-19T10:45:32Z</time>
      </trkpt>
      <trkpt lat="44.39923" lon="5.07988">
        <ele>422.2</ele>
        <time>2021-11-19T10:45:33Z</time>
      </trkpt>
      <trkpt lat="44.39928" lon="5.07984">
        <ele>422.2</ele>
        <time>2021-11-19T10:45:34Z</time>
      </trkpt>
      <trkpt lat="44.39933" lon="5.07981">
        <ele>422.2</ele>
        <time>2021-11-19T10:45:35Z</time>
      </trkpt>
      <trkpt lat="44.39937" lon="5.07978">
        <ele>422.2</ele>
        <time>2021-11-19T10:45:36Z</time>
      </trkpt>
      <trkpt lat="44.39942" lon="5.07975">
        <ele>422.1</ele>
        <time>2021-11-19T10:45:37Z</time>
      </trkpt>
      <trkpt lat="44.39947" lon="5.07971">
        <ele>422</ele>
        <time>2021-11-19T10:45:38Z</time>
      </trkpt>
      <trkpt lat="44.39951" lon="5.07968">
        <ele>421.9</ele>
        <time>2021-11-19T10:45:39Z</time>
      </trkpt>
      <trkpt lat="44.39956" lon="5.07964">
        <ele>421.8</ele>
        <time>2021-11-19T10:45:40Z</time>
      </trkpt>
      <trkpt lat="44.39961" lon="5.0796">
        <ele>421.7</ele>
        <time>2021-11-19T10:45:41Z</time>
      </trkpt>
      <trkpt lat="44.39966" lon="5.07956">
        <ele>421.6</ele>
        <time>2021-11-19T10:45:42Z</time>
      </trkpt>
      <trkpt lat="44.39971" lon="5.07951">
        <ele>421.5</ele>
        <time>2021-11-19T10:45:43Z</time>
      </trkpt>
      <trkpt lat="44.39976" lon="5.07947">
        <ele>421.3</ele>
        <time>2021-11-19T10:45:44Z</time>
      </trkpt>
      <trkpt lat="44.39982" lon="5.07942">
        <ele>421.3</ele>
        <time>2021-11-19T10:45:45Z</time>
      </trkpt>
      <trkpt lat="44.39987" lon="5.07937">
        <ele>421.3</ele>
        <time>2021-11-19T10:45:46Z</time>
      </trkpt>
      <trkpt lat="44.39993" lon="5.07931">
        <ele>421.1</ele>
        <time>2021-11-19T10:45:47Z</time>
      </trkpt>
      <trkpt lat="44.39999" lon="5.07926">
        <ele>421</ele>
        <time>2021-11-19T10:45:48Z</time>
      </trkpt>
      <trkpt lat="44.40006" lon="5.0792">
        <ele>420.8</ele>
        <time>2021-11-19T10:45:49Z</time>
      </trkpt>
      <trkpt lat="44.40012" lon="5.07915">
        <ele>420.7</ele>
        <time>2021-11-19T10:45:50Z</time>
      </trkpt>
      <trkpt lat="44.40018" lon="5.07909">
        <ele>420.6</ele>
        <time>2021-11-19T10:45:51Z</time>
      </trkpt>
      <trkpt lat="44.40023" lon="5.07903">
        <ele>420.5</ele>
        <time>2021-11-19T10:45:52Z</time>
      </trkpt>
      <trkpt lat="44.40028" lon="5.07898">
        <ele>420.4</ele>
        <time>2021-11-19T10:45:53Z</time>
      </trkpt>
      <trkpt lat="44.40033" lon="5.07891">
        <ele>420.4</ele>
        <time>2021-11-19T10:45:54Z</time>
      </trkpt>
      <trkpt lat="44.40038" lon="5.07885">
        <ele>420.4</ele>
        <time>2021-11-19T10:45:55Z</time>
      </trkpt>
      <trkpt lat="44.40042" lon="5.07879">
        <ele>420.4</ele>
        <time>2021-11-19T10:45:56Z</time>
      </trkpt>
      <trkpt lat="44.40046" lon="5.07873">
        <ele>420.3</ele>
        <time>2021-11-19T10:45:57Z</time>
      </trkpt>
      <trkpt lat="44.40051" lon="5.07867">
        <ele>420.3</ele>
        <time>2021-11-19T10:45:58Z</time>
      </trkpt>
      <trkpt lat="44.40055" lon="5.07861">
        <ele>420.3</ele>
        <time>2021-11-19T10:45:59Z</time>
      </trkpt>
      <trkpt lat="44.4006" lon="5.07854">
        <ele>420.4</ele>
        <time>2021-11-19T10:46:00Z</time>
      </trkpt>
      <trkpt lat="44.40064" lon="5.07848">
        <ele>420.4</ele>
        <time>2021-11-19T10:46:01Z</time>
      </trkpt>
      <trkpt lat="44.40066" lon="5.07841">
        <ele>420.4</ele>
        <time>2021-11-19T10:46:02Z</time>
      </trkpt>
      <trkpt lat="44.40069" lon="5.07835">
        <ele>420.4</ele>
        <time>2021-11-19T10:46:03Z</time>
      </trkpt>
      <trkpt lat="44.40073" lon="5.07829">
        <ele>420.4</ele>
        <time>2021-11-19T10:46:04Z</time>
      </trkpt>
      <trkpt lat="44.40078" lon="5.07823">
        <ele>420.5</ele>
        <time>2021-11-19T10:46:05Z</time>
      </trkpt>
      <trkpt lat="44.4008" lon="5.07817">
        <ele>420.5</ele>
        <time>2021-11-19T10:46:06Z</time>
      </trkpt>
      <trkpt lat="44.40083" lon="5.07811">
        <ele>420.6</ele>
        <time>2021-11-19T10:46:07Z</time>
      </trkpt>
      <trkpt lat="44.40086" lon="5.07805">
        <ele>420.6</ele>
        <time>2021-11-19T10:46:08Z</time>
      </trkpt>
      <trkpt lat="44.4009" lon="5.07799">
        <ele>420.6</ele>
        <time>2021-11-19T10:46:09Z</time>
      </trkpt>
      <trkpt lat="44.40095" lon="5.07793">
        <ele>420.7</ele>
        <time>2021-11-19T10:46:10Z</time>
      </trkpt>
      <trkpt lat="44.401" lon="5.07787">
        <ele>420.8</ele>
        <time>2021-11-19T10:46:11Z</time>
      </trkpt>
      <trkpt lat="44.40103" lon="5.07782">
        <ele>420.8</ele>
        <time>2021-11-19T10:46:12Z</time>
      </trkpt>
      <trkpt lat="44.40108" lon="5.07776">
        <ele>420.9</ele>
        <time>2021-11-19T10:46:13Z</time>
      </trkpt>
      <trkpt lat="44.40112" lon="5.07771">
        <ele>421</ele>
        <time>2021-11-19T10:46:14Z</time>
      </trkpt>
      <trkpt lat="44.40116" lon="5.07766">
        <ele>421.1</ele>
        <time>2021-11-19T10:46:15Z</time>
      </trkpt>
      <trkpt lat="44.4012" lon="5.0776">
        <ele>421.2</ele>
        <time>2021-11-19T10:46:16Z</time>
      </trkpt>
      <trkpt lat="44.40124" lon="5.07755">
        <ele>421.3</ele>
        <time>2021-11-19T10:46:17Z</time>
      </trkpt>
      <trkpt lat="44.40128" lon="5.0775">
        <ele>421.3</ele>
        <time>2021-11-19T10:46:18Z</time>
      </trkpt>
      <trkpt lat="44.40132" lon="5.07745">
        <ele>421.4</ele>
        <time>2021-11-19T10:46:19Z</time>
      </trkpt>
      <trkpt lat="44.40136" lon="5.07739">
        <ele>421.5</ele>
        <time>2021-11-19T10:46:20Z</time>
      </trkpt>
      <trkpt lat="44.40139" lon="5.07735">
        <ele>421.6</ele>
        <time>2021-11-19T10:46:21Z</time>
      </trkpt>
      <trkpt lat="44.40142" lon="5.0773">
        <ele>421.7</ele>
        <time>2021-11-19T10:46:22Z</time>
      </trkpt>
      <trkpt lat="44.40146" lon="5.07725">
        <ele>421.8</ele>
        <time>2021-11-19T10:46:23Z</time>
      </trkpt>
      <trkpt lat="44.40149" lon="5.07721">
        <ele>421.8</ele>
        <time>2021-11-19T10:46:24Z</time>
      </trkpt>
      <trkpt lat="44.40152" lon="5.07716">
        <ele>421.9</ele>
        <time>2021-11-19T10:46:25Z</time>
      </trkpt>
      <trkpt lat="44.40154" lon="5.07711">
        <ele>422</ele>
        <time>2021-11-19T10:46:26Z</time>
      </trkpt>
      <trkpt lat="44.40157" lon="5.07706">
        <ele>422.1</ele>
        <time>2021-11-19T10:46:27Z</time>
      </trkpt>
      <trkpt lat="44.4016" lon="5.07701">
        <ele>422.2</ele>
        <time>2021-11-19T10:46:28Z</time>
      </trkpt>
      <trkpt lat="44.40162" lon="5.07696">
        <ele>422.4</ele>
        <time>2021-11-19T10:46:29Z</time>
      </trkpt>
      <trkpt lat="44.40165" lon="5.0768">
        <ele>422.7</ele>
        <time>2021-11-19T10:46:30Z</time>
      </trkpt>
      <trkpt lat="44.40162" lon="5.07674">
        <ele>422.9</ele>
        <time>2021-11-19T10:46:31Z</time>
      </trkpt>
      <trkpt lat="44.4017" lon="5.07659">
        <ele>423.3</ele>
        <time>2021-11-19T10:46:33Z</time>
      </trkpt>
      <trkpt lat="44.40181" lon="5.07647">
        <ele>423.7</ele>
        <time>2021-11-19T10:46:35Z</time>
      </trkpt>
      <trkpt lat="44.40189" lon="5.07636">
        <ele>424</ele>
        <time>2021-11-19T10:46:37Z</time>
      </trkpt>
      <trkpt lat="44.40192" lon="5.07631">
        <ele>424.1</ele>
        <time>2021-11-19T10:46:38Z</time>
      </trkpt>
      <trkpt lat="44.40197" lon="5.07621">
        <ele>424.2</ele>
        <time>2021-11-19T10:46:39Z</time>
      </trkpt>
      <trkpt lat="44.402" lon="5.07617">
        <ele>424.3</ele>
        <time>2021-11-19T10:46:41Z</time>
      </trkpt>
      <trkpt lat="44.40203" lon="5.07612">
        <ele>424.4</ele>
        <time>2021-11-19T10:46:42Z</time>
      </trkpt>
      <trkpt lat="44.40205" lon="5.07609">
        <ele>424.5</ele>
        <time>2021-11-19T10:46:43Z</time>
      </trkpt>
      <trkpt lat="44.40209" lon="5.07602">
        <ele>424.6</ele>
        <time>2021-11-19T10:46:44Z</time>
      </trkpt>
      <trkpt lat="44.40214" lon="5.07599">
        <ele>424.7</ele>
        <time>2021-11-19T10:46:47Z</time>
      </trkpt>
      <trkpt lat="44.40218" lon="5.07596">
        <ele>424.7</ele>
        <time>2021-11-19T10:46:48Z</time>
      </trkpt>
      <trkpt lat="44.4022" lon="5.07592">
        <ele>424.8</ele>
        <time>2021-11-19T10:46:49Z</time>
      </trkpt>
      <trkpt lat="44.40221" lon="5.07587">
        <ele>424.8</ele>
        <time>2021-11-19T10:46:50Z</time>
      </trkpt>
      <trkpt lat="44.40224" lon="5.07579">
        <ele>424.9</ele>
        <time>2021-11-19T10:46:51Z</time>
      </trkpt>
      <trkpt lat="44.40227" lon="5.07567">
        <ele>425</ele>
        <time>2021-11-19T10:46:53Z</time>
      </trkpt>
      <trkpt lat="44.40228" lon="5.0756">
        <ele>424.9</ele>
        <time>2021-11-19T10:46:54Z</time>
      </trkpt>
      <trkpt lat="44.40231" lon="5.07547">
        <ele>424.9</ele>
        <time>2021-11-19T10:46:56Z</time>
      </trkpt>
      <trkpt lat="44.40231" lon="5.07538">
        <ele>424.9</ele>
        <time>2021-11-19T10:46:58Z</time>
      </trkpt>
      <trkpt lat="44.40229" lon="5.07528">
        <ele>424.8</ele>
        <time>2021-11-19T10:47:01Z</time>
      </trkpt>
      <trkpt lat="44.40225" lon="5.07524">
        <ele>424.8</ele>
        <time>2021-11-19T10:47:04Z</time>
      </trkpt>
      <trkpt lat="44.40225" lon="5.07515">
        <ele>424.7</ele>
        <time>2021-11-19T10:47:05Z</time>
      </trkpt>
      <trkpt lat="44.40225" lon="5.07506">
        <ele>424.7</ele>
        <time>2021-11-19T10:47:06Z</time>
      </trkpt>
      <trkpt lat="44.40224" lon="5.07497">
        <ele>424.7</ele>
        <time>2021-11-19T10:47:07Z</time>
      </trkpt>
      <trkpt lat="44.40224" lon="5.07487">
        <ele>424.6</ele>
        <time>2021-11-19T10:47:08Z</time>
      </trkpt>
      <trkpt lat="44.40224" lon="5.07476">
        <ele>424.6</ele>
        <time>2021-11-19T10:47:09Z</time>
      </trkpt>
      <trkpt lat="44.40224" lon="5.07466">
        <ele>424.6</ele>
        <time>2021-11-19T10:47:10Z</time>
      </trkpt>
      <trkpt lat="44.40225" lon="5.07456">
        <ele>424.5</ele>
        <time>2021-11-19T10:47:11Z</time>
      </trkpt>
      <trkpt lat="44.40224" lon="5.07446">
        <ele>424.5</ele>
        <time>2021-11-19T10:47:12Z</time>
      </trkpt>
      <trkpt lat="44.40224" lon="5.07436">
        <ele>424.4</ele>
        <time>2021-11-19T10:47:13Z</time>
      </trkpt>
      <trkpt lat="44.40225" lon="5.07427">
        <ele>424.4</ele>
        <time>2021-11-19T10:47:14Z</time>
      </trkpt>
      <trkpt lat="44.40225" lon="5.07419">
        <ele>424.3</ele>
        <time>2021-11-19T10:47:15Z</time>
      </trkpt>
      <trkpt lat="44.40225" lon="5.07411">
        <ele>424.3</ele>
        <time>2021-11-19T10:47:16Z</time>
      </trkpt>
      <trkpt lat="44.40226" lon="5.07403">
        <ele>424.2</ele>
        <time>2021-11-19T10:47:17Z</time>
      </trkpt>
      <trkpt lat="44.40227" lon="5.07395">
        <ele>424.2</ele>
        <time>2021-11-19T10:47:18Z</time>
      </trkpt>
      <trkpt lat="44.40227" lon="5.07386">
        <ele>424.1</ele>
        <time>2021-11-19T10:47:19Z</time>
      </trkpt>
      <trkpt lat="44.40228" lon="5.07378">
        <ele>424.1</ele>
        <time>2021-11-19T10:47:20Z</time>
      </trkpt>
      <trkpt lat="44.40228" lon="5.0737">
        <ele>424</ele>
        <time>2021-11-19T10:47:21Z</time>
      </trkpt>
      <trkpt lat="44.40229" lon="5.0736">
        <ele>424</ele>
        <time>2021-11-19T10:47:22Z</time>
      </trkpt>
      <trkpt lat="44.40231" lon="5.07352">
        <ele>424.1</ele>
        <time>2021-11-19T10:47:23Z</time>
      </trkpt>
      <trkpt lat="44.40233" lon="5.07344">
        <ele>424.1</ele>
        <time>2021-11-19T10:47:24Z</time>
      </trkpt>
      <trkpt lat="44.40237" lon="5.07339">
        <ele>424.3</ele>
        <time>2021-11-19T10:47:25Z</time>
      </trkpt>
      <trkpt lat="44.40242" lon="5.07334">
        <ele>424.4</ele>
        <time>2021-11-19T10:47:26Z</time>
      </trkpt>
      <trkpt lat="44.40246" lon="5.07329">
        <ele>424.6</ele>
        <time>2021-11-19T10:47:27Z</time>
      </trkpt>
      <trkpt lat="44.4025" lon="5.07325">
        <ele>424.7</ele>
        <time>2021-11-19T10:47:28Z</time>
      </trkpt>
      <trkpt lat="44.40255" lon="5.07321">
        <ele>424.9</ele>
        <time>2021-11-19T10:47:29Z</time>
      </trkpt>
      <trkpt lat="44.40259" lon="5.07319">
        <ele>425</ele>
        <time>2021-11-19T10:47:30Z</time>
      </trkpt>
      <trkpt lat="44.40264" lon="5.07316">
        <ele>425.2</ele>
        <time>2021-11-19T10:47:31Z</time>
      </trkpt>
      <trkpt lat="44.40268" lon="5.07313">
        <ele>425.4</ele>
        <time>2021-11-19T10:47:32Z</time>
      </trkpt>
      <trkpt lat="44.40272" lon="5.07312">
        <ele>425.6</ele>
        <time>2021-11-19T10:47:33Z</time>
      </trkpt>
      <trkpt lat="44.40276" lon="5.0731">
        <ele>425.7</ele>
        <time>2021-11-19T10:47:34Z</time>
      </trkpt>
      <trkpt lat="44.40279" lon="5.07309">
        <ele>425.8</ele>
        <time>2021-11-19T10:47:35Z</time>
      </trkpt>
      <trkpt lat="44.40283" lon="5.07307">
        <ele>425.9</ele>
        <time>2021-11-19T10:47:36Z</time>
      </trkpt>
      <trkpt lat="44.40288" lon="5.07308">
        <ele>426</ele>
        <time>2021-11-19T10:47:37Z</time>
      </trkpt>
      <trkpt lat="44.40303" lon="5.073">
        <ele>426.5</ele>
        <time>2021-11-19T10:47:40Z</time>
      </trkpt>
      <trkpt lat="44.40316" lon="5.07293">
        <ele>427</ele>
        <time>2021-11-19T10:47:42Z</time>
      </trkpt>
      <trkpt lat="44.40324" lon="5.07289">
        <ele>427.3</ele>
        <time>2021-11-19T10:47:43Z</time>
      </trkpt>
      <trkpt lat="44.40329" lon="5.07288">
        <ele>427.4</ele>
        <time>2021-11-19T10:47:45Z</time>
      </trkpt>
      <trkpt lat="44.40332" lon="5.07287">
        <ele>427.6</ele>
        <time>2021-11-19T10:47:46Z</time>
      </trkpt>
      <trkpt lat="44.40341" lon="5.07284">
        <ele>427.8</ele>
        <time>2021-11-19T10:47:47Z</time>
      </trkpt>
      <trkpt lat="44.40345" lon="5.07283">
        <ele>428</ele>
        <time>2021-11-19T10:47:49Z</time>
      </trkpt>
      <trkpt lat="44.40356" lon="5.07279">
        <ele>428.3</ele>
        <time>2021-11-19T10:47:51Z</time>
      </trkpt>
      <trkpt lat="44.40362" lon="5.07277">
        <ele>428.4</ele>
        <time>2021-11-19T10:47:52Z</time>
      </trkpt>
      <trkpt lat="44.40366" lon="5.07276">
        <ele>428.5</ele>
        <time>2021-11-19T10:47:54Z</time>
      </trkpt>
      <trkpt lat="44.40373" lon="5.07273">
        <ele>428.7</ele>
        <time>2021-11-19T10:47:55Z</time>
      </trkpt>
      <trkpt lat="44.40378" lon="5.0727">
        <ele>428.9</ele>
        <time>2021-11-19T10:47:57Z</time>
      </trkpt>
      <trkpt lat="44.40382" lon="5.07268">
        <ele>429</ele>
        <time>2021-11-19T10:47:59Z</time>
      </trkpt>
      <trkpt lat="44.40391" lon="5.07263">
        <ele>429.3</ele>
        <time>2021-11-19T10:48:01Z</time>
      </trkpt>
      <trkpt lat="44.40397" lon="5.07259">
        <ele>429.5</ele>
        <time>2021-11-19T10:48:03Z</time>
      </trkpt>
      <trkpt lat="44.40406" lon="5.07257">
        <ele>429.8</ele>
        <time>2021-11-19T10:48:05Z</time>
      </trkpt>
      <trkpt lat="44.4041" lon="5.07255">
        <ele>429.9</ele>
        <time>2021-11-19T10:48:06Z</time>
      </trkpt>
      <trkpt lat="44.40417" lon="5.07253">
        <ele>430.1</ele>
        <time>2021-11-19T10:48:08Z</time>
      </trkpt>
      <trkpt lat="44.4042" lon="5.07251">
        <ele>430.2</ele>
        <time>2021-11-19T10:48:09Z</time>
      </trkpt>
      <trkpt lat="44.40429" lon="5.07246">
        <ele>430.5</ele>
        <time>2021-11-19T10:48:12Z</time>
      </trkpt>
      <trkpt lat="44.4044" lon="5.07243">
        <ele>430.8</ele>
        <time>2021-11-19T10:48:14Z</time>
      </trkpt>
      <trkpt lat="44.40447" lon="5.07241">
        <ele>431</ele>
        <time>2021-11-19T10:48:15Z</time>
      </trkpt>
      <trkpt lat="44.40454" lon="5.0724">
        <ele>431.2</ele>
        <time>2021-11-19T10:48:16Z</time>
      </trkpt>
      <trkpt lat="44.40462" lon="5.07238">
        <ele>431.4</ele>
        <time>2021-11-19T10:48:18Z</time>
      </trkpt>
      <trkpt lat="44.40466" lon="5.07237">
        <ele>431.5</ele>
        <time>2021-11-19T10:48:19Z</time>
      </trkpt>
      <trkpt lat="44.40474" lon="5.07235">
        <ele>431.7</ele>
        <time>2021-11-19T10:48:21Z</time>
      </trkpt>
      <trkpt lat="44.40483" lon="5.07231">
        <ele>431.9</ele>
        <time>2021-11-19T10:48:23Z</time>
      </trkpt>
      <trkpt lat="44.40489" lon="5.07228">
        <ele>432.1</ele>
        <time>2021-11-19T10:48:24Z</time>
      </trkpt>
      <trkpt lat="44.40497" lon="5.07224">
        <ele>432.2</ele>
        <time>2021-11-19T10:48:26Z</time>
      </trkpt>
      <trkpt lat="44.40502" lon="5.07223">
        <ele>432.3</ele>
        <time>2021-11-19T10:48:27Z</time>
      </trkpt>
      <trkpt lat="44.40504" lon="5.07223">
        <ele>432.4</ele>
        <time>2021-11-19T10:48:28Z</time>
      </trkpt>
      <trkpt lat="44.40513" lon="5.07221">
        <ele>432.6</ele>
        <time>2021-11-19T10:48:30Z</time>
      </trkpt>
      <trkpt lat="44.40516" lon="5.0722">
        <ele>432.6</ele>
        <time>2021-11-19T10:48:31Z</time>
      </trkpt>
      <trkpt lat="44.40513" lon="5.07222">
        <ele>432.7</ele>
        <time>2021-11-19T10:48:32Z</time>
      </trkpt>
      <trkpt lat="44.40524" lon="5.07218">
        <ele>432.8</ele>
        <time>2021-11-19T10:48:33Z</time>
      </trkpt>
      <trkpt lat="44.4053" lon="5.07217">
        <ele>432.9</ele>
        <time>2021-11-19T10:48:35Z</time>
      </trkpt>
      <trkpt lat="44.4054" lon="5.07214">
        <ele>433</ele>
        <time>2021-11-19T10:48:37Z</time>
      </trkpt>
      <trkpt lat="44.40542" lon="5.07212">
        <ele>433.1</ele>
        <time>2021-11-19T10:48:40Z</time>
      </trkpt>
      <trkpt lat="44.40544" lon="5.07209">
        <ele>433.1</ele>
        <time>2021-11-19T10:48:43Z</time>
      </trkpt>
      <trkpt lat="44.40551" lon="5.07207">
        <ele>433.2</ele>
        <time>2021-11-19T10:48:44Z</time>
      </trkpt>
      <trkpt lat="44.40564" lon="5.07203">
        <ele>433.3</ele>
        <time>2021-11-19T10:48:47Z</time>
      </trkpt>
      <trkpt lat="44.40573" lon="5.07197">
        <ele>433.3</ele>
        <time>2021-11-19T10:48:49Z</time>
      </trkpt>
      <trkpt lat="44.40575" lon="5.07192">
        <ele>433.3</ele>
        <time>2021-11-19T10:48:52Z</time>
      </trkpt>
      <trkpt lat="44.40571" lon="5.07196">
        <ele>433.4</ele>
        <time>2021-11-19T10:48:55Z</time>
      </trkpt>
      <trkpt lat="44.40571" lon="5.07196">
        <ele>433.4</ele>
        <time>2021-11-19T10:48:56Z</time>
      </trkpt>
      <trkpt lat="44.40571" lon="5.07197">
        <ele>433.4</ele>
        <time>2021-11-19T10:48:57Z</time>
      </trkpt>
      <trkpt lat="44.40572" lon="5.07198">
        <ele>433.4</ele>
        <time>2021-11-19T10:49:00Z</time>
      </trkpt>
      <trkpt lat="44.40572" lon="5.07198">
        <ele>433.4</ele>
        <time>2021-11-19T10:49:01Z</time>
      </trkpt>
      <trkpt lat="44.40572" lon="5.07198">
        <ele>433.4</ele>
        <time>2021-11-19T10:49:02Z</time>
      </trkpt>
      <trkpt lat="44.40572" lon="5.07198">
        <ele>433.4</ele>
        <time>2021-11-19T10:49:05Z</time>
      </trkpt>
      <trkpt lat="44.40572" lon="5.07197">
        <ele>433.4</ele>
        <time>2021-11-19T10:49:06Z</time>
      </trkpt>
      <trkpt lat="44.40572" lon="5.07197">
        <ele>433.4</ele>
        <time>2021-11-19T10:49:07Z</time>
      </trkpt>
      <trkpt lat="44.40577" lon="5.07202">
        <ele>433.4</ele>
        <time>2021-11-19T10:49:29Z</time>
      </trkpt>
      <trkpt lat="44.40584" lon="5.07199">
        <ele>433.4</ele>
        <time>2021-11-19T10:49:32Z</time>
      </trkpt>
      <trkpt lat="44.40589" lon="5.07198">
        <ele>433.4</ele>
        <time>2021-11-19T10:49:33Z</time>
      </trkpt>
      <trkpt lat="44.40595" lon="5.07197">
        <ele>433.4</ele>
        <time>2021-11-19T10:49:34Z</time>
      </trkpt>
      <trkpt lat="44.406" lon="5.07196">
        <ele>433.4</ele>
        <time>2021-11-19T10:49:36Z</time>
      </trkpt>
      <trkpt lat="44.40603" lon="5.07194">
        <ele>433.4</ele>
        <time>2021-11-19T10:49:37Z</time>
      </trkpt>
      <trkpt lat="44.40607" lon="5.07193">
        <ele>433.4</ele>
        <time>2021-11-19T10:49:38Z</time>
      </trkpt>
      <trkpt lat="44.40632" lon="5.07186">
        <ele>433.1</ele>
        <time>2021-11-19T10:49:41Z</time>
      </trkpt>
      <trkpt lat="44.40638" lon="5.07184">
        <ele>433</ele>
        <time>2021-11-19T10:49:42Z</time>
      </trkpt>
      <trkpt lat="44.40644" lon="5.07182">
        <ele>432.9</ele>
        <time>2021-11-19T10:49:43Z</time>
      </trkpt>
      <trkpt lat="44.4065" lon="5.0718">
        <ele>432.9</ele>
        <time>2021-11-19T10:49:44Z</time>
      </trkpt>
      <trkpt lat="44.40656" lon="5.07179">
        <ele>432.8</ele>
        <time>2021-11-19T10:49:45Z</time>
      </trkpt>
      <trkpt lat="44.40662" lon="5.07177">
        <ele>432.7</ele>
        <time>2021-11-19T10:49:46Z</time>
      </trkpt>
      <trkpt lat="44.40669" lon="5.07175">
        <ele>432.5</ele>
        <time>2021-11-19T10:49:47Z</time>
      </trkpt>
      <trkpt lat="44.40675" lon="5.07174">
        <ele>432.4</ele>
        <time>2021-11-19T10:49:48Z</time>
      </trkpt>
      <trkpt lat="44.40681" lon="5.07172">
        <ele>432.4</ele>
        <time>2021-11-19T10:49:49Z</time>
      </trkpt>
      <trkpt lat="44.40687" lon="5.0717">
        <ele>432.3</ele>
        <time>2021-11-19T10:49:50Z</time>
      </trkpt>
      <trkpt lat="44.40693" lon="5.07168">
        <ele>432.2</ele>
        <time>2021-11-19T10:49:51Z</time>
      </trkpt>
      <trkpt lat="44.407" lon="5.07165">
        <ele>432.2</ele>
        <time>2021-11-19T10:49:52Z</time>
      </trkpt>
      <trkpt lat="44.40707" lon="5.07164">
        <ele>432.1</ele>
        <time>2021-11-19T10:49:53Z</time>
      </trkpt>
      <trkpt lat="44.40714" lon="5.07162">
        <ele>432.1</ele>
        <time>2021-11-19T10:49:54Z</time>
      </trkpt>
      <trkpt lat="44.4072" lon="5.0716">
        <ele>432</ele>
        <time>2021-11-19T10:49:55Z</time>
      </trkpt>
      <trkpt lat="44.40726" lon="5.07158">
        <ele>431.8</ele>
        <time>2021-11-19T10:49:56Z</time>
      </trkpt>
      <trkpt lat="44.40732" lon="5.07157">
        <ele>431.7</ele>
        <time>2021-11-19T10:49:57Z</time>
      </trkpt>
      <trkpt lat="44.40739" lon="5.07157">
        <ele>431.6</ele>
        <time>2021-11-19T10:49:58Z</time>
      </trkpt>
      <trkpt lat="44.40745" lon="5.0716">
        <ele>431.4</ele>
        <time>2021-11-19T10:49:59Z</time>
      </trkpt>
      <trkpt lat="44.40751" lon="5.07164">
        <ele>431.2</ele>
        <time>2021-11-19T10:50:00Z</time>
      </trkpt>
      <trkpt lat="44.40757" lon="5.07168">
        <ele>431</ele>
        <time>2021-11-19T10:50:01Z</time>
      </trkpt>
      <trkpt lat="44.40764" lon="5.07175">
        <ele>430.7</ele>
        <time>2021-11-19T10:50:02Z</time>
      </trkpt>
      <trkpt lat="44.4077" lon="5.07183">
        <ele>430.5</ele>
        <time>2021-11-19T10:50:03Z</time>
      </trkpt>
      <trkpt lat="44.40776" lon="5.0719">
        <ele>430.2</ele>
        <time>2021-11-19T10:50:04Z</time>
      </trkpt>
      <trkpt lat="44.40781" lon="5.07198">
        <ele>429.9</ele>
        <time>2021-11-19T10:50:05Z</time>
      </trkpt>
      <trkpt lat="44.40786" lon="5.07207">
        <ele>429.7</ele>
        <time>2021-11-19T10:50:06Z</time>
      </trkpt>
      <trkpt lat="44.40789" lon="5.07217">
        <ele>429.5</ele>
        <time>2021-11-19T10:50:07Z</time>
      </trkpt>
      <trkpt lat="44.40789" lon="5.07225">
        <ele>429.3</ele>
        <time>2021-11-19T10:50:08Z</time>
      </trkpt>
      <trkpt lat="44.40788" lon="5.07234">
        <ele>429.1</ele>
        <time>2021-11-19T10:50:09Z</time>
      </trkpt>
      <trkpt lat="44.40788" lon="5.07244">
        <ele>428.9</ele>
        <time>2021-11-19T10:50:10Z</time>
      </trkpt>
      <trkpt lat="44.40788" lon="5.07256">
        <ele>428.7</ele>
        <time>2021-11-19T10:50:11Z</time>
      </trkpt>
      <trkpt lat="44.40789" lon="5.07267">
        <ele>428.4</ele>
        <time>2021-11-19T10:50:12Z</time>
      </trkpt>
      <trkpt lat="44.40791" lon="5.07277">
        <ele>428.2</ele>
        <time>2021-11-19T10:50:13Z</time>
      </trkpt>
      <trkpt lat="44.40792" lon="5.07288">
        <ele>427.9</ele>
        <time>2021-11-19T10:50:14Z</time>
      </trkpt>
      <trkpt lat="44.40795" lon="5.07299">
        <ele>427.6</ele>
        <time>2021-11-19T10:50:15Z</time>
      </trkpt>
      <trkpt lat="44.40798" lon="5.07309">
        <ele>427.3</ele>
        <time>2021-11-19T10:50:16Z</time>
      </trkpt>
      <trkpt lat="44.40801" lon="5.07319">
        <ele>427</ele>
        <time>2021-11-19T10:50:17Z</time>
      </trkpt>
      <trkpt lat="44.40803" lon="5.07329">
        <ele>426.8</ele>
        <time>2021-11-19T10:50:18Z</time>
      </trkpt>
      <trkpt lat="44.40805" lon="5.07338">
        <ele>426.6</ele>
        <time>2021-11-19T10:50:19Z</time>
      </trkpt>
      <trkpt lat="44.40809" lon="5.07346">
        <ele>426.4</ele>
        <time>2021-11-19T10:50:20Z</time>
      </trkpt>
      <trkpt lat="44.40814" lon="5.07352">
        <ele>426.2</ele>
        <time>2021-11-19T10:50:21Z</time>
      </trkpt>
      <trkpt lat="44.4082" lon="5.07358">
        <ele>426</ele>
        <time>2021-11-19T10:50:22Z</time>
      </trkpt>
      <trkpt lat="44.40826" lon="5.07366">
        <ele>425.8</ele>
        <time>2021-11-19T10:50:23Z</time>
      </trkpt>
      <trkpt lat="44.40833" lon="5.07374">
        <ele>425.5</ele>
        <time>2021-11-19T10:50:24Z</time>
      </trkpt>
      <trkpt lat="44.40838" lon="5.07381">
        <ele>425.4</ele>
        <time>2021-11-19T10:50:25Z</time>
      </trkpt>
      <trkpt lat="44.40843" lon="5.0739">
        <ele>425.2</ele>
        <time>2021-11-19T10:50:26Z</time>
      </trkpt>
      <trkpt lat="44.40847" lon="5.07398">
        <ele>425</ele>
        <time>2021-11-19T10:50:27Z</time>
      </trkpt>
      <trkpt lat="44.40852" lon="5.07406">
        <ele>424.9</ele>
        <time>2021-11-19T10:50:28Z</time>
      </trkpt>
      <trkpt lat="44.40858" lon="5.07414">
        <ele>424.7</ele>
        <time>2021-11-19T10:50:29Z</time>
      </trkpt>
      <trkpt lat="44.40865" lon="5.07421">
        <ele>424.6</ele>
        <time>2021-11-19T10:50:30Z</time>
      </trkpt>
      <trkpt lat="44.40872" lon="5.07427">
        <ele>424.6</ele>
        <time>2021-11-19T10:50:31Z</time>
      </trkpt>
      <trkpt lat="44.40877" lon="5.07432">
        <ele>424.6</ele>
        <time>2021-11-19T10:50:32Z</time>
      </trkpt>
      <trkpt lat="44.40884" lon="5.07436">
        <ele>424.6</ele>
        <time>2021-11-19T10:50:33Z</time>
      </trkpt>
      <trkpt lat="44.40891" lon="5.07438">
        <ele>424.6</ele>
        <time>2021-11-19T10:50:34Z</time>
      </trkpt>
      <trkpt lat="44.40898" lon="5.07438">
        <ele>424.6</ele>
        <time>2021-11-19T10:50:35Z</time>
      </trkpt>
      <trkpt lat="44.40904" lon="5.07436">
        <ele>424.6</ele>
        <time>2021-11-19T10:50:36Z</time>
      </trkpt>
      <trkpt lat="44.40911" lon="5.07433">
        <ele>424.6</ele>
        <time>2021-11-19T10:50:37Z</time>
      </trkpt>
      <trkpt lat="44.40917" lon="5.07429">
        <ele>424.6</ele>
        <time>2021-11-19T10:50:38Z</time>
      </trkpt>
      <trkpt lat="44.40922" lon="5.07425">
        <ele>424.6</ele>
        <time>2021-11-19T10:50:39Z</time>
      </trkpt>
      <trkpt lat="44.40928" lon="5.0742">
        <ele>424.6</ele>
        <time>2021-11-19T10:50:40Z</time>
      </trkpt>
      <trkpt lat="44.40934" lon="5.07416">
        <ele>424.6</ele>
        <time>2021-11-19T10:50:41Z</time>
      </trkpt>
      <trkpt lat="44.40938" lon="5.07412">
        <ele>424.6</ele>
        <time>2021-11-19T10:50:42Z</time>
      </trkpt>
      <trkpt lat="44.40944" lon="5.07408">
        <ele>424.6</ele>
        <time>2021-11-19T10:50:43Z</time>
      </trkpt>
      <trkpt lat="44.40949" lon="5.07404">
        <ele>424.6</ele>
        <time>2021-11-19T10:50:44Z</time>
      </trkpt>
      <trkpt lat="44.40954" lon="5.07401">
        <ele>424.6</ele>
        <time>2021-11-19T10:50:45Z</time>
      </trkpt>
      <trkpt lat="44.40959" lon="5.07397">
        <ele>424.6</ele>
        <time>2021-11-19T10:50:46Z</time>
      </trkpt>
      <trkpt lat="44.40964" lon="5.07395">
        <ele>424.6</ele>
        <time>2021-11-19T10:50:47Z</time>
      </trkpt>
      <trkpt lat="44.40969" lon="5.07392">
        <ele>424.6</ele>
        <time>2021-11-19T10:50:48Z</time>
      </trkpt>
      <trkpt lat="44.40975" lon="5.07389">
        <ele>424.6</ele>
        <time>2021-11-19T10:50:49Z</time>
      </trkpt>
      <trkpt lat="44.40982" lon="5.07384">
        <ele>424.6</ele>
        <time>2021-11-19T10:50:50Z</time>
      </trkpt>
      <trkpt lat="44.40987" lon="5.07381">
        <ele>424.6</ele>
        <time>2021-11-19T10:50:51Z</time>
      </trkpt>
      <trkpt lat="44.40993" lon="5.07376">
        <ele>424.7</ele>
        <time>2021-11-19T10:50:52Z</time>
      </trkpt>
      <trkpt lat="44.40999" lon="5.07372">
        <ele>424.7</ele>
        <time>2021-11-19T10:50:53Z</time>
      </trkpt>
      <trkpt lat="44.41004" lon="5.07367">
        <ele>424.7</ele>
        <time>2021-11-19T10:50:54Z</time>
      </trkpt>
      <trkpt lat="44.41009" lon="5.07363">
        <ele>424.7</ele>
        <time>2021-11-19T10:50:55Z</time>
      </trkpt>
      <trkpt lat="44.41014" lon="5.07359">
        <ele>424.7</ele>
        <time>2021-11-19T10:50:56Z</time>
      </trkpt>
      <trkpt lat="44.4102" lon="5.07354">
        <ele>424.7</ele>
        <time>2021-11-19T10:50:57Z</time>
      </trkpt>
      <trkpt lat="44.41025" lon="5.07349">
        <ele>424.7</ele>
        <time>2021-11-19T10:50:58Z</time>
      </trkpt>
      <trkpt lat="44.4103" lon="5.07344">
        <ele>424.7</ele>
        <time>2021-11-19T10:50:59Z</time>
      </trkpt>
      <trkpt lat="44.41035" lon="5.0734">
        <ele>424.7</ele>
        <time>2021-11-19T10:51:00Z</time>
      </trkpt>
      <trkpt lat="44.4104" lon="5.07335">
        <ele>424.7</ele>
        <time>2021-11-19T10:51:01Z</time>
      </trkpt>
      <trkpt lat="44.41045" lon="5.07331">
        <ele>424.7</ele>
        <time>2021-11-19T10:51:02Z</time>
      </trkpt>
      <trkpt lat="44.41051" lon="5.07326">
        <ele>424.7</ele>
        <time>2021-11-19T10:51:03Z</time>
      </trkpt>
      <trkpt lat="44.41057" lon="5.07321">
        <ele>424.7</ele>
        <time>2021-11-19T10:51:04Z</time>
      </trkpt>
      <trkpt lat="44.41062" lon="5.07317">
        <ele>424.7</ele>
        <time>2021-11-19T10:51:05Z</time>
      </trkpt>
      <trkpt lat="44.41067" lon="5.07312">
        <ele>424.6</ele>
        <time>2021-11-19T10:51:06Z</time>
      </trkpt>
      <trkpt lat="44.41072" lon="5.07306">
        <ele>424.6</ele>
        <time>2021-11-19T10:51:07Z</time>
      </trkpt>
      <trkpt lat="44.41077" lon="5.07301">
        <ele>424.7</ele>
        <time>2021-11-19T10:51:08Z</time>
      </trkpt>
      <trkpt lat="44.41081" lon="5.07296">
        <ele>424.7</ele>
        <time>2021-11-19T10:51:09Z</time>
      </trkpt>
      <trkpt lat="44.41086" lon="5.07289">
        <ele>424.7</ele>
        <time>2021-11-19T10:51:10Z</time>
      </trkpt>
      <trkpt lat="44.41091" lon="5.07284">
        <ele>424.6</ele>
        <time>2021-11-19T10:51:11Z</time>
      </trkpt>
      <trkpt lat="44.41095" lon="5.07278">
        <ele>424.6</ele>
        <time>2021-11-19T10:51:12Z</time>
      </trkpt>
      <trkpt lat="44.41099" lon="5.07272">
        <ele>424.6</ele>
        <time>2021-11-19T10:51:13Z</time>
      </trkpt>
      <trkpt lat="44.41103" lon="5.07268">
        <ele>424.6</ele>
        <time>2021-11-19T10:51:14Z</time>
      </trkpt>
      <trkpt lat="44.41108" lon="5.07263">
        <ele>424.5</ele>
        <time>2021-11-19T10:51:15Z</time>
      </trkpt>
      <trkpt lat="44.41113" lon="5.07257">
        <ele>424.5</ele>
        <time>2021-11-19T10:51:16Z</time>
      </trkpt>
      <trkpt lat="44.41118" lon="5.07252">
        <ele>424.5</ele>
        <time>2021-11-19T10:51:17Z</time>
      </trkpt>
      <trkpt lat="44.41122" lon="5.07247">
        <ele>424.5</ele>
        <time>2021-11-19T10:51:18Z</time>
      </trkpt>
      <trkpt lat="44.41126" lon="5.07241">
        <ele>424.5</ele>
        <time>2021-11-19T10:51:19Z</time>
      </trkpt>
      <trkpt lat="44.4113" lon="5.07235">
        <ele>424.5</ele>
        <time>2021-11-19T10:51:20Z</time>
      </trkpt>
      <trkpt lat="44.41134" lon="5.07229">
        <ele>424.6</ele>
        <time>2021-11-19T10:51:21Z</time>
      </trkpt>
      <trkpt lat="44.41138" lon="5.07224">
        <ele>424.6</ele>
        <time>2021-11-19T10:51:22Z</time>
      </trkpt>
      <trkpt lat="44.41142" lon="5.07219">
        <ele>424.7</ele>
        <time>2021-11-19T10:51:23Z</time>
      </trkpt>
      <trkpt lat="44.41146" lon="5.07213">
        <ele>424.8</ele>
        <time>2021-11-19T10:51:24Z</time>
      </trkpt>
      <trkpt lat="44.4115" lon="5.07208">
        <ele>424.9</ele>
        <time>2021-11-19T10:51:25Z</time>
      </trkpt>
      <trkpt lat="44.41153" lon="5.07204">
        <ele>425</ele>
        <time>2021-11-19T10:51:26Z</time>
      </trkpt>
      <trkpt lat="44.41157" lon="5.07199">
        <ele>425.2</ele>
        <time>2021-11-19T10:51:27Z</time>
      </trkpt>
      <trkpt lat="44.41161" lon="5.07193">
        <ele>425.3</ele>
        <time>2021-11-19T10:51:28Z</time>
      </trkpt>
      <trkpt lat="44.41167" lon="5.07188">
        <ele>425.5</ele>
        <time>2021-11-19T10:51:29Z</time>
      </trkpt>
      <trkpt lat="44.4117" lon="5.07184">
        <ele>425.7</ele>
        <time>2021-11-19T10:51:30Z</time>
      </trkpt>
      <trkpt lat="44.41173" lon="5.07179">
        <ele>425.8</ele>
        <time>2021-11-19T10:51:31Z</time>
      </trkpt>
      <trkpt lat="44.41177" lon="5.07174">
        <ele>426</ele>
        <time>2021-11-19T10:51:32Z</time>
      </trkpt>
      <trkpt lat="44.41179" lon="5.0717">
        <ele>426.1</ele>
        <time>2021-11-19T10:51:33Z</time>
      </trkpt>
      <trkpt lat="44.41183" lon="5.07167">
        <ele>426.2</ele>
        <time>2021-11-19T10:51:34Z</time>
      </trkpt>
      <trkpt lat="44.4119" lon="5.07162">
        <ele>426.5</ele>
        <time>2021-11-19T10:51:35Z</time>
      </trkpt>
      <trkpt lat="44.41199" lon="5.07166">
        <ele>426.7</ele>
        <time>2021-11-19T10:51:37Z</time>
      </trkpt>
      <trkpt lat="44.41207" lon="5.0716">
        <ele>427</ele>
        <time>2021-11-19T10:51:38Z</time>
      </trkpt>
      <trkpt lat="44.41212" lon="5.07157">
        <ele>427.1</ele>
        <time>2021-11-19T10:51:40Z</time>
      </trkpt>
      <trkpt lat="44.41217" lon="5.07156">
        <ele>427.3</ele>
        <time>2021-11-19T10:51:42Z</time>
      </trkpt>
      <trkpt lat="44.41229" lon="5.07153">
        <ele>427.6</ele>
        <time>2021-11-19T10:51:44Z</time>
      </trkpt>
      <trkpt lat="44.41241" lon="5.0715">
        <ele>427.9</ele>
        <time>2021-11-19T10:51:45Z</time>
      </trkpt>
      <trkpt lat="44.41251" lon="5.07151">
        <ele>428.2</ele>
        <time>2021-11-19T10:51:48Z</time>
      </trkpt>
      <trkpt lat="44.41265" lon="5.07152">
        <ele>428.6</ele>
        <time>2021-11-19T10:51:50Z</time>
      </trkpt>
      <trkpt lat="44.41278" lon="5.07153">
        <ele>428.9</ele>
        <time>2021-11-19T10:51:52Z</time>
      </trkpt>
      <trkpt lat="44.4129" lon="5.07151">
        <ele>429.3</ele>
        <time>2021-11-19T10:51:55Z</time>
      </trkpt>
      <trkpt lat="44.41297" lon="5.07152">
        <ele>429.4</ele>
        <time>2021-11-19T10:51:56Z</time>
      </trkpt>
      <trkpt lat="44.41306" lon="5.07153">
        <ele>429.6</ele>
        <time>2021-11-19T10:51:58Z</time>
      </trkpt>
      <trkpt lat="44.41308" lon="5.07152">
        <ele>429.6</ele>
        <time>2021-11-19T10:52:00Z</time>
      </trkpt>
      <trkpt lat="44.41303" lon="5.07152">
        <ele>429.7</ele>
        <time>2021-11-19T10:52:01Z</time>
      </trkpt>
      <trkpt lat="44.41294" lon="5.07148">
        <ele>429.8</ele>
        <time>2021-11-19T10:52:02Z</time>
      </trkpt>
      <trkpt lat="44.41287" lon="5.07139">
        <ele>430</ele>
        <time>2021-11-19T10:52:04Z</time>
      </trkpt>
      <trkpt lat="44.41289" lon="5.07143">
        <ele>430.1</ele>
        <time>2021-11-19T10:52:06Z</time>
      </trkpt>
      <trkpt lat="44.41291" lon="5.07145">
        <ele>430.1</ele>
        <time>2021-11-19T10:52:08Z</time>
      </trkpt>
      <trkpt lat="44.41294" lon="5.07145">
        <ele>430.2</ele>
        <time>2021-11-19T10:52:10Z</time>
      </trkpt>
      <trkpt lat="44.41306" lon="5.07146">
        <ele>430.4</ele>
        <time>2021-11-19T10:52:12Z</time>
      </trkpt>
      <trkpt lat="44.41308" lon="5.07149">
        <ele>430.5</ele>
        <time>2021-11-19T10:52:13Z</time>
      </trkpt>
      <trkpt lat="44.41321" lon="5.07157">
        <ele>430.8</ele>
        <time>2021-11-19T10:52:15Z</time>
      </trkpt>
      <trkpt lat="44.41333" lon="5.0715">
        <ele>431</ele>
        <time>2021-11-19T10:52:17Z</time>
      </trkpt>
      <trkpt lat="44.41347" lon="5.07144">
        <ele>431.4</ele>
        <time>2021-11-19T10:52:19Z</time>
      </trkpt>
      <trkpt lat="44.41354" lon="5.07143">
        <ele>431.5</ele>
        <time>2021-11-19T10:52:20Z</time>
      </trkpt>
      <trkpt lat="44.41368" lon="5.07142">
        <ele>431.8</ele>
        <time>2021-11-19T10:52:22Z</time>
      </trkpt>
      <trkpt lat="44.41382" lon="5.07142">
        <ele>432</ele>
        <time>2021-11-19T10:52:24Z</time>
      </trkpt>
      <trkpt lat="44.41392" lon="5.07144">
        <ele>432.2</ele>
        <time>2021-11-19T10:52:26Z</time>
      </trkpt>
      <trkpt lat="44.41402" lon="5.07144">
        <ele>432.4</ele>
        <time>2021-11-19T10:52:28Z</time>
      </trkpt>
      <trkpt lat="44.4141" lon="5.07141">
        <ele>432.5</ele>
        <time>2021-11-19T10:52:30Z</time>
      </trkpt>
      <trkpt lat="44.41422" lon="5.07137">
        <ele>432.7</ele>
        <time>2021-11-19T10:52:32Z</time>
      </trkpt>
      <trkpt lat="44.41436" lon="5.07129">
        <ele>432.8</ele>
        <time>2021-11-19T10:52:35Z</time>
      </trkpt>
      <trkpt lat="44.41448" lon="5.07124">
        <ele>433</ele>
        <time>2021-11-19T10:52:38Z</time>
      </trkpt>
      <trkpt lat="44.41453" lon="5.07121">
        <ele>433</ele>
        <time>2021-11-19T10:52:39Z</time>
      </trkpt>
      <trkpt lat="44.41458" lon="5.07118">
        <ele>433.1</ele>
        <time>2021-11-19T10:52:40Z</time>
      </trkpt>
      <trkpt lat="44.41463" lon="5.07118">
        <ele>433.2</ele>
        <time>2021-11-19T10:52:41Z</time>
      </trkpt>
      <trkpt lat="44.41468" lon="5.07117">
        <ele>433.2</ele>
        <time>2021-11-19T10:52:42Z</time>
      </trkpt>
      <trkpt lat="44.41473" lon="5.07117">
        <ele>433.3</ele>
        <time>2021-11-19T10:52:43Z</time>
      </trkpt>
      <trkpt lat="44.41484" lon="5.07115">
        <ele>433.4</ele>
        <time>2021-11-19T10:52:44Z</time>
      </trkpt>
      <trkpt lat="44.41494" lon="5.07119">
        <ele>433.6</ele>
        <time>2021-11-19T10:52:47Z</time>
      </trkpt>
      <trkpt lat="44.41499" lon="5.07121">
        <ele>433.7</ele>
        <time>2021-11-19T10:52:48Z</time>
      </trkpt>
      <trkpt lat="44.4151" lon="5.07124">
        <ele>433.8</ele>
        <time>2021-11-19T10:52:49Z</time>
      </trkpt>
      <trkpt lat="44.41513" lon="5.07128">
        <ele>433.9</ele>
        <time>2021-11-19T10:52:51Z</time>
      </trkpt>
      <trkpt lat="44.41533" lon="5.07133">
        <ele>434</ele>
        <time>2021-11-19T10:52:54Z</time>
      </trkpt>
      <trkpt lat="44.41545" lon="5.07134">
        <ele>434</ele>
        <time>2021-11-19T10:52:57Z</time>
      </trkpt>
      <trkpt lat="44.4155" lon="5.07134">
        <ele>433.9</ele>
        <time>2021-11-19T10:52:58Z</time>
      </trkpt>
      <trkpt lat="44.41555" lon="5.07135">
        <ele>433.9</ele>
        <time>2021-11-19T10:52:59Z</time>
      </trkpt>
      <trkpt lat="44.41561" lon="5.07137">
        <ele>433.9</ele>
        <time>2021-11-19T10:53:00Z</time>
      </trkpt>
      <trkpt lat="44.41567" lon="5.07138">
        <ele>433.9</ele>
        <time>2021-11-19T10:53:01Z</time>
      </trkpt>
      <trkpt lat="44.41572" lon="5.07139">
        <ele>433.9</ele>
        <time>2021-11-19T10:53:02Z</time>
      </trkpt>
      <trkpt lat="44.41578" lon="5.0714">
        <ele>433.9</ele>
        <time>2021-11-19T10:53:03Z</time>
      </trkpt>
      <trkpt lat="44.41583" lon="5.07141">
        <ele>433.8</ele>
        <time>2021-11-19T10:53:04Z</time>
      </trkpt>
      <trkpt lat="44.41589" lon="5.07143">
        <ele>433.8</ele>
        <time>2021-11-19T10:53:05Z</time>
      </trkpt>
      <trkpt lat="44.41595" lon="5.07145">
        <ele>433.8</ele>
        <time>2021-11-19T10:53:06Z</time>
      </trkpt>
      <trkpt lat="44.41601" lon="5.07147">
        <ele>433.8</ele>
        <time>2021-11-19T10:53:07Z</time>
      </trkpt>
      <trkpt lat="44.41606" lon="5.07149">
        <ele>433.8</ele>
        <time>2021-11-19T10:53:08Z</time>
      </trkpt>
      <trkpt lat="44.41612" lon="5.07152">
        <ele>433.8</ele>
        <time>2021-11-19T10:53:09Z</time>
      </trkpt>
      <trkpt lat="44.41619" lon="5.07155">
        <ele>433.8</ele>
        <time>2021-11-19T10:53:10Z</time>
      </trkpt>
      <trkpt lat="44.41625" lon="5.07156">
        <ele>433.7</ele>
        <time>2021-11-19T10:53:11Z</time>
      </trkpt>
      <trkpt lat="44.4163" lon="5.07157">
        <ele>433.7</ele>
        <time>2021-11-19T10:53:12Z</time>
      </trkpt>
      <trkpt lat="44.41636" lon="5.07158">
        <ele>433.7</ele>
        <time>2021-11-19T10:53:13Z</time>
      </trkpt>
      <trkpt lat="44.41642" lon="5.0716">
        <ele>433.8</ele>
        <time>2021-11-19T10:53:14Z</time>
      </trkpt>
      <trkpt lat="44.41648" lon="5.07161">
        <ele>433.8</ele>
        <time>2021-11-19T10:53:15Z</time>
      </trkpt>
      <trkpt lat="44.41654" lon="5.07162">
        <ele>433.8</ele>
        <time>2021-11-19T10:53:16Z</time>
      </trkpt>
      <trkpt lat="44.41659" lon="5.07163">
        <ele>433.8</ele>
        <time>2021-11-19T10:53:17Z</time>
      </trkpt>
      <trkpt lat="44.41664" lon="5.07165">
        <ele>433.8</ele>
        <time>2021-11-19T10:53:18Z</time>
      </trkpt>
      <trkpt lat="44.4167" lon="5.07166">
        <ele>433.9</ele>
        <time>2021-11-19T10:53:19Z</time>
      </trkpt>
      <trkpt lat="44.41676" lon="5.07168">
        <ele>433.9</ele>
        <time>2021-11-19T10:53:20Z</time>
      </trkpt>
      <trkpt lat="44.41683" lon="5.0717">
        <ele>433.9</ele>
        <time>2021-11-19T10:53:21Z</time>
      </trkpt>
      <trkpt lat="44.41691" lon="5.07171">
        <ele>434</ele>
        <time>2021-11-19T10:53:22Z</time>
      </trkpt>
      <trkpt lat="44.41697" lon="5.07172">
        <ele>434.2</ele>
        <time>2021-11-19T10:53:23Z</time>
      </trkpt>
      <trkpt lat="44.41703" lon="5.07171">
        <ele>434.3</ele>
        <time>2021-11-19T10:53:24Z</time>
      </trkpt>
      <trkpt lat="44.41708" lon="5.0717">
        <ele>434.4</ele>
        <time>2021-11-19T10:53:25Z</time>
      </trkpt>
      <trkpt lat="44.41714" lon="5.07168">
        <ele>434.5</ele>
        <time>2021-11-19T10:53:26Z</time>
      </trkpt>
      <trkpt lat="44.41719" lon="5.07162">
        <ele>434.6</ele>
        <time>2021-11-19T10:53:27Z</time>
      </trkpt>
      <trkpt lat="44.41723" lon="5.07156">
        <ele>434.7</ele>
        <time>2021-11-19T10:53:28Z</time>
      </trkpt>
      <trkpt lat="44.41727" lon="5.07148">
        <ele>434.7</ele>
        <time>2021-11-19T10:53:29Z</time>
      </trkpt>
      <trkpt lat="44.4173" lon="5.0714">
        <ele>434.8</ele>
        <time>2021-11-19T10:53:30Z</time>
      </trkpt>
      <trkpt lat="44.41731" lon="5.07132">
        <ele>434.8</ele>
        <time>2021-11-19T10:53:31Z</time>
      </trkpt>
      <trkpt lat="44.41729" lon="5.07125">
        <ele>434.8</ele>
        <time>2021-11-19T10:53:32Z</time>
      </trkpt>
      <trkpt lat="44.41725" lon="5.07118">
        <ele>434.8</ele>
        <time>2021-11-19T10:53:33Z</time>
      </trkpt>
      <trkpt lat="44.41722" lon="5.07112">
        <ele>434.8</ele>
        <time>2021-11-19T10:53:34Z</time>
      </trkpt>
      <trkpt lat="44.41718" lon="5.07106">
        <ele>434.8</ele>
        <time>2021-11-19T10:53:35Z</time>
      </trkpt>
      <trkpt lat="44.41713" lon="5.07103">
        <ele>434.9</ele>
        <time>2021-11-19T10:53:36Z</time>
      </trkpt>
      <trkpt lat="44.41708" lon="5.07099">
        <ele>434.9</ele>
        <time>2021-11-19T10:53:37Z</time>
      </trkpt>
      <trkpt lat="44.41704" lon="5.07094">
        <ele>435</ele>
        <time>2021-11-19T10:53:38Z</time>
      </trkpt>
      <trkpt lat="44.417" lon="5.0709">
        <ele>435.1</ele>
        <time>2021-11-19T10:53:39Z</time>
      </trkpt>
      <trkpt lat="44.41694" lon="5.07083">
        <ele>435.3</ele>
        <time>2021-11-19T10:53:40Z</time>
      </trkpt>
      <trkpt lat="44.41703" lon="5.07085">
        <ele>435.5</ele>
        <time>2021-11-19T10:53:42Z</time>
      </trkpt>
      <trkpt lat="44.41692" lon="5.07087">
        <ele>435.8</ele>
        <time>2021-11-19T10:53:43Z</time>
      </trkpt>
      <trkpt lat="44.41683" lon="5.07079">
        <ele>436.2</ele>
        <time>2021-11-19T10:53:46Z</time>
      </trkpt>
      <trkpt lat="44.41676" lon="5.07073">
        <ele>436.5</ele>
        <time>2021-11-19T10:53:48Z</time>
      </trkpt>
      <trkpt lat="44.41671" lon="5.07067">
        <ele>436.8</ele>
        <time>2021-11-19T10:53:49Z</time>
      </trkpt>
      <trkpt lat="44.41668" lon="5.07063">
        <ele>437</ele>
        <time>2021-11-19T10:53:51Z</time>
      </trkpt>
      <trkpt lat="44.41662" lon="5.07053">
        <ele>437.4</ele>
        <time>2021-11-19T10:53:53Z</time>
      </trkpt>
      <trkpt lat="44.41658" lon="5.07044">
        <ele>437.8</ele>
        <time>2021-11-19T10:53:55Z</time>
      </trkpt>
      <trkpt lat="44.41654" lon="5.07039">
        <ele>438.1</ele>
        <time>2021-11-19T10:53:56Z</time>
      </trkpt>
      <trkpt lat="44.41651" lon="5.07036">
        <ele>438.3</ele>
        <time>2021-11-19T10:53:58Z</time>
      </trkpt>
      <trkpt lat="44.41643" lon="5.07028">
        <ele>438.8</ele>
        <time>2021-11-19T10:54:00Z</time>
      </trkpt>
      <trkpt lat="44.41641" lon="5.07018">
        <ele>439.2</ele>
        <time>2021-11-19T10:54:02Z</time>
      </trkpt>
      <trkpt lat="44.41641" lon="5.07011">
        <ele>439.4</ele>
        <time>2021-11-19T10:54:04Z</time>
      </trkpt>
      <trkpt lat="44.4164" lon="5.07006">
        <ele>439.6</ele>
        <time>2021-11-19T10:54:05Z</time>
      </trkpt>
      <trkpt lat="44.41639" lon="5.06998">
        <ele>439.9</ele>
        <time>2021-11-19T10:54:07Z</time>
      </trkpt>
      <trkpt lat="44.41637" lon="5.06992">
        <ele>440.1</ele>
        <time>2021-11-19T10:54:08Z</time>
      </trkpt>
      <trkpt lat="44.41636" lon="5.0699">
        <ele>440.2</ele>
        <time>2021-11-19T10:54:09Z</time>
      </trkpt>
      <trkpt lat="44.41634" lon="5.06989">
        <ele>440.3</ele>
        <time>2021-11-19T10:54:10Z</time>
      </trkpt>
      <trkpt lat="44.41629" lon="5.06982">
        <ele>440.7</ele>
        <time>2021-11-19T10:54:12Z</time>
      </trkpt>
      <trkpt lat="44.41626" lon="5.06978">
        <ele>440.9</ele>
        <time>2021-11-19T10:54:13Z</time>
      </trkpt>
      <trkpt lat="44.4162" lon="5.06975">
        <ele>441.2</ele>
        <time>2021-11-19T10:54:15Z</time>
      </trkpt>
      <trkpt lat="44.41617" lon="5.06974">
        <ele>441.4</ele>
        <time>2021-11-19T10:54:16Z</time>
      </trkpt>
      <trkpt lat="44.41616" lon="5.06973">
        <ele>441.5</ele>
        <time>2021-11-19T10:54:17Z</time>
      </trkpt>
      <trkpt lat="44.4161" lon="5.06968">
        <ele>441.8</ele>
        <time>2021-11-19T10:54:19Z</time>
      </trkpt>
      <trkpt lat="44.41605" lon="5.06962">
        <ele>442.2</ele>
        <time>2021-11-19T10:54:21Z</time>
      </trkpt>
      <trkpt lat="44.41603" lon="5.06959">
        <ele>442.3</ele>
        <time>2021-11-19T10:54:22Z</time>
      </trkpt>
      <trkpt lat="44.416" lon="5.06956">
        <ele>442.5</ele>
        <time>2021-11-19T10:54:24Z</time>
      </trkpt>
      <trkpt lat="44.41597" lon="5.06952">
        <ele>442.7</ele>
        <time>2021-11-19T10:54:25Z</time>
      </trkpt>
      <trkpt lat="44.41595" lon="5.06947">
        <ele>442.9</ele>
        <time>2021-11-19T10:54:27Z</time>
      </trkpt>
      <trkpt lat="44.41593" lon="5.0694">
        <ele>443.2</ele>
        <time>2021-11-19T10:54:29Z</time>
      </trkpt>
      <trkpt lat="44.41591" lon="5.06925">
        <ele>443.7</ele>
        <time>2021-11-19T10:54:31Z</time>
      </trkpt>
      <trkpt lat="44.41591" lon="5.06913">
        <ele>444.2</ele>
        <time>2021-11-19T10:54:33Z</time>
      </trkpt>
      <trkpt lat="44.41593" lon="5.06903">
        <ele>444.5</ele>
        <time>2021-11-19T10:54:35Z</time>
      </trkpt>
      <trkpt lat="44.41595" lon="5.06894">
        <ele>444.8</ele>
        <time>2021-11-19T10:54:37Z</time>
      </trkpt>
      <trkpt lat="44.41596" lon="5.06887">
        <ele>445.1</ele>
        <time>2021-11-19T10:54:39Z</time>
      </trkpt>
      <trkpt lat="44.41598" lon="5.0688">
        <ele>445.4</ele>
        <time>2021-11-19T10:54:40Z</time>
      </trkpt>
      <trkpt lat="44.41599" lon="5.06876">
        <ele>445.6</ele>
        <time>2021-11-19T10:54:42Z</time>
      </trkpt>
      <trkpt lat="44.41599" lon="5.06865">
        <ele>445.9</ele>
        <time>2021-11-19T10:54:44Z</time>
      </trkpt>
      <trkpt lat="44.416" lon="5.06857">
        <ele>446.2</ele>
        <time>2021-11-19T10:54:46Z</time>
      </trkpt>
      <trkpt lat="44.41601" lon="5.06848">
        <ele>446.5</ele>
        <time>2021-11-19T10:54:48Z</time>
      </trkpt>
      <trkpt lat="44.41602" lon="5.06843">
        <ele>446.7</ele>
        <time>2021-11-19T10:54:49Z</time>
      </trkpt>
      <trkpt lat="44.41603" lon="5.06837">
        <ele>446.8</ele>
        <time>2021-11-19T10:54:52Z</time>
      </trkpt>
      <trkpt lat="44.41604" lon="5.06826">
        <ele>447.1</ele>
        <time>2021-11-19T10:54:54Z</time>
      </trkpt>
      <trkpt lat="44.41604" lon="5.06817">
        <ele>447.3</ele>
        <time>2021-11-19T10:54:56Z</time>
      </trkpt>
      <trkpt lat="44.41602" lon="5.06811">
        <ele>447.5</ele>
        <time>2021-11-19T10:54:59Z</time>
      </trkpt>
      <trkpt lat="44.41602" lon="5.06805">
        <ele>447.6</ele>
        <time>2021-11-19T10:55:00Z</time>
      </trkpt>
      <trkpt lat="44.41604" lon="5.06796">
        <ele>447.7</ele>
        <time>2021-11-19T10:55:02Z</time>
      </trkpt>
      <trkpt lat="44.41609" lon="5.0679">
        <ele>447.8</ele>
        <time>2021-11-19T10:55:04Z</time>
      </trkpt>
      <trkpt lat="44.41612" lon="5.0678">
        <ele>447.8</ele>
        <time>2021-11-19T10:55:06Z</time>
      </trkpt>
      <trkpt lat="44.41616" lon="5.06774">
        <ele>447.8</ele>
        <time>2021-11-19T10:55:08Z</time>
      </trkpt>
      <trkpt lat="44.41622" lon="5.06769">
        <ele>447.7</ele>
        <time>2021-11-19T10:55:11Z</time>
      </trkpt>
      <trkpt lat="44.41626" lon="5.06762">
        <ele>447.6</ele>
        <time>2021-11-19T10:55:13Z</time>
      </trkpt>
      <trkpt lat="44.4163" lon="5.06754">
        <ele>447.5</ele>
        <time>2021-11-19T10:55:15Z</time>
      </trkpt>
      <trkpt lat="44.41635" lon="5.0674">
        <ele>446.9</ele>
        <time>2021-11-19T10:55:18Z</time>
      </trkpt>
      <trkpt lat="44.41637" lon="5.06734">
        <ele>446.6</ele>
        <time>2021-11-19T10:55:19Z</time>
      </trkpt>
      <trkpt lat="44.41642" lon="5.0672">
        <ele>445.9</ele>
        <time>2021-11-19T10:55:21Z</time>
      </trkpt>
      <trkpt lat="44.41648" lon="5.0672">
        <ele>445.5</ele>
        <time>2021-11-19T10:55:24Z</time>
      </trkpt>
      <trkpt lat="44.41652" lon="5.06713">
        <ele>445.1</ele>
        <time>2021-11-19T10:55:25Z</time>
      </trkpt>
      <trkpt lat="44.41657" lon="5.06706">
        <ele>444.7</ele>
        <time>2021-11-19T10:55:26Z</time>
      </trkpt>
      <trkpt lat="44.41663" lon="5.06697">
        <ele>444.1</ele>
        <time>2021-11-19T10:55:27Z</time>
      </trkpt>
      <trkpt lat="44.41669" lon="5.06689">
        <ele>443.7</ele>
        <time>2021-11-19T10:55:28Z</time>
      </trkpt>
      <trkpt lat="44.41675" lon="5.06681">
        <ele>443.2</ele>
        <time>2021-11-19T10:55:29Z</time>
      </trkpt>
      <trkpt lat="44.41681" lon="5.06673">
        <ele>442.7</ele>
        <time>2021-11-19T10:55:30Z</time>
      </trkpt>
      <trkpt lat="44.41687" lon="5.06665">
        <ele>442.2</ele>
        <time>2021-11-19T10:55:31Z</time>
      </trkpt>
      <trkpt lat="44.41694" lon="5.06659">
        <ele>441.8</ele>
        <time>2021-11-19T10:55:32Z</time>
      </trkpt>
      <trkpt lat="44.417" lon="5.06653">
        <ele>441.4</ele>
        <time>2021-11-19T10:55:33Z</time>
      </trkpt>
      <trkpt lat="44.41706" lon="5.06647">
        <ele>441.1</ele>
        <time>2021-11-19T10:55:34Z</time>
      </trkpt>
      <trkpt lat="44.41711" lon="5.06639">
        <ele>440.7</ele>
        <time>2021-11-19T10:55:35Z</time>
      </trkpt>
      <trkpt lat="44.41716" lon="5.06631">
        <ele>440.4</ele>
        <time>2021-11-19T10:55:36Z</time>
      </trkpt>
      <trkpt lat="44.41721" lon="5.06622">
        <ele>440.1</ele>
        <time>2021-11-19T10:55:37Z</time>
      </trkpt>
      <trkpt lat="44.41725" lon="5.06613">
        <ele>439.8</ele>
        <time>2021-11-19T10:55:38Z</time>
      </trkpt>
      <trkpt lat="44.4173" lon="5.06603">
        <ele>439.6</ele>
        <time>2021-11-19T10:55:39Z</time>
      </trkpt>
      <trkpt lat="44.41733" lon="5.06593">
        <ele>439.3</ele>
        <time>2021-11-19T10:55:40Z</time>
      </trkpt>
      <trkpt lat="44.41737" lon="5.06583">
        <ele>439.1</ele>
        <time>2021-11-19T10:55:41Z</time>
      </trkpt>
      <trkpt lat="44.41741" lon="5.06572">
        <ele>438.9</ele>
        <time>2021-11-19T10:55:42Z</time>
      </trkpt>
      <trkpt lat="44.41745" lon="5.06563">
        <ele>438.7</ele>
        <time>2021-11-19T10:55:43Z</time>
      </trkpt>
      <trkpt lat="44.4175" lon="5.06554">
        <ele>438.6</ele>
        <time>2021-11-19T10:55:44Z</time>
      </trkpt>
      <trkpt lat="44.41755" lon="5.06546">
        <ele>438.5</ele>
        <time>2021-11-19T10:55:45Z</time>
      </trkpt>
      <trkpt lat="44.4176" lon="5.06538">
        <ele>438.4</ele>
        <time>2021-11-19T10:55:46Z</time>
      </trkpt>
      <trkpt lat="44.41765" lon="5.0653">
        <ele>438.3</ele>
        <time>2021-11-19T10:55:47Z</time>
      </trkpt>
      <trkpt lat="44.41771" lon="5.06522">
        <ele>438.3</ele>
        <time>2021-11-19T10:55:48Z</time>
      </trkpt>
      <trkpt lat="44.41776" lon="5.06515">
        <ele>438.3</ele>
        <time>2021-11-19T10:55:49Z</time>
      </trkpt>
      <trkpt lat="44.41781" lon="5.06508">
        <ele>438.3</ele>
        <time>2021-11-19T10:55:50Z</time>
      </trkpt>
      <trkpt lat="44.41786" lon="5.06501">
        <ele>438.3</ele>
        <time>2021-11-19T10:55:51Z</time>
      </trkpt>
      <trkpt lat="44.41791" lon="5.06494">
        <ele>438.4</ele>
        <time>2021-11-19T10:55:52Z</time>
      </trkpt>
      <trkpt lat="44.41795" lon="5.06487">
        <ele>438.6</ele>
        <time>2021-11-19T10:55:53Z</time>
      </trkpt>
      <trkpt lat="44.418" lon="5.06481">
        <ele>438.7</ele>
        <time>2021-11-19T10:55:54Z</time>
      </trkpt>
      <trkpt lat="44.41804" lon="5.06474">
        <ele>438.7</ele>
        <time>2021-11-19T10:55:55Z</time>
      </trkpt>
      <trkpt lat="44.41808" lon="5.06469">
        <ele>438.8</ele>
        <time>2021-11-19T10:55:56Z</time>
      </trkpt>
      <trkpt lat="44.41812" lon="5.06463">
        <ele>438.9</ele>
        <time>2021-11-19T10:55:57Z</time>
      </trkpt>
      <trkpt lat="44.41815" lon="5.06457">
        <ele>439</ele>
        <time>2021-11-19T10:55:58Z</time>
      </trkpt>
      <trkpt lat="44.41818" lon="5.06452">
        <ele>439.1</ele>
        <time>2021-11-19T10:55:59Z</time>
      </trkpt>
      <trkpt lat="44.41822" lon="5.06448">
        <ele>439.2</ele>
        <time>2021-11-19T10:56:00Z</time>
      </trkpt>
      <trkpt lat="44.41825" lon="5.06444">
        <ele>439.3</ele>
        <time>2021-11-19T10:56:01Z</time>
      </trkpt>
      <trkpt lat="44.41828" lon="5.06439">
        <ele>439.4</ele>
        <time>2021-11-19T10:56:02Z</time>
      </trkpt>
      <trkpt lat="44.41832" lon="5.06434">
        <ele>439.5</ele>
        <time>2021-11-19T10:56:03Z</time>
      </trkpt>
      <trkpt lat="44.41835" lon="5.06429">
        <ele>439.7</ele>
        <time>2021-11-19T10:56:04Z</time>
      </trkpt>
      <trkpt lat="44.41839" lon="5.06425">
        <ele>439.8</ele>
        <time>2021-11-19T10:56:05Z</time>
      </trkpt>
      <trkpt lat="44.41843" lon="5.0642">
        <ele>439.9</ele>
        <time>2021-11-19T10:56:06Z</time>
      </trkpt>
      <trkpt lat="44.41846" lon="5.06417">
        <ele>440.1</ele>
        <time>2021-11-19T10:56:07Z</time>
      </trkpt>
      <trkpt lat="44.41849" lon="5.06415">
        <ele>440.2</ele>
        <time>2021-11-19T10:56:08Z</time>
      </trkpt>
      <trkpt lat="44.41853" lon="5.06412">
        <ele>440.3</ele>
        <time>2021-11-19T10:56:09Z</time>
      </trkpt>
      <trkpt lat="44.41857" lon="5.06409">
        <ele>440.5</ele>
        <time>2021-11-19T10:56:10Z</time>
      </trkpt>
      <trkpt lat="44.41861" lon="5.06405">
        <ele>440.6</ele>
        <time>2021-11-19T10:56:11Z</time>
      </trkpt>
      <trkpt lat="44.41865" lon="5.06401">
        <ele>440.8</ele>
        <time>2021-11-19T10:56:12Z</time>
      </trkpt>
      <trkpt lat="44.41871" lon="5.06394">
        <ele>441</ele>
        <time>2021-11-19T10:56:13Z</time>
      </trkpt>
      <trkpt lat="44.41876" lon="5.06383">
        <ele>441.2</ele>
        <time>2021-11-19T10:56:14Z</time>
      </trkpt>
      <trkpt lat="44.41881" lon="5.06389">
        <ele>441.4</ele>
        <time>2021-11-19T10:56:16Z</time>
      </trkpt>
      <trkpt lat="44.41888" lon="5.06382">
        <ele>441.6</ele>
        <time>2021-11-19T10:56:17Z</time>
      </trkpt>
      <trkpt lat="44.41893" lon="5.06376">
        <ele>441.8</ele>
        <time>2021-11-19T10:56:18Z</time>
      </trkpt>
      <trkpt lat="44.41904" lon="5.06367">
        <ele>442.1</ele>
        <time>2021-11-19T10:56:19Z</time>
      </trkpt>
      <trkpt lat="44.4191" lon="5.06361">
        <ele>442.3</ele>
        <time>2021-11-19T10:56:21Z</time>
      </trkpt>
      <trkpt lat="44.4192" lon="5.06355">
        <ele>442.5</ele>
        <time>2021-11-19T10:56:23Z</time>
      </trkpt>
      <trkpt lat="44.41932" lon="5.06346">
        <ele>442.8</ele>
        <time>2021-11-19T10:56:26Z</time>
      </trkpt>
      <trkpt lat="44.4194" lon="5.0634">
        <ele>443</ele>
        <time>2021-11-19T10:56:28Z</time>
      </trkpt>
      <trkpt lat="44.41945" lon="5.06332">
        <ele>443.2</ele>
        <time>2021-11-19T10:56:30Z</time>
      </trkpt>
      <trkpt lat="44.4195" lon="5.06321">
        <ele>443.4</ele>
        <time>2021-11-19T10:56:32Z</time>
      </trkpt>
      <trkpt lat="44.41952" lon="5.06308">
        <ele>443.6</ele>
        <time>2021-11-19T10:56:34Z</time>
      </trkpt>
      <trkpt lat="44.41952" lon="5.06296">
        <ele>443.7</ele>
        <time>2021-11-19T10:56:36Z</time>
      </trkpt>
      <trkpt lat="44.41953" lon="5.06289">
        <ele>443.8</ele>
        <time>2021-11-19T10:56:37Z</time>
      </trkpt>
      <trkpt lat="44.41955" lon="5.06276">
        <ele>443.9</ele>
        <time>2021-11-19T10:56:38Z</time>
      </trkpt>
      <trkpt lat="44.41955" lon="5.0627">
        <ele>443.9</ele>
        <time>2021-11-19T10:56:39Z</time>
      </trkpt>
      <trkpt lat="44.41955" lon="5.06266">
        <ele>443.8</ele>
        <time>2021-11-19T10:56:41Z</time>
      </trkpt>
      <trkpt lat="44.41956" lon="5.0626">
        <ele>443.8</ele>
        <time>2021-11-19T10:56:42Z</time>
      </trkpt>
      <trkpt lat="44.41956" lon="5.06248">
        <ele>443.8</ele>
        <time>2021-11-19T10:56:44Z</time>
      </trkpt>
      <trkpt lat="44.41943" lon="5.06244">
        <ele>443.8</ele>
        <time>2021-11-19T10:56:46Z</time>
      </trkpt>
      <trkpt lat="44.41944" lon="5.06241">
        <ele>443.8</ele>
        <time>2021-11-19T10:56:47Z</time>
      </trkpt>
      <trkpt lat="44.41938" lon="5.0623">
        <ele>444.8</ele>
        <time>2021-11-19T10:56:49Z</time>
      </trkpt>
      <trkpt lat="44.4193" lon="5.06221">
        <ele>445.2</ele>
        <time>2021-11-19T10:56:50Z</time>
      </trkpt>
      <trkpt lat="44.41925" lon="5.06216">
        <ele>445.4</ele>
        <time>2021-11-19T10:56:51Z</time>
      </trkpt>
      <trkpt lat="44.41921" lon="5.06216">
        <ele>445.6</ele>
        <time>2021-11-19T10:56:52Z</time>
      </trkpt>
      <trkpt lat="44.41919" lon="5.06219">
        <ele>445.7</ele>
        <time>2021-11-19T10:56:54Z</time>
      </trkpt>
      <trkpt lat="44.4192" lon="5.06224">
        <ele>445.9</ele>
        <time>2021-11-19T10:56:56Z</time>
      </trkpt>
      <trkpt lat="44.41919" lon="5.06222">
        <ele>446</ele>
        <time>2021-11-19T10:56:57Z</time>
      </trkpt>
      <trkpt lat="44.41919" lon="5.06219">
        <ele>446.1</ele>
        <time>2021-11-19T10:56:59Z</time>
      </trkpt>
      <trkpt lat="44.41921" lon="5.06222">
        <ele>446.2</ele>
        <time>2021-11-19T10:57:01Z</time>
      </trkpt>
      <trkpt lat="44.41922" lon="5.06224">
        <ele>446.3</ele>
        <time>2021-11-19T10:57:02Z</time>
      </trkpt>
      <trkpt lat="44.41914" lon="5.06196">
        <ele>448.6</ele>
        <time>2021-11-19T10:57:05Z</time>
      </trkpt>
      <trkpt lat="44.4191" lon="5.0618">
        <ele>449.2</ele>
        <time>2021-11-19T10:57:06Z</time>
      </trkpt>
      <trkpt lat="44.41908" lon="5.06168">
        <ele>449.5</ele>
        <time>2021-11-19T10:57:07Z</time>
      </trkpt>
      <trkpt lat="44.41903" lon="5.06148">
        <ele>447.7</ele>
        <time>2021-11-19T10:57:08Z</time>
      </trkpt>
      <trkpt lat="44.41898" lon="5.06123">
        <ele>446.1</ele>
        <time>2021-11-19T10:57:09Z</time>
      </trkpt>
      <trkpt lat="44.41896" lon="5.06099">
        <ele>445.3</ele>
        <time>2021-11-19T10:57:10Z</time>
      </trkpt>
      <trkpt lat="44.41896" lon="5.06081">
        <ele>444.5</ele>
        <time>2021-11-19T10:57:11Z</time>
      </trkpt>
      <trkpt lat="44.41895" lon="5.06065">
        <ele>443.2</ele>
        <time>2021-11-19T10:57:12Z</time>
      </trkpt>
      <trkpt lat="44.41896" lon="5.06052">
        <ele>441.8</ele>
        <time>2021-11-19T10:57:13Z</time>
      </trkpt>
      <trkpt lat="44.41899" lon="5.06041">
        <ele>440.3</ele>
        <time>2021-11-19T10:57:14Z</time>
      </trkpt>
      <trkpt lat="44.41904" lon="5.06032">
        <ele>438.7</ele>
        <time>2021-11-19T10:57:15Z</time>
      </trkpt>
      <trkpt lat="44.4191" lon="5.06028">
        <ele>433.8</ele>
        <time>2021-11-19T10:57:16Z</time>
      </trkpt>
      <trkpt lat="44.41917" lon="5.06029">
        <ele>433.3</ele>
        <time>2021-11-19T10:57:17Z</time>
      </trkpt>
      <trkpt lat="44.41923" lon="5.06032">
        <ele>432.9</ele>
        <time>2021-11-19T10:57:18Z</time>
      </trkpt>
      <trkpt lat="44.41928" lon="5.0604">
        <ele>432.4</ele>
        <time>2021-11-19T10:57:19Z</time>
      </trkpt>
      <trkpt lat="44.41933" lon="5.06049">
        <ele>431.9</ele>
        <time>2021-11-19T10:57:20Z</time>
      </trkpt>
      <trkpt lat="44.41938" lon="5.06059">
        <ele>431.4</ele>
        <time>2021-11-19T10:57:21Z</time>
      </trkpt>
      <trkpt lat="44.41941" lon="5.06066">
        <ele>431</ele>
        <time>2021-11-19T10:57:22Z</time>
      </trkpt>
      <trkpt lat="44.41944" lon="5.06074">
        <ele>430.6</ele>
        <time>2021-11-19T10:57:23Z</time>
      </trkpt>
      <trkpt lat="44.41949" lon="5.0608">
        <ele>430.2</ele>
        <time>2021-11-19T10:57:24Z</time>
      </trkpt>
      <trkpt lat="44.41954" lon="5.06084">
        <ele>429.9</ele>
        <time>2021-11-19T10:57:25Z</time>
      </trkpt>
      <trkpt lat="44.41962" lon="5.06086">
        <ele>429.4</ele>
        <time>2021-11-19T10:57:26Z</time>
      </trkpt>
      <trkpt lat="44.41972" lon="5.06086">
        <ele>429.3</ele>
        <time>2021-11-19T10:57:27Z</time>
      </trkpt>
      <trkpt lat="44.41979" lon="5.0608">
        <ele>429.2</ele>
        <time>2021-11-19T10:57:28Z</time>
      </trkpt>
      <trkpt lat="44.41984" lon="5.0607">
        <ele>429</ele>
        <time>2021-11-19T10:57:29Z</time>
      </trkpt>
      <trkpt lat="44.41986" lon="5.06057">
        <ele>428.5</ele>
        <time>2021-11-19T10:57:30Z</time>
      </trkpt>
      <trkpt lat="44.41985" lon="5.06043">
        <ele>428</ele>
        <time>2021-11-19T10:57:31Z</time>
      </trkpt>
      <trkpt lat="44.41984" lon="5.0603">
        <ele>427.6</ele>
        <time>2021-11-19T10:57:32Z</time>
      </trkpt>
      <trkpt lat="44.41983" lon="5.06019">
        <ele>427.2</ele>
        <time>2021-11-19T10:57:33Z</time>
      </trkpt>
      <trkpt lat="44.41982" lon="5.06011">
        <ele>426.9</ele>
        <time>2021-11-19T10:57:34Z</time>
      </trkpt>
      <trkpt lat="44.41979" lon="5.06008">
        <ele>426.7</ele>
        <time>2021-11-19T10:57:35Z</time>
      </trkpt>
      <trkpt lat="44.41977" lon="5.06011">
        <ele>426.6</ele>
        <time>2021-11-19T10:57:36Z</time>
      </trkpt>
      <trkpt lat="44.41977" lon="5.06012">
        <ele>426.5</ele>
        <time>2021-11-19T10:57:37Z</time>
      </trkpt>
      <trkpt lat="44.41977" lon="5.06013">
        <ele>426.5</ele>
        <time>2021-11-19T10:57:38Z</time>
      </trkpt>
      <trkpt lat="44.41977" lon="5.06015">
        <ele>426.4</ele>
        <time>2021-11-19T10:57:39Z</time>
      </trkpt>
      <trkpt lat="44.41977" lon="5.06016">
        <ele>426.4</ele>
        <time>2021-11-19T10:57:40Z</time>
      </trkpt>
      <trkpt lat="44.41977" lon="5.06016">
        <ele>426.4</ele>
        <time>2021-11-19T10:57:42Z</time>
      </trkpt>
      <trkpt lat="44.41977" lon="5.06017">
        <ele>426.3</ele>
        <time>2021-11-19T10:57:45Z</time>
      </trkpt>
      <trkpt lat="44.41977" lon="5.06018">
        <ele>426.3</ele>
        <time>2021-11-19T10:57:46Z</time>
      </trkpt>
      <trkpt lat="44.41978" lon="5.06018">
        <ele>426.3</ele>
        <time>2021-11-19T10:57:47Z</time>
      </trkpt>
      <trkpt lat="44.41978" lon="5.06018">
        <ele>426.3</ele>
        <time>2021-11-19T10:57:48Z</time>
      </trkpt>
      <trkpt lat="44.41978" lon="5.06019">
        <ele>426.3</ele>
        <time>2021-11-19T10:57:49Z</time>
      </trkpt>
      <trkpt lat="44.41978" lon="5.06019">
        <ele>426.3</ele>
        <time>2021-11-19T10:57:50Z</time>
      </trkpt>
      <trkpt lat="44.41976" lon="5.06009">
        <ele>425.9</ele>
        <time>2021-11-19T10:58:35Z</time>
      </trkpt>
      <trkpt lat="44.41974" lon="5.06">
        <ele>425.5</ele>
        <time>2021-11-19T10:58:37Z</time>
      </trkpt>
      <trkpt lat="44.41971" lon="5.05988">
        <ele>425.1</ele>
        <time>2021-11-19T10:58:38Z</time>
      </trkpt>
      <trkpt lat="44.41968" lon="5.05969">
        <ele>424.4</ele>
        <time>2021-11-19T10:58:41Z</time>
      </trkpt>
      <trkpt lat="44.41966" lon="5.0596">
        <ele>424.1</ele>
        <time>2021-11-19T10:58:42Z</time>
      </trkpt>
      <trkpt lat="44.41964" lon="5.05951">
        <ele>423.7</ele>
        <time>2021-11-19T10:58:43Z</time>
      </trkpt>
      <trkpt lat="44.41962" lon="5.05942">
        <ele>423.4</ele>
        <time>2021-11-19T10:58:44Z</time>
      </trkpt>
      <trkpt lat="44.4196" lon="5.05933">
        <ele>423</ele>
        <time>2021-11-19T10:58:45Z</time>
      </trkpt>
      <trkpt lat="44.41958" lon="5.05922">
        <ele>422.4</ele>
        <time>2021-11-19T10:58:46Z</time>
      </trkpt>
      <trkpt lat="44.41955" lon="5.05912">
        <ele>421.8</ele>
        <time>2021-11-19T10:58:47Z</time>
      </trkpt>
      <trkpt lat="44.41953" lon="5.05901">
        <ele>421.2</ele>
        <time>2021-11-19T10:58:48Z</time>
      </trkpt>
      <trkpt lat="44.4195" lon="5.05889">
        <ele>420.5</ele>
        <time>2021-11-19T10:58:49Z</time>
      </trkpt>
      <trkpt lat="44.41948" lon="5.05876">
        <ele>419.7</ele>
        <time>2021-11-19T10:58:50Z</time>
      </trkpt>
      <trkpt lat="44.41946" lon="5.05863">
        <ele>419.1</ele>
        <time>2021-11-19T10:58:51Z</time>
      </trkpt>
      <trkpt lat="44.41944" lon="5.05851">
        <ele>418.4</ele>
        <time>2021-11-19T10:58:52Z</time>
      </trkpt>
      <trkpt lat="44.41942" lon="5.05839">
        <ele>417.8</ele>
        <time>2021-11-19T10:58:53Z</time>
      </trkpt>
      <trkpt lat="44.4194" lon="5.05828">
        <ele>417.3</ele>
        <time>2021-11-19T10:58:54Z</time>
      </trkpt>
      <trkpt lat="44.4194" lon="5.05817">
        <ele>416.7</ele>
        <time>2021-11-19T10:58:55Z</time>
      </trkpt>
      <trkpt lat="44.41945" lon="5.05802">
        <ele>416</ele>
        <time>2021-11-19T10:58:56Z</time>
      </trkpt>
      <trkpt lat="44.4195" lon="5.05785">
        <ele>415.1</ele>
        <time>2021-11-19T10:58:57Z</time>
      </trkpt>
      <trkpt lat="44.41957" lon="5.05769">
        <ele>414.2</ele>
        <time>2021-11-19T10:58:58Z</time>
      </trkpt>
      <trkpt lat="44.41963" lon="5.05752">
        <ele>413.3</ele>
        <time>2021-11-19T10:58:59Z</time>
      </trkpt>
      <trkpt lat="44.4197" lon="5.05742">
        <ele>412.7</ele>
        <time>2021-11-19T10:59:00Z</time>
      </trkpt>
      <trkpt lat="44.41978" lon="5.05734">
        <ele>412</ele>
        <time>2021-11-19T10:59:01Z</time>
      </trkpt>
      <trkpt lat="44.41987" lon="5.05728">
        <ele>411.3</ele>
        <time>2021-11-19T10:59:02Z</time>
      </trkpt>
      <trkpt lat="44.41997" lon="5.0572">
        <ele>410.5</ele>
        <time>2021-11-19T10:59:03Z</time>
      </trkpt>
      <trkpt lat="44.42007" lon="5.05712">
        <ele>409.6</ele>
        <time>2021-11-19T10:59:04Z</time>
      </trkpt>
      <trkpt lat="44.42017" lon="5.05704">
        <ele>408.9</ele>
        <time>2021-11-19T10:59:05Z</time>
      </trkpt>
      <trkpt lat="44.42026" lon="5.05696">
        <ele>408.2</ele>
        <time>2021-11-19T10:59:06Z</time>
      </trkpt>
      <trkpt lat="44.42035" lon="5.05687">
        <ele>407.4</ele>
        <time>2021-11-19T10:59:07Z</time>
      </trkpt>
      <trkpt lat="44.42044" lon="5.05678">
        <ele>406.7</ele>
        <time>2021-11-19T10:59:08Z</time>
      </trkpt>
      <trkpt lat="44.42053" lon="5.05669">
        <ele>406</ele>
        <time>2021-11-19T10:59:09Z</time>
      </trkpt>
      <trkpt lat="44.42062" lon="5.0566">
        <ele>405.3</ele>
        <time>2021-11-19T10:59:10Z</time>
      </trkpt>
      <trkpt lat="44.42071" lon="5.05651">
        <ele>404.8</ele>
        <time>2021-11-19T10:59:11Z</time>
      </trkpt>
      <trkpt lat="44.42081" lon="5.05642">
        <ele>404.2</ele>
        <time>2021-11-19T10:59:12Z</time>
      </trkpt>
      <trkpt lat="44.4209" lon="5.05632">
        <ele>403.8</ele>
        <time>2021-11-19T10:59:13Z</time>
      </trkpt>
      <trkpt lat="44.42098" lon="5.05622">
        <ele>403.4</ele>
        <time>2021-11-19T10:59:14Z</time>
      </trkpt>
      <trkpt lat="44.42105" lon="5.05613">
        <ele>403</ele>
        <time>2021-11-19T10:59:15Z</time>
      </trkpt>
      <trkpt lat="44.42112" lon="5.05603">
        <ele>402.6</ele>
        <time>2021-11-19T10:59:16Z</time>
      </trkpt>
      <trkpt lat="44.42119" lon="5.05593">
        <ele>402.3</ele>
        <time>2021-11-19T10:59:17Z</time>
      </trkpt>
      <trkpt lat="44.42124" lon="5.05583">
        <ele>402</ele>
        <time>2021-11-19T10:59:18Z</time>
      </trkpt>
      <trkpt lat="44.4213" lon="5.05572">
        <ele>401.8</ele>
        <time>2021-11-19T10:59:19Z</time>
      </trkpt>
      <trkpt lat="44.42135" lon="5.05561">
        <ele>401.5</ele>
        <time>2021-11-19T10:59:20Z</time>
      </trkpt>
      <trkpt lat="44.42141" lon="5.05549">
        <ele>401.2</ele>
        <time>2021-11-19T10:59:21Z</time>
      </trkpt>
      <trkpt lat="44.42145" lon="5.05537">
        <ele>401</ele>
        <time>2021-11-19T10:59:22Z</time>
      </trkpt>
      <trkpt lat="44.42148" lon="5.05524">
        <ele>400.7</ele>
        <time>2021-11-19T10:59:23Z</time>
      </trkpt>
      <trkpt lat="44.42149" lon="5.05511">
        <ele>400.4</ele>
        <time>2021-11-19T10:59:24Z</time>
      </trkpt>
      <trkpt lat="44.42149" lon="5.055">
        <ele>400.1</ele>
        <time>2021-11-19T10:59:25Z</time>
      </trkpt>
      <trkpt lat="44.42149" lon="5.0549">
        <ele>399.9</ele>
        <time>2021-11-19T10:59:26Z</time>
      </trkpt>
      <trkpt lat="44.42151" lon="5.05479">
        <ele>399.7</ele>
        <time>2021-11-19T10:59:27Z</time>
      </trkpt>
      <trkpt lat="44.42153" lon="5.05468">
        <ele>399.4</ele>
        <time>2021-11-19T10:59:28Z</time>
      </trkpt>
      <trkpt lat="44.42154" lon="5.05457">
        <ele>399.1</ele>
        <time>2021-11-19T10:59:29Z</time>
      </trkpt>
      <trkpt lat="44.42156" lon="5.05446">
        <ele>398.7</ele>
        <time>2021-11-19T10:59:30Z</time>
      </trkpt>
      <trkpt lat="44.42156" lon="5.05434">
        <ele>398.4</ele>
        <time>2021-11-19T10:59:31Z</time>
      </trkpt>
      <trkpt lat="44.42155" lon="5.05421">
        <ele>397.9</ele>
        <time>2021-11-19T10:59:32Z</time>
      </trkpt>
      <trkpt lat="44.42154" lon="5.05408">
        <ele>397.4</ele>
        <time>2021-11-19T10:59:33Z</time>
      </trkpt>
      <trkpt lat="44.42153" lon="5.05395">
        <ele>396.9</ele>
        <time>2021-11-19T10:59:34Z</time>
      </trkpt>
      <trkpt lat="44.4215" lon="5.05382">
        <ele>396.4</ele>
        <time>2021-11-19T10:59:35Z</time>
      </trkpt>
      <trkpt lat="44.42147" lon="5.05369">
        <ele>395.9</ele>
        <time>2021-11-19T10:59:36Z</time>
      </trkpt>
      <trkpt lat="44.42144" lon="5.05355">
        <ele>395.3</ele>
        <time>2021-11-19T10:59:37Z</time>
      </trkpt>
      <trkpt lat="44.42141" lon="5.05341">
        <ele>394.7</ele>
        <time>2021-11-19T10:59:38Z</time>
      </trkpt>
      <trkpt lat="44.42139" lon="5.05326">
        <ele>393.9</ele>
        <time>2021-11-19T10:59:39Z</time>
      </trkpt>
      <trkpt lat="44.42138" lon="5.05312">
        <ele>393.2</ele>
        <time>2021-11-19T10:59:40Z</time>
      </trkpt>
      <trkpt lat="44.42137" lon="5.05296">
        <ele>392.4</ele>
        <time>2021-11-19T10:59:41Z</time>
      </trkpt>
      <trkpt lat="44.42139" lon="5.0528">
        <ele>391.6</ele>
        <time>2021-11-19T10:59:42Z</time>
      </trkpt>
      <trkpt lat="44.4214" lon="5.05264">
        <ele>390.7</ele>
        <time>2021-11-19T10:59:43Z</time>
      </trkpt>
      <trkpt lat="44.42143" lon="5.05249">
        <ele>389.9</ele>
        <time>2021-11-19T10:59:44Z</time>
      </trkpt>
      <trkpt lat="44.42147" lon="5.05234">
        <ele>388.9</ele>
        <time>2021-11-19T10:59:45Z</time>
      </trkpt>
      <trkpt lat="44.4215" lon="5.05219">
        <ele>388</ele>
        <time>2021-11-19T10:59:46Z</time>
      </trkpt>
      <trkpt lat="44.42154" lon="5.05203">
        <ele>387</ele>
        <time>2021-11-19T10:59:47Z</time>
      </trkpt>
      <trkpt lat="44.42157" lon="5.05187">
        <ele>386.1</ele>
        <time>2021-11-19T10:59:48Z</time>
      </trkpt>
      <trkpt lat="44.4216" lon="5.05171">
        <ele>385.1</ele>
        <time>2021-11-19T10:59:49Z</time>
      </trkpt>
      <trkpt lat="44.42164" lon="5.05156">
        <ele>384.2</ele>
        <time>2021-11-19T10:59:50Z</time>
      </trkpt>
      <trkpt lat="44.42167" lon="5.05141">
        <ele>383.3</ele>
        <time>2021-11-19T10:59:51Z</time>
      </trkpt>
      <trkpt lat="44.4217" lon="5.05126">
        <ele>382.5</ele>
        <time>2021-11-19T10:59:52Z</time>
      </trkpt>
      <trkpt lat="44.42172" lon="5.0511">
        <ele>381.6</ele>
        <time>2021-11-19T10:59:53Z</time>
      </trkpt>
      <trkpt lat="44.42175" lon="5.05095">
        <ele>380.7</ele>
        <time>2021-11-19T10:59:54Z</time>
      </trkpt>
      <trkpt lat="44.42178" lon="5.05079">
        <ele>379.8</ele>
        <time>2021-11-19T10:59:55Z</time>
      </trkpt>
      <trkpt lat="44.42179" lon="5.05062">
        <ele>378.9</ele>
        <time>2021-11-19T10:59:56Z</time>
      </trkpt>
      <trkpt lat="44.4218" lon="5.05046">
        <ele>377.9</ele>
        <time>2021-11-19T10:59:57Z</time>
      </trkpt>
      <trkpt lat="44.42184" lon="5.0503">
        <ele>377</ele>
        <time>2021-11-19T10:59:58Z</time>
      </trkpt>
      <trkpt lat="44.42188" lon="5.05014">
        <ele>376.1</ele>
        <time>2021-11-19T10:59:59Z</time>
      </trkpt>
      <trkpt lat="44.42196" lon="5.04999">
        <ele>375.2</ele>
        <time>2021-11-19T11:00:00Z</time>
      </trkpt>
      <trkpt lat="44.42204" lon="5.04986">
        <ele>374.4</ele>
        <time>2021-11-19T11:00:01Z</time>
      </trkpt>
      <trkpt lat="44.42213" lon="5.04973">
        <ele>373.7</ele>
        <time>2021-11-19T11:00:02Z</time>
      </trkpt>
      <trkpt lat="44.42222" lon="5.0496">
        <ele>373</ele>
        <time>2021-11-19T11:00:03Z</time>
      </trkpt>
      <trkpt lat="44.42231" lon="5.04949">
        <ele>372.6</ele>
        <time>2021-11-19T11:00:04Z</time>
      </trkpt>
      <trkpt lat="44.4224" lon="5.04939">
        <ele>372.2</ele>
        <time>2021-11-19T11:00:05Z</time>
      </trkpt>
      <trkpt lat="44.42247" lon="5.04927">
        <ele>371.9</ele>
        <time>2021-11-19T11:00:06Z</time>
      </trkpt>
      <trkpt lat="44.42253" lon="5.04917">
        <ele>371.6</ele>
        <time>2021-11-19T11:00:07Z</time>
      </trkpt>
      <trkpt lat="44.42258" lon="5.04906">
        <ele>371.3</ele>
        <time>2021-11-19T11:00:08Z</time>
      </trkpt>
      <trkpt lat="44.42263" lon="5.04894">
        <ele>371</ele>
        <time>2021-11-19T11:00:09Z</time>
      </trkpt>
      <trkpt lat="44.42264" lon="5.04882">
        <ele>370.7</ele>
        <time>2021-11-19T11:00:10Z</time>
      </trkpt>
      <trkpt lat="44.42265" lon="5.04872">
        <ele>370.4</ele>
        <time>2021-11-19T11:00:11Z</time>
      </trkpt>
      <trkpt lat="44.42264" lon="5.04864">
        <ele>370.2</ele>
        <time>2021-11-19T11:00:12Z</time>
      </trkpt>
      <trkpt lat="44.42262" lon="5.04856">
        <ele>370</ele>
        <time>2021-11-19T11:00:13Z</time>
      </trkpt>
      <trkpt lat="44.4226" lon="5.04845">
        <ele>369.7</ele>
        <time>2021-11-19T11:00:14Z</time>
      </trkpt>
      <trkpt lat="44.42257" lon="5.04832">
        <ele>369.3</ele>
        <time>2021-11-19T11:00:15Z</time>
      </trkpt>
      <trkpt lat="44.42255" lon="5.04818">
        <ele>368.9</ele>
        <time>2021-11-19T11:00:16Z</time>
      </trkpt>
      <trkpt lat="44.42253" lon="5.04803">
        <ele>368.5</ele>
        <time>2021-11-19T11:00:17Z</time>
      </trkpt>
      <trkpt lat="44.42252" lon="5.0479">
        <ele>368.2</ele>
        <time>2021-11-19T11:00:18Z</time>
      </trkpt>
      <trkpt lat="44.4225" lon="5.04775">
        <ele>367.8</ele>
        <time>2021-11-19T11:00:19Z</time>
      </trkpt>
      <trkpt lat="44.42247" lon="5.04762">
        <ele>367.5</ele>
        <time>2021-11-19T11:00:20Z</time>
      </trkpt>
      <trkpt lat="44.42245" lon="5.0475">
        <ele>367.2</ele>
        <time>2021-11-19T11:00:21Z</time>
      </trkpt>
      <trkpt lat="44.42243" lon="5.04736">
        <ele>366.8</ele>
        <time>2021-11-19T11:00:22Z</time>
      </trkpt>
      <trkpt lat="44.4224" lon="5.04722">
        <ele>366.4</ele>
        <time>2021-11-19T11:00:23Z</time>
      </trkpt>
      <trkpt lat="44.42238" lon="5.04706">
        <ele>366</ele>
        <time>2021-11-19T11:00:24Z</time>
      </trkpt>
      <trkpt lat="44.42235" lon="5.0469">
        <ele>365.5</ele>
        <time>2021-11-19T11:00:25Z</time>
      </trkpt>
      <trkpt lat="44.42233" lon="5.04676">
        <ele>365</ele>
        <time>2021-11-19T11:00:26Z</time>
      </trkpt>
      <trkpt lat="44.42232" lon="5.04662">
        <ele>364.6</ele>
        <time>2021-11-19T11:00:27Z</time>
      </trkpt>
      <trkpt lat="44.42231" lon="5.04648">
        <ele>364.1</ele>
        <time>2021-11-19T11:00:28Z</time>
      </trkpt>
      <trkpt lat="44.4223" lon="5.04635">
        <ele>363.7</ele>
        <time>2021-11-19T11:00:29Z</time>
      </trkpt>
      <trkpt lat="44.4223" lon="5.04621">
        <ele>363.2</ele>
        <time>2021-11-19T11:00:30Z</time>
      </trkpt>
      <trkpt lat="44.42231" lon="5.04608">
        <ele>362.8</ele>
        <time>2021-11-19T11:00:31Z</time>
      </trkpt>
      <trkpt lat="44.42233" lon="5.04595">
        <ele>362.4</ele>
        <time>2021-11-19T11:00:32Z</time>
      </trkpt>
      <trkpt lat="44.42235" lon="5.04582">
        <ele>361.9</ele>
        <time>2021-11-19T11:00:33Z</time>
      </trkpt>
      <trkpt lat="44.42237" lon="5.04569">
        <ele>361.5</ele>
        <time>2021-11-19T11:00:34Z</time>
      </trkpt>
      <trkpt lat="44.42239" lon="5.04556">
        <ele>361.2</ele>
        <time>2021-11-19T11:00:35Z</time>
      </trkpt>
      <trkpt lat="44.42241" lon="5.04543">
        <ele>360.8</ele>
        <time>2021-11-19T11:00:36Z</time>
      </trkpt>
      <trkpt lat="44.42243" lon="5.04529">
        <ele>360.3</ele>
        <time>2021-11-19T11:00:37Z</time>
      </trkpt>
      <trkpt lat="44.42245" lon="5.04514">
        <ele>359.9</ele>
        <time>2021-11-19T11:00:38Z</time>
      </trkpt>
      <trkpt lat="44.42247" lon="5.045">
        <ele>359.6</ele>
        <time>2021-11-19T11:00:39Z</time>
      </trkpt>
      <trkpt lat="44.42249" lon="5.04486">
        <ele>359.1</ele>
        <time>2021-11-19T11:00:40Z</time>
      </trkpt>
      <trkpt lat="44.4225" lon="5.04473">
        <ele>358.8</ele>
        <time>2021-11-19T11:00:41Z</time>
      </trkpt>
      <trkpt lat="44.42252" lon="5.0446">
        <ele>358.4</ele>
        <time>2021-11-19T11:00:42Z</time>
      </trkpt>
      <trkpt lat="44.42253" lon="5.04448">
        <ele>358.1</ele>
        <time>2021-11-19T11:00:43Z</time>
      </trkpt>
      <trkpt lat="44.42255" lon="5.04435">
        <ele>357.8</ele>
        <time>2021-11-19T11:00:44Z</time>
      </trkpt>
      <trkpt lat="44.42256" lon="5.04423">
        <ele>357.5</ele>
        <time>2021-11-19T11:00:45Z</time>
      </trkpt>
      <trkpt lat="44.42257" lon="5.0441">
        <ele>357.3</ele>
        <time>2021-11-19T11:00:46Z</time>
      </trkpt>
      <trkpt lat="44.42259" lon="5.044">
        <ele>357.2</ele>
        <time>2021-11-19T11:00:47Z</time>
      </trkpt>
      <trkpt lat="44.42261" lon="5.04388">
        <ele>357</ele>
        <time>2021-11-19T11:00:48Z</time>
      </trkpt>
      <trkpt lat="44.42264" lon="5.04376">
        <ele>356.9</ele>
        <time>2021-11-19T11:00:49Z</time>
      </trkpt>
      <trkpt lat="44.42267" lon="5.04363">
        <ele>356.7</ele>
        <time>2021-11-19T11:00:50Z</time>
      </trkpt>
      <trkpt lat="44.42271" lon="5.0435">
        <ele>356.5</ele>
        <time>2021-11-19T11:00:51Z</time>
      </trkpt>
      <trkpt lat="44.42275" lon="5.04339">
        <ele>356.3</ele>
        <time>2021-11-19T11:00:52Z</time>
      </trkpt>
      <trkpt lat="44.42279" lon="5.04328">
        <ele>356.2</ele>
        <time>2021-11-19T11:00:53Z</time>
      </trkpt>
      <trkpt lat="44.42283" lon="5.04317">
        <ele>356.1</ele>
        <time>2021-11-19T11:00:54Z</time>
      </trkpt>
      <trkpt lat="44.42287" lon="5.04306">
        <ele>356</ele>
        <time>2021-11-19T11:00:55Z</time>
      </trkpt>
      <trkpt lat="44.42292" lon="5.04295">
        <ele>355.9</ele>
        <time>2021-11-19T11:00:56Z</time>
      </trkpt>
      <trkpt lat="44.42297" lon="5.04285">
        <ele>355.8</ele>
        <time>2021-11-19T11:00:57Z</time>
      </trkpt>
      <trkpt lat="44.42301" lon="5.04275">
        <ele>355.7</ele>
        <time>2021-11-19T11:00:58Z</time>
      </trkpt>
      <trkpt lat="44.42306" lon="5.04265">
        <ele>355.6</ele>
        <time>2021-11-19T11:00:59Z</time>
      </trkpt>
      <trkpt lat="44.42311" lon="5.04254">
        <ele>355.5</ele>
        <time>2021-11-19T11:01:00Z</time>
      </trkpt>
      <trkpt lat="44.42316" lon="5.04244">
        <ele>355.4</ele>
        <time>2021-11-19T11:01:01Z</time>
      </trkpt>
      <trkpt lat="44.4232" lon="5.04234">
        <ele>355.2</ele>
        <time>2021-11-19T11:01:02Z</time>
      </trkpt>
      <trkpt lat="44.42324" lon="5.04224">
        <ele>355.1</ele>
        <time>2021-11-19T11:01:03Z</time>
      </trkpt>
      <trkpt lat="44.42327" lon="5.04214">
        <ele>355</ele>
        <time>2021-11-19T11:01:04Z</time>
      </trkpt>
      <trkpt lat="44.42331" lon="5.04204">
        <ele>354.9</ele>
        <time>2021-11-19T11:01:05Z</time>
      </trkpt>
      <trkpt lat="44.42335" lon="5.04195">
        <ele>354.8</ele>
        <time>2021-11-19T11:01:06Z</time>
      </trkpt>
      <trkpt lat="44.42339" lon="5.04185">
        <ele>354.8</ele>
        <time>2021-11-19T11:01:07Z</time>
      </trkpt>
      <trkpt lat="44.42343" lon="5.04175">
        <ele>354.8</ele>
        <time>2021-11-19T11:01:08Z</time>
      </trkpt>
      <trkpt lat="44.42347" lon="5.04165">
        <ele>354.7</ele>
        <time>2021-11-19T11:01:09Z</time>
      </trkpt>
      <trkpt lat="44.4235" lon="5.04155">
        <ele>354.7</ele>
        <time>2021-11-19T11:01:10Z</time>
      </trkpt>
      <trkpt lat="44.42354" lon="5.04145">
        <ele>354.7</ele>
        <time>2021-11-19T11:01:11Z</time>
      </trkpt>
      <trkpt lat="44.42357" lon="5.04137">
        <ele>354.7</ele>
        <time>2021-11-19T11:01:12Z</time>
      </trkpt>
      <trkpt lat="44.42361" lon="5.04128">
        <ele>354.7</ele>
        <time>2021-11-19T11:01:13Z</time>
      </trkpt>
      <trkpt lat="44.42364" lon="5.0412">
        <ele>354.7</ele>
        <time>2021-11-19T11:01:14Z</time>
      </trkpt>
      <trkpt lat="44.42367" lon="5.04112">
        <ele>354.7</ele>
        <time>2021-11-19T11:01:15Z</time>
      </trkpt>
      <trkpt lat="44.4237" lon="5.04104">
        <ele>354.7</ele>
        <time>2021-11-19T11:01:16Z</time>
      </trkpt>
      <trkpt lat="44.42374" lon="5.04096">
        <ele>354.7</ele>
        <time>2021-11-19T11:01:17Z</time>
      </trkpt>
      <trkpt lat="44.42377" lon="5.04087">
        <ele>354.6</ele>
        <time>2021-11-19T11:01:18Z</time>
      </trkpt>
      <trkpt lat="44.4238" lon="5.04078">
        <ele>354.6</ele>
        <time>2021-11-19T11:01:19Z</time>
      </trkpt>
      <trkpt lat="44.42383" lon="5.0407">
        <ele>354.6</ele>
        <time>2021-11-19T11:01:20Z</time>
      </trkpt>
      <trkpt lat="44.42386" lon="5.04062">
        <ele>354.5</ele>
        <time>2021-11-19T11:01:21Z</time>
      </trkpt>
      <trkpt lat="44.4239" lon="5.04054">
        <ele>354.5</ele>
        <time>2021-11-19T11:01:22Z</time>
      </trkpt>
      <trkpt lat="44.42393" lon="5.04045">
        <ele>354.5</ele>
        <time>2021-11-19T11:01:23Z</time>
      </trkpt>
      <trkpt lat="44.42396" lon="5.04035">
        <ele>354.4</ele>
        <time>2021-11-19T11:01:24Z</time>
      </trkpt>
      <trkpt lat="44.424" lon="5.04026">
        <ele>354.4</ele>
        <time>2021-11-19T11:01:25Z</time>
      </trkpt>
      <trkpt lat="44.42404" lon="5.04017">
        <ele>354.3</ele>
        <time>2021-11-19T11:01:26Z</time>
      </trkpt>
      <trkpt lat="44.42408" lon="5.04008">
        <ele>354.3</ele>
        <time>2021-11-19T11:01:27Z</time>
      </trkpt>
      <trkpt lat="44.42411" lon="5.04001">
        <ele>354.3</ele>
        <time>2021-11-19T11:01:28Z</time>
      </trkpt>
      <trkpt lat="44.42415" lon="5.03993">
        <ele>354.2</ele>
        <time>2021-11-19T11:01:29Z</time>
      </trkpt>
      <trkpt lat="44.42418" lon="5.03986">
        <ele>354.2</ele>
        <time>2021-11-19T11:01:30Z</time>
      </trkpt>
      <trkpt lat="44.42421" lon="5.03978">
        <ele>354.2</ele>
        <time>2021-11-19T11:01:31Z</time>
      </trkpt>
      <trkpt lat="44.42425" lon="5.0397">
        <ele>354.2</ele>
        <time>2021-11-19T11:01:32Z</time>
      </trkpt>
      <trkpt lat="44.42428" lon="5.03962">
        <ele>354.1</ele>
        <time>2021-11-19T11:01:33Z</time>
      </trkpt>
      <trkpt lat="44.42432" lon="5.03953">
        <ele>354.1</ele>
        <time>2021-11-19T11:01:34Z</time>
      </trkpt>
      <trkpt lat="44.42436" lon="5.03944">
        <ele>354</ele>
        <time>2021-11-19T11:01:35Z</time>
      </trkpt>
      <trkpt lat="44.4244" lon="5.03934">
        <ele>354</ele>
        <time>2021-11-19T11:01:36Z</time>
      </trkpt>
      <trkpt lat="44.42443" lon="5.03925">
        <ele>353.9</ele>
        <time>2021-11-19T11:01:37Z</time>
      </trkpt>
      <trkpt lat="44.42446" lon="5.03917">
        <ele>353.9</ele>
        <time>2021-11-19T11:01:38Z</time>
      </trkpt>
      <trkpt lat="44.4245" lon="5.03908">
        <ele>353.9</ele>
        <time>2021-11-19T11:01:39Z</time>
      </trkpt>
      <trkpt lat="44.42453" lon="5.039">
        <ele>353.8</ele>
        <time>2021-11-19T11:01:40Z</time>
      </trkpt>
      <trkpt lat="44.42456" lon="5.03891">
        <ele>353.8</ele>
        <time>2021-11-19T11:01:41Z</time>
      </trkpt>
      <trkpt lat="44.4246" lon="5.03884">
        <ele>353.8</ele>
        <time>2021-11-19T11:01:42Z</time>
      </trkpt>
      <trkpt lat="44.42463" lon="5.03877">
        <ele>353.8</ele>
        <time>2021-11-19T11:01:43Z</time>
      </trkpt>
      <trkpt lat="44.42466" lon="5.0387">
        <ele>353.8</ele>
        <time>2021-11-19T11:01:44Z</time>
      </trkpt>
      <trkpt lat="44.42468" lon="5.03863">
        <ele>353.8</ele>
        <time>2021-11-19T11:01:45Z</time>
      </trkpt>
      <trkpt lat="44.42471" lon="5.03856">
        <ele>353.8</ele>
        <time>2021-11-19T11:01:46Z</time>
      </trkpt>
      <trkpt lat="44.42474" lon="5.03848">
        <ele>353.8</ele>
        <time>2021-11-19T11:01:47Z</time>
      </trkpt>
      <trkpt lat="44.42476" lon="5.03841">
        <ele>353.8</ele>
        <time>2021-11-19T11:01:48Z</time>
      </trkpt>
      <trkpt lat="44.42479" lon="5.03834">
        <ele>353.8</ele>
        <time>2021-11-19T11:01:49Z</time>
      </trkpt>
      <trkpt lat="44.42483" lon="5.03828">
        <ele>353.8</ele>
        <time>2021-11-19T11:01:50Z</time>
      </trkpt>
      <trkpt lat="44.42486" lon="5.03821">
        <ele>353.7</ele>
        <time>2021-11-19T11:01:51Z</time>
      </trkpt>
      <trkpt lat="44.42489" lon="5.03815">
        <ele>353.7</ele>
        <time>2021-11-19T11:01:52Z</time>
      </trkpt>
      <trkpt lat="44.42493" lon="5.03809">
        <ele>353.6</ele>
        <time>2021-11-19T11:01:53Z</time>
      </trkpt>
      <trkpt lat="44.42498" lon="5.03803">
        <ele>353.6</ele>
        <time>2021-11-19T11:01:54Z</time>
      </trkpt>
      <trkpt lat="44.42503" lon="5.03797">
        <ele>353.5</ele>
        <time>2021-11-19T11:01:55Z</time>
      </trkpt>
      <trkpt lat="44.42507" lon="5.03792">
        <ele>353.5</ele>
        <time>2021-11-19T11:01:56Z</time>
      </trkpt>
      <trkpt lat="44.42512" lon="5.03786">
        <ele>353.4</ele>
        <time>2021-11-19T11:01:57Z</time>
      </trkpt>
      <trkpt lat="44.42517" lon="5.0378">
        <ele>353.3</ele>
        <time>2021-11-19T11:01:58Z</time>
      </trkpt>
      <trkpt lat="44.42523" lon="5.03774">
        <ele>353.2</ele>
        <time>2021-11-19T11:01:59Z</time>
      </trkpt>
      <trkpt lat="44.42528" lon="5.03767">
        <ele>353.1</ele>
        <time>2021-11-19T11:02:00Z</time>
      </trkpt>
      <trkpt lat="44.42533" lon="5.03761">
        <ele>353.1</ele>
        <time>2021-11-19T11:02:01Z</time>
      </trkpt>
      <trkpt lat="44.42538" lon="5.03755">
        <ele>353</ele>
        <time>2021-11-19T11:02:02Z</time>
      </trkpt>
      <trkpt lat="44.42542" lon="5.03748">
        <ele>352.9</ele>
        <time>2021-11-19T11:02:03Z</time>
      </trkpt>
      <trkpt lat="44.42546" lon="5.03741">
        <ele>352.8</ele>
        <time>2021-11-19T11:02:04Z</time>
      </trkpt>
      <trkpt lat="44.4255" lon="5.03735">
        <ele>352.6</ele>
        <time>2021-11-19T11:02:05Z</time>
      </trkpt>
      <trkpt lat="44.42556" lon="5.03728">
        <ele>352.5</ele>
        <time>2021-11-19T11:02:06Z</time>
      </trkpt>
      <trkpt lat="44.42562" lon="5.03722">
        <ele>352.3</ele>
        <time>2021-11-19T11:02:07Z</time>
      </trkpt>
      <trkpt lat="44.42566" lon="5.03716">
        <ele>352.2</ele>
        <time>2021-11-19T11:02:08Z</time>
      </trkpt>
      <trkpt lat="44.42571" lon="5.03709">
        <ele>352</ele>
        <time>2021-11-19T11:02:09Z</time>
      </trkpt>
      <trkpt lat="44.42576" lon="5.03701">
        <ele>351.9</ele>
        <time>2021-11-19T11:02:10Z</time>
      </trkpt>
      <trkpt lat="44.4258" lon="5.03695">
        <ele>351.7</ele>
        <time>2021-11-19T11:02:11Z</time>
      </trkpt>
      <trkpt lat="44.42584" lon="5.03687">
        <ele>351.6</ele>
        <time>2021-11-19T11:02:12Z</time>
      </trkpt>
      <trkpt lat="44.4259" lon="5.0368">
        <ele>351.4</ele>
        <time>2021-11-19T11:02:13Z</time>
      </trkpt>
      <trkpt lat="44.42596" lon="5.03674">
        <ele>351.2</ele>
        <time>2021-11-19T11:02:14Z</time>
      </trkpt>
      <trkpt lat="44.42601" lon="5.03667">
        <ele>351.1</ele>
        <time>2021-11-19T11:02:15Z</time>
      </trkpt>
      <trkpt lat="44.42607" lon="5.0366">
        <ele>350.9</ele>
        <time>2021-11-19T11:02:16Z</time>
      </trkpt>
      <trkpt lat="44.42613" lon="5.03653">
        <ele>350.7</ele>
        <time>2021-11-19T11:02:17Z</time>
      </trkpt>
      <trkpt lat="44.42619" lon="5.03646">
        <ele>350.6</ele>
        <time>2021-11-19T11:02:18Z</time>
      </trkpt>
      <trkpt lat="44.42625" lon="5.03639">
        <ele>350.4</ele>
        <time>2021-11-19T11:02:19Z</time>
      </trkpt>
      <trkpt lat="44.4263" lon="5.03632">
        <ele>350.2</ele>
        <time>2021-11-19T11:02:20Z</time>
      </trkpt>
      <trkpt lat="44.42636" lon="5.03625">
        <ele>350.1</ele>
        <time>2021-11-19T11:02:21Z</time>
      </trkpt>
      <trkpt lat="44.42641" lon="5.03618">
        <ele>349.9</ele>
        <time>2021-11-19T11:02:22Z</time>
      </trkpt>
      <trkpt lat="44.42646" lon="5.0361">
        <ele>349.8</ele>
        <time>2021-11-19T11:02:23Z</time>
      </trkpt>
      <trkpt lat="44.42652" lon="5.03603">
        <ele>349.6</ele>
        <time>2021-11-19T11:02:24Z</time>
      </trkpt>
      <trkpt lat="44.42657" lon="5.03595">
        <ele>349.4</ele>
        <time>2021-11-19T11:02:25Z</time>
      </trkpt>
      <trkpt lat="44.42661" lon="5.03588">
        <ele>349.3</ele>
        <time>2021-11-19T11:02:26Z</time>
      </trkpt>
      <trkpt lat="44.42667" lon="5.0358">
        <ele>349.1</ele>
        <time>2021-11-19T11:02:27Z</time>
      </trkpt>
      <trkpt lat="44.42672" lon="5.03574">
        <ele>349</ele>
        <time>2021-11-19T11:02:28Z</time>
      </trkpt>
      <trkpt lat="44.42677" lon="5.03567">
        <ele>348.9</ele>
        <time>2021-11-19T11:02:29Z</time>
      </trkpt>
      <trkpt lat="44.42682" lon="5.0356">
        <ele>348.7</ele>
        <time>2021-11-19T11:02:30Z</time>
      </trkpt>
      <trkpt lat="44.42686" lon="5.03552">
        <ele>348.6</ele>
        <time>2021-11-19T11:02:31Z</time>
      </trkpt>
      <trkpt lat="44.4269" lon="5.03545">
        <ele>348.4</ele>
        <time>2021-11-19T11:02:32Z</time>
      </trkpt>
      <trkpt lat="44.42694" lon="5.03536">
        <ele>348.3</ele>
        <time>2021-11-19T11:02:33Z</time>
      </trkpt>
      <trkpt lat="44.42697" lon="5.03526">
        <ele>348</ele>
        <time>2021-11-19T11:02:34Z</time>
      </trkpt>
      <trkpt lat="44.427" lon="5.03517">
        <ele>347.8</ele>
        <time>2021-11-19T11:02:35Z</time>
      </trkpt>
      <trkpt lat="44.42703" lon="5.03507">
        <ele>347.6</ele>
        <time>2021-11-19T11:02:36Z</time>
      </trkpt>
      <trkpt lat="44.42705" lon="5.03497">
        <ele>347.3</ele>
        <time>2021-11-19T11:02:37Z</time>
      </trkpt>
      <trkpt lat="44.42708" lon="5.03486">
        <ele>347</ele>
        <time>2021-11-19T11:02:38Z</time>
      </trkpt>
      <trkpt lat="44.42711" lon="5.03474">
        <ele>346.7</ele>
        <time>2021-11-19T11:02:39Z</time>
      </trkpt>
      <trkpt lat="44.42714" lon="5.03463">
        <ele>346.5</ele>
        <time>2021-11-19T11:02:40Z</time>
      </trkpt>
      <trkpt lat="44.42717" lon="5.03454">
        <ele>346.2</ele>
        <time>2021-11-19T11:02:41Z</time>
      </trkpt>
      <trkpt lat="44.4272" lon="5.03444">
        <ele>346</ele>
        <time>2021-11-19T11:02:42Z</time>
      </trkpt>
      <trkpt lat="44.42723" lon="5.03434">
        <ele>345.7</ele>
        <time>2021-11-19T11:02:43Z</time>
      </trkpt>
      <trkpt lat="44.42726" lon="5.03424">
        <ele>345.5</ele>
        <time>2021-11-19T11:02:44Z</time>
      </trkpt>
      <trkpt lat="44.42729" lon="5.03415">
        <ele>345.2</ele>
        <time>2021-11-19T11:02:45Z</time>
      </trkpt>
      <trkpt lat="44.42732" lon="5.03406">
        <ele>345</ele>
        <time>2021-11-19T11:02:46Z</time>
      </trkpt>
      <trkpt lat="44.42735" lon="5.03397">
        <ele>344.8</ele>
        <time>2021-11-19T11:02:47Z</time>
      </trkpt>
      <trkpt lat="44.42738" lon="5.03388">
        <ele>344.6</ele>
        <time>2021-11-19T11:02:48Z</time>
      </trkpt>
      <trkpt lat="44.42741" lon="5.03378">
        <ele>344.3</ele>
        <time>2021-11-19T11:02:49Z</time>
      </trkpt>
      <trkpt lat="44.42744" lon="5.03367">
        <ele>344</ele>
        <time>2021-11-19T11:02:50Z</time>
      </trkpt>
      <trkpt lat="44.42748" lon="5.03357">
        <ele>343.7</ele>
        <time>2021-11-19T11:02:51Z</time>
      </trkpt>
      <trkpt lat="44.42751" lon="5.03347">
        <ele>343.4</ele>
        <time>2021-11-19T11:02:52Z</time>
      </trkpt>
      <trkpt lat="44.42754" lon="5.03336">
        <ele>343.1</ele>
        <time>2021-11-19T11:02:53Z</time>
      </trkpt>
      <trkpt lat="44.42758" lon="5.03325">
        <ele>342.8</ele>
        <time>2021-11-19T11:02:54Z</time>
      </trkpt>
      <trkpt lat="44.42761" lon="5.03314">
        <ele>342.6</ele>
        <time>2021-11-19T11:02:55Z</time>
      </trkpt>
      <trkpt lat="44.42764" lon="5.03304">
        <ele>342.3</ele>
        <time>2021-11-19T11:02:56Z</time>
      </trkpt>
      <trkpt lat="44.42766" lon="5.03295">
        <ele>342.1</ele>
        <time>2021-11-19T11:02:57Z</time>
      </trkpt>
      <trkpt lat="44.42769" lon="5.03284">
        <ele>341.9</ele>
        <time>2021-11-19T11:02:58Z</time>
      </trkpt>
      <trkpt lat="44.42773" lon="5.03274">
        <ele>341.6</ele>
        <time>2021-11-19T11:02:59Z</time>
      </trkpt>
      <trkpt lat="44.42776" lon="5.03264">
        <ele>341.4</ele>
        <time>2021-11-19T11:03:00Z</time>
      </trkpt>
      <trkpt lat="44.42779" lon="5.03254">
        <ele>341.1</ele>
        <time>2021-11-19T11:03:01Z</time>
      </trkpt>
      <trkpt lat="44.42782" lon="5.03244">
        <ele>340.9</ele>
        <time>2021-11-19T11:03:02Z</time>
      </trkpt>
      <trkpt lat="44.42786" lon="5.03234">
        <ele>340.6</ele>
        <time>2021-11-19T11:03:03Z</time>
      </trkpt>
      <trkpt lat="44.42789" lon="5.03225">
        <ele>340.4</ele>
        <time>2021-11-19T11:03:04Z</time>
      </trkpt>
      <trkpt lat="44.42792" lon="5.03214">
        <ele>340.1</ele>
        <time>2021-11-19T11:03:05Z</time>
      </trkpt>
      <trkpt lat="44.42796" lon="5.03203">
        <ele>339.8</ele>
        <time>2021-11-19T11:03:06Z</time>
      </trkpt>
      <trkpt lat="44.42799" lon="5.03193">
        <ele>339.5</ele>
        <time>2021-11-19T11:03:07Z</time>
      </trkpt>
      <trkpt lat="44.42803" lon="5.03184">
        <ele>339.2</ele>
        <time>2021-11-19T11:03:08Z</time>
      </trkpt>
      <trkpt lat="44.42807" lon="5.03176">
        <ele>338.9</ele>
        <time>2021-11-19T11:03:09Z</time>
      </trkpt>
      <trkpt lat="44.4281" lon="5.03165">
        <ele>338.5</ele>
        <time>2021-11-19T11:03:10Z</time>
      </trkpt>
      <trkpt lat="44.42813" lon="5.03155">
        <ele>338.1</ele>
        <time>2021-11-19T11:03:11Z</time>
      </trkpt>
      <trkpt lat="44.42817" lon="5.03145">
        <ele>337.7</ele>
        <time>2021-11-19T11:03:12Z</time>
      </trkpt>
      <trkpt lat="44.4282" lon="5.03134">
        <ele>337.3</ele>
        <time>2021-11-19T11:03:13Z</time>
      </trkpt>
      <trkpt lat="44.42825" lon="5.03122">
        <ele>336.8</ele>
        <time>2021-11-19T11:03:14Z</time>
      </trkpt>
      <trkpt lat="44.42829" lon="5.03111">
        <ele>336.3</ele>
        <time>2021-11-19T11:03:15Z</time>
      </trkpt>
      <trkpt lat="44.42834" lon="5.03099">
        <ele>335.7</ele>
        <time>2021-11-19T11:03:16Z</time>
      </trkpt>
      <trkpt lat="44.42839" lon="5.03087">
        <ele>335.1</ele>
        <time>2021-11-19T11:03:17Z</time>
      </trkpt>
      <trkpt lat="44.42844" lon="5.03076">
        <ele>334.6</ele>
        <time>2021-11-19T11:03:18Z</time>
      </trkpt>
      <trkpt lat="44.4285" lon="5.03067">
        <ele>334</ele>
        <time>2021-11-19T11:03:19Z</time>
      </trkpt>
      <trkpt lat="44.42858" lon="5.03058">
        <ele>333.4</ele>
        <time>2021-11-19T11:03:20Z</time>
      </trkpt>
      <trkpt lat="44.42866" lon="5.03051">
        <ele>332.8</ele>
        <time>2021-11-19T11:03:21Z</time>
      </trkpt>
      <trkpt lat="44.42874" lon="5.03043">
        <ele>332.1</ele>
        <time>2021-11-19T11:03:22Z</time>
      </trkpt>
      <trkpt lat="44.42882" lon="5.03035">
        <ele>331.5</ele>
        <time>2021-11-19T11:03:23Z</time>
      </trkpt>
      <trkpt lat="44.4289" lon="5.03027">
        <ele>330.8</ele>
        <time>2021-11-19T11:03:24Z</time>
      </trkpt>
      <trkpt lat="44.42898" lon="5.03019">
        <ele>330.2</ele>
        <time>2021-11-19T11:03:25Z</time>
      </trkpt>
      <trkpt lat="44.42906" lon="5.0301">
        <ele>329.6</ele>
        <time>2021-11-19T11:03:26Z</time>
      </trkpt>
      <trkpt lat="44.42914" lon="5.03003">
        <ele>328.9</ele>
        <time>2021-11-19T11:03:27Z</time>
      </trkpt>
      <trkpt lat="44.42922" lon="5.02994">
        <ele>328.3</ele>
        <time>2021-11-19T11:03:28Z</time>
      </trkpt>
      <trkpt lat="44.4293" lon="5.02986">
        <ele>327.7</ele>
        <time>2021-11-19T11:03:29Z</time>
      </trkpt>
      <trkpt lat="44.42938" lon="5.02979">
        <ele>327.1</ele>
        <time>2021-11-19T11:03:30Z</time>
      </trkpt>
      <trkpt lat="44.42946" lon="5.02971">
        <ele>326.5</ele>
        <time>2021-11-19T11:03:31Z</time>
      </trkpt>
      <trkpt lat="44.42954" lon="5.02963">
        <ele>326</ele>
        <time>2021-11-19T11:03:32Z</time>
      </trkpt>
      <trkpt lat="44.42962" lon="5.02956">
        <ele>325.5</ele>
        <time>2021-11-19T11:03:33Z</time>
      </trkpt>
      <trkpt lat="44.4297" lon="5.02949">
        <ele>325</ele>
        <time>2021-11-19T11:03:34Z</time>
      </trkpt>
      <trkpt lat="44.42978" lon="5.02942">
        <ele>324.6</ele>
        <time>2021-11-19T11:03:35Z</time>
      </trkpt>
      <trkpt lat="44.42985" lon="5.02934">
        <ele>324.2</ele>
        <time>2021-11-19T11:03:36Z</time>
      </trkpt>
      <trkpt lat="44.42993" lon="5.02927">
        <ele>323.7</ele>
        <time>2021-11-19T11:03:37Z</time>
      </trkpt>
      <trkpt lat="44.43001" lon="5.02919">
        <ele>323.3</ele>
        <time>2021-11-19T11:03:38Z</time>
      </trkpt>
      <trkpt lat="44.43008" lon="5.02912">
        <ele>322.9</ele>
        <time>2021-11-19T11:03:39Z</time>
      </trkpt>
      <trkpt lat="44.43015" lon="5.02904">
        <ele>322.5</ele>
        <time>2021-11-19T11:03:40Z</time>
      </trkpt>
      <trkpt lat="44.43022" lon="5.02896">
        <ele>322.2</ele>
        <time>2021-11-19T11:03:41Z</time>
      </trkpt>
      <trkpt lat="44.43029" lon="5.02889">
        <ele>322</ele>
        <time>2021-11-19T11:03:42Z</time>
      </trkpt>
      <trkpt lat="44.43036" lon="5.02881">
        <ele>321.7</ele>
        <time>2021-11-19T11:03:43Z</time>
      </trkpt>
      <trkpt lat="44.43042" lon="5.02873">
        <ele>321.5</ele>
        <time>2021-11-19T11:03:44Z</time>
      </trkpt>
      <trkpt lat="44.43049" lon="5.02865">
        <ele>321.3</ele>
        <time>2021-11-19T11:03:45Z</time>
      </trkpt>
      <trkpt lat="44.43055" lon="5.02858">
        <ele>321.1</ele>
        <time>2021-11-19T11:03:46Z</time>
      </trkpt>
      <trkpt lat="44.4306" lon="5.02849">
        <ele>321</ele>
        <time>2021-11-19T11:03:47Z</time>
      </trkpt>
      <trkpt lat="44.43064" lon="5.02839">
        <ele>320.9</ele>
        <time>2021-11-19T11:03:48Z</time>
      </trkpt>
      <trkpt lat="44.43068" lon="5.02829">
        <ele>320.8</ele>
        <time>2021-11-19T11:03:49Z</time>
      </trkpt>
      <trkpt lat="44.43072" lon="5.02819">
        <ele>320.8</ele>
        <time>2021-11-19T11:03:50Z</time>
      </trkpt>
      <trkpt lat="44.43076" lon="5.02809">
        <ele>320.7</ele>
        <time>2021-11-19T11:03:51Z</time>
      </trkpt>
      <trkpt lat="44.43079" lon="5.02798">
        <ele>320.6</ele>
        <time>2021-11-19T11:03:52Z</time>
      </trkpt>
      <trkpt lat="44.43083" lon="5.02788">
        <ele>320.4</ele>
        <time>2021-11-19T11:03:53Z</time>
      </trkpt>
      <trkpt lat="44.43085" lon="5.02778">
        <ele>320.3</ele>
        <time>2021-11-19T11:03:54Z</time>
      </trkpt>
      <trkpt lat="44.43088" lon="5.02768">
        <ele>320.2</ele>
        <time>2021-11-19T11:03:55Z</time>
      </trkpt>
      <trkpt lat="44.4309" lon="5.02758">
        <ele>320.1</ele>
        <time>2021-11-19T11:03:56Z</time>
      </trkpt>
      <trkpt lat="44.43093" lon="5.02748">
        <ele>320</ele>
        <time>2021-11-19T11:03:57Z</time>
      </trkpt>
      <trkpt lat="44.43095" lon="5.02739">
        <ele>319.9</ele>
        <time>2021-11-19T11:03:58Z</time>
      </trkpt>
      <trkpt lat="44.43098" lon="5.02728">
        <ele>319.8</ele>
        <time>2021-11-19T11:03:59Z</time>
      </trkpt>
      <trkpt lat="44.43102" lon="5.02717">
        <ele>319.7</ele>
        <time>2021-11-19T11:04:00Z</time>
      </trkpt>
      <trkpt lat="44.43104" lon="5.02707">
        <ele>319.6</ele>
        <time>2021-11-19T11:04:01Z</time>
      </trkpt>
      <trkpt lat="44.43107" lon="5.02698">
        <ele>319.4</ele>
        <time>2021-11-19T11:04:02Z</time>
      </trkpt>
      <trkpt lat="44.4311" lon="5.02688">
        <ele>319.2</ele>
        <time>2021-11-19T11:04:03Z</time>
      </trkpt>
      <trkpt lat="44.43113" lon="5.02678">
        <ele>319</ele>
        <time>2021-11-19T11:04:04Z</time>
      </trkpt>
      <trkpt lat="44.43115" lon="5.02669">
        <ele>318.9</ele>
        <time>2021-11-19T11:04:05Z</time>
      </trkpt>
      <trkpt lat="44.43117" lon="5.02661">
        <ele>318.7</ele>
        <time>2021-11-19T11:04:06Z</time>
      </trkpt>
      <trkpt lat="44.4312" lon="5.02652">
        <ele>318.5</ele>
        <time>2021-11-19T11:04:07Z</time>
      </trkpt>
      <trkpt lat="44.43122" lon="5.02642">
        <ele>318.3</ele>
        <time>2021-11-19T11:04:08Z</time>
      </trkpt>
      <trkpt lat="44.43125" lon="5.02633">
        <ele>318</ele>
        <time>2021-11-19T11:04:09Z</time>
      </trkpt>
      <trkpt lat="44.43129" lon="5.02624">
        <ele>317.8</ele>
        <time>2021-11-19T11:04:10Z</time>
      </trkpt>
      <trkpt lat="44.43133" lon="5.02613">
        <ele>317.5</ele>
        <time>2021-11-19T11:04:11Z</time>
      </trkpt>
      <trkpt lat="44.43136" lon="5.02602">
        <ele>317.1</ele>
        <time>2021-11-19T11:04:12Z</time>
      </trkpt>
      <trkpt lat="44.4314" lon="5.02591">
        <ele>316.7</ele>
        <time>2021-11-19T11:04:13Z</time>
      </trkpt>
      <trkpt lat="44.43143" lon="5.02581">
        <ele>316.4</ele>
        <time>2021-11-19T11:04:14Z</time>
      </trkpt>
      <trkpt lat="44.43147" lon="5.02572">
        <ele>316.1</ele>
        <time>2021-11-19T11:04:15Z</time>
      </trkpt>
      <trkpt lat="44.43151" lon="5.02563">
        <ele>315.8</ele>
        <time>2021-11-19T11:04:16Z</time>
      </trkpt>
      <trkpt lat="44.43156" lon="5.02555">
        <ele>315.6</ele>
        <time>2021-11-19T11:04:17Z</time>
      </trkpt>
      <trkpt lat="44.43161" lon="5.02547">
        <ele>315.3</ele>
        <time>2021-11-19T11:04:18Z</time>
      </trkpt>
      <trkpt lat="44.43167" lon="5.02538">
        <ele>315.1</ele>
        <time>2021-11-19T11:04:19Z</time>
      </trkpt>
      <trkpt lat="44.43172" lon="5.0253">
        <ele>314.9</ele>
        <time>2021-11-19T11:04:20Z</time>
      </trkpt>
      <trkpt lat="44.43177" lon="5.02523">
        <ele>314.7</ele>
        <time>2021-11-19T11:04:21Z</time>
      </trkpt>
      <trkpt lat="44.43182" lon="5.02517">
        <ele>314.5</ele>
        <time>2021-11-19T11:04:22Z</time>
      </trkpt>
      <trkpt lat="44.43187" lon="5.0251">
        <ele>314.4</ele>
        <time>2021-11-19T11:04:23Z</time>
      </trkpt>
      <trkpt lat="44.43193" lon="5.02503">
        <ele>314.2</ele>
        <time>2021-11-19T11:04:24Z</time>
      </trkpt>
      <trkpt lat="44.43198" lon="5.02496">
        <ele>314</ele>
        <time>2021-11-19T11:04:25Z</time>
      </trkpt>
      <trkpt lat="44.43203" lon="5.0249">
        <ele>313.9</ele>
        <time>2021-11-19T11:04:26Z</time>
      </trkpt>
      <trkpt lat="44.43209" lon="5.02483">
        <ele>313.8</ele>
        <time>2021-11-19T11:04:27Z</time>
      </trkpt>
      <trkpt lat="44.43214" lon="5.02476">
        <ele>313.7</ele>
        <time>2021-11-19T11:04:28Z</time>
      </trkpt>
      <trkpt lat="44.4322" lon="5.0247">
        <ele>313.6</ele>
        <time>2021-11-19T11:04:29Z</time>
      </trkpt>
      <trkpt lat="44.43226" lon="5.02464">
        <ele>313.4</ele>
        <time>2021-11-19T11:04:30Z</time>
      </trkpt>
      <trkpt lat="44.43231" lon="5.02458">
        <ele>313.3</ele>
        <time>2021-11-19T11:04:31Z</time>
      </trkpt>
      <trkpt lat="44.43237" lon="5.02451">
        <ele>313.3</ele>
        <time>2021-11-19T11:04:32Z</time>
      </trkpt>
      <trkpt lat="44.43242" lon="5.02445">
        <ele>313.2</ele>
        <time>2021-11-19T11:04:33Z</time>
      </trkpt>
      <trkpt lat="44.43248" lon="5.02439">
        <ele>313.2</ele>
        <time>2021-11-19T11:04:34Z</time>
      </trkpt>
      <trkpt lat="44.43253" lon="5.02433">
        <ele>313.1</ele>
        <time>2021-11-19T11:04:35Z</time>
      </trkpt>
      <trkpt lat="44.43259" lon="5.02427">
        <ele>313</ele>
        <time>2021-11-19T11:04:36Z</time>
      </trkpt>
      <trkpt lat="44.43263" lon="5.02421">
        <ele>313</ele>
        <time>2021-11-19T11:04:37Z</time>
      </trkpt>
      <trkpt lat="44.43268" lon="5.02416">
        <ele>313</ele>
        <time>2021-11-19T11:04:38Z</time>
      </trkpt>
      <trkpt lat="44.43273" lon="5.0241">
        <ele>312.9</ele>
        <time>2021-11-19T11:04:39Z</time>
      </trkpt>
      <trkpt lat="44.43279" lon="5.02403">
        <ele>312.9</ele>
        <time>2021-11-19T11:04:40Z</time>
      </trkpt>
      <trkpt lat="44.43284" lon="5.02397">
        <ele>312.8</ele>
        <time>2021-11-19T11:04:41Z</time>
      </trkpt>
      <trkpt lat="44.4329" lon="5.02392">
        <ele>312.8</ele>
        <time>2021-11-19T11:04:42Z</time>
      </trkpt>
      <trkpt lat="44.43294" lon="5.02385">
        <ele>312.7</ele>
        <time>2021-11-19T11:04:43Z</time>
      </trkpt>
      <trkpt lat="44.43298" lon="5.02379">
        <ele>312.7</ele>
        <time>2021-11-19T11:04:44Z</time>
      </trkpt>
      <trkpt lat="44.43304" lon="5.02372">
        <ele>312.6</ele>
        <time>2021-11-19T11:04:45Z</time>
      </trkpt>
      <trkpt lat="44.43309" lon="5.02367">
        <ele>312.6</ele>
        <time>2021-11-19T11:04:46Z</time>
      </trkpt>
      <trkpt lat="44.43314" lon="5.02361">
        <ele>312.5</ele>
        <time>2021-11-19T11:04:47Z</time>
      </trkpt>
      <trkpt lat="44.43319" lon="5.02355">
        <ele>312.5</ele>
        <time>2021-11-19T11:04:48Z</time>
      </trkpt>
      <trkpt lat="44.43325" lon="5.0235">
        <ele>312.5</ele>
        <time>2021-11-19T11:04:49Z</time>
      </trkpt>
      <trkpt lat="44.4333" lon="5.02344">
        <ele>312.4</ele>
        <time>2021-11-19T11:04:50Z</time>
      </trkpt>
      <trkpt lat="44.43335" lon="5.02338">
        <ele>312.4</ele>
        <time>2021-11-19T11:04:51Z</time>
      </trkpt>
      <trkpt lat="44.4334" lon="5.02332">
        <ele>312.4</ele>
        <time>2021-11-19T11:04:52Z</time>
      </trkpt>
      <trkpt lat="44.43345" lon="5.02327">
        <ele>312.4</ele>
        <time>2021-11-19T11:04:53Z</time>
      </trkpt>
      <trkpt lat="44.4335" lon="5.02321">
        <ele>312.4</ele>
        <time>2021-11-19T11:04:54Z</time>
      </trkpt>
      <trkpt lat="44.43355" lon="5.02316">
        <ele>312.4</ele>
        <time>2021-11-19T11:04:55Z</time>
      </trkpt>
      <trkpt lat="44.4336" lon="5.02312">
        <ele>312.4</ele>
        <time>2021-11-19T11:04:56Z</time>
      </trkpt>
      <trkpt lat="44.43364" lon="5.02306">
        <ele>312.4</ele>
        <time>2021-11-19T11:04:57Z</time>
      </trkpt>
      <trkpt lat="44.43369" lon="5.023">
        <ele>312.4</ele>
        <time>2021-11-19T11:04:58Z</time>
      </trkpt>
      <trkpt lat="44.43373" lon="5.02295">
        <ele>312.4</ele>
        <time>2021-11-19T11:04:59Z</time>
      </trkpt>
      <trkpt lat="44.43378" lon="5.0229">
        <ele>312.4</ele>
        <time>2021-11-19T11:05:00Z</time>
      </trkpt>
      <trkpt lat="44.43382" lon="5.02285">
        <ele>312.4</ele>
        <time>2021-11-19T11:05:01Z</time>
      </trkpt>
      <trkpt lat="44.43387" lon="5.0228">
        <ele>312.4</ele>
        <time>2021-11-19T11:05:02Z</time>
      </trkpt>
      <trkpt lat="44.43392" lon="5.02274">
        <ele>312.4</ele>
        <time>2021-11-19T11:05:03Z</time>
      </trkpt>
      <trkpt lat="44.43396" lon="5.02269">
        <ele>312.4</ele>
        <time>2021-11-19T11:05:04Z</time>
      </trkpt>
      <trkpt lat="44.434" lon="5.02264">
        <ele>312.4</ele>
        <time>2021-11-19T11:05:05Z</time>
      </trkpt>
      <trkpt lat="44.43405" lon="5.02259">
        <ele>312.4</ele>
        <time>2021-11-19T11:05:06Z</time>
      </trkpt>
      <trkpt lat="44.43409" lon="5.02253">
        <ele>312.4</ele>
        <time>2021-11-19T11:05:07Z</time>
      </trkpt>
      <trkpt lat="44.43413" lon="5.02248">
        <ele>312.4</ele>
        <time>2021-11-19T11:05:08Z</time>
      </trkpt>
      <trkpt lat="44.43418" lon="5.02244">
        <ele>312.3</ele>
        <time>2021-11-19T11:05:09Z</time>
      </trkpt>
      <trkpt lat="44.43422" lon="5.02239">
        <ele>312.3</ele>
        <time>2021-11-19T11:05:10Z</time>
      </trkpt>
      <trkpt lat="44.43425" lon="5.02235">
        <ele>312.3</ele>
        <time>2021-11-19T11:05:11Z</time>
      </trkpt>
      <trkpt lat="44.43428" lon="5.02231">
        <ele>312.3</ele>
        <time>2021-11-19T11:05:12Z</time>
      </trkpt>
      <trkpt lat="44.43429" lon="5.0223">
        <ele>312.3</ele>
        <time>2021-11-19T11:05:13Z</time>
      </trkpt>
      <trkpt lat="44.4343" lon="5.02229">
        <ele>312.3</ele>
        <time>2021-11-19T11:05:14Z</time>
      </trkpt>
      <trkpt lat="44.4343" lon="5.02228">
        <ele>312.3</ele>
        <time>2021-11-19T11:05:15Z</time>
      </trkpt>
      <trkpt lat="44.43431" lon="5.02227">
        <ele>312.3</ele>
        <time>2021-11-19T11:05:16Z</time>
      </trkpt>
      <trkpt lat="44.43431" lon="5.02226">
        <ele>312.2</ele>
        <time>2021-11-19T11:05:17Z</time>
      </trkpt>
      <trkpt lat="44.43431" lon="5.02225">
        <ele>312.2</ele>
        <time>2021-11-19T11:05:18Z</time>
      </trkpt>
      <trkpt lat="44.43431" lon="5.02225">
        <ele>312.2</ele>
        <time>2021-11-19T11:05:19Z</time>
      </trkpt>
      <trkpt lat="44.43431" lon="5.02224">
        <ele>312.2</ele>
        <time>2021-11-19T11:05:20Z</time>
      </trkpt>
      <trkpt lat="44.43431" lon="5.02223">
        <ele>312.2</ele>
        <time>2021-11-19T11:05:21Z</time>
      </trkpt>
      <trkpt lat="44.43431" lon="5.02222">
        <ele>312.2</ele>
        <time>2021-11-19T11:05:23Z</time>
      </trkpt>
      <trkpt lat="44.43431" lon="5.02221">
        <ele>312.2</ele>
        <time>2021-11-19T11:05:26Z</time>
      </trkpt>
      <trkpt lat="44.43431" lon="5.02221">
        <ele>312.1</ele>
        <time>2021-11-19T11:05:27Z</time>
      </trkpt>
      <trkpt lat="44.4343" lon="5.0222">
        <ele>312.1</ele>
        <time>2021-11-19T11:06:34Z</time>
      </trkpt>
      <trkpt lat="44.4343" lon="5.02219">
        <ele>312.1</ele>
        <time>2021-11-19T11:06:35Z</time>
      </trkpt>
      <trkpt lat="44.43436" lon="5.02206">
        <ele>311.8</ele>
        <time>2021-11-19T11:06:37Z</time>
      </trkpt>
      <trkpt lat="44.4344" lon="5.022">
        <ele>311.7</ele>
        <time>2021-11-19T11:06:38Z</time>
      </trkpt>
      <trkpt lat="44.43445" lon="5.02193">
        <ele>311.5</ele>
        <time>2021-11-19T11:06:39Z</time>
      </trkpt>
      <trkpt lat="44.43449" lon="5.02185">
        <ele>311.3</ele>
        <time>2021-11-19T11:06:41Z</time>
      </trkpt>
      <trkpt lat="44.43456" lon="5.02176">
        <ele>311</ele>
        <time>2021-11-19T11:06:43Z</time>
      </trkpt>
      <trkpt lat="44.43468" lon="5.02157">
        <ele>310.3</ele>
        <time>2021-11-19T11:06:48Z</time>
      </trkpt>
      <trkpt lat="44.43474" lon="5.02143">
        <ele>309.9</ele>
        <time>2021-11-19T11:06:49Z</time>
      </trkpt>
      <trkpt lat="44.4348" lon="5.02136">
        <ele>309.6</ele>
        <time>2021-11-19T11:06:52Z</time>
      </trkpt>
      <trkpt lat="44.43484" lon="5.0213">
        <ele>309.4</ele>
        <time>2021-11-19T11:06:53Z</time>
      </trkpt>
      <trkpt lat="44.43489" lon="5.02125">
        <ele>309.2</ele>
        <time>2021-11-19T11:06:54Z</time>
      </trkpt>
      <trkpt lat="44.43493" lon="5.02119">
        <ele>309</ele>
        <time>2021-11-19T11:06:55Z</time>
      </trkpt>
      <trkpt lat="44.43496" lon="5.02112">
        <ele>308.7</ele>
        <time>2021-11-19T11:06:56Z</time>
      </trkpt>
      <trkpt lat="44.435" lon="5.02106">
        <ele>308.5</ele>
        <time>2021-11-19T11:06:57Z</time>
      </trkpt>
      <trkpt lat="44.43504" lon="5.02099">
        <ele>308.3</ele>
        <time>2021-11-19T11:06:58Z</time>
      </trkpt>
      <trkpt lat="44.43508" lon="5.02093">
        <ele>308.1</ele>
        <time>2021-11-19T11:06:59Z</time>
      </trkpt>
      <trkpt lat="44.43512" lon="5.02087">
        <ele>307.8</ele>
        <time>2021-11-19T11:07:00Z</time>
      </trkpt>
      <trkpt lat="44.43516" lon="5.0208">
        <ele>307.6</ele>
        <time>2021-11-19T11:07:01Z</time>
      </trkpt>
      <trkpt lat="44.43519" lon="5.02074">
        <ele>307.4</ele>
        <time>2021-11-19T11:07:02Z</time>
      </trkpt>
      <trkpt lat="44.43522" lon="5.02066">
        <ele>307.2</ele>
        <time>2021-11-19T11:07:03Z</time>
      </trkpt>
      <trkpt lat="44.43526" lon="5.02058">
        <ele>306.9</ele>
        <time>2021-11-19T11:07:04Z</time>
      </trkpt>
      <trkpt lat="44.43529" lon="5.02051">
        <ele>306.7</ele>
        <time>2021-11-19T11:07:05Z</time>
      </trkpt>
      <trkpt lat="44.43535" lon="5.02044">
        <ele>306.4</ele>
        <time>2021-11-19T11:07:06Z</time>
      </trkpt>
      <trkpt lat="44.4354" lon="5.02037">
        <ele>306.2</ele>
        <time>2021-11-19T11:07:07Z</time>
      </trkpt>
      <trkpt lat="44.43544" lon="5.02029">
        <ele>306</ele>
        <time>2021-11-19T11:07:08Z</time>
      </trkpt>
      <trkpt lat="44.43548" lon="5.02021">
        <ele>305.7</ele>
        <time>2021-11-19T11:07:09Z</time>
      </trkpt>
      <trkpt lat="44.43554" lon="5.02013">
        <ele>305.5</ele>
        <time>2021-11-19T11:07:10Z</time>
      </trkpt>
      <trkpt lat="44.43559" lon="5.02005">
        <ele>305.3</ele>
        <time>2021-11-19T11:07:11Z</time>
      </trkpt>
      <trkpt lat="44.43563" lon="5.01997">
        <ele>305</ele>
        <time>2021-11-19T11:07:12Z</time>
      </trkpt>
      <trkpt lat="44.43567" lon="5.0199">
        <ele>304.8</ele>
        <time>2021-11-19T11:07:13Z</time>
      </trkpt>
      <trkpt lat="44.43571" lon="5.01983">
        <ele>304.6</ele>
        <time>2021-11-19T11:07:14Z</time>
      </trkpt>
      <trkpt lat="44.43574" lon="5.01976">
        <ele>304.4</ele>
        <time>2021-11-19T11:07:15Z</time>
      </trkpt>
      <trkpt lat="44.43578" lon="5.01969">
        <ele>304.2</ele>
        <time>2021-11-19T11:07:16Z</time>
      </trkpt>
      <trkpt lat="44.43584" lon="5.01961">
        <ele>304</ele>
        <time>2021-11-19T11:07:17Z</time>
      </trkpt>
      <trkpt lat="44.43589" lon="5.01953">
        <ele>303.7</ele>
        <time>2021-11-19T11:07:18Z</time>
      </trkpt>
      <trkpt lat="44.43594" lon="5.01946">
        <ele>303.5</ele>
        <time>2021-11-19T11:07:19Z</time>
      </trkpt>
      <trkpt lat="44.43599" lon="5.01938">
        <ele>303.3</ele>
        <time>2021-11-19T11:07:20Z</time>
      </trkpt>
      <trkpt lat="44.43605" lon="5.01932">
        <ele>303</ele>
        <time>2021-11-19T11:07:21Z</time>
      </trkpt>
      <trkpt lat="44.43612" lon="5.01928">
        <ele>302.8</ele>
        <time>2021-11-19T11:07:22Z</time>
      </trkpt>
      <trkpt lat="44.43619" lon="5.01924">
        <ele>302.6</ele>
        <time>2021-11-19T11:07:23Z</time>
      </trkpt>
      <trkpt lat="44.43626" lon="5.01919">
        <ele>302.4</ele>
        <time>2021-11-19T11:07:24Z</time>
      </trkpt>
      <trkpt lat="44.43633" lon="5.01915">
        <ele>302.2</ele>
        <time>2021-11-19T11:07:25Z</time>
      </trkpt>
      <trkpt lat="44.4364" lon="5.01912">
        <ele>302.1</ele>
        <time>2021-11-19T11:07:26Z</time>
      </trkpt>
      <trkpt lat="44.43647" lon="5.01909">
        <ele>301.9</ele>
        <time>2021-11-19T11:07:27Z</time>
      </trkpt>
      <trkpt lat="44.43655" lon="5.01905">
        <ele>301.7</ele>
        <time>2021-11-19T11:07:28Z</time>
      </trkpt>
      <trkpt lat="44.43663" lon="5.01901">
        <ele>301.6</ele>
        <time>2021-11-19T11:07:29Z</time>
      </trkpt>
      <trkpt lat="44.4367" lon="5.01899">
        <ele>301.6</ele>
        <time>2021-11-19T11:07:30Z</time>
      </trkpt>
      <trkpt lat="44.43676" lon="5.01896">
        <ele>301.5</ele>
        <time>2021-11-19T11:07:31Z</time>
      </trkpt>
      <trkpt lat="44.43681" lon="5.01894">
        <ele>301.3</ele>
        <time>2021-11-19T11:07:32Z</time>
      </trkpt>
      <trkpt lat="44.43686" lon="5.01891">
        <ele>301.2</ele>
        <time>2021-11-19T11:07:33Z</time>
      </trkpt>
      <trkpt lat="44.43691" lon="5.01888">
        <ele>301.1</ele>
        <time>2021-11-19T11:07:34Z</time>
      </trkpt>
      <trkpt lat="44.43697" lon="5.01886">
        <ele>300.9</ele>
        <time>2021-11-19T11:07:35Z</time>
      </trkpt>
      <trkpt lat="44.43705" lon="5.01884">
        <ele>300.8</ele>
        <time>2021-11-19T11:07:36Z</time>
      </trkpt>
      <trkpt lat="44.43713" lon="5.01882">
        <ele>300.7</ele>
        <time>2021-11-19T11:07:37Z</time>
      </trkpt>
      <trkpt lat="44.4372" lon="5.0188">
        <ele>300.6</ele>
        <time>2021-11-19T11:07:38Z</time>
      </trkpt>
      <trkpt lat="44.43726" lon="5.01878">
        <ele>300.4</ele>
        <time>2021-11-19T11:07:39Z</time>
      </trkpt>
      <trkpt lat="44.4373" lon="5.01876">
        <ele>300.3</ele>
        <time>2021-11-19T11:07:40Z</time>
      </trkpt>
      <trkpt lat="44.43736" lon="5.01874">
        <ele>300.2</ele>
        <time>2021-11-19T11:07:41Z</time>
      </trkpt>
      <trkpt lat="44.43742" lon="5.01872">
        <ele>300.1</ele>
        <time>2021-11-19T11:07:42Z</time>
      </trkpt>
      <trkpt lat="44.43748" lon="5.0187">
        <ele>300.1</ele>
        <time>2021-11-19T11:07:43Z</time>
      </trkpt>
      <trkpt lat="44.43756" lon="5.01868">
        <ele>300</ele>
        <time>2021-11-19T11:07:44Z</time>
      </trkpt>
      <trkpt lat="44.43763" lon="5.01866">
        <ele>299.9</ele>
        <time>2021-11-19T11:07:45Z</time>
      </trkpt>
      <trkpt lat="44.43769" lon="5.01864">
        <ele>299.9</ele>
        <time>2021-11-19T11:07:46Z</time>
      </trkpt>
      <trkpt lat="44.43776" lon="5.01862">
        <ele>299.9</ele>
        <time>2021-11-19T11:07:47Z</time>
      </trkpt>
      <trkpt lat="44.43781" lon="5.0186">
        <ele>299.8</ele>
        <time>2021-11-19T11:07:48Z</time>
      </trkpt>
      <trkpt lat="44.43787" lon="5.01858">
        <ele>299.8</ele>
        <time>2021-11-19T11:07:49Z</time>
      </trkpt>
      <trkpt lat="44.43791" lon="5.01855">
        <ele>299.8</ele>
        <time>2021-11-19T11:07:50Z</time>
      </trkpt>
      <trkpt lat="44.43797" lon="5.01853">
        <ele>299.8</ele>
        <time>2021-11-19T11:07:51Z</time>
      </trkpt>
      <trkpt lat="44.43803" lon="5.0185">
        <ele>299.7</ele>
        <time>2021-11-19T11:07:52Z</time>
      </trkpt>
      <trkpt lat="44.43809" lon="5.01848">
        <ele>299.7</ele>
        <time>2021-11-19T11:07:53Z</time>
      </trkpt>
      <trkpt lat="44.43814" lon="5.01846">
        <ele>299.7</ele>
        <time>2021-11-19T11:07:54Z</time>
      </trkpt>
      <trkpt lat="44.4382" lon="5.01844">
        <ele>299.7</ele>
        <time>2021-11-19T11:07:55Z</time>
      </trkpt>
      <trkpt lat="44.43826" lon="5.01844">
        <ele>299.7</ele>
        <time>2021-11-19T11:07:56Z</time>
      </trkpt>
      <trkpt lat="44.43831" lon="5.01843">
        <ele>299.8</ele>
        <time>2021-11-19T11:07:57Z</time>
      </trkpt>
      <trkpt lat="44.43837" lon="5.01842">
        <ele>299.8</ele>
        <time>2021-11-19T11:07:58Z</time>
      </trkpt>
      <trkpt lat="44.43843" lon="5.01842">
        <ele>299.8</ele>
        <time>2021-11-19T11:07:59Z</time>
      </trkpt>
      <trkpt lat="44.43849" lon="5.01841">
        <ele>299.8</ele>
        <time>2021-11-19T11:08:00Z</time>
      </trkpt>
      <trkpt lat="44.43854" lon="5.01841">
        <ele>299.8</ele>
        <time>2021-11-19T11:08:01Z</time>
      </trkpt>
      <trkpt lat="44.43858" lon="5.0184">
        <ele>299.8</ele>
        <time>2021-11-19T11:08:02Z</time>
      </trkpt>
      <trkpt lat="44.43864" lon="5.0184">
        <ele>299.8</ele>
        <time>2021-11-19T11:08:03Z</time>
      </trkpt>
      <trkpt lat="44.43873" lon="5.01836">
        <ele>299.7</ele>
        <time>2021-11-19T11:08:05Z</time>
      </trkpt>
      <trkpt lat="44.43874" lon="5.01833">
        <ele>299.7</ele>
        <time>2021-11-19T11:08:06Z</time>
      </trkpt>
      <trkpt lat="44.43877" lon="5.01827">
        <ele>299.7</ele>
        <time>2021-11-19T11:08:08Z</time>
      </trkpt>
      <trkpt lat="44.4388" lon="5.01837">
        <ele>299.8</ele>
        <time>2021-11-19T11:08:10Z</time>
      </trkpt>
      <trkpt lat="44.43878" lon="5.01844">
        <ele>299.8</ele>
        <time>2021-11-19T11:08:11Z</time>
      </trkpt>
      <trkpt lat="44.43883" lon="5.01833">
        <ele>299.8</ele>
        <time>2021-11-19T11:08:13Z</time>
      </trkpt>
      <trkpt lat="44.43912" lon="5.01839">
        <ele>299.8</ele>
        <time>2021-11-19T11:08:16Z</time>
      </trkpt>
      <trkpt lat="44.4392" lon="5.01843">
        <ele>299.8</ele>
        <time>2021-11-19T11:08:17Z</time>
      </trkpt>
      <trkpt lat="44.43913" lon="5.01839">
        <ele>299.8</ele>
        <time>2021-11-19T11:08:18Z</time>
      </trkpt>
      <trkpt lat="44.43911" lon="5.01841">
        <ele>299.9</ele>
        <time>2021-11-19T11:08:19Z</time>
      </trkpt>
      <trkpt lat="44.43916" lon="5.01846">
        <ele>299.9</ele>
        <time>2021-11-19T11:08:21Z</time>
      </trkpt>
      <trkpt lat="44.43942" lon="5.01851">
        <ele>300</ele>
        <time>2021-11-19T11:08:23Z</time>
      </trkpt>
      <trkpt lat="44.43956" lon="5.01849">
        <ele>300.1</ele>
        <time>2021-11-19T11:08:26Z</time>
      </trkpt>
      <trkpt lat="44.43965" lon="5.01848">
        <ele>300.1</ele>
        <time>2021-11-19T11:08:27Z</time>
      </trkpt>
      <trkpt lat="44.43974" lon="5.01845">
        <ele>300.1</ele>
        <time>2021-11-19T11:08:28Z</time>
      </trkpt>
      <trkpt lat="44.4398" lon="5.01836">
        <ele>300.2</ele>
        <time>2021-11-19T11:08:30Z</time>
      </trkpt>
      <trkpt lat="44.43985" lon="5.01835">
        <ele>300.2</ele>
        <time>2021-11-19T11:08:31Z</time>
      </trkpt>
      <trkpt lat="44.43994" lon="5.01832">
        <ele>300.3</ele>
        <time>2021-11-19T11:08:32Z</time>
      </trkpt>
      <trkpt lat="44.43999" lon="5.01834">
        <ele>300.3</ele>
        <time>2021-11-19T11:08:34Z</time>
      </trkpt>
      <trkpt lat="44.43996" lon="5.01837">
        <ele>300.3</ele>
        <time>2021-11-19T11:08:35Z</time>
      </trkpt>
      <trkpt lat="44.43995" lon="5.01838">
        <ele>300.3</ele>
        <time>2021-11-19T11:08:38Z</time>
      </trkpt>
      <trkpt lat="44.43995" lon="5.01838">
        <ele>300.3</ele>
        <time>2021-11-19T11:08:39Z</time>
      </trkpt>
      <trkpt lat="44.43995" lon="5.01839">
        <ele>300.3</ele>
        <time>2021-11-19T11:08:40Z</time>
      </trkpt>
      <trkpt lat="44.43995" lon="5.01839">
        <ele>300.3</ele>
        <time>2021-11-19T11:08:41Z</time>
      </trkpt>
      <trkpt lat="44.43995" lon="5.01839">
        <ele>300.3</ele>
        <time>2021-11-19T11:08:42Z</time>
      </trkpt>
      <trkpt lat="44.43995" lon="5.01839">
        <ele>300.3</ele>
        <time>2021-11-19T11:08:43Z</time>
      </trkpt>
      <trkpt lat="44.43995" lon="5.01839">
        <ele>300.3</ele>
        <time>2021-11-19T11:08:44Z</time>
      </trkpt>
      <trkpt lat="44.44" lon="5.01832">
        <ele>300.3</ele>
        <time>2021-11-19T11:08:57Z</time>
      </trkpt>
      <trkpt lat="44.44004" lon="5.01831">
        <ele>300.3</ele>
        <time>2021-11-19T11:08:58Z</time>
      </trkpt>
      <trkpt lat="44.4401" lon="5.01827">
        <ele>300.3</ele>
        <time>2021-11-19T11:08:59Z</time>
      </trkpt>
      <trkpt lat="44.44016" lon="5.01823">
        <ele>300.3</ele>
        <time>2021-11-19T11:09:00Z</time>
      </trkpt>
      <trkpt lat="44.44023" lon="5.01818">
        <ele>300.2</ele>
        <time>2021-11-19T11:09:01Z</time>
      </trkpt>
      <trkpt lat="44.44036" lon="5.01809">
        <ele>300</ele>
        <time>2021-11-19T11:09:03Z</time>
      </trkpt>
      <trkpt lat="44.44042" lon="5.01801">
        <ele>299.9</ele>
        <time>2021-11-19T11:09:04Z</time>
      </trkpt>
      <trkpt lat="44.44045" lon="5.01792">
        <ele>299.9</ele>
        <time>2021-11-19T11:09:07Z</time>
      </trkpt>
      <trkpt lat="44.44049" lon="5.01787">
        <ele>299.8</ele>
        <time>2021-11-19T11:09:08Z</time>
      </trkpt>
      <trkpt lat="44.44052" lon="5.01782">
        <ele>299.8</ele>
        <time>2021-11-19T11:09:09Z</time>
      </trkpt>
      <trkpt lat="44.44055" lon="5.01775">
        <ele>299.7</ele>
        <time>2021-11-19T11:09:10Z</time>
      </trkpt>
      <trkpt lat="44.44058" lon="5.01769">
        <ele>299.7</ele>
        <time>2021-11-19T11:09:11Z</time>
      </trkpt>
      <trkpt lat="44.44061" lon="5.01762">
        <ele>299.6</ele>
        <time>2021-11-19T11:09:12Z</time>
      </trkpt>
      <trkpt lat="44.44064" lon="5.01756">
        <ele>299.6</ele>
        <time>2021-11-19T11:09:13Z</time>
      </trkpt>
      <trkpt lat="44.44067" lon="5.01749">
        <ele>299.5</ele>
        <time>2021-11-19T11:09:14Z</time>
      </trkpt>
      <trkpt lat="44.4407" lon="5.01742">
        <ele>299.5</ele>
        <time>2021-11-19T11:09:15Z</time>
      </trkpt>
      <trkpt lat="44.44075" lon="5.01727">
        <ele>299.4</ele>
        <time>2021-11-19T11:09:17Z</time>
      </trkpt>
      <trkpt lat="44.44077" lon="5.0172">
        <ele>299.3</ele>
        <time>2021-11-19T11:09:18Z</time>
      </trkpt>
      <trkpt lat="44.4408" lon="5.01712">
        <ele>299.2</ele>
        <time>2021-11-19T11:09:19Z</time>
      </trkpt>
      <trkpt lat="44.44083" lon="5.01706">
        <ele>299.2</ele>
        <time>2021-11-19T11:09:20Z</time>
      </trkpt>
      <trkpt lat="44.44087" lon="5.017">
        <ele>299.1</ele>
        <time>2021-11-19T11:09:21Z</time>
      </trkpt>
      <trkpt lat="44.4409" lon="5.01694">
        <ele>299</ele>
        <time>2021-11-19T11:09:22Z</time>
      </trkpt>
      <trkpt lat="44.44093" lon="5.01688">
        <ele>299</ele>
        <time>2021-11-19T11:09:23Z</time>
      </trkpt>
      <trkpt lat="44.44096" lon="5.01681">
        <ele>299</ele>
        <time>2021-11-19T11:09:24Z</time>
      </trkpt>
      <trkpt lat="44.44099" lon="5.01674">
        <ele>299</ele>
        <time>2021-11-19T11:09:25Z</time>
      </trkpt>
      <trkpt lat="44.44102" lon="5.01667">
        <ele>299</ele>
        <time>2021-11-19T11:09:26Z</time>
      </trkpt>
      <trkpt lat="44.44104" lon="5.01659">
        <ele>299</ele>
        <time>2021-11-19T11:09:27Z</time>
      </trkpt>
      <trkpt lat="44.44107" lon="5.01652">
        <ele>299</ele>
        <time>2021-11-19T11:09:28Z</time>
      </trkpt>
      <trkpt lat="44.44111" lon="5.01646">
        <ele>299</ele>
        <time>2021-11-19T11:09:29Z</time>
      </trkpt>
      <trkpt lat="44.44114" lon="5.01638">
        <ele>299</ele>
        <time>2021-11-19T11:09:30Z</time>
      </trkpt>
      <trkpt lat="44.44116" lon="5.0163">
        <ele>299</ele>
        <time>2021-11-19T11:09:31Z</time>
      </trkpt>
      <trkpt lat="44.44118" lon="5.01623">
        <ele>299</ele>
        <time>2021-11-19T11:09:32Z</time>
      </trkpt>
      <trkpt lat="44.44121" lon="5.01616">
        <ele>298.9</ele>
        <time>2021-11-19T11:09:33Z</time>
      </trkpt>
      <trkpt lat="44.44123" lon="5.01608">
        <ele>298.9</ele>
        <time>2021-11-19T11:09:34Z</time>
      </trkpt>
      <trkpt lat="44.44125" lon="5.01599">
        <ele>298.9</ele>
        <time>2021-11-19T11:09:35Z</time>
      </trkpt>
      <trkpt lat="44.44127" lon="5.01592">
        <ele>298.9</ele>
        <time>2021-11-19T11:09:36Z</time>
      </trkpt>
      <trkpt lat="44.4413" lon="5.01582">
        <ele>298.8</ele>
        <time>2021-11-19T11:09:37Z</time>
      </trkpt>
      <trkpt lat="44.44132" lon="5.01573">
        <ele>298.8</ele>
        <time>2021-11-19T11:09:38Z</time>
      </trkpt>
      <trkpt lat="44.44134" lon="5.01565">
        <ele>298.8</ele>
        <time>2021-11-19T11:09:39Z</time>
      </trkpt>
      <trkpt lat="44.44136" lon="5.01558">
        <ele>298.8</ele>
        <time>2021-11-19T11:09:40Z</time>
      </trkpt>
      <trkpt lat="44.44138" lon="5.0155">
        <ele>298.8</ele>
        <time>2021-11-19T11:09:41Z</time>
      </trkpt>
      <trkpt lat="44.44141" lon="5.01542">
        <ele>298.8</ele>
        <time>2021-11-19T11:09:42Z</time>
      </trkpt>
      <trkpt lat="44.44144" lon="5.01536">
        <ele>298.8</ele>
        <time>2021-11-19T11:09:43Z</time>
      </trkpt>
      <trkpt lat="44.44147" lon="5.01529">
        <ele>298.8</ele>
        <time>2021-11-19T11:09:44Z</time>
      </trkpt>
      <trkpt lat="44.44148" lon="5.01522">
        <ele>298.8</ele>
        <time>2021-11-19T11:09:45Z</time>
      </trkpt>
      <trkpt lat="44.4415" lon="5.01515">
        <ele>298.8</ele>
        <time>2021-11-19T11:09:46Z</time>
      </trkpt>
      <trkpt lat="44.44152" lon="5.01507">
        <ele>298.7</ele>
        <time>2021-11-19T11:09:47Z</time>
      </trkpt>
      <trkpt lat="44.44153" lon="5.015">
        <ele>298.7</ele>
        <time>2021-11-19T11:09:48Z</time>
      </trkpt>
      <trkpt lat="44.44155" lon="5.01494">
        <ele>298.6</ele>
        <time>2021-11-19T11:09:49Z</time>
      </trkpt>
      <trkpt lat="44.44157" lon="5.01487">
        <ele>298.6</ele>
        <time>2021-11-19T11:09:50Z</time>
      </trkpt>
      <trkpt lat="44.44159" lon="5.01479">
        <ele>298.5</ele>
        <time>2021-11-19T11:09:51Z</time>
      </trkpt>
      <trkpt lat="44.44161" lon="5.01472">
        <ele>298.4</ele>
        <time>2021-11-19T11:09:52Z</time>
      </trkpt>
      <trkpt lat="44.44163" lon="5.01466">
        <ele>298.4</ele>
        <time>2021-11-19T11:09:53Z</time>
      </trkpt>
      <trkpt lat="44.44165" lon="5.01458">
        <ele>298.3</ele>
        <time>2021-11-19T11:09:54Z</time>
      </trkpt>
      <trkpt lat="44.44168" lon="5.0145">
        <ele>298.2</ele>
        <time>2021-11-19T11:09:55Z</time>
      </trkpt>
      <trkpt lat="44.4417" lon="5.01442">
        <ele>298.1</ele>
        <time>2021-11-19T11:09:56Z</time>
      </trkpt>
      <trkpt lat="44.44172" lon="5.01433">
        <ele>297.9</ele>
        <time>2021-11-19T11:09:57Z</time>
      </trkpt>
      <trkpt lat="44.44175" lon="5.01426">
        <ele>297.8</ele>
        <time>2021-11-19T11:09:58Z</time>
      </trkpt>
      <trkpt lat="44.44178" lon="5.0142">
        <ele>297.6</ele>
        <time>2021-11-19T11:09:59Z</time>
      </trkpt>
      <trkpt lat="44.44181" lon="5.01413">
        <ele>297.4</ele>
        <time>2021-11-19T11:10:00Z</time>
      </trkpt>
      <trkpt lat="44.44184" lon="5.01405">
        <ele>297.2</ele>
        <time>2021-11-19T11:10:01Z</time>
      </trkpt>
      <trkpt lat="44.44186" lon="5.01396">
        <ele>297</ele>
        <time>2021-11-19T11:10:02Z</time>
      </trkpt>
      <trkpt lat="44.44189" lon="5.01387">
        <ele>296.7</ele>
        <time>2021-11-19T11:10:03Z</time>
      </trkpt>
      <trkpt lat="44.44193" lon="5.01379">
        <ele>296.5</ele>
        <time>2021-11-19T11:10:04Z</time>
      </trkpt>
      <trkpt lat="44.44196" lon="5.01371">
        <ele>296.2</ele>
        <time>2021-11-19T11:10:05Z</time>
      </trkpt>
      <trkpt lat="44.442" lon="5.01364">
        <ele>296</ele>
        <time>2021-11-19T11:10:06Z</time>
      </trkpt>
      <trkpt lat="44.44203" lon="5.01355">
        <ele>295.7</ele>
        <time>2021-11-19T11:10:07Z</time>
      </trkpt>
      <trkpt lat="44.44207" lon="5.01346">
        <ele>295.3</ele>
        <time>2021-11-19T11:10:08Z</time>
      </trkpt>
      <trkpt lat="44.44212" lon="5.01336">
        <ele>295</ele>
        <time>2021-11-19T11:10:09Z</time>
      </trkpt>
      <trkpt lat="44.44217" lon="5.01327">
        <ele>294.6</ele>
        <time>2021-11-19T11:10:10Z</time>
      </trkpt>
      <trkpt lat="44.44224" lon="5.01317">
        <ele>294.2</ele>
        <time>2021-11-19T11:10:11Z</time>
      </trkpt>
      <trkpt lat="44.44231" lon="5.01309">
        <ele>293.9</ele>
        <time>2021-11-19T11:10:12Z</time>
      </trkpt>
      <trkpt lat="44.44237" lon="5.013">
        <ele>293.5</ele>
        <time>2021-11-19T11:10:13Z</time>
      </trkpt>
      <trkpt lat="44.44244" lon="5.01292">
        <ele>293.2</ele>
        <time>2021-11-19T11:10:14Z</time>
      </trkpt>
      <trkpt lat="44.44251" lon="5.01284">
        <ele>292.9</ele>
        <time>2021-11-19T11:10:15Z</time>
      </trkpt>
      <trkpt lat="44.44258" lon="5.01277">
        <ele>292.6</ele>
        <time>2021-11-19T11:10:16Z</time>
      </trkpt>
      <trkpt lat="44.44264" lon="5.0127">
        <ele>292.3</ele>
        <time>2021-11-19T11:10:17Z</time>
      </trkpt>
      <trkpt lat="44.44271" lon="5.01263">
        <ele>292</ele>
        <time>2021-11-19T11:10:18Z</time>
      </trkpt>
      <trkpt lat="44.44279" lon="5.01257">
        <ele>291.7</ele>
        <time>2021-11-19T11:10:19Z</time>
      </trkpt>
      <trkpt lat="44.44286" lon="5.01252">
        <ele>291.5</ele>
        <time>2021-11-19T11:10:20Z</time>
      </trkpt>
      <trkpt lat="44.44293" lon="5.01247">
        <ele>291.3</ele>
        <time>2021-11-19T11:10:21Z</time>
      </trkpt>
      <trkpt lat="44.443" lon="5.01243">
        <ele>291.1</ele>
        <time>2021-11-19T11:10:22Z</time>
      </trkpt>
      <trkpt lat="44.44307" lon="5.01239">
        <ele>290.9</ele>
        <time>2021-11-19T11:10:23Z</time>
      </trkpt>
      <trkpt lat="44.44314" lon="5.01235">
        <ele>290.8</ele>
        <time>2021-11-19T11:10:24Z</time>
      </trkpt>
      <trkpt lat="44.4432" lon="5.01232">
        <ele>290.6</ele>
        <time>2021-11-19T11:10:25Z</time>
      </trkpt>
      <trkpt lat="44.44326" lon="5.0123">
        <ele>290.5</ele>
        <time>2021-11-19T11:10:26Z</time>
      </trkpt>
      <trkpt lat="44.44334" lon="5.01229">
        <ele>290.3</ele>
        <time>2021-11-19T11:10:27Z</time>
      </trkpt>
      <trkpt lat="44.44341" lon="5.01227">
        <ele>290.2</ele>
        <time>2021-11-19T11:10:28Z</time>
      </trkpt>
      <trkpt lat="44.44348" lon="5.01226">
        <ele>290</ele>
        <time>2021-11-19T11:10:29Z</time>
      </trkpt>
      <trkpt lat="44.44355" lon="5.01226">
        <ele>289.9</ele>
        <time>2021-11-19T11:10:30Z</time>
      </trkpt>
      <trkpt lat="44.44363" lon="5.01227">
        <ele>289.7</ele>
        <time>2021-11-19T11:10:31Z</time>
      </trkpt>
      <trkpt lat="44.44371" lon="5.01226">
        <ele>289.6</ele>
        <time>2021-11-19T11:10:32Z</time>
      </trkpt>
      <trkpt lat="44.44378" lon="5.01226">
        <ele>289.5</ele>
        <time>2021-11-19T11:10:33Z</time>
      </trkpt>
      <trkpt lat="44.44384" lon="5.01226">
        <ele>289.5</ele>
        <time>2021-11-19T11:10:34Z</time>
      </trkpt>
      <trkpt lat="44.4439" lon="5.01225">
        <ele>289.4</ele>
        <time>2021-11-19T11:10:35Z</time>
      </trkpt>
      <trkpt lat="44.44397" lon="5.01225">
        <ele>289.4</ele>
        <time>2021-11-19T11:10:36Z</time>
      </trkpt>
      <trkpt lat="44.44404" lon="5.01225">
        <ele>289.5</ele>
        <time>2021-11-19T11:10:37Z</time>
      </trkpt>
      <trkpt lat="44.4441" lon="5.01225">
        <ele>289.5</ele>
        <time>2021-11-19T11:10:38Z</time>
      </trkpt>
      <trkpt lat="44.44415" lon="5.01225">
        <ele>289.6</ele>
        <time>2021-11-19T11:10:39Z</time>
      </trkpt>
      <trkpt lat="44.44421" lon="5.01224">
        <ele>289.6</ele>
        <time>2021-11-19T11:10:40Z</time>
      </trkpt>
      <trkpt lat="44.44426" lon="5.01223">
        <ele>289.7</ele>
        <time>2021-11-19T11:10:41Z</time>
      </trkpt>
      <trkpt lat="44.44431" lon="5.01221">
        <ele>289.7</ele>
        <time>2021-11-19T11:10:42Z</time>
      </trkpt>
      <trkpt lat="44.44435" lon="5.0122">
        <ele>289.7</ele>
        <time>2021-11-19T11:10:43Z</time>
      </trkpt>
      <trkpt lat="44.44439" lon="5.01219">
        <ele>289.7</ele>
        <time>2021-11-19T11:10:44Z</time>
      </trkpt>
      <trkpt lat="44.44445" lon="5.0122">
        <ele>289.8</ele>
        <time>2021-11-19T11:10:45Z</time>
      </trkpt>
      <trkpt lat="44.44452" lon="5.01221">
        <ele>289.9</ele>
        <time>2021-11-19T11:10:46Z</time>
      </trkpt>
      <trkpt lat="44.44456" lon="5.01222">
        <ele>289.9</ele>
        <time>2021-11-19T11:10:47Z</time>
      </trkpt>
      <trkpt lat="44.4446" lon="5.01224">
        <ele>290</ele>
        <time>2021-11-19T11:10:48Z</time>
      </trkpt>
      <trkpt lat="44.44465" lon="5.01226">
        <ele>290.2</ele>
        <time>2021-11-19T11:10:49Z</time>
      </trkpt>
      <trkpt lat="44.44469" lon="5.01229">
        <ele>290.3</ele>
        <time>2021-11-19T11:10:50Z</time>
      </trkpt>
      <trkpt lat="44.44473" lon="5.01232">
        <ele>290.4</ele>
        <time>2021-11-19T11:10:51Z</time>
      </trkpt>
      <trkpt lat="44.44478" lon="5.01236">
        <ele>290.5</ele>
        <time>2021-11-19T11:10:52Z</time>
      </trkpt>
      <trkpt lat="44.44483" lon="5.01241">
        <ele>290.7</ele>
        <time>2021-11-19T11:10:53Z</time>
      </trkpt>
      <trkpt lat="44.44493" lon="5.01247">
        <ele>291</ele>
        <time>2021-11-19T11:10:56Z</time>
      </trkpt>
      <trkpt lat="44.44497" lon="5.01249">
        <ele>291</ele>
        <time>2021-11-19T11:10:57Z</time>
      </trkpt>
      <trkpt lat="44.44501" lon="5.01252">
        <ele>291.1</ele>
        <time>2021-11-19T11:10:58Z</time>
      </trkpt>
      <trkpt lat="44.44509" lon="5.01256">
        <ele>291.3</ele>
        <time>2021-11-19T11:11:01Z</time>
      </trkpt>
      <trkpt lat="44.44512" lon="5.01258">
        <ele>291.3</ele>
        <time>2021-11-19T11:11:02Z</time>
      </trkpt>
      <trkpt lat="44.44518" lon="5.01262">
        <ele>291.5</ele>
        <time>2021-11-19T11:11:03Z</time>
      </trkpt>
      <trkpt lat="44.44531" lon="5.01271">
        <ele>291.7</ele>
        <time>2021-11-19T11:11:06Z</time>
      </trkpt>
      <trkpt lat="44.4454" lon="5.01277">
        <ele>291.8</ele>
        <time>2021-11-19T11:11:08Z</time>
      </trkpt>
      <trkpt lat="44.44543" lon="5.01279">
        <ele>291.9</ele>
        <time>2021-11-19T11:11:09Z</time>
      </trkpt>
      <trkpt lat="44.44549" lon="5.01281">
        <ele>291.9</ele>
        <time>2021-11-19T11:11:11Z</time>
      </trkpt>
      <trkpt lat="44.44555" lon="5.01284">
        <ele>292</ele>
        <time>2021-11-19T11:11:12Z</time>
      </trkpt>
      <trkpt lat="44.44557" lon="5.01284">
        <ele>292</ele>
        <time>2021-11-19T11:11:14Z</time>
      </trkpt>
      <trkpt lat="44.4456" lon="5.01286">
        <ele>292</ele>
        <time>2021-11-19T11:11:16Z</time>
      </trkpt>
      <trkpt lat="44.4457" lon="5.01293">
        <ele>292.2</ele>
        <time>2021-11-19T11:11:18Z</time>
      </trkpt>
      <trkpt lat="44.44574" lon="5.01283">
        <ele>292.3</ele>
        <time>2021-11-19T11:11:21Z</time>
      </trkpt>
      <trkpt lat="44.44588" lon="5.01294">
        <ele>292.5</ele>
        <time>2021-11-19T11:11:23Z</time>
      </trkpt>
      <trkpt lat="44.44597" lon="5.01304">
        <ele>292.7</ele>
        <time>2021-11-19T11:11:25Z</time>
      </trkpt>
      <trkpt lat="44.44605" lon="5.0131">
        <ele>292.8</ele>
        <time>2021-11-19T11:11:26Z</time>
      </trkpt>
      <trkpt lat="44.4461" lon="5.01314">
        <ele>292.9</ele>
        <time>2021-11-19T11:11:28Z</time>
      </trkpt>
      <trkpt lat="44.44615" lon="5.01319">
        <ele>293.1</ele>
        <time>2021-11-19T11:11:30Z</time>
      </trkpt>
      <trkpt lat="44.44622" lon="5.01324">
        <ele>293.2</ele>
        <time>2021-11-19T11:11:32Z</time>
      </trkpt>
      <trkpt lat="44.44628" lon="5.01327">
        <ele>293.4</ele>
        <time>2021-11-19T11:11:34Z</time>
      </trkpt>
      <trkpt lat="44.44641" lon="5.01335">
        <ele>293.7</ele>
        <time>2021-11-19T11:11:36Z</time>
      </trkpt>
      <trkpt lat="44.44653" lon="5.01342">
        <ele>293.9</ele>
        <time>2021-11-19T11:11:38Z</time>
      </trkpt>
      <trkpt lat="44.44665" lon="5.01348">
        <ele>294.2</ele>
        <time>2021-11-19T11:11:40Z</time>
      </trkpt>
      <trkpt lat="44.44673" lon="5.01353">
        <ele>294.3</ele>
        <time>2021-11-19T11:11:42Z</time>
      </trkpt>
      <trkpt lat="44.44683" lon="5.01358">
        <ele>294.5</ele>
        <time>2021-11-19T11:11:44Z</time>
      </trkpt>
      <trkpt lat="44.4469" lon="5.01363">
        <ele>294.7</ele>
        <time>2021-11-19T11:11:46Z</time>
      </trkpt>
      <trkpt lat="44.44695" lon="5.01369">
        <ele>294.8</ele>
        <time>2021-11-19T11:11:48Z</time>
      </trkpt>
      <trkpt lat="44.44698" lon="5.01376">
        <ele>294.9</ele>
        <time>2021-11-19T11:11:49Z</time>
      </trkpt>
      <trkpt lat="44.44699" lon="5.0138">
        <ele>295</ele>
        <time>2021-11-19T11:11:50Z</time>
      </trkpt>
      <trkpt lat="44.44703" lon="5.01384">
        <ele>295.1</ele>
        <time>2021-11-19T11:11:52Z</time>
      </trkpt>
      <trkpt lat="44.44708" lon="5.01387">
        <ele>295.3</ele>
        <time>2021-11-19T11:11:54Z</time>
      </trkpt>
      <trkpt lat="44.44717" lon="5.01392">
        <ele>295.5</ele>
        <time>2021-11-19T11:11:56Z</time>
      </trkpt>
      <trkpt lat="44.44725" lon="5.01395">
        <ele>295.7</ele>
        <time>2021-11-19T11:11:58Z</time>
      </trkpt>
      <trkpt lat="44.44735" lon="5.014">
        <ele>296</ele>
        <time>2021-11-19T11:11:59Z</time>
      </trkpt>
      <trkpt lat="44.44743" lon="5.01406">
        <ele>296.2</ele>
        <time>2021-11-19T11:12:01Z</time>
      </trkpt>
      <trkpt lat="44.44746" lon="5.01408">
        <ele>296.3</ele>
        <time>2021-11-19T11:12:03Z</time>
      </trkpt>
      <trkpt lat="44.44752" lon="5.01412">
        <ele>296.4</ele>
        <time>2021-11-19T11:12:05Z</time>
      </trkpt>
      <trkpt lat="44.44745" lon="5.01407">
        <ele>296.6</ele>
        <time>2021-11-19T11:12:08Z</time>
      </trkpt>
      <trkpt lat="44.4475" lon="5.01413">
        <ele>296.8</ele>
        <time>2021-11-19T11:12:10Z</time>
      </trkpt>
      <trkpt lat="44.44758" lon="5.01424">
        <ele>297.1</ele>
        <time>2021-11-19T11:12:13Z</time>
      </trkpt>
      <trkpt lat="44.44766" lon="5.01431">
        <ele>297.4</ele>
        <time>2021-11-19T11:12:15Z</time>
      </trkpt>
      <trkpt lat="44.44769" lon="5.01435">
        <ele>297.6</ele>
        <time>2021-11-19T11:12:16Z</time>
      </trkpt>
      <trkpt lat="44.44774" lon="5.01442">
        <ele>297.8</ele>
        <time>2021-11-19T11:12:18Z</time>
      </trkpt>
      <trkpt lat="44.44778" lon="5.01448">
        <ele>298</ele>
        <time>2021-11-19T11:12:20Z</time>
      </trkpt>
      <trkpt lat="44.44783" lon="5.01453">
        <ele>298.3</ele>
        <time>2021-11-19T11:12:22Z</time>
      </trkpt>
      <trkpt lat="44.44786" lon="5.01456">
        <ele>298.4</ele>
        <time>2021-11-19T11:12:23Z</time>
      </trkpt>
      <trkpt lat="44.44787" lon="5.01457">
        <ele>298.4</ele>
        <time>2021-11-19T11:12:24Z</time>
      </trkpt>
      <trkpt lat="44.4479" lon="5.0146">
        <ele>298.6</ele>
        <time>2021-11-19T11:12:25Z</time>
      </trkpt>
      <trkpt lat="44.44793" lon="5.01462">
        <ele>298.7</ele>
        <time>2021-11-19T11:12:26Z</time>
      </trkpt>
      <trkpt lat="44.44797" lon="5.01466">
        <ele>298.9</ele>
        <time>2021-11-19T11:12:27Z</time>
      </trkpt>
      <trkpt lat="44.44798" lon="5.01465">
        <ele>298.9</ele>
        <time>2021-11-19T11:12:28Z</time>
      </trkpt>
      <trkpt lat="44.448" lon="5.01466">
        <ele>299</ele>
        <time>2021-11-19T11:12:30Z</time>
      </trkpt>
      <trkpt lat="44.44802" lon="5.01468">
        <ele>299.1</ele>
        <time>2021-11-19T11:12:32Z</time>
      </trkpt>
      <trkpt lat="44.44802" lon="5.01477">
        <ele>299.2</ele>
        <time>2021-11-19T11:12:33Z</time>
      </trkpt>
      <trkpt lat="44.44802" lon="5.01483">
        <ele>299.4</ele>
        <time>2021-11-19T11:12:34Z</time>
      </trkpt>
      <trkpt lat="44.44792" lon="5.01488">
        <ele>299.6</ele>
        <time>2021-11-19T11:12:37Z</time>
      </trkpt>
      <trkpt lat="44.44787" lon="5.01496">
        <ele>299.9</ele>
        <time>2021-11-19T11:12:38Z</time>
      </trkpt>
      <trkpt lat="44.4479" lon="5.01512">
        <ele>300.2</ele>
        <time>2021-11-19T11:12:40Z</time>
      </trkpt>
      <trkpt lat="44.44798" lon="5.01523">
        <ele>300.5</ele>
        <time>2021-11-19T11:12:42Z</time>
      </trkpt>
      <trkpt lat="44.44806" lon="5.01534">
        <ele>300.8</ele>
        <time>2021-11-19T11:12:44Z</time>
      </trkpt>
      <trkpt lat="44.44812" lon="5.01541">
        <ele>301.1</ele>
        <time>2021-11-19T11:12:46Z</time>
      </trkpt>
      <trkpt lat="44.44823" lon="5.01552">
        <ele>301.4</ele>
        <time>2021-11-19T11:12:48Z</time>
      </trkpt>
      <trkpt lat="44.44825" lon="5.0155">
        <ele>301.5</ele>
        <time>2021-11-19T11:12:50Z</time>
      </trkpt>
      <trkpt lat="44.44828" lon="5.01549">
        <ele>301.6</ele>
        <time>2021-11-19T11:12:52Z</time>
      </trkpt>
      <trkpt lat="44.44832" lon="5.01551">
        <ele>301.7</ele>
        <time>2021-11-19T11:12:54Z</time>
      </trkpt>
      <trkpt lat="44.44838" lon="5.0155">
        <ele>301.8</ele>
        <time>2021-11-19T11:12:56Z</time>
      </trkpt>
      <trkpt lat="44.44841" lon="5.0154">
        <ele>302</ele>
        <time>2021-11-19T11:12:57Z</time>
      </trkpt>
      <trkpt lat="44.44846" lon="5.0154">
        <ele>302.2</ele>
        <time>2021-11-19T11:12:59Z</time>
      </trkpt>
      <trkpt lat="44.44856" lon="5.01553">
        <ele>302.6</ele>
        <time>2021-11-19T11:13:01Z</time>
      </trkpt>
      <trkpt lat="44.44859" lon="5.01576">
        <ele>303.1</ele>
        <time>2021-11-19T11:13:03Z</time>
      </trkpt>
      <trkpt lat="44.4486" lon="5.01594">
        <ele>303.4</ele>
        <time>2021-11-19T11:13:05Z</time>
      </trkpt>
      <trkpt lat="44.44861" lon="5.016">
        <ele>303.6</ele>
        <time>2021-11-19T11:13:06Z</time>
      </trkpt>
      <trkpt lat="44.44863" lon="5.01605">
        <ele>303.7</ele>
        <time>2021-11-19T11:13:07Z</time>
      </trkpt>
      <trkpt lat="44.44867" lon="5.01615">
        <ele>303.9</ele>
        <time>2021-11-19T11:13:09Z</time>
      </trkpt>
      <trkpt lat="44.44873" lon="5.01623">
        <ele>304.2</ele>
        <time>2021-11-19T11:13:11Z</time>
      </trkpt>
      <trkpt lat="44.44878" lon="5.0163">
        <ele>304.4</ele>
        <time>2021-11-19T11:13:12Z</time>
      </trkpt>
      <trkpt lat="44.44886" lon="5.01641">
        <ele>304.7</ele>
        <time>2021-11-19T11:13:14Z</time>
      </trkpt>
      <trkpt lat="44.44891" lon="5.01645">
        <ele>304.8</ele>
        <time>2021-11-19T11:13:16Z</time>
      </trkpt>
      <trkpt lat="44.44895" lon="5.01647">
        <ele>304.9</ele>
        <time>2021-11-19T11:13:19Z</time>
      </trkpt>
      <trkpt lat="44.44899" lon="5.01649">
        <ele>305</ele>
        <time>2021-11-19T11:13:20Z</time>
      </trkpt>
      <trkpt lat="44.44898" lon="5.01648">
        <ele>305</ele>
        <time>2021-11-19T11:13:22Z</time>
      </trkpt>
      <trkpt lat="44.44903" lon="5.01652">
        <ele>305.2</ele>
        <time>2021-11-19T11:13:25Z</time>
      </trkpt>
      <trkpt lat="44.44901" lon="5.01657">
        <ele>305.3</ele>
        <time>2021-11-19T11:13:27Z</time>
      </trkpt>
      <trkpt lat="44.44911" lon="5.01663">
        <ele>305.5</ele>
        <time>2021-11-19T11:13:28Z</time>
      </trkpt>
      <trkpt lat="44.44918" lon="5.01664">
        <ele>305.7</ele>
        <time>2021-11-19T11:13:30Z</time>
      </trkpt>
      <trkpt lat="44.44931" lon="5.0167">
        <ele>306</ele>
        <time>2021-11-19T11:13:32Z</time>
      </trkpt>
      <trkpt lat="44.44945" lon="5.01677">
        <ele>306.3</ele>
        <time>2021-11-19T11:13:34Z</time>
      </trkpt>
      <trkpt lat="44.44957" lon="5.01682">
        <ele>306.5</ele>
        <time>2021-11-19T11:13:36Z</time>
      </trkpt>
      <trkpt lat="44.44971" lon="5.01686">
        <ele>306.8</ele>
        <time>2021-11-19T11:13:38Z</time>
      </trkpt>
      <trkpt lat="44.44978" lon="5.01689">
        <ele>307</ele>
        <time>2021-11-19T11:13:40Z</time>
      </trkpt>
      <trkpt lat="44.44991" lon="5.01694">
        <ele>307.3</ele>
        <time>2021-11-19T11:13:42Z</time>
      </trkpt>
      <trkpt lat="44.44998" lon="5.01697">
        <ele>307.5</ele>
        <time>2021-11-19T11:13:44Z</time>
      </trkpt>
      <trkpt lat="44.45006" lon="5.01701">
        <ele>307.7</ele>
        <time>2021-11-19T11:13:46Z</time>
      </trkpt>
      <trkpt lat="44.4501" lon="5.01703">
        <ele>307.7</ele>
        <time>2021-11-19T11:13:47Z</time>
      </trkpt>
      <trkpt lat="44.45016" lon="5.01706">
        <ele>307.9</ele>
        <time>2021-11-19T11:13:49Z</time>
      </trkpt>
      <trkpt lat="44.45027" lon="5.0171">
        <ele>308.1</ele>
        <time>2021-11-19T11:13:51Z</time>
      </trkpt>
      <trkpt lat="44.45036" lon="5.01713">
        <ele>308.3</ele>
        <time>2021-11-19T11:13:53Z</time>
      </trkpt>
      <trkpt lat="44.4504" lon="5.01715">
        <ele>308.4</ele>
        <time>2021-11-19T11:13:55Z</time>
      </trkpt>
      <trkpt lat="44.45046" lon="5.01719">
        <ele>308.5</ele>
        <time>2021-11-19T11:13:56Z</time>
      </trkpt>
      <trkpt lat="44.4505" lon="5.01723">
        <ele>308.6</ele>
        <time>2021-11-19T11:13:58Z</time>
      </trkpt>
      <trkpt lat="44.45062" lon="5.01729">
        <ele>308.9</ele>
        <time>2021-11-19T11:14:00Z</time>
      </trkpt>
      <trkpt lat="44.45073" lon="5.01732">
        <ele>309.1</ele>
        <time>2021-11-19T11:14:02Z</time>
      </trkpt>
      <trkpt lat="44.45081" lon="5.01732">
        <ele>309.2</ele>
        <time>2021-11-19T11:14:04Z</time>
      </trkpt>
      <trkpt lat="44.45078" lon="5.01731">
        <ele>309.3</ele>
        <time>2021-11-19T11:14:05Z</time>
      </trkpt>
      <trkpt lat="44.45088" lon="5.01728">
        <ele>309.5</ele>
        <time>2021-11-19T11:14:07Z</time>
      </trkpt>
      <trkpt lat="44.45099" lon="5.01732">
        <ele>309.7</ele>
        <time>2021-11-19T11:14:09Z</time>
      </trkpt>
      <trkpt lat="44.45106" lon="5.01735">
        <ele>309.8</ele>
        <time>2021-11-19T11:14:10Z</time>
      </trkpt>
      <trkpt lat="44.4511" lon="5.01736">
        <ele>309.9</ele>
        <time>2021-11-19T11:14:12Z</time>
      </trkpt>
      <trkpt lat="44.45116" lon="5.01741">
        <ele>310</ele>
        <time>2021-11-19T11:14:14Z</time>
      </trkpt>
      <trkpt lat="44.45127" lon="5.01744">
        <ele>310.2</ele>
        <time>2021-11-19T11:14:16Z</time>
      </trkpt>
      <trkpt lat="44.45138" lon="5.01746">
        <ele>310.4</ele>
        <time>2021-11-19T11:14:18Z</time>
      </trkpt>
      <trkpt lat="44.45139" lon="5.01748">
        <ele>310.5</ele>
        <time>2021-11-19T11:14:20Z</time>
      </trkpt>
      <trkpt lat="44.4514" lon="5.01738">
        <ele>310.6</ele>
        <time>2021-11-19T11:14:22Z</time>
      </trkpt>
      <trkpt lat="44.45152" lon="5.01744">
        <ele>310.8</ele>
        <time>2021-11-19T11:14:24Z</time>
      </trkpt>
      <trkpt lat="44.45164" lon="5.01749">
        <ele>311.1</ele>
        <time>2021-11-19T11:14:25Z</time>
      </trkpt>
      <trkpt lat="44.45171" lon="5.01753">
        <ele>311.2</ele>
        <time>2021-11-19T11:14:27Z</time>
      </trkpt>
      <trkpt lat="44.45179" lon="5.01756">
        <ele>311.4</ele>
        <time>2021-11-19T11:14:30Z</time>
      </trkpt>
      <trkpt lat="44.45182" lon="5.01757">
        <ele>311.4</ele>
        <time>2021-11-19T11:14:31Z</time>
      </trkpt>
      <trkpt lat="44.45185" lon="5.01758">
        <ele>311.5</ele>
        <time>2021-11-19T11:14:32Z</time>
      </trkpt>
      <trkpt lat="44.45196" lon="5.01761">
        <ele>311.7</ele>
        <time>2021-11-19T11:14:34Z</time>
      </trkpt>
      <trkpt lat="44.45205" lon="5.01764">
        <ele>311.8</ele>
        <time>2021-11-19T11:14:36Z</time>
      </trkpt>
      <trkpt lat="44.45212" lon="5.01767">
        <ele>312</ele>
        <time>2021-11-19T11:14:38Z</time>
      </trkpt>
      <trkpt lat="44.45217" lon="5.01767">
        <ele>312</ele>
        <time>2021-11-19T11:14:40Z</time>
      </trkpt>
      <trkpt lat="44.45215" lon="5.01766">
        <ele>312.1</ele>
        <time>2021-11-19T11:14:41Z</time>
      </trkpt>
      <trkpt lat="44.45218" lon="5.01767">
        <ele>312.1</ele>
        <time>2021-11-19T11:14:43Z</time>
      </trkpt>
      <trkpt lat="44.45229" lon="5.01769">
        <ele>312.2</ele>
        <time>2021-11-19T11:14:45Z</time>
      </trkpt>
      <trkpt lat="44.45236" lon="5.01769">
        <ele>312.4</ele>
        <time>2021-11-19T11:14:47Z</time>
      </trkpt>
      <trkpt lat="44.45243" lon="5.01772">
        <ele>312.5</ele>
        <time>2021-11-19T11:14:48Z</time>
      </trkpt>
      <trkpt lat="44.45249" lon="5.01776">
        <ele>312.6</ele>
        <time>2021-11-19T11:14:50Z</time>
      </trkpt>
      <trkpt lat="44.45255" lon="5.01779">
        <ele>312.7</ele>
        <time>2021-11-19T11:14:52Z</time>
      </trkpt>
      <trkpt lat="44.45261" lon="5.01776">
        <ele>312.8</ele>
        <time>2021-11-19T11:14:54Z</time>
      </trkpt>
      <trkpt lat="44.45267" lon="5.01783">
        <ele>312.9</ele>
        <time>2021-11-19T11:14:55Z</time>
      </trkpt>
      <trkpt lat="44.45272" lon="5.01789">
        <ele>312.9</ele>
        <time>2021-11-19T11:14:56Z</time>
      </trkpt>
      <trkpt lat="44.45275" lon="5.01792">
        <ele>313</ele>
        <time>2021-11-19T11:14:58Z</time>
      </trkpt>
      <trkpt lat="44.45283" lon="5.01798">
        <ele>313.1</ele>
        <time>2021-11-19T11:14:59Z</time>
      </trkpt>
      <trkpt lat="44.45296" lon="5.01798">
        <ele>313.2</ele>
        <time>2021-11-19T11:15:02Z</time>
      </trkpt>
      <trkpt lat="44.45294" lon="5.01793">
        <ele>313.2</ele>
        <time>2021-11-19T11:15:04Z</time>
      </trkpt>
      <trkpt lat="44.45304" lon="5.01799">
        <ele>313.3</ele>
        <time>2021-11-19T11:15:06Z</time>
      </trkpt>
      <trkpt lat="44.45314" lon="5.01806">
        <ele>313.4</ele>
        <time>2021-11-19T11:15:08Z</time>
      </trkpt>
      <trkpt lat="44.45324" lon="5.01811">
        <ele>313.5</ele>
        <time>2021-11-19T11:15:10Z</time>
      </trkpt>
      <trkpt lat="44.45342" lon="5.01817">
        <ele>313.5</ele>
        <time>2021-11-19T11:15:13Z</time>
      </trkpt>
      <trkpt lat="44.45355" lon="5.01821">
        <ele>313.5</ele>
        <time>2021-11-19T11:15:15Z</time>
      </trkpt>
      <trkpt lat="44.45364" lon="5.01825">
        <ele>313.6</ele>
        <time>2021-11-19T11:15:17Z</time>
      </trkpt>
      <trkpt lat="44.45359" lon="5.01829">
        <ele>313.6</ele>
        <time>2021-11-19T11:15:19Z</time>
      </trkpt>
      <trkpt lat="44.45379" lon="5.01831">
        <ele>313.7</ele>
        <time>2021-11-19T11:15:22Z</time>
      </trkpt>
      <trkpt lat="44.45378" lon="5.01836">
        <ele>313.7</ele>
        <time>2021-11-19T11:15:23Z</time>
      </trkpt>
      <trkpt lat="44.45395" lon="5.01839">
        <ele>313.7</ele>
        <time>2021-11-19T11:15:26Z</time>
      </trkpt>
      <trkpt lat="44.45411" lon="5.01842">
        <ele>313.6</ele>
        <time>2021-11-19T11:15:29Z</time>
      </trkpt>
      <trkpt lat="44.45419" lon="5.01837">
        <ele>313.6</ele>
        <time>2021-11-19T11:15:30Z</time>
      </trkpt>
      <trkpt lat="44.4543" lon="5.01838">
        <ele>313.6</ele>
        <time>2021-11-19T11:15:32Z</time>
      </trkpt>
      <trkpt lat="44.45447" lon="5.01849">
        <ele>313.5</ele>
        <time>2021-11-19T11:15:35Z</time>
      </trkpt>
      <trkpt lat="44.45452" lon="5.01844">
        <ele>313.5</ele>
        <time>2021-11-19T11:15:36Z</time>
      </trkpt>
      <trkpt lat="44.45461" lon="5.01853">
        <ele>313.4</ele>
        <time>2021-11-19T11:15:38Z</time>
      </trkpt>
      <trkpt lat="44.45466" lon="5.01848">
        <ele>313.3</ele>
        <time>2021-11-19T11:15:40Z</time>
      </trkpt>
      <trkpt lat="44.4546" lon="5.01855">
        <ele>313.3</ele>
        <time>2021-11-19T11:15:42Z</time>
      </trkpt>
      <trkpt lat="44.4547" lon="5.01867">
        <ele>313.1</ele>
        <time>2021-11-19T11:15:43Z</time>
      </trkpt>
      <trkpt lat="44.45489" lon="5.01869">
        <ele>312.9</ele>
        <time>2021-11-19T11:15:46Z</time>
      </trkpt>
      <trkpt lat="44.45496" lon="5.01871">
        <ele>312.8</ele>
        <time>2021-11-19T11:15:47Z</time>
      </trkpt>
      <trkpt lat="44.45503" lon="5.01874">
        <ele>312.7</ele>
        <time>2021-11-19T11:15:48Z</time>
      </trkpt>
      <trkpt lat="44.45509" lon="5.01875">
        <ele>312.6</ele>
        <time>2021-11-19T11:15:49Z</time>
      </trkpt>
      <trkpt lat="44.45515" lon="5.01877">
        <ele>312.6</ele>
        <time>2021-11-19T11:15:50Z</time>
      </trkpt>
      <trkpt lat="44.4552" lon="5.01878">
        <ele>312.5</ele>
        <time>2021-11-19T11:15:51Z</time>
      </trkpt>
      <trkpt lat="44.45526" lon="5.0188">
        <ele>312.4</ele>
        <time>2021-11-19T11:15:52Z</time>
      </trkpt>
      <trkpt lat="44.45532" lon="5.01881">
        <ele>312.3</ele>
        <time>2021-11-19T11:15:53Z</time>
      </trkpt>
      <trkpt lat="44.45538" lon="5.01882">
        <ele>312.1</ele>
        <time>2021-11-19T11:15:54Z</time>
      </trkpt>
      <trkpt lat="44.45544" lon="5.01884">
        <ele>312</ele>
        <time>2021-11-19T11:15:55Z</time>
      </trkpt>
      <trkpt lat="44.4555" lon="5.01886">
        <ele>311.9</ele>
        <time>2021-11-19T11:15:56Z</time>
      </trkpt>
      <trkpt lat="44.45556" lon="5.01889">
        <ele>311.7</ele>
        <time>2021-11-19T11:15:57Z</time>
      </trkpt>
      <trkpt lat="44.45562" lon="5.01892">
        <ele>311.6</ele>
        <time>2021-11-19T11:15:58Z</time>
      </trkpt>
      <trkpt lat="44.45568" lon="5.01895">
        <ele>311.5</ele>
        <time>2021-11-19T11:15:59Z</time>
      </trkpt>
      <trkpt lat="44.45575" lon="5.01898">
        <ele>311.4</ele>
        <time>2021-11-19T11:16:00Z</time>
      </trkpt>
      <trkpt lat="44.45582" lon="5.01901">
        <ele>311.4</ele>
        <time>2021-11-19T11:16:01Z</time>
      </trkpt>
      <trkpt lat="44.45589" lon="5.01903">
        <ele>311.3</ele>
        <time>2021-11-19T11:16:02Z</time>
      </trkpt>
      <trkpt lat="44.45595" lon="5.01905">
        <ele>311.3</ele>
        <time>2021-11-19T11:16:03Z</time>
      </trkpt>
      <trkpt lat="44.456" lon="5.01908">
        <ele>311.3</ele>
        <time>2021-11-19T11:16:04Z</time>
      </trkpt>
      <trkpt lat="44.45606" lon="5.01912">
        <ele>311.3</ele>
        <time>2021-11-19T11:16:05Z</time>
      </trkpt>
      <trkpt lat="44.45612" lon="5.01915">
        <ele>311.4</ele>
        <time>2021-11-19T11:16:06Z</time>
      </trkpt>
      <trkpt lat="44.45617" lon="5.01918">
        <ele>311.4</ele>
        <time>2021-11-19T11:16:07Z</time>
      </trkpt>
      <trkpt lat="44.45623" lon="5.0192">
        <ele>311.5</ele>
        <time>2021-11-19T11:16:08Z</time>
      </trkpt>
      <trkpt lat="44.45628" lon="5.01922">
        <ele>311.5</ele>
        <time>2021-11-19T11:16:09Z</time>
      </trkpt>
      <trkpt lat="44.45634" lon="5.01925">
        <ele>311.6</ele>
        <time>2021-11-19T11:16:10Z</time>
      </trkpt>
      <trkpt lat="44.45639" lon="5.01927">
        <ele>311.7</ele>
        <time>2021-11-19T11:16:11Z</time>
      </trkpt>
      <trkpt lat="44.45644" lon="5.0193">
        <ele>311.8</ele>
        <time>2021-11-19T11:16:12Z</time>
      </trkpt>
      <trkpt lat="44.4565" lon="5.01933">
        <ele>311.8</ele>
        <time>2021-11-19T11:16:13Z</time>
      </trkpt>
      <trkpt lat="44.45655" lon="5.01936">
        <ele>311.9</ele>
        <time>2021-11-19T11:16:14Z</time>
      </trkpt>
      <trkpt lat="44.4566" lon="5.01938">
        <ele>312</ele>
        <time>2021-11-19T11:16:15Z</time>
      </trkpt>
      <trkpt lat="44.45666" lon="5.0194">
        <ele>312.1</ele>
        <time>2021-11-19T11:16:16Z</time>
      </trkpt>
      <trkpt lat="44.45671" lon="5.01942">
        <ele>312.1</ele>
        <time>2021-11-19T11:16:17Z</time>
      </trkpt>
      <trkpt lat="44.45675" lon="5.01945">
        <ele>312.2</ele>
        <time>2021-11-19T11:16:18Z</time>
      </trkpt>
      <trkpt lat="44.4568" lon="5.01947">
        <ele>312.2</ele>
        <time>2021-11-19T11:16:19Z</time>
      </trkpt>
      <trkpt lat="44.45685" lon="5.0195">
        <ele>312.3</ele>
        <time>2021-11-19T11:16:20Z</time>
      </trkpt>
      <trkpt lat="44.45689" lon="5.01952">
        <ele>312.4</ele>
        <time>2021-11-19T11:16:21Z</time>
      </trkpt>
      <trkpt lat="44.45694" lon="5.01955">
        <ele>312.4</ele>
        <time>2021-11-19T11:16:22Z</time>
      </trkpt>
      <trkpt lat="44.45698" lon="5.01958">
        <ele>312.5</ele>
        <time>2021-11-19T11:16:23Z</time>
      </trkpt>
      <trkpt lat="44.45703" lon="5.0196">
        <ele>312.5</ele>
        <time>2021-11-19T11:16:24Z</time>
      </trkpt>
      <trkpt lat="44.45708" lon="5.01963">
        <ele>312.6</ele>
        <time>2021-11-19T11:16:25Z</time>
      </trkpt>
      <trkpt lat="44.45712" lon="5.01965">
        <ele>312.7</ele>
        <time>2021-11-19T11:16:26Z</time>
      </trkpt>
      <trkpt lat="44.45719" lon="5.01968">
        <ele>312.8</ele>
        <time>2021-11-19T11:16:27Z</time>
      </trkpt>
      <trkpt lat="44.45731" lon="5.01965">
        <ele>313</ele>
        <time>2021-11-19T11:16:29Z</time>
      </trkpt>
      <trkpt lat="44.45746" lon="5.01972">
        <ele>313.2</ele>
        <time>2021-11-19T11:16:31Z</time>
      </trkpt>
      <trkpt lat="44.45752" lon="5.01976">
        <ele>313.3</ele>
        <time>2021-11-19T11:16:32Z</time>
      </trkpt>
      <trkpt lat="44.45764" lon="5.01984">
        <ele>313.5</ele>
        <time>2021-11-19T11:16:35Z</time>
      </trkpt>
      <trkpt lat="44.45775" lon="5.0199">
        <ele>313.7</ele>
        <time>2021-11-19T11:16:37Z</time>
      </trkpt>
      <trkpt lat="44.45784" lon="5.01995">
        <ele>313.8</ele>
        <time>2021-11-19T11:16:38Z</time>
      </trkpt>
      <trkpt lat="44.4579" lon="5.01998">
        <ele>313.9</ele>
        <time>2021-11-19T11:16:40Z</time>
      </trkpt>
      <trkpt lat="44.45801" lon="5.02003">
        <ele>314.1</ele>
        <time>2021-11-19T11:16:42Z</time>
      </trkpt>
      <trkpt lat="44.45808" lon="5.02005">
        <ele>314.3</ele>
        <time>2021-11-19T11:16:43Z</time>
      </trkpt>
      <trkpt lat="44.45813" lon="5.02007">
        <ele>314.4</ele>
        <time>2021-11-19T11:16:45Z</time>
      </trkpt>
      <trkpt lat="44.45816" lon="5.0201">
        <ele>314.5</ele>
        <time>2021-11-19T11:16:47Z</time>
      </trkpt>
      <trkpt lat="44.45814" lon="5.02016">
        <ele>314.6</ele>
        <time>2021-11-19T11:16:49Z</time>
      </trkpt>
      <trkpt lat="44.4581" lon="5.02016">
        <ele>314.6</ele>
        <time>2021-11-19T11:16:51Z</time>
      </trkpt>
      <trkpt lat="44.45828" lon="5.02019">
        <ele>315</ele>
        <time>2021-11-19T11:16:54Z</time>
      </trkpt>
      <trkpt lat="44.45833" lon="5.0202">
        <ele>315.1</ele>
        <time>2021-11-19T11:16:55Z</time>
      </trkpt>
      <trkpt lat="44.45839" lon="5.02022">
        <ele>315.2</ele>
        <time>2021-11-19T11:16:56Z</time>
      </trkpt>
      <trkpt lat="44.45846" lon="5.02025">
        <ele>315.3</ele>
        <time>2021-11-19T11:16:57Z</time>
      </trkpt>
      <trkpt lat="44.4586" lon="5.02031">
        <ele>315.5</ele>
        <time>2021-11-19T11:16:59Z</time>
      </trkpt>
      <trkpt lat="44.45874" lon="5.02033">
        <ele>315.7</ele>
        <time>2021-11-19T11:17:01Z</time>
      </trkpt>
      <trkpt lat="44.45886" lon="5.02037">
        <ele>315.7</ele>
        <time>2021-11-19T11:17:03Z</time>
      </trkpt>
      <trkpt lat="44.45894" lon="5.02041">
        <ele>315.8</ele>
        <time>2021-11-19T11:17:05Z</time>
      </trkpt>
      <trkpt lat="44.45904" lon="5.02043">
        <ele>315.9</ele>
        <time>2021-11-19T11:17:07Z</time>
      </trkpt>
      <trkpt lat="44.4591" lon="5.02047">
        <ele>316</ele>
        <time>2021-11-19T11:17:09Z</time>
      </trkpt>
      <trkpt lat="44.45916" lon="5.0205">
        <ele>316.1</ele>
        <time>2021-11-19T11:17:11Z</time>
      </trkpt>
      <trkpt lat="44.45919" lon="5.02052">
        <ele>316.1</ele>
        <time>2021-11-19T11:17:12Z</time>
      </trkpt>
      <trkpt lat="44.45907" lon="5.02051">
        <ele>316.3</ele>
        <time>2021-11-19T11:17:14Z</time>
      </trkpt>
      <trkpt lat="44.45907" lon="5.02053">
        <ele>316.3</ele>
        <time>2021-11-19T11:17:16Z</time>
      </trkpt>
      <trkpt lat="44.45915" lon="5.02057">
        <ele>316.4</ele>
        <time>2021-11-19T11:17:18Z</time>
      </trkpt>
      <trkpt lat="44.45921" lon="5.02058">
        <ele>316.4</ele>
        <time>2021-11-19T11:17:21Z</time>
      </trkpt>
      <trkpt lat="44.45928" lon="5.0206">
        <ele>316.5</ele>
        <time>2021-11-19T11:17:22Z</time>
      </trkpt>
      <trkpt lat="44.45935" lon="5.02062">
        <ele>316.6</ele>
        <time>2021-11-19T11:17:24Z</time>
      </trkpt>
      <trkpt lat="44.45942" lon="5.02067">
        <ele>316.7</ele>
        <time>2021-11-19T11:17:26Z</time>
      </trkpt>
      <trkpt lat="44.45951" lon="5.02074">
        <ele>316.8</ele>
        <time>2021-11-19T11:17:29Z</time>
      </trkpt>
      <trkpt lat="44.45964" lon="5.02083">
        <ele>316.9</ele>
        <time>2021-11-19T11:17:31Z</time>
      </trkpt>
      <trkpt lat="44.45978" lon="5.02089">
        <ele>317.1</ele>
        <time>2021-11-19T11:17:33Z</time>
      </trkpt>
      <trkpt lat="44.45988" lon="5.02094">
        <ele>317.3</ele>
        <time>2021-11-19T11:17:35Z</time>
      </trkpt>
      <trkpt lat="44.45999" lon="5.02098">
        <ele>317.5</ele>
        <time>2021-11-19T11:17:37Z</time>
      </trkpt>
      <trkpt lat="44.46005" lon="5.021">
        <ele>317.6</ele>
        <time>2021-11-19T11:17:39Z</time>
      </trkpt>
      <trkpt lat="44.46012" lon="5.02103">
        <ele>317.8</ele>
        <time>2021-11-19T11:17:41Z</time>
      </trkpt>
      <trkpt lat="44.4602" lon="5.02107">
        <ele>317.9</ele>
        <time>2021-11-19T11:17:43Z</time>
      </trkpt>
      <trkpt lat="44.46028" lon="5.0211">
        <ele>318.1</ele>
        <time>2021-11-19T11:17:45Z</time>
      </trkpt>
      <trkpt lat="44.46031" lon="5.02113">
        <ele>318.2</ele>
        <time>2021-11-19T11:17:46Z</time>
      </trkpt>
      <trkpt lat="44.46036" lon="5.02114">
        <ele>318.3</ele>
        <time>2021-11-19T11:17:47Z</time>
      </trkpt>
      <trkpt lat="44.4604" lon="5.02115">
        <ele>318.4</ele>
        <time>2021-11-19T11:17:48Z</time>
      </trkpt>
      <trkpt lat="44.46044" lon="5.02114">
        <ele>318.4</ele>
        <time>2021-11-19T11:17:50Z</time>
      </trkpt>
      <trkpt lat="44.46041" lon="5.0211">
        <ele>318.5</ele>
        <time>2021-11-19T11:17:53Z</time>
      </trkpt>
      <trkpt lat="44.46043" lon="5.0211">
        <ele>318.6</ele>
        <time>2021-11-19T11:17:54Z</time>
      </trkpt>
      <trkpt lat="44.46044" lon="5.0211">
        <ele>318.6</ele>
        <time>2021-11-19T11:17:55Z</time>
      </trkpt>
      <trkpt lat="44.4605" lon="5.02112">
        <ele>318.7</ele>
        <time>2021-11-19T11:17:56Z</time>
      </trkpt>
      <trkpt lat="44.46067" lon="5.02118">
        <ele>319.1</ele>
        <time>2021-11-19T11:17:58Z</time>
      </trkpt>
      <trkpt lat="44.46075" lon="5.02121">
        <ele>319.2</ele>
        <time>2021-11-19T11:17:59Z</time>
      </trkpt>
      <trkpt lat="44.46086" lon="5.02126">
        <ele>319.5</ele>
        <time>2021-11-19T11:18:01Z</time>
      </trkpt>
      <trkpt lat="44.46098" lon="5.0213">
        <ele>319.8</ele>
        <time>2021-11-19T11:18:03Z</time>
      </trkpt>
      <trkpt lat="44.46109" lon="5.02134">
        <ele>320.1</ele>
        <time>2021-11-19T11:18:05Z</time>
      </trkpt>
      <trkpt lat="44.46115" lon="5.02137">
        <ele>320.3</ele>
        <time>2021-11-19T11:18:07Z</time>
      </trkpt>
      <trkpt lat="44.46123" lon="5.0214">
        <ele>320.5</ele>
        <time>2021-11-19T11:18:09Z</time>
      </trkpt>
      <trkpt lat="44.46131" lon="5.02143">
        <ele>320.7</ele>
        <time>2021-11-19T11:18:11Z</time>
      </trkpt>
      <trkpt lat="44.46134" lon="5.02144">
        <ele>320.8</ele>
        <time>2021-11-19T11:18:12Z</time>
      </trkpt>
      <trkpt lat="44.46139" lon="5.02148">
        <ele>321.1</ele>
        <time>2021-11-19T11:18:15Z</time>
      </trkpt>
      <trkpt lat="44.46143" lon="5.0215">
        <ele>321.2</ele>
        <time>2021-11-19T11:18:16Z</time>
      </trkpt>
      <trkpt lat="44.46144" lon="5.02151">
        <ele>321.2</ele>
        <time>2021-11-19T11:18:17Z</time>
      </trkpt>
      <trkpt lat="44.46147" lon="5.02153">
        <ele>321.4</ele>
        <time>2021-11-19T11:18:18Z</time>
      </trkpt>
      <trkpt lat="44.46143" lon="5.02153">
        <ele>321.5</ele>
        <time>2021-11-19T11:18:19Z</time>
      </trkpt>
      <trkpt lat="44.4614" lon="5.02153">
        <ele>321.6</ele>
        <time>2021-11-19T11:18:20Z</time>
      </trkpt>
      <trkpt lat="44.46144" lon="5.02156">
        <ele>321.7</ele>
        <time>2021-11-19T11:18:23Z</time>
      </trkpt>
      <trkpt lat="44.46149" lon="5.02158">
        <ele>321.9</ele>
        <time>2021-11-19T11:18:24Z</time>
      </trkpt>
      <trkpt lat="44.46162" lon="5.02165">
        <ele>322.3</ele>
        <time>2021-11-19T11:18:27Z</time>
      </trkpt>
      <trkpt lat="44.46167" lon="5.02166">
        <ele>322.5</ele>
        <time>2021-11-19T11:18:28Z</time>
      </trkpt>
      <trkpt lat="44.46173" lon="5.0217">
        <ele>322.7</ele>
        <time>2021-11-19T11:18:29Z</time>
      </trkpt>
      <trkpt lat="44.46182" lon="5.02174">
        <ele>323</ele>
        <time>2021-11-19T11:18:31Z</time>
      </trkpt>
      <trkpt lat="44.46189" lon="5.02178">
        <ele>323.3</ele>
        <time>2021-11-19T11:18:33Z</time>
      </trkpt>
      <trkpt lat="44.46196" lon="5.02182">
        <ele>323.7</ele>
        <time>2021-11-19T11:18:34Z</time>
      </trkpt>
      <trkpt lat="44.46202" lon="5.02184">
        <ele>323.9</ele>
        <time>2021-11-19T11:18:36Z</time>
      </trkpt>
      <trkpt lat="44.46205" lon="5.02186">
        <ele>324.1</ele>
        <time>2021-11-19T11:18:39Z</time>
      </trkpt>
      <trkpt lat="44.4621" lon="5.02187">
        <ele>324.3</ele>
        <time>2021-11-19T11:18:41Z</time>
      </trkpt>
      <trkpt lat="44.46217" lon="5.02189">
        <ele>324.6</ele>
        <time>2021-11-19T11:18:43Z</time>
      </trkpt>
      <trkpt lat="44.46221" lon="5.02191">
        <ele>324.8</ele>
        <time>2021-11-19T11:18:44Z</time>
      </trkpt>
      <trkpt lat="44.46226" lon="5.02195">
        <ele>325.1</ele>
        <time>2021-11-19T11:18:45Z</time>
      </trkpt>
      <trkpt lat="44.4623" lon="5.02197">
        <ele>325.3</ele>
        <time>2021-11-19T11:18:47Z</time>
      </trkpt>
      <trkpt lat="44.46239" lon="5.02205">
        <ele>325.9</ele>
        <time>2021-11-19T11:18:49Z</time>
      </trkpt>
      <trkpt lat="44.46244" lon="5.02206">
        <ele>326.2</ele>
        <time>2021-11-19T11:18:50Z</time>
      </trkpt>
      <trkpt lat="44.46247" lon="5.02206">
        <ele>326.4</ele>
        <time>2021-11-19T11:18:52Z</time>
      </trkpt>
      <trkpt lat="44.46249" lon="5.02206">
        <ele>326.5</ele>
        <time>2021-11-19T11:18:54Z</time>
      </trkpt>
      <trkpt lat="44.46251" lon="5.02209">
        <ele>326.6</ele>
        <time>2021-11-19T11:18:56Z</time>
      </trkpt>
      <trkpt lat="44.46259" lon="5.02213">
        <ele>327.1</ele>
        <time>2021-11-19T11:18:58Z</time>
      </trkpt>
      <trkpt lat="44.46264" lon="5.02216">
        <ele>327.5</ele>
        <time>2021-11-19T11:18:59Z</time>
      </trkpt>
      <trkpt lat="44.46269" lon="5.02218">
        <ele>327.7</ele>
        <time>2021-11-19T11:19:02Z</time>
      </trkpt>
      <trkpt lat="44.46271" lon="5.02218">
        <ele>327.8</ele>
        <time>2021-11-19T11:19:03Z</time>
      </trkpt>
      <trkpt lat="44.46272" lon="5.02219">
        <ele>327.9</ele>
        <time>2021-11-19T11:19:04Z</time>
      </trkpt>
      <trkpt lat="44.46275" lon="5.0222">
        <ele>328</ele>
        <time>2021-11-19T11:19:05Z</time>
      </trkpt>
      <trkpt lat="44.46276" lon="5.0222">
        <ele>328.1</ele>
        <time>2021-11-19T11:19:06Z</time>
      </trkpt>
      <trkpt lat="44.46278" lon="5.02221">
        <ele>328.2</ele>
        <time>2021-11-19T11:19:07Z</time>
      </trkpt>
      <trkpt lat="44.46279" lon="5.0222">
        <ele>328.2</ele>
        <time>2021-11-19T11:19:08Z</time>
      </trkpt>
      <trkpt lat="44.4628" lon="5.0222">
        <ele>328.3</ele>
        <time>2021-11-19T11:19:09Z</time>
      </trkpt>
      <trkpt lat="44.46286" lon="5.02222">
        <ele>328.5</ele>
        <time>2021-11-19T11:19:11Z</time>
      </trkpt>
      <trkpt lat="44.46294" lon="5.02224">
        <ele>328.8</ele>
        <time>2021-11-19T11:19:13Z</time>
      </trkpt>
      <trkpt lat="44.46297" lon="5.02223">
        <ele>329</ele>
        <time>2021-11-19T11:19:15Z</time>
      </trkpt>
      <trkpt lat="44.46305" lon="5.02226">
        <ele>329.3</ele>
        <time>2021-11-19T11:19:17Z</time>
      </trkpt>
      <trkpt lat="44.46312" lon="5.02227">
        <ele>329.6</ele>
        <time>2021-11-19T11:19:19Z</time>
      </trkpt>
      <trkpt lat="44.46317" lon="5.02226">
        <ele>329.8</ele>
        <time>2021-11-19T11:19:21Z</time>
      </trkpt>
      <trkpt lat="44.46321" lon="5.02226">
        <ele>329.9</ele>
        <time>2021-11-19T11:19:22Z</time>
      </trkpt>
      <trkpt lat="44.46322" lon="5.02227">
        <ele>330</ele>
        <time>2021-11-19T11:19:23Z</time>
      </trkpt>
      <trkpt lat="44.46326" lon="5.02229">
        <ele>330.1</ele>
        <time>2021-11-19T11:19:25Z</time>
      </trkpt>
      <trkpt lat="44.46329" lon="5.02231">
        <ele>330.2</ele>
        <time>2021-11-19T11:19:27Z</time>
      </trkpt>
      <trkpt lat="44.46335" lon="5.02232">
        <ele>330.4</ele>
        <time>2021-11-19T11:19:29Z</time>
      </trkpt>
      <trkpt lat="44.46339" lon="5.02233">
        <ele>330.6</ele>
        <time>2021-11-19T11:19:30Z</time>
      </trkpt>
      <trkpt lat="44.46345" lon="5.02235">
        <ele>330.8</ele>
        <time>2021-11-19T11:19:32Z</time>
      </trkpt>
      <trkpt lat="44.46351" lon="5.02237">
        <ele>331</ele>
        <time>2021-11-19T11:19:34Z</time>
      </trkpt>
      <trkpt lat="44.46355" lon="5.02238">
        <ele>331.1</ele>
        <time>2021-11-19T11:19:36Z</time>
      </trkpt>
      <trkpt lat="44.46358" lon="5.02239">
        <ele>331.2</ele>
        <time>2021-11-19T11:19:37Z</time>
      </trkpt>
      <trkpt lat="44.46365" lon="5.0224">
        <ele>331.5</ele>
        <time>2021-11-19T11:19:39Z</time>
      </trkpt>
      <trkpt lat="44.46375" lon="5.02243">
        <ele>331.9</ele>
        <time>2021-11-19T11:19:41Z</time>
      </trkpt>
      <trkpt lat="44.46381" lon="5.02245">
        <ele>332.1</ele>
        <time>2021-11-19T11:19:43Z</time>
      </trkpt>
      <trkpt lat="44.46385" lon="5.02247">
        <ele>332.3</ele>
        <time>2021-11-19T11:19:46Z</time>
      </trkpt>
      <trkpt lat="44.46393" lon="5.02251">
        <ele>332.6</ele>
        <time>2021-11-19T11:19:48Z</time>
      </trkpt>
      <trkpt lat="44.46404" lon="5.02253">
        <ele>333</ele>
        <time>2021-11-19T11:19:51Z</time>
      </trkpt>
      <trkpt lat="44.46409" lon="5.02253">
        <ele>333.2</ele>
        <time>2021-11-19T11:19:53Z</time>
      </trkpt>
      <trkpt lat="44.46415" lon="5.02255">
        <ele>333.4</ele>
        <time>2021-11-19T11:19:55Z</time>
      </trkpt>
      <trkpt lat="44.46419" lon="5.02255">
        <ele>333.5</ele>
        <time>2021-11-19T11:19:57Z</time>
      </trkpt>
      <trkpt lat="44.46418" lon="5.02255">
        <ele>333.6</ele>
        <time>2021-11-19T11:19:59Z</time>
      </trkpt>
      <trkpt lat="44.46416" lon="5.02256">
        <ele>333.6</ele>
        <time>2021-11-19T11:20:01Z</time>
      </trkpt>
      <trkpt lat="44.46417" lon="5.02257">
        <ele>333.6</ele>
        <time>2021-11-19T11:20:02Z</time>
      </trkpt>
      <trkpt lat="44.46424" lon="5.0226">
        <ele>333.8</ele>
        <time>2021-11-19T11:20:04Z</time>
      </trkpt>
      <trkpt lat="44.46429" lon="5.02262">
        <ele>334</ele>
        <time>2021-11-19T11:20:06Z</time>
      </trkpt>
      <trkpt lat="44.46435" lon="5.02264">
        <ele>334.1</ele>
        <time>2021-11-19T11:20:07Z</time>
      </trkpt>
      <trkpt lat="44.46439" lon="5.02266">
        <ele>334.2</ele>
        <time>2021-11-19T11:20:09Z</time>
      </trkpt>
      <trkpt lat="44.46443" lon="5.02267">
        <ele>334.3</ele>
        <time>2021-11-19T11:20:10Z</time>
      </trkpt>
      <trkpt lat="44.46452" lon="5.02271">
        <ele>334.6</ele>
        <time>2021-11-19T11:20:12Z</time>
      </trkpt>
      <trkpt lat="44.4646" lon="5.02275">
        <ele>334.7</ele>
        <time>2021-11-19T11:20:13Z</time>
      </trkpt>
      <trkpt lat="44.46463" lon="5.02277">
        <ele>334.8</ele>
        <time>2021-11-19T11:20:14Z</time>
      </trkpt>
      <trkpt lat="44.46469" lon="5.02279">
        <ele>335</ele>
        <time>2021-11-19T11:20:16Z</time>
      </trkpt>
      <trkpt lat="44.46482" lon="5.02285">
        <ele>335.2</ele>
        <time>2021-11-19T11:20:18Z</time>
      </trkpt>
      <trkpt lat="44.46495" lon="5.0229">
        <ele>335.4</ele>
        <time>2021-11-19T11:20:20Z</time>
      </trkpt>
      <trkpt lat="44.465" lon="5.02292">
        <ele>335.6</ele>
        <time>2021-11-19T11:20:21Z</time>
      </trkpt>
      <trkpt lat="44.46508" lon="5.02295">
        <ele>335.7</ele>
        <time>2021-11-19T11:20:22Z</time>
      </trkpt>
      <trkpt lat="44.46517" lon="5.02298">
        <ele>335.9</ele>
        <time>2021-11-19T11:20:25Z</time>
      </trkpt>
      <trkpt lat="44.46526" lon="5.02304">
        <ele>336.1</ele>
        <time>2021-11-19T11:20:27Z</time>
      </trkpt>
      <trkpt lat="44.46529" lon="5.02306">
        <ele>336.2</ele>
        <time>2021-11-19T11:20:28Z</time>
      </trkpt>
      <trkpt lat="44.46536" lon="5.0231">
        <ele>336.3</ele>
        <time>2021-11-19T11:20:30Z</time>
      </trkpt>
      <trkpt lat="44.46545" lon="5.02314">
        <ele>336.5</ele>
        <time>2021-11-19T11:20:32Z</time>
      </trkpt>
      <trkpt lat="44.46558" lon="5.02317">
        <ele>336.7</ele>
        <time>2021-11-19T11:20:35Z</time>
      </trkpt>
      <trkpt lat="44.46569" lon="5.0232">
        <ele>336.9</ele>
        <time>2021-11-19T11:20:37Z</time>
      </trkpt>
      <trkpt lat="44.46577" lon="5.02322">
        <ele>337.1</ele>
        <time>2021-11-19T11:20:38Z</time>
      </trkpt>
      <trkpt lat="44.46585" lon="5.02324">
        <ele>337.3</ele>
        <time>2021-11-19T11:20:41Z</time>
      </trkpt>
      <trkpt lat="44.46594" lon="5.02328">
        <ele>337.5</ele>
        <time>2021-11-19T11:20:43Z</time>
      </trkpt>
      <trkpt lat="44.46602" lon="5.02332">
        <ele>337.6</ele>
        <time>2021-11-19T11:20:45Z</time>
      </trkpt>
      <trkpt lat="44.46611" lon="5.02336">
        <ele>337.8</ele>
        <time>2021-11-19T11:20:47Z</time>
      </trkpt>
      <trkpt lat="44.46618" lon="5.02339">
        <ele>337.8</ele>
        <time>2021-11-19T11:20:48Z</time>
      </trkpt>
      <trkpt lat="44.46622" lon="5.02341">
        <ele>337.9</ele>
        <time>2021-11-19T11:20:50Z</time>
      </trkpt>
      <trkpt lat="44.46631" lon="5.02345">
        <ele>337.9</ele>
        <time>2021-11-19T11:20:52Z</time>
      </trkpt>
      <trkpt lat="44.46641" lon="5.02349">
        <ele>337.8</ele>
        <time>2021-11-19T11:20:55Z</time>
      </trkpt>
      <trkpt lat="44.46651" lon="5.02353">
        <ele>337.8</ele>
        <time>2021-11-19T11:20:57Z</time>
      </trkpt>
      <trkpt lat="44.46662" lon="5.02357">
        <ele>337.7</ele>
        <time>2021-11-19T11:21:00Z</time>
      </trkpt>
      <trkpt lat="44.46673" lon="5.02363">
        <ele>337.5</ele>
        <time>2021-11-19T11:21:02Z</time>
      </trkpt>
      <trkpt lat="44.46682" lon="5.02368">
        <ele>337.4</ele>
        <time>2021-11-19T11:21:03Z</time>
      </trkpt>
      <trkpt lat="44.46682" lon="5.02371">
        <ele>337.4</ele>
        <time>2021-11-19T11:21:06Z</time>
      </trkpt>
      <trkpt lat="44.46689" lon="5.02364">
        <ele>337.3</ele>
        <time>2021-11-19T11:21:08Z</time>
      </trkpt>
      <trkpt lat="44.46694" lon="5.02377">
        <ele>337.2</ele>
        <time>2021-11-19T11:21:11Z</time>
      </trkpt>
      <trkpt lat="44.46705" lon="5.02382">
        <ele>337</ele>
        <time>2021-11-19T11:21:12Z</time>
      </trkpt>
      <trkpt lat="44.46718" lon="5.02386">
        <ele>336.9</ele>
        <time>2021-11-19T11:21:14Z</time>
      </trkpt>
      <trkpt lat="44.46725" lon="5.02392">
        <ele>336.7</ele>
        <time>2021-11-19T11:21:17Z</time>
      </trkpt>
      <trkpt lat="44.4673" lon="5.02395">
        <ele>336.7</ele>
        <time>2021-11-19T11:21:18Z</time>
      </trkpt>
      <trkpt lat="44.46734" lon="5.02397">
        <ele>336.6</ele>
        <time>2021-11-19T11:21:19Z</time>
      </trkpt>
      <trkpt lat="44.46746" lon="5.02401">
        <ele>336.4</ele>
        <time>2021-11-19T11:21:20Z</time>
      </trkpt>
      <trkpt lat="44.46752" lon="5.02404">
        <ele>336.3</ele>
        <time>2021-11-19T11:21:23Z</time>
      </trkpt>
      <trkpt lat="44.46756" lon="5.02405">
        <ele>336.3</ele>
        <time>2021-11-19T11:21:24Z</time>
      </trkpt>
      <trkpt lat="44.4676" lon="5.02407">
        <ele>336.2</ele>
        <time>2021-11-19T11:21:25Z</time>
      </trkpt>
      <trkpt lat="44.46764" lon="5.02409">
        <ele>336.2</ele>
        <time>2021-11-19T11:21:26Z</time>
      </trkpt>
      <trkpt lat="44.46776" lon="5.02416">
        <ele>336.1</ele>
        <time>2021-11-19T11:21:27Z</time>
      </trkpt>
      <trkpt lat="44.46779" lon="5.02423">
        <ele>336</ele>
        <time>2021-11-19T11:21:29Z</time>
      </trkpt>
      <trkpt lat="44.46785" lon="5.02424">
        <ele>336</ele>
        <time>2021-11-19T11:21:30Z</time>
      </trkpt>
      <trkpt lat="44.46795" lon="5.02426">
        <ele>335.8</ele>
        <time>2021-11-19T11:21:33Z</time>
      </trkpt>
      <trkpt lat="44.468" lon="5.0243">
        <ele>335.8</ele>
        <time>2021-11-19T11:21:34Z</time>
      </trkpt>
      <trkpt lat="44.46805" lon="5.02434">
        <ele>335.7</ele>
        <time>2021-11-19T11:21:35Z</time>
      </trkpt>
      <trkpt lat="44.46815" lon="5.02437">
        <ele>335.6</ele>
        <time>2021-11-19T11:21:36Z</time>
      </trkpt>
      <trkpt lat="44.46822" lon="5.02451">
        <ele>335.5</ele>
        <time>2021-11-19T11:21:38Z</time>
      </trkpt>
      <trkpt lat="44.46839" lon="5.02455">
        <ele>335.4</ele>
        <time>2021-11-19T11:21:41Z</time>
      </trkpt>
      <trkpt lat="44.46849" lon="5.02456">
        <ele>335.4</ele>
        <time>2021-11-19T11:21:44Z</time>
      </trkpt>
      <trkpt lat="44.46854" lon="5.02458">
        <ele>335.4</ele>
        <time>2021-11-19T11:21:45Z</time>
      </trkpt>
      <trkpt lat="44.46864" lon="5.02463">
        <ele>335.3</ele>
        <time>2021-11-19T11:21:46Z</time>
      </trkpt>
      <trkpt lat="44.46873" lon="5.02454">
        <ele>335.3</ele>
        <time>2021-11-19T11:21:48Z</time>
      </trkpt>
      <trkpt lat="44.46885" lon="5.0246">
        <ele>335.2</ele>
        <time>2021-11-19T11:21:49Z</time>
      </trkpt>
      <trkpt lat="44.46891" lon="5.02468">
        <ele>335.2</ele>
        <time>2021-11-19T11:21:51Z</time>
      </trkpt>
      <trkpt lat="44.46896" lon="5.02474">
        <ele>335.2</ele>
        <time>2021-11-19T11:21:53Z</time>
      </trkpt>
      <trkpt lat="44.46905" lon="5.02482">
        <ele>335.3</ele>
        <time>2021-11-19T11:21:56Z</time>
      </trkpt>
      <trkpt lat="44.46916" lon="5.02488">
        <ele>335.3</ele>
        <time>2021-11-19T11:21:57Z</time>
      </trkpt>
      <trkpt lat="44.46915" lon="5.025">
        <ele>335.3</ele>
        <time>2021-11-19T11:22:00Z</time>
      </trkpt>
      <trkpt lat="44.46928" lon="5.02509">
        <ele>335.3</ele>
        <time>2021-11-19T11:22:02Z</time>
      </trkpt>
      <trkpt lat="44.46932" lon="5.0252">
        <ele>335.4</ele>
        <time>2021-11-19T11:22:04Z</time>
      </trkpt>
      <trkpt lat="44.46946" lon="5.02522">
        <ele>335.4</ele>
        <time>2021-11-19T11:22:06Z</time>
      </trkpt>
      <trkpt lat="44.46958" lon="5.02524">
        <ele>335.4</ele>
        <time>2021-11-19T11:22:08Z</time>
      </trkpt>
      <trkpt lat="44.46973" lon="5.02522">
        <ele>335.5</ele>
        <time>2021-11-19T11:22:11Z</time>
      </trkpt>
      <trkpt lat="44.46981" lon="5.02525">
        <ele>335.6</ele>
        <time>2021-11-19T11:22:12Z</time>
      </trkpt>
      <trkpt lat="44.46989" lon="5.02525">
        <ele>335.7</ele>
        <time>2021-11-19T11:22:15Z</time>
      </trkpt>
      <trkpt lat="44.46995" lon="5.02528">
        <ele>335.7</ele>
        <time>2021-11-19T11:22:16Z</time>
      </trkpt>
      <trkpt lat="44.47" lon="5.02532">
        <ele>335.7</ele>
        <time>2021-11-19T11:22:17Z</time>
      </trkpt>
      <trkpt lat="44.47006" lon="5.02534">
        <ele>335.7</ele>
        <time>2021-11-19T11:22:18Z</time>
      </trkpt>
      <trkpt lat="44.47012" lon="5.02537">
        <ele>335.7</ele>
        <time>2021-11-19T11:22:19Z</time>
      </trkpt>
      <trkpt lat="44.47019" lon="5.02539">
        <ele>335.7</ele>
        <time>2021-11-19T11:22:20Z</time>
      </trkpt>
      <trkpt lat="44.47025" lon="5.02542">
        <ele>335.7</ele>
        <time>2021-11-19T11:22:21Z</time>
      </trkpt>
      <trkpt lat="44.47036" lon="5.02548">
        <ele>335.7</ele>
        <time>2021-11-19T11:22:22Z</time>
      </trkpt>
      <trkpt lat="44.47035" lon="5.0255">
        <ele>335.7</ele>
        <time>2021-11-19T11:22:24Z</time>
      </trkpt>
      <trkpt lat="44.4704" lon="5.02552">
        <ele>335.7</ele>
        <time>2021-11-19T11:22:25Z</time>
      </trkpt>
      <trkpt lat="44.47053" lon="5.0256">
        <ele>335.9</ele>
        <time>2021-11-19T11:22:28Z</time>
      </trkpt>
      <trkpt lat="44.4706" lon="5.02566">
        <ele>335.9</ele>
        <time>2021-11-19T11:22:30Z</time>
      </trkpt>
      <trkpt lat="44.47068" lon="5.0257">
        <ele>336</ele>
        <time>2021-11-19T11:22:31Z</time>
      </trkpt>
      <trkpt lat="44.47074" lon="5.02573">
        <ele>336.1</ele>
        <time>2021-11-19T11:22:33Z</time>
      </trkpt>
      <trkpt lat="44.47084" lon="5.02577">
        <ele>336.2</ele>
        <time>2021-11-19T11:22:35Z</time>
      </trkpt>
      <trkpt lat="44.47097" lon="5.02582">
        <ele>336.4</ele>
        <time>2021-11-19T11:22:36Z</time>
      </trkpt>
      <trkpt lat="44.47106" lon="5.02586">
        <ele>336.5</ele>
        <time>2021-11-19T11:22:38Z</time>
      </trkpt>
      <trkpt lat="44.47115" lon="5.02588">
        <ele>336.6</ele>
        <time>2021-11-19T11:22:39Z</time>
      </trkpt>
      <trkpt lat="44.47126" lon="5.02593">
        <ele>336.7</ele>
        <time>2021-11-19T11:22:41Z</time>
      </trkpt>
      <trkpt lat="44.47135" lon="5.02595">
        <ele>336.8</ele>
        <time>2021-11-19T11:22:42Z</time>
      </trkpt>
      <trkpt lat="44.47139" lon="5.02597">
        <ele>336.8</ele>
        <time>2021-11-19T11:22:44Z</time>
      </trkpt>
      <trkpt lat="44.47152" lon="5.02603">
        <ele>336.9</ele>
        <time>2021-11-19T11:22:46Z</time>
      </trkpt>
      <trkpt lat="44.47162" lon="5.02608">
        <ele>336.9</ele>
        <time>2021-11-19T11:22:48Z</time>
      </trkpt>
      <trkpt lat="44.47169" lon="5.02611">
        <ele>337</ele>
        <time>2021-11-19T11:22:50Z</time>
      </trkpt>
      <trkpt lat="44.47175" lon="5.02613">
        <ele>337</ele>
        <time>2021-11-19T11:22:51Z</time>
      </trkpt>
      <trkpt lat="44.47183" lon="5.02618">
        <ele>337.1</ele>
        <time>2021-11-19T11:22:53Z</time>
      </trkpt>
      <trkpt lat="44.47193" lon="5.02623">
        <ele>337.1</ele>
        <time>2021-11-19T11:22:56Z</time>
      </trkpt>
      <trkpt lat="44.47197" lon="5.02623">
        <ele>337.2</ele>
        <time>2021-11-19T11:22:58Z</time>
      </trkpt>
      <trkpt lat="44.47203" lon="5.02627">
        <ele>337.2</ele>
        <time>2021-11-19T11:23:01Z</time>
      </trkpt>
      <trkpt lat="44.47213" lon="5.02633">
        <ele>337.3</ele>
        <time>2021-11-19T11:23:03Z</time>
      </trkpt>
      <trkpt lat="44.47225" lon="5.02639">
        <ele>337.5</ele>
        <time>2021-11-19T11:23:06Z</time>
      </trkpt>
      <trkpt lat="44.47234" lon="5.02643">
        <ele>337.6</ele>
        <time>2021-11-19T11:23:08Z</time>
      </trkpt>
      <trkpt lat="44.47241" lon="5.02647">
        <ele>337.8</ele>
        <time>2021-11-19T11:23:10Z</time>
      </trkpt>
      <trkpt lat="44.47244" lon="5.0265">
        <ele>337.8</ele>
        <time>2021-11-19T11:23:12Z</time>
      </trkpt>
      <trkpt lat="44.47239" lon="5.02651">
        <ele>337.9</ele>
        <time>2021-11-19T11:23:14Z</time>
      </trkpt>
      <trkpt lat="44.47245" lon="5.02654">
        <ele>338</ele>
        <time>2021-11-19T11:23:16Z</time>
      </trkpt>
      <trkpt lat="44.4725" lon="5.02657">
        <ele>338.1</ele>
        <time>2021-11-19T11:23:17Z</time>
      </trkpt>
      <trkpt lat="44.47254" lon="5.0266">
        <ele>338.2</ele>
        <time>2021-11-19T11:23:19Z</time>
      </trkpt>
      <trkpt lat="44.47262" lon="5.02664">
        <ele>338.3</ele>
        <time>2021-11-19T11:23:20Z</time>
      </trkpt>
      <trkpt lat="44.47265" lon="5.02666">
        <ele>338.4</ele>
        <time>2021-11-19T11:23:22Z</time>
      </trkpt>
      <trkpt lat="44.47269" lon="5.02668">
        <ele>338.5</ele>
        <time>2021-11-19T11:23:23Z</time>
      </trkpt>
      <trkpt lat="44.47279" lon="5.02672">
        <ele>338.6</ele>
        <time>2021-11-19T11:23:25Z</time>
      </trkpt>
      <trkpt lat="44.47285" lon="5.02673">
        <ele>338.8</ele>
        <time>2021-11-19T11:23:26Z</time>
      </trkpt>
      <trkpt lat="44.4729" lon="5.02675">
        <ele>338.8</ele>
        <time>2021-11-19T11:23:28Z</time>
      </trkpt>
      <trkpt lat="44.47304" lon="5.02681">
        <ele>339.1</ele>
        <time>2021-11-19T11:23:30Z</time>
      </trkpt>
      <trkpt lat="44.47315" lon="5.02687">
        <ele>339.6</ele>
        <time>2021-11-19T11:23:32Z</time>
      </trkpt>
      <trkpt lat="44.47325" lon="5.02691">
        <ele>339.9</ele>
        <time>2021-11-19T11:23:34Z</time>
      </trkpt>
      <trkpt lat="44.47333" lon="5.02696">
        <ele>340.3</ele>
        <time>2021-11-19T11:23:35Z</time>
      </trkpt>
      <trkpt lat="44.47341" lon="5.02699">
        <ele>340.6</ele>
        <time>2021-11-19T11:23:37Z</time>
      </trkpt>
      <trkpt lat="44.47349" lon="5.02702">
        <ele>341</ele>
        <time>2021-11-19T11:23:39Z</time>
      </trkpt>
      <trkpt lat="44.47356" lon="5.02705">
        <ele>341.3</ele>
        <time>2021-11-19T11:23:41Z</time>
      </trkpt>
      <trkpt lat="44.47364" lon="5.02709">
        <ele>341.7</ele>
        <time>2021-11-19T11:23:43Z</time>
      </trkpt>
      <trkpt lat="44.47369" lon="5.02711">
        <ele>341.9</ele>
        <time>2021-11-19T11:23:44Z</time>
      </trkpt>
      <trkpt lat="44.47375" lon="5.02713">
        <ele>342.2</ele>
        <time>2021-11-19T11:23:46Z</time>
      </trkpt>
      <trkpt lat="44.47383" lon="5.02716">
        <ele>342.6</ele>
        <time>2021-11-19T11:23:48Z</time>
      </trkpt>
      <trkpt lat="44.47391" lon="5.02721">
        <ele>343</ele>
        <time>2021-11-19T11:23:51Z</time>
      </trkpt>
      <trkpt lat="44.47397" lon="5.02724">
        <ele>343.3</ele>
        <time>2021-11-19T11:23:53Z</time>
      </trkpt>
      <trkpt lat="44.47402" lon="5.02726">
        <ele>343.6</ele>
        <time>2021-11-19T11:23:55Z</time>
      </trkpt>
      <trkpt lat="44.4741" lon="5.0273">
        <ele>343.7</ele>
        <time>2021-11-19T11:23:57Z</time>
      </trkpt>
      <trkpt lat="44.47415" lon="5.02732">
        <ele>343.8</ele>
        <time>2021-11-19T11:23:59Z</time>
      </trkpt>
      <trkpt lat="44.47419" lon="5.02734">
        <ele>344</ele>
        <time>2021-11-19T11:24:00Z</time>
      </trkpt>
      <trkpt lat="44.47428" lon="5.02738">
        <ele>344.3</ele>
        <time>2021-11-19T11:24:02Z</time>
      </trkpt>
      <trkpt lat="44.47431" lon="5.02741">
        <ele>344.5</ele>
        <time>2021-11-19T11:24:03Z</time>
      </trkpt>
      <trkpt lat="44.47433" lon="5.02743">
        <ele>344.6</ele>
        <time>2021-11-19T11:24:05Z</time>
      </trkpt>
      <trkpt lat="44.47436" lon="5.02745">
        <ele>344.7</ele>
        <time>2021-11-19T11:24:07Z</time>
      </trkpt>
      <trkpt lat="44.47441" lon="5.02747">
        <ele>344.9</ele>
        <time>2021-11-19T11:24:09Z</time>
      </trkpt>
      <trkpt lat="44.4745" lon="5.02751">
        <ele>345.3</ele>
        <time>2021-11-19T11:24:11Z</time>
      </trkpt>
      <trkpt lat="44.47456" lon="5.02755">
        <ele>345.6</ele>
        <time>2021-11-19T11:24:13Z</time>
      </trkpt>
      <trkpt lat="44.47464" lon="5.02759">
        <ele>346</ele>
        <time>2021-11-19T11:24:15Z</time>
      </trkpt>
      <trkpt lat="44.47468" lon="5.02761">
        <ele>346.2</ele>
        <time>2021-11-19T11:24:16Z</time>
      </trkpt>
      <trkpt lat="44.47473" lon="5.02763">
        <ele>346.3</ele>
        <time>2021-11-19T11:24:18Z</time>
      </trkpt>
      <trkpt lat="44.47476" lon="5.02764">
        <ele>346.5</ele>
        <time>2021-11-19T11:24:19Z</time>
      </trkpt>
      <trkpt lat="44.47481" lon="5.02766">
        <ele>346.7</ele>
        <time>2021-11-19T11:24:21Z</time>
      </trkpt>
      <trkpt lat="44.47488" lon="5.02768">
        <ele>347</ele>
        <time>2021-11-19T11:24:23Z</time>
      </trkpt>
      <trkpt lat="44.47496" lon="5.02772">
        <ele>347.3</ele>
        <time>2021-11-19T11:24:25Z</time>
      </trkpt>
      <trkpt lat="44.47491" lon="5.02768">
        <ele>347.5</ele>
        <time>2021-11-19T11:24:26Z</time>
      </trkpt>
      <trkpt lat="44.47484" lon="5.02766">
        <ele>347.8</ele>
        <time>2021-11-19T11:24:28Z</time>
      </trkpt>
      <trkpt lat="44.47492" lon="5.0277">
        <ele>348.1</ele>
        <time>2021-11-19T11:24:30Z</time>
      </trkpt>
      <trkpt lat="44.47499" lon="5.02776">
        <ele>348.4</ele>
        <time>2021-11-19T11:24:31Z</time>
      </trkpt>
      <trkpt lat="44.47503" lon="5.02776">
        <ele>348.6</ele>
        <time>2021-11-19T11:24:33Z</time>
      </trkpt>
      <trkpt lat="44.47509" lon="5.02781">
        <ele>348.9</ele>
        <time>2021-11-19T11:24:35Z</time>
      </trkpt>
      <trkpt lat="44.47518" lon="5.02784">
        <ele>349.2</ele>
        <time>2021-11-19T11:24:37Z</time>
      </trkpt>
      <trkpt lat="44.47526" lon="5.02788">
        <ele>349.5</ele>
        <time>2021-11-19T11:24:39Z</time>
      </trkpt>
      <trkpt lat="44.47531" lon="5.02791">
        <ele>349.7</ele>
        <time>2021-11-19T11:24:41Z</time>
      </trkpt>
      <trkpt lat="44.47537" lon="5.02794">
        <ele>349.8</ele>
        <time>2021-11-19T11:24:43Z</time>
      </trkpt>
      <trkpt lat="44.47545" lon="5.02797">
        <ele>350.1</ele>
        <time>2021-11-19T11:24:46Z</time>
      </trkpt>
      <trkpt lat="44.47551" lon="5.028">
        <ele>350.3</ele>
        <time>2021-11-19T11:24:48Z</time>
      </trkpt>
      <trkpt lat="44.47555" lon="5.02802">
        <ele>350.5</ele>
        <time>2021-11-19T11:24:50Z</time>
      </trkpt>
      <trkpt lat="44.47559" lon="5.02803">
        <ele>350.6</ele>
        <time>2021-11-19T11:24:52Z</time>
      </trkpt>
      <trkpt lat="44.47564" lon="5.02806">
        <ele>350.8</ele>
        <time>2021-11-19T11:24:54Z</time>
      </trkpt>
      <trkpt lat="44.47568" lon="5.02808">
        <ele>350.9</ele>
        <time>2021-11-19T11:24:56Z</time>
      </trkpt>
      <trkpt lat="44.47574" lon="5.02812">
        <ele>351.1</ele>
        <time>2021-11-19T11:24:59Z</time>
      </trkpt>
      <trkpt lat="44.47575" lon="5.02813">
        <ele>351.2</ele>
        <time>2021-11-19T11:25:00Z</time>
      </trkpt>
      <trkpt lat="44.47577" lon="5.02814">
        <ele>351.3</ele>
        <time>2021-11-19T11:25:01Z</time>
      </trkpt>
      <trkpt lat="44.47583" lon="5.02817">
        <ele>351.5</ele>
        <time>2021-11-19T11:25:03Z</time>
      </trkpt>
      <trkpt lat="44.47588" lon="5.0282">
        <ele>351.6</ele>
        <time>2021-11-19T11:25:05Z</time>
      </trkpt>
      <trkpt lat="44.47592" lon="5.02822">
        <ele>351.8</ele>
        <time>2021-11-19T11:25:06Z</time>
      </trkpt>
      <trkpt lat="44.47598" lon="5.02826">
        <ele>352</ele>
        <time>2021-11-19T11:25:08Z</time>
      </trkpt>
      <trkpt lat="44.47605" lon="5.02829">
        <ele>352.2</ele>
        <time>2021-11-19T11:25:10Z</time>
      </trkpt>
      <trkpt lat="44.4761" lon="5.0283">
        <ele>352.3</ele>
        <time>2021-11-19T11:25:11Z</time>
      </trkpt>
      <trkpt lat="44.47616" lon="5.02836">
        <ele>352.5</ele>
        <time>2021-11-19T11:25:14Z</time>
      </trkpt>
      <trkpt lat="44.47622" lon="5.0284">
        <ele>352.7</ele>
        <time>2021-11-19T11:25:16Z</time>
      </trkpt>
      <trkpt lat="44.47627" lon="5.02842">
        <ele>352.9</ele>
        <time>2021-11-19T11:25:18Z</time>
      </trkpt>
      <trkpt lat="44.47632" lon="5.02844">
        <ele>353.1</ele>
        <time>2021-11-19T11:25:19Z</time>
      </trkpt>
      <trkpt lat="44.47637" lon="5.02847">
        <ele>353.2</ele>
        <time>2021-11-19T11:25:21Z</time>
      </trkpt>
      <trkpt lat="44.47644" lon="5.0285">
        <ele>353.5</ele>
        <time>2021-11-19T11:25:23Z</time>
      </trkpt>
      <trkpt lat="44.47651" lon="5.02853">
        <ele>353.7</ele>
        <time>2021-11-19T11:25:25Z</time>
      </trkpt>
      <trkpt lat="44.47659" lon="5.02857">
        <ele>353.8</ele>
        <time>2021-11-19T11:25:28Z</time>
      </trkpt>
      <trkpt lat="44.47666" lon="5.02859">
        <ele>353.9</ele>
        <time>2021-11-19T11:25:30Z</time>
      </trkpt>
      <trkpt lat="44.47673" lon="5.02857">
        <ele>354</ele>
        <time>2021-11-19T11:25:33Z</time>
      </trkpt>
      <trkpt lat="44.47679" lon="5.02861">
        <ele>354.1</ele>
        <time>2021-11-19T11:25:35Z</time>
      </trkpt>
      <trkpt lat="44.47682" lon="5.02864">
        <ele>354.1</ele>
        <time>2021-11-19T11:25:36Z</time>
      </trkpt>
      <trkpt lat="44.47689" lon="5.02866">
        <ele>354.2</ele>
        <time>2021-11-19T11:25:38Z</time>
      </trkpt>
      <trkpt lat="44.47698" lon="5.02866">
        <ele>354.3</ele>
        <time>2021-11-19T11:25:41Z</time>
      </trkpt>
      <trkpt lat="44.47705" lon="5.02868">
        <ele>354.3</ele>
        <time>2021-11-19T11:25:43Z</time>
      </trkpt>
      <trkpt lat="44.47714" lon="5.02869">
        <ele>354.3</ele>
        <time>2021-11-19T11:25:45Z</time>
      </trkpt>
      <trkpt lat="44.47719" lon="5.02872">
        <ele>354.3</ele>
        <time>2021-11-19T11:25:47Z</time>
      </trkpt>
      <trkpt lat="44.4773" lon="5.02875">
        <ele>354.4</ele>
        <time>2021-11-19T11:25:50Z</time>
      </trkpt>
      <trkpt lat="44.47732" lon="5.02879">
        <ele>354.4</ele>
        <time>2021-11-19T11:25:51Z</time>
      </trkpt>
      <trkpt lat="44.47738" lon="5.02882">
        <ele>354.5</ele>
        <time>2021-11-19T11:25:53Z</time>
      </trkpt>
      <trkpt lat="44.47743" lon="5.02882">
        <ele>354.5</ele>
        <time>2021-11-19T11:25:55Z</time>
      </trkpt>
      <trkpt lat="44.47749" lon="5.02877">
        <ele>354.6</ele>
        <time>2021-11-19T11:25:57Z</time>
      </trkpt>
      <trkpt lat="44.47762" lon="5.0288">
        <ele>354.7</ele>
        <time>2021-11-19T11:25:59Z</time>
      </trkpt>
      <trkpt lat="44.47768" lon="5.02882">
        <ele>354.7</ele>
        <time>2021-11-19T11:26:00Z</time>
      </trkpt>
      <trkpt lat="44.47777" lon="5.0288">
        <ele>354.8</ele>
        <time>2021-11-19T11:26:01Z</time>
      </trkpt>
      <trkpt lat="44.47784" lon="5.0288">
        <ele>354.8</ele>
        <time>2021-11-19T11:26:03Z</time>
      </trkpt>
      <trkpt lat="44.47794" lon="5.02886">
        <ele>355</ele>
        <time>2021-11-19T11:26:05Z</time>
      </trkpt>
      <trkpt lat="44.47795" lon="5.0289">
        <ele>355</ele>
        <time>2021-11-19T11:26:07Z</time>
      </trkpt>
      <trkpt lat="44.47798" lon="5.02891">
        <ele>355</ele>
        <time>2021-11-19T11:26:08Z</time>
      </trkpt>
      <trkpt lat="44.47799" lon="5.02891">
        <ele>355</ele>
        <time>2021-11-19T11:26:09Z</time>
      </trkpt>
      <trkpt lat="44.47805" lon="5.02894">
        <ele>355.1</ele>
        <time>2021-11-19T11:26:12Z</time>
      </trkpt>
      <trkpt lat="44.47813" lon="5.02898">
        <ele>355.2</ele>
        <time>2021-11-19T11:26:14Z</time>
      </trkpt>
      <trkpt lat="44.47821" lon="5.02902">
        <ele>355.3</ele>
        <time>2021-11-19T11:26:16Z</time>
      </trkpt>
      <trkpt lat="44.47826" lon="5.02905">
        <ele>355.3</ele>
        <time>2021-11-19T11:26:17Z</time>
      </trkpt>
      <trkpt lat="44.47834" lon="5.02907">
        <ele>355.4</ele>
        <time>2021-11-19T11:26:18Z</time>
      </trkpt>
      <trkpt lat="44.47838" lon="5.02908">
        <ele>355.5</ele>
        <time>2021-11-19T11:26:20Z</time>
      </trkpt>
      <trkpt lat="44.47848" lon="5.02913">
        <ele>355.6</ele>
        <time>2021-11-19T11:26:21Z</time>
      </trkpt>
      <trkpt lat="44.47854" lon="5.02915">
        <ele>355.7</ele>
        <time>2021-11-19T11:26:24Z</time>
      </trkpt>
      <trkpt lat="44.47862" lon="5.02919">
        <ele>355.8</ele>
        <time>2021-11-19T11:26:25Z</time>
      </trkpt>
      <trkpt lat="44.4787" lon="5.02925">
        <ele>355.9</ele>
        <time>2021-11-19T11:26:27Z</time>
      </trkpt>
      <trkpt lat="44.47877" lon="5.0293">
        <ele>356</ele>
        <time>2021-11-19T11:26:29Z</time>
      </trkpt>
      <trkpt lat="44.47883" lon="5.02932">
        <ele>356.1</ele>
        <time>2021-11-19T11:26:30Z</time>
      </trkpt>
      <trkpt lat="44.47896" lon="5.02937">
        <ele>356.3</ele>
        <time>2021-11-19T11:26:32Z</time>
      </trkpt>
      <trkpt lat="44.47906" lon="5.02944">
        <ele>356.5</ele>
        <time>2021-11-19T11:26:33Z</time>
      </trkpt>
      <trkpt lat="44.47916" lon="5.02948">
        <ele>356.6</ele>
        <time>2021-11-19T11:26:36Z</time>
      </trkpt>
      <trkpt lat="44.47926" lon="5.02952">
        <ele>356.7</ele>
        <time>2021-11-19T11:26:38Z</time>
      </trkpt>
      <trkpt lat="44.47935" lon="5.02967">
        <ele>356.9</ele>
        <time>2021-11-19T11:26:41Z</time>
      </trkpt>
      <trkpt lat="44.47946" lon="5.02975">
        <ele>357</ele>
        <time>2021-11-19T11:26:43Z</time>
      </trkpt>
      <trkpt lat="44.47957" lon="5.0298">
        <ele>357.1</ele>
        <time>2021-11-19T11:26:46Z</time>
      </trkpt>
      <trkpt lat="44.47955" lon="5.02979">
        <ele>357.2</ele>
        <time>2021-11-19T11:26:47Z</time>
      </trkpt>
      <trkpt lat="44.47953" lon="5.02978">
        <ele>357.2</ele>
        <time>2021-11-19T11:26:49Z</time>
      </trkpt>
      <trkpt lat="44.47957" lon="5.02981">
        <ele>357.2</ele>
        <time>2021-11-19T11:26:50Z</time>
      </trkpt>
      <trkpt lat="44.47964" lon="5.02986">
        <ele>357.4</ele>
        <time>2021-11-19T11:26:52Z</time>
      </trkpt>
      <trkpt lat="44.47977" lon="5.02997">
        <ele>357.5</ele>
        <time>2021-11-19T11:26:54Z</time>
      </trkpt>
      <trkpt lat="44.47977" lon="5.02989">
        <ele>357.5</ele>
        <time>2021-11-19T11:26:56Z</time>
      </trkpt>
      <trkpt lat="44.47981" lon="5.02995">
        <ele>357.6</ele>
        <time>2021-11-19T11:26:57Z</time>
      </trkpt>
      <trkpt lat="44.47998" lon="5.0301">
        <ele>357.7</ele>
        <time>2021-11-19T11:27:00Z</time>
      </trkpt>
      <trkpt lat="44.47993" lon="5.03007">
        <ele>357.7</ele>
        <time>2021-11-19T11:27:01Z</time>
      </trkpt>
      <trkpt lat="44.47988" lon="5.03008">
        <ele>357.8</ele>
        <time>2021-11-19T11:27:03Z</time>
      </trkpt>
      <trkpt lat="44.48002" lon="5.03018">
        <ele>357.9</ele>
        <time>2021-11-19T11:27:04Z</time>
      </trkpt>
      <trkpt lat="44.48011" lon="5.03024">
        <ele>358</ele>
        <time>2021-11-19T11:27:06Z</time>
      </trkpt>
      <trkpt lat="44.48018" lon="5.03026">
        <ele>358.1</ele>
        <time>2021-11-19T11:27:07Z</time>
      </trkpt>
      <trkpt lat="44.4803" lon="5.03033">
        <ele>358.2</ele>
        <time>2021-11-19T11:27:08Z</time>
      </trkpt>
      <trkpt lat="44.4804" lon="5.0304">
        <ele>358.4</ele>
        <time>2021-11-19T11:27:10Z</time>
      </trkpt>
      <trkpt lat="44.48054" lon="5.03048">
        <ele>358.5</ele>
        <time>2021-11-19T11:27:12Z</time>
      </trkpt>
      <trkpt lat="44.48065" lon="5.03056">
        <ele>358.6</ele>
        <time>2021-11-19T11:27:14Z</time>
      </trkpt>
      <trkpt lat="44.4807" lon="5.0306">
        <ele>358.7</ele>
        <time>2021-11-19T11:27:15Z</time>
      </trkpt>
      <trkpt lat="44.48065" lon="5.03053">
        <ele>358.8</ele>
        <time>2021-11-19T11:27:17Z</time>
      </trkpt>
      <trkpt lat="44.48073" lon="5.03058">
        <ele>358.9</ele>
        <time>2021-11-19T11:27:18Z</time>
      </trkpt>
      <trkpt lat="44.48089" lon="5.03069">
        <ele>359.2</ele>
        <time>2021-11-19T11:27:20Z</time>
      </trkpt>
      <trkpt lat="44.481" lon="5.03078">
        <ele>359.4</ele>
        <time>2021-11-19T11:27:22Z</time>
      </trkpt>
      <trkpt lat="44.48107" lon="5.03084">
        <ele>359.5</ele>
        <time>2021-11-19T11:27:25Z</time>
      </trkpt>
      <trkpt lat="44.48117" lon="5.03091">
        <ele>359.6</ele>
        <time>2021-11-19T11:27:27Z</time>
      </trkpt>
      <trkpt lat="44.48119" lon="5.03092">
        <ele>359.6</ele>
        <time>2021-11-19T11:27:28Z</time>
      </trkpt>
      <trkpt lat="44.48127" lon="5.03098">
        <ele>359.7</ele>
        <time>2021-11-19T11:27:30Z</time>
      </trkpt>
      <trkpt lat="44.48136" lon="5.03105">
        <ele>359.8</ele>
        <time>2021-11-19T11:27:32Z</time>
      </trkpt>
      <trkpt lat="44.48146" lon="5.0311">
        <ele>359.9</ele>
        <time>2021-11-19T11:27:35Z</time>
      </trkpt>
      <trkpt lat="44.48157" lon="5.03115">
        <ele>360</ele>
        <time>2021-11-19T11:27:37Z</time>
      </trkpt>
      <trkpt lat="44.48163" lon="5.03116">
        <ele>360</ele>
        <time>2021-11-19T11:27:39Z</time>
      </trkpt>
      <trkpt lat="44.48171" lon="5.03118">
        <ele>360.1</ele>
        <time>2021-11-19T11:27:42Z</time>
      </trkpt>
      <trkpt lat="44.48182" lon="5.03126">
        <ele>360.2</ele>
        <time>2021-11-19T11:27:44Z</time>
      </trkpt>
      <trkpt lat="44.48175" lon="5.0312">
        <ele>360.3</ele>
        <time>2021-11-19T11:27:46Z</time>
      </trkpt>
      <trkpt lat="44.48175" lon="5.0312">
        <ele>360.3</ele>
        <time>2021-11-19T11:27:47Z</time>
      </trkpt>
      <trkpt lat="44.48183" lon="5.03123">
        <ele>360.4</ele>
        <time>2021-11-19T11:27:49Z</time>
      </trkpt>
      <trkpt lat="44.48185" lon="5.03125">
        <ele>360.4</ele>
        <time>2021-11-19T11:27:51Z</time>
      </trkpt>
      <trkpt lat="44.48193" lon="5.03129">
        <ele>360.5</ele>
        <time>2021-11-19T11:27:53Z</time>
      </trkpt>
      <trkpt lat="44.482" lon="5.03132">
        <ele>360.5</ele>
        <time>2021-11-19T11:27:55Z</time>
      </trkpt>
      <trkpt lat="44.48207" lon="5.03135">
        <ele>360.6</ele>
        <time>2021-11-19T11:27:57Z</time>
      </trkpt>
      <trkpt lat="44.48216" lon="5.03139">
        <ele>360.7</ele>
        <time>2021-11-19T11:27:58Z</time>
      </trkpt>
      <trkpt lat="44.48219" lon="5.03141">
        <ele>360.7</ele>
        <time>2021-11-19T11:28:00Z</time>
      </trkpt>
      <trkpt lat="44.48224" lon="5.03144">
        <ele>360.8</ele>
        <time>2021-11-19T11:28:01Z</time>
      </trkpt>
      <trkpt lat="44.48227" lon="5.03143">
        <ele>360.8</ele>
        <time>2021-11-19T11:28:04Z</time>
      </trkpt>
      <trkpt lat="44.48239" lon="5.03147">
        <ele>360.9</ele>
        <time>2021-11-19T11:28:06Z</time>
      </trkpt>
      <trkpt lat="44.48252" lon="5.03157">
        <ele>361.1</ele>
        <time>2021-11-19T11:28:08Z</time>
      </trkpt>
      <trkpt lat="44.48258" lon="5.03156">
        <ele>361.2</ele>
        <time>2021-11-19T11:28:10Z</time>
      </trkpt>
      <trkpt lat="44.48269" lon="5.03159">
        <ele>361.3</ele>
        <time>2021-11-19T11:28:12Z</time>
      </trkpt>
      <trkpt lat="44.48277" lon="5.03165">
        <ele>361.5</ele>
        <time>2021-11-19T11:28:13Z</time>
      </trkpt>
      <trkpt lat="44.48282" lon="5.03169">
        <ele>361.6</ele>
        <time>2021-11-19T11:28:15Z</time>
      </trkpt>
      <trkpt lat="44.4829" lon="5.03178">
        <ele>361.7</ele>
        <time>2021-11-19T11:28:18Z</time>
      </trkpt>
      <trkpt lat="44.48296" lon="5.03182">
        <ele>361.8</ele>
        <time>2021-11-19T11:28:19Z</time>
      </trkpt>
      <trkpt lat="44.48306" lon="5.03191">
        <ele>362.1</ele>
        <time>2021-11-19T11:28:21Z</time>
      </trkpt>
      <trkpt lat="44.48311" lon="5.03195">
        <ele>362.1</ele>
        <time>2021-11-19T11:28:22Z</time>
      </trkpt>
      <trkpt lat="44.48316" lon="5.03198">
        <ele>362.2</ele>
        <time>2021-11-19T11:28:24Z</time>
      </trkpt>
      <trkpt lat="44.48328" lon="5.03204">
        <ele>362.5</ele>
        <time>2021-11-19T11:28:26Z</time>
      </trkpt>
      <trkpt lat="44.48341" lon="5.0321">
        <ele>362.8</ele>
        <time>2021-11-19T11:28:28Z</time>
      </trkpt>
      <trkpt lat="44.48357" lon="5.03216">
        <ele>363.1</ele>
        <time>2021-11-19T11:28:31Z</time>
      </trkpt>
      <trkpt lat="44.48366" lon="5.0322">
        <ele>363.3</ele>
        <time>2021-11-19T11:28:33Z</time>
      </trkpt>
      <trkpt lat="44.48376" lon="5.03225">
        <ele>363.5</ele>
        <time>2021-11-19T11:28:35Z</time>
      </trkpt>
      <trkpt lat="44.48383" lon="5.03229">
        <ele>363.7</ele>
        <time>2021-11-19T11:28:37Z</time>
      </trkpt>
      <trkpt lat="44.48394" lon="5.03234">
        <ele>363.9</ele>
        <time>2021-11-19T11:28:39Z</time>
      </trkpt>
      <trkpt lat="44.48405" lon="5.03238">
        <ele>364.2</ele>
        <time>2021-11-19T11:28:42Z</time>
      </trkpt>
      <trkpt lat="44.48411" lon="5.03241">
        <ele>364.3</ele>
        <time>2021-11-19T11:28:43Z</time>
      </trkpt>
      <trkpt lat="44.48416" lon="5.03243">
        <ele>364.3</ele>
        <time>2021-11-19T11:28:44Z</time>
      </trkpt>
      <trkpt lat="44.48425" lon="5.03249">
        <ele>364.5</ele>
        <time>2021-11-19T11:28:46Z</time>
      </trkpt>
      <trkpt lat="44.4843" lon="5.03251">
        <ele>364.6</ele>
        <time>2021-11-19T11:28:48Z</time>
      </trkpt>
      <trkpt lat="44.48432" lon="5.03253">
        <ele>364.6</ele>
        <time>2021-11-19T11:28:49Z</time>
      </trkpt>
      <trkpt lat="44.48438" lon="5.03257">
        <ele>364.7</ele>
        <time>2021-11-19T11:28:51Z</time>
      </trkpt>
      <trkpt lat="44.48441" lon="5.03261">
        <ele>364.8</ele>
        <time>2021-11-19T11:28:52Z</time>
      </trkpt>
      <trkpt lat="44.48444" lon="5.03262">
        <ele>364.9</ele>
        <time>2021-11-19T11:28:54Z</time>
      </trkpt>
      <trkpt lat="44.48451" lon="5.03267">
        <ele>365</ele>
        <time>2021-11-19T11:28:56Z</time>
      </trkpt>
      <trkpt lat="44.48462" lon="5.03273">
        <ele>365.2</ele>
        <time>2021-11-19T11:28:58Z</time>
      </trkpt>
      <trkpt lat="44.48471" lon="5.03276">
        <ele>365.3</ele>
        <time>2021-11-19T11:29:00Z</time>
      </trkpt>
      <trkpt lat="44.48479" lon="5.03281">
        <ele>365.5</ele>
        <time>2021-11-19T11:29:02Z</time>
      </trkpt>
      <trkpt lat="44.48488" lon="5.03283">
        <ele>365.6</ele>
        <time>2021-11-19T11:29:04Z</time>
      </trkpt>
      <trkpt lat="44.48496" lon="5.03286">
        <ele>365.7</ele>
        <time>2021-11-19T11:29:05Z</time>
      </trkpt>
      <trkpt lat="44.48502" lon="5.03287">
        <ele>365.8</ele>
        <time>2021-11-19T11:29:07Z</time>
      </trkpt>
      <trkpt lat="44.48504" lon="5.03288">
        <ele>365.8</ele>
        <time>2021-11-19T11:29:08Z</time>
      </trkpt>
      <trkpt lat="44.48508" lon="5.03292">
        <ele>365.9</ele>
        <time>2021-11-19T11:29:10Z</time>
      </trkpt>
      <trkpt lat="44.48514" lon="5.03297">
        <ele>366</ele>
        <time>2021-11-19T11:29:12Z</time>
      </trkpt>
      <trkpt lat="44.48519" lon="5.03299">
        <ele>366</ele>
        <time>2021-11-19T11:29:13Z</time>
      </trkpt>
      <trkpt lat="44.48511" lon="5.03296">
        <ele>366.1</ele>
        <time>2021-11-19T11:29:15Z</time>
      </trkpt>
      <trkpt lat="44.48516" lon="5.033">
        <ele>366.2</ele>
        <time>2021-11-19T11:29:17Z</time>
      </trkpt>
      <trkpt lat="44.48529" lon="5.03306">
        <ele>366.3</ele>
        <time>2021-11-19T11:29:18Z</time>
      </trkpt>
      <trkpt lat="44.48536" lon="5.0331">
        <ele>366.4</ele>
        <time>2021-11-19T11:29:20Z</time>
      </trkpt>
      <trkpt lat="44.48548" lon="5.03316">
        <ele>366.5</ele>
        <time>2021-11-19T11:29:22Z</time>
      </trkpt>
      <trkpt lat="44.48557" lon="5.03321">
        <ele>366.6</ele>
        <time>2021-11-19T11:29:23Z</time>
      </trkpt>
      <trkpt lat="44.48562" lon="5.03325">
        <ele>366.7</ele>
        <time>2021-11-19T11:29:26Z</time>
      </trkpt>
      <trkpt lat="44.48567" lon="5.03329">
        <ele>366.8</ele>
        <time>2021-11-19T11:29:27Z</time>
      </trkpt>
      <trkpt lat="44.48576" lon="5.03334">
        <ele>366.9</ele>
        <time>2021-11-19T11:29:29Z</time>
      </trkpt>
      <trkpt lat="44.48583" lon="5.03339">
        <ele>367</ele>
        <time>2021-11-19T11:29:31Z</time>
      </trkpt>
      <trkpt lat="44.48587" lon="5.03342">
        <ele>367.1</ele>
        <time>2021-11-19T11:29:32Z</time>
      </trkpt>
      <trkpt lat="44.48592" lon="5.03346">
        <ele>367.2</ele>
        <time>2021-11-19T11:29:33Z</time>
      </trkpt>
      <trkpt lat="44.48592" lon="5.0335">
        <ele>367.2</ele>
        <time>2021-11-19T11:29:35Z</time>
      </trkpt>
      <trkpt lat="44.48592" lon="5.03351">
        <ele>367.2</ele>
        <time>2021-11-19T11:29:36Z</time>
      </trkpt>
      <trkpt lat="44.48598" lon="5.03356">
        <ele>367.3</ele>
        <time>2021-11-19T11:29:38Z</time>
      </trkpt>
      <trkpt lat="44.48606" lon="5.03362">
        <ele>367.5</ele>
        <time>2021-11-19T11:29:39Z</time>
      </trkpt>
      <trkpt lat="44.48617" lon="5.03372">
        <ele>367.7</ele>
        <time>2021-11-19T11:29:41Z</time>
      </trkpt>
      <trkpt lat="44.48623" lon="5.03376">
        <ele>367.8</ele>
        <time>2021-11-19T11:29:42Z</time>
      </trkpt>
      <trkpt lat="44.48634" lon="5.03384">
        <ele>368</ele>
        <time>2021-11-19T11:29:44Z</time>
      </trkpt>
      <trkpt lat="44.4864" lon="5.0339">
        <ele>368.2</ele>
        <time>2021-11-19T11:29:45Z</time>
      </trkpt>
      <trkpt lat="44.48643" lon="5.03393">
        <ele>368.2</ele>
        <time>2021-11-19T11:29:47Z</time>
      </trkpt>
      <trkpt lat="44.48654" lon="5.03402">
        <ele>368.4</ele>
        <time>2021-11-19T11:29:49Z</time>
      </trkpt>
      <trkpt lat="44.48659" lon="5.03408">
        <ele>368.6</ele>
        <time>2021-11-19T11:29:51Z</time>
      </trkpt>
      <trkpt lat="44.48663" lon="5.03411">
        <ele>368.6</ele>
        <time>2021-11-19T11:29:52Z</time>
      </trkpt>
      <trkpt lat="44.48667" lon="5.03413">
        <ele>368.7</ele>
        <time>2021-11-19T11:29:53Z</time>
      </trkpt>
      <trkpt lat="44.48669" lon="5.03415">
        <ele>368.8</ele>
        <time>2021-11-19T11:29:54Z</time>
      </trkpt>
      <trkpt lat="44.48673" lon="5.03418">
        <ele>368.8</ele>
        <time>2021-11-19T11:29:56Z</time>
      </trkpt>
      <trkpt lat="44.48672" lon="5.03427">
        <ele>369</ele>
        <time>2021-11-19T11:29:57Z</time>
      </trkpt>
      <trkpt lat="44.48673" lon="5.03432">
        <ele>369</ele>
        <time>2021-11-19T11:29:59Z</time>
      </trkpt>
      <trkpt lat="44.48667" lon="5.03435">
        <ele>369.1</ele>
        <time>2021-11-19T11:30:01Z</time>
      </trkpt>
      <trkpt lat="44.48653" lon="5.03425">
        <ele>369.4</ele>
        <time>2021-11-19T11:30:04Z</time>
      </trkpt>
      <trkpt lat="44.48651" lon="5.03421">
        <ele>369.5</ele>
        <time>2021-11-19T11:30:07Z</time>
      </trkpt>
      <trkpt lat="44.48652" lon="5.03422">
        <ele>369.6</ele>
        <time>2021-11-19T11:30:10Z</time>
      </trkpt>
      <trkpt lat="44.48653" lon="5.03422">
        <ele>369.6</ele>
        <time>2021-11-19T11:30:12Z</time>
      </trkpt>
      <trkpt lat="44.48654" lon="5.03423">
        <ele>369.6</ele>
        <time>2021-11-19T11:30:43Z</time>
      </trkpt>
      <trkpt lat="44.48656" lon="5.03423">
        <ele>369.7</ele>
        <time>2021-11-19T11:30:44Z</time>
      </trkpt>
      <trkpt lat="44.48656" lon="5.03425">
        <ele>369.7</ele>
        <time>2021-11-19T11:30:45Z</time>
      </trkpt>
      <trkpt lat="44.48656" lon="5.03425">
        <ele>369.7</ele>
        <time>2021-11-19T11:30:46Z</time>
      </trkpt>
      <trkpt lat="44.48655" lon="5.03424">
        <ele>369.7</ele>
        <time>2021-11-19T11:30:48Z</time>
      </trkpt>
      <trkpt lat="44.48655" lon="5.03424">
        <ele>369.7</ele>
        <time>2021-11-19T11:30:51Z</time>
      </trkpt>
      <trkpt lat="44.48655" lon="5.03424">
        <ele>369.7</ele>
        <time>2021-11-19T11:30:52Z</time>
      </trkpt>
      <trkpt lat="44.48654" lon="5.03423">
        <ele>369.7</ele>
        <time>2021-11-19T11:30:55Z</time>
      </trkpt>
      <trkpt lat="44.48654" lon="5.03423">
        <ele>369.7</ele>
        <time>2021-11-19T11:30:56Z</time>
      </trkpt>
      <trkpt lat="44.48653" lon="5.03423">
        <ele>369.8</ele>
        <time>2021-11-19T11:30:59Z</time>
      </trkpt>
      <trkpt lat="44.48653" lon="5.03423">
        <ele>369.8</ele>
        <time>2021-11-19T11:31:00Z</time>
      </trkpt>
      <trkpt lat="44.48653" lon="5.03422">
        <ele>369.8</ele>
        <time>2021-11-19T11:31:01Z</time>
      </trkpt>
      <trkpt lat="44.48652" lon="5.03422">
        <ele>369.8</ele>
        <time>2021-11-19T11:31:49Z</time>
      </trkpt>
      <trkpt lat="44.48652" lon="5.03422">
        <ele>369.8</ele>
        <time>2021-11-19T11:31:50Z</time>
      </trkpt>
      <trkpt lat="44.48651" lon="5.03421">
        <ele>369.8</ele>
        <time>2021-11-19T11:31:52Z</time>
      </trkpt>
      <trkpt lat="44.48651" lon="5.03421">
        <ele>369.8</ele>
        <time>2021-11-19T11:31:53Z</time>
      </trkpt>
      <trkpt lat="44.4865" lon="5.03421">
        <ele>369.8</ele>
        <time>2021-11-19T11:31:54Z</time>
      </trkpt>
      <trkpt lat="44.4865" lon="5.03418">
        <ele>369.9</ele>
        <time>2021-11-19T11:31:57Z</time>
      </trkpt>
      <trkpt lat="44.4865" lon="5.03419">
        <ele>369.9</ele>
        <time>2021-11-19T11:31:58Z</time>
      </trkpt>
      <trkpt lat="44.4865" lon="5.0342">
        <ele>369.9</ele>
        <time>2021-11-19T11:31:59Z</time>
      </trkpt>
      <trkpt lat="44.4865" lon="5.03421">
        <ele>369.9</ele>
        <time>2021-11-19T11:32:00Z</time>
      </trkpt>
      <trkpt lat="44.4865" lon="5.03422">
        <ele>369.9</ele>
        <time>2021-11-19T11:32:02Z</time>
      </trkpt>
      <trkpt lat="44.48649" lon="5.03422">
        <ele>369.9</ele>
        <time>2021-11-19T11:32:03Z</time>
      </trkpt>
      <trkpt lat="44.48648" lon="5.03422">
        <ele>370</ele>
        <time>2021-11-19T11:32:04Z</time>
      </trkpt>
      <trkpt lat="44.48647" lon="5.03422">
        <ele>370</ele>
        <time>2021-11-19T11:32:05Z</time>
      </trkpt>
      <trkpt lat="44.48646" lon="5.0342">
        <ele>370</ele>
        <time>2021-11-19T11:32:07Z</time>
      </trkpt>
      <trkpt lat="44.48647" lon="5.03418">
        <ele>370.1</ele>
        <time>2021-11-19T11:32:08Z</time>
      </trkpt>
      <trkpt lat="44.48647" lon="5.03418">
        <ele>370.1</ele>
        <time>2021-11-19T11:32:09Z</time>
      </trkpt>
      <trkpt lat="44.48648" lon="5.03417">
        <ele>370.1</ele>
        <time>2021-11-19T11:32:11Z</time>
      </trkpt>
      <trkpt lat="44.48648" lon="5.03417">
        <ele>370.1</ele>
        <time>2021-11-19T11:32:14Z</time>
      </trkpt>
      <trkpt lat="44.48649" lon="5.03417">
        <ele>370.1</ele>
        <time>2021-11-19T11:32:15Z</time>
      </trkpt>
      <trkpt lat="44.48649" lon="5.03417">
        <ele>370.1</ele>
        <time>2021-11-19T11:32:16Z</time>
      </trkpt>
      <trkpt lat="44.48649" lon="5.03417">
        <ele>370.1</ele>
        <time>2021-11-19T11:32:17Z</time>
      </trkpt>
      <trkpt lat="44.48649" lon="5.03418">
        <ele>370.1</ele>
        <time>2021-11-19T11:32:18Z</time>
      </trkpt>
      <trkpt lat="44.48649" lon="5.03418">
        <ele>370.1</ele>
        <time>2021-11-19T11:32:19Z</time>
      </trkpt>
      <trkpt lat="44.48649" lon="5.03418">
        <ele>370.1</ele>
        <time>2021-11-19T11:32:20Z</time>
      </trkpt>
      <trkpt lat="44.48649" lon="5.03418">
        <ele>370.1</ele>
        <time>2021-11-19T11:32:21Z</time>
      </trkpt>
      <trkpt lat="44.48655" lon="5.03422">
        <ele>370.3</ele>
        <time>2021-11-19T11:58:48Z</time>
      </trkpt>
      <trkpt lat="44.48655" lon="5.03422">
        <ele>370.3</ele>
        <time>2021-11-19T11:58:49Z</time>
      </trkpt>
      <trkpt lat="44.48655" lon="5.03422">
        <ele>370.3</ele>
        <time>2021-11-19T11:58:50Z</time>
      </trkpt>
      <trkpt lat="44.48655" lon="5.03422">
        <ele>370.3</ele>
        <time>2021-11-19T11:58:51Z</time>
      </trkpt>
      <trkpt lat="44.48655" lon="5.03422">
        <ele>370.3</ele>
        <time>2021-11-19T11:58:52Z</time>
      </trkpt>
      <trkpt lat="44.48655" lon="5.03421">
        <ele>370.3</ele>
        <time>2021-11-19T11:58:53Z</time>
      </trkpt>
      <trkpt lat="44.48655" lon="5.03421">
        <ele>370.3</ele>
        <time>2021-11-19T11:58:54Z</time>
      </trkpt>
      <trkpt lat="44.48655" lon="5.03421">
        <ele>370.3</ele>
        <time>2021-11-19T11:58:55Z</time>
      </trkpt>
      <trkpt lat="44.48655" lon="5.03421">
        <ele>370.3</ele>
        <time>2021-11-19T11:58:56Z</time>
      </trkpt>
      <trkpt lat="44.48655" lon="5.03421">
        <ele>370.3</ele>
        <time>2021-11-19T11:58:57Z</time>
      </trkpt>
      <trkpt lat="44.48655" lon="5.03421">
        <ele>370.3</ele>
        <time>2021-11-19T11:58:58Z</time>
      </trkpt>
      <trkpt lat="44.48655" lon="5.03421">
        <ele>370.3</ele>
        <time>2021-11-19T11:58:59Z</time>
      </trkpt>
      <trkpt lat="44.48655" lon="5.03421">
        <ele>370.3</ele>
        <time>2021-11-19T11:59:00Z</time>
      </trkpt>
      <trkpt lat="44.48655" lon="5.03421">
        <ele>370.3</ele>
        <time>2021-11-19T11:59:01Z</time>
      </trkpt>
      <trkpt lat="44.48655" lon="5.03421">
        <ele>370.3</ele>
        <time>2021-11-19T11:59:02Z</time>
      </trkpt>
      <trkpt lat="44.48655" lon="5.03421">
        <ele>370.3</ele>
        <time>2021-11-19T11:59:03Z</time>
      </trkpt>
      <trkpt lat="44.48655" lon="5.03421">
        <ele>370.3</ele>
        <time>2021-11-19T11:59:04Z</time>
      </trkpt>
      <trkpt lat="44.48655" lon="5.03421">
        <ele>370.3</ele>
        <time>2021-11-19T11:59:05Z</time>
      </trkpt>
      <trkpt lat="44.48655" lon="5.03421">
        <ele>370.3</ele>
        <time>2021-11-19T11:59:06Z</time>
      </trkpt>
      <trkpt lat="44.48655" lon="5.03421">
        <ele>370.3</ele>
        <time>2021-11-19T11:59:07Z</time>
      </trkpt>
      <trkpt lat="44.48655" lon="5.03421">
        <ele>370.3</ele>
        <time>2021-11-19T11:59:08Z</time>
      </trkpt>
      <trkpt lat="44.48655" lon="5.03421">
        <ele>370.3</ele>
        <time>2021-11-19T11:59:09Z</time>
      </trkpt>
      <trkpt lat="44.48655" lon="5.03421">
        <ele>370.3</ele>
        <time>2021-11-19T11:59:10Z</time>
      </trkpt>
      <trkpt lat="44.48655" lon="5.03421">
        <ele>370.3</ele>
        <time>2021-11-19T11:59:11Z</time>
      </trkpt>
      <trkpt lat="44.48655" lon="5.03421">
        <ele>370.3</ele>
        <time>2021-11-19T11:59:12Z</time>
      </trkpt>
      <trkpt lat="44.48655" lon="5.03421">
        <ele>370.3</ele>
        <time>2021-11-19T11:59:13Z</time>
      </trkpt>
      <trkpt lat="44.48655" lon="5.03421">
        <ele>370.3</ele>
        <time>2021-11-19T11:59:14Z</time>
      </trkpt>
      <trkpt lat="44.48655" lon="5.03421">
        <ele>370.3</ele>
        <time>2021-11-19T11:59:15Z</time>
      </trkpt>
      <trkpt lat="44.48655" lon="5.03421">
        <ele>370.3</ele>
        <time>2021-11-19T11:59:16Z</time>
      </trkpt>
      <trkpt lat="44.48655" lon="5.03421">
        <ele>370.3</ele>
        <time>2021-11-19T11:59:17Z</time>
      </trkpt>
      <trkpt lat="44.48655" lon="5.03421">
        <ele>370.3</ele>
        <time>2021-11-19T11:59:18Z</time>
      </trkpt>
      <trkpt lat="44.48655" lon="5.03421">
        <ele>370.3</ele>
        <time>2021-11-19T11:59:19Z</time>
      </trkpt>
      <trkpt lat="44.48655" lon="5.03421">
        <ele>370.3</ele>
        <time>2021-11-19T11:59:20Z</time>
      </trkpt>
      <trkpt lat="44.48655" lon="5.03421">
        <ele>370.3</ele>
        <time>2021-11-19T11:59:21Z</time>
      </trkpt>
      <trkpt lat="44.48655" lon="5.03421">
        <ele>370.3</ele>
        <time>2021-11-19T11:59:22Z</time>
      </trkpt>
      <trkpt lat="44.48655" lon="5.03421">
        <ele>370.3</ele>
        <time>2021-11-19T11:59:23Z</time>
      </trkpt>
      <trkpt lat="44.48655" lon="5.03421">
        <ele>370.3</ele>
        <time>2021-11-19T11:59:24Z</time>
      </trkpt>
      <trkpt lat="44.48655" lon="5.03421">
        <ele>370.3</ele>
        <time>2021-11-19T11:59:25Z</time>
      </trkpt>
      <trkpt lat="44.48655" lon="5.03421">
        <ele>370.3</ele>
        <time>2021-11-19T11:59:26Z</time>
      </trkpt>
      <trkpt lat="44.48655" lon="5.03421">
        <ele>370.3</ele>
        <time>2021-11-19T11:59:27Z</time>
      </trkpt>
      <trkpt lat="44.48655" lon="5.03421">
        <ele>370.3</ele>
        <time>2021-11-19T11:59:28Z</time>
      </trkpt>
      <trkpt lat="44.48655" lon="5.03421">
        <ele>370.3</ele>
        <time>2021-11-19T11:59:29Z</time>
      </trkpt>
      <trkpt lat="44.48655" lon="5.03421">
        <ele>370.3</ele>
        <time>2021-11-19T11:59:30Z</time>
      </trkpt>
      <trkpt lat="44.48655" lon="5.03421">
        <ele>370.3</ele>
        <time>2021-11-19T11:59:31Z</time>
      </trkpt>
      <trkpt lat="44.48655" lon="5.03421">
        <ele>370.3</ele>
        <time>2021-11-19T11:59:32Z</time>
      </trkpt>
      <trkpt lat="44.48655" lon="5.03421">
        <ele>370.3</ele>
        <time>2021-11-19T11:59:33Z</time>
      </trkpt>
      <trkpt lat="44.48655" lon="5.03421">
        <ele>370.3</ele>
        <time>2021-11-19T11:59:34Z</time>
      </trkpt>
      <trkpt lat="44.48655" lon="5.03421">
        <ele>370.3</ele>
        <time>2021-11-19T11:59:35Z</time>
      </trkpt>
      <trkpt lat="44.48655" lon="5.03421">
        <ele>370.3</ele>
        <time>2021-11-19T11:59:36Z</time>
      </trkpt>
      <trkpt lat="44.48655" lon="5.03421">
        <ele>370.3</ele>
        <time>2021-11-19T11:59:37Z</time>
      </trkpt>
      <trkpt lat="44.48655" lon="5.03421">
        <ele>370.3</ele>
        <time>2021-11-19T11:59:38Z</time>
      </trkpt>
      <trkpt lat="44.48655" lon="5.03421">
        <ele>370.3</ele>
        <time>2021-11-19T11:59:39Z</time>
      </trkpt>
      <trkpt lat="44.48655" lon="5.03421">
        <ele>370.3</ele>
        <time>2021-11-19T11:59:40Z</time>
      </trkpt>
      <trkpt lat="44.48655" lon="5.03421">
        <ele>370.3</ele>
        <time>2021-11-19T11:59:41Z</time>
      </trkpt>
      <trkpt lat="44.48655" lon="5.03421">
        <ele>370.3</ele>
        <time>2021-11-19T11:59:42Z</time>
      </trkpt>
      <trkpt lat="44.48655" lon="5.03421">
        <ele>370.3</ele>
        <time>2021-11-19T11:59:43Z</time>
      </trkpt>
      <trkpt lat="44.48655" lon="5.03421">
        <ele>370.3</ele>
        <time>2021-11-19T11:59:44Z</time>
      </trkpt>
      <trkpt lat="44.48655" lon="5.03421">
        <ele>370.3</ele>
        <time>2021-11-19T11:59:45Z</time>
      </trkpt>
      <trkpt lat="44.48655" lon="5.03421">
        <ele>370.3</ele>
        <time>2021-11-19T11:59:46Z</time>
      </trkpt>
      <trkpt lat="44.48655" lon="5.03421">
        <ele>370.3</ele>
        <time>2021-11-19T11:59:47Z</time>
      </trkpt>
      <trkpt lat="44.48655" lon="5.03421">
        <ele>370.3</ele>
        <time>2021-11-19T11:59:48Z</time>
      </trkpt>
      <trkpt lat="44.48655" lon="5.03421">
        <ele>370.3</ele>
        <time>2021-11-19T11:59:49Z</time>
      </trkpt>
      <trkpt lat="44.48655" lon="5.03421">
        <ele>370.3</ele>
        <time>2021-11-19T11:59:50Z</time>
      </trkpt>
      <trkpt lat="44.48655" lon="5.03421">
        <ele>370.3</ele>
        <time>2021-11-19T11:59:51Z</time>
      </trkpt>
      <trkpt lat="44.48655" lon="5.03421">
        <ele>370.3</ele>
        <time>2021-11-19T11:59:52Z</time>
      </trkpt>
      <trkpt lat="44.48656" lon="5.03421">
        <ele>370.4</ele>
        <time>2021-11-19T11:59:53Z</time>
      </trkpt>
      <trkpt lat="44.48656" lon="5.03421">
        <ele>370.4</ele>
        <time>2021-11-19T11:59:55Z</time>
      </trkpt>
      <trkpt lat="44.48656" lon="5.03421">
        <ele>370.4</ele>
        <time>2021-11-19T11:59:57Z</time>
      </trkpt>
      <trkpt lat="44.48657" lon="5.03421">
        <ele>370.4</ele>
        <time>2021-11-19T11:59:59Z</time>
      </trkpt>
      <trkpt lat="44.48657" lon="5.03422">
        <ele>370.4</ele>
        <time>2021-11-19T12:00:01Z</time>
      </trkpt>
      <trkpt lat="44.48657" lon="5.03422">
        <ele>370.4</ele>
        <time>2021-11-19T12:00:03Z</time>
      </trkpt>
      <trkpt lat="44.48657" lon="5.03421">
        <ele>370.4</ele>
        <time>2021-11-19T12:00:05Z</time>
      </trkpt>
      <trkpt lat="44.48657" lon="5.03421">
        <ele>370.4</ele>
        <time>2021-11-19T12:00:06Z</time>
      </trkpt>
      <trkpt lat="44.48657" lon="5.03419">
        <ele>370.4</ele>
        <time>2021-11-19T12:00:07Z</time>
      </trkpt>
      <trkpt lat="44.48656" lon="5.03419">
        <ele>370.5</ele>
        <time>2021-11-19T12:00:10Z</time>
      </trkpt>
      <trkpt lat="44.48656" lon="5.03419">
        <ele>370.5</ele>
        <time>2021-11-19T12:00:11Z</time>
      </trkpt>
      <trkpt lat="44.48656" lon="5.0342">
        <ele>370.5</ele>
        <time>2021-11-19T12:00:12Z</time>
      </trkpt>
      <trkpt lat="44.48657" lon="5.03421">
        <ele>370.5</ele>
        <time>2021-11-19T12:00:15Z</time>
      </trkpt>
      <trkpt lat="44.48657" lon="5.03421">
        <ele>370.5</ele>
        <time>2021-11-19T12:00:18Z</time>
      </trkpt>
      <trkpt lat="44.48659" lon="5.03419">
        <ele>370.5</ele>
        <time>2021-11-19T12:00:22Z</time>
      </trkpt>
      <trkpt lat="44.48659" lon="5.03418">
        <ele>370.6</ele>
        <time>2021-11-19T12:00:24Z</time>
      </trkpt>
      <trkpt lat="44.48663" lon="5.0341">
        <ele>370.7</ele>
        <time>2021-11-19T12:00:26Z</time>
      </trkpt>
      <trkpt lat="44.48662" lon="5.03402">
        <ele>370.9</ele>
        <time>2021-11-19T12:00:28Z</time>
      </trkpt>
      <trkpt lat="44.48667" lon="5.03401">
        <ele>371</ele>
        <time>2021-11-19T12:00:29Z</time>
      </trkpt>
      <trkpt lat="44.48672" lon="5.03405">
        <ele>371.1</ele>
        <time>2021-11-19T12:00:32Z</time>
      </trkpt>
      <trkpt lat="44.48673" lon="5.03406">
        <ele>371.2</ele>
        <time>2021-11-19T12:00:33Z</time>
      </trkpt>
      <trkpt lat="44.48675" lon="5.03408">
        <ele>371.2</ele>
        <time>2021-11-19T12:00:34Z</time>
      </trkpt>
      <trkpt lat="44.48677" lon="5.0341">
        <ele>371.3</ele>
        <time>2021-11-19T12:00:35Z</time>
      </trkpt>
      <trkpt lat="44.4868" lon="5.03413">
        <ele>371.4</ele>
        <time>2021-11-19T12:00:36Z</time>
      </trkpt>
      <trkpt lat="44.48682" lon="5.03415">
        <ele>371.4</ele>
        <time>2021-11-19T12:00:37Z</time>
      </trkpt>
      <trkpt lat="44.48688" lon="5.0342">
        <ele>371.6</ele>
        <time>2021-11-19T12:00:38Z</time>
      </trkpt>
      <trkpt lat="44.48697" lon="5.03429">
        <ele>371.9</ele>
        <time>2021-11-19T12:00:40Z</time>
      </trkpt>
      <trkpt lat="44.48702" lon="5.03434">
        <ele>372</ele>
        <time>2021-11-19T12:00:41Z</time>
      </trkpt>
      <trkpt lat="44.48706" lon="5.03438">
        <ele>372.2</ele>
        <time>2021-11-19T12:00:42Z</time>
      </trkpt>
      <trkpt lat="44.48712" lon="5.03443">
        <ele>372.3</ele>
        <time>2021-11-19T12:00:44Z</time>
      </trkpt>
      <trkpt lat="44.48721" lon="5.03453">
        <ele>372.7</ele>
        <time>2021-11-19T12:00:46Z</time>
      </trkpt>
      <trkpt lat="44.48727" lon="5.03458">
        <ele>372.8</ele>
        <time>2021-11-19T12:00:49Z</time>
      </trkpt>
      <trkpt lat="44.48728" lon="5.03459">
        <ele>372.9</ele>
        <time>2021-11-19T12:00:50Z</time>
      </trkpt>
      <trkpt lat="44.4873" lon="5.0346">
        <ele>372.9</ele>
        <time>2021-11-19T12:00:51Z</time>
      </trkpt>
      <trkpt lat="44.48733" lon="5.03463">
        <ele>373</ele>
        <time>2021-11-19T12:00:52Z</time>
      </trkpt>
      <trkpt lat="44.48734" lon="5.03463">
        <ele>373</ele>
        <time>2021-11-19T12:00:53Z</time>
      </trkpt>
      <trkpt lat="44.48737" lon="5.03465">
        <ele>373.1</ele>
        <time>2021-11-19T12:00:54Z</time>
      </trkpt>
      <trkpt lat="44.48738" lon="5.03466">
        <ele>373.2</ele>
        <time>2021-11-19T12:00:55Z</time>
      </trkpt>
      <trkpt lat="44.48741" lon="5.03469">
        <ele>373.3</ele>
        <time>2021-11-19T12:00:56Z</time>
      </trkpt>
      <trkpt lat="44.48742" lon="5.03469">
        <ele>373.3</ele>
        <time>2021-11-19T12:00:57Z</time>
      </trkpt>
      <trkpt lat="44.48747" lon="5.03474">
        <ele>373.5</ele>
        <time>2021-11-19T12:00:58Z</time>
      </trkpt>
      <trkpt lat="44.48754" lon="5.0348">
        <ele>373.6</ele>
        <time>2021-11-19T12:01:01Z</time>
      </trkpt>
      <trkpt lat="44.48758" lon="5.03483">
        <ele>373.8</ele>
        <time>2021-11-19T12:01:02Z</time>
      </trkpt>
      <trkpt lat="44.4876" lon="5.03485">
        <ele>373.8</ele>
        <time>2021-11-19T12:01:03Z</time>
      </trkpt>
      <trkpt lat="44.48765" lon="5.0349">
        <ele>374</ele>
        <time>2021-11-19T12:01:04Z</time>
      </trkpt>
      <trkpt lat="44.48772" lon="5.03493">
        <ele>374.2</ele>
        <time>2021-11-19T12:01:07Z</time>
      </trkpt>
      <trkpt lat="44.48774" lon="5.03495">
        <ele>374.2</ele>
        <time>2021-11-19T12:01:08Z</time>
      </trkpt>
      <trkpt lat="44.48776" lon="5.03497">
        <ele>374.3</ele>
        <time>2021-11-19T12:01:09Z</time>
      </trkpt>
      <trkpt lat="44.48779" lon="5.03499">
        <ele>374.4</ele>
        <time>2021-11-19T12:01:11Z</time>
      </trkpt>
      <trkpt lat="44.48782" lon="5.03501">
        <ele>374.4</ele>
        <time>2021-11-19T12:01:12Z</time>
      </trkpt>
      <trkpt lat="44.48785" lon="5.03503">
        <ele>374.5</ele>
        <time>2021-11-19T12:01:13Z</time>
      </trkpt>
      <trkpt lat="44.48788" lon="5.03505">
        <ele>374.6</ele>
        <time>2021-11-19T12:01:14Z</time>
      </trkpt>
      <trkpt lat="44.48791" lon="5.03507">
        <ele>374.7</ele>
        <time>2021-11-19T12:01:15Z</time>
      </trkpt>
      <trkpt lat="44.48794" lon="5.0351">
        <ele>374.8</ele>
        <time>2021-11-19T12:01:16Z</time>
      </trkpt>
      <trkpt lat="44.48797" lon="5.03512">
        <ele>374.8</ele>
        <time>2021-11-19T12:01:17Z</time>
      </trkpt>
      <trkpt lat="44.488" lon="5.03514">
        <ele>374.9</ele>
        <time>2021-11-19T12:01:18Z</time>
      </trkpt>
      <trkpt lat="44.48802" lon="5.03516">
        <ele>375</ele>
        <time>2021-11-19T12:01:19Z</time>
      </trkpt>
      <trkpt lat="44.48805" lon="5.03519">
        <ele>375</ele>
        <time>2021-11-19T12:01:20Z</time>
      </trkpt>
      <trkpt lat="44.48808" lon="5.03521">
        <ele>375.1</ele>
        <time>2021-11-19T12:01:21Z</time>
      </trkpt>
      <trkpt lat="44.4881" lon="5.03522">
        <ele>375.2</ele>
        <time>2021-11-19T12:01:22Z</time>
      </trkpt>
      <trkpt lat="44.48814" lon="5.03525">
        <ele>375.3</ele>
        <time>2021-11-19T12:01:23Z</time>
      </trkpt>
      <trkpt lat="44.48817" lon="5.03528">
        <ele>375.3</ele>
        <time>2021-11-19T12:01:24Z</time>
      </trkpt>
      <trkpt lat="44.48819" lon="5.03529">
        <ele>375.4</ele>
        <time>2021-11-19T12:01:25Z</time>
      </trkpt>
      <trkpt lat="44.48826" lon="5.03535">
        <ele>375.6</ele>
        <time>2021-11-19T12:01:26Z</time>
      </trkpt>
      <trkpt lat="44.48833" lon="5.03539">
        <ele>375.8</ele>
        <time>2021-11-19T12:01:29Z</time>
      </trkpt>
      <trkpt lat="44.48836" lon="5.03542">
        <ele>375.9</ele>
        <time>2021-11-19T12:01:30Z</time>
      </trkpt>
      <trkpt lat="44.4884" lon="5.03544">
        <ele>376</ele>
        <time>2021-11-19T12:01:31Z</time>
      </trkpt>
      <trkpt lat="44.48843" lon="5.03546">
        <ele>376.1</ele>
        <time>2021-11-19T12:01:32Z</time>
      </trkpt>
      <trkpt lat="44.48847" lon="5.03549">
        <ele>376.2</ele>
        <time>2021-11-19T12:01:33Z</time>
      </trkpt>
      <trkpt lat="44.48852" lon="5.03552">
        <ele>376.4</ele>
        <time>2021-11-19T12:01:34Z</time>
      </trkpt>
      <trkpt lat="44.4886" lon="5.03558">
        <ele>376.6</ele>
        <time>2021-11-19T12:01:36Z</time>
      </trkpt>
      <trkpt lat="44.48867" lon="5.03563">
        <ele>376.9</ele>
        <time>2021-11-19T12:01:38Z</time>
      </trkpt>
      <trkpt lat="44.48874" lon="5.03567">
        <ele>377.1</ele>
        <time>2021-11-19T12:01:40Z</time>
      </trkpt>
      <trkpt lat="44.48879" lon="5.03571">
        <ele>377.3</ele>
        <time>2021-11-19T12:01:42Z</time>
      </trkpt>
      <trkpt lat="44.48884" lon="5.03576">
        <ele>377.5</ele>
        <time>2021-11-19T12:01:44Z</time>
      </trkpt>
      <trkpt lat="44.48888" lon="5.03579">
        <ele>377.6</ele>
        <time>2021-11-19T12:01:45Z</time>
      </trkpt>
      <trkpt lat="44.4889" lon="5.03581">
        <ele>377.7</ele>
        <time>2021-11-19T12:01:47Z</time>
      </trkpt>
      <trkpt lat="44.48894" lon="5.03583">
        <ele>377.8</ele>
        <time>2021-11-19T12:01:48Z</time>
      </trkpt>
      <trkpt lat="44.48897" lon="5.03586">
        <ele>377.9</ele>
        <time>2021-11-19T12:01:50Z</time>
      </trkpt>
      <trkpt lat="44.48901" lon="5.0359">
        <ele>378</ele>
        <time>2021-11-19T12:01:52Z</time>
      </trkpt>
      <trkpt lat="44.48909" lon="5.03597">
        <ele>378.3</ele>
        <time>2021-11-19T12:01:55Z</time>
      </trkpt>
      <trkpt lat="44.4891" lon="5.03598">
        <ele>378.4</ele>
        <time>2021-11-19T12:01:56Z</time>
      </trkpt>
      <trkpt lat="44.48913" lon="5.03601">
        <ele>378.5</ele>
        <time>2021-11-19T12:01:58Z</time>
      </trkpt>
      <trkpt lat="44.4892" lon="5.03608">
        <ele>378.7</ele>
        <time>2021-11-19T12:02:00Z</time>
      </trkpt>
      <trkpt lat="44.48924" lon="5.03611">
        <ele>378.8</ele>
        <time>2021-11-19T12:02:01Z</time>
      </trkpt>
      <trkpt lat="44.4893" lon="5.03616">
        <ele>379</ele>
        <time>2021-11-19T12:02:03Z</time>
      </trkpt>
      <trkpt lat="44.48936" lon="5.0362">
        <ele>379.2</ele>
        <time>2021-11-19T12:02:05Z</time>
      </trkpt>
      <trkpt lat="44.48943" lon="5.03625">
        <ele>379.4</ele>
        <time>2021-11-19T12:02:08Z</time>
      </trkpt>
      <trkpt lat="44.48946" lon="5.03629">
        <ele>379.5</ele>
        <time>2021-11-19T12:02:09Z</time>
      </trkpt>
      <trkpt lat="44.48947" lon="5.0363">
        <ele>379.5</ele>
        <time>2021-11-19T12:02:10Z</time>
      </trkpt>
      <trkpt lat="44.4895" lon="5.03632">
        <ele>379.6</ele>
        <time>2021-11-19T12:02:11Z</time>
      </trkpt>
      <trkpt lat="44.48956" lon="5.03635">
        <ele>379.7</ele>
        <time>2021-11-19T12:02:13Z</time>
      </trkpt>
      <trkpt lat="44.48961" lon="5.03639">
        <ele>379.8</ele>
        <time>2021-11-19T12:02:15Z</time>
      </trkpt>
      <trkpt lat="44.48965" lon="5.03643">
        <ele>379.9</ele>
        <time>2021-11-19T12:02:16Z</time>
      </trkpt>
      <trkpt lat="44.48968" lon="5.03644">
        <ele>380</ele>
        <time>2021-11-19T12:02:18Z</time>
      </trkpt>
      <trkpt lat="44.48973" lon="5.0365">
        <ele>380.1</ele>
        <time>2021-11-19T12:02:21Z</time>
      </trkpt>
      <trkpt lat="44.48978" lon="5.03654">
        <ele>380.1</ele>
        <time>2021-11-19T12:02:23Z</time>
      </trkpt>
      <trkpt lat="44.48981" lon="5.03656">
        <ele>380.2</ele>
        <time>2021-11-19T12:02:24Z</time>
      </trkpt>
      <trkpt lat="44.48985" lon="5.03659">
        <ele>380.2</ele>
        <time>2021-11-19T12:02:25Z</time>
      </trkpt>
      <trkpt lat="44.48987" lon="5.03661">
        <ele>380.3</ele>
        <time>2021-11-19T12:02:28Z</time>
      </trkpt>
      <trkpt lat="44.48988" lon="5.03662">
        <ele>380.3</ele>
        <time>2021-11-19T12:02:29Z</time>
      </trkpt>
      <trkpt lat="44.48992" lon="5.03665">
        <ele>380.4</ele>
        <time>2021-11-19T12:02:30Z</time>
      </trkpt>
      <trkpt lat="44.48997" lon="5.03669">
        <ele>380.4</ele>
        <time>2021-11-19T12:02:32Z</time>
      </trkpt>
      <trkpt lat="44.49002" lon="5.03672">
        <ele>380.5</ele>
        <time>2021-11-19T12:02:34Z</time>
      </trkpt>
      <trkpt lat="44.49006" lon="5.03675">
        <ele>380.5</ele>
        <time>2021-11-19T12:02:35Z</time>
      </trkpt>
      <trkpt lat="44.49008" lon="5.03676">
        <ele>380.6</ele>
        <time>2021-11-19T12:02:36Z</time>
      </trkpt>
      <trkpt lat="44.49012" lon="5.03679">
        <ele>380.6</ele>
        <time>2021-11-19T12:02:37Z</time>
      </trkpt>
      <trkpt lat="44.49021" lon="5.03685">
        <ele>380.8</ele>
        <time>2021-11-19T12:02:39Z</time>
      </trkpt>
      <trkpt lat="44.49031" lon="5.03691">
        <ele>380.9</ele>
        <time>2021-11-19T12:02:41Z</time>
      </trkpt>
      <trkpt lat="44.49035" lon="5.03695">
        <ele>380.9</ele>
        <time>2021-11-19T12:02:42Z</time>
      </trkpt>
      <trkpt lat="44.49041" lon="5.037">
        <ele>381</ele>
        <time>2021-11-19T12:02:44Z</time>
      </trkpt>
      <trkpt lat="44.49043" lon="5.03703">
        <ele>381.1</ele>
        <time>2021-11-19T12:02:45Z</time>
      </trkpt>
      <trkpt lat="44.49049" lon="5.03711">
        <ele>381.1</ele>
        <time>2021-11-19T12:02:47Z</time>
      </trkpt>
      <trkpt lat="44.49055" lon="5.03718">
        <ele>381.2</ele>
        <time>2021-11-19T12:02:48Z</time>
      </trkpt>
      <trkpt lat="44.49059" lon="5.03721">
        <ele>381.3</ele>
        <time>2021-11-19T12:02:50Z</time>
      </trkpt>
      <trkpt lat="44.49066" lon="5.03727">
        <ele>381.3</ele>
        <time>2021-11-19T12:02:52Z</time>
      </trkpt>
      <trkpt lat="44.49072" lon="5.03732">
        <ele>381.4</ele>
        <time>2021-11-19T12:02:54Z</time>
      </trkpt>
      <trkpt lat="44.49079" lon="5.03738">
        <ele>381.5</ele>
        <time>2021-11-19T12:02:57Z</time>
      </trkpt>
      <trkpt lat="44.49085" lon="5.03744">
        <ele>381.5</ele>
        <time>2021-11-19T12:02:59Z</time>
      </trkpt>
      <trkpt lat="44.49092" lon="5.0375">
        <ele>381.6</ele>
        <time>2021-11-19T12:03:01Z</time>
      </trkpt>
      <trkpt lat="44.49098" lon="5.03757">
        <ele>381.7</ele>
        <time>2021-11-19T12:03:03Z</time>
      </trkpt>
      <trkpt lat="44.49104" lon="5.03762">
        <ele>381.7</ele>
        <time>2021-11-19T12:03:05Z</time>
      </trkpt>
      <trkpt lat="44.49114" lon="5.03771">
        <ele>381.8</ele>
        <time>2021-11-19T12:03:08Z</time>
      </trkpt>
      <trkpt lat="44.49121" lon="5.03779">
        <ele>381.9</ele>
        <time>2021-11-19T12:03:11Z</time>
      </trkpt>
      <trkpt lat="44.49127" lon="5.03784">
        <ele>381.9</ele>
        <time>2021-11-19T12:03:12Z</time>
      </trkpt>
      <trkpt lat="44.49136" lon="5.03791">
        <ele>382</ele>
        <time>2021-11-19T12:03:14Z</time>
      </trkpt>
      <trkpt lat="44.4914" lon="5.03794">
        <ele>382.1</ele>
        <time>2021-11-19T12:03:15Z</time>
      </trkpt>
      <trkpt lat="44.49149" lon="5.038">
        <ele>382.1</ele>
        <time>2021-11-19T12:03:17Z</time>
      </trkpt>
      <trkpt lat="44.49154" lon="5.03804">
        <ele>382.2</ele>
        <time>2021-11-19T12:03:20Z</time>
      </trkpt>
      <trkpt lat="44.49165" lon="5.03813">
        <ele>382.3</ele>
        <time>2021-11-19T12:03:23Z</time>
      </trkpt>
      <trkpt lat="44.49171" lon="5.03818">
        <ele>382.4</ele>
        <time>2021-11-19T12:03:25Z</time>
      </trkpt>
      <trkpt lat="44.49178" lon="5.03823">
        <ele>382.5</ele>
        <time>2021-11-19T12:03:27Z</time>
      </trkpt>
      <trkpt lat="44.49187" lon="5.03831">
        <ele>382.5</ele>
        <time>2021-11-19T12:03:29Z</time>
      </trkpt>
      <trkpt lat="44.4919" lon="5.03833">
        <ele>382.5</ele>
        <time>2021-11-19T12:03:30Z</time>
      </trkpt>
      <trkpt lat="44.49195" lon="5.03837">
        <ele>382.6</ele>
        <time>2021-11-19T12:03:31Z</time>
      </trkpt>
      <trkpt lat="44.49202" lon="5.03843">
        <ele>382.6</ele>
        <time>2021-11-19T12:03:33Z</time>
      </trkpt>
      <trkpt lat="44.49209" lon="5.03848">
        <ele>382.7</ele>
        <time>2021-11-19T12:03:36Z</time>
      </trkpt>
      <trkpt lat="44.49212" lon="5.0385">
        <ele>382.7</ele>
        <time>2021-11-19T12:03:37Z</time>
      </trkpt>
      <trkpt lat="44.49216" lon="5.03854">
        <ele>382.7</ele>
        <time>2021-11-19T12:03:38Z</time>
      </trkpt>
      <trkpt lat="44.49225" lon="5.03861">
        <ele>382.9</ele>
        <time>2021-11-19T12:03:40Z</time>
      </trkpt>
      <trkpt lat="44.49228" lon="5.03863">
        <ele>382.9</ele>
        <time>2021-11-19T12:03:41Z</time>
      </trkpt>
      <trkpt lat="44.49237" lon="5.0387">
        <ele>383.1</ele>
        <time>2021-11-19T12:03:44Z</time>
      </trkpt>
      <trkpt lat="44.49241" lon="5.03874">
        <ele>383.1</ele>
        <time>2021-11-19T12:03:45Z</time>
      </trkpt>
      <trkpt lat="44.49248" lon="5.03881">
        <ele>383.3</ele>
        <time>2021-11-19T12:03:47Z</time>
      </trkpt>
      <trkpt lat="44.49257" lon="5.03888">
        <ele>383.5</ele>
        <time>2021-11-19T12:03:49Z</time>
      </trkpt>
      <trkpt lat="44.49261" lon="5.03891">
        <ele>383.6</ele>
        <time>2021-11-19T12:03:50Z</time>
      </trkpt>
      <trkpt lat="44.49263" lon="5.03893">
        <ele>383.6</ele>
        <time>2021-11-19T12:03:51Z</time>
      </trkpt>
      <trkpt lat="44.49267" lon="5.03896">
        <ele>383.7</ele>
        <time>2021-11-19T12:03:53Z</time>
      </trkpt>
      <trkpt lat="44.49271" lon="5.03898">
        <ele>383.9</ele>
        <time>2021-11-19T12:03:54Z</time>
      </trkpt>
      <trkpt lat="44.49277" lon="5.03901">
        <ele>384.1</ele>
        <time>2021-11-19T12:03:57Z</time>
      </trkpt>
      <trkpt lat="44.49283" lon="5.03906">
        <ele>384.3</ele>
        <time>2021-11-19T12:03:58Z</time>
      </trkpt>
      <trkpt lat="44.49289" lon="5.03911">
        <ele>384.5</ele>
        <time>2021-11-19T12:04:01Z</time>
      </trkpt>
      <trkpt lat="44.49295" lon="5.03917">
        <ele>384.7</ele>
        <time>2021-11-19T12:04:03Z</time>
      </trkpt>
      <trkpt lat="44.49295" lon="5.03918">
        <ele>384.7</ele>
        <time>2021-11-19T12:04:06Z</time>
      </trkpt>
      <trkpt lat="44.49297" lon="5.0392">
        <ele>384.8</ele>
        <time>2021-11-19T12:04:07Z</time>
      </trkpt>
      <trkpt lat="44.493" lon="5.03922">
        <ele>384.8</ele>
        <time>2021-11-19T12:04:08Z</time>
      </trkpt>
      <trkpt lat="44.49304" lon="5.03926">
        <ele>385</ele>
        <time>2021-11-19T12:04:09Z</time>
      </trkpt>
      <trkpt lat="44.49306" lon="5.03928">
        <ele>385.1</ele>
        <time>2021-11-19T12:04:10Z</time>
      </trkpt>
      <trkpt lat="44.49312" lon="5.03932">
        <ele>385.2</ele>
        <time>2021-11-19T12:04:11Z</time>
      </trkpt>
      <trkpt lat="44.49318" lon="5.03938">
        <ele>385.5</ele>
        <time>2021-11-19T12:04:14Z</time>
      </trkpt>
      <trkpt lat="44.49321" lon="5.03942">
        <ele>385.6</ele>
        <time>2021-11-19T12:04:15Z</time>
      </trkpt>
      <trkpt lat="44.49322" lon="5.03943">
        <ele>385.6</ele>
        <time>2021-11-19T12:04:16Z</time>
      </trkpt>
      <trkpt lat="44.49325" lon="5.03945">
        <ele>385.7</ele>
        <time>2021-11-19T12:04:17Z</time>
      </trkpt>
      <trkpt lat="44.49327" lon="5.03948">
        <ele>385.8</ele>
        <time>2021-11-19T12:04:18Z</time>
      </trkpt>
      <trkpt lat="44.49334" lon="5.03952">
        <ele>386</ele>
        <time>2021-11-19T12:04:19Z</time>
      </trkpt>
      <trkpt lat="44.49341" lon="5.03959">
        <ele>386.2</ele>
        <time>2021-11-19T12:04:21Z</time>
      </trkpt>
      <trkpt lat="44.49349" lon="5.03968">
        <ele>386.5</ele>
        <time>2021-11-19T12:04:23Z</time>
      </trkpt>
      <trkpt lat="44.49357" lon="5.03974">
        <ele>386.8</ele>
        <time>2021-11-19T12:04:25Z</time>
      </trkpt>
      <trkpt lat="44.4936" lon="5.03977">
        <ele>386.8</ele>
        <time>2021-11-19T12:04:26Z</time>
      </trkpt>
      <trkpt lat="44.49363" lon="5.0398">
        <ele>387</ele>
        <time>2021-11-19T12:04:27Z</time>
      </trkpt>
      <trkpt lat="44.4937" lon="5.03986">
        <ele>387.2</ele>
        <time>2021-11-19T12:04:29Z</time>
      </trkpt>
      <trkpt lat="44.49375" lon="5.03989">
        <ele>387.4</ele>
        <time>2021-11-19T12:04:31Z</time>
      </trkpt>
      <trkpt lat="44.49377" lon="5.03991">
        <ele>387.4</ele>
        <time>2021-11-19T12:04:32Z</time>
      </trkpt>
      <trkpt lat="44.49379" lon="5.03992">
        <ele>387.5</ele>
        <time>2021-11-19T12:04:33Z</time>
      </trkpt>
      <trkpt lat="44.49385" lon="5.03996">
        <ele>387.7</ele>
        <time>2021-11-19T12:04:35Z</time>
      </trkpt>
      <trkpt lat="44.49388" lon="5.03998">
        <ele>387.8</ele>
        <time>2021-11-19T12:04:36Z</time>
      </trkpt>
      <trkpt lat="44.49395" lon="5.04003">
        <ele>388</ele>
        <time>2021-11-19T12:04:38Z</time>
      </trkpt>
      <trkpt lat="44.49398" lon="5.04006">
        <ele>388.1</ele>
        <time>2021-11-19T12:04:39Z</time>
      </trkpt>
      <trkpt lat="44.49401" lon="5.04008">
        <ele>388.2</ele>
        <time>2021-11-19T12:04:40Z</time>
      </trkpt>
      <trkpt lat="44.49406" lon="5.04011">
        <ele>388.4</ele>
        <time>2021-11-19T12:04:42Z</time>
      </trkpt>
      <trkpt lat="44.49408" lon="5.04012">
        <ele>388.4</ele>
        <time>2021-11-19T12:04:43Z</time>
      </trkpt>
      <trkpt lat="44.49415" lon="5.04016">
        <ele>388.6</ele>
        <time>2021-11-19T12:04:46Z</time>
      </trkpt>
      <trkpt lat="44.49418" lon="5.04018">
        <ele>388.7</ele>
        <time>2021-11-19T12:04:47Z</time>
      </trkpt>
      <trkpt lat="44.49423" lon="5.04022">
        <ele>388.9</ele>
        <time>2021-11-19T12:04:48Z</time>
      </trkpt>
      <trkpt lat="44.49425" lon="5.04023">
        <ele>389</ele>
        <time>2021-11-19T12:04:50Z</time>
      </trkpt>
      <trkpt lat="44.49432" lon="5.0403">
        <ele>389.2</ele>
        <time>2021-11-19T12:04:52Z</time>
      </trkpt>
      <trkpt lat="44.49437" lon="5.04034">
        <ele>389.4</ele>
        <time>2021-11-19T12:04:55Z</time>
      </trkpt>
      <trkpt lat="44.4944" lon="5.04037">
        <ele>389.5</ele>
        <time>2021-11-19T12:04:56Z</time>
      </trkpt>
      <trkpt lat="44.49447" lon="5.04041">
        <ele>389.7</ele>
        <time>2021-11-19T12:04:58Z</time>
      </trkpt>
      <trkpt lat="44.49453" lon="5.04047">
        <ele>390</ele>
        <time>2021-11-19T12:05:01Z</time>
      </trkpt>
      <trkpt lat="44.49456" lon="5.04049">
        <ele>390.1</ele>
        <time>2021-11-19T12:05:02Z</time>
      </trkpt>
      <trkpt lat="44.49459" lon="5.04051">
        <ele>390.2</ele>
        <time>2021-11-19T12:05:03Z</time>
      </trkpt>
      <trkpt lat="44.49462" lon="5.04054">
        <ele>390.3</ele>
        <time>2021-11-19T12:05:04Z</time>
      </trkpt>
      <trkpt lat="44.49465" lon="5.04057">
        <ele>390.5</ele>
        <time>2021-11-19T12:05:05Z</time>
      </trkpt>
      <trkpt lat="44.49468" lon="5.04059">
        <ele>390.6</ele>
        <time>2021-11-19T12:05:06Z</time>
      </trkpt>
      <trkpt lat="44.49471" lon="5.04061">
        <ele>390.7</ele>
        <time>2021-11-19T12:05:07Z</time>
      </trkpt>
      <trkpt lat="44.49474" lon="5.04062">
        <ele>390.8</ele>
        <time>2021-11-19T12:05:08Z</time>
      </trkpt>
      <trkpt lat="44.49476" lon="5.04064">
        <ele>390.9</ele>
        <time>2021-11-19T12:05:09Z</time>
      </trkpt>
      <trkpt lat="44.49479" lon="5.04067">
        <ele>391</ele>
        <time>2021-11-19T12:05:10Z</time>
      </trkpt>
      <trkpt lat="44.49482" lon="5.04071">
        <ele>391.1</ele>
        <time>2021-11-19T12:05:11Z</time>
      </trkpt>
      <trkpt lat="44.49489" lon="5.04077">
        <ele>391.4</ele>
        <time>2021-11-19T12:05:14Z</time>
      </trkpt>
      <trkpt lat="44.49494" lon="5.04082">
        <ele>391.6</ele>
        <time>2021-11-19T12:05:15Z</time>
      </trkpt>
      <trkpt lat="44.49497" lon="5.04084">
        <ele>391.7</ele>
        <time>2021-11-19T12:05:17Z</time>
      </trkpt>
      <trkpt lat="44.49501" lon="5.04088">
        <ele>391.9</ele>
        <time>2021-11-19T12:05:18Z</time>
      </trkpt>
      <trkpt lat="44.49506" lon="5.04093">
        <ele>392.1</ele>
        <time>2021-11-19T12:05:20Z</time>
      </trkpt>
      <trkpt lat="44.49509" lon="5.04095">
        <ele>392.2</ele>
        <time>2021-11-19T12:05:21Z</time>
      </trkpt>
      <trkpt lat="44.49512" lon="5.04098">
        <ele>392.3</ele>
        <time>2021-11-19T12:05:23Z</time>
      </trkpt>
      <trkpt lat="44.49516" lon="5.04102">
        <ele>392.4</ele>
        <time>2021-11-19T12:05:24Z</time>
      </trkpt>
      <trkpt lat="44.4952" lon="5.04105">
        <ele>392.6</ele>
        <time>2021-11-19T12:05:26Z</time>
      </trkpt>
      <trkpt lat="44.4953" lon="5.04112">
        <ele>392.8</ele>
        <time>2021-11-19T12:05:28Z</time>
      </trkpt>
      <trkpt lat="44.49536" lon="5.04118">
        <ele>393</ele>
        <time>2021-11-19T12:05:29Z</time>
      </trkpt>
      <trkpt lat="44.49541" lon="5.04122">
        <ele>393.2</ele>
        <time>2021-11-19T12:05:31Z</time>
      </trkpt>
      <trkpt lat="44.49543" lon="5.04124">
        <ele>393.3</ele>
        <time>2021-11-19T12:05:32Z</time>
      </trkpt>
      <trkpt lat="44.49547" lon="5.04127">
        <ele>393.4</ele>
        <time>2021-11-19T12:05:34Z</time>
      </trkpt>
      <trkpt lat="44.49554" lon="5.04132">
        <ele>393.6</ele>
        <time>2021-11-19T12:05:36Z</time>
      </trkpt>
      <trkpt lat="44.49557" lon="5.04134">
        <ele>393.7</ele>
        <time>2021-11-19T12:05:37Z</time>
      </trkpt>
      <trkpt lat="44.49564" lon="5.04139">
        <ele>393.9</ele>
        <time>2021-11-19T12:05:39Z</time>
      </trkpt>
      <trkpt lat="44.4956" lon="5.04138">
        <ele>393.9</ele>
        <time>2021-11-19T12:05:42Z</time>
      </trkpt>
      <trkpt lat="44.49558" lon="5.04137">
        <ele>394</ele>
        <time>2021-11-19T12:05:43Z</time>
      </trkpt>
      <trkpt lat="44.49555" lon="5.04135">
        <ele>394</ele>
        <time>2021-11-19T12:05:45Z</time>
      </trkpt>
      <trkpt lat="44.49548" lon="5.04131">
        <ele>394.2</ele>
        <time>2021-11-19T12:05:47Z</time>
      </trkpt>
      <trkpt lat="44.49549" lon="5.04132">
        <ele>394.2</ele>
        <time>2021-11-19T12:05:48Z</time>
      </trkpt>
      <trkpt lat="44.4955" lon="5.04133">
        <ele>394.2</ele>
        <time>2021-11-19T12:05:51Z</time>
      </trkpt>
      <trkpt lat="44.49552" lon="5.04134">
        <ele>394.3</ele>
        <time>2021-11-19T12:05:52Z</time>
      </trkpt>
      <trkpt lat="44.49553" lon="5.04135">
        <ele>394.3</ele>
        <time>2021-11-19T12:05:53Z</time>
      </trkpt>
      <trkpt lat="44.49554" lon="5.04136">
        <ele>394.3</ele>
        <time>2021-11-19T12:06:32Z</time>
      </trkpt>
      <trkpt lat="44.49555" lon="5.04137">
        <ele>394.4</ele>
        <time>2021-11-19T12:06:35Z</time>
      </trkpt>
      <trkpt lat="44.49557" lon="5.04138">
        <ele>394.4</ele>
        <time>2021-11-19T12:06:36Z</time>
      </trkpt>
      <trkpt lat="44.49566" lon="5.04146">
        <ele>394.6</ele>
        <time>2021-11-19T12:06:38Z</time>
      </trkpt>
      <trkpt lat="44.49576" lon="5.04152">
        <ele>394.8</ele>
        <time>2021-11-19T12:06:40Z</time>
      </trkpt>
      <trkpt lat="44.49586" lon="5.04159">
        <ele>395.1</ele>
        <time>2021-11-19T12:06:42Z</time>
      </trkpt>
      <trkpt lat="44.49594" lon="5.04164">
        <ele>395.3</ele>
        <time>2021-11-19T12:06:44Z</time>
      </trkpt>
      <trkpt lat="44.49602" lon="5.04169">
        <ele>395.4</ele>
        <time>2021-11-19T12:06:46Z</time>
      </trkpt>
      <trkpt lat="44.49607" lon="5.04172">
        <ele>395.5</ele>
        <time>2021-11-19T12:06:47Z</time>
      </trkpt>
      <trkpt lat="44.49611" lon="5.04176">
        <ele>395.6</ele>
        <time>2021-11-19T12:06:49Z</time>
      </trkpt>
      <trkpt lat="44.49619" lon="5.04179">
        <ele>395.8</ele>
        <time>2021-11-19T12:06:52Z</time>
      </trkpt>
      <trkpt lat="44.49622" lon="5.04182">
        <ele>395.9</ele>
        <time>2021-11-19T12:06:53Z</time>
      </trkpt>
      <trkpt lat="44.4963" lon="5.04192">
        <ele>396</ele>
        <time>2021-11-19T12:06:55Z</time>
      </trkpt>
      <trkpt lat="44.49634" lon="5.042">
        <ele>396.2</ele>
        <time>2021-11-19T12:06:57Z</time>
      </trkpt>
      <trkpt lat="44.49637" lon="5.04205">
        <ele>396.2</ele>
        <time>2021-11-19T12:06:59Z</time>
      </trkpt>
      <trkpt lat="44.49641" lon="5.04207">
        <ele>396.3</ele>
        <time>2021-11-19T12:07:00Z</time>
      </trkpt>
      <trkpt lat="44.4965" lon="5.04215">
        <ele>396.5</ele>
        <time>2021-11-19T12:07:02Z</time>
      </trkpt>
      <trkpt lat="44.49653" lon="5.0422">
        <ele>396.6</ele>
        <time>2021-11-19T12:07:03Z</time>
      </trkpt>
      <trkpt lat="44.49661" lon="5.04229">
        <ele>396.8</ele>
        <time>2021-11-19T12:07:06Z</time>
      </trkpt>
      <trkpt lat="44.49664" lon="5.04232">
        <ele>396.8</ele>
        <time>2021-11-19T12:07:07Z</time>
      </trkpt>
      <trkpt lat="44.49669" lon="5.04237">
        <ele>397</ele>
        <time>2021-11-19T12:07:08Z</time>
      </trkpt>
      <trkpt lat="44.49673" lon="5.04244">
        <ele>397.1</ele>
        <time>2021-11-19T12:07:09Z</time>
      </trkpt>
      <trkpt lat="44.49683" lon="5.04258">
        <ele>397.4</ele>
        <time>2021-11-19T12:07:11Z</time>
      </trkpt>
      <trkpt lat="44.4968" lon="5.04253">
        <ele>397.5</ele>
        <time>2021-11-19T12:07:12Z</time>
      </trkpt>
      <trkpt lat="44.49675" lon="5.04252">
        <ele>397.6</ele>
        <time>2021-11-19T12:07:14Z</time>
      </trkpt>
      <trkpt lat="44.49684" lon="5.04262">
        <ele>397.9</ele>
        <time>2021-11-19T12:07:16Z</time>
      </trkpt>
      <trkpt lat="44.49695" lon="5.04271">
        <ele>398.1</ele>
        <time>2021-11-19T12:07:18Z</time>
      </trkpt>
      <trkpt lat="44.49701" lon="5.04276">
        <ele>398.3</ele>
        <time>2021-11-19T12:07:19Z</time>
      </trkpt>
      <trkpt lat="44.4971" lon="5.04285">
        <ele>398.7</ele>
        <time>2021-11-19T12:07:21Z</time>
      </trkpt>
      <trkpt lat="44.49714" lon="5.04289">
        <ele>398.8</ele>
        <time>2021-11-19T12:07:22Z</time>
      </trkpt>
      <trkpt lat="44.49716" lon="5.04291">
        <ele>398.9</ele>
        <time>2021-11-19T12:07:23Z</time>
      </trkpt>
      <trkpt lat="44.4972" lon="5.04295">
        <ele>399</ele>
        <time>2021-11-19T12:07:24Z</time>
      </trkpt>
      <trkpt lat="44.49728" lon="5.04306">
        <ele>399.2</ele>
        <time>2021-11-19T12:07:26Z</time>
      </trkpt>
      <trkpt lat="44.49733" lon="5.0431">
        <ele>399.3</ele>
        <time>2021-11-19T12:07:27Z</time>
      </trkpt>
      <trkpt lat="44.4974" lon="5.04316">
        <ele>399.4</ele>
        <time>2021-11-19T12:07:29Z</time>
      </trkpt>
      <trkpt lat="44.49751" lon="5.0432">
        <ele>399.5</ele>
        <time>2021-11-19T12:07:31Z</time>
      </trkpt>
      <trkpt lat="44.49756" lon="5.04327">
        <ele>399.6</ele>
        <time>2021-11-19T12:07:33Z</time>
      </trkpt>
      <trkpt lat="44.49757" lon="5.0433">
        <ele>399.6</ele>
        <time>2021-11-19T12:07:34Z</time>
      </trkpt>
      <trkpt lat="44.49765" lon="5.0434">
        <ele>399.7</ele>
        <time>2021-11-19T12:07:36Z</time>
      </trkpt>
      <trkpt lat="44.49767" lon="5.04348">
        <ele>399.7</ele>
        <time>2021-11-19T12:07:37Z</time>
      </trkpt>
      <trkpt lat="44.49768" lon="5.04364">
        <ele>399.8</ele>
        <time>2021-11-19T12:07:40Z</time>
      </trkpt>
      <trkpt lat="44.49772" lon="5.0437">
        <ele>399.9</ele>
        <time>2021-11-19T12:07:41Z</time>
      </trkpt>
      <trkpt lat="44.49775" lon="5.04381">
        <ele>399.9</ele>
        <time>2021-11-19T12:07:43Z</time>
      </trkpt>
      <trkpt lat="44.49779" lon="5.04393">
        <ele>400</ele>
        <time>2021-11-19T12:07:45Z</time>
      </trkpt>
      <trkpt lat="44.49783" lon="5.04404">
        <ele>400.1</ele>
        <time>2021-11-19T12:07:46Z</time>
      </trkpt>
      <trkpt lat="44.49787" lon="5.04416">
        <ele>400.3</ele>
        <time>2021-11-19T12:07:48Z</time>
      </trkpt>
      <trkpt lat="44.49792" lon="5.04429">
        <ele>400.4</ele>
        <time>2021-11-19T12:07:51Z</time>
      </trkpt>
      <trkpt lat="44.49794" lon="5.04436">
        <ele>400.5</ele>
        <time>2021-11-19T12:07:53Z</time>
      </trkpt>
      <trkpt lat="44.49796" lon="5.04441">
        <ele>400.6</ele>
        <time>2021-11-19T12:07:54Z</time>
      </trkpt>
      <trkpt lat="44.498" lon="5.04448">
        <ele>400.7</ele>
        <time>2021-11-19T12:07:55Z</time>
      </trkpt>
      <trkpt lat="44.49807" lon="5.04464">
        <ele>400.8</ele>
        <time>2021-11-19T12:07:57Z</time>
      </trkpt>
      <trkpt lat="44.49811" lon="5.04478">
        <ele>401</ele>
        <time>2021-11-19T12:07:59Z</time>
      </trkpt>
      <trkpt lat="44.49812" lon="5.04484">
        <ele>401</ele>
        <time>2021-11-19T12:08:00Z</time>
      </trkpt>
      <trkpt lat="44.49814" lon="5.04496">
        <ele>401.2</ele>
        <time>2021-11-19T12:08:02Z</time>
      </trkpt>
      <trkpt lat="44.49814" lon="5.04506">
        <ele>401.2</ele>
        <time>2021-11-19T12:08:05Z</time>
      </trkpt>
      <trkpt lat="44.49815" lon="5.0452">
        <ele>401.4</ele>
        <time>2021-11-19T12:08:06Z</time>
      </trkpt>
      <trkpt lat="44.49815" lon="5.04523">
        <ele>401.4</ele>
        <time>2021-11-19T12:08:07Z</time>
      </trkpt>
      <trkpt lat="44.49815" lon="5.0453">
        <ele>401.5</ele>
        <time>2021-11-19T12:08:08Z</time>
      </trkpt>
      <trkpt lat="44.49814" lon="5.04536">
        <ele>401.5</ele>
        <time>2021-11-19T12:08:10Z</time>
      </trkpt>
      <trkpt lat="44.49813" lon="5.04543">
        <ele>401.6</ele>
        <time>2021-11-19T12:08:11Z</time>
      </trkpt>
      <trkpt lat="44.49811" lon="5.0455">
        <ele>401.7</ele>
        <time>2021-11-19T12:08:12Z</time>
      </trkpt>
      <trkpt lat="44.49811" lon="5.04555">
        <ele>401.7</ele>
        <time>2021-11-19T12:08:13Z</time>
      </trkpt>
      <trkpt lat="44.49811" lon="5.04562">
        <ele>401.8</ele>
        <time>2021-11-19T12:08:14Z</time>
      </trkpt>
      <trkpt lat="44.49811" lon="5.0457">
        <ele>401.9</ele>
        <time>2021-11-19T12:08:15Z</time>
      </trkpt>
      <trkpt lat="44.4981" lon="5.04576">
        <ele>401.9</ele>
        <time>2021-11-19T12:08:16Z</time>
      </trkpt>
      <trkpt lat="44.49807" lon="5.04593">
        <ele>402.1</ele>
        <time>2021-11-19T12:08:18Z</time>
      </trkpt>
      <trkpt lat="44.49805" lon="5.04608">
        <ele>402.2</ele>
        <time>2021-11-19T12:08:20Z</time>
      </trkpt>
      <trkpt lat="44.49805" lon="5.04616">
        <ele>402.2</ele>
        <time>2021-11-19T12:08:21Z</time>
      </trkpt>
      <trkpt lat="44.49804" lon="5.04625">
        <ele>402.3</ele>
        <time>2021-11-19T12:08:22Z</time>
      </trkpt>
      <trkpt lat="44.49804" lon="5.04639">
        <ele>402.4</ele>
        <time>2021-11-19T12:08:24Z</time>
      </trkpt>
      <trkpt lat="44.49802" lon="5.04617">
        <ele>402.5</ele>
        <time>2021-11-19T12:08:27Z</time>
      </trkpt>
      <trkpt lat="44.49802" lon="5.04622">
        <ele>402.6</ele>
        <time>2021-11-19T12:08:28Z</time>
      </trkpt>
      <trkpt lat="44.49801" lon="5.04628">
        <ele>402.6</ele>
        <time>2021-11-19T12:08:29Z</time>
      </trkpt>
      <trkpt lat="44.49801" lon="5.04635">
        <ele>402.6</ele>
        <time>2021-11-19T12:08:30Z</time>
      </trkpt>
      <trkpt lat="44.498" lon="5.04641">
        <ele>402.7</ele>
        <time>2021-11-19T12:08:31Z</time>
      </trkpt>
      <trkpt lat="44.49799" lon="5.04647">
        <ele>402.7</ele>
        <time>2021-11-19T12:08:32Z</time>
      </trkpt>
      <trkpt lat="44.49798" lon="5.04653">
        <ele>402.8</ele>
        <time>2021-11-19T12:08:33Z</time>
      </trkpt>
      <trkpt lat="44.49793" lon="5.04658">
        <ele>402.9</ele>
        <time>2021-11-19T12:08:34Z</time>
      </trkpt>
      <trkpt lat="44.4979" lon="5.04653">
        <ele>402.9</ele>
        <time>2021-11-19T12:08:35Z</time>
      </trkpt>
      <trkpt lat="44.49788" lon="5.0468">
        <ele>403.1</ele>
        <time>2021-11-19T12:08:37Z</time>
      </trkpt>
      <trkpt lat="44.49786" lon="5.04699">
        <ele>403.2</ele>
        <time>2021-11-19T12:08:39Z</time>
      </trkpt>
      <trkpt lat="44.4979" lon="5.04705">
        <ele>403.2</ele>
        <time>2021-11-19T12:08:40Z</time>
      </trkpt>
      <trkpt lat="44.49783" lon="5.04721">
        <ele>403.4</ele>
        <time>2021-11-19T12:08:42Z</time>
      </trkpt>
      <trkpt lat="44.49775" lon="5.04737">
        <ele>403.5</ele>
        <time>2021-11-19T12:08:44Z</time>
      </trkpt>
      <trkpt lat="44.49765" lon="5.04745">
        <ele>403.6</ele>
        <time>2021-11-19T12:08:47Z</time>
      </trkpt>
      <trkpt lat="44.4976" lon="5.0475">
        <ele>403.7</ele>
        <time>2021-11-19T12:08:48Z</time>
      </trkpt>
      <trkpt lat="44.49755" lon="5.04768">
        <ele>403.7</ele>
        <time>2021-11-19T12:08:51Z</time>
      </trkpt>
      <trkpt lat="44.49751" lon="5.04775">
        <ele>403.8</ele>
        <time>2021-11-19T12:08:54Z</time>
      </trkpt>
      <trkpt lat="44.49748" lon="5.0478">
        <ele>403.8</ele>
        <time>2021-11-19T12:08:55Z</time>
      </trkpt>
      <trkpt lat="44.49746" lon="5.04786">
        <ele>403.8</ele>
        <time>2021-11-19T12:08:56Z</time>
      </trkpt>
      <trkpt lat="44.49743" lon="5.04791">
        <ele>403.8</ele>
        <time>2021-11-19T12:08:57Z</time>
      </trkpt>
      <trkpt lat="44.49747" lon="5.04802">
        <ele>403.9</ele>
        <time>2021-11-19T12:08:58Z</time>
      </trkpt>
      <trkpt lat="44.49741" lon="5.04811">
        <ele>403.9</ele>
        <time>2021-11-19T12:09:00Z</time>
      </trkpt>
      <trkpt lat="44.49731" lon="5.04828">
        <ele>404</ele>
        <time>2021-11-19T12:09:03Z</time>
      </trkpt>
      <trkpt lat="44.49728" lon="5.04834">
        <ele>404.1</ele>
        <time>2021-11-19T12:09:04Z</time>
      </trkpt>
      <trkpt lat="44.49725" lon="5.0484">
        <ele>404.1</ele>
        <time>2021-11-19T12:09:05Z</time>
      </trkpt>
      <trkpt lat="44.49722" lon="5.04846">
        <ele>404.1</ele>
        <time>2021-11-19T12:09:06Z</time>
      </trkpt>
      <trkpt lat="44.49718" lon="5.04852">
        <ele>404.2</ele>
        <time>2021-11-19T12:09:07Z</time>
      </trkpt>
      <trkpt lat="44.49715" lon="5.04858">
        <ele>404.2</ele>
        <time>2021-11-19T12:09:08Z</time>
      </trkpt>
      <trkpt lat="44.49712" lon="5.04864">
        <ele>404.2</ele>
        <time>2021-11-19T12:09:09Z</time>
      </trkpt>
      <trkpt lat="44.4971" lon="5.04871">
        <ele>404.3</ele>
        <time>2021-11-19T12:09:10Z</time>
      </trkpt>
      <trkpt lat="44.49708" lon="5.04877">
        <ele>404.3</ele>
        <time>2021-11-19T12:09:11Z</time>
      </trkpt>
      <trkpt lat="44.49705" lon="5.04886">
        <ele>404.4</ele>
        <time>2021-11-19T12:09:12Z</time>
      </trkpt>
      <trkpt lat="44.49703" lon="5.04892">
        <ele>404.4</ele>
        <time>2021-11-19T12:09:13Z</time>
      </trkpt>
      <trkpt lat="44.49701" lon="5.04898">
        <ele>404.5</ele>
        <time>2021-11-19T12:09:14Z</time>
      </trkpt>
      <trkpt lat="44.497" lon="5.04905">
        <ele>404.5</ele>
        <time>2021-11-19T12:09:15Z</time>
      </trkpt>
      <trkpt lat="44.49698" lon="5.04912">
        <ele>404.6</ele>
        <time>2021-11-19T12:09:16Z</time>
      </trkpt>
      <trkpt lat="44.49697" lon="5.04919">
        <ele>404.7</ele>
        <time>2021-11-19T12:09:17Z</time>
      </trkpt>
      <trkpt lat="44.49696" lon="5.04927">
        <ele>404.7</ele>
        <time>2021-11-19T12:09:18Z</time>
      </trkpt>
      <trkpt lat="44.49695" lon="5.04934">
        <ele>404.8</ele>
        <time>2021-11-19T12:09:19Z</time>
      </trkpt>
      <trkpt lat="44.49694" lon="5.04941">
        <ele>404.8</ele>
        <time>2021-11-19T12:09:20Z</time>
      </trkpt>
      <trkpt lat="44.49694" lon="5.04947">
        <ele>404.9</ele>
        <time>2021-11-19T12:09:21Z</time>
      </trkpt>
      <trkpt lat="44.49697" lon="5.0495">
        <ele>404.9</ele>
        <time>2021-11-19T12:09:22Z</time>
      </trkpt>
      <trkpt lat="44.49695" lon="5.04957">
        <ele>404.9</ele>
        <time>2021-11-19T12:09:23Z</time>
      </trkpt>
      <trkpt lat="44.49693" lon="5.04967">
        <ele>405</ele>
        <time>2021-11-19T12:09:24Z</time>
      </trkpt>
      <trkpt lat="44.49692" lon="5.04973">
        <ele>405.1</ele>
        <time>2021-11-19T12:09:25Z</time>
      </trkpt>
      <trkpt lat="44.49689" lon="5.04989">
        <ele>405.2</ele>
        <time>2021-11-19T12:09:26Z</time>
      </trkpt>
      <trkpt lat="44.49691" lon="5.05">
        <ele>405.3</ele>
        <time>2021-11-19T12:09:28Z</time>
      </trkpt>
      <trkpt lat="44.4969" lon="5.05013">
        <ele>405.3</ele>
        <time>2021-11-19T12:09:29Z</time>
      </trkpt>
      <trkpt lat="44.49688" lon="5.05024">
        <ele>405.4</ele>
        <time>2021-11-19T12:09:30Z</time>
      </trkpt>
      <trkpt lat="44.49686" lon="5.05036">
        <ele>405.5</ele>
        <time>2021-11-19T12:09:32Z</time>
      </trkpt>
      <trkpt lat="44.49679" lon="5.05058">
        <ele>405.6</ele>
        <time>2021-11-19T12:09:34Z</time>
      </trkpt>
      <trkpt lat="44.49673" lon="5.05073">
        <ele>405.8</ele>
        <time>2021-11-19T12:09:36Z</time>
      </trkpt>
      <trkpt lat="44.4967" lon="5.05068">
        <ele>405.8</ele>
        <time>2021-11-19T12:09:37Z</time>
      </trkpt>
      <trkpt lat="44.4967" lon="5.05083">
        <ele>405.9</ele>
        <time>2021-11-19T12:09:39Z</time>
      </trkpt>
      <trkpt lat="44.49668" lon="5.05093">
        <ele>406</ele>
        <time>2021-11-19T12:09:40Z</time>
      </trkpt>
      <trkpt lat="44.49665" lon="5.05103">
        <ele>406.1</ele>
        <time>2021-11-19T12:09:42Z</time>
      </trkpt>
      <trkpt lat="44.49658" lon="5.0512">
        <ele>406.2</ele>
        <time>2021-11-19T12:09:44Z</time>
      </trkpt>
      <trkpt lat="44.49655" lon="5.05127">
        <ele>406.2</ele>
        <time>2021-11-19T12:09:45Z</time>
      </trkpt>
      <trkpt lat="44.49651" lon="5.05139">
        <ele>406.3</ele>
        <time>2021-11-19T12:09:47Z</time>
      </trkpt>
      <trkpt lat="44.49648" lon="5.05149">
        <ele>406.4</ele>
        <time>2021-11-19T12:09:49Z</time>
      </trkpt>
      <trkpt lat="44.49646" lon="5.05153">
        <ele>406.4</ele>
        <time>2021-11-19T12:09:50Z</time>
      </trkpt>
      <trkpt lat="44.49644" lon="5.05157">
        <ele>406.4</ele>
        <time>2021-11-19T12:09:51Z</time>
      </trkpt>
      <trkpt lat="44.4964" lon="5.05167">
        <ele>406.5</ele>
        <time>2021-11-19T12:09:53Z</time>
      </trkpt>
      <trkpt lat="44.49638" lon="5.05171">
        <ele>406.5</ele>
        <time>2021-11-19T12:09:54Z</time>
      </trkpt>
      <trkpt lat="44.49641" lon="5.05161">
        <ele>406.6</ele>
        <time>2021-11-19T12:09:56Z</time>
      </trkpt>
      <trkpt lat="44.49641" lon="5.05175">
        <ele>406.7</ele>
        <time>2021-11-19T12:09:59Z</time>
      </trkpt>
      <trkpt lat="44.49641" lon="5.05182">
        <ele>406.7</ele>
        <time>2021-11-19T12:10:00Z</time>
      </trkpt>
      <trkpt lat="44.4964" lon="5.05189">
        <ele>406.7</ele>
        <time>2021-11-19T12:10:01Z</time>
      </trkpt>
      <trkpt lat="44.4964" lon="5.05197">
        <ele>406.7</ele>
        <time>2021-11-19T12:10:02Z</time>
      </trkpt>
      <trkpt lat="44.49639" lon="5.05204">
        <ele>406.7</ele>
        <time>2021-11-19T12:10:03Z</time>
      </trkpt>
      <trkpt lat="44.49639" lon="5.05212">
        <ele>406.8</ele>
        <time>2021-11-19T12:10:04Z</time>
      </trkpt>
      <trkpt lat="44.49638" lon="5.0522">
        <ele>406.8</ele>
        <time>2021-11-19T12:10:05Z</time>
      </trkpt>
      <trkpt lat="44.49637" lon="5.05228">
        <ele>406.8</ele>
        <time>2021-11-19T12:10:06Z</time>
      </trkpt>
      <trkpt lat="44.49636" lon="5.05236">
        <ele>406.9</ele>
        <time>2021-11-19T12:10:07Z</time>
      </trkpt>
      <trkpt lat="44.49634" lon="5.05244">
        <ele>406.9</ele>
        <time>2021-11-19T12:10:08Z</time>
      </trkpt>
      <trkpt lat="44.49633" lon="5.05252">
        <ele>407</ele>
        <time>2021-11-19T12:10:09Z</time>
      </trkpt>
      <trkpt lat="44.49633" lon="5.0526">
        <ele>407</ele>
        <time>2021-11-19T12:10:10Z</time>
      </trkpt>
      <trkpt lat="44.49632" lon="5.05268">
        <ele>407.1</ele>
        <time>2021-11-19T12:10:11Z</time>
      </trkpt>
      <trkpt lat="44.49631" lon="5.05276">
        <ele>407.1</ele>
        <time>2021-11-19T12:10:12Z</time>
      </trkpt>
      <trkpt lat="44.49629" lon="5.05284">
        <ele>407.2</ele>
        <time>2021-11-19T12:10:13Z</time>
      </trkpt>
      <trkpt lat="44.49628" lon="5.05292">
        <ele>407.2</ele>
        <time>2021-11-19T12:10:14Z</time>
      </trkpt>
      <trkpt lat="44.49627" lon="5.053">
        <ele>407.3</ele>
        <time>2021-11-19T12:10:15Z</time>
      </trkpt>
      <trkpt lat="44.49626" lon="5.05307">
        <ele>407.3</ele>
        <time>2021-11-19T12:10:16Z</time>
      </trkpt>
      <trkpt lat="44.49625" lon="5.05316">
        <ele>407.4</ele>
        <time>2021-11-19T12:10:17Z</time>
      </trkpt>
      <trkpt lat="44.49624" lon="5.05324">
        <ele>407.4</ele>
        <time>2021-11-19T12:10:18Z</time>
      </trkpt>
      <trkpt lat="44.49622" lon="5.05332">
        <ele>407.4</ele>
        <time>2021-11-19T12:10:19Z</time>
      </trkpt>
      <trkpt lat="44.49619" lon="5.0534">
        <ele>407.5</ele>
        <time>2021-11-19T12:10:20Z</time>
      </trkpt>
      <trkpt lat="44.49617" lon="5.05349">
        <ele>407.5</ele>
        <time>2021-11-19T12:10:21Z</time>
      </trkpt>
      <trkpt lat="44.49616" lon="5.05357">
        <ele>407.5</ele>
        <time>2021-11-19T12:10:22Z</time>
      </trkpt>
      <trkpt lat="44.49615" lon="5.05365">
        <ele>407.5</ele>
        <time>2021-11-19T12:10:23Z</time>
      </trkpt>
      <trkpt lat="44.49614" lon="5.05373">
        <ele>407.6</ele>
        <time>2021-11-19T12:10:24Z</time>
      </trkpt>
      <trkpt lat="44.49614" lon="5.0538">
        <ele>407.6</ele>
        <time>2021-11-19T12:10:25Z</time>
      </trkpt>
      <trkpt lat="44.49613" lon="5.05388">
        <ele>407.6</ele>
        <time>2021-11-19T12:10:26Z</time>
      </trkpt>
      <trkpt lat="44.49612" lon="5.05396">
        <ele>407.6</ele>
        <time>2021-11-19T12:10:27Z</time>
      </trkpt>
      <trkpt lat="44.49612" lon="5.05404">
        <ele>407.7</ele>
        <time>2021-11-19T12:10:28Z</time>
      </trkpt>
      <trkpt lat="44.49612" lon="5.05411">
        <ele>407.7</ele>
        <time>2021-11-19T12:10:29Z</time>
      </trkpt>
      <trkpt lat="44.4961" lon="5.05419">
        <ele>407.8</ele>
        <time>2021-11-19T12:10:30Z</time>
      </trkpt>
      <trkpt lat="44.49609" lon="5.05427">
        <ele>407.8</ele>
        <time>2021-11-19T12:10:31Z</time>
      </trkpt>
      <trkpt lat="44.49608" lon="5.05435">
        <ele>407.8</ele>
        <time>2021-11-19T12:10:32Z</time>
      </trkpt>
      <trkpt lat="44.49607" lon="5.05442">
        <ele>407.9</ele>
        <time>2021-11-19T12:10:33Z</time>
      </trkpt>
      <trkpt lat="44.49606" lon="5.0545">
        <ele>407.9</ele>
        <time>2021-11-19T12:10:34Z</time>
      </trkpt>
      <trkpt lat="44.49606" lon="5.05458">
        <ele>407.9</ele>
        <time>2021-11-19T12:10:35Z</time>
      </trkpt>
      <trkpt lat="44.49606" lon="5.05466">
        <ele>407.9</ele>
        <time>2021-11-19T12:10:36Z</time>
      </trkpt>
      <trkpt lat="44.49606" lon="5.05473">
        <ele>407.9</ele>
        <time>2021-11-19T12:10:37Z</time>
      </trkpt>
      <trkpt lat="44.49605" lon="5.05481">
        <ele>408</ele>
        <time>2021-11-19T12:10:38Z</time>
      </trkpt>
      <trkpt lat="44.49605" lon="5.05488">
        <ele>408</ele>
        <time>2021-11-19T12:10:39Z</time>
      </trkpt>
      <trkpt lat="44.49605" lon="5.05495">
        <ele>408</ele>
        <time>2021-11-19T12:10:40Z</time>
      </trkpt>
      <trkpt lat="44.49604" lon="5.05503">
        <ele>408</ele>
        <time>2021-11-19T12:10:41Z</time>
      </trkpt>
      <trkpt lat="44.49604" lon="5.0551">
        <ele>408</ele>
        <time>2021-11-19T12:10:42Z</time>
      </trkpt>
      <trkpt lat="44.49605" lon="5.05518">
        <ele>408</ele>
        <time>2021-11-19T12:10:43Z</time>
      </trkpt>
      <trkpt lat="44.49606" lon="5.05526">
        <ele>408</ele>
        <time>2021-11-19T12:10:44Z</time>
      </trkpt>
      <trkpt lat="44.49606" lon="5.05534">
        <ele>408.1</ele>
        <time>2021-11-19T12:10:45Z</time>
      </trkpt>
      <trkpt lat="44.49607" lon="5.05543">
        <ele>408.1</ele>
        <time>2021-11-19T12:10:46Z</time>
      </trkpt>
      <trkpt lat="44.49607" lon="5.05551">
        <ele>408.1</ele>
        <time>2021-11-19T12:10:47Z</time>
      </trkpt>
      <trkpt lat="44.49607" lon="5.0556">
        <ele>408.1</ele>
        <time>2021-11-19T12:10:48Z</time>
      </trkpt>
      <trkpt lat="44.49607" lon="5.05568">
        <ele>408.2</ele>
        <time>2021-11-19T12:10:49Z</time>
      </trkpt>
      <trkpt lat="44.49608" lon="5.05577">
        <ele>408.2</ele>
        <time>2021-11-19T12:10:50Z</time>
      </trkpt>
      <trkpt lat="44.49608" lon="5.05585">
        <ele>408.3</ele>
        <time>2021-11-19T12:10:51Z</time>
      </trkpt>
      <trkpt lat="44.49609" lon="5.05593">
        <ele>408.3</ele>
        <time>2021-11-19T12:10:52Z</time>
      </trkpt>
      <trkpt lat="44.49609" lon="5.05601">
        <ele>408.4</ele>
        <time>2021-11-19T12:10:53Z</time>
      </trkpt>
      <trkpt lat="44.49609" lon="5.0561">
        <ele>408.4</ele>
        <time>2021-11-19T12:10:54Z</time>
      </trkpt>
      <trkpt lat="44.4961" lon="5.05618">
        <ele>408.5</ele>
        <time>2021-11-19T12:10:55Z</time>
      </trkpt>
      <trkpt lat="44.4961" lon="5.05626">
        <ele>408.5</ele>
        <time>2021-11-19T12:10:56Z</time>
      </trkpt>
      <trkpt lat="44.4961" lon="5.05635">
        <ele>408.6</ele>
        <time>2021-11-19T12:10:57Z</time>
      </trkpt>
      <trkpt lat="44.4961" lon="5.05641">
        <ele>408.7</ele>
        <time>2021-11-19T12:10:58Z</time>
      </trkpt>
      <trkpt lat="44.4961" lon="5.05648">
        <ele>408.7</ele>
        <time>2021-11-19T12:10:59Z</time>
      </trkpt>
      <trkpt lat="44.49611" lon="5.05655">
        <ele>408.8</ele>
        <time>2021-11-19T12:11:00Z</time>
      </trkpt>
      <trkpt lat="44.49611" lon="5.05661">
        <ele>408.9</ele>
        <time>2021-11-19T12:11:01Z</time>
      </trkpt>
      <trkpt lat="44.49612" lon="5.05668">
        <ele>409</ele>
        <time>2021-11-19T12:11:02Z</time>
      </trkpt>
      <trkpt lat="44.49612" lon="5.05675">
        <ele>409.1</ele>
        <time>2021-11-19T12:11:03Z</time>
      </trkpt>
      <trkpt lat="44.49612" lon="5.05682">
        <ele>409.2</ele>
        <time>2021-11-19T12:11:04Z</time>
      </trkpt>
      <trkpt lat="44.49613" lon="5.0569">
        <ele>409.3</ele>
        <time>2021-11-19T12:11:05Z</time>
      </trkpt>
      <trkpt lat="44.49614" lon="5.05697">
        <ele>409.4</ele>
        <time>2021-11-19T12:11:06Z</time>
      </trkpt>
      <trkpt lat="44.49615" lon="5.05704">
        <ele>409.4</ele>
        <time>2021-11-19T12:11:07Z</time>
      </trkpt>
      <trkpt lat="44.49615" lon="5.05711">
        <ele>409.5</ele>
        <time>2021-11-19T12:11:08Z</time>
      </trkpt>
      <trkpt lat="44.49614" lon="5.05717">
        <ele>409.6</ele>
        <time>2021-11-19T12:11:09Z</time>
      </trkpt>
      <trkpt lat="44.49615" lon="5.05724">
        <ele>409.7</ele>
        <time>2021-11-19T12:11:10Z</time>
      </trkpt>
      <trkpt lat="44.49616" lon="5.05732">
        <ele>409.8</ele>
        <time>2021-11-19T12:11:11Z</time>
      </trkpt>
      <trkpt lat="44.49616" lon="5.05739">
        <ele>409.9</ele>
        <time>2021-11-19T12:11:12Z</time>
      </trkpt>
      <trkpt lat="44.49617" lon="5.05747">
        <ele>410</ele>
        <time>2021-11-19T12:11:13Z</time>
      </trkpt>
      <trkpt lat="44.49618" lon="5.05754">
        <ele>410.1</ele>
        <time>2021-11-19T12:11:14Z</time>
      </trkpt>
      <trkpt lat="44.49619" lon="5.05761">
        <ele>410.2</ele>
        <time>2021-11-19T12:11:15Z</time>
      </trkpt>
      <trkpt lat="44.4962" lon="5.05767">
        <ele>410.4</ele>
        <time>2021-11-19T12:11:16Z</time>
      </trkpt>
      <trkpt lat="44.4962" lon="5.05775">
        <ele>410.5</ele>
        <time>2021-11-19T12:11:17Z</time>
      </trkpt>
      <trkpt lat="44.4962" lon="5.05782">
        <ele>410.6</ele>
        <time>2021-11-19T12:11:18Z</time>
      </trkpt>
      <trkpt lat="44.4962" lon="5.05788">
        <ele>410.7</ele>
        <time>2021-11-19T12:11:19Z</time>
      </trkpt>
      <trkpt lat="44.49621" lon="5.05797">
        <ele>410.8</ele>
        <time>2021-11-19T12:11:20Z</time>
      </trkpt>
      <trkpt lat="44.49622" lon="5.05812">
        <ele>411.1</ele>
        <time>2021-11-19T12:11:21Z</time>
      </trkpt>
      <trkpt lat="44.49605" lon="5.05806">
        <ele>411.4</ele>
        <time>2021-11-19T12:11:23Z</time>
      </trkpt>
      <trkpt lat="44.49618" lon="5.05831">
        <ele>411.8</ele>
        <time>2021-11-19T12:11:26Z</time>
      </trkpt>
      <trkpt lat="44.4962" lon="5.05838">
        <ele>411.9</ele>
        <time>2021-11-19T12:11:27Z</time>
      </trkpt>
      <trkpt lat="44.49622" lon="5.05844">
        <ele>412</ele>
        <time>2021-11-19T12:11:28Z</time>
      </trkpt>
      <trkpt lat="44.49622" lon="5.05851">
        <ele>412.1</ele>
        <time>2021-11-19T12:11:29Z</time>
      </trkpt>
      <trkpt lat="44.49624" lon="5.0586">
        <ele>412.2</ele>
        <time>2021-11-19T12:11:30Z</time>
      </trkpt>
      <trkpt lat="44.49625" lon="5.05866">
        <ele>412.3</ele>
        <time>2021-11-19T12:11:31Z</time>
      </trkpt>
      <trkpt lat="44.49626" lon="5.05872">
        <ele>412.4</ele>
        <time>2021-11-19T12:11:32Z</time>
      </trkpt>
      <trkpt lat="44.49626" lon="5.05879">
        <ele>412.5</ele>
        <time>2021-11-19T12:11:33Z</time>
      </trkpt>
      <trkpt lat="44.49623" lon="5.05894">
        <ele>412.7</ele>
        <time>2021-11-19T12:11:34Z</time>
      </trkpt>
      <trkpt lat="44.4962" lon="5.05898">
        <ele>412.7</ele>
        <time>2021-11-19T12:11:36Z</time>
      </trkpt>
      <trkpt lat="44.49621" lon="5.05925">
        <ele>413.1</ele>
        <time>2021-11-19T12:11:38Z</time>
      </trkpt>
      <trkpt lat="44.4963" lon="5.05943">
        <ele>413.5</ele>
        <time>2021-11-19T12:11:41Z</time>
      </trkpt>
      <trkpt lat="44.49623" lon="5.05944">
        <ele>413.6</ele>
        <time>2021-11-19T12:11:43Z</time>
      </trkpt>
      <trkpt lat="44.49627" lon="5.05969">
        <ele>413.9</ele>
        <time>2021-11-19T12:11:45Z</time>
      </trkpt>
      <trkpt lat="44.4963" lon="5.05982">
        <ele>414.1</ele>
        <time>2021-11-19T12:11:46Z</time>
      </trkpt>
      <trkpt lat="44.49636" lon="5.06004">
        <ele>414.3</ele>
        <time>2021-11-19T12:11:48Z</time>
      </trkpt>
      <trkpt lat="44.49638" lon="5.06014">
        <ele>414.3</ele>
        <time>2021-11-19T12:11:49Z</time>
      </trkpt>
      <trkpt lat="44.49642" lon="5.06013">
        <ele>414.3</ele>
        <time>2021-11-19T12:11:51Z</time>
      </trkpt>
      <trkpt lat="44.49641" lon="5.0602">
        <ele>414.3</ele>
        <time>2021-11-19T12:11:53Z</time>
      </trkpt>
      <trkpt lat="44.49647" lon="5.06008">
        <ele>414.3</ele>
        <time>2021-11-19T12:11:55Z</time>
      </trkpt>
      <trkpt lat="44.49654" lon="5.06029">
        <ele>414.5</ele>
        <time>2021-11-19T12:11:58Z</time>
      </trkpt>
      <trkpt lat="44.49657" lon="5.06035">
        <ele>414.5</ele>
        <time>2021-11-19T12:11:59Z</time>
      </trkpt>
      <trkpt lat="44.4966" lon="5.06041">
        <ele>414.5</ele>
        <time>2021-11-19T12:12:00Z</time>
      </trkpt>
      <trkpt lat="44.49663" lon="5.06046">
        <ele>414.6</ele>
        <time>2021-11-19T12:12:01Z</time>
      </trkpt>
      <trkpt lat="44.49666" lon="5.06052">
        <ele>414.6</ele>
        <time>2021-11-19T12:12:02Z</time>
      </trkpt>
      <trkpt lat="44.49669" lon="5.06057">
        <ele>414.7</ele>
        <time>2021-11-19T12:12:03Z</time>
      </trkpt>
      <trkpt lat="44.49672" lon="5.06063">
        <ele>414.7</ele>
        <time>2021-11-19T12:12:04Z</time>
      </trkpt>
      <trkpt lat="44.49675" lon="5.06068">
        <ele>414.7</ele>
        <time>2021-11-19T12:12:05Z</time>
      </trkpt>
      <trkpt lat="44.49677" lon="5.06074">
        <ele>414.8</ele>
        <time>2021-11-19T12:12:06Z</time>
      </trkpt>
      <trkpt lat="44.4968" lon="5.06079">
        <ele>414.8</ele>
        <time>2021-11-19T12:12:07Z</time>
      </trkpt>
      <trkpt lat="44.49683" lon="5.06085">
        <ele>414.9</ele>
        <time>2021-11-19T12:12:08Z</time>
      </trkpt>
      <trkpt lat="44.49686" lon="5.06091">
        <ele>414.9</ele>
        <time>2021-11-19T12:12:09Z</time>
      </trkpt>
      <trkpt lat="44.49689" lon="5.06096">
        <ele>414.9</ele>
        <time>2021-11-19T12:12:10Z</time>
      </trkpt>
      <trkpt lat="44.49693" lon="5.06102">
        <ele>414.9</ele>
        <time>2021-11-19T12:12:11Z</time>
      </trkpt>
      <trkpt lat="44.49697" lon="5.06107">
        <ele>414.9</ele>
        <time>2021-11-19T12:12:12Z</time>
      </trkpt>
      <trkpt lat="44.497" lon="5.06112">
        <ele>414.9</ele>
        <time>2021-11-19T12:12:13Z</time>
      </trkpt>
      <trkpt lat="44.49705" lon="5.06119">
        <ele>414.9</ele>
        <time>2021-11-19T12:12:14Z</time>
      </trkpt>
      <trkpt lat="44.49709" lon="5.06124">
        <ele>414.9</ele>
        <time>2021-11-19T12:12:15Z</time>
      </trkpt>
      <trkpt lat="44.49714" lon="5.0613">
        <ele>415</ele>
        <time>2021-11-19T12:12:16Z</time>
      </trkpt>
      <trkpt lat="44.49718" lon="5.06135">
        <ele>415</ele>
        <time>2021-11-19T12:12:17Z</time>
      </trkpt>
      <trkpt lat="44.49721" lon="5.0614">
        <ele>415</ele>
        <time>2021-11-19T12:12:18Z</time>
      </trkpt>
      <trkpt lat="44.49725" lon="5.06146">
        <ele>415</ele>
        <time>2021-11-19T12:12:19Z</time>
      </trkpt>
      <trkpt lat="44.4973" lon="5.06151">
        <ele>415</ele>
        <time>2021-11-19T12:12:20Z</time>
      </trkpt>
      <trkpt lat="44.49737" lon="5.06158">
        <ele>415</ele>
        <time>2021-11-19T12:12:21Z</time>
      </trkpt>
      <trkpt lat="44.49744" lon="5.06164">
        <ele>415.1</ele>
        <time>2021-11-19T12:12:22Z</time>
      </trkpt>
      <trkpt lat="44.4975" lon="5.0617">
        <ele>415.1</ele>
        <time>2021-11-19T12:12:23Z</time>
      </trkpt>
      <trkpt lat="44.49755" lon="5.06176">
        <ele>415.1</ele>
        <time>2021-11-19T12:12:24Z</time>
      </trkpt>
      <trkpt lat="44.49761" lon="5.06181">
        <ele>415.1</ele>
        <time>2021-11-19T12:12:25Z</time>
      </trkpt>
      <trkpt lat="44.49766" lon="5.06187">
        <ele>415.1</ele>
        <time>2021-11-19T12:12:26Z</time>
      </trkpt>
      <trkpt lat="44.49771" lon="5.06192">
        <ele>415.1</ele>
        <time>2021-11-19T12:12:27Z</time>
      </trkpt>
      <trkpt lat="44.49776" lon="5.06198">
        <ele>415.1</ele>
        <time>2021-11-19T12:12:28Z</time>
      </trkpt>
      <trkpt lat="44.4978" lon="5.06203">
        <ele>415.1</ele>
        <time>2021-11-19T12:12:29Z</time>
      </trkpt>
      <trkpt lat="44.49783" lon="5.06209">
        <ele>415.1</ele>
        <time>2021-11-19T12:12:30Z</time>
      </trkpt>
      <trkpt lat="44.49786" lon="5.06216">
        <ele>415.1</ele>
        <time>2021-11-19T12:12:31Z</time>
      </trkpt>
      <trkpt lat="44.49789" lon="5.06222">
        <ele>415.2</ele>
        <time>2021-11-19T12:12:32Z</time>
      </trkpt>
      <trkpt lat="44.49792" lon="5.06228">
        <ele>415.2</ele>
        <time>2021-11-19T12:12:33Z</time>
      </trkpt>
      <trkpt lat="44.49795" lon="5.06233">
        <ele>415.2</ele>
        <time>2021-11-19T12:12:34Z</time>
      </trkpt>
      <trkpt lat="44.49799" lon="5.06238">
        <ele>415.3</ele>
        <time>2021-11-19T12:12:35Z</time>
      </trkpt>
      <trkpt lat="44.49801" lon="5.06244">
        <ele>415.4</ele>
        <time>2021-11-19T12:12:36Z</time>
      </trkpt>
      <trkpt lat="44.49804" lon="5.06251">
        <ele>415.4</ele>
        <time>2021-11-19T12:12:37Z</time>
      </trkpt>
      <trkpt lat="44.49806" lon="5.06258">
        <ele>415.5</ele>
        <time>2021-11-19T12:12:38Z</time>
      </trkpt>
      <trkpt lat="44.49809" lon="5.06264">
        <ele>415.6</ele>
        <time>2021-11-19T12:12:39Z</time>
      </trkpt>
      <trkpt lat="44.49811" lon="5.06269">
        <ele>415.6</ele>
        <time>2021-11-19T12:12:40Z</time>
      </trkpt>
      <trkpt lat="44.49814" lon="5.06275">
        <ele>415.7</ele>
        <time>2021-11-19T12:12:41Z</time>
      </trkpt>
      <trkpt lat="44.49818" lon="5.06283">
        <ele>415.8</ele>
        <time>2021-11-19T12:12:42Z</time>
      </trkpt>
      <trkpt lat="44.49821" lon="5.0629">
        <ele>415.9</ele>
        <time>2021-11-19T12:12:43Z</time>
      </trkpt>
      <trkpt lat="44.49824" lon="5.06296">
        <ele>416</ele>
        <time>2021-11-19T12:12:44Z</time>
      </trkpt>
      <trkpt lat="44.49825" lon="5.063">
        <ele>416.1</ele>
        <time>2021-11-19T12:12:45Z</time>
      </trkpt>
      <trkpt lat="44.49827" lon="5.06306">
        <ele>416.1</ele>
        <time>2021-11-19T12:12:46Z</time>
      </trkpt>
      <trkpt lat="44.49829" lon="5.0631">
        <ele>416.2</ele>
        <time>2021-11-19T12:12:47Z</time>
      </trkpt>
      <trkpt lat="44.49831" lon="5.06315">
        <ele>416.3</ele>
        <time>2021-11-19T12:12:48Z</time>
      </trkpt>
      <trkpt lat="44.49833" lon="5.0632">
        <ele>416.4</ele>
        <time>2021-11-19T12:12:49Z</time>
      </trkpt>
      <trkpt lat="44.49833" lon="5.06327">
        <ele>416.4</ele>
        <time>2021-11-19T12:12:50Z</time>
      </trkpt>
      <trkpt lat="44.49837" lon="5.0633">
        <ele>416.5</ele>
        <time>2021-11-19T12:12:51Z</time>
      </trkpt>
      <trkpt lat="44.4984" lon="5.06329">
        <ele>416.6</ele>
        <time>2021-11-19T12:12:52Z</time>
      </trkpt>
      <trkpt lat="44.49841" lon="5.06336">
        <ele>416.7</ele>
        <time>2021-11-19T12:12:53Z</time>
      </trkpt>
      <trkpt lat="44.49841" lon="5.06341">
        <ele>416.8</ele>
        <time>2021-11-19T12:12:54Z</time>
      </trkpt>
      <trkpt lat="44.49842" lon="5.06347">
        <ele>416.8</ele>
        <time>2021-11-19T12:12:55Z</time>
      </trkpt>
      <trkpt lat="44.49846" lon="5.06364">
        <ele>417.1</ele>
        <time>2021-11-19T12:12:58Z</time>
      </trkpt>
      <trkpt lat="44.49847" lon="5.06372">
        <ele>417.2</ele>
        <time>2021-11-19T12:12:59Z</time>
      </trkpt>
      <trkpt lat="44.49848" lon="5.06387">
        <ele>417.5</ele>
        <time>2021-11-19T12:13:01Z</time>
      </trkpt>
      <trkpt lat="44.49848" lon="5.06404">
        <ele>417.8</ele>
        <time>2021-11-19T12:13:04Z</time>
      </trkpt>
      <trkpt lat="44.49848" lon="5.06411">
        <ele>417.9</ele>
        <time>2021-11-19T12:13:05Z</time>
      </trkpt>
      <trkpt lat="44.49848" lon="5.06432">
        <ele>418.3</ele>
        <time>2021-11-19T12:13:08Z</time>
      </trkpt>
      <trkpt lat="44.49852" lon="5.06448">
        <ele>418.6</ele>
        <time>2021-11-19T12:13:11Z</time>
      </trkpt>
      <trkpt lat="44.49855" lon="5.06455">
        <ele>418.8</ele>
        <time>2021-11-19T12:13:12Z</time>
      </trkpt>
      <trkpt lat="44.49857" lon="5.0646">
        <ele>418.9</ele>
        <time>2021-11-19T12:13:14Z</time>
      </trkpt>
      <trkpt lat="44.49858" lon="5.06464">
        <ele>419</ele>
        <time>2021-11-19T12:13:15Z</time>
      </trkpt>
      <trkpt lat="44.49859" lon="5.0647">
        <ele>419.1</ele>
        <time>2021-11-19T12:13:16Z</time>
      </trkpt>
      <trkpt lat="44.4986" lon="5.06474">
        <ele>419.2</ele>
        <time>2021-11-19T12:13:17Z</time>
      </trkpt>
      <trkpt lat="44.4986" lon="5.06482">
        <ele>419.3</ele>
        <time>2021-11-19T12:13:19Z</time>
      </trkpt>
      <trkpt lat="44.49862" lon="5.06495">
        <ele>419.6</ele>
        <time>2021-11-19T12:13:20Z</time>
      </trkpt>
      <trkpt lat="44.49862" lon="5.06502">
        <ele>419.8</ele>
        <time>2021-11-19T12:13:22Z</time>
      </trkpt>
      <trkpt lat="44.49862" lon="5.06509">
        <ele>420</ele>
        <time>2021-11-19T12:13:23Z</time>
      </trkpt>
      <trkpt lat="44.49862" lon="5.06516">
        <ele>420.1</ele>
        <time>2021-11-19T12:13:24Z</time>
      </trkpt>
      <trkpt lat="44.49863" lon="5.06529">
        <ele>420.5</ele>
        <time>2021-11-19T12:13:26Z</time>
      </trkpt>
      <trkpt lat="44.49863" lon="5.06537">
        <ele>420.7</ele>
        <time>2021-11-19T12:13:27Z</time>
      </trkpt>
      <trkpt lat="44.49864" lon="5.06541">
        <ele>420.8</ele>
        <time>2021-11-19T12:13:28Z</time>
      </trkpt>
      <trkpt lat="44.49864" lon="5.06547">
        <ele>420.9</ele>
        <time>2021-11-19T12:13:29Z</time>
      </trkpt>
      <trkpt lat="44.49866" lon="5.06554">
        <ele>421.1</ele>
        <time>2021-11-19T12:13:30Z</time>
      </trkpt>
      <trkpt lat="44.49867" lon="5.06562">
        <ele>421.4</ele>
        <time>2021-11-19T12:13:31Z</time>
      </trkpt>
      <trkpt lat="44.49868" lon="5.06574">
        <ele>421.7</ele>
        <time>2021-11-19T12:13:33Z</time>
      </trkpt>
      <trkpt lat="44.49868" lon="5.06584">
        <ele>422</ele>
        <time>2021-11-19T12:13:35Z</time>
      </trkpt>
      <trkpt lat="44.49869" lon="5.06591">
        <ele>422.2</ele>
        <time>2021-11-19T12:13:37Z</time>
      </trkpt>
      <trkpt lat="44.4987" lon="5.06597">
        <ele>422.3</ele>
        <time>2021-11-19T12:13:39Z</time>
      </trkpt>
      <trkpt lat="44.49871" lon="5.06604">
        <ele>422.5</ele>
        <time>2021-11-19T12:13:40Z</time>
      </trkpt>
      <trkpt lat="44.49872" lon="5.06616">
        <ele>422.8</ele>
        <time>2021-11-19T12:13:42Z</time>
      </trkpt>
      <trkpt lat="44.49875" lon="5.06625">
        <ele>423.1</ele>
        <time>2021-11-19T12:13:44Z</time>
      </trkpt>
      <trkpt lat="44.49877" lon="5.06634">
        <ele>423.3</ele>
        <time>2021-11-19T12:13:46Z</time>
      </trkpt>
      <trkpt lat="44.49878" lon="5.06641">
        <ele>423.5</ele>
        <time>2021-11-19T12:13:47Z</time>
      </trkpt>
      <trkpt lat="44.4988" lon="5.06645">
        <ele>423.6</ele>
        <time>2021-11-19T12:13:48Z</time>
      </trkpt>
      <trkpt lat="44.4988" lon="5.0665">
        <ele>423.7</ele>
        <time>2021-11-19T12:13:50Z</time>
      </trkpt>
      <trkpt lat="44.49881" lon="5.06655">
        <ele>423.9</ele>
        <time>2021-11-19T12:13:51Z</time>
      </trkpt>
      <trkpt lat="44.49883" lon="5.06663">
        <ele>424.1</ele>
        <time>2021-11-19T12:13:52Z</time>
      </trkpt>
      <trkpt lat="44.49885" lon="5.0667">
        <ele>424.3</ele>
        <time>2021-11-19T12:13:54Z</time>
      </trkpt>
      <trkpt lat="44.49886" lon="5.06674">
        <ele>424.4</ele>
        <time>2021-11-19T12:13:55Z</time>
      </trkpt>
      <trkpt lat="44.49887" lon="5.06678">
        <ele>424.5</ele>
        <time>2021-11-19T12:13:56Z</time>
      </trkpt>
      <trkpt lat="44.49889" lon="5.06686">
        <ele>424.8</ele>
        <time>2021-11-19T12:13:59Z</time>
      </trkpt>
      <trkpt lat="44.4989" lon="5.06692">
        <ele>424.9</ele>
        <time>2021-11-19T12:14:00Z</time>
      </trkpt>
      <trkpt lat="44.49893" lon="5.06702">
        <ele>425.2</ele>
        <time>2021-11-19T12:14:02Z</time>
      </trkpt>
      <trkpt lat="44.49895" lon="5.06708">
        <ele>425.4</ele>
        <time>2021-11-19T12:14:03Z</time>
      </trkpt>
      <trkpt lat="44.49898" lon="5.06715">
        <ele>425.6</ele>
        <time>2021-11-19T12:14:05Z</time>
      </trkpt>
      <trkpt lat="44.49901" lon="5.06722">
        <ele>425.8</ele>
        <time>2021-11-19T12:14:07Z</time>
      </trkpt>
      <trkpt lat="44.49902" lon="5.06725">
        <ele>425.9</ele>
        <time>2021-11-19T12:14:08Z</time>
      </trkpt>
      <trkpt lat="44.49904" lon="5.06733">
        <ele>426.1</ele>
        <time>2021-11-19T12:14:10Z</time>
      </trkpt>
      <trkpt lat="44.49908" lon="5.06741">
        <ele>426.3</ele>
        <time>2021-11-19T12:14:12Z</time>
      </trkpt>
      <trkpt lat="44.4991" lon="5.06745">
        <ele>426.4</ele>
        <time>2021-11-19T12:14:13Z</time>
      </trkpt>
      <trkpt lat="44.49914" lon="5.06754">
        <ele>426.7</ele>
        <time>2021-11-19T12:14:15Z</time>
      </trkpt>
      <trkpt lat="44.49916" lon="5.06757">
        <ele>426.8</ele>
        <time>2021-11-19T12:14:16Z</time>
      </trkpt>
      <trkpt lat="44.49921" lon="5.06765">
        <ele>427.1</ele>
        <time>2021-11-19T12:14:18Z</time>
      </trkpt>
      <trkpt lat="44.49922" lon="5.06768">
        <ele>427.1</ele>
        <time>2021-11-19T12:14:19Z</time>
      </trkpt>
      <trkpt lat="44.49926" lon="5.06776">
        <ele>427.4</ele>
        <time>2021-11-19T12:14:21Z</time>
      </trkpt>
      <trkpt lat="44.49928" lon="5.06781">
        <ele>427.6</ele>
        <time>2021-11-19T12:14:22Z</time>
      </trkpt>
      <trkpt lat="44.49931" lon="5.06787">
        <ele>427.7</ele>
        <time>2021-11-19T12:14:23Z</time>
      </trkpt>
      <trkpt lat="44.49936" lon="5.06801">
        <ele>428.1</ele>
        <time>2021-11-19T12:14:26Z</time>
      </trkpt>
      <trkpt lat="44.4994" lon="5.06813">
        <ele>428.5</ele>
        <time>2021-11-19T12:14:29Z</time>
      </trkpt>
      <trkpt lat="44.49942" lon="5.06817">
        <ele>428.6</ele>
        <time>2021-11-19T12:14:30Z</time>
      </trkpt>
      <trkpt lat="44.49944" lon="5.06821">
        <ele>428.7</ele>
        <time>2021-11-19T12:14:31Z</time>
      </trkpt>
      <trkpt lat="44.49946" lon="5.06826">
        <ele>428.9</ele>
        <time>2021-11-19T12:14:32Z</time>
      </trkpt>
      <trkpt lat="44.49951" lon="5.06832">
        <ele>429.2</ele>
        <time>2021-11-19T12:14:33Z</time>
      </trkpt>
      <trkpt lat="44.49954" lon="5.06837">
        <ele>429.3</ele>
        <time>2021-11-19T12:14:34Z</time>
      </trkpt>
      <trkpt lat="44.49956" lon="5.06839">
        <ele>429.4</ele>
        <time>2021-11-19T12:14:35Z</time>
      </trkpt>
      <trkpt lat="44.49964" lon="5.06848">
        <ele>429.8</ele>
        <time>2021-11-19T12:14:37Z</time>
      </trkpt>
      <trkpt lat="44.4997" lon="5.06857">
        <ele>430.2</ele>
        <time>2021-11-19T12:14:39Z</time>
      </trkpt>
      <trkpt lat="44.49978" lon="5.06864">
        <ele>430.5</ele>
        <time>2021-11-19T12:14:41Z</time>
      </trkpt>
      <trkpt lat="44.49987" lon="5.06873">
        <ele>430.9</ele>
        <time>2021-11-19T12:14:43Z</time>
      </trkpt>
      <trkpt lat="44.49993" lon="5.06879">
        <ele>431.1</ele>
        <time>2021-11-19T12:14:45Z</time>
      </trkpt>
      <trkpt lat="44.49997" lon="5.06883">
        <ele>431.3</ele>
        <time>2021-11-19T12:14:46Z</time>
      </trkpt>
      <trkpt lat="44.50003" lon="5.06889">
        <ele>431.6</ele>
        <time>2021-11-19T12:14:48Z</time>
      </trkpt>
      <trkpt lat="44.50011" lon="5.06897">
        <ele>432</ele>
        <time>2021-11-19T12:14:50Z</time>
      </trkpt>
      <trkpt lat="44.50013" lon="5.069">
        <ele>432.1</ele>
        <time>2021-11-19T12:14:51Z</time>
      </trkpt>
      <trkpt lat="44.50016" lon="5.06905">
        <ele>432.3</ele>
        <time>2021-11-19T12:14:52Z</time>
      </trkpt>
      <trkpt lat="44.50019" lon="5.0691">
        <ele>432.4</ele>
        <time>2021-11-19T12:14:53Z</time>
      </trkpt>
      <trkpt lat="44.5002" lon="5.06915">
        <ele>432.6</ele>
        <time>2021-11-19T12:14:54Z</time>
      </trkpt>
      <trkpt lat="44.50025" lon="5.06923">
        <ele>432.9</ele>
        <time>2021-11-19T12:14:56Z</time>
      </trkpt>
      <trkpt lat="44.50027" lon="5.06926">
        <ele>433</ele>
        <time>2021-11-19T12:14:57Z</time>
      </trkpt>
      <trkpt lat="44.50029" lon="5.06928">
        <ele>433.2</ele>
        <time>2021-11-19T12:14:58Z</time>
      </trkpt>
      <trkpt lat="44.50034" lon="5.06934">
        <ele>433.4</ele>
        <time>2021-11-19T12:15:00Z</time>
      </trkpt>
      <trkpt lat="44.50039" lon="5.06938">
        <ele>433.7</ele>
        <time>2021-11-19T12:15:01Z</time>
      </trkpt>
      <trkpt lat="44.50045" lon="5.06944">
        <ele>433.9</ele>
        <time>2021-11-19T12:15:03Z</time>
      </trkpt>
      <trkpt lat="44.5005" lon="5.06948">
        <ele>434.2</ele>
        <time>2021-11-19T12:15:04Z</time>
      </trkpt>
      <trkpt lat="44.50053" lon="5.06951">
        <ele>434.3</ele>
        <time>2021-11-19T12:15:05Z</time>
      </trkpt>
      <trkpt lat="44.50062" lon="5.06963">
        <ele>434.8</ele>
        <time>2021-11-19T12:15:08Z</time>
      </trkpt>
      <trkpt lat="44.50066" lon="5.06968">
        <ele>435</ele>
        <time>2021-11-19T12:15:09Z</time>
      </trkpt>
      <trkpt lat="44.50072" lon="5.06974">
        <ele>435.3</ele>
        <time>2021-11-19T12:15:10Z</time>
      </trkpt>
      <trkpt lat="44.50077" lon="5.06979">
        <ele>435.5</ele>
        <time>2021-11-19T12:15:11Z</time>
      </trkpt>
      <trkpt lat="44.50085" lon="5.06987">
        <ele>435.8</ele>
        <time>2021-11-19T12:15:13Z</time>
      </trkpt>
      <trkpt lat="44.50091" lon="5.06995">
        <ele>436.1</ele>
        <time>2021-11-19T12:15:15Z</time>
      </trkpt>
      <trkpt lat="44.50097" lon="5.07002">
        <ele>436.4</ele>
        <time>2021-11-19T12:15:17Z</time>
      </trkpt>
      <trkpt lat="44.50099" lon="5.07005">
        <ele>436.5</ele>
        <time>2021-11-19T12:15:18Z</time>
      </trkpt>
      <trkpt lat="44.50103" lon="5.07015">
        <ele>436.7</ele>
        <time>2021-11-19T12:15:20Z</time>
      </trkpt>
      <trkpt lat="44.50108" lon="5.07027">
        <ele>437</ele>
        <time>2021-11-19T12:15:22Z</time>
      </trkpt>
      <trkpt lat="44.50112" lon="5.07038">
        <ele>437.2</ele>
        <time>2021-11-19T12:15:24Z</time>
      </trkpt>
      <trkpt lat="44.50112" lon="5.07048">
        <ele>437.4</ele>
        <time>2021-11-19T12:15:25Z</time>
      </trkpt>
      <trkpt lat="44.50111" lon="5.07058">
        <ele>437.6</ele>
        <time>2021-11-19T12:15:27Z</time>
      </trkpt>
      <trkpt lat="44.50109" lon="5.07064">
        <ele>437.7</ele>
        <time>2021-11-19T12:15:29Z</time>
      </trkpt>
      <trkpt lat="44.50107" lon="5.0708">
        <ele>438.1</ele>
        <time>2021-11-19T12:15:31Z</time>
      </trkpt>
      <trkpt lat="44.50103" lon="5.07095">
        <ele>438.3</ele>
        <time>2021-11-19T12:15:33Z</time>
      </trkpt>
      <trkpt lat="44.501" lon="5.07106">
        <ele>438.6</ele>
        <time>2021-11-19T12:15:34Z</time>
      </trkpt>
      <trkpt lat="44.50098" lon="5.07113">
        <ele>438.7</ele>
        <time>2021-11-19T12:15:36Z</time>
      </trkpt>
      <trkpt lat="44.50096" lon="5.07123">
        <ele>439</ele>
        <time>2021-11-19T12:15:38Z</time>
      </trkpt>
      <trkpt lat="44.50095" lon="5.07128">
        <ele>439.1</ele>
        <time>2021-11-19T12:15:39Z</time>
      </trkpt>
      <trkpt lat="44.50092" lon="5.07139">
        <ele>439.3</ele>
        <time>2021-11-19T12:15:42Z</time>
      </trkpt>
      <trkpt lat="44.5009" lon="5.07147">
        <ele>439.5</ele>
        <time>2021-11-19T12:15:43Z</time>
      </trkpt>
      <trkpt lat="44.50088" lon="5.0716">
        <ele>439.8</ele>
        <time>2021-11-19T12:15:46Z</time>
      </trkpt>
      <trkpt lat="44.50088" lon="5.07166">
        <ele>439.9</ele>
        <time>2021-11-19T12:15:47Z</time>
      </trkpt>
      <trkpt lat="44.50087" lon="5.07178">
        <ele>440.2</ele>
        <time>2021-11-19T12:15:49Z</time>
      </trkpt>
      <trkpt lat="44.50085" lon="5.07194">
        <ele>440.6</ele>
        <time>2021-11-19T12:15:52Z</time>
      </trkpt>
      <trkpt lat="44.50084" lon="5.07199">
        <ele>440.8</ele>
        <time>2021-11-19T12:15:53Z</time>
      </trkpt>
      <trkpt lat="44.50084" lon="5.07207">
        <ele>441</ele>
        <time>2021-11-19T12:15:54Z</time>
      </trkpt>
      <trkpt lat="44.50084" lon="5.07224">
        <ele>441.4</ele>
        <time>2021-11-19T12:15:56Z</time>
      </trkpt>
      <trkpt lat="44.50084" lon="5.0724">
        <ele>441.7</ele>
        <time>2021-11-19T12:15:58Z</time>
      </trkpt>
      <trkpt lat="44.50085" lon="5.07244">
        <ele>441.8</ele>
        <time>2021-11-19T12:15:59Z</time>
      </trkpt>
      <trkpt lat="44.50086" lon="5.07249">
        <ele>442</ele>
        <time>2021-11-19T12:16:00Z</time>
      </trkpt>
      <trkpt lat="44.50085" lon="5.0726">
        <ele>442.2</ele>
        <time>2021-11-19T12:16:02Z</time>
      </trkpt>
      <trkpt lat="44.50085" lon="5.07263">
        <ele>442.3</ele>
        <time>2021-11-19T12:16:03Z</time>
      </trkpt>
      <trkpt lat="44.50083" lon="5.07273">
        <ele>442.6</ele>
        <time>2021-11-19T12:16:05Z</time>
      </trkpt>
      <trkpt lat="44.50082" lon="5.07279">
        <ele>442.7</ele>
        <time>2021-11-19T12:16:06Z</time>
      </trkpt>
      <trkpt lat="44.50081" lon="5.07294">
        <ele>443.1</ele>
        <time>2021-11-19T12:16:08Z</time>
      </trkpt>
      <trkpt lat="44.50081" lon="5.07298">
        <ele>443.2</ele>
        <time>2021-11-19T12:16:09Z</time>
      </trkpt>
      <trkpt lat="44.50082" lon="5.07314">
        <ele>443.6</ele>
        <time>2021-11-19T12:16:11Z</time>
      </trkpt>
      <trkpt lat="44.50082" lon="5.07324">
        <ele>443.9</ele>
        <time>2021-11-19T12:16:12Z</time>
      </trkpt>
      <trkpt lat="44.50081" lon="5.07329">
        <ele>444</ele>
        <time>2021-11-19T12:16:13Z</time>
      </trkpt>
      <trkpt lat="44.50081" lon="5.07336">
        <ele>444.2</ele>
        <time>2021-11-19T12:16:15Z</time>
      </trkpt>
      <trkpt lat="44.50081" lon="5.07341">
        <ele>444.3</ele>
        <time>2021-11-19T12:16:16Z</time>
      </trkpt>
      <trkpt lat="44.50081" lon="5.07352">
        <ele>444.6</ele>
        <time>2021-11-19T12:16:17Z</time>
      </trkpt>
      <trkpt lat="44.50082" lon="5.07358">
        <ele>444.7</ele>
        <time>2021-11-19T12:16:19Z</time>
      </trkpt>
      <trkpt lat="44.50082" lon="5.07367">
        <ele>445</ele>
        <time>2021-11-19T12:16:20Z</time>
      </trkpt>
      <trkpt lat="44.50082" lon="5.07373">
        <ele>445.1</ele>
        <time>2021-11-19T12:16:22Z</time>
      </trkpt>
      <trkpt lat="44.50081" lon="5.07385">
        <ele>445.5</ele>
        <time>2021-11-19T12:16:24Z</time>
      </trkpt>
      <trkpt lat="44.50081" lon="5.07395">
        <ele>445.8</ele>
        <time>2021-11-19T12:16:25Z</time>
      </trkpt>
      <trkpt lat="44.50081" lon="5.07402">
        <ele>446</ele>
        <time>2021-11-19T12:16:27Z</time>
      </trkpt>
      <trkpt lat="44.50081" lon="5.07405">
        <ele>446.1</ele>
        <time>2021-11-19T12:16:28Z</time>
      </trkpt>
      <trkpt lat="44.50079" lon="5.07413">
        <ele>446.3</ele>
        <time>2021-11-19T12:16:30Z</time>
      </trkpt>
      <trkpt lat="44.50078" lon="5.0742">
        <ele>446.6</ele>
        <time>2021-11-19T12:16:32Z</time>
      </trkpt>
      <trkpt lat="44.50077" lon="5.07423">
        <ele>446.7</ele>
        <time>2021-11-19T12:16:33Z</time>
      </trkpt>
      <trkpt lat="44.50077" lon="5.07431">
        <ele>446.9</ele>
        <time>2021-11-19T12:16:35Z</time>
      </trkpt>
      <trkpt lat="44.50078" lon="5.07424">
        <ele>447</ele>
        <time>2021-11-19T12:16:37Z</time>
      </trkpt>
      <trkpt lat="44.50076" lon="5.07424">
        <ele>447.1</ele>
        <time>2021-11-19T12:16:38Z</time>
      </trkpt>
      <trkpt lat="44.50076" lon="5.07426">
        <ele>447.1</ele>
        <time>2021-11-19T12:16:39Z</time>
      </trkpt>
      <trkpt lat="44.50075" lon="5.07427">
        <ele>447.2</ele>
        <time>2021-11-19T12:16:40Z</time>
      </trkpt>
      <trkpt lat="44.50072" lon="5.07438">
        <ele>447.4</ele>
        <time>2021-11-19T12:16:42Z</time>
      </trkpt>
      <trkpt lat="44.5007" lon="5.07443">
        <ele>447.5</ele>
        <time>2021-11-19T12:16:43Z</time>
      </trkpt>
      <trkpt lat="44.50069" lon="5.07449">
        <ele>447.6</ele>
        <time>2021-11-19T12:16:44Z</time>
      </trkpt>
      <trkpt lat="44.50068" lon="5.07456">
        <ele>447.7</ele>
        <time>2021-11-19T12:16:45Z</time>
      </trkpt>
      <trkpt lat="44.50066" lon="5.07462">
        <ele>447.8</ele>
        <time>2021-11-19T12:16:46Z</time>
      </trkpt>
      <trkpt lat="44.50065" lon="5.07468">
        <ele>447.9</ele>
        <time>2021-11-19T12:16:47Z</time>
      </trkpt>
      <trkpt lat="44.50062" lon="5.0748">
        <ele>448</ele>
        <time>2021-11-19T12:16:49Z</time>
      </trkpt>
      <trkpt lat="44.5006" lon="5.0749">
        <ele>448.1</ele>
        <time>2021-11-19T12:16:51Z</time>
      </trkpt>
      <trkpt lat="44.50058" lon="5.07501">
        <ele>448.1</ele>
        <time>2021-11-19T12:16:52Z</time>
      </trkpt>
      <trkpt lat="44.50057" lon="5.07506">
        <ele>448.1</ele>
        <time>2021-11-19T12:16:54Z</time>
      </trkpt>
      <trkpt lat="44.50055" lon="5.0752">
        <ele>448.1</ele>
        <time>2021-11-19T12:16:56Z</time>
      </trkpt>
      <trkpt lat="44.50054" lon="5.0753">
        <ele>448.1</ele>
        <time>2021-11-19T12:16:58Z</time>
      </trkpt>
      <trkpt lat="44.50053" lon="5.07537">
        <ele>448</ele>
        <time>2021-11-19T12:16:59Z</time>
      </trkpt>
      <trkpt lat="44.50054" lon="5.07555">
        <ele>447.7</ele>
        <time>2021-11-19T12:17:02Z</time>
      </trkpt>
      <trkpt lat="44.50055" lon="5.07562">
        <ele>447.6</ele>
        <time>2021-11-19T12:17:03Z</time>
      </trkpt>
      <trkpt lat="44.50055" lon="5.07569">
        <ele>447.5</ele>
        <time>2021-11-19T12:17:04Z</time>
      </trkpt>
      <trkpt lat="44.50055" lon="5.07577">
        <ele>447.3</ele>
        <time>2021-11-19T12:17:05Z</time>
      </trkpt>
      <trkpt lat="44.50054" lon="5.07586">
        <ele>447.1</ele>
        <time>2021-11-19T12:17:06Z</time>
      </trkpt>
      <trkpt lat="44.50054" lon="5.07594">
        <ele>447</ele>
        <time>2021-11-19T12:17:07Z</time>
      </trkpt>
      <trkpt lat="44.50054" lon="5.07606">
        <ele>446.7</ele>
        <time>2021-11-19T12:17:08Z</time>
      </trkpt>
      <trkpt lat="44.50054" lon="5.07617">
        <ele>446.5</ele>
        <time>2021-11-19T12:17:09Z</time>
      </trkpt>
      <trkpt lat="44.50055" lon="5.07628">
        <ele>446.2</ele>
        <time>2021-11-19T12:17:10Z</time>
      </trkpt>
      <trkpt lat="44.50055" lon="5.07638">
        <ele>446</ele>
        <time>2021-11-19T12:17:11Z</time>
      </trkpt>
      <trkpt lat="44.50054" lon="5.07648">
        <ele>445.7</ele>
        <time>2021-11-19T12:17:12Z</time>
      </trkpt>
      <trkpt lat="44.50054" lon="5.07658">
        <ele>445.4</ele>
        <time>2021-11-19T12:17:13Z</time>
      </trkpt>
      <trkpt lat="44.50052" lon="5.07667">
        <ele>445.1</ele>
        <time>2021-11-19T12:17:14Z</time>
      </trkpt>
      <trkpt lat="44.5005" lon="5.07677">
        <ele>444.8</ele>
        <time>2021-11-19T12:17:15Z</time>
      </trkpt>
      <trkpt lat="44.50048" lon="5.07687">
        <ele>444.5</ele>
        <time>2021-11-19T12:17:16Z</time>
      </trkpt>
      <trkpt lat="44.50046" lon="5.07697">
        <ele>444.1</ele>
        <time>2021-11-19T12:17:17Z</time>
      </trkpt>
      <trkpt lat="44.50045" lon="5.07706">
        <ele>443.8</ele>
        <time>2021-11-19T12:17:18Z</time>
      </trkpt>
      <trkpt lat="44.50043" lon="5.07716">
        <ele>443.5</ele>
        <time>2021-11-19T12:17:19Z</time>
      </trkpt>
      <trkpt lat="44.50041" lon="5.07726">
        <ele>443.2</ele>
        <time>2021-11-19T12:17:20Z</time>
      </trkpt>
      <trkpt lat="44.5004" lon="5.07735">
        <ele>442.9</ele>
        <time>2021-11-19T12:17:21Z</time>
      </trkpt>
      <trkpt lat="44.50038" lon="5.07745">
        <ele>442.6</ele>
        <time>2021-11-19T12:17:22Z</time>
      </trkpt>
      <trkpt lat="44.50036" lon="5.07754">
        <ele>442.4</ele>
        <time>2021-11-19T12:17:23Z</time>
      </trkpt>
      <trkpt lat="44.50034" lon="5.07764">
        <ele>442.1</ele>
        <time>2021-11-19T12:17:24Z</time>
      </trkpt>
      <trkpt lat="44.50033" lon="5.07774">
        <ele>441.9</ele>
        <time>2021-11-19T12:17:25Z</time>
      </trkpt>
      <trkpt lat="44.50031" lon="5.07784">
        <ele>441.7</ele>
        <time>2021-11-19T12:17:26Z</time>
      </trkpt>
      <trkpt lat="44.50029" lon="5.07793">
        <ele>441.5</ele>
        <time>2021-11-19T12:17:27Z</time>
      </trkpt>
      <trkpt lat="44.50029" lon="5.07801">
        <ele>441.4</ele>
        <time>2021-11-19T12:17:28Z</time>
      </trkpt>
      <trkpt lat="44.50029" lon="5.0781">
        <ele>441.3</ele>
        <time>2021-11-19T12:17:29Z</time>
      </trkpt>
      <trkpt lat="44.50029" lon="5.07819">
        <ele>441.1</ele>
        <time>2021-11-19T12:17:30Z</time>
      </trkpt>
      <trkpt lat="44.5003" lon="5.07828">
        <ele>441</ele>
        <time>2021-11-19T12:17:31Z</time>
      </trkpt>
      <trkpt lat="44.50032" lon="5.07836">
        <ele>440.9</ele>
        <time>2021-11-19T12:17:32Z</time>
      </trkpt>
      <trkpt lat="44.50034" lon="5.07845">
        <ele>440.8</ele>
        <time>2021-11-19T12:17:33Z</time>
      </trkpt>
      <trkpt lat="44.50035" lon="5.07851">
        <ele>440.7</ele>
        <time>2021-11-19T12:17:34Z</time>
      </trkpt>
      <trkpt lat="44.50037" lon="5.0786">
        <ele>440.6</ele>
        <time>2021-11-19T12:17:35Z</time>
      </trkpt>
      <trkpt lat="44.50037" lon="5.07867">
        <ele>440.5</ele>
        <time>2021-11-19T12:17:36Z</time>
      </trkpt>
      <trkpt lat="44.50038" lon="5.07873">
        <ele>440.4</ele>
        <time>2021-11-19T12:17:37Z</time>
      </trkpt>
      <trkpt lat="44.50039" lon="5.07876">
        <ele>440.4</ele>
        <time>2021-11-19T12:17:38Z</time>
      </trkpt>
      <trkpt lat="44.5004" lon="5.07877">
        <ele>440.3</ele>
        <time>2021-11-19T12:17:39Z</time>
      </trkpt>
      <trkpt lat="44.5004" lon="5.07878">
        <ele>440.3</ele>
        <time>2021-11-19T12:17:40Z</time>
      </trkpt>
      <trkpt lat="44.50041" lon="5.07879">
        <ele>440.3</ele>
        <time>2021-11-19T12:17:43Z</time>
      </trkpt>
      <trkpt lat="44.50042" lon="5.0788">
        <ele>440.3</ele>
        <time>2021-11-19T12:17:44Z</time>
      </trkpt>
      <trkpt lat="44.50042" lon="5.07881">
        <ele>440.3</ele>
        <time>2021-11-19T12:17:47Z</time>
      </trkpt>
      <trkpt lat="44.50043" lon="5.07882">
        <ele>440.3</ele>
        <time>2021-11-19T12:17:48Z</time>
      </trkpt>
      <trkpt lat="44.50044" lon="5.07882">
        <ele>440.3</ele>
        <time>2021-11-19T12:17:49Z</time>
      </trkpt>
      <trkpt lat="44.50045" lon="5.07883">
        <ele>440.2</ele>
        <time>2021-11-19T12:18:14Z</time>
      </trkpt>
      <trkpt lat="44.50045" lon="5.07884">
        <ele>440.2</ele>
        <time>2021-11-19T12:18:15Z</time>
      </trkpt>
      <trkpt lat="44.50049" lon="5.07891">
        <ele>440.1</ele>
        <time>2021-11-19T12:18:16Z</time>
      </trkpt>
      <trkpt lat="44.50055" lon="5.07896">
        <ele>440</ele>
        <time>2021-11-19T12:18:18Z</time>
      </trkpt>
      <trkpt lat="44.50059" lon="5.07908">
        <ele>439.9</ele>
        <time>2021-11-19T12:18:20Z</time>
      </trkpt>
      <trkpt lat="44.50058" lon="5.07915">
        <ele>439.8</ele>
        <time>2021-11-19T12:18:21Z</time>
      </trkpt>
      <trkpt lat="44.50059" lon="5.07915">
        <ele>439.8</ele>
        <time>2021-11-19T12:18:23Z</time>
      </trkpt>
      <trkpt lat="44.50067" lon="5.07934">
        <ele>439.6</ele>
        <time>2021-11-19T12:18:26Z</time>
      </trkpt>
      <trkpt lat="44.50071" lon="5.0794">
        <ele>439.5</ele>
        <time>2021-11-19T12:18:27Z</time>
      </trkpt>
      <trkpt lat="44.50073" lon="5.07948">
        <ele>439.5</ele>
        <time>2021-11-19T12:18:28Z</time>
      </trkpt>
      <trkpt lat="44.50075" lon="5.07955">
        <ele>439.4</ele>
        <time>2021-11-19T12:18:29Z</time>
      </trkpt>
      <trkpt lat="44.50078" lon="5.07961">
        <ele>439.4</ele>
        <time>2021-11-19T12:18:30Z</time>
      </trkpt>
      <trkpt lat="44.50081" lon="5.07968">
        <ele>439.4</ele>
        <time>2021-11-19T12:18:31Z</time>
      </trkpt>
      <trkpt lat="44.50083" lon="5.07975">
        <ele>439.3</ele>
        <time>2021-11-19T12:18:32Z</time>
      </trkpt>
      <trkpt lat="44.50086" lon="5.07981">
        <ele>439.3</ele>
        <time>2021-11-19T12:18:33Z</time>
      </trkpt>
      <trkpt lat="44.50091" lon="5.07987">
        <ele>439.3</ele>
        <time>2021-11-19T12:18:34Z</time>
      </trkpt>
      <trkpt lat="44.50095" lon="5.07993">
        <ele>439.3</ele>
        <time>2021-11-19T12:18:35Z</time>
      </trkpt>
      <trkpt lat="44.50098" lon="5.07999">
        <ele>439.2</ele>
        <time>2021-11-19T12:18:36Z</time>
      </trkpt>
      <trkpt lat="44.50102" lon="5.08006">
        <ele>439.2</ele>
        <time>2021-11-19T12:18:37Z</time>
      </trkpt>
      <trkpt lat="44.50106" lon="5.08012">
        <ele>439.2</ele>
        <time>2021-11-19T12:18:38Z</time>
      </trkpt>
      <trkpt lat="44.50109" lon="5.08018">
        <ele>439.2</ele>
        <time>2021-11-19T12:18:39Z</time>
      </trkpt>
      <trkpt lat="44.50112" lon="5.08024">
        <ele>439.2</ele>
        <time>2021-11-19T12:18:40Z</time>
      </trkpt>
      <trkpt lat="44.50114" lon="5.08031">
        <ele>439.2</ele>
        <time>2021-11-19T12:18:41Z</time>
      </trkpt>
      <trkpt lat="44.50116" lon="5.08038">
        <ele>439.2</ele>
        <time>2021-11-19T12:18:42Z</time>
      </trkpt>
      <trkpt lat="44.50117" lon="5.08045">
        <ele>439.2</ele>
        <time>2021-11-19T12:18:43Z</time>
      </trkpt>
      <trkpt lat="44.50119" lon="5.08052">
        <ele>439.2</ele>
        <time>2021-11-19T12:18:44Z</time>
      </trkpt>
      <trkpt lat="44.50122" lon="5.08059">
        <ele>439.1</ele>
        <time>2021-11-19T12:18:45Z</time>
      </trkpt>
      <trkpt lat="44.50125" lon="5.08066">
        <ele>439.1</ele>
        <time>2021-11-19T12:18:46Z</time>
      </trkpt>
      <trkpt lat="44.50128" lon="5.08073">
        <ele>439.1</ele>
        <time>2021-11-19T12:18:47Z</time>
      </trkpt>
      <trkpt lat="44.5013" lon="5.08082">
        <ele>439</ele>
        <time>2021-11-19T12:18:48Z</time>
      </trkpt>
      <trkpt lat="44.50131" lon="5.08092">
        <ele>439</ele>
        <time>2021-11-19T12:18:49Z</time>
      </trkpt>
      <trkpt lat="44.50133" lon="5.08101">
        <ele>438.9</ele>
        <time>2021-11-19T12:18:50Z</time>
      </trkpt>
      <trkpt lat="44.50135" lon="5.08111">
        <ele>438.8</ele>
        <time>2021-11-19T12:18:51Z</time>
      </trkpt>
      <trkpt lat="44.50136" lon="5.08121">
        <ele>438.7</ele>
        <time>2021-11-19T12:18:52Z</time>
      </trkpt>
      <trkpt lat="44.50138" lon="5.0813">
        <ele>438.6</ele>
        <time>2021-11-19T12:18:53Z</time>
      </trkpt>
      <trkpt lat="44.50137" lon="5.08139">
        <ele>438.6</ele>
        <time>2021-11-19T12:18:54Z</time>
      </trkpt>
      <trkpt lat="44.50138" lon="5.08148">
        <ele>438.5</ele>
        <time>2021-11-19T12:18:55Z</time>
      </trkpt>
      <trkpt lat="44.50138" lon="5.08157">
        <ele>438.4</ele>
        <time>2021-11-19T12:18:56Z</time>
      </trkpt>
      <trkpt lat="44.50139" lon="5.08165">
        <ele>438.3</ele>
        <time>2021-11-19T12:18:57Z</time>
      </trkpt>
      <trkpt lat="44.5014" lon="5.08174">
        <ele>438.2</ele>
        <time>2021-11-19T12:18:58Z</time>
      </trkpt>
      <trkpt lat="44.50139" lon="5.08183">
        <ele>438.2</ele>
        <time>2021-11-19T12:18:59Z</time>
      </trkpt>
      <trkpt lat="44.50139" lon="5.08191">
        <ele>438.1</ele>
        <time>2021-11-19T12:19:00Z</time>
      </trkpt>
      <trkpt lat="44.50139" lon="5.08199">
        <ele>438.1</ele>
        <time>2021-11-19T12:19:01Z</time>
      </trkpt>
      <trkpt lat="44.50139" lon="5.08207">
        <ele>438</ele>
        <time>2021-11-19T12:19:02Z</time>
      </trkpt>
      <trkpt lat="44.5014" lon="5.08216">
        <ele>438</ele>
        <time>2021-11-19T12:19:03Z</time>
      </trkpt>
      <trkpt lat="44.50142" lon="5.08223">
        <ele>438</ele>
        <time>2021-11-19T12:19:04Z</time>
      </trkpt>
      <trkpt lat="44.50142" lon="5.08232">
        <ele>437.9</ele>
        <time>2021-11-19T12:19:05Z</time>
      </trkpt>
      <trkpt lat="44.50144" lon="5.0824">
        <ele>437.9</ele>
        <time>2021-11-19T12:19:06Z</time>
      </trkpt>
      <trkpt lat="44.50145" lon="5.08248">
        <ele>437.9</ele>
        <time>2021-11-19T12:19:07Z</time>
      </trkpt>
      <trkpt lat="44.50147" lon="5.08256">
        <ele>437.9</ele>
        <time>2021-11-19T12:19:08Z</time>
      </trkpt>
      <trkpt lat="44.50148" lon="5.08264">
        <ele>437.9</ele>
        <time>2021-11-19T12:19:09Z</time>
      </trkpt>
      <trkpt lat="44.50149" lon="5.08272">
        <ele>438</ele>
        <time>2021-11-19T12:19:10Z</time>
      </trkpt>
      <trkpt lat="44.50151" lon="5.0828">
        <ele>438</ele>
        <time>2021-11-19T12:19:11Z</time>
      </trkpt>
      <trkpt lat="44.50153" lon="5.08287">
        <ele>438</ele>
        <time>2021-11-19T12:19:12Z</time>
      </trkpt>
      <trkpt lat="44.50154" lon="5.08295">
        <ele>438.1</ele>
        <time>2021-11-19T12:19:13Z</time>
      </trkpt>
      <trkpt lat="44.50156" lon="5.08302">
        <ele>438.1</ele>
        <time>2021-11-19T12:19:14Z</time>
      </trkpt>
      <trkpt lat="44.50158" lon="5.0831">
        <ele>438.1</ele>
        <time>2021-11-19T12:19:15Z</time>
      </trkpt>
      <trkpt lat="44.5016" lon="5.08318">
        <ele>438.2</ele>
        <time>2021-11-19T12:19:16Z</time>
      </trkpt>
      <trkpt lat="44.50162" lon="5.08325">
        <ele>438.2</ele>
        <time>2021-11-19T12:19:17Z</time>
      </trkpt>
      <trkpt lat="44.50164" lon="5.08332">
        <ele>438.2</ele>
        <time>2021-11-19T12:19:18Z</time>
      </trkpt>
      <trkpt lat="44.50167" lon="5.08339">
        <ele>438.3</ele>
        <time>2021-11-19T12:19:19Z</time>
      </trkpt>
      <trkpt lat="44.50169" lon="5.08346">
        <ele>438.3</ele>
        <time>2021-11-19T12:19:20Z</time>
      </trkpt>
      <trkpt lat="44.50172" lon="5.08353">
        <ele>438.4</ele>
        <time>2021-11-19T12:19:21Z</time>
      </trkpt>
      <trkpt lat="44.50174" lon="5.0836">
        <ele>438.4</ele>
        <time>2021-11-19T12:19:22Z</time>
      </trkpt>
      <trkpt lat="44.50177" lon="5.08367">
        <ele>438.5</ele>
        <time>2021-11-19T12:19:23Z</time>
      </trkpt>
      <trkpt lat="44.5018" lon="5.08373">
        <ele>438.6</ele>
        <time>2021-11-19T12:19:24Z</time>
      </trkpt>
      <trkpt lat="44.50183" lon="5.08379">
        <ele>438.7</ele>
        <time>2021-11-19T12:19:25Z</time>
      </trkpt>
      <trkpt lat="44.50186" lon="5.08385">
        <ele>438.7</ele>
        <time>2021-11-19T12:19:26Z</time>
      </trkpt>
      <trkpt lat="44.50189" lon="5.08391">
        <ele>438.8</ele>
        <time>2021-11-19T12:19:27Z</time>
      </trkpt>
      <trkpt lat="44.50192" lon="5.08397">
        <ele>438.9</ele>
        <time>2021-11-19T12:19:28Z</time>
      </trkpt>
      <trkpt lat="44.50195" lon="5.08403">
        <ele>439</ele>
        <time>2021-11-19T12:19:29Z</time>
      </trkpt>
      <trkpt lat="44.50198" lon="5.08409">
        <ele>439.2</ele>
        <time>2021-11-19T12:19:30Z</time>
      </trkpt>
      <trkpt lat="44.502" lon="5.08415">
        <ele>439.3</ele>
        <time>2021-11-19T12:19:31Z</time>
      </trkpt>
      <trkpt lat="44.50203" lon="5.08421">
        <ele>439.4</ele>
        <time>2021-11-19T12:19:32Z</time>
      </trkpt>
      <trkpt lat="44.50206" lon="5.08425">
        <ele>439.5</ele>
        <time>2021-11-19T12:19:33Z</time>
      </trkpt>
      <trkpt lat="44.5021" lon="5.08429">
        <ele>439.6</ele>
        <time>2021-11-19T12:19:34Z</time>
      </trkpt>
      <trkpt lat="44.50215" lon="5.08433">
        <ele>439.7</ele>
        <time>2021-11-19T12:19:35Z</time>
      </trkpt>
      <trkpt lat="44.50219" lon="5.08437">
        <ele>439.8</ele>
        <time>2021-11-19T12:19:36Z</time>
      </trkpt>
      <trkpt lat="44.50222" lon="5.08441">
        <ele>439.9</ele>
        <time>2021-11-19T12:19:37Z</time>
      </trkpt>
      <trkpt lat="44.50226" lon="5.08446">
        <ele>440.1</ele>
        <time>2021-11-19T12:19:38Z</time>
      </trkpt>
      <trkpt lat="44.50229" lon="5.0845">
        <ele>440.2</ele>
        <time>2021-11-19T12:19:39Z</time>
      </trkpt>
      <trkpt lat="44.50234" lon="5.08455">
        <ele>440.3</ele>
        <time>2021-11-19T12:19:40Z</time>
      </trkpt>
      <trkpt lat="44.50237" lon="5.08463">
        <ele>440.5</ele>
        <time>2021-11-19T12:19:41Z</time>
      </trkpt>
      <trkpt lat="44.50239" lon="5.0847">
        <ele>440.7</ele>
        <time>2021-11-19T12:19:42Z</time>
      </trkpt>
      <trkpt lat="44.50241" lon="5.08474">
        <ele>440.8</ele>
        <time>2021-11-19T12:19:43Z</time>
      </trkpt>
      <trkpt lat="44.50246" lon="5.08487">
        <ele>441.1</ele>
        <time>2021-11-19T12:19:44Z</time>
      </trkpt>
      <trkpt lat="44.50243" lon="5.085">
        <ele>441.5</ele>
        <time>2021-11-19T12:19:45Z</time>
      </trkpt>
      <trkpt lat="44.50251" lon="5.08511">
        <ele>442</ele>
        <time>2021-11-19T12:19:48Z</time>
      </trkpt>
      <trkpt lat="44.50255" lon="5.08517">
        <ele>442.3</ele>
        <time>2021-11-19T12:19:49Z</time>
      </trkpt>
      <trkpt lat="44.50259" lon="5.08524">
        <ele>442.5</ele>
        <time>2021-11-19T12:19:50Z</time>
      </trkpt>
      <trkpt lat="44.50263" lon="5.08531">
        <ele>442.7</ele>
        <time>2021-11-19T12:19:51Z</time>
      </trkpt>
      <trkpt lat="44.50266" lon="5.08535">
        <ele>442.9</ele>
        <time>2021-11-19T12:19:52Z</time>
      </trkpt>
      <trkpt lat="44.50269" lon="5.08539">
        <ele>443.1</ele>
        <time>2021-11-19T12:19:54Z</time>
      </trkpt>
      <trkpt lat="44.50273" lon="5.08544">
        <ele>443.3</ele>
        <time>2021-11-19T12:19:56Z</time>
      </trkpt>
      <trkpt lat="44.50277" lon="5.0855">
        <ele>443.5</ele>
        <time>2021-11-19T12:19:58Z</time>
      </trkpt>
      <trkpt lat="44.50285" lon="5.08563">
        <ele>444</ele>
        <time>2021-11-19T12:20:00Z</time>
      </trkpt>
      <trkpt lat="44.50292" lon="5.08573">
        <ele>444.5</ele>
        <time>2021-11-19T12:20:02Z</time>
      </trkpt>
      <trkpt lat="44.50296" lon="5.08582">
        <ele>444.8</ele>
        <time>2021-11-19T12:20:04Z</time>
      </trkpt>
      <trkpt lat="44.50299" lon="5.08591">
        <ele>445.2</ele>
        <time>2021-11-19T12:20:07Z</time>
      </trkpt>
      <trkpt lat="44.50302" lon="5.08597">
        <ele>445.4</ele>
        <time>2021-11-19T12:20:08Z</time>
      </trkpt>
      <trkpt lat="44.50306" lon="5.08607">
        <ele>445.8</ele>
        <time>2021-11-19T12:20:11Z</time>
      </trkpt>
      <trkpt lat="44.50308" lon="5.08612">
        <ele>446</ele>
        <time>2021-11-19T12:20:12Z</time>
      </trkpt>
      <trkpt lat="44.50313" lon="5.08619">
        <ele>446.4</ele>
        <time>2021-11-19T12:20:14Z</time>
      </trkpt>
      <trkpt lat="44.50316" lon="5.08622">
        <ele>446.6</ele>
        <time>2021-11-19T12:20:15Z</time>
      </trkpt>
      <trkpt lat="44.50319" lon="5.08625">
        <ele>446.7</ele>
        <time>2021-11-19T12:20:16Z</time>
      </trkpt>
      <trkpt lat="44.50322" lon="5.08628">
        <ele>446.9</ele>
        <time>2021-11-19T12:20:17Z</time>
      </trkpt>
      <trkpt lat="44.50325" lon="5.08631">
        <ele>447.1</ele>
        <time>2021-11-19T12:20:18Z</time>
      </trkpt>
      <trkpt lat="44.50328" lon="5.08635">
        <ele>447.3</ele>
        <time>2021-11-19T12:20:19Z</time>
      </trkpt>
      <trkpt lat="44.50329" lon="5.08637">
        <ele>447.4</ele>
        <time>2021-11-19T12:20:20Z</time>
      </trkpt>
      <trkpt lat="44.5033" lon="5.08643">
        <ele>447.6</ele>
        <time>2021-11-19T12:20:23Z</time>
      </trkpt>
      <trkpt lat="44.50331" lon="5.08646">
        <ele>447.7</ele>
        <time>2021-11-19T12:20:24Z</time>
      </trkpt>
      <trkpt lat="44.50332" lon="5.08649">
        <ele>447.8</ele>
        <time>2021-11-19T12:20:26Z</time>
      </trkpt>
      <trkpt lat="44.50336" lon="5.0866">
        <ele>448.2</ele>
        <time>2021-11-19T12:20:28Z</time>
      </trkpt>
      <trkpt lat="44.50338" lon="5.08668">
        <ele>448.5</ele>
        <time>2021-11-19T12:20:30Z</time>
      </trkpt>
      <trkpt lat="44.5034" lon="5.08677">
        <ele>448.8</ele>
        <time>2021-11-19T12:20:33Z</time>
      </trkpt>
      <trkpt lat="44.50338" lon="5.08687">
        <ele>449.1</ele>
        <time>2021-11-19T12:20:35Z</time>
      </trkpt>
      <trkpt lat="44.50337" lon="5.08694">
        <ele>449.4</ele>
        <time>2021-11-19T12:20:36Z</time>
      </trkpt>
      <trkpt lat="44.50334" lon="5.08707">
        <ele>449.8</ele>
        <time>2021-11-19T12:20:38Z</time>
      </trkpt>
      <trkpt lat="44.50331" lon="5.08718">
        <ele>450.1</ele>
        <time>2021-11-19T12:20:40Z</time>
      </trkpt>
      <trkpt lat="44.50327" lon="5.08721">
        <ele>450.3</ele>
        <time>2021-11-19T12:20:42Z</time>
      </trkpt>
      <trkpt lat="44.50321" lon="5.08712">
        <ele>450.7</ele>
        <time>2021-11-19T12:20:44Z</time>
      </trkpt>
      <trkpt lat="44.50318" lon="5.08711">
        <ele>450.8</ele>
        <time>2021-11-19T12:20:45Z</time>
      </trkpt>
      <trkpt lat="44.50315" lon="5.0872">
        <ele>451.1</ele>
        <time>2021-11-19T12:20:47Z</time>
      </trkpt>
      <trkpt lat="44.50311" lon="5.08732">
        <ele>451.4</ele>
        <time>2021-11-19T12:20:49Z</time>
      </trkpt>
      <trkpt lat="44.50305" lon="5.08741">
        <ele>451.8</ele>
        <time>2021-11-19T12:20:51Z</time>
      </trkpt>
      <trkpt lat="44.50299" lon="5.08749">
        <ele>452.1</ele>
        <time>2021-11-19T12:20:53Z</time>
      </trkpt>
      <trkpt lat="44.50294" lon="5.08755">
        <ele>452.3</ele>
        <time>2021-11-19T12:20:55Z</time>
      </trkpt>
      <trkpt lat="44.5029" lon="5.08759">
        <ele>452.5</ele>
        <time>2021-11-19T12:20:56Z</time>
      </trkpt>
      <trkpt lat="44.50288" lon="5.08765">
        <ele>452.6</ele>
        <time>2021-11-19T12:20:58Z</time>
      </trkpt>
      <trkpt lat="44.50287" lon="5.08769">
        <ele>452.7</ele>
        <time>2021-11-19T12:20:59Z</time>
      </trkpt>
      <trkpt lat="44.50284" lon="5.08773">
        <ele>452.8</ele>
        <time>2021-11-19T12:21:00Z</time>
      </trkpt>
      <trkpt lat="44.50279" lon="5.08779">
        <ele>453</ele>
        <time>2021-11-19T12:21:02Z</time>
      </trkpt>
      <trkpt lat="44.50277" lon="5.08781">
        <ele>453.1</ele>
        <time>2021-11-19T12:21:03Z</time>
      </trkpt>
      <trkpt lat="44.50271" lon="5.0879">
        <ele>453.3</ele>
        <time>2021-11-19T12:21:05Z</time>
      </trkpt>
      <trkpt lat="44.50269" lon="5.08794">
        <ele>453.4</ele>
        <time>2021-11-19T12:21:07Z</time>
      </trkpt>
      <trkpt lat="44.50262" lon="5.08806">
        <ele>453.6</ele>
        <time>2021-11-19T12:21:09Z</time>
      </trkpt>
      <trkpt lat="44.50255" lon="5.08813">
        <ele>453.8</ele>
        <time>2021-11-19T12:21:11Z</time>
      </trkpt>
      <trkpt lat="44.50247" lon="5.0882">
        <ele>454</ele>
        <time>2021-11-19T12:21:13Z</time>
      </trkpt>
      <trkpt lat="44.50243" lon="5.08824">
        <ele>454.1</ele>
        <time>2021-11-19T12:21:14Z</time>
      </trkpt>
      <trkpt lat="44.50235" lon="5.08831">
        <ele>454.2</ele>
        <time>2021-11-19T12:21:16Z</time>
      </trkpt>
      <trkpt lat="44.50231" lon="5.08834">
        <ele>454.3</ele>
        <time>2021-11-19T12:21:17Z</time>
      </trkpt>
      <trkpt lat="44.50226" lon="5.08835">
        <ele>454.4</ele>
        <time>2021-11-19T12:21:19Z</time>
      </trkpt>
      <trkpt lat="44.50222" lon="5.08837">
        <ele>454.4</ele>
        <time>2021-11-19T12:21:20Z</time>
      </trkpt>
      <trkpt lat="44.50214" lon="5.08842">
        <ele>454.5</ele>
        <time>2021-11-19T12:21:22Z</time>
      </trkpt>
      <trkpt lat="44.50208" lon="5.08844">
        <ele>454.5</ele>
        <time>2021-11-19T12:21:24Z</time>
      </trkpt>
      <trkpt lat="44.50201" lon="5.08846">
        <ele>454.5</ele>
        <time>2021-11-19T12:21:26Z</time>
      </trkpt>
      <trkpt lat="44.50193" lon="5.08856">
        <ele>454.6</ele>
        <time>2021-11-19T12:21:29Z</time>
      </trkpt>
      <trkpt lat="44.50185" lon="5.08868">
        <ele>454.9</ele>
        <time>2021-11-19T12:21:31Z</time>
      </trkpt>
      <trkpt lat="44.5018" lon="5.0888">
        <ele>455.1</ele>
        <time>2021-11-19T12:21:33Z</time>
      </trkpt>
      <trkpt lat="44.50176" lon="5.08885">
        <ele>455.2</ele>
        <time>2021-11-19T12:21:34Z</time>
      </trkpt>
      <trkpt lat="44.50169" lon="5.08894">
        <ele>455.5</ele>
        <time>2021-11-19T12:21:36Z</time>
      </trkpt>
      <trkpt lat="44.50159" lon="5.08899">
        <ele>455.7</ele>
        <time>2021-11-19T12:21:38Z</time>
      </trkpt>
      <trkpt lat="44.50155" lon="5.08901">
        <ele>455.8</ele>
        <time>2021-11-19T12:21:39Z</time>
      </trkpt>
      <trkpt lat="44.5015" lon="5.08904">
        <ele>455.9</ele>
        <time>2021-11-19T12:21:40Z</time>
      </trkpt>
      <trkpt lat="44.50146" lon="5.08906">
        <ele>456</ele>
        <time>2021-11-19T12:21:41Z</time>
      </trkpt>
      <trkpt lat="44.5014" lon="5.0891">
        <ele>456.1</ele>
        <time>2021-11-19T12:21:42Z</time>
      </trkpt>
      <trkpt lat="44.5013" lon="5.08919">
        <ele>456.5</ele>
        <time>2021-11-19T12:21:44Z</time>
      </trkpt>
      <trkpt lat="44.50124" lon="5.08926">
        <ele>456.7</ele>
        <time>2021-11-19T12:21:46Z</time>
      </trkpt>
      <trkpt lat="44.50122" lon="5.08932">
        <ele>456.8</ele>
        <time>2021-11-19T12:21:48Z</time>
      </trkpt>
      <trkpt lat="44.50117" lon="5.0894">
        <ele>457</ele>
        <time>2021-11-19T12:21:50Z</time>
      </trkpt>
      <trkpt lat="44.50114" lon="5.08945">
        <ele>457.1</ele>
        <time>2021-11-19T12:21:51Z</time>
      </trkpt>
      <trkpt lat="44.50119" lon="5.0894">
        <ele>457.2</ele>
        <time>2021-11-19T12:21:52Z</time>
      </trkpt>
      <trkpt lat="44.50115" lon="5.08943">
        <ele>457.4</ele>
        <time>2021-11-19T12:21:54Z</time>
      </trkpt>
      <trkpt lat="44.50126" lon="5.08944">
        <ele>457.6</ele>
        <time>2021-11-19T12:21:57Z</time>
      </trkpt>
      <trkpt lat="44.50114" lon="5.08955">
        <ele>457.9</ele>
        <time>2021-11-19T12:21:59Z</time>
      </trkpt>
      <trkpt lat="44.50103" lon="5.08963">
        <ele>458</ele>
        <time>2021-11-19T12:22:01Z</time>
      </trkpt>
      <trkpt lat="44.501" lon="5.0897">
        <ele>458.1</ele>
        <time>2021-11-19T12:22:03Z</time>
      </trkpt>
      <trkpt lat="44.50096" lon="5.08983">
        <ele>458.3</ele>
        <time>2021-11-19T12:22:04Z</time>
      </trkpt>
      <trkpt lat="44.50095" lon="5.08991">
        <ele>458.4</ele>
        <time>2021-11-19T12:22:06Z</time>
      </trkpt>
      <trkpt lat="44.50093" lon="5.08996">
        <ele>458.4</ele>
        <time>2021-11-19T12:22:07Z</time>
      </trkpt>
      <trkpt lat="44.50089" lon="5.09009">
        <ele>458.6</ele>
        <time>2021-11-19T12:22:09Z</time>
      </trkpt>
      <trkpt lat="44.50085" lon="5.09017">
        <ele>458.8</ele>
        <time>2021-11-19T12:22:11Z</time>
      </trkpt>
      <trkpt lat="44.50082" lon="5.09022">
        <ele>458.9</ele>
        <time>2021-11-19T12:22:13Z</time>
      </trkpt>
      <trkpt lat="44.50077" lon="5.09032">
        <ele>459</ele>
        <time>2021-11-19T12:22:15Z</time>
      </trkpt>
      <trkpt lat="44.50075" lon="5.09037">
        <ele>459.1</ele>
        <time>2021-11-19T12:22:16Z</time>
      </trkpt>
      <trkpt lat="44.50071" lon="5.09046">
        <ele>459.3</ele>
        <time>2021-11-19T12:22:18Z</time>
      </trkpt>
      <trkpt lat="44.50068" lon="5.09055">
        <ele>459.5</ele>
        <time>2021-11-19T12:22:20Z</time>
      </trkpt>
      <trkpt lat="44.50063" lon="5.09068">
        <ele>459.7</ele>
        <time>2021-11-19T12:22:22Z</time>
      </trkpt>
      <trkpt lat="44.50062" lon="5.09074">
        <ele>459.8</ele>
        <time>2021-11-19T12:22:23Z</time>
      </trkpt>
      <trkpt lat="44.50059" lon="5.09082">
        <ele>459.9</ele>
        <time>2021-11-19T12:22:24Z</time>
      </trkpt>
      <trkpt lat="44.50056" lon="5.09089">
        <ele>460.1</ele>
        <time>2021-11-19T12:22:26Z</time>
      </trkpt>
      <trkpt lat="44.5005" lon="5.09103">
        <ele>460.3</ele>
        <time>2021-11-19T12:22:28Z</time>
      </trkpt>
      <trkpt lat="44.50051" lon="5.09105">
        <ele>460.3</ele>
        <time>2021-11-19T12:22:29Z</time>
      </trkpt>
      <trkpt lat="44.50048" lon="5.0911">
        <ele>460.3</ele>
        <time>2021-11-19T12:22:31Z</time>
      </trkpt>
      <trkpt lat="44.50043" lon="5.09123">
        <ele>460.5</ele>
        <time>2021-11-19T12:22:32Z</time>
      </trkpt>
      <trkpt lat="44.50042" lon="5.09129">
        <ele>460.5</ele>
        <time>2021-11-19T12:22:33Z</time>
      </trkpt>
      <trkpt lat="44.50042" lon="5.09135">
        <ele>460.6</ele>
        <time>2021-11-19T12:22:35Z</time>
      </trkpt>
      <trkpt lat="44.50041" lon="5.09141">
        <ele>460.7</ele>
        <time>2021-11-19T12:22:36Z</time>
      </trkpt>
      <trkpt lat="44.5004" lon="5.09147">
        <ele>460.7</ele>
        <time>2021-11-19T12:22:37Z</time>
      </trkpt>
      <trkpt lat="44.50038" lon="5.09156">
        <ele>460.8</ele>
        <time>2021-11-19T12:22:38Z</time>
      </trkpt>
      <trkpt lat="44.50044" lon="5.09152">
        <ele>460.9</ele>
        <time>2021-11-19T12:22:40Z</time>
      </trkpt>
      <trkpt lat="44.50049" lon="5.09159">
        <ele>461</ele>
        <time>2021-11-19T12:22:41Z</time>
      </trkpt>
      <trkpt lat="44.50044" lon="5.09182">
        <ele>461.2</ele>
        <time>2021-11-19T12:22:43Z</time>
      </trkpt>
      <trkpt lat="44.50041" lon="5.09199">
        <ele>461.4</ele>
        <time>2021-11-19T12:22:44Z</time>
      </trkpt>
      <trkpt lat="44.50039" lon="5.0921">
        <ele>461.5</ele>
        <time>2021-11-19T12:22:45Z</time>
      </trkpt>
      <trkpt lat="44.50037" lon="5.09229">
        <ele>461.7</ele>
        <time>2021-11-19T12:22:48Z</time>
      </trkpt>
      <trkpt lat="44.50037" lon="5.09254">
        <ele>461.9</ele>
        <time>2021-11-19T12:22:51Z</time>
      </trkpt>
      <trkpt lat="44.50038" lon="5.09266">
        <ele>462</ele>
        <time>2021-11-19T12:22:52Z</time>
      </trkpt>
      <trkpt lat="44.50038" lon="5.09282">
        <ele>462.2</ele>
        <time>2021-11-19T12:22:54Z</time>
      </trkpt>
      <trkpt lat="44.50037" lon="5.09293">
        <ele>462.2</ele>
        <time>2021-11-19T12:22:55Z</time>
      </trkpt>
      <trkpt lat="44.50037" lon="5.09301">
        <ele>462.3</ele>
        <time>2021-11-19T12:22:56Z</time>
      </trkpt>
      <trkpt lat="44.50036" lon="5.09314">
        <ele>462.4</ele>
        <time>2021-11-19T12:22:58Z</time>
      </trkpt>
      <trkpt lat="44.50034" lon="5.09326">
        <ele>462.5</ele>
        <time>2021-11-19T12:23:00Z</time>
      </trkpt>
      <trkpt lat="44.50033" lon="5.09333">
        <ele>462.5</ele>
        <time>2021-11-19T12:23:01Z</time>
      </trkpt>
      <trkpt lat="44.50031" lon="5.09345">
        <ele>462.6</ele>
        <time>2021-11-19T12:23:03Z</time>
      </trkpt>
      <trkpt lat="44.50029" lon="5.09356">
        <ele>462.7</ele>
        <time>2021-11-19T12:23:05Z</time>
      </trkpt>
      <trkpt lat="44.50026" lon="5.09366">
        <ele>462.8</ele>
        <time>2021-11-19T12:23:07Z</time>
      </trkpt>
      <trkpt lat="44.50024" lon="5.09379">
        <ele>462.9</ele>
        <time>2021-11-19T12:23:09Z</time>
      </trkpt>
      <trkpt lat="44.50019" lon="5.09395">
        <ele>463.1</ele>
        <time>2021-11-19T12:23:11Z</time>
      </trkpt>
      <trkpt lat="44.50015" lon="5.09405">
        <ele>463.2</ele>
        <time>2021-11-19T12:23:13Z</time>
      </trkpt>
      <trkpt lat="44.5001" lon="5.09417">
        <ele>463.3</ele>
        <time>2021-11-19T12:23:15Z</time>
      </trkpt>
      <trkpt lat="44.50006" lon="5.09427">
        <ele>463.4</ele>
        <time>2021-11-19T12:23:17Z</time>
      </trkpt>
      <trkpt lat="44.5" lon="5.0944">
        <ele>463.4</ele>
        <time>2021-11-19T12:23:20Z</time>
      </trkpt>
      <trkpt lat="44.49997" lon="5.09448">
        <ele>463.4</ele>
        <time>2021-11-19T12:23:21Z</time>
      </trkpt>
      <trkpt lat="44.49993" lon="5.09456">
        <ele>463.5</ele>
        <time>2021-11-19T12:23:23Z</time>
      </trkpt>
      <trkpt lat="44.49988" lon="5.09466">
        <ele>463.5</ele>
        <time>2021-11-19T12:23:25Z</time>
      </trkpt>
      <trkpt lat="44.49987" lon="5.09457">
        <ele>463.5</ele>
        <time>2021-11-19T12:23:26Z</time>
      </trkpt>
      <trkpt lat="44.49988" lon="5.09467">
        <ele>463.5</ele>
        <time>2021-11-19T12:23:27Z</time>
      </trkpt>
      <trkpt lat="44.49982" lon="5.09477">
        <ele>463.5</ele>
        <time>2021-11-19T12:23:29Z</time>
      </trkpt>
      <trkpt lat="44.49976" lon="5.09479">
        <ele>463.5</ele>
        <time>2021-11-19T12:23:31Z</time>
      </trkpt>
      <trkpt lat="44.49971" lon="5.09491">
        <ele>463.5</ele>
        <time>2021-11-19T12:23:33Z</time>
      </trkpt>
      <trkpt lat="44.49967" lon="5.095">
        <ele>463.6</ele>
        <time>2021-11-19T12:23:34Z</time>
      </trkpt>
      <trkpt lat="44.49963" lon="5.09515">
        <ele>463.6</ele>
        <time>2021-11-19T12:23:36Z</time>
      </trkpt>
      <trkpt lat="44.49962" lon="5.09516">
        <ele>463.6</ele>
        <time>2021-11-19T12:23:37Z</time>
      </trkpt>
      <trkpt lat="44.49955" lon="5.09513">
        <ele>463.7</ele>
        <time>2021-11-19T12:23:39Z</time>
      </trkpt>
      <trkpt lat="44.4995" lon="5.0953">
        <ele>463.9</ele>
        <time>2021-11-19T12:23:40Z</time>
      </trkpt>
      <trkpt lat="44.49947" lon="5.09542">
        <ele>464.1</ele>
        <time>2021-11-19T12:23:43Z</time>
      </trkpt>
      <trkpt lat="44.49944" lon="5.09551">
        <ele>464.2</ele>
        <time>2021-11-19T12:23:44Z</time>
      </trkpt>
      <trkpt lat="44.49943" lon="5.09561">
        <ele>464.3</ele>
        <time>2021-11-19T12:23:46Z</time>
      </trkpt>
      <trkpt lat="44.49937" lon="5.09554">
        <ele>464.5</ele>
        <time>2021-11-19T12:23:48Z</time>
      </trkpt>
      <trkpt lat="44.49933" lon="5.09586">
        <ele>465.1</ele>
        <time>2021-11-19T12:23:51Z</time>
      </trkpt>
      <trkpt lat="44.4994" lon="5.09594">
        <ele>465.3</ele>
        <time>2021-11-19T12:23:53Z</time>
      </trkpt>
      <trkpt lat="44.49934" lon="5.09617">
        <ele>465.7</ele>
        <time>2021-11-19T12:23:55Z</time>
      </trkpt>
      <trkpt lat="44.49934" lon="5.09636">
        <ele>465.9</ele>
        <time>2021-11-19T12:23:57Z</time>
      </trkpt>
      <trkpt lat="44.49937" lon="5.09649">
        <ele>466.2</ele>
        <time>2021-11-19T12:23:59Z</time>
      </trkpt>
      <trkpt lat="44.49941" lon="5.09657">
        <ele>466.3</ele>
        <time>2021-11-19T12:24:00Z</time>
      </trkpt>
      <trkpt lat="44.49946" lon="5.09663">
        <ele>466.5</ele>
        <time>2021-11-19T12:24:01Z</time>
      </trkpt>
      <trkpt lat="44.49954" lon="5.0967">
        <ele>466.7</ele>
        <time>2021-11-19T12:24:02Z</time>
      </trkpt>
      <trkpt lat="44.49957" lon="5.09672">
        <ele>466.9</ele>
        <time>2021-11-19T12:24:03Z</time>
      </trkpt>
      <trkpt lat="44.49961" lon="5.09676">
        <ele>467</ele>
        <time>2021-11-19T12:24:05Z</time>
      </trkpt>
      <trkpt lat="44.49965" lon="5.09679">
        <ele>467.2</ele>
        <time>2021-11-19T12:24:06Z</time>
      </trkpt>
      <trkpt lat="44.49973" lon="5.09685">
        <ele>467.6</ele>
        <time>2021-11-19T12:24:08Z</time>
      </trkpt>
      <trkpt lat="44.49977" lon="5.09687">
        <ele>467.8</ele>
        <time>2021-11-19T12:24:09Z</time>
      </trkpt>
      <trkpt lat="44.49983" lon="5.09692">
        <ele>468.1</ele>
        <time>2021-11-19T12:24:11Z</time>
      </trkpt>
      <trkpt lat="44.49986" lon="5.09693">
        <ele>468.2</ele>
        <time>2021-11-19T12:24:12Z</time>
      </trkpt>
      <trkpt lat="44.49994" lon="5.09699">
        <ele>468.7</ele>
        <time>2021-11-19T12:24:14Z</time>
      </trkpt>
      <trkpt lat="44.5" lon="5.09702">
        <ele>469</ele>
        <time>2021-11-19T12:24:15Z</time>
      </trkpt>
      <trkpt lat="44.50005" lon="5.09704">
        <ele>469.1</ele>
        <time>2021-11-19T12:24:16Z</time>
      </trkpt>
      <trkpt lat="44.50007" lon="5.09705">
        <ele>469.1</ele>
        <time>2021-11-19T12:24:17Z</time>
      </trkpt>
      <trkpt lat="44.50009" lon="5.09705">
        <ele>469.1</ele>
        <time>2021-11-19T12:24:19Z</time>
      </trkpt>
      <trkpt lat="44.50014" lon="5.09707">
        <ele>469.3</ele>
        <time>2021-11-19T12:24:21Z</time>
      </trkpt>
      <trkpt lat="44.50017" lon="5.09709">
        <ele>469.5</ele>
        <time>2021-11-19T12:24:22Z</time>
      </trkpt>
      <trkpt lat="44.50019" lon="5.09711">
        <ele>469.6</ele>
        <time>2021-11-19T12:24:24Z</time>
      </trkpt>
      <trkpt lat="44.50021" lon="5.09713">
        <ele>469.6</ele>
        <time>2021-11-19T12:24:25Z</time>
      </trkpt>
      <trkpt lat="44.50024" lon="5.09715">
        <ele>469.8</ele>
        <time>2021-11-19T12:24:27Z</time>
      </trkpt>
      <trkpt lat="44.50025" lon="5.09717">
        <ele>469.8</ele>
        <time>2021-11-19T12:24:28Z</time>
      </trkpt>
      <trkpt lat="44.50029" lon="5.09721">
        <ele>469.9</ele>
        <time>2021-11-19T12:24:31Z</time>
      </trkpt>
      <trkpt lat="44.50033" lon="5.09723">
        <ele>470</ele>
        <time>2021-11-19T12:24:33Z</time>
      </trkpt>
      <trkpt lat="44.50037" lon="5.09726">
        <ele>470.1</ele>
        <time>2021-11-19T12:24:35Z</time>
      </trkpt>
      <trkpt lat="44.50038" lon="5.09728">
        <ele>470.1</ele>
        <time>2021-11-19T12:24:36Z</time>
      </trkpt>
      <trkpt lat="44.50039" lon="5.0973">
        <ele>470.2</ele>
        <time>2021-11-19T12:24:37Z</time>
      </trkpt>
      <trkpt lat="44.50041" lon="5.09742">
        <ele>470.2</ele>
        <time>2021-11-19T12:24:39Z</time>
      </trkpt>
      <trkpt lat="44.50041" lon="5.09754">
        <ele>470.2</ele>
        <time>2021-11-19T12:24:41Z</time>
      </trkpt>
      <trkpt lat="44.50042" lon="5.09767">
        <ele>470</ele>
        <time>2021-11-19T12:24:43Z</time>
      </trkpt>
      <trkpt lat="44.50041" lon="5.09772">
        <ele>470</ele>
        <time>2021-11-19T12:24:44Z</time>
      </trkpt>
      <trkpt lat="44.50039" lon="5.09791">
        <ele>469.7</ele>
        <time>2021-11-19T12:24:47Z</time>
      </trkpt>
      <trkpt lat="44.50039" lon="5.09805">
        <ele>469.4</ele>
        <time>2021-11-19T12:24:49Z</time>
      </trkpt>
      <trkpt lat="44.50039" lon="5.09817">
        <ele>469.1</ele>
        <time>2021-11-19T12:24:51Z</time>
      </trkpt>
      <trkpt lat="44.50039" lon="5.09819">
        <ele>469.1</ele>
        <time>2021-11-19T12:24:52Z</time>
      </trkpt>
      <trkpt lat="44.50039" lon="5.09822">
        <ele>469</ele>
        <time>2021-11-19T12:24:53Z</time>
      </trkpt>
      <trkpt lat="44.50039" lon="5.09825">
        <ele>468.9</ele>
        <time>2021-11-19T12:24:55Z</time>
      </trkpt>
      <trkpt lat="44.5004" lon="5.09828">
        <ele>468.8</ele>
        <time>2021-11-19T12:24:56Z</time>
      </trkpt>
      <trkpt lat="44.50044" lon="5.09841">
        <ele>468.5</ele>
        <time>2021-11-19T12:24:57Z</time>
      </trkpt>
      <trkpt lat="44.50047" lon="5.09854">
        <ele>468.2</ele>
        <time>2021-11-19T12:25:00Z</time>
      </trkpt>
      <trkpt lat="44.50048" lon="5.09863">
        <ele>468</ele>
        <time>2021-11-19T12:25:01Z</time>
      </trkpt>
      <trkpt lat="44.5005" lon="5.09871">
        <ele>467.9</ele>
        <time>2021-11-19T12:25:02Z</time>
      </trkpt>
      <trkpt lat="44.50052" lon="5.0988">
        <ele>467.8</ele>
        <time>2021-11-19T12:25:03Z</time>
      </trkpt>
      <trkpt lat="44.50053" lon="5.09889">
        <ele>467.6</ele>
        <time>2021-11-19T12:25:04Z</time>
      </trkpt>
      <trkpt lat="44.50056" lon="5.099">
        <ele>467.5</ele>
        <time>2021-11-19T12:25:05Z</time>
      </trkpt>
      <trkpt lat="44.50058" lon="5.09909">
        <ele>467.3</ele>
        <time>2021-11-19T12:25:06Z</time>
      </trkpt>
      <trkpt lat="44.50059" lon="5.09919">
        <ele>467.2</ele>
        <time>2021-11-19T12:25:07Z</time>
      </trkpt>
      <trkpt lat="44.5006" lon="5.09927">
        <ele>467.1</ele>
        <time>2021-11-19T12:25:08Z</time>
      </trkpt>
      <trkpt lat="44.50063" lon="5.09935">
        <ele>467</ele>
        <time>2021-11-19T12:25:09Z</time>
      </trkpt>
      <trkpt lat="44.50065" lon="5.09945">
        <ele>466.8</ele>
        <time>2021-11-19T12:25:10Z</time>
      </trkpt>
      <trkpt lat="44.50065" lon="5.09954">
        <ele>466.6</ele>
        <time>2021-11-19T12:25:11Z</time>
      </trkpt>
      <trkpt lat="44.50065" lon="5.09963">
        <ele>466.5</ele>
        <time>2021-11-19T12:25:12Z</time>
      </trkpt>
      <trkpt lat="44.50065" lon="5.09972">
        <ele>466.4</ele>
        <time>2021-11-19T12:25:13Z</time>
      </trkpt>
      <trkpt lat="44.50066" lon="5.09981">
        <ele>466.2</ele>
        <time>2021-11-19T12:25:14Z</time>
      </trkpt>
      <trkpt lat="44.50067" lon="5.0999">
        <ele>466.1</ele>
        <time>2021-11-19T12:25:15Z</time>
      </trkpt>
      <trkpt lat="44.50068" lon="5.09999">
        <ele>465.9</ele>
        <time>2021-11-19T12:25:16Z</time>
      </trkpt>
      <trkpt lat="44.50068" lon="5.10008">
        <ele>465.8</ele>
        <time>2021-11-19T12:25:17Z</time>
      </trkpt>
      <trkpt lat="44.50067" lon="5.10017">
        <ele>465.6</ele>
        <time>2021-11-19T12:25:18Z</time>
      </trkpt>
      <trkpt lat="44.50066" lon="5.10027">
        <ele>465.5</ele>
        <time>2021-11-19T12:25:19Z</time>
      </trkpt>
      <trkpt lat="44.50065" lon="5.10036">
        <ele>465.4</ele>
        <time>2021-11-19T12:25:20Z</time>
      </trkpt>
      <trkpt lat="44.50064" lon="5.10045">
        <ele>465.2</ele>
        <time>2021-11-19T12:25:21Z</time>
      </trkpt>
      <trkpt lat="44.50064" lon="5.10054">
        <ele>465.1</ele>
        <time>2021-11-19T12:25:22Z</time>
      </trkpt>
      <trkpt lat="44.50063" lon="5.10064">
        <ele>465</ele>
        <time>2021-11-19T12:25:23Z</time>
      </trkpt>
      <trkpt lat="44.50062" lon="5.10073">
        <ele>465</ele>
        <time>2021-11-19T12:25:24Z</time>
      </trkpt>
      <trkpt lat="44.50061" lon="5.10082">
        <ele>464.9</ele>
        <time>2021-11-19T12:25:25Z</time>
      </trkpt>
      <trkpt lat="44.5006" lon="5.10092">
        <ele>464.8</ele>
        <time>2021-11-19T12:25:26Z</time>
      </trkpt>
      <trkpt lat="44.50059" lon="5.10102">
        <ele>464.7</ele>
        <time>2021-11-19T12:25:27Z</time>
      </trkpt>
      <trkpt lat="44.50059" lon="5.10111">
        <ele>464.7</ele>
        <time>2021-11-19T12:25:28Z</time>
      </trkpt>
      <trkpt lat="44.50058" lon="5.1012">
        <ele>464.8</ele>
        <time>2021-11-19T12:25:29Z</time>
      </trkpt>
      <trkpt lat="44.50057" lon="5.10129">
        <ele>464.9</ele>
        <time>2021-11-19T12:25:30Z</time>
      </trkpt>
      <trkpt lat="44.50057" lon="5.10137">
        <ele>465</ele>
        <time>2021-11-19T12:25:31Z</time>
      </trkpt>
      <trkpt lat="44.50057" lon="5.10144">
        <ele>465.2</ele>
        <time>2021-11-19T12:25:32Z</time>
      </trkpt>
      <trkpt lat="44.50057" lon="5.10152">
        <ele>465.3</ele>
        <time>2021-11-19T12:25:33Z</time>
      </trkpt>
      <trkpt lat="44.50057" lon="5.1016">
        <ele>465.5</ele>
        <time>2021-11-19T12:25:34Z</time>
      </trkpt>
      <trkpt lat="44.50058" lon="5.10167">
        <ele>465.7</ele>
        <time>2021-11-19T12:25:35Z</time>
      </trkpt>
      <trkpt lat="44.50059" lon="5.10175">
        <ele>465.9</ele>
        <time>2021-11-19T12:25:36Z</time>
      </trkpt>
      <trkpt lat="44.5006" lon="5.10184">
        <ele>466.1</ele>
        <time>2021-11-19T12:25:37Z</time>
      </trkpt>
      <trkpt lat="44.50061" lon="5.10193">
        <ele>466.3</ele>
        <time>2021-11-19T12:25:38Z</time>
      </trkpt>
      <trkpt lat="44.5006" lon="5.102">
        <ele>466.5</ele>
        <time>2021-11-19T12:25:39Z</time>
      </trkpt>
      <trkpt lat="44.50059" lon="5.10208">
        <ele>466.7</ele>
        <time>2021-11-19T12:25:40Z</time>
      </trkpt>
      <trkpt lat="44.50059" lon="5.10215">
        <ele>466.9</ele>
        <time>2021-11-19T12:25:41Z</time>
      </trkpt>
      <trkpt lat="44.50059" lon="5.10222">
        <ele>467.1</ele>
        <time>2021-11-19T12:25:42Z</time>
      </trkpt>
      <trkpt lat="44.50058" lon="5.10228">
        <ele>467.3</ele>
        <time>2021-11-19T12:25:43Z</time>
      </trkpt>
      <trkpt lat="44.50056" lon="5.10235">
        <ele>467.5</ele>
        <time>2021-11-19T12:25:44Z</time>
      </trkpt>
      <trkpt lat="44.50055" lon="5.10241">
        <ele>467.7</ele>
        <time>2021-11-19T12:25:45Z</time>
      </trkpt>
      <trkpt lat="44.50053" lon="5.10247">
        <ele>467.9</ele>
        <time>2021-11-19T12:25:46Z</time>
      </trkpt>
      <trkpt lat="44.50052" lon="5.10253">
        <ele>468.1</ele>
        <time>2021-11-19T12:25:47Z</time>
      </trkpt>
      <trkpt lat="44.50048" lon="5.1026">
        <ele>468.4</ele>
        <time>2021-11-19T12:25:48Z</time>
      </trkpt>
      <trkpt lat="44.50043" lon="5.10273">
        <ele>468.9</ele>
        <time>2021-11-19T12:25:49Z</time>
      </trkpt>
      <trkpt lat="44.50043" lon="5.10277">
        <ele>469</ele>
        <time>2021-11-19T12:25:50Z</time>
      </trkpt>
      <trkpt lat="44.50045" lon="5.10285">
        <ele>469.3</ele>
        <time>2021-11-19T12:25:52Z</time>
      </trkpt>
      <trkpt lat="44.50046" lon="5.1029">
        <ele>469.5</ele>
        <time>2021-11-19T12:25:53Z</time>
      </trkpt>
      <trkpt lat="44.50046" lon="5.10294">
        <ele>469.6</ele>
        <time>2021-11-19T12:25:55Z</time>
      </trkpt>
      <trkpt lat="44.50045" lon="5.10304">
        <ele>470</ele>
        <time>2021-11-19T12:25:57Z</time>
      </trkpt>
      <trkpt lat="44.50045" lon="5.10313">
        <ele>470.3</ele>
        <time>2021-11-19T12:25:59Z</time>
      </trkpt>
      <trkpt lat="44.50045" lon="5.10328">
        <ele>470.7</ele>
        <time>2021-11-19T12:26:02Z</time>
      </trkpt>
      <trkpt lat="44.50045" lon="5.1034">
        <ele>471.2</ele>
        <time>2021-11-19T12:26:04Z</time>
      </trkpt>
      <trkpt lat="44.50046" lon="5.10351">
        <ele>471.6</ele>
        <time>2021-11-19T12:26:05Z</time>
      </trkpt>
      <trkpt lat="44.50046" lon="5.10361">
        <ele>471.9</ele>
        <time>2021-11-19T12:26:08Z</time>
      </trkpt>
      <trkpt lat="44.50044" lon="5.10376">
        <ele>472.4</ele>
        <time>2021-11-19T12:26:11Z</time>
      </trkpt>
      <trkpt lat="44.50042" lon="5.10385">
        <ele>472.8</ele>
        <time>2021-11-19T12:26:12Z</time>
      </trkpt>
      <trkpt lat="44.5004" lon="5.10397">
        <ele>473.2</ele>
        <time>2021-11-19T12:26:14Z</time>
      </trkpt>
      <trkpt lat="44.50037" lon="5.10405">
        <ele>473.6</ele>
        <time>2021-11-19T12:26:16Z</time>
      </trkpt>
      <trkpt lat="44.50036" lon="5.10406">
        <ele>473.7</ele>
        <time>2021-11-19T12:26:17Z</time>
      </trkpt>
      <trkpt lat="44.50034" lon="5.10413">
        <ele>474</ele>
        <time>2021-11-19T12:26:19Z</time>
      </trkpt>
      <trkpt lat="44.50032" lon="5.10418">
        <ele>474.2</ele>
        <time>2021-11-19T12:26:20Z</time>
      </trkpt>
      <trkpt lat="44.5003" lon="5.10432">
        <ele>474.8</ele>
        <time>2021-11-19T12:26:22Z</time>
      </trkpt>
      <trkpt lat="44.50028" lon="5.10439">
        <ele>475</ele>
        <time>2021-11-19T12:26:23Z</time>
      </trkpt>
      <trkpt lat="44.50025" lon="5.10436">
        <ele>475.2</ele>
        <time>2021-11-19T12:26:25Z</time>
      </trkpt>
      <trkpt lat="44.50025" lon="5.10434">
        <ele>475.3</ele>
        <time>2021-11-19T12:26:26Z</time>
      </trkpt>
      <trkpt lat="44.50021" lon="5.10441">
        <ele>475.6</ele>
        <time>2021-11-19T12:26:28Z</time>
      </trkpt>
      <trkpt lat="44.5002" lon="5.10445">
        <ele>475.7</ele>
        <time>2021-11-19T12:26:29Z</time>
      </trkpt>
      <trkpt lat="44.50017" lon="5.10452">
        <ele>476</ele>
        <time>2021-11-19T12:26:31Z</time>
      </trkpt>
      <trkpt lat="44.50015" lon="5.10459">
        <ele>476.3</ele>
        <time>2021-11-19T12:26:33Z</time>
      </trkpt>
      <trkpt lat="44.50014" lon="5.10462">
        <ele>476.4</ele>
        <time>2021-11-19T12:26:34Z</time>
      </trkpt>
      <trkpt lat="44.50012" lon="5.1047">
        <ele>476.7</ele>
        <time>2021-11-19T12:26:36Z</time>
      </trkpt>
      <trkpt lat="44.5001" lon="5.10479">
        <ele>477</ele>
        <time>2021-11-19T12:26:38Z</time>
      </trkpt>
      <trkpt lat="44.50009" lon="5.10485">
        <ele>477.2</ele>
        <time>2021-11-19T12:26:39Z</time>
      </trkpt>
      <trkpt lat="44.50007" lon="5.10495">
        <ele>477.5</ele>
        <time>2021-11-19T12:26:41Z</time>
      </trkpt>
      <trkpt lat="44.50007" lon="5.10499">
        <ele>477.6</ele>
        <time>2021-11-19T12:26:42Z</time>
      </trkpt>
      <trkpt lat="44.50007" lon="5.10501">
        <ele>477.7</ele>
        <time>2021-11-19T12:26:43Z</time>
      </trkpt>
      <trkpt lat="44.50006" lon="5.10506">
        <ele>477.8</ele>
        <time>2021-11-19T12:26:44Z</time>
      </trkpt>
      <trkpt lat="44.50005" lon="5.10513">
        <ele>477.9</ele>
        <time>2021-11-19T12:26:45Z</time>
      </trkpt>
      <trkpt lat="44.50004" lon="5.10517">
        <ele>478</ele>
        <time>2021-11-19T12:26:46Z</time>
      </trkpt>
      <trkpt lat="44.50004" lon="5.10524">
        <ele>478.1</ele>
        <time>2021-11-19T12:26:48Z</time>
      </trkpt>
      <trkpt lat="44.50003" lon="5.10532">
        <ele>478.1</ele>
        <time>2021-11-19T12:26:49Z</time>
      </trkpt>
      <trkpt lat="44.50002" lon="5.10539">
        <ele>478.1</ele>
        <time>2021-11-19T12:26:51Z</time>
      </trkpt>
      <trkpt lat="44.50003" lon="5.10544">
        <ele>478.1</ele>
        <time>2021-11-19T12:26:53Z</time>
      </trkpt>
      <trkpt lat="44.50004" lon="5.10543">
        <ele>478</ele>
        <time>2021-11-19T12:26:54Z</time>
      </trkpt>
      <trkpt lat="44.50004" lon="5.1055">
        <ele>478</ele>
        <time>2021-11-19T12:26:56Z</time>
      </trkpt>
      <trkpt lat="44.50004" lon="5.10557">
        <ele>477.9</ele>
        <time>2021-11-19T12:26:58Z</time>
      </trkpt>
      <trkpt lat="44.50002" lon="5.10567">
        <ele>477.7</ele>
        <time>2021-11-19T12:27:01Z</time>
      </trkpt>
      <trkpt lat="44.50002" lon="5.10569">
        <ele>477.7</ele>
        <time>2021-11-19T12:27:02Z</time>
      </trkpt>
      <trkpt lat="44.50002" lon="5.10571">
        <ele>477.7</ele>
        <time>2021-11-19T12:27:03Z</time>
      </trkpt>
      <trkpt lat="44.50001" lon="5.10576">
        <ele>477.6</ele>
        <time>2021-11-19T12:27:05Z</time>
      </trkpt>
      <trkpt lat="44.50001" lon="5.1058">
        <ele>477.5</ele>
        <time>2021-11-19T12:27:06Z</time>
      </trkpt>
      <trkpt lat="44.49999" lon="5.10588">
        <ele>477.3</ele>
        <time>2021-11-19T12:27:08Z</time>
      </trkpt>
      <trkpt lat="44.49998" lon="5.10591">
        <ele>477.2</ele>
        <time>2021-11-19T12:27:09Z</time>
      </trkpt>
      <trkpt lat="44.49996" lon="5.10596">
        <ele>477.1</ele>
        <time>2021-11-19T12:27:11Z</time>
      </trkpt>
      <trkpt lat="44.49982" lon="5.1068">
        <ele>475.4</ele>
        <time>2021-11-19T12:27:14Z</time>
      </trkpt>
      <trkpt lat="44.4998" lon="5.10693">
        <ele>475.1</ele>
        <time>2021-11-19T12:27:15Z</time>
      </trkpt>
      <trkpt lat="44.49977" lon="5.10705">
        <ele>475</ele>
        <time>2021-11-19T12:27:16Z</time>
      </trkpt>
      <trkpt lat="44.49975" lon="5.10716">
        <ele>474.8</ele>
        <time>2021-11-19T12:27:17Z</time>
      </trkpt>
      <trkpt lat="44.49972" lon="5.10726">
        <ele>474.7</ele>
        <time>2021-11-19T12:27:18Z</time>
      </trkpt>
      <trkpt lat="44.4997" lon="5.10735">
        <ele>474.6</ele>
        <time>2021-11-19T12:27:19Z</time>
      </trkpt>
      <trkpt lat="44.49967" lon="5.10744">
        <ele>474.5</ele>
        <time>2021-11-19T12:27:20Z</time>
      </trkpt>
      <trkpt lat="44.49966" lon="5.10754">
        <ele>474.4</ele>
        <time>2021-11-19T12:27:21Z</time>
      </trkpt>
      <trkpt lat="44.49965" lon="5.10763">
        <ele>474.3</ele>
        <time>2021-11-19T12:27:22Z</time>
      </trkpt>
      <trkpt lat="44.49964" lon="5.10772">
        <ele>474.2</ele>
        <time>2021-11-19T12:27:23Z</time>
      </trkpt>
      <trkpt lat="44.49963" lon="5.1078">
        <ele>474.2</ele>
        <time>2021-11-19T12:27:24Z</time>
      </trkpt>
      <trkpt lat="44.49962" lon="5.10788">
        <ele>474.1</ele>
        <time>2021-11-19T12:27:25Z</time>
      </trkpt>
      <trkpt lat="44.49962" lon="5.10795">
        <ele>474.1</ele>
        <time>2021-11-19T12:27:26Z</time>
      </trkpt>
      <trkpt lat="44.49961" lon="5.10802">
        <ele>474</ele>
        <time>2021-11-19T12:27:27Z</time>
      </trkpt>
      <trkpt lat="44.4996" lon="5.10809">
        <ele>474</ele>
        <time>2021-11-19T12:27:28Z</time>
      </trkpt>
      <trkpt lat="44.49959" lon="5.10816">
        <ele>474</ele>
        <time>2021-11-19T12:27:29Z</time>
      </trkpt>
      <trkpt lat="44.49958" lon="5.10823">
        <ele>473.9</ele>
        <time>2021-11-19T12:27:30Z</time>
      </trkpt>
      <trkpt lat="44.49957" lon="5.1083">
        <ele>473.9</ele>
        <time>2021-11-19T12:27:31Z</time>
      </trkpt>
      <trkpt lat="44.49957" lon="5.10838">
        <ele>473.8</ele>
        <time>2021-11-19T12:27:32Z</time>
      </trkpt>
      <trkpt lat="44.49957" lon="5.10846">
        <ele>473.8</ele>
        <time>2021-11-19T12:27:33Z</time>
      </trkpt>
      <trkpt lat="44.49957" lon="5.10857">
        <ele>473.7</ele>
        <time>2021-11-19T12:27:34Z</time>
      </trkpt>
      <trkpt lat="44.49957" lon="5.10866">
        <ele>473.7</ele>
        <time>2021-11-19T12:27:35Z</time>
      </trkpt>
      <trkpt lat="44.49958" lon="5.10875">
        <ele>473.6</ele>
        <time>2021-11-19T12:27:36Z</time>
      </trkpt>
      <trkpt lat="44.49958" lon="5.10884">
        <ele>473.6</ele>
        <time>2021-11-19T12:27:37Z</time>
      </trkpt>
      <trkpt lat="44.49959" lon="5.10892">
        <ele>473.5</ele>
        <time>2021-11-19T12:27:38Z</time>
      </trkpt>
      <trkpt lat="44.49959" lon="5.109">
        <ele>473.5</ele>
        <time>2021-11-19T12:27:39Z</time>
      </trkpt>
      <trkpt lat="44.4996" lon="5.10908">
        <ele>473.4</ele>
        <time>2021-11-19T12:27:40Z</time>
      </trkpt>
      <trkpt lat="44.4996" lon="5.10917">
        <ele>473.4</ele>
        <time>2021-11-19T12:27:41Z</time>
      </trkpt>
      <trkpt lat="44.4996" lon="5.10927">
        <ele>473.3</ele>
        <time>2021-11-19T12:27:42Z</time>
      </trkpt>
      <trkpt lat="44.49959" lon="5.10937">
        <ele>473.2</ele>
        <time>2021-11-19T12:27:43Z</time>
      </trkpt>
      <trkpt lat="44.49959" lon="5.10947">
        <ele>473</ele>
        <time>2021-11-19T12:27:44Z</time>
      </trkpt>
      <trkpt lat="44.49958" lon="5.10957">
        <ele>472.9</ele>
        <time>2021-11-19T12:27:45Z</time>
      </trkpt>
      <trkpt lat="44.49956" lon="5.10966">
        <ele>472.8</ele>
        <time>2021-11-19T12:27:46Z</time>
      </trkpt>
      <trkpt lat="44.49952" lon="5.10975">
        <ele>472.8</ele>
        <time>2021-11-19T12:27:47Z</time>
      </trkpt>
      <trkpt lat="44.49948" lon="5.10983">
        <ele>472.7</ele>
        <time>2021-11-19T12:27:48Z</time>
      </trkpt>
      <trkpt lat="44.49944" lon="5.10991">
        <ele>472.7</ele>
        <time>2021-11-19T12:27:49Z</time>
      </trkpt>
      <trkpt lat="44.49936" lon="5.11006">
        <ele>472.7</ele>
        <time>2021-11-19T12:27:51Z</time>
      </trkpt>
      <trkpt lat="44.49933" lon="5.11014">
        <ele>472.8</ele>
        <time>2021-11-19T12:27:52Z</time>
      </trkpt>
      <trkpt lat="44.4993" lon="5.11019">
        <ele>472.8</ele>
        <time>2021-11-19T12:27:53Z</time>
      </trkpt>
      <trkpt lat="44.49926" lon="5.11025">
        <ele>472.8</ele>
        <time>2021-11-19T12:27:54Z</time>
      </trkpt>
      <trkpt lat="44.49922" lon="5.11032">
        <ele>472.9</ele>
        <time>2021-11-19T12:27:55Z</time>
      </trkpt>
      <trkpt lat="44.49918" lon="5.11039">
        <ele>472.9</ele>
        <time>2021-11-19T12:27:56Z</time>
      </trkpt>
      <trkpt lat="44.49914" lon="5.11045">
        <ele>473</ele>
        <time>2021-11-19T12:27:57Z</time>
      </trkpt>
      <trkpt lat="44.49909" lon="5.1105">
        <ele>473</ele>
        <time>2021-11-19T12:27:58Z</time>
      </trkpt>
      <trkpt lat="44.49904" lon="5.11054">
        <ele>473</ele>
        <time>2021-11-19T12:27:59Z</time>
      </trkpt>
      <trkpt lat="44.499" lon="5.11059">
        <ele>473.1</ele>
        <time>2021-11-19T12:28:00Z</time>
      </trkpt>
      <trkpt lat="44.49895" lon="5.11064">
        <ele>473.1</ele>
        <time>2021-11-19T12:28:01Z</time>
      </trkpt>
      <trkpt lat="44.49891" lon="5.11069">
        <ele>473.1</ele>
        <time>2021-11-19T12:28:02Z</time>
      </trkpt>
      <trkpt lat="44.49888" lon="5.11074">
        <ele>473.2</ele>
        <time>2021-11-19T12:28:03Z</time>
      </trkpt>
      <trkpt lat="44.49884" lon="5.11079">
        <ele>473.2</ele>
        <time>2021-11-19T12:28:04Z</time>
      </trkpt>
      <trkpt lat="44.49881" lon="5.11084">
        <ele>473.2</ele>
        <time>2021-11-19T12:28:05Z</time>
      </trkpt>
      <trkpt lat="44.49878" lon="5.1109">
        <ele>473.3</ele>
        <time>2021-11-19T12:28:06Z</time>
      </trkpt>
      <trkpt lat="44.49875" lon="5.11095">
        <ele>473.3</ele>
        <time>2021-11-19T12:28:07Z</time>
      </trkpt>
      <trkpt lat="44.49871" lon="5.11099">
        <ele>473.3</ele>
        <time>2021-11-19T12:28:08Z</time>
      </trkpt>
      <trkpt lat="44.49868" lon="5.11104">
        <ele>473.4</ele>
        <time>2021-11-19T12:28:09Z</time>
      </trkpt>
      <trkpt lat="44.49864" lon="5.11109">
        <ele>473.4</ele>
        <time>2021-11-19T12:28:10Z</time>
      </trkpt>
      <trkpt lat="44.4986" lon="5.11114">
        <ele>473.5</ele>
        <time>2021-11-19T12:28:11Z</time>
      </trkpt>
      <trkpt lat="44.49856" lon="5.11118">
        <ele>473.5</ele>
        <time>2021-11-19T12:28:12Z</time>
      </trkpt>
      <trkpt lat="44.49852" lon="5.11122">
        <ele>473.6</ele>
        <time>2021-11-19T12:28:13Z</time>
      </trkpt>
      <trkpt lat="44.49847" lon="5.11126">
        <ele>473.6</ele>
        <time>2021-11-19T12:28:14Z</time>
      </trkpt>
      <trkpt lat="44.49844" lon="5.1113">
        <ele>473.7</ele>
        <time>2021-11-19T12:28:15Z</time>
      </trkpt>
      <trkpt lat="44.4984" lon="5.11133">
        <ele>473.7</ele>
        <time>2021-11-19T12:28:16Z</time>
      </trkpt>
      <trkpt lat="44.49836" lon="5.11138">
        <ele>473.8</ele>
        <time>2021-11-19T12:28:17Z</time>
      </trkpt>
      <trkpt lat="44.49832" lon="5.11141">
        <ele>473.8</ele>
        <time>2021-11-19T12:28:18Z</time>
      </trkpt>
      <trkpt lat="44.49827" lon="5.11145">
        <ele>473.9</ele>
        <time>2021-11-19T12:28:19Z</time>
      </trkpt>
      <trkpt lat="44.49823" lon="5.11148">
        <ele>473.9</ele>
        <time>2021-11-19T12:28:20Z</time>
      </trkpt>
      <trkpt lat="44.49819" lon="5.11151">
        <ele>474</ele>
        <time>2021-11-19T12:28:21Z</time>
      </trkpt>
      <trkpt lat="44.49815" lon="5.11154">
        <ele>474</ele>
        <time>2021-11-19T12:28:22Z</time>
      </trkpt>
      <trkpt lat="44.49812" lon="5.11157">
        <ele>474.1</ele>
        <time>2021-11-19T12:28:23Z</time>
      </trkpt>
      <trkpt lat="44.49807" lon="5.11161">
        <ele>474.2</ele>
        <time>2021-11-19T12:28:24Z</time>
      </trkpt>
      <trkpt lat="44.49803" lon="5.11164">
        <ele>474.2</ele>
        <time>2021-11-19T12:28:25Z</time>
      </trkpt>
      <trkpt lat="44.49799" lon="5.11168">
        <ele>474.3</ele>
        <time>2021-11-19T12:28:26Z</time>
      </trkpt>
      <trkpt lat="44.49801" lon="5.11176">
        <ele>474.3</ele>
        <time>2021-11-19T12:28:27Z</time>
      </trkpt>
      <trkpt lat="44.49797" lon="5.11182">
        <ele>474.4</ele>
        <time>2021-11-19T12:28:28Z</time>
      </trkpt>
      <trkpt lat="44.49787" lon="5.11191">
        <ele>474.5</ele>
        <time>2021-11-19T12:28:30Z</time>
      </trkpt>
      <trkpt lat="44.49779" lon="5.11196">
        <ele>474.7</ele>
        <time>2021-11-19T12:28:33Z</time>
      </trkpt>
      <trkpt lat="44.49771" lon="5.11199">
        <ele>474.8</ele>
        <time>2021-11-19T12:28:34Z</time>
      </trkpt>
      <trkpt lat="44.49764" lon="5.11202">
        <ele>474.9</ele>
        <time>2021-11-19T12:28:35Z</time>
      </trkpt>
      <trkpt lat="44.49759" lon="5.11207">
        <ele>475</ele>
        <time>2021-11-19T12:28:36Z</time>
      </trkpt>
      <trkpt lat="44.49754" lon="5.11212">
        <ele>475.1</ele>
        <time>2021-11-19T12:28:37Z</time>
      </trkpt>
      <trkpt lat="44.4975" lon="5.11216">
        <ele>475.2</ele>
        <time>2021-11-19T12:28:38Z</time>
      </trkpt>
      <trkpt lat="44.49747" lon="5.11217">
        <ele>475.2</ele>
        <time>2021-11-19T12:28:39Z</time>
      </trkpt>
      <trkpt lat="44.49742" lon="5.11219">
        <ele>475.3</ele>
        <time>2021-11-19T12:28:40Z</time>
      </trkpt>
      <trkpt lat="44.49738" lon="5.11222">
        <ele>475.4</ele>
        <time>2021-11-19T12:28:41Z</time>
      </trkpt>
      <trkpt lat="44.49734" lon="5.11224">
        <ele>475.5</ele>
        <time>2021-11-19T12:28:42Z</time>
      </trkpt>
      <trkpt lat="44.4973" lon="5.11227">
        <ele>475.6</ele>
        <time>2021-11-19T12:28:43Z</time>
      </trkpt>
      <trkpt lat="44.49724" lon="5.11229">
        <ele>475.7</ele>
        <time>2021-11-19T12:28:44Z</time>
      </trkpt>
      <trkpt lat="44.49719" lon="5.11231">
        <ele>475.8</ele>
        <time>2021-11-19T12:28:45Z</time>
      </trkpt>
      <trkpt lat="44.49713" lon="5.11232">
        <ele>475.9</ele>
        <time>2021-11-19T12:28:46Z</time>
      </trkpt>
      <trkpt lat="44.49708" lon="5.11234">
        <ele>476</ele>
        <time>2021-11-19T12:28:47Z</time>
      </trkpt>
      <trkpt lat="44.49704" lon="5.11235">
        <ele>476.1</ele>
        <time>2021-11-19T12:28:48Z</time>
      </trkpt>
      <trkpt lat="44.49699" lon="5.11237">
        <ele>476.2</ele>
        <time>2021-11-19T12:28:49Z</time>
      </trkpt>
      <trkpt lat="44.49689" lon="5.11241">
        <ele>476.4</ele>
        <time>2021-11-19T12:28:50Z</time>
      </trkpt>
      <trkpt lat="44.49682" lon="5.1123">
        <ele>476.6</ele>
        <time>2021-11-19T12:28:52Z</time>
      </trkpt>
      <trkpt lat="44.49684" lon="5.11226">
        <ele>476.7</ele>
        <time>2021-11-19T12:28:54Z</time>
      </trkpt>
      <trkpt lat="44.49676" lon="5.11236">
        <ele>477</ele>
        <time>2021-11-19T12:28:55Z</time>
      </trkpt>
      <trkpt lat="44.49664" lon="5.1125">
        <ele>477.3</ele>
        <time>2021-11-19T12:28:57Z</time>
      </trkpt>
      <trkpt lat="44.49662" lon="5.1124">
        <ele>477.5</ele>
        <time>2021-11-19T12:28:58Z</time>
      </trkpt>
      <trkpt lat="44.49653" lon="5.1125">
        <ele>477.7</ele>
        <time>2021-11-19T12:29:00Z</time>
      </trkpt>
      <trkpt lat="44.49641" lon="5.11264">
        <ele>478.1</ele>
        <time>2021-11-19T12:29:02Z</time>
      </trkpt>
      <trkpt lat="44.49632" lon="5.11274">
        <ele>478.3</ele>
        <time>2021-11-19T12:29:03Z</time>
      </trkpt>
      <trkpt lat="44.49625" lon="5.11283">
        <ele>478.6</ele>
        <time>2021-11-19T12:29:05Z</time>
      </trkpt>
      <trkpt lat="44.4962" lon="5.11291">
        <ele>478.7</ele>
        <time>2021-11-19T12:29:06Z</time>
      </trkpt>
      <trkpt lat="44.49616" lon="5.11298">
        <ele>478.9</ele>
        <time>2021-11-19T12:29:07Z</time>
      </trkpt>
      <trkpt lat="44.49611" lon="5.11316">
        <ele>479.2</ele>
        <time>2021-11-19T12:29:10Z</time>
      </trkpt>
      <trkpt lat="44.49608" lon="5.11332">
        <ele>479.4</ele>
        <time>2021-11-19T12:29:11Z</time>
      </trkpt>
      <trkpt lat="44.49608" lon="5.1134">
        <ele>479.5</ele>
        <time>2021-11-19T12:29:12Z</time>
      </trkpt>
      <trkpt lat="44.4961" lon="5.11355">
        <ele>479.8</ele>
        <time>2021-11-19T12:29:14Z</time>
      </trkpt>
      <trkpt lat="44.4962" lon="5.11358">
        <ele>479.9</ele>
        <time>2021-11-19T12:29:16Z</time>
      </trkpt>
      <trkpt lat="44.49629" lon="5.11363">
        <ele>480.1</ele>
        <time>2021-11-19T12:29:17Z</time>
      </trkpt>
      <trkpt lat="44.49631" lon="5.11372">
        <ele>480.2</ele>
        <time>2021-11-19T12:29:18Z</time>
      </trkpt>
      <trkpt lat="44.49633" lon="5.11381">
        <ele>480.3</ele>
        <time>2021-11-19T12:29:19Z</time>
      </trkpt>
      <trkpt lat="44.49634" lon="5.11391">
        <ele>480.3</ele>
        <time>2021-11-19T12:29:21Z</time>
      </trkpt>
      <trkpt lat="44.49636" lon="5.114">
        <ele>480.4</ele>
        <time>2021-11-19T12:29:22Z</time>
      </trkpt>
      <trkpt lat="44.49637" lon="5.11408">
        <ele>480.4</ele>
        <time>2021-11-19T12:29:23Z</time>
      </trkpt>
      <trkpt lat="44.49638" lon="5.11413">
        <ele>480.4</ele>
        <time>2021-11-19T12:29:24Z</time>
      </trkpt>
      <trkpt lat="44.4964" lon="5.11422">
        <ele>480.5</ele>
        <time>2021-11-19T12:29:25Z</time>
      </trkpt>
      <trkpt lat="44.49641" lon="5.11428">
        <ele>480.5</ele>
        <time>2021-11-19T12:29:26Z</time>
      </trkpt>
      <trkpt lat="44.49643" lon="5.1144">
        <ele>480.6</ele>
        <time>2021-11-19T12:29:27Z</time>
      </trkpt>
      <trkpt lat="44.49645" lon="5.11448">
        <ele>480.7</ele>
        <time>2021-11-19T12:29:29Z</time>
      </trkpt>
      <trkpt lat="44.49647" lon="5.11459">
        <ele>480.8</ele>
        <time>2021-11-19T12:29:31Z</time>
      </trkpt>
      <trkpt lat="44.4965" lon="5.11468">
        <ele>480.9</ele>
        <time>2021-11-19T12:29:32Z</time>
      </trkpt>
      <trkpt lat="44.49649" lon="5.11458">
        <ele>481</ele>
        <time>2021-11-19T12:29:35Z</time>
      </trkpt>
      <trkpt lat="44.4965" lon="5.11462">
        <ele>481</ele>
        <time>2021-11-19T12:29:36Z</time>
      </trkpt>
      <trkpt lat="44.49651" lon="5.11468">
        <ele>481.1</ele>
        <time>2021-11-19T12:29:37Z</time>
      </trkpt>
      <trkpt lat="44.49653" lon="5.11474">
        <ele>481.1</ele>
        <time>2021-11-19T12:29:38Z</time>
      </trkpt>
      <trkpt lat="44.49654" lon="5.11481">
        <ele>481.2</ele>
        <time>2021-11-19T12:29:39Z</time>
      </trkpt>
      <trkpt lat="44.49654" lon="5.11498">
        <ele>481.4</ele>
        <time>2021-11-19T12:29:40Z</time>
      </trkpt>
      <trkpt lat="44.49656" lon="5.11512">
        <ele>481.7</ele>
        <time>2021-11-19T12:29:42Z</time>
      </trkpt>
      <trkpt lat="44.4965" lon="5.11519">
        <ele>481.8</ele>
        <time>2021-11-19T12:29:46Z</time>
      </trkpt>
      <trkpt lat="44.49646" lon="5.11526">
        <ele>482</ele>
        <time>2021-11-19T12:29:47Z</time>
      </trkpt>
      <trkpt lat="44.49645" lon="5.11537">
        <ele>482.2</ele>
        <time>2021-11-19T12:29:49Z</time>
      </trkpt>
      <trkpt lat="44.4964" lon="5.11555">
        <ele>482.6</ele>
        <time>2021-11-19T12:29:51Z</time>
      </trkpt>
      <trkpt lat="44.49637" lon="5.11565">
        <ele>482.9</ele>
        <time>2021-11-19T12:29:52Z</time>
      </trkpt>
      <trkpt lat="44.49634" lon="5.11565">
        <ele>482.9</ele>
        <time>2021-11-19T12:29:55Z</time>
      </trkpt>
      <trkpt lat="44.49633" lon="5.11567">
        <ele>482.8</ele>
        <time>2021-11-19T12:29:56Z</time>
      </trkpt>
      <trkpt lat="44.49634" lon="5.11568">
        <ele>482.8</ele>
        <time>2021-11-19T12:29:57Z</time>
      </trkpt>
      <trkpt lat="44.49638" lon="5.11563">
        <ele>482.7</ele>
        <time>2021-11-19T12:29:58Z</time>
      </trkpt>
      <trkpt lat="44.49639" lon="5.11561">
        <ele>482.7</ele>
        <time>2021-11-19T12:30:00Z</time>
      </trkpt>
      <trkpt lat="44.4964" lon="5.11558">
        <ele>482.6</ele>
        <time>2021-11-19T12:30:03Z</time>
      </trkpt>
      <trkpt lat="44.4964" lon="5.11557">
        <ele>482.6</ele>
        <time>2021-11-19T12:30:04Z</time>
      </trkpt>
      <trkpt lat="44.4964" lon="5.11557">
        <ele>482.6</ele>
        <time>2021-11-19T12:30:05Z</time>
      </trkpt>
      <trkpt lat="44.4964" lon="5.11556">
        <ele>482.6</ele>
        <time>2021-11-19T12:30:06Z</time>
      </trkpt>
      <trkpt lat="44.49641" lon="5.11553">
        <ele>482.5</ele>
        <time>2021-11-19T12:30:07Z</time>
      </trkpt>
      <trkpt lat="44.49641" lon="5.11552">
        <ele>482.5</ele>
        <time>2021-11-19T12:30:08Z</time>
      </trkpt>
      <trkpt lat="44.49642" lon="5.11549">
        <ele>482.5</ele>
        <time>2021-11-19T12:30:10Z</time>
      </trkpt>
      <trkpt lat="44.49643" lon="5.1155">
        <ele>482.5</ele>
        <time>2021-11-19T12:30:13Z</time>
      </trkpt>
      <trkpt lat="44.49644" lon="5.1155">
        <ele>482.4</ele>
        <time>2021-11-19T12:30:14Z</time>
      </trkpt>
      <trkpt lat="44.49644" lon="5.1155">
        <ele>482.4</ele>
        <time>2021-11-19T12:30:15Z</time>
      </trkpt>
      <trkpt lat="44.49644" lon="5.1155">
        <ele>482.4</ele>
        <time>2021-11-19T12:30:16Z</time>
      </trkpt>
      <trkpt lat="44.49644" lon="5.11551">
        <ele>482.4</ele>
        <time>2021-11-19T12:30:17Z</time>
      </trkpt>
      <trkpt lat="44.49644" lon="5.11551">
        <ele>482.4</ele>
        <time>2021-11-19T12:30:18Z</time>
      </trkpt>
      <trkpt lat="44.49645" lon="5.11552">
        <ele>482.4</ele>
        <time>2021-11-19T12:30:21Z</time>
      </trkpt>
      <trkpt lat="44.49645" lon="5.11552">
        <ele>482.4</ele>
        <time>2021-11-19T12:30:22Z</time>
      </trkpt>
      <trkpt lat="44.49646" lon="5.11552">
        <ele>482.4</ele>
        <time>2021-11-19T12:30:23Z</time>
      </trkpt>
      <trkpt lat="44.49646" lon="5.11552">
        <ele>482.4</ele>
        <time>2021-11-19T12:30:24Z</time>
      </trkpt>
      <trkpt lat="44.49646" lon="5.11552">
        <ele>482.4</ele>
        <time>2021-11-19T12:30:25Z</time>
      </trkpt>
      <trkpt lat="44.49647" lon="5.11553">
        <ele>482.4</ele>
        <time>2021-11-19T12:30:26Z</time>
      </trkpt>
      <trkpt lat="44.49647" lon="5.11553">
        <ele>482.4</ele>
        <time>2021-11-19T12:30:29Z</time>
      </trkpt>
      <trkpt lat="44.49647" lon="5.11553">
        <ele>482.4</ele>
        <time>2021-11-19T12:30:30Z</time>
      </trkpt>
      <trkpt lat="44.49647" lon="5.11553">
        <ele>482.4</ele>
        <time>2021-11-19T12:30:31Z</time>
      </trkpt>
      <trkpt lat="44.49648" lon="5.11553">
        <ele>482.3</ele>
        <time>2021-11-19T12:30:34Z</time>
      </trkpt>
      <trkpt lat="44.49647" lon="5.11548">
        <ele>482.3</ele>
        <time>2021-11-19T12:38:54Z</time>
      </trkpt>
      <trkpt lat="44.49647" lon="5.11548">
        <ele>482.3</ele>
        <time>2021-11-19T12:38:55Z</time>
      </trkpt>
      <trkpt lat="44.49647" lon="5.11548">
        <ele>482.3</ele>
        <time>2021-11-19T12:38:56Z</time>
      </trkpt>
      <trkpt lat="44.49646" lon="5.11548">
        <ele>482.3</ele>
        <time>2021-11-19T12:38:57Z</time>
      </trkpt>
      <trkpt lat="44.49647" lon="5.11548">
        <ele>482.3</ele>
        <time>2021-11-19T12:39:00Z</time>
      </trkpt>
      <trkpt lat="44.49647" lon="5.11548">
        <ele>482.3</ele>
        <time>2021-11-19T12:39:01Z</time>
      </trkpt>
      <trkpt lat="44.49647" lon="5.11548">
        <ele>482.3</ele>
        <time>2021-11-19T12:39:02Z</time>
      </trkpt>
      <trkpt lat="44.49647" lon="5.11548">
        <ele>482.3</ele>
        <time>2021-11-19T12:39:03Z</time>
      </trkpt>
      <trkpt lat="44.49647" lon="5.11548">
        <ele>482.3</ele>
        <time>2021-11-19T12:39:04Z</time>
      </trkpt>
      <trkpt lat="44.49647" lon="5.11548">
        <ele>482.3</ele>
        <time>2021-11-19T12:39:05Z</time>
      </trkpt>
      <trkpt lat="44.49647" lon="5.11548">
        <ele>482.3</ele>
        <time>2021-11-19T12:39:06Z</time>
      </trkpt>
      <trkpt lat="44.49647" lon="5.11548">
        <ele>482.3</ele>
        <time>2021-11-19T12:39:07Z</time>
      </trkpt>
      <trkpt lat="44.49647" lon="5.11548">
        <ele>482.3</ele>
        <time>2021-11-19T12:39:08Z</time>
      </trkpt>
      <trkpt lat="44.49647" lon="5.11548">
        <ele>482.3</ele>
        <time>2021-11-19T12:39:09Z</time>
      </trkpt>
      <trkpt lat="44.49647" lon="5.11548">
        <ele>482.3</ele>
        <time>2021-11-19T12:39:10Z</time>
      </trkpt>
      <trkpt lat="44.49647" lon="5.11548">
        <ele>482.3</ele>
        <time>2021-11-19T12:39:11Z</time>
      </trkpt>
      <trkpt lat="44.49647" lon="5.11548">
        <ele>482.3</ele>
        <time>2021-11-19T12:39:12Z</time>
      </trkpt>
      <trkpt lat="44.49647" lon="5.11548">
        <ele>482.3</ele>
        <time>2021-11-19T12:39:14Z</time>
      </trkpt>
      <trkpt lat="44.49647" lon="5.11548">
        <ele>482.3</ele>
        <time>2021-11-19T12:39:15Z</time>
      </trkpt>
      <trkpt lat="44.49647" lon="5.11548">
        <ele>482.3</ele>
        <time>2021-11-19T12:39:16Z</time>
      </trkpt>
      <trkpt lat="44.49647" lon="5.11548">
        <ele>482.3</ele>
        <time>2021-11-19T12:39:17Z</time>
      </trkpt>
      <trkpt lat="44.49647" lon="5.11548">
        <ele>482.3</ele>
        <time>2021-11-19T12:39:18Z</time>
      </trkpt>
      <trkpt lat="44.49647" lon="5.11548">
        <ele>482.3</ele>
        <time>2021-11-19T12:39:19Z</time>
      </trkpt>
      <trkpt lat="44.49647" lon="5.11548">
        <ele>482.3</ele>
        <time>2021-11-19T12:39:20Z</time>
      </trkpt>
      <trkpt lat="44.49647" lon="5.11548">
        <ele>482.3</ele>
        <time>2021-11-19T12:39:21Z</time>
      </trkpt>
      <trkpt lat="44.49647" lon="5.11548">
        <ele>482.3</ele>
        <time>2021-11-19T12:39:22Z</time>
      </trkpt>
      <trkpt lat="44.49647" lon="5.11548">
        <ele>482.3</ele>
        <time>2021-11-19T12:39:23Z</time>
      </trkpt>
      <trkpt lat="44.49647" lon="5.11548">
        <ele>482.3</ele>
        <time>2021-11-19T12:39:24Z</time>
      </trkpt>
      <trkpt lat="44.49647" lon="5.11548">
        <ele>482.3</ele>
        <time>2021-11-19T12:39:25Z</time>
      </trkpt>
      <trkpt lat="44.49647" lon="5.11548">
        <ele>482.3</ele>
        <time>2021-11-19T12:39:26Z</time>
      </trkpt>
      <trkpt lat="44.49647" lon="5.11548">
        <ele>482.3</ele>
        <time>2021-11-19T12:39:27Z</time>
      </trkpt>
      <trkpt lat="44.49647" lon="5.11548">
        <ele>482.3</ele>
        <time>2021-11-19T12:39:28Z</time>
      </trkpt>
      <trkpt lat="44.49647" lon="5.11548">
        <ele>482.3</ele>
        <time>2021-11-19T12:39:29Z</time>
      </trkpt>
      <trkpt lat="44.49647" lon="5.11548">
        <ele>482.3</ele>
        <time>2021-11-19T12:39:30Z</time>
      </trkpt>
      <trkpt lat="44.49647" lon="5.11548">
        <ele>482.3</ele>
        <time>2021-11-19T12:39:31Z</time>
      </trkpt>
      <trkpt lat="44.49647" lon="5.11548">
        <ele>482.3</ele>
        <time>2021-11-19T12:39:32Z</time>
      </trkpt>
      <trkpt lat="44.49647" lon="5.11548">
        <ele>482.3</ele>
        <time>2021-11-19T12:39:33Z</time>
      </trkpt>
      <trkpt lat="44.49647" lon="5.11548">
        <ele>482.3</ele>
        <time>2021-11-19T12:39:34Z</time>
      </trkpt>
      <trkpt lat="44.49647" lon="5.11548">
        <ele>482.3</ele>
        <time>2021-11-19T12:39:35Z</time>
      </trkpt>
      <trkpt lat="44.49647" lon="5.11548">
        <ele>482.3</ele>
        <time>2021-11-19T12:39:36Z</time>
      </trkpt>
      <trkpt lat="44.49647" lon="5.11548">
        <ele>482.3</ele>
        <time>2021-11-19T12:39:37Z</time>
      </trkpt>
      <trkpt lat="44.49647" lon="5.11548">
        <ele>482.3</ele>
        <time>2021-11-19T12:39:38Z</time>
      </trkpt>
      <trkpt lat="44.49647" lon="5.11548">
        <ele>482.3</ele>
        <time>2021-11-19T12:39:39Z</time>
      </trkpt>
      <trkpt lat="44.49647" lon="5.11548">
        <ele>482.3</ele>
        <time>2021-11-19T12:39:40Z</time>
      </trkpt>
      <trkpt lat="44.49647" lon="5.11548">
        <ele>482.3</ele>
        <time>2021-11-19T12:39:41Z</time>
      </trkpt>
      <trkpt lat="44.49647" lon="5.11548">
        <ele>482.3</ele>
        <time>2021-11-19T12:39:42Z</time>
      </trkpt>
      <trkpt lat="44.49647" lon="5.11548">
        <ele>482.3</ele>
        <time>2021-11-19T12:39:43Z</time>
      </trkpt>
      <trkpt lat="44.49647" lon="5.11548">
        <ele>482.3</ele>
        <time>2021-11-19T12:39:44Z</time>
      </trkpt>
      <trkpt lat="44.49647" lon="5.11548">
        <ele>482.3</ele>
        <time>2021-11-19T12:39:45Z</time>
      </trkpt>
      <trkpt lat="44.49647" lon="5.11548">
        <ele>482.3</ele>
        <time>2021-11-19T12:39:46Z</time>
      </trkpt>
      <trkpt lat="44.49647" lon="5.11548">
        <ele>482.3</ele>
        <time>2021-11-19T12:39:47Z</time>
      </trkpt>
      <trkpt lat="44.49647" lon="5.11548">
        <ele>482.3</ele>
        <time>2021-11-19T12:39:48Z</time>
      </trkpt>
      <trkpt lat="44.49647" lon="5.11548">
        <ele>482.3</ele>
        <time>2021-11-19T12:39:49Z</time>
      </trkpt>
      <trkpt lat="44.49647" lon="5.11548">
        <ele>482.3</ele>
        <time>2021-11-19T12:39:50Z</time>
      </trkpt>
      <trkpt lat="44.49646" lon="5.11547">
        <ele>482.2</ele>
        <time>2021-11-19T12:39:51Z</time>
      </trkpt>
      <trkpt lat="44.49647" lon="5.11547">
        <ele>482.2</ele>
        <time>2021-11-19T12:39:54Z</time>
      </trkpt>
      <trkpt lat="44.49647" lon="5.11547">
        <ele>482.2</ele>
        <time>2021-11-19T12:39:55Z</time>
      </trkpt>
      <trkpt lat="44.49647" lon="5.11548">
        <ele>482.2</ele>
        <time>2021-11-19T12:39:56Z</time>
      </trkpt>
      <trkpt lat="44.49647" lon="5.11548">
        <ele>482.2</ele>
        <time>2021-11-19T12:39:57Z</time>
      </trkpt>
      <trkpt lat="44.49647" lon="5.11549">
        <ele>482.2</ele>
        <time>2021-11-19T12:39:58Z</time>
      </trkpt>
      <trkpt lat="44.49647" lon="5.1155">
        <ele>482.2</ele>
        <time>2021-11-19T12:39:59Z</time>
      </trkpt>
      <trkpt lat="44.49648" lon="5.1155">
        <ele>482.2</ele>
        <time>2021-11-19T12:40:02Z</time>
      </trkpt>
      <trkpt lat="44.49648" lon="5.1155">
        <ele>482.2</ele>
        <time>2021-11-19T12:40:03Z</time>
      </trkpt>
      <trkpt lat="44.49648" lon="5.1155">
        <ele>482.2</ele>
        <time>2021-11-19T12:40:04Z</time>
      </trkpt>
      <trkpt lat="44.49649" lon="5.11551">
        <ele>482.2</ele>
        <time>2021-11-19T12:40:05Z</time>
      </trkpt>
      <trkpt lat="44.49649" lon="5.11551">
        <ele>482.2</ele>
        <time>2021-11-19T12:40:06Z</time>
      </trkpt>
      <trkpt lat="44.49649" lon="5.11551">
        <ele>482.2</ele>
        <time>2021-11-19T12:40:07Z</time>
      </trkpt>
      <trkpt lat="44.4965" lon="5.11547">
        <ele>482.1</ele>
        <time>2021-11-19T12:40:35Z</time>
      </trkpt>
      <trkpt lat="44.4965" lon="5.11545">
        <ele>482.1</ele>
        <time>2021-11-19T12:40:38Z</time>
      </trkpt>
      <trkpt lat="44.49649" lon="5.11543">
        <ele>482.1</ele>
        <time>2021-11-19T12:40:39Z</time>
      </trkpt>
      <trkpt lat="44.49648" lon="5.1154">
        <ele>482</ele>
        <time>2021-11-19T12:40:40Z</time>
      </trkpt>
      <trkpt lat="44.49647" lon="5.11538">
        <ele>482</ele>
        <time>2021-11-19T12:40:41Z</time>
      </trkpt>
      <trkpt lat="44.49646" lon="5.11531">
        <ele>481.9</ele>
        <time>2021-11-19T12:40:42Z</time>
      </trkpt>
      <trkpt lat="44.49646" lon="5.11526">
        <ele>481.9</ele>
        <time>2021-11-19T12:40:43Z</time>
      </trkpt>
      <trkpt lat="44.49649" lon="5.11513">
        <ele>481.8</ele>
        <time>2021-11-19T12:40:46Z</time>
      </trkpt>
      <trkpt lat="44.49655" lon="5.11505">
        <ele>481.7</ele>
        <time>2021-11-19T12:40:48Z</time>
      </trkpt>
      <trkpt lat="44.49652" lon="5.11495">
        <ele>481.6</ele>
        <time>2021-11-19T12:40:51Z</time>
      </trkpt>
      <trkpt lat="44.49647" lon="5.11495">
        <ele>481.6</ele>
        <time>2021-11-19T12:40:52Z</time>
      </trkpt>
      <trkpt lat="44.49642" lon="5.11499">
        <ele>481.6</ele>
        <time>2021-11-19T12:40:54Z</time>
      </trkpt>
      <trkpt lat="44.49644" lon="5.11505">
        <ele>481.6</ele>
        <time>2021-11-19T12:40:57Z</time>
      </trkpt>
      <trkpt lat="44.49644" lon="5.11506">
        <ele>481.6</ele>
        <time>2021-11-19T12:40:58Z</time>
      </trkpt>
      <trkpt lat="44.49644" lon="5.11506">
        <ele>481.6</ele>
        <time>2021-11-19T12:41:01Z</time>
      </trkpt>
      <trkpt lat="44.49644" lon="5.11507">
        <ele>481.6</ele>
        <time>2021-11-19T12:41:02Z</time>
      </trkpt>
      <trkpt lat="44.49644" lon="5.11507">
        <ele>481.6</ele>
        <time>2021-11-19T12:41:04Z</time>
      </trkpt>
      <trkpt lat="44.49642" lon="5.11509">
        <ele>481.6</ele>
        <time>2021-11-19T12:41:31Z</time>
      </trkpt>
      <trkpt lat="44.49641" lon="5.1151">
        <ele>481.6</ele>
        <time>2021-11-19T12:41:32Z</time>
      </trkpt>
      <trkpt lat="44.49639" lon="5.11511">
        <ele>481.6</ele>
        <time>2021-11-19T12:41:33Z</time>
      </trkpt>
      <trkpt lat="44.49637" lon="5.11514">
        <ele>481.6</ele>
        <time>2021-11-19T12:41:34Z</time>
      </trkpt>
      <trkpt lat="44.49636" lon="5.11514">
        <ele>481.6</ele>
        <time>2021-11-19T12:41:35Z</time>
      </trkpt>
      <trkpt lat="44.49633" lon="5.11516">
        <ele>481.6</ele>
        <time>2021-11-19T12:41:36Z</time>
      </trkpt>
      <trkpt lat="44.49632" lon="5.11517">
        <ele>481.6</ele>
        <time>2021-11-19T12:41:37Z</time>
      </trkpt>
      <trkpt lat="44.49628" lon="5.11521">
        <ele>481.6</ele>
        <time>2021-11-19T12:41:38Z</time>
      </trkpt>
      <trkpt lat="44.49623" lon="5.11529">
        <ele>481.6</ele>
        <time>2021-11-19T12:41:41Z</time>
      </trkpt>
      <trkpt lat="44.49619" lon="5.1153">
        <ele>481.7</ele>
        <time>2021-11-19T12:41:42Z</time>
      </trkpt>
      <trkpt lat="44.49611" lon="5.11529">
        <ele>481.8</ele>
        <time>2021-11-19T12:41:44Z</time>
      </trkpt>
      <trkpt lat="44.49604" lon="5.11529">
        <ele>481.9</ele>
        <time>2021-11-19T12:41:46Z</time>
      </trkpt>
      <trkpt lat="44.49598" lon="5.11532">
        <ele>482</ele>
        <time>2021-11-19T12:41:48Z</time>
      </trkpt>
      <trkpt lat="44.49594" lon="5.11533">
        <ele>482</ele>
        <time>2021-11-19T12:41:49Z</time>
      </trkpt>
      <trkpt lat="44.49593" lon="5.11534">
        <ele>482.1</ele>
        <time>2021-11-19T12:41:50Z</time>
      </trkpt>
      <trkpt lat="44.49587" lon="5.11536">
        <ele>482.1</ele>
        <time>2021-11-19T12:41:51Z</time>
      </trkpt>
      <trkpt lat="44.4958" lon="5.11538">
        <ele>482.2</ele>
        <time>2021-11-19T12:41:52Z</time>
      </trkpt>
      <trkpt lat="44.49576" lon="5.11538">
        <ele>482.3</ele>
        <time>2021-11-19T12:41:54Z</time>
      </trkpt>
      <trkpt lat="44.49572" lon="5.11538">
        <ele>482.3</ele>
        <time>2021-11-19T12:41:55Z</time>
      </trkpt>
      <trkpt lat="44.49564" lon="5.11541">
        <ele>482.4</ele>
        <time>2021-11-19T12:41:57Z</time>
      </trkpt>
      <trkpt lat="44.49559" lon="5.11542">
        <ele>482.5</ele>
        <time>2021-11-19T12:41:58Z</time>
      </trkpt>
      <trkpt lat="44.49553" lon="5.11543">
        <ele>482.6</ele>
        <time>2021-11-19T12:41:59Z</time>
      </trkpt>
      <trkpt lat="44.49549" lon="5.11545">
        <ele>482.7</ele>
        <time>2021-11-19T12:42:01Z</time>
      </trkpt>
      <trkpt lat="44.49543" lon="5.11547">
        <ele>482.8</ele>
        <time>2021-11-19T12:42:03Z</time>
      </trkpt>
      <trkpt lat="44.49537" lon="5.11549">
        <ele>483</ele>
        <time>2021-11-19T12:42:04Z</time>
      </trkpt>
      <trkpt lat="44.49534" lon="5.11552">
        <ele>483</ele>
        <time>2021-11-19T12:42:06Z</time>
      </trkpt>
      <trkpt lat="44.4953" lon="5.11557">
        <ele>483.1</ele>
        <time>2021-11-19T12:42:07Z</time>
      </trkpt>
      <trkpt lat="44.49527" lon="5.11565">
        <ele>483.3</ele>
        <time>2021-11-19T12:42:08Z</time>
      </trkpt>
      <trkpt lat="44.49524" lon="5.1157">
        <ele>483.4</ele>
        <time>2021-11-19T12:42:09Z</time>
      </trkpt>
      <trkpt lat="44.49521" lon="5.11575">
        <ele>483.5</ele>
        <time>2021-11-19T12:42:10Z</time>
      </trkpt>
      <trkpt lat="44.49517" lon="5.1158">
        <ele>483.6</ele>
        <time>2021-11-19T12:42:11Z</time>
      </trkpt>
      <trkpt lat="44.49514" lon="5.11585">
        <ele>483.7</ele>
        <time>2021-11-19T12:42:12Z</time>
      </trkpt>
      <trkpt lat="44.49514" lon="5.11592">
        <ele>483.8</ele>
        <time>2021-11-19T12:42:13Z</time>
      </trkpt>
      <trkpt lat="44.49507" lon="5.11597">
        <ele>483.9</ele>
        <time>2021-11-19T12:42:16Z</time>
      </trkpt>
      <trkpt lat="44.49504" lon="5.11601">
        <ele>484</ele>
        <time>2021-11-19T12:42:17Z</time>
      </trkpt>
      <trkpt lat="44.49497" lon="5.11611">
        <ele>484.2</ele>
        <time>2021-11-19T12:42:19Z</time>
      </trkpt>
      <trkpt lat="44.49492" lon="5.11617">
        <ele>484.4</ele>
        <time>2021-11-19T12:42:21Z</time>
      </trkpt>
      <trkpt lat="44.49486" lon="5.11624">
        <ele>484.5</ele>
        <time>2021-11-19T12:42:23Z</time>
      </trkpt>
      <trkpt lat="44.49483" lon="5.11628">
        <ele>484.6</ele>
        <time>2021-11-19T12:42:24Z</time>
      </trkpt>
      <trkpt lat="44.4948" lon="5.11633">
        <ele>484.7</ele>
        <time>2021-11-19T12:42:25Z</time>
      </trkpt>
      <trkpt lat="44.49474" lon="5.11641">
        <ele>484.9</ele>
        <time>2021-11-19T12:42:27Z</time>
      </trkpt>
      <trkpt lat="44.49471" lon="5.11645">
        <ele>485</ele>
        <time>2021-11-19T12:42:29Z</time>
      </trkpt>
      <trkpt lat="44.49469" lon="5.11649">
        <ele>485.1</ele>
        <time>2021-11-19T12:42:30Z</time>
      </trkpt>
      <trkpt lat="44.49466" lon="5.11653">
        <ele>485.1</ele>
        <time>2021-11-19T12:42:31Z</time>
      </trkpt>
      <trkpt lat="44.4946" lon="5.11659">
        <ele>485.3</ele>
        <time>2021-11-19T12:42:33Z</time>
      </trkpt>
      <trkpt lat="44.49458" lon="5.11663">
        <ele>485.4</ele>
        <time>2021-11-19T12:42:34Z</time>
      </trkpt>
      <trkpt lat="44.49455" lon="5.11666">
        <ele>485.5</ele>
        <time>2021-11-19T12:42:35Z</time>
      </trkpt>
      <trkpt lat="44.49451" lon="5.11673">
        <ele>485.7</ele>
        <time>2021-11-19T12:42:36Z</time>
      </trkpt>
      <trkpt lat="44.49442" lon="5.11685">
        <ele>486</ele>
        <time>2021-11-19T12:42:38Z</time>
      </trkpt>
      <trkpt lat="44.4944" lon="5.11688">
        <ele>486.1</ele>
        <time>2021-11-19T12:42:39Z</time>
      </trkpt>
      <trkpt lat="44.49437" lon="5.11692">
        <ele>486.2</ele>
        <time>2021-11-19T12:42:40Z</time>
      </trkpt>
      <trkpt lat="44.49429" lon="5.11701">
        <ele>486.4</ele>
        <time>2021-11-19T12:42:42Z</time>
      </trkpt>
      <trkpt lat="44.49421" lon="5.11704">
        <ele>486.7</ele>
        <time>2021-11-19T12:42:45Z</time>
      </trkpt>
      <trkpt lat="44.49418" lon="5.11706">
        <ele>486.8</ele>
        <time>2021-11-19T12:42:46Z</time>
      </trkpt>
      <trkpt lat="44.49413" lon="5.11709">
        <ele>487</ele>
        <time>2021-11-19T12:42:47Z</time>
      </trkpt>
      <trkpt lat="44.49405" lon="5.11712">
        <ele>487.3</ele>
        <time>2021-11-19T12:42:49Z</time>
      </trkpt>
      <trkpt lat="44.49401" lon="5.11713">
        <ele>487.5</ele>
        <time>2021-11-19T12:42:50Z</time>
      </trkpt>
      <trkpt lat="44.49394" lon="5.11716">
        <ele>487.8</ele>
        <time>2021-11-19T12:42:52Z</time>
      </trkpt>
      <trkpt lat="44.49388" lon="5.11718">
        <ele>488</ele>
        <time>2021-11-19T12:42:53Z</time>
      </trkpt>
      <trkpt lat="44.49384" lon="5.1172">
        <ele>488.2</ele>
        <time>2021-11-19T12:42:54Z</time>
      </trkpt>
      <trkpt lat="44.49377" lon="5.11722">
        <ele>488.6</ele>
        <time>2021-11-19T12:42:57Z</time>
      </trkpt>
      <trkpt lat="44.49372" lon="5.11724">
        <ele>488.8</ele>
        <time>2021-11-19T12:42:58Z</time>
      </trkpt>
      <trkpt lat="44.49369" lon="5.11725">
        <ele>488.9</ele>
        <time>2021-11-19T12:42:59Z</time>
      </trkpt>
      <trkpt lat="44.49366" lon="5.11725">
        <ele>489.1</ele>
        <time>2021-11-19T12:43:02Z</time>
      </trkpt>
      <trkpt lat="44.49366" lon="5.11722">
        <ele>489.2</ele>
        <time>2021-11-19T12:43:03Z</time>
      </trkpt>
      <trkpt lat="44.49366" lon="5.11725">
        <ele>489.2</ele>
        <time>2021-11-19T12:43:06Z</time>
      </trkpt>
      <trkpt lat="44.49366" lon="5.11725">
        <ele>489.3</ele>
        <time>2021-11-19T12:43:07Z</time>
      </trkpt>
      <trkpt lat="44.49365" lon="5.11726">
        <ele>489.3</ele>
        <time>2021-11-19T12:43:08Z</time>
      </trkpt>
      <trkpt lat="44.49368" lon="5.11723">
        <ele>489.5</ele>
        <time>2021-11-19T12:43:10Z</time>
      </trkpt>
      <trkpt lat="44.49368" lon="5.11722">
        <ele>489.5</ele>
        <time>2021-11-19T12:43:13Z</time>
      </trkpt>
      <trkpt lat="44.49368" lon="5.11722">
        <ele>489.5</ele>
        <time>2021-11-19T12:43:14Z</time>
      </trkpt>
      <trkpt lat="44.49368" lon="5.11722">
        <ele>489.5</ele>
        <time>2021-11-19T12:43:16Z</time>
      </trkpt>
      <trkpt lat="44.49368" lon="5.11722">
        <ele>489.6</ele>
        <time>2021-11-19T12:43:19Z</time>
      </trkpt>
      <trkpt lat="44.4936" lon="5.11724">
        <ele>489.9</ele>
        <time>2021-11-19T12:43:59Z</time>
      </trkpt>
      <trkpt lat="44.49355" lon="5.11726">
        <ele>490.2</ele>
        <time>2021-11-19T12:44:01Z</time>
      </trkpt>
      <trkpt lat="44.49348" lon="5.11729">
        <ele>490.5</ele>
        <time>2021-11-19T12:44:03Z</time>
      </trkpt>
      <trkpt lat="44.49335" lon="5.11734">
        <ele>491.1</ele>
        <time>2021-11-19T12:44:06Z</time>
      </trkpt>
      <trkpt lat="44.49329" lon="5.11737">
        <ele>491.4</ele>
        <time>2021-11-19T12:44:08Z</time>
      </trkpt>
      <trkpt lat="44.49324" lon="5.11739">
        <ele>491.7</ele>
        <time>2021-11-19T12:44:09Z</time>
      </trkpt>
      <trkpt lat="44.49313" lon="5.1174">
        <ele>492.2</ele>
        <time>2021-11-19T12:44:12Z</time>
      </trkpt>
      <trkpt lat="44.49307" lon="5.11742">
        <ele>492.4</ele>
        <time>2021-11-19T12:44:14Z</time>
      </trkpt>
      <trkpt lat="44.49302" lon="5.11744">
        <ele>492.7</ele>
        <time>2021-11-19T12:44:15Z</time>
      </trkpt>
      <trkpt lat="44.493" lon="5.11746">
        <ele>492.8</ele>
        <time>2021-11-19T12:44:16Z</time>
      </trkpt>
      <trkpt lat="44.49294" lon="5.11747">
        <ele>493</ele>
        <time>2021-11-19T12:44:18Z</time>
      </trkpt>
      <trkpt lat="44.49291" lon="5.11749">
        <ele>493.2</ele>
        <time>2021-11-19T12:44:19Z</time>
      </trkpt>
      <trkpt lat="44.49289" lon="5.11751">
        <ele>493.3</ele>
        <time>2021-11-19T12:44:20Z</time>
      </trkpt>
      <trkpt lat="44.49286" lon="5.11752">
        <ele>493.4</ele>
        <time>2021-11-19T12:44:21Z</time>
      </trkpt>
      <trkpt lat="44.49281" lon="5.11754">
        <ele>493.7</ele>
        <time>2021-11-19T12:44:22Z</time>
      </trkpt>
      <trkpt lat="44.49278" lon="5.11754">
        <ele>493.8</ele>
        <time>2021-11-19T12:44:23Z</time>
      </trkpt>
      <trkpt lat="44.49276" lon="5.11756">
        <ele>493.9</ele>
        <time>2021-11-19T12:44:25Z</time>
      </trkpt>
      <trkpt lat="44.49272" lon="5.11758">
        <ele>494.1</ele>
        <time>2021-11-19T12:44:26Z</time>
      </trkpt>
      <trkpt lat="44.49266" lon="5.1176">
        <ele>494.4</ele>
        <time>2021-11-19T12:44:28Z</time>
      </trkpt>
      <trkpt lat="44.49258" lon="5.11763">
        <ele>494.7</ele>
        <time>2021-11-19T12:44:30Z</time>
      </trkpt>
      <trkpt lat="44.49254" lon="5.11765">
        <ele>494.9</ele>
        <time>2021-11-19T12:44:32Z</time>
      </trkpt>
      <trkpt lat="44.4925" lon="5.11768">
        <ele>495.1</ele>
        <time>2021-11-19T12:44:34Z</time>
      </trkpt>
      <trkpt lat="44.49246" lon="5.1177">
        <ele>495.3</ele>
        <time>2021-11-19T12:44:35Z</time>
      </trkpt>
      <trkpt lat="44.49241" lon="5.11773">
        <ele>495.6</ele>
        <time>2021-11-19T12:44:37Z</time>
      </trkpt>
      <trkpt lat="44.49238" lon="5.11774">
        <ele>495.7</ele>
        <time>2021-11-19T12:44:38Z</time>
      </trkpt>
      <trkpt lat="44.49233" lon="5.11776">
        <ele>495.9</ele>
        <time>2021-11-19T12:44:40Z</time>
      </trkpt>
      <trkpt lat="44.49232" lon="5.11776">
        <ele>495.9</ele>
        <time>2021-11-19T12:44:41Z</time>
      </trkpt>
      <trkpt lat="44.49221" lon="5.11781">
        <ele>496.4</ele>
        <time>2021-11-19T12:44:43Z</time>
      </trkpt>
      <trkpt lat="44.49211" lon="5.11786">
        <ele>496.8</ele>
        <time>2021-11-19T12:44:45Z</time>
      </trkpt>
      <trkpt lat="44.49204" lon="5.1179">
        <ele>497.1</ele>
        <time>2021-11-19T12:44:47Z</time>
      </trkpt>
      <trkpt lat="44.492" lon="5.11791">
        <ele>497.3</ele>
        <time>2021-11-19T12:44:48Z</time>
      </trkpt>
      <trkpt lat="44.49196" lon="5.11793">
        <ele>497.4</ele>
        <time>2021-11-19T12:44:49Z</time>
      </trkpt>
      <trkpt lat="44.49189" lon="5.11796">
        <ele>497.7</ele>
        <time>2021-11-19T12:44:51Z</time>
      </trkpt>
      <trkpt lat="44.49186" lon="5.11797">
        <ele>497.9</ele>
        <time>2021-11-19T12:44:52Z</time>
      </trkpt>
      <trkpt lat="44.49184" lon="5.11798">
        <ele>497.9</ele>
        <time>2021-11-19T12:44:53Z</time>
      </trkpt>
      <trkpt lat="44.49176" lon="5.11801">
        <ele>498.2</ele>
        <time>2021-11-19T12:44:55Z</time>
      </trkpt>
      <trkpt lat="44.49175" lon="5.11801">
        <ele>498.3</ele>
        <time>2021-11-19T12:44:56Z</time>
      </trkpt>
      <trkpt lat="44.49168" lon="5.11804">
        <ele>498.5</ele>
        <time>2021-11-19T12:44:58Z</time>
      </trkpt>
      <trkpt lat="44.49161" lon="5.11808">
        <ele>498.8</ele>
        <time>2021-11-19T12:45:01Z</time>
      </trkpt>
      <trkpt lat="44.49157" lon="5.11811">
        <ele>499</ele>
        <time>2021-11-19T12:45:02Z</time>
      </trkpt>
      <trkpt lat="44.4915" lon="5.11814">
        <ele>499.2</ele>
        <time>2021-11-19T12:45:04Z</time>
      </trkpt>
      <trkpt lat="44.49146" lon="5.11817">
        <ele>499.4</ele>
        <time>2021-11-19T12:45:05Z</time>
      </trkpt>
      <trkpt lat="44.49143" lon="5.11819">
        <ele>499.5</ele>
        <time>2021-11-19T12:45:06Z</time>
      </trkpt>
      <trkpt lat="44.49137" lon="5.11822">
        <ele>499.7</ele>
        <time>2021-11-19T12:45:08Z</time>
      </trkpt>
      <trkpt lat="44.49131" lon="5.11824">
        <ele>500</ele>
        <time>2021-11-19T12:45:09Z</time>
      </trkpt>
      <trkpt lat="44.49126" lon="5.11828">
        <ele>500.2</ele>
        <time>2021-11-19T12:45:12Z</time>
      </trkpt>
      <trkpt lat="44.49121" lon="5.11831">
        <ele>500.3</ele>
        <time>2021-11-19T12:45:13Z</time>
      </trkpt>
      <trkpt lat="44.49115" lon="5.11834">
        <ele>500.5</ele>
        <time>2021-11-19T12:45:15Z</time>
      </trkpt>
      <trkpt lat="44.49109" lon="5.11837">
        <ele>500.7</ele>
        <time>2021-11-19T12:45:17Z</time>
      </trkpt>
      <trkpt lat="44.49102" lon="5.11842">
        <ele>500.9</ele>
        <time>2021-11-19T12:45:19Z</time>
      </trkpt>
      <trkpt lat="44.49096" lon="5.11846">
        <ele>501.1</ele>
        <time>2021-11-19T12:45:21Z</time>
      </trkpt>
      <trkpt lat="44.49088" lon="5.11851">
        <ele>501.4</ele>
        <time>2021-11-19T12:45:23Z</time>
      </trkpt>
      <trkpt lat="44.49085" lon="5.11853">
        <ele>501.5</ele>
        <time>2021-11-19T12:45:24Z</time>
      </trkpt>
      <trkpt lat="44.49081" lon="5.11855">
        <ele>501.6</ele>
        <time>2021-11-19T12:45:25Z</time>
      </trkpt>
      <trkpt lat="44.49074" lon="5.1186">
        <ele>501.9</ele>
        <time>2021-11-19T12:45:27Z</time>
      </trkpt>
      <trkpt lat="44.4907" lon="5.11863">
        <ele>502</ele>
        <time>2021-11-19T12:45:28Z</time>
      </trkpt>
      <trkpt lat="44.49067" lon="5.11865">
        <ele>502.2</ele>
        <time>2021-11-19T12:45:30Z</time>
      </trkpt>
      <trkpt lat="44.49061" lon="5.11869">
        <ele>502.4</ele>
        <time>2021-11-19T12:45:32Z</time>
      </trkpt>
      <trkpt lat="44.49057" lon="5.11872">
        <ele>502.5</ele>
        <time>2021-11-19T12:45:33Z</time>
      </trkpt>
      <trkpt lat="44.49053" lon="5.11874">
        <ele>502.7</ele>
        <time>2021-11-19T12:45:35Z</time>
      </trkpt>
      <trkpt lat="44.4905" lon="5.11877">
        <ele>502.8</ele>
        <time>2021-11-19T12:45:36Z</time>
      </trkpt>
      <trkpt lat="44.49046" lon="5.11879">
        <ele>502.9</ele>
        <time>2021-11-19T12:45:37Z</time>
      </trkpt>
      <trkpt lat="44.49045" lon="5.1188">
        <ele>503</ele>
        <time>2021-11-19T12:45:38Z</time>
      </trkpt>
      <trkpt lat="44.49042" lon="5.11881">
        <ele>503.1</ele>
        <time>2021-11-19T12:45:39Z</time>
      </trkpt>
      <trkpt lat="44.49037" lon="5.11883">
        <ele>503.2</ele>
        <time>2021-11-19T12:45:40Z</time>
      </trkpt>
      <trkpt lat="44.49033" lon="5.11885">
        <ele>503.4</ele>
        <time>2021-11-19T12:45:41Z</time>
      </trkpt>
      <trkpt lat="44.4903" lon="5.11887">
        <ele>503.5</ele>
        <time>2021-11-19T12:45:42Z</time>
      </trkpt>
      <trkpt lat="44.49027" lon="5.11888">
        <ele>503.6</ele>
        <time>2021-11-19T12:45:43Z</time>
      </trkpt>
      <trkpt lat="44.49021" lon="5.1189">
        <ele>503.8</ele>
        <time>2021-11-19T12:45:44Z</time>
      </trkpt>
      <trkpt lat="44.49018" lon="5.11893">
        <ele>503.9</ele>
        <time>2021-11-19T12:45:46Z</time>
      </trkpt>
      <trkpt lat="44.49016" lon="5.11894">
        <ele>503.9</ele>
        <time>2021-11-19T12:45:47Z</time>
      </trkpt>
      <trkpt lat="44.49013" lon="5.11896">
        <ele>504</ele>
        <time>2021-11-19T12:45:48Z</time>
      </trkpt>
      <trkpt lat="44.49003" lon="5.119">
        <ele>504.3</ele>
        <time>2021-11-19T12:45:50Z</time>
      </trkpt>
      <trkpt lat="44.48996" lon="5.11903">
        <ele>504.5</ele>
        <time>2021-11-19T12:45:52Z</time>
      </trkpt>
      <trkpt lat="44.4899" lon="5.11906">
        <ele>504.7</ele>
        <time>2021-11-19T12:45:53Z</time>
      </trkpt>
      <trkpt lat="44.48985" lon="5.11908">
        <ele>504.8</ele>
        <time>2021-11-19T12:45:55Z</time>
      </trkpt>
      <trkpt lat="44.48979" lon="5.11911">
        <ele>505</ele>
        <time>2021-11-19T12:45:56Z</time>
      </trkpt>
      <trkpt lat="44.48974" lon="5.11913">
        <ele>505.1</ele>
        <time>2021-11-19T12:45:58Z</time>
      </trkpt>
      <trkpt lat="44.48967" lon="5.11916">
        <ele>505.3</ele>
        <time>2021-11-19T12:46:00Z</time>
      </trkpt>
      <trkpt lat="44.48963" lon="5.11918">
        <ele>505.4</ele>
        <time>2021-11-19T12:46:01Z</time>
      </trkpt>
      <trkpt lat="44.48957" lon="5.11921">
        <ele>505.5</ele>
        <time>2021-11-19T12:46:02Z</time>
      </trkpt>
      <trkpt lat="44.48954" lon="5.11923">
        <ele>505.6</ele>
        <time>2021-11-19T12:46:04Z</time>
      </trkpt>
      <trkpt lat="44.48951" lon="5.11924">
        <ele>505.7</ele>
        <time>2021-11-19T12:46:05Z</time>
      </trkpt>
      <trkpt lat="44.48948" lon="5.11926">
        <ele>505.7</ele>
        <time>2021-11-19T12:46:06Z</time>
      </trkpt>
      <trkpt lat="44.4894" lon="5.11931">
        <ele>505.9</ele>
        <time>2021-11-19T12:46:08Z</time>
      </trkpt>
      <trkpt lat="44.48937" lon="5.11934">
        <ele>506</ele>
        <time>2021-11-19T12:46:09Z</time>
      </trkpt>
      <trkpt lat="44.48926" lon="5.1194">
        <ele>506.2</ele>
        <time>2021-11-19T12:46:11Z</time>
      </trkpt>
      <trkpt lat="44.4892" lon="5.11943">
        <ele>506.3</ele>
        <time>2021-11-19T12:46:12Z</time>
      </trkpt>
      <trkpt lat="44.48916" lon="5.11945">
        <ele>506.4</ele>
        <time>2021-11-19T12:46:14Z</time>
      </trkpt>
      <trkpt lat="44.48907" lon="5.1195">
        <ele>506.5</ele>
        <time>2021-11-19T12:46:15Z</time>
      </trkpt>
      <trkpt lat="44.48903" lon="5.11952">
        <ele>506.5</ele>
        <time>2021-11-19T12:46:17Z</time>
      </trkpt>
      <trkpt lat="44.48897" lon="5.11955">
        <ele>506.6</ele>
        <time>2021-11-19T12:46:19Z</time>
      </trkpt>
      <trkpt lat="44.48893" lon="5.1196">
        <ele>506.7</ele>
        <time>2021-11-19T12:46:21Z</time>
      </trkpt>
      <trkpt lat="44.48889" lon="5.11962">
        <ele>506.7</ele>
        <time>2021-11-19T12:46:22Z</time>
      </trkpt>
      <trkpt lat="44.4888" lon="5.11969">
        <ele>506.8</ele>
        <time>2021-11-19T12:46:24Z</time>
      </trkpt>
      <trkpt lat="44.48872" lon="5.11974">
        <ele>506.9</ele>
        <time>2021-11-19T12:46:26Z</time>
      </trkpt>
      <trkpt lat="44.48868" lon="5.11976">
        <ele>507</ele>
        <time>2021-11-19T12:46:27Z</time>
      </trkpt>
      <trkpt lat="44.48861" lon="5.11979">
        <ele>507.1</ele>
        <time>2021-11-19T12:46:29Z</time>
      </trkpt>
      <trkpt lat="44.48855" lon="5.11983">
        <ele>507.2</ele>
        <time>2021-11-19T12:46:30Z</time>
      </trkpt>
      <trkpt lat="44.48851" lon="5.11984">
        <ele>507.2</ele>
        <time>2021-11-19T12:46:31Z</time>
      </trkpt>
      <trkpt lat="44.48853" lon="5.11983">
        <ele>507.2</ele>
        <time>2021-11-19T12:46:33Z</time>
      </trkpt>
      <trkpt lat="44.48842" lon="5.11985">
        <ele>507.4</ele>
        <time>2021-11-19T12:46:35Z</time>
      </trkpt>
      <trkpt lat="44.48832" lon="5.11991">
        <ele>507.5</ele>
        <time>2021-11-19T12:46:37Z</time>
      </trkpt>
      <trkpt lat="44.48826" lon="5.11995">
        <ele>507.6</ele>
        <time>2021-11-19T12:46:38Z</time>
      </trkpt>
      <trkpt lat="44.48816" lon="5.12">
        <ele>507.8</ele>
        <time>2021-11-19T12:46:40Z</time>
      </trkpt>
      <trkpt lat="44.48811" lon="5.12003">
        <ele>507.8</ele>
        <time>2021-11-19T12:46:41Z</time>
      </trkpt>
      <trkpt lat="44.48804" lon="5.12008">
        <ele>507.9</ele>
        <time>2021-11-19T12:46:43Z</time>
      </trkpt>
      <trkpt lat="44.48799" lon="5.12014">
        <ele>507.9</ele>
        <time>2021-11-19T12:46:44Z</time>
      </trkpt>
      <trkpt lat="44.48796" lon="5.1202">
        <ele>508</ele>
        <time>2021-11-19T12:46:45Z</time>
      </trkpt>
      <trkpt lat="44.48793" lon="5.12028">
        <ele>508</ele>
        <time>2021-11-19T12:46:47Z</time>
      </trkpt>
      <trkpt lat="44.48789" lon="5.1204">
        <ele>508</ele>
        <time>2021-11-19T12:46:48Z</time>
      </trkpt>
      <trkpt lat="44.48799" lon="5.12035">
        <ele>508</ele>
        <time>2021-11-19T12:46:51Z</time>
      </trkpt>
      <trkpt lat="44.48797" lon="5.12039">
        <ele>508.1</ele>
        <time>2021-11-19T12:46:52Z</time>
      </trkpt>
      <trkpt lat="44.48794" lon="5.12044">
        <ele>508.1</ele>
        <time>2021-11-19T12:46:53Z</time>
      </trkpt>
      <trkpt lat="44.48792" lon="5.1205">
        <ele>508.1</ele>
        <time>2021-11-19T12:46:54Z</time>
      </trkpt>
      <trkpt lat="44.4879" lon="5.12056">
        <ele>508.1</ele>
        <time>2021-11-19T12:46:55Z</time>
      </trkpt>
      <trkpt lat="44.48787" lon="5.12062">
        <ele>508.1</ele>
        <time>2021-11-19T12:46:56Z</time>
      </trkpt>
      <trkpt lat="44.48785" lon="5.12068">
        <ele>508.2</ele>
        <time>2021-11-19T12:46:57Z</time>
      </trkpt>
      <trkpt lat="44.48782" lon="5.12074">
        <ele>508.2</ele>
        <time>2021-11-19T12:46:58Z</time>
      </trkpt>
      <trkpt lat="44.48779" lon="5.1208">
        <ele>508.2</ele>
        <time>2021-11-19T12:46:59Z</time>
      </trkpt>
      <trkpt lat="44.48776" lon="5.12086">
        <ele>508.2</ele>
        <time>2021-11-19T12:47:00Z</time>
      </trkpt>
      <trkpt lat="44.48773" lon="5.12092">
        <ele>508.2</ele>
        <time>2021-11-19T12:47:01Z</time>
      </trkpt>
      <trkpt lat="44.4877" lon="5.12099">
        <ele>508.2</ele>
        <time>2021-11-19T12:47:02Z</time>
      </trkpt>
      <trkpt lat="44.48767" lon="5.12105">
        <ele>508.3</ele>
        <time>2021-11-19T12:47:03Z</time>
      </trkpt>
      <trkpt lat="44.48765" lon="5.12111">
        <ele>508.3</ele>
        <time>2021-11-19T12:47:04Z</time>
      </trkpt>
      <trkpt lat="44.48762" lon="5.12117">
        <ele>508.3</ele>
        <time>2021-11-19T12:47:05Z</time>
      </trkpt>
      <trkpt lat="44.4876" lon="5.12124">
        <ele>508.3</ele>
        <time>2021-11-19T12:47:06Z</time>
      </trkpt>
      <trkpt lat="44.48757" lon="5.1213">
        <ele>508.4</ele>
        <time>2021-11-19T12:47:07Z</time>
      </trkpt>
      <trkpt lat="44.48754" lon="5.12136">
        <ele>508.4</ele>
        <time>2021-11-19T12:47:08Z</time>
      </trkpt>
      <trkpt lat="44.48752" lon="5.12142">
        <ele>508.4</ele>
        <time>2021-11-19T12:47:09Z</time>
      </trkpt>
      <trkpt lat="44.48749" lon="5.12148">
        <ele>508.5</ele>
        <time>2021-11-19T12:47:10Z</time>
      </trkpt>
      <trkpt lat="44.48746" lon="5.12154">
        <ele>508.5</ele>
        <time>2021-11-19T12:47:11Z</time>
      </trkpt>
      <trkpt lat="44.48744" lon="5.12161">
        <ele>508.5</ele>
        <time>2021-11-19T12:47:12Z</time>
      </trkpt>
      <trkpt lat="44.48741" lon="5.12167">
        <ele>508.5</ele>
        <time>2021-11-19T12:47:13Z</time>
      </trkpt>
      <trkpt lat="44.48739" lon="5.12173">
        <ele>508.6</ele>
        <time>2021-11-19T12:47:14Z</time>
      </trkpt>
      <trkpt lat="44.48736" lon="5.12179">
        <ele>508.6</ele>
        <time>2021-11-19T12:47:15Z</time>
      </trkpt>
      <trkpt lat="44.48733" lon="5.12186">
        <ele>508.6</ele>
        <time>2021-11-19T12:47:16Z</time>
      </trkpt>
      <trkpt lat="44.48731" lon="5.12192">
        <ele>508.7</ele>
        <time>2021-11-19T12:47:17Z</time>
      </trkpt>
      <trkpt lat="44.48728" lon="5.12198">
        <ele>508.7</ele>
        <time>2021-11-19T12:47:18Z</time>
      </trkpt>
      <trkpt lat="44.48726" lon="5.12204">
        <ele>508.7</ele>
        <time>2021-11-19T12:47:19Z</time>
      </trkpt>
      <trkpt lat="44.48723" lon="5.1221">
        <ele>508.7</ele>
        <time>2021-11-19T12:47:20Z</time>
      </trkpt>
      <trkpt lat="44.48721" lon="5.12217">
        <ele>508.7</ele>
        <time>2021-11-19T12:47:21Z</time>
      </trkpt>
      <trkpt lat="44.48718" lon="5.12223">
        <ele>508.7</ele>
        <time>2021-11-19T12:47:22Z</time>
      </trkpt>
      <trkpt lat="44.48715" lon="5.12229">
        <ele>508.7</ele>
        <time>2021-11-19T12:47:23Z</time>
      </trkpt>
      <trkpt lat="44.48712" lon="5.12236">
        <ele>508.7</ele>
        <time>2021-11-19T12:47:24Z</time>
      </trkpt>
      <trkpt lat="44.48709" lon="5.12242">
        <ele>508.7</ele>
        <time>2021-11-19T12:47:25Z</time>
      </trkpt>
      <trkpt lat="44.48706" lon="5.12249">
        <ele>508.7</ele>
        <time>2021-11-19T12:47:26Z</time>
      </trkpt>
      <trkpt lat="44.48704" lon="5.12256">
        <ele>508.8</ele>
        <time>2021-11-19T12:47:27Z</time>
      </trkpt>
      <trkpt lat="44.48701" lon="5.12262">
        <ele>508.8</ele>
        <time>2021-11-19T12:47:28Z</time>
      </trkpt>
      <trkpt lat="44.48699" lon="5.12267">
        <ele>508.8</ele>
        <time>2021-11-19T12:47:29Z</time>
      </trkpt>
      <trkpt lat="44.48696" lon="5.12272">
        <ele>508.9</ele>
        <time>2021-11-19T12:47:30Z</time>
      </trkpt>
      <trkpt lat="44.48693" lon="5.12278">
        <ele>508.9</ele>
        <time>2021-11-19T12:47:31Z</time>
      </trkpt>
      <trkpt lat="44.4869" lon="5.12283">
        <ele>508.9</ele>
        <time>2021-11-19T12:47:32Z</time>
      </trkpt>
      <trkpt lat="44.48686" lon="5.12288">
        <ele>509</ele>
        <time>2021-11-19T12:47:33Z</time>
      </trkpt>
      <trkpt lat="44.48683" lon="5.12292">
        <ele>509</ele>
        <time>2021-11-19T12:47:34Z</time>
      </trkpt>
      <trkpt lat="44.48679" lon="5.12297">
        <ele>509.1</ele>
        <time>2021-11-19T12:47:35Z</time>
      </trkpt>
      <trkpt lat="44.48675" lon="5.12301">
        <ele>509.1</ele>
        <time>2021-11-19T12:47:36Z</time>
      </trkpt>
      <trkpt lat="44.48671" lon="5.12306">
        <ele>509.1</ele>
        <time>2021-11-19T12:47:37Z</time>
      </trkpt>
      <trkpt lat="44.48666" lon="5.12312">
        <ele>509.2</ele>
        <time>2021-11-19T12:47:38Z</time>
      </trkpt>
      <trkpt lat="44.48662" lon="5.12318">
        <ele>509.2</ele>
        <time>2021-11-19T12:47:39Z</time>
      </trkpt>
      <trkpt lat="44.48659" lon="5.12324">
        <ele>509.3</ele>
        <time>2021-11-19T12:47:40Z</time>
      </trkpt>
      <trkpt lat="44.48655" lon="5.1233">
        <ele>509.3</ele>
        <time>2021-11-19T12:47:41Z</time>
      </trkpt>
      <trkpt lat="44.48652" lon="5.12335">
        <ele>509.4</ele>
        <time>2021-11-19T12:47:42Z</time>
      </trkpt>
      <trkpt lat="44.4865" lon="5.12341">
        <ele>509.5</ele>
        <time>2021-11-19T12:47:43Z</time>
      </trkpt>
      <trkpt lat="44.48647" lon="5.12347">
        <ele>509.5</ele>
        <time>2021-11-19T12:47:44Z</time>
      </trkpt>
      <trkpt lat="44.48643" lon="5.12353">
        <ele>509.6</ele>
        <time>2021-11-19T12:47:45Z</time>
      </trkpt>
      <trkpt lat="44.4864" lon="5.12359">
        <ele>509.7</ele>
        <time>2021-11-19T12:47:46Z</time>
      </trkpt>
      <trkpt lat="44.48636" lon="5.12364">
        <ele>509.8</ele>
        <time>2021-11-19T12:47:47Z</time>
      </trkpt>
      <trkpt lat="44.48632" lon="5.1237">
        <ele>509.9</ele>
        <time>2021-11-19T12:47:48Z</time>
      </trkpt>
      <trkpt lat="44.48628" lon="5.12376">
        <ele>510</ele>
        <time>2021-11-19T12:47:49Z</time>
      </trkpt>
      <trkpt lat="44.48626" lon="5.12383">
        <ele>510.1</ele>
        <time>2021-11-19T12:47:50Z</time>
      </trkpt>
      <trkpt lat="44.48625" lon="5.12389">
        <ele>510.2</ele>
        <time>2021-11-19T12:47:51Z</time>
      </trkpt>
      <trkpt lat="44.48623" lon="5.12395">
        <ele>510.2</ele>
        <time>2021-11-19T12:47:52Z</time>
      </trkpt>
      <trkpt lat="44.48621" lon="5.12401">
        <ele>510.3</ele>
        <time>2021-11-19T12:47:53Z</time>
      </trkpt>
      <trkpt lat="44.48621" lon="5.12408">
        <ele>510.4</ele>
        <time>2021-11-19T12:47:54Z</time>
      </trkpt>
      <trkpt lat="44.48619" lon="5.12414">
        <ele>510.4</ele>
        <time>2021-11-19T12:47:55Z</time>
      </trkpt>
      <trkpt lat="44.48616" lon="5.12419">
        <ele>510.5</ele>
        <time>2021-11-19T12:47:56Z</time>
      </trkpt>
      <trkpt lat="44.48612" lon="5.12424">
        <ele>510.6</ele>
        <time>2021-11-19T12:47:57Z</time>
      </trkpt>
      <trkpt lat="44.48607" lon="5.12429">
        <ele>510.7</ele>
        <time>2021-11-19T12:47:58Z</time>
      </trkpt>
      <trkpt lat="44.48602" lon="5.12434">
        <ele>510.8</ele>
        <time>2021-11-19T12:47:59Z</time>
      </trkpt>
      <trkpt lat="44.48599" lon="5.12439">
        <ele>510.8</ele>
        <time>2021-11-19T12:48:00Z</time>
      </trkpt>
      <trkpt lat="44.48595" lon="5.12444">
        <ele>510.9</ele>
        <time>2021-11-19T12:48:01Z</time>
      </trkpt>
      <trkpt lat="44.4859" lon="5.12449">
        <ele>511</ele>
        <time>2021-11-19T12:48:02Z</time>
      </trkpt>
      <trkpt lat="44.48585" lon="5.12453">
        <ele>511</ele>
        <time>2021-11-19T12:48:03Z</time>
      </trkpt>
      <trkpt lat="44.4858" lon="5.12458">
        <ele>511.1</ele>
        <time>2021-11-19T12:48:04Z</time>
      </trkpt>
      <trkpt lat="44.48576" lon="5.12463">
        <ele>511.2</ele>
        <time>2021-11-19T12:48:05Z</time>
      </trkpt>
      <trkpt lat="44.48572" lon="5.12469">
        <ele>511.3</ele>
        <time>2021-11-19T12:48:06Z</time>
      </trkpt>
      <trkpt lat="44.48569" lon="5.12474">
        <ele>511.4</ele>
        <time>2021-11-19T12:48:07Z</time>
      </trkpt>
      <trkpt lat="44.48566" lon="5.12479">
        <ele>511.4</ele>
        <time>2021-11-19T12:48:08Z</time>
      </trkpt>
      <trkpt lat="44.48563" lon="5.12483">
        <ele>511.5</ele>
        <time>2021-11-19T12:48:09Z</time>
      </trkpt>
      <trkpt lat="44.48559" lon="5.12488">
        <ele>511.6</ele>
        <time>2021-11-19T12:48:10Z</time>
      </trkpt>
      <trkpt lat="44.48556" lon="5.12493">
        <ele>511.7</ele>
        <time>2021-11-19T12:48:11Z</time>
      </trkpt>
      <trkpt lat="44.48552" lon="5.12498">
        <ele>511.8</ele>
        <time>2021-11-19T12:48:12Z</time>
      </trkpt>
      <trkpt lat="44.48549" lon="5.12502">
        <ele>511.8</ele>
        <time>2021-11-19T12:48:13Z</time>
      </trkpt>
      <trkpt lat="44.48545" lon="5.12507">
        <ele>511.9</ele>
        <time>2021-11-19T12:48:14Z</time>
      </trkpt>
      <trkpt lat="44.48537" lon="5.12517">
        <ele>512.1</ele>
        <time>2021-11-19T12:48:15Z</time>
      </trkpt>
      <trkpt lat="44.48531" lon="5.12525">
        <ele>512.3</ele>
        <time>2021-11-19T12:48:18Z</time>
      </trkpt>
      <trkpt lat="44.48528" lon="5.12531">
        <ele>512.4</ele>
        <time>2021-11-19T12:48:19Z</time>
      </trkpt>
      <trkpt lat="44.48525" lon="5.12536">
        <ele>512.4</ele>
        <time>2021-11-19T12:48:20Z</time>
      </trkpt>
      <trkpt lat="44.48522" lon="5.12541">
        <ele>512.5</ele>
        <time>2021-11-19T12:48:21Z</time>
      </trkpt>
      <trkpt lat="44.48519" lon="5.12546">
        <ele>512.5</ele>
        <time>2021-11-19T12:48:22Z</time>
      </trkpt>
      <trkpt lat="44.48516" lon="5.12552">
        <ele>512.6</ele>
        <time>2021-11-19T12:48:23Z</time>
      </trkpt>
      <trkpt lat="44.48512" lon="5.12557">
        <ele>512.6</ele>
        <time>2021-11-19T12:48:24Z</time>
      </trkpt>
      <trkpt lat="44.48503" lon="5.12568">
        <ele>512.7</ele>
        <time>2021-11-19T12:48:25Z</time>
      </trkpt>
      <trkpt lat="44.48509" lon="5.12575">
        <ele>512.8</ele>
        <time>2021-11-19T12:48:26Z</time>
      </trkpt>
      <trkpt lat="44.48506" lon="5.12578">
        <ele>512.8</ele>
        <time>2021-11-19T12:48:27Z</time>
      </trkpt>
      <trkpt lat="44.48503" lon="5.12582">
        <ele>512.8</ele>
        <time>2021-11-19T12:48:28Z</time>
      </trkpt>
      <trkpt lat="44.48496" lon="5.12592">
        <ele>512.9</ele>
        <time>2021-11-19T12:48:30Z</time>
      </trkpt>
      <trkpt lat="44.48491" lon="5.12601">
        <ele>513</ele>
        <time>2021-11-19T12:48:31Z</time>
      </trkpt>
      <trkpt lat="44.48487" lon="5.12611">
        <ele>513.1</ele>
        <time>2021-11-19T12:48:34Z</time>
      </trkpt>
      <trkpt lat="44.48485" lon="5.12617">
        <ele>513.1</ele>
        <time>2021-11-19T12:48:35Z</time>
      </trkpt>
      <trkpt lat="44.48483" lon="5.12622">
        <ele>513.2</ele>
        <time>2021-11-19T12:48:36Z</time>
      </trkpt>
      <trkpt lat="44.4848" lon="5.12628">
        <ele>513.2</ele>
        <time>2021-11-19T12:48:37Z</time>
      </trkpt>
      <trkpt lat="44.48477" lon="5.12634">
        <ele>513.2</ele>
        <time>2021-11-19T12:48:38Z</time>
      </trkpt>
      <trkpt lat="44.48474" lon="5.12641">
        <ele>513.3</ele>
        <time>2021-11-19T12:48:39Z</time>
      </trkpt>
      <trkpt lat="44.48471" lon="5.12648">
        <ele>513.3</ele>
        <time>2021-11-19T12:48:40Z</time>
      </trkpt>
      <trkpt lat="44.48468" lon="5.12654">
        <ele>513.3</ele>
        <time>2021-11-19T12:48:41Z</time>
      </trkpt>
      <trkpt lat="44.48466" lon="5.1266">
        <ele>513.4</ele>
        <time>2021-11-19T12:48:42Z</time>
      </trkpt>
      <trkpt lat="44.48463" lon="5.12667">
        <ele>513.4</ele>
        <time>2021-11-19T12:48:43Z</time>
      </trkpt>
      <trkpt lat="44.4846" lon="5.12673">
        <ele>513.4</ele>
        <time>2021-11-19T12:48:44Z</time>
      </trkpt>
      <trkpt lat="44.48457" lon="5.12679">
        <ele>513.4</ele>
        <time>2021-11-19T12:48:45Z</time>
      </trkpt>
      <trkpt lat="44.48455" lon="5.12684">
        <ele>513.4</ele>
        <time>2021-11-19T12:48:46Z</time>
      </trkpt>
      <trkpt lat="44.48452" lon="5.1269">
        <ele>513.5</ele>
        <time>2021-11-19T12:48:47Z</time>
      </trkpt>
      <trkpt lat="44.4845" lon="5.12696">
        <ele>513.5</ele>
        <time>2021-11-19T12:48:48Z</time>
      </trkpt>
      <trkpt lat="44.48447" lon="5.12702">
        <ele>513.5</ele>
        <time>2021-11-19T12:48:49Z</time>
      </trkpt>
      <trkpt lat="44.48441" lon="5.12715">
        <ele>513.6</ele>
        <time>2021-11-19T12:48:51Z</time>
      </trkpt>
      <trkpt lat="44.48438" lon="5.12721">
        <ele>513.6</ele>
        <time>2021-11-19T12:48:52Z</time>
      </trkpt>
      <trkpt lat="44.48435" lon="5.12726">
        <ele>513.7</ele>
        <time>2021-11-19T12:48:53Z</time>
      </trkpt>
      <trkpt lat="44.48432" lon="5.12732">
        <ele>513.7</ele>
        <time>2021-11-19T12:48:54Z</time>
      </trkpt>
      <trkpt lat="44.48429" lon="5.12737">
        <ele>513.8</ele>
        <time>2021-11-19T12:48:55Z</time>
      </trkpt>
      <trkpt lat="44.48421" lon="5.12756">
        <ele>513.9</ele>
        <time>2021-11-19T12:48:56Z</time>
      </trkpt>
      <trkpt lat="44.48419" lon="5.12766">
        <ele>514</ele>
        <time>2021-11-19T12:48:58Z</time>
      </trkpt>
      <trkpt lat="44.48411" lon="5.12773">
        <ele>514.2</ele>
        <time>2021-11-19T12:48:59Z</time>
      </trkpt>
      <trkpt lat="44.48391" lon="5.12782">
        <ele>514.5</ele>
        <time>2021-11-19T12:49:02Z</time>
      </trkpt>
      <trkpt lat="44.48382" lon="5.12783">
        <ele>514.7</ele>
        <time>2021-11-19T12:49:05Z</time>
      </trkpt>
      <trkpt lat="44.48378" lon="5.12785">
        <ele>514.8</ele>
        <time>2021-11-19T12:49:06Z</time>
      </trkpt>
      <trkpt lat="44.48367" lon="5.12791">
        <ele>515.1</ele>
        <time>2021-11-19T12:49:07Z</time>
      </trkpt>
      <trkpt lat="44.48369" lon="5.12798">
        <ele>515.2</ele>
        <time>2021-11-19T12:49:08Z</time>
      </trkpt>
      <trkpt lat="44.48361" lon="5.12801">
        <ele>515.4</ele>
        <time>2021-11-19T12:49:10Z</time>
      </trkpt>
      <trkpt lat="44.48343" lon="5.12807">
        <ele>515.9</ele>
        <time>2021-11-19T12:49:13Z</time>
      </trkpt>
      <trkpt lat="44.48337" lon="5.1281">
        <ele>516.1</ele>
        <time>2021-11-19T12:49:14Z</time>
      </trkpt>
      <trkpt lat="44.48332" lon="5.12812">
        <ele>516.3</ele>
        <time>2021-11-19T12:49:15Z</time>
      </trkpt>
      <trkpt lat="44.48326" lon="5.12814">
        <ele>516.5</ele>
        <time>2021-11-19T12:49:16Z</time>
      </trkpt>
      <trkpt lat="44.48321" lon="5.12815">
        <ele>516.7</ele>
        <time>2021-11-19T12:49:17Z</time>
      </trkpt>
      <trkpt lat="44.48316" lon="5.12815">
        <ele>516.9</ele>
        <time>2021-11-19T12:49:18Z</time>
      </trkpt>
      <trkpt lat="44.48311" lon="5.12815">
        <ele>517.1</ele>
        <time>2021-11-19T12:49:20Z</time>
      </trkpt>
      <trkpt lat="44.48306" lon="5.12816">
        <ele>517.3</ele>
        <time>2021-11-19T12:49:21Z</time>
      </trkpt>
      <trkpt lat="44.48299" lon="5.12818">
        <ele>517.6</ele>
        <time>2021-11-19T12:49:23Z</time>
      </trkpt>
      <trkpt lat="44.48293" lon="5.12819">
        <ele>517.8</ele>
        <time>2021-11-19T12:49:25Z</time>
      </trkpt>
      <trkpt lat="44.48287" lon="5.1282">
        <ele>518</ele>
        <time>2021-11-19T12:49:27Z</time>
      </trkpt>
      <trkpt lat="44.48283" lon="5.12821">
        <ele>518.2</ele>
        <time>2021-11-19T12:49:28Z</time>
      </trkpt>
      <trkpt lat="44.48274" lon="5.12823">
        <ele>518.5</ele>
        <time>2021-11-19T12:49:30Z</time>
      </trkpt>
      <trkpt lat="44.4827" lon="5.12824">
        <ele>518.7</ele>
        <time>2021-11-19T12:49:31Z</time>
      </trkpt>
      <trkpt lat="44.48266" lon="5.12825">
        <ele>518.8</ele>
        <time>2021-11-19T12:49:32Z</time>
      </trkpt>
      <trkpt lat="44.48259" lon="5.12826">
        <ele>519.1</ele>
        <time>2021-11-19T12:49:35Z</time>
      </trkpt>
      <trkpt lat="44.48254" lon="5.12826">
        <ele>519.3</ele>
        <time>2021-11-19T12:49:36Z</time>
      </trkpt>
      <trkpt lat="44.48252" lon="5.12827">
        <ele>519.4</ele>
        <time>2021-11-19T12:49:37Z</time>
      </trkpt>
      <trkpt lat="44.48246" lon="5.12828">
        <ele>519.7</ele>
        <time>2021-11-19T12:49:39Z</time>
      </trkpt>
      <trkpt lat="44.48239" lon="5.12829">
        <ele>519.9</ele>
        <time>2021-11-19T12:49:42Z</time>
      </trkpt>
      <trkpt lat="44.48235" lon="5.12831">
        <ele>520.1</ele>
        <time>2021-11-19T12:49:43Z</time>
      </trkpt>
      <trkpt lat="44.4823" lon="5.12836">
        <ele>520.4</ele>
        <time>2021-11-19T12:49:44Z</time>
      </trkpt>
      <trkpt lat="44.48225" lon="5.12839">
        <ele>520.6</ele>
        <time>2021-11-19T12:49:46Z</time>
      </trkpt>
      <trkpt lat="44.48222" lon="5.12841">
        <ele>520.8</ele>
        <time>2021-11-19T12:49:47Z</time>
      </trkpt>
      <trkpt lat="44.48219" lon="5.12842">
        <ele>520.9</ele>
        <time>2021-11-19T12:49:49Z</time>
      </trkpt>
      <trkpt lat="44.48215" lon="5.12843">
        <ele>521.1</ele>
        <time>2021-11-19T12:49:50Z</time>
      </trkpt>
      <trkpt lat="44.48211" lon="5.12845">
        <ele>521.2</ele>
        <time>2021-11-19T12:49:51Z</time>
      </trkpt>
      <trkpt lat="44.48209" lon="5.12847">
        <ele>521.3</ele>
        <time>2021-11-19T12:49:52Z</time>
      </trkpt>
      <trkpt lat="44.48206" lon="5.12849">
        <ele>521.5</ele>
        <time>2021-11-19T12:49:54Z</time>
      </trkpt>
      <trkpt lat="44.48204" lon="5.1285">
        <ele>521.6</ele>
        <time>2021-11-19T12:49:55Z</time>
      </trkpt>
      <trkpt lat="44.48198" lon="5.12852">
        <ele>521.8</ele>
        <time>2021-11-19T12:49:57Z</time>
      </trkpt>
      <trkpt lat="44.48191" lon="5.12855">
        <ele>522</ele>
        <time>2021-11-19T12:49:59Z</time>
      </trkpt>
      <trkpt lat="44.48182" lon="5.12855">
        <ele>522.4</ele>
        <time>2021-11-19T12:50:01Z</time>
      </trkpt>
      <trkpt lat="44.48174" lon="5.12859">
        <ele>522.6</ele>
        <time>2021-11-19T12:50:02Z</time>
      </trkpt>
      <trkpt lat="44.4817" lon="5.12859">
        <ele>522.8</ele>
        <time>2021-11-19T12:50:04Z</time>
      </trkpt>
      <trkpt lat="44.48165" lon="5.1286">
        <ele>522.9</ele>
        <time>2021-11-19T12:50:05Z</time>
      </trkpt>
      <trkpt lat="44.48157" lon="5.12861">
        <ele>523.2</ele>
        <time>2021-11-19T12:50:06Z</time>
      </trkpt>
      <trkpt lat="44.48154" lon="5.12859">
        <ele>523.3</ele>
        <time>2021-11-19T12:50:08Z</time>
      </trkpt>
      <trkpt lat="44.48152" lon="5.12858">
        <ele>523.4</ele>
        <time>2021-11-19T12:50:09Z</time>
      </trkpt>
      <trkpt lat="44.48145" lon="5.12858">
        <ele>523.7</ele>
        <time>2021-11-19T12:50:11Z</time>
      </trkpt>
      <trkpt lat="44.4815" lon="5.12855">
        <ele>523.9</ele>
        <time>2021-11-19T12:50:12Z</time>
      </trkpt>
      <trkpt lat="44.48153" lon="5.12854">
        <ele>524</ele>
        <time>2021-11-19T12:50:13Z</time>
      </trkpt>
      <trkpt lat="44.48158" lon="5.12854">
        <ele>524.1</ele>
        <time>2021-11-19T12:50:15Z</time>
      </trkpt>
      <trkpt lat="44.4815" lon="5.12856">
        <ele>524.3</ele>
        <time>2021-11-19T12:50:16Z</time>
      </trkpt>
      <trkpt lat="44.48144" lon="5.12858">
        <ele>524.5</ele>
        <time>2021-11-19T12:50:17Z</time>
      </trkpt>
      <trkpt lat="44.48137" lon="5.12859">
        <ele>524.7</ele>
        <time>2021-11-19T12:50:19Z</time>
      </trkpt>
      <trkpt lat="44.4813" lon="5.12861">
        <ele>524.9</ele>
        <time>2021-11-19T12:50:20Z</time>
      </trkpt>
      <trkpt lat="44.48117" lon="5.12865">
        <ele>525.3</ele>
        <time>2021-11-19T12:50:22Z</time>
      </trkpt>
      <trkpt lat="44.48111" lon="5.12865">
        <ele>525.4</ele>
        <time>2021-11-19T12:50:23Z</time>
      </trkpt>
      <trkpt lat="44.48102" lon="5.12866">
        <ele>525.7</ele>
        <time>2021-11-19T12:50:25Z</time>
      </trkpt>
      <trkpt lat="44.48097" lon="5.12866">
        <ele>525.9</ele>
        <time>2021-11-19T12:50:26Z</time>
      </trkpt>
      <trkpt lat="44.48091" lon="5.12867">
        <ele>526.1</ele>
        <time>2021-11-19T12:50:27Z</time>
      </trkpt>
      <trkpt lat="44.48084" lon="5.12868">
        <ele>526.3</ele>
        <time>2021-11-19T12:50:29Z</time>
      </trkpt>
      <trkpt lat="44.48079" lon="5.12869">
        <ele>526.5</ele>
        <time>2021-11-19T12:50:31Z</time>
      </trkpt>
      <trkpt lat="44.48076" lon="5.1287">
        <ele>526.6</ele>
        <time>2021-11-19T12:50:32Z</time>
      </trkpt>
      <trkpt lat="44.48071" lon="5.1287">
        <ele>526.7</ele>
        <time>2021-11-19T12:50:33Z</time>
      </trkpt>
      <trkpt lat="44.48064" lon="5.12867">
        <ele>527</ele>
        <time>2021-11-19T12:50:35Z</time>
      </trkpt>
      <trkpt lat="44.48057" lon="5.12864">
        <ele>527.2</ele>
        <time>2021-11-19T12:50:38Z</time>
      </trkpt>
      <trkpt lat="44.48054" lon="5.12864">
        <ele>527.3</ele>
        <time>2021-11-19T12:50:39Z</time>
      </trkpt>
      <trkpt lat="44.48049" lon="5.12865">
        <ele>527.4</ele>
        <time>2021-11-19T12:50:40Z</time>
      </trkpt>
      <trkpt lat="44.48042" lon="5.12866">
        <ele>527.7</ele>
        <time>2021-11-19T12:50:41Z</time>
      </trkpt>
      <trkpt lat="44.48038" lon="5.12867">
        <ele>527.8</ele>
        <time>2021-11-19T12:50:43Z</time>
      </trkpt>
      <trkpt lat="44.48032" lon="5.12868">
        <ele>528</ele>
        <time>2021-11-19T12:50:44Z</time>
      </trkpt>
      <trkpt lat="44.48029" lon="5.12869">
        <ele>528.1</ele>
        <time>2021-11-19T12:50:46Z</time>
      </trkpt>
      <trkpt lat="44.48023" lon="5.12869">
        <ele>528.3</ele>
        <time>2021-11-19T12:50:48Z</time>
      </trkpt>
      <trkpt lat="44.48017" lon="5.12869">
        <ele>528.5</ele>
        <time>2021-11-19T12:50:49Z</time>
      </trkpt>
      <trkpt lat="44.48009" lon="5.12869">
        <ele>528.8</ele>
        <time>2021-11-19T12:50:51Z</time>
      </trkpt>
      <trkpt lat="44.48001" lon="5.1287">
        <ele>529</ele>
        <time>2021-11-19T12:50:53Z</time>
      </trkpt>
      <trkpt lat="44.47993" lon="5.12872">
        <ele>529.2</ele>
        <time>2021-11-19T12:50:55Z</time>
      </trkpt>
      <trkpt lat="44.47989" lon="5.12873">
        <ele>529.3</ele>
        <time>2021-11-19T12:50:56Z</time>
      </trkpt>
      <trkpt lat="44.47981" lon="5.12874">
        <ele>529.5</ele>
        <time>2021-11-19T12:50:58Z</time>
      </trkpt>
      <trkpt lat="44.47978" lon="5.12873">
        <ele>529.6</ele>
        <time>2021-11-19T12:50:59Z</time>
      </trkpt>
      <trkpt lat="44.47974" lon="5.12874">
        <ele>529.8</ele>
        <time>2021-11-19T12:51:00Z</time>
      </trkpt>
      <trkpt lat="44.47967" lon="5.12875">
        <ele>529.9</ele>
        <time>2021-11-19T12:51:03Z</time>
      </trkpt>
      <trkpt lat="44.47962" lon="5.12876">
        <ele>530.1</ele>
        <time>2021-11-19T12:51:04Z</time>
      </trkpt>
      <trkpt lat="44.47953" lon="5.12877">
        <ele>530.3</ele>
        <time>2021-11-19T12:51:06Z</time>
      </trkpt>
      <trkpt lat="44.47945" lon="5.12878">
        <ele>530.5</ele>
        <time>2021-11-19T12:51:08Z</time>
      </trkpt>
      <trkpt lat="44.47941" lon="5.12879">
        <ele>530.6</ele>
        <time>2021-11-19T12:51:09Z</time>
      </trkpt>
      <trkpt lat="44.47937" lon="5.1288">
        <ele>530.7</ele>
        <time>2021-11-19T12:51:10Z</time>
      </trkpt>
      <trkpt lat="44.47933" lon="5.1288">
        <ele>530.8</ele>
        <time>2021-11-19T12:51:11Z</time>
      </trkpt>
      <trkpt lat="44.47927" lon="5.1288">
        <ele>531</ele>
        <time>2021-11-19T12:51:13Z</time>
      </trkpt>
      <trkpt lat="44.47924" lon="5.1288">
        <ele>531.1</ele>
        <time>2021-11-19T12:51:14Z</time>
      </trkpt>
      <trkpt lat="44.47919" lon="5.1288">
        <ele>531.2</ele>
        <time>2021-11-19T12:51:16Z</time>
      </trkpt>
      <trkpt lat="44.47915" lon="5.1288">
        <ele>531.3</ele>
        <time>2021-11-19T12:51:17Z</time>
      </trkpt>
      <trkpt lat="44.47908" lon="5.12882">
        <ele>531.4</ele>
        <time>2021-11-19T12:51:18Z</time>
      </trkpt>
      <trkpt lat="44.47902" lon="5.12882">
        <ele>531.6</ele>
        <time>2021-11-19T12:51:20Z</time>
      </trkpt>
      <trkpt lat="44.47896" lon="5.12884">
        <ele>531.7</ele>
        <time>2021-11-19T12:51:22Z</time>
      </trkpt>
      <trkpt lat="44.47892" lon="5.12885">
        <ele>531.8</ele>
        <time>2021-11-19T12:51:23Z</time>
      </trkpt>
      <trkpt lat="44.4789" lon="5.12885">
        <ele>531.9</ele>
        <time>2021-11-19T12:51:24Z</time>
      </trkpt>
      <trkpt lat="44.47887" lon="5.12886">
        <ele>532</ele>
        <time>2021-11-19T12:51:25Z</time>
      </trkpt>
      <trkpt lat="44.47879" lon="5.12888">
        <ele>532.2</ele>
        <time>2021-11-19T12:51:27Z</time>
      </trkpt>
      <trkpt lat="44.47875" lon="5.1289">
        <ele>532.4</ele>
        <time>2021-11-19T12:51:28Z</time>
      </trkpt>
      <trkpt lat="44.47873" lon="5.1289">
        <ele>532.4</ele>
        <time>2021-11-19T12:51:29Z</time>
      </trkpt>
      <trkpt lat="44.47864" lon="5.12892">
        <ele>532.7</ele>
        <time>2021-11-19T12:51:31Z</time>
      </trkpt>
      <trkpt lat="44.47861" lon="5.12893">
        <ele>532.8</ele>
        <time>2021-11-19T12:51:32Z</time>
      </trkpt>
      <trkpt lat="44.47857" lon="5.12895">
        <ele>532.9</ele>
        <time>2021-11-19T12:51:33Z</time>
      </trkpt>
      <trkpt lat="44.47851" lon="5.12899">
        <ele>533.2</ele>
        <time>2021-11-19T12:51:35Z</time>
      </trkpt>
      <trkpt lat="44.47848" lon="5.12901">
        <ele>533.3</ele>
        <time>2021-11-19T12:51:36Z</time>
      </trkpt>
      <trkpt lat="44.47843" lon="5.12905">
        <ele>533.4</ele>
        <time>2021-11-19T12:51:38Z</time>
      </trkpt>
      <trkpt lat="44.47841" lon="5.12908">
        <ele>533.5</ele>
        <time>2021-11-19T12:51:39Z</time>
      </trkpt>
      <trkpt lat="44.47851" lon="5.12907">
        <ele>533.8</ele>
        <time>2021-11-19T12:51:41Z</time>
      </trkpt>
      <trkpt lat="44.47842" lon="5.12914">
        <ele>534.1</ele>
        <time>2021-11-19T12:51:42Z</time>
      </trkpt>
      <trkpt lat="44.47837" lon="5.12919">
        <ele>534.2</ele>
        <time>2021-11-19T12:51:44Z</time>
      </trkpt>
      <trkpt lat="44.47827" lon="5.12928">
        <ele>534.6</ele>
        <time>2021-11-19T12:51:47Z</time>
      </trkpt>
      <trkpt lat="44.4782" lon="5.12933">
        <ele>534.8</ele>
        <time>2021-11-19T12:51:48Z</time>
      </trkpt>
      <trkpt lat="44.47818" lon="5.12934">
        <ele>534.8</ele>
        <time>2021-11-19T12:51:49Z</time>
      </trkpt>
      <trkpt lat="44.47807" lon="5.12941">
        <ele>535.2</ele>
        <time>2021-11-19T12:51:51Z</time>
      </trkpt>
      <trkpt lat="44.47803" lon="5.12943">
        <ele>535.3</ele>
        <time>2021-11-19T12:51:52Z</time>
      </trkpt>
      <trkpt lat="44.47795" lon="5.12949">
        <ele>535.5</ele>
        <time>2021-11-19T12:51:54Z</time>
      </trkpt>
      <trkpt lat="44.47787" lon="5.12953">
        <ele>535.7</ele>
        <time>2021-11-19T12:51:56Z</time>
      </trkpt>
      <trkpt lat="44.4778" lon="5.12957">
        <ele>535.9</ele>
        <time>2021-11-19T12:51:58Z</time>
      </trkpt>
      <trkpt lat="44.47776" lon="5.12961">
        <ele>536</ele>
        <time>2021-11-19T12:51:59Z</time>
      </trkpt>
      <trkpt lat="44.47785" lon="5.12953">
        <ele>536.2</ele>
        <time>2021-11-19T12:52:01Z</time>
      </trkpt>
      <trkpt lat="44.47779" lon="5.12959">
        <ele>536.4</ele>
        <time>2021-11-19T12:52:03Z</time>
      </trkpt>
      <trkpt lat="44.47776" lon="5.12961">
        <ele>536.5</ele>
        <time>2021-11-19T12:52:04Z</time>
      </trkpt>
      <trkpt lat="44.47769" lon="5.12966">
        <ele>536.7</ele>
        <time>2021-11-19T12:52:05Z</time>
      </trkpt>
      <trkpt lat="44.47763" lon="5.1297">
        <ele>536.9</ele>
        <time>2021-11-19T12:52:06Z</time>
      </trkpt>
      <trkpt lat="44.47754" lon="5.12976">
        <ele>537.1</ele>
        <time>2021-11-19T12:52:08Z</time>
      </trkpt>
      <trkpt lat="44.47744" lon="5.12983">
        <ele>537.3</ele>
        <time>2021-11-19T12:52:10Z</time>
      </trkpt>
      <trkpt lat="44.4774" lon="5.12985">
        <ele>537.4</ele>
        <time>2021-11-19T12:52:11Z</time>
      </trkpt>
      <trkpt lat="44.47732" lon="5.12989">
        <ele>537.6</ele>
        <time>2021-11-19T12:52:12Z</time>
      </trkpt>
      <trkpt lat="44.47725" lon="5.12991">
        <ele>537.8</ele>
        <time>2021-11-19T12:52:14Z</time>
      </trkpt>
      <trkpt lat="44.47721" lon="5.12992">
        <ele>537.9</ele>
        <time>2021-11-19T12:52:15Z</time>
      </trkpt>
      <trkpt lat="44.47717" lon="5.12994">
        <ele>538</ele>
        <time>2021-11-19T12:52:16Z</time>
      </trkpt>
      <trkpt lat="44.47711" lon="5.12997">
        <ele>538.1</ele>
        <time>2021-11-19T12:52:18Z</time>
      </trkpt>
      <trkpt lat="44.47706" lon="5.12999">
        <ele>538.2</ele>
        <time>2021-11-19T12:52:20Z</time>
      </trkpt>
      <trkpt lat="44.47701" lon="5.13002">
        <ele>538.3</ele>
        <time>2021-11-19T12:52:21Z</time>
      </trkpt>
      <trkpt lat="44.47691" lon="5.13008">
        <ele>538.6</ele>
        <time>2021-11-19T12:52:23Z</time>
      </trkpt>
      <trkpt lat="44.47687" lon="5.1301">
        <ele>538.7</ele>
        <time>2021-11-19T12:52:24Z</time>
      </trkpt>
      <trkpt lat="44.47681" lon="5.13012">
        <ele>538.8</ele>
        <time>2021-11-19T12:52:26Z</time>
      </trkpt>
      <trkpt lat="44.47678" lon="5.13013">
        <ele>538.9</ele>
        <time>2021-11-19T12:52:27Z</time>
      </trkpt>
      <trkpt lat="44.47674" lon="5.13014">
        <ele>538.9</ele>
        <time>2021-11-19T12:52:28Z</time>
      </trkpt>
      <trkpt lat="44.47687" lon="5.13007">
        <ele>539.1</ele>
        <time>2021-11-19T12:52:30Z</time>
      </trkpt>
      <trkpt lat="44.47678" lon="5.13013">
        <ele>539.1</ele>
        <time>2021-11-19T12:52:32Z</time>
      </trkpt>
      <trkpt lat="44.47659" lon="5.13027">
        <ele>539.2</ele>
        <time>2021-11-19T12:52:35Z</time>
      </trkpt>
      <trkpt lat="44.47647" lon="5.13036">
        <ele>539.3</ele>
        <time>2021-11-19T12:52:38Z</time>
      </trkpt>
      <trkpt lat="44.47636" lon="5.13042">
        <ele>539.4</ele>
        <time>2021-11-19T12:52:39Z</time>
      </trkpt>
      <trkpt lat="44.47628" lon="5.13045">
        <ele>539.4</ele>
        <time>2021-11-19T12:52:41Z</time>
      </trkpt>
      <trkpt lat="44.47619" lon="5.13048">
        <ele>539.4</ele>
        <time>2021-11-19T12:52:42Z</time>
      </trkpt>
      <trkpt lat="44.47606" lon="5.13053">
        <ele>539.4</ele>
        <time>2021-11-19T12:52:43Z</time>
      </trkpt>
      <trkpt lat="44.47608" lon="5.13057">
        <ele>539.4</ele>
        <time>2021-11-19T12:52:46Z</time>
      </trkpt>
      <trkpt lat="44.47605" lon="5.13061">
        <ele>539.4</ele>
        <time>2021-11-19T12:52:47Z</time>
      </trkpt>
      <trkpt lat="44.47596" lon="5.13072">
        <ele>539.4</ele>
        <time>2021-11-19T12:52:48Z</time>
      </trkpt>
      <trkpt lat="44.47601" lon="5.13081">
        <ele>539.4</ele>
        <time>2021-11-19T12:52:50Z</time>
      </trkpt>
      <trkpt lat="44.47588" lon="5.13093">
        <ele>539.5</ele>
        <time>2021-11-19T12:52:53Z</time>
      </trkpt>
      <trkpt lat="44.47584" lon="5.13099">
        <ele>539.6</ele>
        <time>2021-11-19T12:52:54Z</time>
      </trkpt>
      <trkpt lat="44.47581" lon="5.13104">
        <ele>539.6</ele>
        <time>2021-11-19T12:52:55Z</time>
      </trkpt>
      <trkpt lat="44.47577" lon="5.1311">
        <ele>539.6</ele>
        <time>2021-11-19T12:52:56Z</time>
      </trkpt>
      <trkpt lat="44.47572" lon="5.13115">
        <ele>539.7</ele>
        <time>2021-11-19T12:52:57Z</time>
      </trkpt>
      <trkpt lat="44.47563" lon="5.13127">
        <ele>539.8</ele>
        <time>2021-11-19T12:52:58Z</time>
      </trkpt>
      <trkpt lat="44.47565" lon="5.13138">
        <ele>539.9</ele>
        <time>2021-11-19T12:52:59Z</time>
      </trkpt>
      <trkpt lat="44.47552" lon="5.13146">
        <ele>540</ele>
        <time>2021-11-19T12:53:01Z</time>
      </trkpt>
      <trkpt lat="44.47544" lon="5.13151">
        <ele>540.1</ele>
        <time>2021-11-19T12:53:04Z</time>
      </trkpt>
      <trkpt lat="44.4754" lon="5.13157">
        <ele>540.1</ele>
        <time>2021-11-19T12:53:05Z</time>
      </trkpt>
      <trkpt lat="44.47537" lon="5.13163">
        <ele>540.2</ele>
        <time>2021-11-19T12:53:06Z</time>
      </trkpt>
      <trkpt lat="44.47533" lon="5.13169">
        <ele>540.2</ele>
        <time>2021-11-19T12:53:07Z</time>
      </trkpt>
      <trkpt lat="44.4753" lon="5.13176">
        <ele>540.3</ele>
        <time>2021-11-19T12:53:08Z</time>
      </trkpt>
      <trkpt lat="44.47526" lon="5.13182">
        <ele>540.4</ele>
        <time>2021-11-19T12:53:09Z</time>
      </trkpt>
      <trkpt lat="44.47522" lon="5.13187">
        <ele>540.5</ele>
        <time>2021-11-19T12:53:10Z</time>
      </trkpt>
      <trkpt lat="44.47514" lon="5.132">
        <ele>540.8</ele>
        <time>2021-11-19T12:53:11Z</time>
      </trkpt>
      <trkpt lat="44.4752" lon="5.13204">
        <ele>540.9</ele>
        <time>2021-11-19T12:53:12Z</time>
      </trkpt>
      <trkpt lat="44.47513" lon="5.13215">
        <ele>541.1</ele>
        <time>2021-11-19T12:53:14Z</time>
      </trkpt>
      <trkpt lat="44.47508" lon="5.13223">
        <ele>541.2</ele>
        <time>2021-11-19T12:53:15Z</time>
      </trkpt>
      <trkpt lat="44.475" lon="5.13235">
        <ele>541.4</ele>
        <time>2021-11-19T12:53:16Z</time>
      </trkpt>
      <trkpt lat="44.47496" lon="5.13241">
        <ele>541.6</ele>
        <time>2021-11-19T12:53:17Z</time>
      </trkpt>
      <trkpt lat="44.47492" lon="5.13247">
        <ele>541.7</ele>
        <time>2021-11-19T12:53:18Z</time>
      </trkpt>
      <trkpt lat="44.4749" lon="5.13251">
        <ele>541.7</ele>
        <time>2021-11-19T12:53:20Z</time>
      </trkpt>
      <trkpt lat="44.47487" lon="5.13255">
        <ele>541.8</ele>
        <time>2021-11-19T12:53:21Z</time>
      </trkpt>
      <trkpt lat="44.47481" lon="5.13266">
        <ele>542</ele>
        <time>2021-11-19T12:53:23Z</time>
      </trkpt>
      <trkpt lat="44.47472" lon="5.13277">
        <ele>542.2</ele>
        <time>2021-11-19T12:53:25Z</time>
      </trkpt>
      <trkpt lat="44.47468" lon="5.13283">
        <ele>542.3</ele>
        <time>2021-11-19T12:53:26Z</time>
      </trkpt>
      <trkpt lat="44.47463" lon="5.13289">
        <ele>542.5</ele>
        <time>2021-11-19T12:53:27Z</time>
      </trkpt>
      <trkpt lat="44.47451" lon="5.13291">
        <ele>542.7</ele>
        <time>2021-11-19T12:53:29Z</time>
      </trkpt>
      <trkpt lat="44.47444" lon="5.1328">
        <ele>542.9</ele>
        <time>2021-11-19T12:53:31Z</time>
      </trkpt>
      <trkpt lat="44.47436" lon="5.13291">
        <ele>543.1</ele>
        <time>2021-11-19T12:53:34Z</time>
      </trkpt>
      <trkpt lat="44.47425" lon="5.13298">
        <ele>543.3</ele>
        <time>2021-11-19T12:53:35Z</time>
      </trkpt>
      <trkpt lat="44.47417" lon="5.13309">
        <ele>543.5</ele>
        <time>2021-11-19T12:53:36Z</time>
      </trkpt>
      <trkpt lat="44.4741" lon="5.13316">
        <ele>543.7</ele>
        <time>2021-11-19T12:53:38Z</time>
      </trkpt>
      <trkpt lat="44.47396" lon="5.13326">
        <ele>544</ele>
        <time>2021-11-19T12:53:40Z</time>
      </trkpt>
      <trkpt lat="44.47385" lon="5.13332">
        <ele>544.2</ele>
        <time>2021-11-19T12:53:42Z</time>
      </trkpt>
      <trkpt lat="44.47379" lon="5.13337">
        <ele>544.3</ele>
        <time>2021-11-19T12:53:43Z</time>
      </trkpt>
      <trkpt lat="44.47383" lon="5.13331">
        <ele>544.3</ele>
        <time>2021-11-19T12:53:46Z</time>
      </trkpt>
      <trkpt lat="44.47379" lon="5.13333">
        <ele>544.4</ele>
        <time>2021-11-19T12:53:47Z</time>
      </trkpt>
      <trkpt lat="44.47376" lon="5.13336">
        <ele>544.5</ele>
        <time>2021-11-19T12:53:48Z</time>
      </trkpt>
      <trkpt lat="44.47372" lon="5.13339">
        <ele>544.6</ele>
        <time>2021-11-19T12:53:49Z</time>
      </trkpt>
      <trkpt lat="44.47368" lon="5.13341">
        <ele>544.6</ele>
        <time>2021-11-19T12:53:50Z</time>
      </trkpt>
      <trkpt lat="44.47364" lon="5.13343">
        <ele>544.7</ele>
        <time>2021-11-19T12:53:51Z</time>
      </trkpt>
      <trkpt lat="44.47354" lon="5.13351">
        <ele>545</ele>
        <time>2021-11-19T12:53:52Z</time>
      </trkpt>
      <trkpt lat="44.4734" lon="5.13359">
        <ele>545.3</ele>
        <time>2021-11-19T12:53:55Z</time>
      </trkpt>
      <trkpt lat="44.47341" lon="5.13355">
        <ele>545.3</ele>
        <time>2021-11-19T12:53:56Z</time>
      </trkpt>
      <trkpt lat="44.47325" lon="5.13367">
        <ele>545.7</ele>
        <time>2021-11-19T12:53:59Z</time>
      </trkpt>
      <trkpt lat="44.47311" lon="5.1338">
        <ele>546.1</ele>
        <time>2021-11-19T12:54:02Z</time>
      </trkpt>
      <trkpt lat="44.47309" lon="5.13394">
        <ele>546.4</ele>
        <time>2021-11-19T12:54:04Z</time>
      </trkpt>
      <trkpt lat="44.473" lon="5.13398">
        <ele>546.6</ele>
        <time>2021-11-19T12:54:05Z</time>
      </trkpt>
      <trkpt lat="44.47296" lon="5.13401">
        <ele>546.7</ele>
        <time>2021-11-19T12:54:06Z</time>
      </trkpt>
      <trkpt lat="44.47289" lon="5.13407">
        <ele>546.9</ele>
        <time>2021-11-19T12:54:08Z</time>
      </trkpt>
      <trkpt lat="44.47283" lon="5.13413">
        <ele>547.1</ele>
        <time>2021-11-19T12:54:09Z</time>
      </trkpt>
      <trkpt lat="44.47274" lon="5.13425">
        <ele>547.4</ele>
        <time>2021-11-19T12:54:10Z</time>
      </trkpt>
      <trkpt lat="44.47267" lon="5.13436">
        <ele>547.7</ele>
        <time>2021-11-19T12:54:13Z</time>
      </trkpt>
      <trkpt lat="44.47259" lon="5.13449">
        <ele>548</ele>
        <time>2021-11-19T12:54:15Z</time>
      </trkpt>
      <trkpt lat="44.4725" lon="5.13457">
        <ele>548.2</ele>
        <time>2021-11-19T12:54:17Z</time>
      </trkpt>
      <trkpt lat="44.47246" lon="5.13457">
        <ele>548.3</ele>
        <time>2021-11-19T12:54:19Z</time>
      </trkpt>
      <trkpt lat="44.47244" lon="5.13454">
        <ele>548.4</ele>
        <time>2021-11-19T12:54:20Z</time>
      </trkpt>
      <trkpt lat="44.47238" lon="5.13465">
        <ele>548.6</ele>
        <time>2021-11-19T12:54:22Z</time>
      </trkpt>
      <trkpt lat="44.4724" lon="5.13478">
        <ele>548.8</ele>
        <time>2021-11-19T12:54:24Z</time>
      </trkpt>
      <trkpt lat="44.47235" lon="5.13487">
        <ele>548.9</ele>
        <time>2021-11-19T12:54:25Z</time>
      </trkpt>
      <trkpt lat="44.4723" lon="5.13484">
        <ele>549</ele>
        <time>2021-11-19T12:54:26Z</time>
      </trkpt>
      <trkpt lat="44.47225" lon="5.13489">
        <ele>549.1</ele>
        <time>2021-11-19T12:54:28Z</time>
      </trkpt>
      <trkpt lat="44.47215" lon="5.13503">
        <ele>549.4</ele>
        <time>2021-11-19T12:54:29Z</time>
      </trkpt>
      <trkpt lat="44.47211" lon="5.13512">
        <ele>549.6</ele>
        <time>2021-11-19T12:54:30Z</time>
      </trkpt>
      <trkpt lat="44.47209" lon="5.13514">
        <ele>549.6</ele>
        <time>2021-11-19T12:54:33Z</time>
      </trkpt>
      <trkpt lat="44.47207" lon="5.13516">
        <ele>549.7</ele>
        <time>2021-11-19T12:54:34Z</time>
      </trkpt>
      <trkpt lat="44.47204" lon="5.1352">
        <ele>549.8</ele>
        <time>2021-11-19T12:54:35Z</time>
      </trkpt>
      <trkpt lat="44.472" lon="5.13524">
        <ele>549.9</ele>
        <time>2021-11-19T12:54:36Z</time>
      </trkpt>
      <trkpt lat="44.47197" lon="5.13528">
        <ele>550</ele>
        <time>2021-11-19T12:54:37Z</time>
      </trkpt>
      <trkpt lat="44.47193" lon="5.13532">
        <ele>550.1</ele>
        <time>2021-11-19T12:54:38Z</time>
      </trkpt>
      <trkpt lat="44.47188" lon="5.13536">
        <ele>550.2</ele>
        <time>2021-11-19T12:54:39Z</time>
      </trkpt>
      <trkpt lat="44.47184" lon="5.1354">
        <ele>550.3</ele>
        <time>2021-11-19T12:54:40Z</time>
      </trkpt>
      <trkpt lat="44.47179" lon="5.13544">
        <ele>550.4</ele>
        <time>2021-11-19T12:54:41Z</time>
      </trkpt>
      <trkpt lat="44.47175" lon="5.13547">
        <ele>550.5</ele>
        <time>2021-11-19T12:54:42Z</time>
      </trkpt>
      <trkpt lat="44.47171" lon="5.13553">
        <ele>550.6</ele>
        <time>2021-11-19T12:54:43Z</time>
      </trkpt>
      <trkpt lat="44.47169" lon="5.13557">
        <ele>550.6</ele>
        <time>2021-11-19T12:54:44Z</time>
      </trkpt>
      <trkpt lat="44.47168" lon="5.13562">
        <ele>550.7</ele>
        <time>2021-11-19T12:54:45Z</time>
      </trkpt>
      <trkpt lat="44.47165" lon="5.13566">
        <ele>550.8</ele>
        <time>2021-11-19T12:54:46Z</time>
      </trkpt>
      <trkpt lat="44.47159" lon="5.13577">
        <ele>551</ele>
        <time>2021-11-19T12:54:47Z</time>
      </trkpt>
      <trkpt lat="44.47154" lon="5.13578">
        <ele>551</ele>
        <time>2021-11-19T12:54:48Z</time>
      </trkpt>
      <trkpt lat="44.47147" lon="5.13588">
        <ele>551.2</ele>
        <time>2021-11-19T12:54:50Z</time>
      </trkpt>
      <trkpt lat="44.47138" lon="5.13599">
        <ele>551.3</ele>
        <time>2021-11-19T12:54:52Z</time>
      </trkpt>
      <trkpt lat="44.47132" lon="5.13606">
        <ele>551.4</ele>
        <time>2021-11-19T12:54:53Z</time>
      </trkpt>
      <trkpt lat="44.4713" lon="5.13612">
        <ele>551.4</ele>
        <time>2021-11-19T12:54:54Z</time>
      </trkpt>
      <trkpt lat="44.47124" lon="5.13614">
        <ele>551.4</ele>
        <time>2021-11-19T12:54:57Z</time>
      </trkpt>
      <trkpt lat="44.47121" lon="5.13615">
        <ele>551.4</ele>
        <time>2021-11-19T12:54:58Z</time>
      </trkpt>
      <trkpt lat="44.47116" lon="5.13617">
        <ele>551.5</ele>
        <time>2021-11-19T12:54:59Z</time>
      </trkpt>
      <trkpt lat="44.4711" lon="5.13619">
        <ele>551.5</ele>
        <time>2021-11-19T12:55:00Z</time>
      </trkpt>
      <trkpt lat="44.47104" lon="5.1362">
        <ele>551.5</ele>
        <time>2021-11-19T12:55:01Z</time>
      </trkpt>
      <trkpt lat="44.47099" lon="5.13621">
        <ele>551.6</ele>
        <time>2021-11-19T12:55:02Z</time>
      </trkpt>
      <trkpt lat="44.47093" lon="5.13622">
        <ele>551.6</ele>
        <time>2021-11-19T12:55:03Z</time>
      </trkpt>
      <trkpt lat="44.47088" lon="5.13622">
        <ele>551.7</ele>
        <time>2021-11-19T12:55:04Z</time>
      </trkpt>
      <trkpt lat="44.47082" lon="5.13622">
        <ele>551.7</ele>
        <time>2021-11-19T12:55:05Z</time>
      </trkpt>
      <trkpt lat="44.47077" lon="5.13621">
        <ele>551.8</ele>
        <time>2021-11-19T12:55:06Z</time>
      </trkpt>
      <trkpt lat="44.47072" lon="5.13621">
        <ele>551.9</ele>
        <time>2021-11-19T12:55:07Z</time>
      </trkpt>
      <trkpt lat="44.47067" lon="5.1362">
        <ele>551.9</ele>
        <time>2021-11-19T12:55:08Z</time>
      </trkpt>
      <trkpt lat="44.47062" lon="5.13619">
        <ele>552</ele>
        <time>2021-11-19T12:55:09Z</time>
      </trkpt>
      <trkpt lat="44.47057" lon="5.13618">
        <ele>552</ele>
        <time>2021-11-19T12:55:10Z</time>
      </trkpt>
      <trkpt lat="44.47051" lon="5.13616">
        <ele>552.1</ele>
        <time>2021-11-19T12:55:11Z</time>
      </trkpt>
      <trkpt lat="44.47044" lon="5.1362">
        <ele>552.1</ele>
        <time>2021-11-19T12:55:12Z</time>
      </trkpt>
      <trkpt lat="44.47045" lon="5.13627">
        <ele>552.1</ele>
        <time>2021-11-19T12:55:13Z</time>
      </trkpt>
      <trkpt lat="44.4703" lon="5.13622">
        <ele>552.2</ele>
        <time>2021-11-19T12:55:15Z</time>
      </trkpt>
      <trkpt lat="44.47016" lon="5.13615">
        <ele>552.4</ele>
        <time>2021-11-19T12:55:17Z</time>
      </trkpt>
      <trkpt lat="44.4701" lon="5.13612">
        <ele>552.5</ele>
        <time>2021-11-19T12:55:18Z</time>
      </trkpt>
      <trkpt lat="44.47" lon="5.13611">
        <ele>552.7</ele>
        <time>2021-11-19T12:55:20Z</time>
      </trkpt>
      <trkpt lat="44.46994" lon="5.13612">
        <ele>552.8</ele>
        <time>2021-11-19T12:55:21Z</time>
      </trkpt>
      <trkpt lat="44.46993" lon="5.13615">
        <ele>552.9</ele>
        <time>2021-11-19T12:55:23Z</time>
      </trkpt>
      <trkpt lat="44.46991" lon="5.13617">
        <ele>552.9</ele>
        <time>2021-11-19T12:55:24Z</time>
      </trkpt>
      <trkpt lat="44.46982" lon="5.13625">
        <ele>553.2</ele>
        <time>2021-11-19T12:55:27Z</time>
      </trkpt>
      <trkpt lat="44.46978" lon="5.13629">
        <ele>553.3</ele>
        <time>2021-11-19T12:55:28Z</time>
      </trkpt>
      <trkpt lat="44.46974" lon="5.1364">
        <ele>553.5</ele>
        <time>2021-11-19T12:55:30Z</time>
      </trkpt>
      <trkpt lat="44.4697" lon="5.13651">
        <ele>553.8</ele>
        <time>2021-11-19T12:55:32Z</time>
      </trkpt>
      <trkpt lat="44.46966" lon="5.13663">
        <ele>554</ele>
        <time>2021-11-19T12:55:34Z</time>
      </trkpt>
      <trkpt lat="44.46962" lon="5.13676">
        <ele>554.3</ele>
        <time>2021-11-19T12:55:36Z</time>
      </trkpt>
      <trkpt lat="44.4696" lon="5.13682">
        <ele>554.4</ele>
        <time>2021-11-19T12:55:37Z</time>
      </trkpt>
      <trkpt lat="44.46956" lon="5.13693">
        <ele>554.6</ele>
        <time>2021-11-19T12:55:39Z</time>
      </trkpt>
      <trkpt lat="44.46951" lon="5.13705">
        <ele>554.9</ele>
        <time>2021-11-19T12:55:41Z</time>
      </trkpt>
      <trkpt lat="44.46947" lon="5.13715">
        <ele>555.1</ele>
        <time>2021-11-19T12:55:43Z</time>
      </trkpt>
      <trkpt lat="44.46941" lon="5.13726">
        <ele>555.3</ele>
        <time>2021-11-19T12:55:45Z</time>
      </trkpt>
      <trkpt lat="44.46937" lon="5.13734">
        <ele>555.5</ele>
        <time>2021-11-19T12:55:47Z</time>
      </trkpt>
      <trkpt lat="44.46935" lon="5.13738">
        <ele>555.6</ele>
        <time>2021-11-19T12:55:48Z</time>
      </trkpt>
      <trkpt lat="44.4693" lon="5.13747">
        <ele>555.9</ele>
        <time>2021-11-19T12:55:50Z</time>
      </trkpt>
      <trkpt lat="44.46928" lon="5.1375">
        <ele>555.9</ele>
        <time>2021-11-19T12:55:51Z</time>
      </trkpt>
      <trkpt lat="44.46924" lon="5.13758">
        <ele>556.2</ele>
        <time>2021-11-19T12:55:53Z</time>
      </trkpt>
      <trkpt lat="44.46921" lon="5.13767">
        <ele>556.4</ele>
        <time>2021-11-19T12:55:55Z</time>
      </trkpt>
      <trkpt lat="44.46917" lon="5.13779">
        <ele>556.8</ele>
        <time>2021-11-19T12:55:57Z</time>
      </trkpt>
      <trkpt lat="44.46916" lon="5.13784">
        <ele>557</ele>
        <time>2021-11-19T12:55:58Z</time>
      </trkpt>
      <trkpt lat="44.46913" lon="5.13792">
        <ele>557.2</ele>
        <time>2021-11-19T12:56:00Z</time>
      </trkpt>
      <trkpt lat="44.46909" lon="5.13801">
        <ele>557.6</ele>
        <time>2021-11-19T12:56:03Z</time>
      </trkpt>
      <trkpt lat="44.46906" lon="5.13806">
        <ele>557.8</ele>
        <time>2021-11-19T12:56:04Z</time>
      </trkpt>
      <trkpt lat="44.46905" lon="5.13809">
        <ele>557.9</ele>
        <time>2021-11-19T12:56:05Z</time>
      </trkpt>
      <trkpt lat="44.46904" lon="5.13812">
        <ele>558</ele>
        <time>2021-11-19T12:56:07Z</time>
      </trkpt>
      <trkpt lat="44.46901" lon="5.13819">
        <ele>558.3</ele>
        <time>2021-11-19T12:56:08Z</time>
      </trkpt>
      <trkpt lat="44.469" lon="5.13822">
        <ele>558.4</ele>
        <time>2021-11-19T12:56:09Z</time>
      </trkpt>
      <trkpt lat="44.46899" lon="5.13826">
        <ele>558.5</ele>
        <time>2021-11-19T12:56:11Z</time>
      </trkpt>
      <trkpt lat="44.46897" lon="5.13832">
        <ele>558.8</ele>
        <time>2021-11-19T12:56:12Z</time>
      </trkpt>
      <trkpt lat="44.46894" lon="5.13839">
        <ele>559</ele>
        <time>2021-11-19T12:56:15Z</time>
      </trkpt>
      <trkpt lat="44.46892" lon="5.13844">
        <ele>559.2</ele>
        <time>2021-11-19T12:56:16Z</time>
      </trkpt>
      <trkpt lat="44.46889" lon="5.13849">
        <ele>559.4</ele>
        <time>2021-11-19T12:56:17Z</time>
      </trkpt>
      <trkpt lat="44.46885" lon="5.13857">
        <ele>559.8</ele>
        <time>2021-11-19T12:56:19Z</time>
      </trkpt>
      <trkpt lat="44.46882" lon="5.13861">
        <ele>560</ele>
        <time>2021-11-19T12:56:20Z</time>
      </trkpt>
      <trkpt lat="44.46879" lon="5.13866">
        <ele>560.2</ele>
        <time>2021-11-19T12:56:21Z</time>
      </trkpt>
      <trkpt lat="44.46873" lon="5.13875">
        <ele>560.6</ele>
        <time>2021-11-19T12:56:24Z</time>
      </trkpt>
      <trkpt lat="44.4687" lon="5.13877">
        <ele>560.7</ele>
        <time>2021-11-19T12:56:25Z</time>
      </trkpt>
      <trkpt lat="44.4687" lon="5.13878">
        <ele>560.7</ele>
        <time>2021-11-19T12:56:26Z</time>
      </trkpt>
      <trkpt lat="44.46873" lon="5.13877">
        <ele>560.8</ele>
        <time>2021-11-19T12:56:28Z</time>
      </trkpt>
      <trkpt lat="44.46871" lon="5.1388">
        <ele>560.9</ele>
        <time>2021-11-19T12:56:29Z</time>
      </trkpt>
      <trkpt lat="44.46871" lon="5.13882">
        <ele>561</ele>
        <time>2021-11-19T12:56:31Z</time>
      </trkpt>
      <trkpt lat="44.46867" lon="5.1389">
        <ele>561.3</ele>
        <time>2021-11-19T12:56:34Z</time>
      </trkpt>
      <trkpt lat="44.46864" lon="5.13895">
        <ele>561.4</ele>
        <time>2021-11-19T12:56:35Z</time>
      </trkpt>
      <trkpt lat="44.46857" lon="5.13907">
        <ele>561.9</ele>
        <time>2021-11-19T12:56:36Z</time>
      </trkpt>
      <trkpt lat="44.46854" lon="5.13913">
        <ele>562</ele>
        <time>2021-11-19T12:56:38Z</time>
      </trkpt>
      <trkpt lat="44.46847" lon="5.13923">
        <ele>562.4</ele>
        <time>2021-11-19T12:56:39Z</time>
      </trkpt>
      <trkpt lat="44.46844" lon="5.13927">
        <ele>562.5</ele>
        <time>2021-11-19T12:56:41Z</time>
      </trkpt>
      <trkpt lat="44.4684" lon="5.13933">
        <ele>562.7</ele>
        <time>2021-11-19T12:56:42Z</time>
      </trkpt>
      <trkpt lat="44.46837" lon="5.13939">
        <ele>562.9</ele>
        <time>2021-11-19T12:56:43Z</time>
      </trkpt>
      <trkpt lat="44.46835" lon="5.13945">
        <ele>563</ele>
        <time>2021-11-19T12:56:45Z</time>
      </trkpt>
      <trkpt lat="44.46832" lon="5.13949">
        <ele>563</ele>
        <time>2021-11-19T12:56:46Z</time>
      </trkpt>
      <trkpt lat="44.46825" lon="5.13959">
        <ele>563.2</ele>
        <time>2021-11-19T12:56:48Z</time>
      </trkpt>
      <trkpt lat="44.4682" lon="5.13967">
        <ele>563.3</ele>
        <time>2021-11-19T12:56:50Z</time>
      </trkpt>
      <trkpt lat="44.46818" lon="5.13973">
        <ele>563.4</ele>
        <time>2021-11-19T12:56:51Z</time>
      </trkpt>
      <trkpt lat="44.4681" lon="5.13987">
        <ele>563.5</ele>
        <time>2021-11-19T12:56:53Z</time>
      </trkpt>
      <trkpt lat="44.46805" lon="5.13993">
        <ele>563.6</ele>
        <time>2021-11-19T12:56:54Z</time>
      </trkpt>
      <trkpt lat="44.46803" lon="5.13994">
        <ele>563.6</ele>
        <time>2021-11-19T12:56:56Z</time>
      </trkpt>
      <trkpt lat="44.46802" lon="5.13995">
        <ele>563.6</ele>
        <time>2021-11-19T12:56:57Z</time>
      </trkpt>
      <trkpt lat="44.46801" lon="5.13995">
        <ele>563.6</ele>
        <time>2021-11-19T12:56:58Z</time>
      </trkpt>
      <trkpt lat="44.46801" lon="5.13996">
        <ele>563.6</ele>
        <time>2021-11-19T12:56:59Z</time>
      </trkpt>
      <trkpt lat="44.46808" lon="5.13984">
        <ele>563.7</ele>
        <time>2021-11-19T12:57:02Z</time>
      </trkpt>
      <trkpt lat="44.46812" lon="5.13979">
        <ele>563.7</ele>
        <time>2021-11-19T12:57:03Z</time>
      </trkpt>
      <trkpt lat="44.46811" lon="5.13981">
        <ele>563.8</ele>
        <time>2021-11-19T12:57:06Z</time>
      </trkpt>
      <trkpt lat="44.4681" lon="5.13983">
        <ele>563.8</ele>
        <time>2021-11-19T12:57:07Z</time>
      </trkpt>
      <trkpt lat="44.46808" lon="5.13985">
        <ele>563.8</ele>
        <time>2021-11-19T12:57:08Z</time>
      </trkpt>
      <trkpt lat="44.46806" lon="5.13988">
        <ele>563.8</ele>
        <time>2021-11-19T12:57:09Z</time>
      </trkpt>
      <trkpt lat="44.46805" lon="5.1399">
        <ele>563.8</ele>
        <time>2021-11-19T12:57:40Z</time>
      </trkpt>
      <trkpt lat="44.46803" lon="5.13993">
        <ele>563.8</ele>
        <time>2021-11-19T12:57:41Z</time>
      </trkpt>
      <trkpt lat="44.468" lon="5.13999">
        <ele>563.9</ele>
        <time>2021-11-19T12:57:43Z</time>
      </trkpt>
      <trkpt lat="44.46798" lon="5.14003">
        <ele>563.9</ele>
        <time>2021-11-19T12:57:44Z</time>
      </trkpt>
      <trkpt lat="44.46795" lon="5.14007">
        <ele>563.8</ele>
        <time>2021-11-19T12:57:45Z</time>
      </trkpt>
      <trkpt lat="44.46787" lon="5.14017">
        <ele>563.6</ele>
        <time>2021-11-19T12:57:47Z</time>
      </trkpt>
      <trkpt lat="44.46784" lon="5.1402">
        <ele>563.6</ele>
        <time>2021-11-19T12:57:48Z</time>
      </trkpt>
      <trkpt lat="44.46775" lon="5.14026">
        <ele>563.4</ele>
        <time>2021-11-19T12:57:51Z</time>
      </trkpt>
      <trkpt lat="44.4677" lon="5.1403">
        <ele>563.3</ele>
        <time>2021-11-19T12:57:52Z</time>
      </trkpt>
      <trkpt lat="44.46766" lon="5.14033">
        <ele>563.2</ele>
        <time>2021-11-19T12:57:53Z</time>
      </trkpt>
      <trkpt lat="44.46762" lon="5.14036">
        <ele>563.1</ele>
        <time>2021-11-19T12:57:54Z</time>
      </trkpt>
      <trkpt lat="44.46757" lon="5.1404">
        <ele>563.1</ele>
        <time>2021-11-19T12:57:55Z</time>
      </trkpt>
      <trkpt lat="44.46752" lon="5.14044">
        <ele>563</ele>
        <time>2021-11-19T12:57:56Z</time>
      </trkpt>
      <trkpt lat="44.46748" lon="5.14048">
        <ele>563</ele>
        <time>2021-11-19T12:57:57Z</time>
      </trkpt>
      <trkpt lat="44.46743" lon="5.14051">
        <ele>562.9</ele>
        <time>2021-11-19T12:57:58Z</time>
      </trkpt>
      <trkpt lat="44.46739" lon="5.14054">
        <ele>562.9</ele>
        <time>2021-11-19T12:57:59Z</time>
      </trkpt>
      <trkpt lat="44.46735" lon="5.14057">
        <ele>562.9</ele>
        <time>2021-11-19T12:58:00Z</time>
      </trkpt>
      <trkpt lat="44.46731" lon="5.1406">
        <ele>562.9</ele>
        <time>2021-11-19T12:58:01Z</time>
      </trkpt>
      <trkpt lat="44.46726" lon="5.14063">
        <ele>562.9</ele>
        <time>2021-11-19T12:58:02Z</time>
      </trkpt>
      <trkpt lat="44.46721" lon="5.14066">
        <ele>562.9</ele>
        <time>2021-11-19T12:58:03Z</time>
      </trkpt>
      <trkpt lat="44.46716" lon="5.1407">
        <ele>562.9</ele>
        <time>2021-11-19T12:58:04Z</time>
      </trkpt>
      <trkpt lat="44.46712" lon="5.14074">
        <ele>563</ele>
        <time>2021-11-19T12:58:05Z</time>
      </trkpt>
      <trkpt lat="44.46707" lon="5.14078">
        <ele>563</ele>
        <time>2021-11-19T12:58:06Z</time>
      </trkpt>
      <trkpt lat="44.46703" lon="5.14081">
        <ele>563</ele>
        <time>2021-11-19T12:58:07Z</time>
      </trkpt>
      <trkpt lat="44.46698" lon="5.14084">
        <ele>563</ele>
        <time>2021-11-19T12:58:08Z</time>
      </trkpt>
      <trkpt lat="44.46694" lon="5.14087">
        <ele>563.1</ele>
        <time>2021-11-19T12:58:09Z</time>
      </trkpt>
      <trkpt lat="44.4669" lon="5.14091">
        <ele>563.1</ele>
        <time>2021-11-19T12:58:10Z</time>
      </trkpt>
      <trkpt lat="44.46686" lon="5.14094">
        <ele>563.2</ele>
        <time>2021-11-19T12:58:11Z</time>
      </trkpt>
      <trkpt lat="44.46682" lon="5.14098">
        <ele>563.2</ele>
        <time>2021-11-19T12:58:12Z</time>
      </trkpt>
      <trkpt lat="44.46678" lon="5.14101">
        <ele>563.2</ele>
        <time>2021-11-19T12:58:13Z</time>
      </trkpt>
      <trkpt lat="44.46674" lon="5.14104">
        <ele>563.3</ele>
        <time>2021-11-19T12:58:14Z</time>
      </trkpt>
      <trkpt lat="44.46671" lon="5.14106">
        <ele>563.3</ele>
        <time>2021-11-19T12:58:15Z</time>
      </trkpt>
      <trkpt lat="44.46667" lon="5.14108">
        <ele>563.3</ele>
        <time>2021-11-19T12:58:16Z</time>
      </trkpt>
      <trkpt lat="44.46662" lon="5.14111">
        <ele>563.4</ele>
        <time>2021-11-19T12:58:17Z</time>
      </trkpt>
      <trkpt lat="44.46658" lon="5.14114">
        <ele>563.4</ele>
        <time>2021-11-19T12:58:18Z</time>
      </trkpt>
      <trkpt lat="44.46653" lon="5.14117">
        <ele>563.5</ele>
        <time>2021-11-19T12:58:19Z</time>
      </trkpt>
      <trkpt lat="44.46649" lon="5.1412">
        <ele>563.5</ele>
        <time>2021-11-19T12:58:20Z</time>
      </trkpt>
      <trkpt lat="44.46645" lon="5.14123">
        <ele>563.6</ele>
        <time>2021-11-19T12:58:21Z</time>
      </trkpt>
      <trkpt lat="44.46641" lon="5.14127">
        <ele>563.6</ele>
        <time>2021-11-19T12:58:22Z</time>
      </trkpt>
      <trkpt lat="44.46637" lon="5.1413">
        <ele>563.7</ele>
        <time>2021-11-19T12:58:23Z</time>
      </trkpt>
      <trkpt lat="44.46632" lon="5.14134">
        <ele>563.7</ele>
        <time>2021-11-19T12:58:24Z</time>
      </trkpt>
      <trkpt lat="44.46628" lon="5.14138">
        <ele>563.7</ele>
        <time>2021-11-19T12:58:25Z</time>
      </trkpt>
      <trkpt lat="44.46624" lon="5.14141">
        <ele>563.8</ele>
        <time>2021-11-19T12:58:26Z</time>
      </trkpt>
      <trkpt lat="44.4662" lon="5.14144">
        <ele>563.8</ele>
        <time>2021-11-19T12:58:27Z</time>
      </trkpt>
      <trkpt lat="44.46616" lon="5.14148">
        <ele>563.9</ele>
        <time>2021-11-19T12:58:28Z</time>
      </trkpt>
      <trkpt lat="44.46612" lon="5.14151">
        <ele>563.9</ele>
        <time>2021-11-19T12:58:29Z</time>
      </trkpt>
      <trkpt lat="44.46606" lon="5.14155">
        <ele>564</ele>
        <time>2021-11-19T12:58:30Z</time>
      </trkpt>
      <trkpt lat="44.46602" lon="5.14158">
        <ele>564</ele>
        <time>2021-11-19T12:58:31Z</time>
      </trkpt>
      <trkpt lat="44.46597" lon="5.14162">
        <ele>564.1</ele>
        <time>2021-11-19T12:58:32Z</time>
      </trkpt>
      <trkpt lat="44.46592" lon="5.14167">
        <ele>564.1</ele>
        <time>2021-11-19T12:58:33Z</time>
      </trkpt>
      <trkpt lat="44.46585" lon="5.14172">
        <ele>564.2</ele>
        <time>2021-11-19T12:58:34Z</time>
      </trkpt>
      <trkpt lat="44.46576" lon="5.14174">
        <ele>564.4</ele>
        <time>2021-11-19T12:58:35Z</time>
      </trkpt>
      <trkpt lat="44.46561" lon="5.14185">
        <ele>564.6</ele>
        <time>2021-11-19T12:58:37Z</time>
      </trkpt>
      <trkpt lat="44.46549" lon="5.14194">
        <ele>564.8</ele>
        <time>2021-11-19T12:58:39Z</time>
      </trkpt>
      <trkpt lat="44.46545" lon="5.14198">
        <ele>564.9</ele>
        <time>2021-11-19T12:58:40Z</time>
      </trkpt>
      <trkpt lat="44.46546" lon="5.14199">
        <ele>564.9</ele>
        <time>2021-11-19T12:58:41Z</time>
      </trkpt>
      <trkpt lat="44.46543" lon="5.14212">
        <ele>565</ele>
        <time>2021-11-19T12:58:43Z</time>
      </trkpt>
      <trkpt lat="44.46532" lon="5.14218">
        <ele>565.1</ele>
        <time>2021-11-19T12:58:45Z</time>
      </trkpt>
      <trkpt lat="44.46524" lon="5.14221">
        <ele>565.2</ele>
        <time>2021-11-19T12:58:46Z</time>
      </trkpt>
      <trkpt lat="44.46513" lon="5.14227">
        <ele>565.3</ele>
        <time>2021-11-19T12:58:48Z</time>
      </trkpt>
      <trkpt lat="44.46505" lon="5.14232">
        <ele>565.4</ele>
        <time>2021-11-19T12:58:49Z</time>
      </trkpt>
      <trkpt lat="44.46501" lon="5.14236">
        <ele>565.5</ele>
        <time>2021-11-19T12:58:51Z</time>
      </trkpt>
      <trkpt lat="44.46503" lon="5.14241">
        <ele>565.6</ele>
        <time>2021-11-19T12:58:53Z</time>
      </trkpt>
      <trkpt lat="44.46499" lon="5.14232">
        <ele>565.7</ele>
        <time>2021-11-19T12:58:54Z</time>
      </trkpt>
      <trkpt lat="44.46495" lon="5.1426">
        <ele>566</ele>
        <time>2021-11-19T12:58:57Z</time>
      </trkpt>
      <trkpt lat="44.46493" lon="5.14272">
        <ele>566.1</ele>
        <time>2021-11-19T12:58:58Z</time>
      </trkpt>
      <trkpt lat="44.46488" lon="5.1429">
        <ele>566.3</ele>
        <time>2021-11-19T12:59:01Z</time>
      </trkpt>
      <trkpt lat="44.46493" lon="5.14302">
        <ele>566.4</ele>
        <time>2021-11-19T12:59:03Z</time>
      </trkpt>
      <trkpt lat="44.46488" lon="5.14312">
        <ele>566.5</ele>
        <time>2021-11-19T12:59:04Z</time>
      </trkpt>
      <trkpt lat="44.46482" lon="5.14317">
        <ele>566.6</ele>
        <time>2021-11-19T12:59:05Z</time>
      </trkpt>
      <trkpt lat="44.46477" lon="5.14312">
        <ele>566.7</ele>
        <time>2021-11-19T12:59:07Z</time>
      </trkpt>
      <trkpt lat="44.46482" lon="5.14323">
        <ele>566.9</ele>
        <time>2021-11-19T12:59:09Z</time>
      </trkpt>
      <trkpt lat="44.46478" lon="5.14335">
        <ele>567.1</ele>
        <time>2021-11-19T12:59:10Z</time>
      </trkpt>
      <trkpt lat="44.46473" lon="5.14346">
        <ele>567.3</ele>
        <time>2021-11-19T12:59:11Z</time>
      </trkpt>
      <trkpt lat="44.4647" lon="5.14357">
        <ele>567.4</ele>
        <time>2021-11-19T12:59:12Z</time>
      </trkpt>
      <trkpt lat="44.46464" lon="5.14374">
        <ele>567.7</ele>
        <time>2021-11-19T12:59:14Z</time>
      </trkpt>
      <trkpt lat="44.4646" lon="5.14376">
        <ele>567.8</ele>
        <time>2021-11-19T12:59:15Z</time>
      </trkpt>
      <trkpt lat="44.46458" lon="5.14382">
        <ele>567.9</ele>
        <time>2021-11-19T12:59:16Z</time>
      </trkpt>
      <trkpt lat="44.46453" lon="5.14394">
        <ele>568.1</ele>
        <time>2021-11-19T12:59:18Z</time>
      </trkpt>
      <trkpt lat="44.4645" lon="5.14399">
        <ele>568.2</ele>
        <time>2021-11-19T12:59:19Z</time>
      </trkpt>
      <trkpt lat="44.46448" lon="5.14405">
        <ele>568.2</ele>
        <time>2021-11-19T12:59:21Z</time>
      </trkpt>
      <trkpt lat="44.46444" lon="5.14416">
        <ele>568.4</ele>
        <time>2021-11-19T12:59:22Z</time>
      </trkpt>
      <trkpt lat="44.46441" lon="5.14427">
        <ele>568.6</ele>
        <time>2021-11-19T12:59:23Z</time>
      </trkpt>
      <trkpt lat="44.46438" lon="5.14437">
        <ele>568.8</ele>
        <time>2021-11-19T12:59:24Z</time>
      </trkpt>
      <trkpt lat="44.46435" lon="5.14445">
        <ele>568.9</ele>
        <time>2021-11-19T12:59:25Z</time>
      </trkpt>
      <trkpt lat="44.46431" lon="5.14457">
        <ele>569.1</ele>
        <time>2021-11-19T12:59:27Z</time>
      </trkpt>
      <trkpt lat="44.46428" lon="5.14464">
        <ele>569.3</ele>
        <time>2021-11-19T12:59:28Z</time>
      </trkpt>
      <trkpt lat="44.46424" lon="5.14471">
        <ele>569.4</ele>
        <time>2021-11-19T12:59:30Z</time>
      </trkpt>
      <trkpt lat="44.46422" lon="5.14476">
        <ele>569.5</ele>
        <time>2021-11-19T12:59:31Z</time>
      </trkpt>
      <trkpt lat="44.46419" lon="5.14473">
        <ele>569.6</ele>
        <time>2021-11-19T12:59:32Z</time>
      </trkpt>
      <trkpt lat="44.46415" lon="5.14474">
        <ele>569.7</ele>
        <time>2021-11-19T12:59:33Z</time>
      </trkpt>
      <trkpt lat="44.46413" lon="5.14483">
        <ele>569.9</ele>
        <time>2021-11-19T12:59:35Z</time>
      </trkpt>
      <trkpt lat="44.4641" lon="5.14498">
        <ele>570.2</ele>
        <time>2021-11-19T12:59:37Z</time>
      </trkpt>
      <trkpt lat="44.46409" lon="5.14505">
        <ele>570.4</ele>
        <time>2021-11-19T12:59:38Z</time>
      </trkpt>
      <trkpt lat="44.46405" lon="5.14515">
        <ele>570.6</ele>
        <time>2021-11-19T12:59:40Z</time>
      </trkpt>
      <trkpt lat="44.46403" lon="5.1452">
        <ele>570.7</ele>
        <time>2021-11-19T12:59:41Z</time>
      </trkpt>
      <trkpt lat="44.46401" lon="5.14525">
        <ele>570.9</ele>
        <time>2021-11-19T12:59:42Z</time>
      </trkpt>
      <trkpt lat="44.46394" lon="5.1454">
        <ele>571.3</ele>
        <time>2021-11-19T12:59:45Z</time>
      </trkpt>
      <trkpt lat="44.46391" lon="5.14545">
        <ele>571.5</ele>
        <time>2021-11-19T12:59:46Z</time>
      </trkpt>
      <trkpt lat="44.46388" lon="5.14551">
        <ele>571.7</ele>
        <time>2021-11-19T12:59:47Z</time>
      </trkpt>
      <trkpt lat="44.46385" lon="5.14556">
        <ele>571.8</ele>
        <time>2021-11-19T12:59:49Z</time>
      </trkpt>
      <trkpt lat="44.46383" lon="5.14561">
        <ele>571.9</ele>
        <time>2021-11-19T12:59:50Z</time>
      </trkpt>
      <trkpt lat="44.46377" lon="5.14572">
        <ele>572.2</ele>
        <time>2021-11-19T12:59:52Z</time>
      </trkpt>
      <trkpt lat="44.46376" lon="5.14576">
        <ele>572.3</ele>
        <time>2021-11-19T12:59:53Z</time>
      </trkpt>
      <trkpt lat="44.46374" lon="5.14581">
        <ele>572.5</ele>
        <time>2021-11-19T12:59:54Z</time>
      </trkpt>
      <trkpt lat="44.46369" lon="5.14589">
        <ele>572.7</ele>
        <time>2021-11-19T12:59:55Z</time>
      </trkpt>
      <trkpt lat="44.46366" lon="5.14594">
        <ele>572.9</ele>
        <time>2021-11-19T12:59:57Z</time>
      </trkpt>
      <trkpt lat="44.46361" lon="5.14603">
        <ele>573.2</ele>
        <time>2021-11-19T12:59:59Z</time>
      </trkpt>
      <trkpt lat="44.46358" lon="5.14612">
        <ele>573.5</ele>
        <time>2021-11-19T13:00:01Z</time>
      </trkpt>
      <trkpt lat="44.46353" lon="5.1462">
        <ele>573.8</ele>
        <time>2021-11-19T13:00:03Z</time>
      </trkpt>
      <trkpt lat="44.46349" lon="5.14625">
        <ele>574</ele>
        <time>2021-11-19T13:00:05Z</time>
      </trkpt>
      <trkpt lat="44.46344" lon="5.14632">
        <ele>574.3</ele>
        <time>2021-11-19T13:00:07Z</time>
      </trkpt>
      <trkpt lat="44.46341" lon="5.14636">
        <ele>574.5</ele>
        <time>2021-11-19T13:00:08Z</time>
      </trkpt>
      <trkpt lat="44.46339" lon="5.1464">
        <ele>574.7</ele>
        <time>2021-11-19T13:00:09Z</time>
      </trkpt>
      <trkpt lat="44.46336" lon="5.14648">
        <ele>574.9</ele>
        <time>2021-11-19T13:00:11Z</time>
      </trkpt>
      <trkpt lat="44.46331" lon="5.14654">
        <ele>575.2</ele>
        <time>2021-11-19T13:00:13Z</time>
      </trkpt>
      <trkpt lat="44.46327" lon="5.14659">
        <ele>575.4</ele>
        <time>2021-11-19T13:00:15Z</time>
      </trkpt>
      <trkpt lat="44.46324" lon="5.14663">
        <ele>575.6</ele>
        <time>2021-11-19T13:00:16Z</time>
      </trkpt>
      <trkpt lat="44.46322" lon="5.14667">
        <ele>575.8</ele>
        <time>2021-11-19T13:00:17Z</time>
      </trkpt>
      <trkpt lat="44.46319" lon="5.14675">
        <ele>576.1</ele>
        <time>2021-11-19T13:00:19Z</time>
      </trkpt>
      <trkpt lat="44.46318" lon="5.14679">
        <ele>576.2</ele>
        <time>2021-11-19T13:00:20Z</time>
      </trkpt>
      <trkpt lat="44.46317" lon="5.14683">
        <ele>576.4</ele>
        <time>2021-11-19T13:00:21Z</time>
      </trkpt>
      <trkpt lat="44.46314" lon="5.1469">
        <ele>576.7</ele>
        <time>2021-11-19T13:00:23Z</time>
      </trkpt>
      <trkpt lat="44.46312" lon="5.14694">
        <ele>576.8</ele>
        <time>2021-11-19T13:00:24Z</time>
      </trkpt>
      <trkpt lat="44.46308" lon="5.147">
        <ele>577.1</ele>
        <time>2021-11-19T13:00:25Z</time>
      </trkpt>
      <trkpt lat="44.46305" lon="5.14707">
        <ele>577.4</ele>
        <time>2021-11-19T13:00:28Z</time>
      </trkpt>
      <trkpt lat="44.46304" lon="5.14711">
        <ele>577.5</ele>
        <time>2021-11-19T13:00:29Z</time>
      </trkpt>
      <trkpt lat="44.46302" lon="5.14716">
        <ele>577.7</ele>
        <time>2021-11-19T13:00:30Z</time>
      </trkpt>
      <trkpt lat="44.463" lon="5.1472">
        <ele>577.9</ele>
        <time>2021-11-19T13:00:31Z</time>
      </trkpt>
      <trkpt lat="44.46295" lon="5.14728">
        <ele>578.2</ele>
        <time>2021-11-19T13:00:32Z</time>
      </trkpt>
      <trkpt lat="44.46292" lon="5.14731">
        <ele>578.5</ele>
        <time>2021-11-19T13:00:34Z</time>
      </trkpt>
      <trkpt lat="44.46288" lon="5.14734">
        <ele>578.6</ele>
        <time>2021-11-19T13:00:35Z</time>
      </trkpt>
      <trkpt lat="44.46287" lon="5.14735">
        <ele>578.7</ele>
        <time>2021-11-19T13:00:36Z</time>
      </trkpt>
      <trkpt lat="44.4628" lon="5.14738">
        <ele>579</ele>
        <time>2021-11-19T13:00:37Z</time>
      </trkpt>
      <trkpt lat="44.46276" lon="5.1474">
        <ele>579.1</ele>
        <time>2021-11-19T13:00:38Z</time>
      </trkpt>
      <trkpt lat="44.46269" lon="5.14738">
        <ele>579.3</ele>
        <time>2021-11-19T13:00:40Z</time>
      </trkpt>
      <trkpt lat="44.46265" lon="5.14737">
        <ele>579.4</ele>
        <time>2021-11-19T13:00:41Z</time>
      </trkpt>
      <trkpt lat="44.4626" lon="5.14733">
        <ele>579.5</ele>
        <time>2021-11-19T13:00:43Z</time>
      </trkpt>
      <trkpt lat="44.46252" lon="5.14727">
        <ele>579.8</ele>
        <time>2021-11-19T13:00:45Z</time>
      </trkpt>
      <trkpt lat="44.46243" lon="5.14721">
        <ele>580.1</ele>
        <time>2021-11-19T13:00:47Z</time>
      </trkpt>
      <trkpt lat="44.46239" lon="5.14718">
        <ele>580.3</ele>
        <time>2021-11-19T13:00:48Z</time>
      </trkpt>
      <trkpt lat="44.4623" lon="5.1471">
        <ele>580.6</ele>
        <time>2021-11-19T13:00:50Z</time>
      </trkpt>
      <trkpt lat="44.46218" lon="5.14703">
        <ele>581.1</ele>
        <time>2021-11-19T13:00:53Z</time>
      </trkpt>
      <trkpt lat="44.46214" lon="5.14702">
        <ele>581.3</ele>
        <time>2021-11-19T13:00:54Z</time>
      </trkpt>
      <trkpt lat="44.4621" lon="5.147">
        <ele>581.4</ele>
        <time>2021-11-19T13:00:55Z</time>
      </trkpt>
      <trkpt lat="44.462" lon="5.14699">
        <ele>581.8</ele>
        <time>2021-11-19T13:00:58Z</time>
      </trkpt>
      <trkpt lat="44.46195" lon="5.147">
        <ele>582</ele>
        <time>2021-11-19T13:00:59Z</time>
      </trkpt>
      <trkpt lat="44.46191" lon="5.14701">
        <ele>582.1</ele>
        <time>2021-11-19T13:01:00Z</time>
      </trkpt>
      <trkpt lat="44.46183" lon="5.14709">
        <ele>582.4</ele>
        <time>2021-11-19T13:01:03Z</time>
      </trkpt>
      <trkpt lat="44.46178" lon="5.14718">
        <ele>582.5</ele>
        <time>2021-11-19T13:01:05Z</time>
      </trkpt>
      <trkpt lat="44.46178" lon="5.14724">
        <ele>582.5</ele>
        <time>2021-11-19T13:01:06Z</time>
      </trkpt>
      <trkpt lat="44.46176" lon="5.14734">
        <ele>582.5</ele>
        <time>2021-11-19T13:01:08Z</time>
      </trkpt>
      <trkpt lat="44.46175" lon="5.14739">
        <ele>582.5</ele>
        <time>2021-11-19T13:01:09Z</time>
      </trkpt>
      <trkpt lat="44.46171" lon="5.14749">
        <ele>582.6</ele>
        <time>2021-11-19T13:01:11Z</time>
      </trkpt>
      <trkpt lat="44.46169" lon="5.14757">
        <ele>582.6</ele>
        <time>2021-11-19T13:01:13Z</time>
      </trkpt>
      <trkpt lat="44.46166" lon="5.14763">
        <ele>582.6</ele>
        <time>2021-11-19T13:01:14Z</time>
      </trkpt>
      <trkpt lat="44.46163" lon="5.14768">
        <ele>582.6</ele>
        <time>2021-11-19T13:01:15Z</time>
      </trkpt>
      <trkpt lat="44.46157" lon="5.14778">
        <ele>582.6</ele>
        <time>2021-11-19T13:01:17Z</time>
      </trkpt>
      <trkpt lat="44.46155" lon="5.1478">
        <ele>582.6</ele>
        <time>2021-11-19T13:01:18Z</time>
      </trkpt>
      <trkpt lat="44.46146" lon="5.14787">
        <ele>582.6</ele>
        <time>2021-11-19T13:01:21Z</time>
      </trkpt>
      <trkpt lat="44.46143" lon="5.1479">
        <ele>582.6</ele>
        <time>2021-11-19T13:01:22Z</time>
      </trkpt>
      <trkpt lat="44.46135" lon="5.14799">
        <ele>582.5</ele>
        <time>2021-11-19T13:01:24Z</time>
      </trkpt>
      <trkpt lat="44.46131" lon="5.14805">
        <ele>582.5</ele>
        <time>2021-11-19T13:01:26Z</time>
      </trkpt>
      <trkpt lat="44.46128" lon="5.14809">
        <ele>582.6</ele>
        <time>2021-11-19T13:01:27Z</time>
      </trkpt>
      <trkpt lat="44.46124" lon="5.14813">
        <ele>582.6</ele>
        <time>2021-11-19T13:01:28Z</time>
      </trkpt>
      <trkpt lat="44.46118" lon="5.14817">
        <ele>582.6</ele>
        <time>2021-11-19T13:01:29Z</time>
      </trkpt>
      <trkpt lat="44.4612" lon="5.14814">
        <ele>582.6</ele>
        <time>2021-11-19T13:01:30Z</time>
      </trkpt>
      <trkpt lat="44.46116" lon="5.14818">
        <ele>582.6</ele>
        <time>2021-11-19T13:01:32Z</time>
      </trkpt>
      <trkpt lat="44.46111" lon="5.14821">
        <ele>582.7</ele>
        <time>2021-11-19T13:01:33Z</time>
      </trkpt>
      <trkpt lat="44.46103" lon="5.14825">
        <ele>582.8</ele>
        <time>2021-11-19T13:01:34Z</time>
      </trkpt>
      <trkpt lat="44.46099" lon="5.14825">
        <ele>582.8</ele>
        <time>2021-11-19T13:01:35Z</time>
      </trkpt>
      <trkpt lat="44.46095" lon="5.14826">
        <ele>582.9</ele>
        <time>2021-11-19T13:01:37Z</time>
      </trkpt>
      <trkpt lat="44.46086" lon="5.14827">
        <ele>583</ele>
        <time>2021-11-19T13:01:38Z</time>
      </trkpt>
      <trkpt lat="44.46082" lon="5.14827">
        <ele>583.1</ele>
        <time>2021-11-19T13:01:40Z</time>
      </trkpt>
      <trkpt lat="44.46077" lon="5.14828">
        <ele>583.1</ele>
        <time>2021-11-19T13:01:41Z</time>
      </trkpt>
      <trkpt lat="44.46068" lon="5.1483">
        <ele>583.4</ele>
        <time>2021-11-19T13:01:43Z</time>
      </trkpt>
      <trkpt lat="44.46059" lon="5.14835">
        <ele>583.6</ele>
        <time>2021-11-19T13:01:45Z</time>
      </trkpt>
      <trkpt lat="44.4607" lon="5.14835">
        <ele>583.9</ele>
        <time>2021-11-19T13:01:47Z</time>
      </trkpt>
      <trkpt lat="44.46068" lon="5.14839">
        <ele>584.1</ele>
        <time>2021-11-19T13:01:48Z</time>
      </trkpt>
      <trkpt lat="44.46064" lon="5.14849">
        <ele>584.4</ele>
        <time>2021-11-19T13:01:49Z</time>
      </trkpt>
      <trkpt lat="44.4606" lon="5.14856">
        <ele>584.7</ele>
        <time>2021-11-19T13:01:50Z</time>
      </trkpt>
      <trkpt lat="44.46055" lon="5.14869">
        <ele>585.1</ele>
        <time>2021-11-19T13:01:52Z</time>
      </trkpt>
      <trkpt lat="44.46052" lon="5.14884">
        <ele>585.5</ele>
        <time>2021-11-19T13:01:54Z</time>
      </trkpt>
      <trkpt lat="44.46051" lon="5.14894">
        <ele>585.8</ele>
        <time>2021-11-19T13:01:55Z</time>
      </trkpt>
      <trkpt lat="44.46048" lon="5.14906">
        <ele>586.2</ele>
        <time>2021-11-19T13:01:57Z</time>
      </trkpt>
      <trkpt lat="44.46045" lon="5.14917">
        <ele>586.6</ele>
        <time>2021-11-19T13:01:59Z</time>
      </trkpt>
      <trkpt lat="44.46042" lon="5.14922">
        <ele>586.7</ele>
        <time>2021-11-19T13:02:00Z</time>
      </trkpt>
      <trkpt lat="44.46036" lon="5.14934">
        <ele>587.1</ele>
        <time>2021-11-19T13:02:02Z</time>
      </trkpt>
      <trkpt lat="44.4603" lon="5.14945">
        <ele>587.5</ele>
        <time>2021-11-19T13:02:04Z</time>
      </trkpt>
      <trkpt lat="44.46023" lon="5.14954">
        <ele>587.8</ele>
        <time>2021-11-19T13:02:06Z</time>
      </trkpt>
      <trkpt lat="44.46017" lon="5.14961">
        <ele>588.1</ele>
        <time>2021-11-19T13:02:07Z</time>
      </trkpt>
      <trkpt lat="44.46015" lon="5.14964">
        <ele>588.2</ele>
        <time>2021-11-19T13:02:08Z</time>
      </trkpt>
      <trkpt lat="44.46012" lon="5.14969">
        <ele>588.4</ele>
        <time>2021-11-19T13:02:10Z</time>
      </trkpt>
      <trkpt lat="44.46008" lon="5.14975">
        <ele>588.6</ele>
        <time>2021-11-19T13:02:11Z</time>
      </trkpt>
      <trkpt lat="44.46004" lon="5.14979">
        <ele>588.7</ele>
        <time>2021-11-19T13:02:12Z</time>
      </trkpt>
      <trkpt lat="44.45998" lon="5.14987">
        <ele>588.9</ele>
        <time>2021-11-19T13:02:14Z</time>
      </trkpt>
      <trkpt lat="44.45994" lon="5.14991">
        <ele>589</ele>
        <time>2021-11-19T13:02:15Z</time>
      </trkpt>
      <trkpt lat="44.45988" lon="5.14998">
        <ele>589.2</ele>
        <time>2021-11-19T13:02:16Z</time>
      </trkpt>
      <trkpt lat="44.45984" lon="5.15003">
        <ele>589.2</ele>
        <time>2021-11-19T13:02:18Z</time>
      </trkpt>
      <trkpt lat="44.4598" lon="5.15007">
        <ele>589.3</ele>
        <time>2021-11-19T13:02:19Z</time>
      </trkpt>
      <trkpt lat="44.45974" lon="5.15015">
        <ele>589.4</ele>
        <time>2021-11-19T13:02:20Z</time>
      </trkpt>
      <trkpt lat="44.4597" lon="5.15018">
        <ele>589.5</ele>
        <time>2021-11-19T13:02:22Z</time>
      </trkpt>
      <trkpt lat="44.45963" lon="5.15024">
        <ele>589.5</ele>
        <time>2021-11-19T13:02:23Z</time>
      </trkpt>
      <trkpt lat="44.45958" lon="5.15028">
        <ele>589.6</ele>
        <time>2021-11-19T13:02:25Z</time>
      </trkpt>
      <trkpt lat="44.45954" lon="5.15031">
        <ele>589.6</ele>
        <time>2021-11-19T13:02:26Z</time>
      </trkpt>
      <trkpt lat="44.45948" lon="5.15034">
        <ele>589.6</ele>
        <time>2021-11-19T13:02:28Z</time>
      </trkpt>
      <trkpt lat="44.45939" lon="5.1504">
        <ele>589.7</ele>
        <time>2021-11-19T13:02:30Z</time>
      </trkpt>
      <trkpt lat="44.45935" lon="5.15042">
        <ele>589.7</ele>
        <time>2021-11-19T13:02:31Z</time>
      </trkpt>
      <trkpt lat="44.45932" lon="5.15045">
        <ele>589.7</ele>
        <time>2021-11-19T13:02:32Z</time>
      </trkpt>
      <trkpt lat="44.45928" lon="5.15047">
        <ele>589.7</ele>
        <time>2021-11-19T13:02:33Z</time>
      </trkpt>
      <trkpt lat="44.45921" lon="5.15053">
        <ele>589.8</ele>
        <time>2021-11-19T13:02:35Z</time>
      </trkpt>
      <trkpt lat="44.45922" lon="5.15051">
        <ele>589.8</ele>
        <time>2021-11-19T13:02:36Z</time>
      </trkpt>
      <trkpt lat="44.45921" lon="5.15053">
        <ele>589.8</ele>
        <time>2021-11-19T13:02:39Z</time>
      </trkpt>
      <trkpt lat="44.45914" lon="5.15059">
        <ele>589.9</ele>
        <time>2021-11-19T13:02:40Z</time>
      </trkpt>
      <trkpt lat="44.45906" lon="5.15065">
        <ele>589.9</ele>
        <time>2021-11-19T13:02:43Z</time>
      </trkpt>
      <trkpt lat="44.45903" lon="5.15068">
        <ele>590</ele>
        <time>2021-11-19T13:02:44Z</time>
      </trkpt>
      <trkpt lat="44.45899" lon="5.15072">
        <ele>590</ele>
        <time>2021-11-19T13:02:45Z</time>
      </trkpt>
      <trkpt lat="44.45889" lon="5.1508">
        <ele>590.1</ele>
        <time>2021-11-19T13:02:46Z</time>
      </trkpt>
      <trkpt lat="44.45884" lon="5.15091">
        <ele>590.2</ele>
        <time>2021-11-19T13:02:48Z</time>
      </trkpt>
      <trkpt lat="44.45874" lon="5.15091">
        <ele>590.3</ele>
        <time>2021-11-19T13:02:51Z</time>
      </trkpt>
      <trkpt lat="44.4587" lon="5.15092">
        <ele>590.3</ele>
        <time>2021-11-19T13:02:52Z</time>
      </trkpt>
      <trkpt lat="44.45866" lon="5.15094">
        <ele>590.4</ele>
        <time>2021-11-19T13:02:53Z</time>
      </trkpt>
      <trkpt lat="44.45855" lon="5.15099">
        <ele>590.6</ele>
        <time>2021-11-19T13:02:54Z</time>
      </trkpt>
      <trkpt lat="44.45849" lon="5.15113">
        <ele>590.8</ele>
        <time>2021-11-19T13:02:56Z</time>
      </trkpt>
      <trkpt lat="44.45839" lon="5.15114">
        <ele>591</ele>
        <time>2021-11-19T13:02:57Z</time>
      </trkpt>
      <trkpt lat="44.4583" lon="5.15114">
        <ele>591.3</ele>
        <time>2021-11-19T13:02:58Z</time>
      </trkpt>
      <trkpt lat="44.45816" lon="5.15114">
        <ele>591.8</ele>
        <time>2021-11-19T13:03:00Z</time>
      </trkpt>
      <trkpt lat="44.45803" lon="5.15114">
        <ele>592.3</ele>
        <time>2021-11-19T13:03:02Z</time>
      </trkpt>
      <trkpt lat="44.45793" lon="5.15119">
        <ele>592.7</ele>
        <time>2021-11-19T13:03:04Z</time>
      </trkpt>
      <trkpt lat="44.4579" lon="5.15122">
        <ele>592.9</ele>
        <time>2021-11-19T13:03:05Z</time>
      </trkpt>
      <trkpt lat="44.45784" lon="5.1513">
        <ele>593.2</ele>
        <time>2021-11-19T13:03:08Z</time>
      </trkpt>
      <trkpt lat="44.45784" lon="5.15132">
        <ele>593.2</ele>
        <time>2021-11-19T13:03:09Z</time>
      </trkpt>
      <trkpt lat="44.4578" lon="5.15139">
        <ele>593.4</ele>
        <time>2021-11-19T13:03:11Z</time>
      </trkpt>
      <trkpt lat="44.45778" lon="5.15142">
        <ele>593.6</ele>
        <time>2021-11-19T13:03:12Z</time>
      </trkpt>
      <trkpt lat="44.45774" lon="5.15148">
        <ele>593.8</ele>
        <time>2021-11-19T13:03:14Z</time>
      </trkpt>
      <trkpt lat="44.45769" lon="5.15155">
        <ele>594</ele>
        <time>2021-11-19T13:03:16Z</time>
      </trkpt>
      <trkpt lat="44.45767" lon="5.15162">
        <ele>594.2</ele>
        <time>2021-11-19T13:03:18Z</time>
      </trkpt>
      <trkpt lat="44.45765" lon="5.15168">
        <ele>594.4</ele>
        <time>2021-11-19T13:03:20Z</time>
      </trkpt>
      <trkpt lat="44.45763" lon="5.15171">
        <ele>594.5</ele>
        <time>2021-11-19T13:03:21Z</time>
      </trkpt>
      <trkpt lat="44.45758" lon="5.1518">
        <ele>594.8</ele>
        <time>2021-11-19T13:03:23Z</time>
      </trkpt>
      <trkpt lat="44.45754" lon="5.15189">
        <ele>595</ele>
        <time>2021-11-19T13:03:25Z</time>
      </trkpt>
      <trkpt lat="44.45751" lon="5.15194">
        <ele>595.2</ele>
        <time>2021-11-19T13:03:26Z</time>
      </trkpt>
      <trkpt lat="44.45749" lon="5.15201">
        <ele>595.4</ele>
        <time>2021-11-19T13:03:28Z</time>
      </trkpt>
      <trkpt lat="44.45746" lon="5.15207">
        <ele>595.5</ele>
        <time>2021-11-19T13:03:29Z</time>
      </trkpt>
      <trkpt lat="44.4574" lon="5.15218">
        <ele>595.9</ele>
        <time>2021-11-19T13:03:31Z</time>
      </trkpt>
      <trkpt lat="44.45735" lon="5.15226">
        <ele>596.1</ele>
        <time>2021-11-19T13:03:33Z</time>
      </trkpt>
      <trkpt lat="44.45733" lon="5.15231">
        <ele>596.3</ele>
        <time>2021-11-19T13:03:34Z</time>
      </trkpt>
      <trkpt lat="44.4573" lon="5.15235">
        <ele>596.4</ele>
        <time>2021-11-19T13:03:35Z</time>
      </trkpt>
      <trkpt lat="44.45728" lon="5.15239">
        <ele>596.6</ele>
        <time>2021-11-19T13:03:36Z</time>
      </trkpt>
      <trkpt lat="44.45726" lon="5.15243">
        <ele>596.7</ele>
        <time>2021-11-19T13:03:37Z</time>
      </trkpt>
      <trkpt lat="44.45721" lon="5.15251">
        <ele>597</ele>
        <time>2021-11-19T13:03:39Z</time>
      </trkpt>
      <trkpt lat="44.45719" lon="5.15255">
        <ele>597.1</ele>
        <time>2021-11-19T13:03:40Z</time>
      </trkpt>
      <trkpt lat="44.45717" lon="5.15258">
        <ele>597.2</ele>
        <time>2021-11-19T13:03:41Z</time>
      </trkpt>
      <trkpt lat="44.45715" lon="5.15261">
        <ele>597.3</ele>
        <time>2021-11-19T13:03:42Z</time>
      </trkpt>
      <trkpt lat="44.45709" lon="5.1527">
        <ele>597.6</ele>
        <time>2021-11-19T13:03:43Z</time>
      </trkpt>
      <trkpt lat="44.45707" lon="5.15273">
        <ele>597.7</ele>
        <time>2021-11-19T13:03:45Z</time>
      </trkpt>
      <trkpt lat="44.45704" lon="5.15277">
        <ele>597.9</ele>
        <time>2021-11-19T13:03:46Z</time>
      </trkpt>
      <trkpt lat="44.45701" lon="5.1528">
        <ele>598.1</ele>
        <time>2021-11-19T13:03:47Z</time>
      </trkpt>
      <trkpt lat="44.45694" lon="5.15286">
        <ele>598.4</ele>
        <time>2021-11-19T13:03:49Z</time>
      </trkpt>
      <trkpt lat="44.45688" lon="5.1529">
        <ele>598.7</ele>
        <time>2021-11-19T13:03:50Z</time>
      </trkpt>
      <trkpt lat="44.45683" lon="5.15293">
        <ele>598.9</ele>
        <time>2021-11-19T13:03:52Z</time>
      </trkpt>
      <trkpt lat="44.45681" lon="5.15294">
        <ele>599</ele>
        <time>2021-11-19T13:03:53Z</time>
      </trkpt>
      <trkpt lat="44.45675" lon="5.15298">
        <ele>599.3</ele>
        <time>2021-11-19T13:03:55Z</time>
      </trkpt>
      <trkpt lat="44.45668" lon="5.15302">
        <ele>599.7</ele>
        <time>2021-11-19T13:03:56Z</time>
      </trkpt>
      <trkpt lat="44.45664" lon="5.15305">
        <ele>599.9</ele>
        <time>2021-11-19T13:03:58Z</time>
      </trkpt>
      <trkpt lat="44.4566" lon="5.15307">
        <ele>600.1</ele>
        <time>2021-11-19T13:03:59Z</time>
      </trkpt>
      <trkpt lat="44.45652" lon="5.1531">
        <ele>600.4</ele>
        <time>2021-11-19T13:04:01Z</time>
      </trkpt>
      <trkpt lat="44.45648" lon="5.15308">
        <ele>600.6</ele>
        <time>2021-11-19T13:04:02Z</time>
      </trkpt>
      <trkpt lat="44.45646" lon="5.15307">
        <ele>600.6</ele>
        <time>2021-11-19T13:04:03Z</time>
      </trkpt>
      <trkpt lat="44.45643" lon="5.15306">
        <ele>600.8</ele>
        <time>2021-11-19T13:04:04Z</time>
      </trkpt>
      <trkpt lat="44.45639" lon="5.15304">
        <ele>600.9</ele>
        <time>2021-11-19T13:04:05Z</time>
      </trkpt>
      <trkpt lat="44.45631" lon="5.15302">
        <ele>601.2</ele>
        <time>2021-11-19T13:04:07Z</time>
      </trkpt>
      <trkpt lat="44.45628" lon="5.153">
        <ele>601.3</ele>
        <time>2021-11-19T13:04:08Z</time>
      </trkpt>
      <trkpt lat="44.45625" lon="5.15299">
        <ele>601.4</ele>
        <time>2021-11-19T13:04:09Z</time>
      </trkpt>
      <trkpt lat="44.45622" lon="5.15299">
        <ele>601.5</ele>
        <time>2021-11-19T13:04:10Z</time>
      </trkpt>
      <trkpt lat="44.45614" lon="5.15298">
        <ele>601.8</ele>
        <time>2021-11-19T13:04:12Z</time>
      </trkpt>
      <trkpt lat="44.45606" lon="5.15297">
        <ele>602</ele>
        <time>2021-11-19T13:04:14Z</time>
      </trkpt>
      <trkpt lat="44.45603" lon="5.15295">
        <ele>602.1</ele>
        <time>2021-11-19T13:04:15Z</time>
      </trkpt>
      <trkpt lat="44.45598" lon="5.15294">
        <ele>602.3</ele>
        <time>2021-11-19T13:04:17Z</time>
      </trkpt>
      <trkpt lat="44.45592" lon="5.15295">
        <ele>602.4</ele>
        <time>2021-11-19T13:04:19Z</time>
      </trkpt>
      <trkpt lat="44.4559" lon="5.15295">
        <ele>602.5</ele>
        <time>2021-11-19T13:04:21Z</time>
      </trkpt>
      <trkpt lat="44.45583" lon="5.15297">
        <ele>602.7</ele>
        <time>2021-11-19T13:04:24Z</time>
      </trkpt>
      <trkpt lat="44.45578" lon="5.15297">
        <ele>602.8</ele>
        <time>2021-11-19T13:04:25Z</time>
      </trkpt>
      <trkpt lat="44.45573" lon="5.15299">
        <ele>602.9</ele>
        <time>2021-11-19T13:04:27Z</time>
      </trkpt>
      <trkpt lat="44.45567" lon="5.15298">
        <ele>603.1</ele>
        <time>2021-11-19T13:04:29Z</time>
      </trkpt>
      <trkpt lat="44.4556" lon="5.15298">
        <ele>603.3</ele>
        <time>2021-11-19T13:04:31Z</time>
      </trkpt>
      <trkpt lat="44.45556" lon="5.15301">
        <ele>603.4</ele>
        <time>2021-11-19T13:04:32Z</time>
      </trkpt>
      <trkpt lat="44.45552" lon="5.15302">
        <ele>603.5</ele>
        <time>2021-11-19T13:04:34Z</time>
      </trkpt>
      <trkpt lat="44.4555" lon="5.15302">
        <ele>603.5</ele>
        <time>2021-11-19T13:04:35Z</time>
      </trkpt>
      <trkpt lat="44.45544" lon="5.15303">
        <ele>603.7</ele>
        <time>2021-11-19T13:04:36Z</time>
      </trkpt>
      <trkpt lat="44.4554" lon="5.15303">
        <ele>603.8</ele>
        <time>2021-11-19T13:04:38Z</time>
      </trkpt>
      <trkpt lat="44.45537" lon="5.15304">
        <ele>603.9</ele>
        <time>2021-11-19T13:04:39Z</time>
      </trkpt>
      <trkpt lat="44.45531" lon="5.15308">
        <ele>604.1</ele>
        <time>2021-11-19T13:04:40Z</time>
      </trkpt>
      <trkpt lat="44.45527" lon="5.15309">
        <ele>604.2</ele>
        <time>2021-11-19T13:04:42Z</time>
      </trkpt>
      <trkpt lat="44.45523" lon="5.1531">
        <ele>604.3</ele>
        <time>2021-11-19T13:04:43Z</time>
      </trkpt>
      <trkpt lat="44.45517" lon="5.15309">
        <ele>604.4</ele>
        <time>2021-11-19T13:04:45Z</time>
      </trkpt>
      <trkpt lat="44.45513" lon="5.15308">
        <ele>604.4</ele>
        <time>2021-11-19T13:04:46Z</time>
      </trkpt>
      <trkpt lat="44.45506" lon="5.15306">
        <ele>604.6</ele>
        <time>2021-11-19T13:04:48Z</time>
      </trkpt>
      <trkpt lat="44.45493" lon="5.15303">
        <ele>604.7</ele>
        <time>2021-11-19T13:04:51Z</time>
      </trkpt>
      <trkpt lat="44.45486" lon="5.15299">
        <ele>604.9</ele>
        <time>2021-11-19T13:04:53Z</time>
      </trkpt>
      <trkpt lat="44.45478" lon="5.15298">
        <ele>605</ele>
        <time>2021-11-19T13:04:55Z</time>
      </trkpt>
      <trkpt lat="44.45474" lon="5.15299">
        <ele>605</ele>
        <time>2021-11-19T13:04:56Z</time>
      </trkpt>
      <trkpt lat="44.45466" lon="5.15299">
        <ele>605.2</ele>
        <time>2021-11-19T13:04:57Z</time>
      </trkpt>
      <trkpt lat="44.45461" lon="5.15299">
        <ele>605.3</ele>
        <time>2021-11-19T13:04:59Z</time>
      </trkpt>
      <trkpt lat="44.45453" lon="5.15299">
        <ele>605.4</ele>
        <time>2021-11-19T13:05:01Z</time>
      </trkpt>
      <trkpt lat="44.45444" lon="5.15299">
        <ele>605.6</ele>
        <time>2021-11-19T13:05:03Z</time>
      </trkpt>
      <trkpt lat="44.45435" lon="5.15298">
        <ele>605.8</ele>
        <time>2021-11-19T13:05:05Z</time>
      </trkpt>
      <trkpt lat="44.45433" lon="5.15298">
        <ele>605.9</ele>
        <time>2021-11-19T13:05:06Z</time>
      </trkpt>
      <trkpt lat="44.45429" lon="5.15297">
        <ele>606</ele>
        <time>2021-11-19T13:05:07Z</time>
      </trkpt>
      <trkpt lat="44.45419" lon="5.15297">
        <ele>606.2</ele>
        <time>2021-11-19T13:05:09Z</time>
      </trkpt>
      <trkpt lat="44.45411" lon="5.15296">
        <ele>606.4</ele>
        <time>2021-11-19T13:05:11Z</time>
      </trkpt>
      <trkpt lat="44.45401" lon="5.15296">
        <ele>606.7</ele>
        <time>2021-11-19T13:05:13Z</time>
      </trkpt>
      <trkpt lat="44.45394" lon="5.15294">
        <ele>606.8</ele>
        <time>2021-11-19T13:05:15Z</time>
      </trkpt>
      <trkpt lat="44.45383" lon="5.15292">
        <ele>607.1</ele>
        <time>2021-11-19T13:05:17Z</time>
      </trkpt>
      <trkpt lat="44.45379" lon="5.15291">
        <ele>607.2</ele>
        <time>2021-11-19T13:05:18Z</time>
      </trkpt>
      <trkpt lat="44.45373" lon="5.15289">
        <ele>607.3</ele>
        <time>2021-11-19T13:05:20Z</time>
      </trkpt>
      <trkpt lat="44.45364" lon="5.15287">
        <ele>607.5</ele>
        <time>2021-11-19T13:05:21Z</time>
      </trkpt>
      <trkpt lat="44.45367" lon="5.15282">
        <ele>607.7</ele>
        <time>2021-11-19T13:05:23Z</time>
      </trkpt>
      <trkpt lat="44.45361" lon="5.15269">
        <ele>607.9</ele>
        <time>2021-11-19T13:05:24Z</time>
      </trkpt>
      <trkpt lat="44.45355" lon="5.15267">
        <ele>608.1</ele>
        <time>2021-11-19T13:05:26Z</time>
      </trkpt>
      <trkpt lat="44.45344" lon="5.15266">
        <ele>608.3</ele>
        <time>2021-11-19T13:05:27Z</time>
      </trkpt>
      <trkpt lat="44.45338" lon="5.15266">
        <ele>608.5</ele>
        <time>2021-11-19T13:05:29Z</time>
      </trkpt>
      <trkpt lat="44.45332" lon="5.15266">
        <ele>608.6</ele>
        <time>2021-11-19T13:05:30Z</time>
      </trkpt>
      <trkpt lat="44.45327" lon="5.15266">
        <ele>608.7</ele>
        <time>2021-11-19T13:05:31Z</time>
      </trkpt>
      <trkpt lat="44.45328" lon="5.15268">
        <ele>608.8</ele>
        <time>2021-11-19T13:05:32Z</time>
      </trkpt>
      <trkpt lat="44.45319" lon="5.15271">
        <ele>608.9</ele>
        <time>2021-11-19T13:05:34Z</time>
      </trkpt>
      <trkpt lat="44.45307" lon="5.15269">
        <ele>609.2</ele>
        <time>2021-11-19T13:05:35Z</time>
      </trkpt>
      <trkpt lat="44.453" lon="5.15267">
        <ele>609.3</ele>
        <time>2021-11-19T13:05:37Z</time>
      </trkpt>
      <trkpt lat="44.45296" lon="5.15265">
        <ele>609.4</ele>
        <time>2021-11-19T13:05:38Z</time>
      </trkpt>
      <trkpt lat="44.45283" lon="5.15262">
        <ele>609.7</ele>
        <time>2021-11-19T13:05:40Z</time>
      </trkpt>
      <trkpt lat="44.45286" lon="5.1526">
        <ele>609.8</ele>
        <time>2021-11-19T13:05:41Z</time>
      </trkpt>
      <trkpt lat="44.45284" lon="5.1527">
        <ele>610</ele>
        <time>2021-11-19T13:05:42Z</time>
      </trkpt>
      <trkpt lat="44.45278" lon="5.15262">
        <ele>610.2</ele>
        <time>2021-11-19T13:05:44Z</time>
      </trkpt>
      <trkpt lat="44.45274" lon="5.15256">
        <ele>610.3</ele>
        <time>2021-11-19T13:05:45Z</time>
      </trkpt>
      <trkpt lat="44.45259" lon="5.15253">
        <ele>610.8</ele>
        <time>2021-11-19T13:05:47Z</time>
      </trkpt>
      <trkpt lat="44.45253" lon="5.15254">
        <ele>610.9</ele>
        <time>2021-11-19T13:05:49Z</time>
      </trkpt>
      <trkpt lat="44.4524" lon="5.15257">
        <ele>611.2</ele>
        <time>2021-11-19T13:05:50Z</time>
      </trkpt>
      <trkpt lat="44.4523" lon="5.15265">
        <ele>611.2</ele>
        <time>2021-11-19T13:05:53Z</time>
      </trkpt>
      <trkpt lat="44.45228" lon="5.15273">
        <ele>611.3</ele>
        <time>2021-11-19T13:05:54Z</time>
      </trkpt>
      <trkpt lat="44.45224" lon="5.15289">
        <ele>611.4</ele>
        <time>2021-11-19T13:05:55Z</time>
      </trkpt>
      <trkpt lat="44.45225" lon="5.15298">
        <ele>611.4</ele>
        <time>2021-11-19T13:05:56Z</time>
      </trkpt>
      <trkpt lat="44.45228" lon="5.15307">
        <ele>611.5</ele>
        <time>2021-11-19T13:05:58Z</time>
      </trkpt>
      <trkpt lat="44.45235" lon="5.15322">
        <ele>611.7</ele>
        <time>2021-11-19T13:06:00Z</time>
      </trkpt>
      <trkpt lat="44.4524" lon="5.15338">
        <ele>612</ele>
        <time>2021-11-19T13:06:02Z</time>
      </trkpt>
      <trkpt lat="44.45242" lon="5.15346">
        <ele>612.1</ele>
        <time>2021-11-19T13:06:03Z</time>
      </trkpt>
      <trkpt lat="44.45245" lon="5.1536">
        <ele>612.4</ele>
        <time>2021-11-19T13:06:05Z</time>
      </trkpt>
      <trkpt lat="44.45247" lon="5.15376">
        <ele>612.6</ele>
        <time>2021-11-19T13:06:06Z</time>
      </trkpt>
      <trkpt lat="44.45248" lon="5.15382">
        <ele>612.8</ele>
        <time>2021-11-19T13:06:08Z</time>
      </trkpt>
      <trkpt lat="44.45249" lon="5.1539">
        <ele>613</ele>
        <time>2021-11-19T13:06:09Z</time>
      </trkpt>
      <trkpt lat="44.45252" lon="5.15399">
        <ele>613.2</ele>
        <time>2021-11-19T13:06:10Z</time>
      </trkpt>
      <trkpt lat="44.45254" lon="5.15404">
        <ele>613.3</ele>
        <time>2021-11-19T13:06:11Z</time>
      </trkpt>
      <trkpt lat="44.45258" lon="5.15409">
        <ele>613.5</ele>
        <time>2021-11-19T13:06:13Z</time>
      </trkpt>
      <trkpt lat="44.45261" lon="5.15414">
        <ele>613.6</ele>
        <time>2021-11-19T13:06:14Z</time>
      </trkpt>
      <trkpt lat="44.45267" lon="5.1542">
        <ele>613.9</ele>
        <time>2021-11-19T13:06:15Z</time>
      </trkpt>
      <trkpt lat="44.4527" lon="5.1542">
        <ele>614</ele>
        <time>2021-11-19T13:06:17Z</time>
      </trkpt>
      <trkpt lat="44.45274" lon="5.1542">
        <ele>614.1</ele>
        <time>2021-11-19T13:06:18Z</time>
      </trkpt>
      <trkpt lat="44.45282" lon="5.15422">
        <ele>614.3</ele>
        <time>2021-11-19T13:06:20Z</time>
      </trkpt>
      <trkpt lat="44.45291" lon="5.15424">
        <ele>614.6</ele>
        <time>2021-11-19T13:06:22Z</time>
      </trkpt>
      <trkpt lat="44.45298" lon="5.15425">
        <ele>614.7</ele>
        <time>2021-11-19T13:06:24Z</time>
      </trkpt>
      <trkpt lat="44.45301" lon="5.15426">
        <ele>614.7</ele>
        <time>2021-11-19T13:06:25Z</time>
      </trkpt>
      <trkpt lat="44.45304" lon="5.15427">
        <ele>614.7</ele>
        <time>2021-11-19T13:06:26Z</time>
      </trkpt>
      <trkpt lat="44.45311" lon="5.15431">
        <ele>614.8</ele>
        <time>2021-11-19T13:06:28Z</time>
      </trkpt>
      <trkpt lat="44.45316" lon="5.15434">
        <ele>615.1</ele>
        <time>2021-11-19T13:06:30Z</time>
      </trkpt>
      <trkpt lat="44.45319" lon="5.15437">
        <ele>615.2</ele>
        <time>2021-11-19T13:06:31Z</time>
      </trkpt>
      <trkpt lat="44.45325" lon="5.15445">
        <ele>615.7</ele>
        <time>2021-11-19T13:06:33Z</time>
      </trkpt>
      <trkpt lat="44.45327" lon="5.1545">
        <ele>615.8</ele>
        <time>2021-11-19T13:06:34Z</time>
      </trkpt>
      <trkpt lat="44.45329" lon="5.15452">
        <ele>615.9</ele>
        <time>2021-11-19T13:06:35Z</time>
      </trkpt>
      <trkpt lat="44.4533" lon="5.15456">
        <ele>616.1</ele>
        <time>2021-11-19T13:06:37Z</time>
      </trkpt>
      <trkpt lat="44.45331" lon="5.15459">
        <ele>616.2</ele>
        <time>2021-11-19T13:06:38Z</time>
      </trkpt>
      <trkpt lat="44.45335" lon="5.15467">
        <ele>616.5</ele>
        <time>2021-11-19T13:06:40Z</time>
      </trkpt>
      <trkpt lat="44.45337" lon="5.15473">
        <ele>616.8</ele>
        <time>2021-11-19T13:06:41Z</time>
      </trkpt>
      <trkpt lat="44.45339" lon="5.15476">
        <ele>616.9</ele>
        <time>2021-11-19T13:06:42Z</time>
      </trkpt>
      <trkpt lat="44.45341" lon="5.1548">
        <ele>617.1</ele>
        <time>2021-11-19T13:06:44Z</time>
      </trkpt>
      <trkpt lat="44.45343" lon="5.15484">
        <ele>617.2</ele>
        <time>2021-11-19T13:06:45Z</time>
      </trkpt>
      <trkpt lat="44.45345" lon="5.15486">
        <ele>617.4</ele>
        <time>2021-11-19T13:06:46Z</time>
      </trkpt>
      <trkpt lat="44.45349" lon="5.15489">
        <ele>617.6</ele>
        <time>2021-11-19T13:06:48Z</time>
      </trkpt>
      <trkpt lat="44.45352" lon="5.15489">
        <ele>617.7</ele>
        <time>2021-11-19T13:06:49Z</time>
      </trkpt>
      <trkpt lat="44.45359" lon="5.15491">
        <ele>618</ele>
        <time>2021-11-19T13:06:50Z</time>
      </trkpt>
      <trkpt lat="44.45365" lon="5.15491">
        <ele>618.3</ele>
        <time>2021-11-19T13:06:52Z</time>
      </trkpt>
      <trkpt lat="44.45368" lon="5.15491">
        <ele>618.4</ele>
        <time>2021-11-19T13:06:53Z</time>
      </trkpt>
      <trkpt lat="44.45371" lon="5.1549">
        <ele>618.6</ele>
        <time>2021-11-19T13:06:55Z</time>
      </trkpt>
      <trkpt lat="44.45374" lon="5.1549">
        <ele>618.7</ele>
        <time>2021-11-19T13:06:56Z</time>
      </trkpt>
      <trkpt lat="44.45377" lon="5.1549">
        <ele>618.8</ele>
        <time>2021-11-19T13:06:57Z</time>
      </trkpt>
      <trkpt lat="44.45381" lon="5.1549">
        <ele>619</ele>
        <time>2021-11-19T13:06:58Z</time>
      </trkpt>
      <trkpt lat="44.45384" lon="5.15489">
        <ele>619.1</ele>
        <time>2021-11-19T13:06:59Z</time>
      </trkpt>
      <trkpt lat="44.45385" lon="5.15489">
        <ele>619.2</ele>
        <time>2021-11-19T13:07:00Z</time>
      </trkpt>
      <trkpt lat="44.45389" lon="5.15488">
        <ele>619.3</ele>
        <time>2021-11-19T13:07:01Z</time>
      </trkpt>
      <trkpt lat="44.4539" lon="5.15488">
        <ele>619.4</ele>
        <time>2021-11-19T13:07:02Z</time>
      </trkpt>
      <trkpt lat="44.45394" lon="5.15488">
        <ele>619.6</ele>
        <time>2021-11-19T13:07:03Z</time>
      </trkpt>
      <trkpt lat="44.45397" lon="5.15488">
        <ele>619.7</ele>
        <time>2021-11-19T13:07:04Z</time>
      </trkpt>
      <trkpt lat="44.45401" lon="5.15489">
        <ele>619.9</ele>
        <time>2021-11-19T13:07:06Z</time>
      </trkpt>
      <trkpt lat="44.45409" lon="5.1549">
        <ele>620.2</ele>
        <time>2021-11-19T13:07:08Z</time>
      </trkpt>
      <trkpt lat="44.45414" lon="5.15491">
        <ele>620.5</ele>
        <time>2021-11-19T13:07:10Z</time>
      </trkpt>
      <trkpt lat="44.45418" lon="5.15493">
        <ele>620.7</ele>
        <time>2021-11-19T13:07:12Z</time>
      </trkpt>
      <trkpt lat="44.45419" lon="5.15493">
        <ele>620.7</ele>
        <time>2021-11-19T13:07:13Z</time>
      </trkpt>
      <trkpt lat="44.45426" lon="5.15496">
        <ele>621.1</ele>
        <time>2021-11-19T13:07:15Z</time>
      </trkpt>
      <trkpt lat="44.45428" lon="5.15497">
        <ele>621.2</ele>
        <time>2021-11-19T13:07:16Z</time>
      </trkpt>
      <trkpt lat="44.45433" lon="5.15499">
        <ele>621.5</ele>
        <time>2021-11-19T13:07:18Z</time>
      </trkpt>
      <trkpt lat="44.45437" lon="5.15503">
        <ele>621.8</ele>
        <time>2021-11-19T13:07:19Z</time>
      </trkpt>
      <trkpt lat="44.45439" lon="5.15507">
        <ele>621.9</ele>
        <time>2021-11-19T13:07:20Z</time>
      </trkpt>
      <trkpt lat="44.4544" lon="5.15511">
        <ele>622.1</ele>
        <time>2021-11-19T13:07:22Z</time>
      </trkpt>
      <trkpt lat="44.45441" lon="5.15516">
        <ele>622.3</ele>
        <time>2021-11-19T13:07:23Z</time>
      </trkpt>
      <trkpt lat="44.45443" lon="5.15524">
        <ele>622.7</ele>
        <time>2021-11-19T13:07:25Z</time>
      </trkpt>
      <trkpt lat="44.45443" lon="5.15532">
        <ele>623</ele>
        <time>2021-11-19T13:07:27Z</time>
      </trkpt>
      <trkpt lat="44.45444" lon="5.15541">
        <ele>623.5</ele>
        <time>2021-11-19T13:07:28Z</time>
      </trkpt>
      <trkpt lat="44.45443" lon="5.15548">
        <ele>623.7</ele>
        <time>2021-11-19T13:07:29Z</time>
      </trkpt>
      <trkpt lat="44.45442" lon="5.15553">
        <ele>624</ele>
        <time>2021-11-19T13:07:31Z</time>
      </trkpt>
      <trkpt lat="44.45441" lon="5.15558">
        <ele>624.2</ele>
        <time>2021-11-19T13:07:32Z</time>
      </trkpt>
      <trkpt lat="44.4544" lon="5.15563">
        <ele>624.4</ele>
        <time>2021-11-19T13:07:33Z</time>
      </trkpt>
      <trkpt lat="44.45439" lon="5.15565">
        <ele>624.5</ele>
        <time>2021-11-19T13:07:34Z</time>
      </trkpt>
      <trkpt lat="44.45439" lon="5.1557">
        <ele>624.6</ele>
        <time>2021-11-19T13:07:35Z</time>
      </trkpt>
      <trkpt lat="44.45441" lon="5.15579">
        <ele>624.9</ele>
        <time>2021-11-19T13:07:36Z</time>
      </trkpt>
      <trkpt lat="44.45443" lon="5.15583">
        <ele>625</ele>
        <time>2021-11-19T13:07:38Z</time>
      </trkpt>
      <trkpt lat="44.45447" lon="5.1559">
        <ele>625.3</ele>
        <time>2021-11-19T13:07:40Z</time>
      </trkpt>
      <trkpt lat="44.4545" lon="5.15595">
        <ele>625.5</ele>
        <time>2021-11-19T13:07:41Z</time>
      </trkpt>
      <trkpt lat="44.45456" lon="5.15602">
        <ele>625.7</ele>
        <time>2021-11-19T13:07:43Z</time>
      </trkpt>
      <trkpt lat="44.45464" lon="5.15604">
        <ele>626</ele>
        <time>2021-11-19T13:07:45Z</time>
      </trkpt>
      <trkpt lat="44.4547" lon="5.15603">
        <ele>626.2</ele>
        <time>2021-11-19T13:07:47Z</time>
      </trkpt>
      <trkpt lat="44.45475" lon="5.15602">
        <ele>626.4</ele>
        <time>2021-11-19T13:07:48Z</time>
      </trkpt>
      <trkpt lat="44.45484" lon="5.15602">
        <ele>626.7</ele>
        <time>2021-11-19T13:07:50Z</time>
      </trkpt>
      <trkpt lat="44.45491" lon="5.15601">
        <ele>627</ele>
        <time>2021-11-19T13:07:52Z</time>
      </trkpt>
      <trkpt lat="44.45497" lon="5.15598">
        <ele>627.3</ele>
        <time>2021-11-19T13:07:53Z</time>
      </trkpt>
      <trkpt lat="44.45501" lon="5.15596">
        <ele>627.5</ele>
        <time>2021-11-19T13:07:55Z</time>
      </trkpt>
      <trkpt lat="44.45509" lon="5.15593">
        <ele>627.9</ele>
        <time>2021-11-19T13:07:56Z</time>
      </trkpt>
      <trkpt lat="44.45513" lon="5.15593">
        <ele>628.1</ele>
        <time>2021-11-19T13:07:58Z</time>
      </trkpt>
      <trkpt lat="44.45519" lon="5.15594">
        <ele>628.4</ele>
        <time>2021-11-19T13:07:59Z</time>
      </trkpt>
      <trkpt lat="44.45522" lon="5.15595">
        <ele>628.6</ele>
        <time>2021-11-19T13:08:00Z</time>
      </trkpt>
      <trkpt lat="44.45525" lon="5.15596">
        <ele>628.7</ele>
        <time>2021-11-19T13:08:01Z</time>
      </trkpt>
      <trkpt lat="44.45528" lon="5.15597">
        <ele>628.9</ele>
        <time>2021-11-19T13:08:02Z</time>
      </trkpt>
      <trkpt lat="44.45531" lon="5.15599">
        <ele>629</ele>
        <time>2021-11-19T13:08:04Z</time>
      </trkpt>
      <trkpt lat="44.45534" lon="5.156">
        <ele>629.2</ele>
        <time>2021-11-19T13:08:05Z</time>
      </trkpt>
      <trkpt lat="44.45536" lon="5.15602">
        <ele>629.3</ele>
        <time>2021-11-19T13:08:06Z</time>
      </trkpt>
      <trkpt lat="44.45538" lon="5.15603">
        <ele>629.4</ele>
        <time>2021-11-19T13:08:07Z</time>
      </trkpt>
      <trkpt lat="44.45539" lon="5.15603">
        <ele>629.5</ele>
        <time>2021-11-19T13:08:08Z</time>
      </trkpt>
      <trkpt lat="44.45541" lon="5.15605">
        <ele>629.6</ele>
        <time>2021-11-19T13:08:09Z</time>
      </trkpt>
      <trkpt lat="44.45543" lon="5.15609">
        <ele>629.8</ele>
        <time>2021-11-19T13:08:10Z</time>
      </trkpt>
      <trkpt lat="44.45545" lon="5.15611">
        <ele>629.9</ele>
        <time>2021-11-19T13:08:12Z</time>
      </trkpt>
      <trkpt lat="44.45548" lon="5.15616">
        <ele>630.1</ele>
        <time>2021-11-19T13:08:14Z</time>
      </trkpt>
      <trkpt lat="44.4555" lon="5.15617">
        <ele>630.2</ele>
        <time>2021-11-19T13:08:15Z</time>
      </trkpt>
      <trkpt lat="44.45554" lon="5.15622">
        <ele>630.5</ele>
        <time>2021-11-19T13:08:17Z</time>
      </trkpt>
      <trkpt lat="44.45556" lon="5.15624">
        <ele>630.6</ele>
        <time>2021-11-19T13:08:18Z</time>
      </trkpt>
      <trkpt lat="44.45562" lon="5.15627">
        <ele>630.9</ele>
        <time>2021-11-19T13:08:20Z</time>
      </trkpt>
      <trkpt lat="44.45566" lon="5.1563">
        <ele>631.2</ele>
        <time>2021-11-19T13:08:22Z</time>
      </trkpt>
      <trkpt lat="44.45569" lon="5.15631">
        <ele>631.3</ele>
        <time>2021-11-19T13:08:24Z</time>
      </trkpt>
      <trkpt lat="44.45572" lon="5.15633">
        <ele>631.5</ele>
        <time>2021-11-19T13:08:25Z</time>
      </trkpt>
      <trkpt lat="44.45579" lon="5.15636">
        <ele>631.8</ele>
        <time>2021-11-19T13:08:26Z</time>
      </trkpt>
      <trkpt lat="44.45583" lon="5.15637">
        <ele>632</ele>
        <time>2021-11-19T13:08:28Z</time>
      </trkpt>
      <trkpt lat="44.45585" lon="5.15637">
        <ele>632.1</ele>
        <time>2021-11-19T13:08:29Z</time>
      </trkpt>
      <trkpt lat="44.45593" lon="5.15637">
        <ele>632.4</ele>
        <time>2021-11-19T13:08:30Z</time>
      </trkpt>
      <trkpt lat="44.45596" lon="5.15636">
        <ele>632.6</ele>
        <time>2021-11-19T13:08:32Z</time>
      </trkpt>
      <trkpt lat="44.45602" lon="5.15635">
        <ele>632.8</ele>
        <time>2021-11-19T13:08:34Z</time>
      </trkpt>
      <trkpt lat="44.45607" lon="5.15634">
        <ele>633.1</ele>
        <time>2021-11-19T13:08:36Z</time>
      </trkpt>
      <trkpt lat="44.4561" lon="5.15632">
        <ele>633.2</ele>
        <time>2021-11-19T13:08:37Z</time>
      </trkpt>
      <trkpt lat="44.45608" lon="5.15632">
        <ele>633.3</ele>
        <time>2021-11-19T13:08:40Z</time>
      </trkpt>
      <trkpt lat="44.45607" lon="5.15633">
        <ele>633.3</ele>
        <time>2021-11-19T13:08:41Z</time>
      </trkpt>
      <trkpt lat="44.45606" lon="5.15633">
        <ele>633.4</ele>
        <time>2021-11-19T13:08:42Z</time>
      </trkpt>
      <trkpt lat="44.45605" lon="5.15633">
        <ele>633.4</ele>
        <time>2021-11-19T13:08:43Z</time>
      </trkpt>
      <trkpt lat="44.45598" lon="5.15632">
        <ele>633.7</ele>
        <time>2021-11-19T13:08:46Z</time>
      </trkpt>
      <trkpt lat="44.45597" lon="5.15632">
        <ele>633.7</ele>
        <time>2021-11-19T13:08:48Z</time>
      </trkpt>
      <trkpt lat="44.45597" lon="5.15632">
        <ele>633.8</ele>
        <time>2021-11-19T13:08:49Z</time>
      </trkpt>
      <trkpt lat="44.45597" lon="5.15632">
        <ele>633.8</ele>
        <time>2021-11-19T13:08:52Z</time>
      </trkpt>
      <trkpt lat="44.45597" lon="5.15632">
        <ele>633.8</ele>
        <time>2021-11-19T13:08:53Z</time>
      </trkpt>
      <trkpt lat="44.45601" lon="5.15636">
        <ele>634</ele>
        <time>2021-11-19T13:09:44Z</time>
      </trkpt>
      <trkpt lat="44.45606" lon="5.15649">
        <ele>634.5</ele>
        <time>2021-11-19T13:09:47Z</time>
      </trkpt>
      <trkpt lat="44.45607" lon="5.15654">
        <ele>634.6</ele>
        <time>2021-11-19T13:09:48Z</time>
      </trkpt>
      <trkpt lat="44.45608" lon="5.15658">
        <ele>634.8</ele>
        <time>2021-11-19T13:09:49Z</time>
      </trkpt>
      <trkpt lat="44.45611" lon="5.15665">
        <ele>635.1</ele>
        <time>2021-11-19T13:09:51Z</time>
      </trkpt>
      <trkpt lat="44.45614" lon="5.15675">
        <ele>635.5</ele>
        <time>2021-11-19T13:09:53Z</time>
      </trkpt>
      <trkpt lat="44.45616" lon="5.15682">
        <ele>635.8</ele>
        <time>2021-11-19T13:09:55Z</time>
      </trkpt>
      <trkpt lat="44.45618" lon="5.1569">
        <ele>636.1</ele>
        <time>2021-11-19T13:09:57Z</time>
      </trkpt>
      <trkpt lat="44.45619" lon="5.15697">
        <ele>636.4</ele>
        <time>2021-11-19T13:09:58Z</time>
      </trkpt>
      <trkpt lat="44.45618" lon="5.15703">
        <ele>636.6</ele>
        <time>2021-11-19T13:10:00Z</time>
      </trkpt>
      <trkpt lat="44.45618" lon="5.15708">
        <ele>636.8</ele>
        <time>2021-11-19T13:10:02Z</time>
      </trkpt>
      <trkpt lat="44.45618" lon="5.15718">
        <ele>637.1</ele>
        <time>2021-11-19T13:10:04Z</time>
      </trkpt>
      <trkpt lat="44.45618" lon="5.15725">
        <ele>637.4</ele>
        <time>2021-11-19T13:10:05Z</time>
      </trkpt>
      <trkpt lat="44.45618" lon="5.15728">
        <ele>637.5</ele>
        <time>2021-11-19T13:10:06Z</time>
      </trkpt>
      <trkpt lat="44.45619" lon="5.15736">
        <ele>637.8</ele>
        <time>2021-11-19T13:10:08Z</time>
      </trkpt>
      <trkpt lat="44.45619" lon="5.15742">
        <ele>638</ele>
        <time>2021-11-19T13:10:10Z</time>
      </trkpt>
      <trkpt lat="44.45619" lon="5.15749">
        <ele>638.2</ele>
        <time>2021-11-19T13:10:12Z</time>
      </trkpt>
      <trkpt lat="44.45618" lon="5.15756">
        <ele>638.5</ele>
        <time>2021-11-19T13:10:13Z</time>
      </trkpt>
      <trkpt lat="44.45616" lon="5.15762">
        <ele>638.7</ele>
        <time>2021-11-19T13:10:15Z</time>
      </trkpt>
      <trkpt lat="44.45615" lon="5.15764">
        <ele>638.7</ele>
        <time>2021-11-19T13:10:16Z</time>
      </trkpt>
      <trkpt lat="44.45614" lon="5.15768">
        <ele>638.8</ele>
        <time>2021-11-19T13:10:18Z</time>
      </trkpt>
      <trkpt lat="44.45611" lon="5.15775">
        <ele>639.1</ele>
        <time>2021-11-19T13:10:21Z</time>
      </trkpt>
      <trkpt lat="44.45611" lon="5.15779">
        <ele>639.2</ele>
        <time>2021-11-19T13:10:22Z</time>
      </trkpt>
      <trkpt lat="44.4561" lon="5.15785">
        <ele>639.4</ele>
        <time>2021-11-19T13:10:24Z</time>
      </trkpt>
      <trkpt lat="44.4561" lon="5.15802">
        <ele>639.8</ele>
        <time>2021-11-19T13:10:27Z</time>
      </trkpt>
      <trkpt lat="44.4561" lon="5.15816">
        <ele>640.1</ele>
        <time>2021-11-19T13:10:29Z</time>
      </trkpt>
      <trkpt lat="44.45613" lon="5.1583">
        <ele>640.5</ele>
        <time>2021-11-19T13:10:31Z</time>
      </trkpt>
      <trkpt lat="44.45616" lon="5.15836">
        <ele>640.7</ele>
        <time>2021-11-19T13:10:32Z</time>
      </trkpt>
      <trkpt lat="44.45624" lon="5.15844">
        <ele>641</ele>
        <time>2021-11-19T13:10:34Z</time>
      </trkpt>
      <trkpt lat="44.45631" lon="5.15849">
        <ele>641.3</ele>
        <time>2021-11-19T13:10:36Z</time>
      </trkpt>
      <trkpt lat="44.45635" lon="5.1585">
        <ele>641.5</ele>
        <time>2021-11-19T13:10:37Z</time>
      </trkpt>
      <trkpt lat="44.4564" lon="5.15852">
        <ele>641.6</ele>
        <time>2021-11-19T13:10:38Z</time>
      </trkpt>
      <trkpt lat="44.45645" lon="5.15856">
        <ele>641.9</ele>
        <time>2021-11-19T13:10:40Z</time>
      </trkpt>
      <trkpt lat="44.45652" lon="5.15862">
        <ele>642.2</ele>
        <time>2021-11-19T13:10:42Z</time>
      </trkpt>
      <trkpt lat="44.45655" lon="5.15866">
        <ele>642.4</ele>
        <time>2021-11-19T13:10:44Z</time>
      </trkpt>
      <trkpt lat="44.45659" lon="5.15873">
        <ele>642.7</ele>
        <time>2021-11-19T13:10:46Z</time>
      </trkpt>
      <trkpt lat="44.45662" lon="5.15879">
        <ele>642.9</ele>
        <time>2021-11-19T13:10:47Z</time>
      </trkpt>
      <trkpt lat="44.45664" lon="5.15881">
        <ele>643</ele>
        <time>2021-11-19T13:10:48Z</time>
      </trkpt>
      <trkpt lat="44.45666" lon="5.15885">
        <ele>643.1</ele>
        <time>2021-11-19T13:10:50Z</time>
      </trkpt>
      <trkpt lat="44.45667" lon="5.15887">
        <ele>643.2</ele>
        <time>2021-11-19T13:10:51Z</time>
      </trkpt>
      <trkpt lat="44.45671" lon="5.15893">
        <ele>643.5</ele>
        <time>2021-11-19T13:10:53Z</time>
      </trkpt>
      <trkpt lat="44.45674" lon="5.159">
        <ele>643.8</ele>
        <time>2021-11-19T13:10:55Z</time>
      </trkpt>
      <trkpt lat="44.45676" lon="5.15909">
        <ele>644.1</ele>
        <time>2021-11-19T13:10:57Z</time>
      </trkpt>
      <trkpt lat="44.45677" lon="5.15912">
        <ele>644.2</ele>
        <time>2021-11-19T13:10:58Z</time>
      </trkpt>
      <trkpt lat="44.45679" lon="5.1592">
        <ele>644.5</ele>
        <time>2021-11-19T13:11:00Z</time>
      </trkpt>
      <trkpt lat="44.45681" lon="5.15924">
        <ele>644.6</ele>
        <time>2021-11-19T13:11:01Z</time>
      </trkpt>
      <trkpt lat="44.45684" lon="5.1593">
        <ele>644.9</ele>
        <time>2021-11-19T13:11:03Z</time>
      </trkpt>
      <trkpt lat="44.45687" lon="5.15936">
        <ele>645.1</ele>
        <time>2021-11-19T13:11:05Z</time>
      </trkpt>
      <trkpt lat="44.4569" lon="5.15941">
        <ele>645.3</ele>
        <time>2021-11-19T13:11:07Z</time>
      </trkpt>
      <trkpt lat="44.45692" lon="5.15944">
        <ele>645.5</ele>
        <time>2021-11-19T13:11:08Z</time>
      </trkpt>
      <trkpt lat="44.45693" lon="5.15945">
        <ele>645.5</ele>
        <time>2021-11-19T13:11:09Z</time>
      </trkpt>
      <trkpt lat="44.45697" lon="5.15952">
        <ele>645.8</ele>
        <time>2021-11-19T13:11:11Z</time>
      </trkpt>
      <trkpt lat="44.45699" lon="5.15959">
        <ele>646.1</ele>
        <time>2021-11-19T13:11:14Z</time>
      </trkpt>
      <trkpt lat="44.45702" lon="5.15965">
        <ele>646.3</ele>
        <time>2021-11-19T13:11:16Z</time>
      </trkpt>
      <trkpt lat="44.45704" lon="5.15972">
        <ele>646.6</ele>
        <time>2021-11-19T13:11:18Z</time>
      </trkpt>
      <trkpt lat="44.45707" lon="5.15982">
        <ele>647</ele>
        <time>2021-11-19T13:11:21Z</time>
      </trkpt>
      <trkpt lat="44.45708" lon="5.1599">
        <ele>647.2</ele>
        <time>2021-11-19T13:11:23Z</time>
      </trkpt>
      <trkpt lat="44.45708" lon="5.16004">
        <ele>647.7</ele>
        <time>2021-11-19T13:11:26Z</time>
      </trkpt>
      <trkpt lat="44.45708" lon="5.16012">
        <ele>648</ele>
        <time>2021-11-19T13:11:28Z</time>
      </trkpt>
      <trkpt lat="44.45707" lon="5.16023">
        <ele>648.4</ele>
        <time>2021-11-19T13:11:30Z</time>
      </trkpt>
      <trkpt lat="44.45707" lon="5.16029">
        <ele>648.6</ele>
        <time>2021-11-19T13:11:31Z</time>
      </trkpt>
      <trkpt lat="44.45707" lon="5.1604">
        <ele>649</ele>
        <time>2021-11-19T13:11:33Z</time>
      </trkpt>
      <trkpt lat="44.45706" lon="5.16047">
        <ele>649.3</ele>
        <time>2021-11-19T13:11:35Z</time>
      </trkpt>
      <trkpt lat="44.45706" lon="5.16051">
        <ele>649.5</ele>
        <time>2021-11-19T13:11:36Z</time>
      </trkpt>
      <trkpt lat="44.45707" lon="5.16062">
        <ele>649.8</ele>
        <time>2021-11-19T13:11:38Z</time>
      </trkpt>
      <trkpt lat="44.45707" lon="5.16067">
        <ele>650</ele>
        <time>2021-11-19T13:11:39Z</time>
      </trkpt>
      <trkpt lat="44.45708" lon="5.16069">
        <ele>650</ele>
        <time>2021-11-19T13:11:40Z</time>
      </trkpt>
      <trkpt lat="44.45708" lon="5.16073">
        <ele>650.2</ele>
        <time>2021-11-19T13:11:41Z</time>
      </trkpt>
      <trkpt lat="44.4571" lon="5.16081">
        <ele>650.4</ele>
        <time>2021-11-19T13:11:43Z</time>
      </trkpt>
      <trkpt lat="44.45712" lon="5.16085">
        <ele>650.6</ele>
        <time>2021-11-19T13:11:44Z</time>
      </trkpt>
      <trkpt lat="44.45714" lon="5.16089">
        <ele>650.8</ele>
        <time>2021-11-19T13:11:46Z</time>
      </trkpt>
      <trkpt lat="44.4572" lon="5.16096">
        <ele>651.2</ele>
        <time>2021-11-19T13:11:49Z</time>
      </trkpt>
      <trkpt lat="44.4572" lon="5.16091">
        <ele>651.3</ele>
        <time>2021-11-19T13:11:50Z</time>
      </trkpt>
      <trkpt lat="44.45722" lon="5.16095">
        <ele>651.5</ele>
        <time>2021-11-19T13:11:52Z</time>
      </trkpt>
      <trkpt lat="44.45724" lon="5.161">
        <ele>651.7</ele>
        <time>2021-11-19T13:11:53Z</time>
      </trkpt>
      <trkpt lat="44.45728" lon="5.16107">
        <ele>652</ele>
        <time>2021-11-19T13:11:55Z</time>
      </trkpt>
      <trkpt lat="44.45732" lon="5.16114">
        <ele>652.3</ele>
        <time>2021-11-19T13:11:57Z</time>
      </trkpt>
      <trkpt lat="44.45734" lon="5.16117">
        <ele>652.4</ele>
        <time>2021-11-19T13:11:58Z</time>
      </trkpt>
      <trkpt lat="44.45737" lon="5.16126">
        <ele>652.8</ele>
        <time>2021-11-19T13:12:00Z</time>
      </trkpt>
      <trkpt lat="44.45738" lon="5.16132">
        <ele>653</ele>
        <time>2021-11-19T13:12:01Z</time>
      </trkpt>
      <trkpt lat="44.45739" lon="5.16134">
        <ele>653.1</ele>
        <time>2021-11-19T13:12:02Z</time>
      </trkpt>
      <trkpt lat="44.4574" lon="5.16142">
        <ele>653.4</ele>
        <time>2021-11-19T13:12:04Z</time>
      </trkpt>
      <trkpt lat="44.4574" lon="5.16146">
        <ele>653.6</ele>
        <time>2021-11-19T13:12:05Z</time>
      </trkpt>
      <trkpt lat="44.45741" lon="5.16156">
        <ele>653.9</ele>
        <time>2021-11-19T13:12:07Z</time>
      </trkpt>
      <trkpt lat="44.45741" lon="5.16159">
        <ele>654.1</ele>
        <time>2021-11-19T13:12:08Z</time>
      </trkpt>
      <trkpt lat="44.45742" lon="5.16169">
        <ele>654.5</ele>
        <time>2021-11-19T13:12:10Z</time>
      </trkpt>
      <trkpt lat="44.45744" lon="5.16173">
        <ele>654.7</ele>
        <time>2021-11-19T13:12:11Z</time>
      </trkpt>
      <trkpt lat="44.45744" lon="5.16176">
        <ele>654.8</ele>
        <time>2021-11-19T13:12:12Z</time>
      </trkpt>
      <trkpt lat="44.45747" lon="5.16185">
        <ele>655.1</ele>
        <time>2021-11-19T13:12:14Z</time>
      </trkpt>
      <trkpt lat="44.45747" lon="5.16188">
        <ele>655.3</ele>
        <time>2021-11-19T13:12:15Z</time>
      </trkpt>
      <trkpt lat="44.45744" lon="5.16186">
        <ele>655.5</ele>
        <time>2021-11-19T13:12:16Z</time>
      </trkpt>
      <trkpt lat="44.45741" lon="5.16181">
        <ele>655.7</ele>
        <time>2021-11-19T13:12:18Z</time>
      </trkpt>
      <trkpt lat="44.4574" lon="5.1618">
        <ele>655.8</ele>
        <time>2021-11-19T13:12:19Z</time>
      </trkpt>
      <trkpt lat="44.4574" lon="5.1618">
        <ele>655.8</ele>
        <time>2021-11-19T13:12:20Z</time>
      </trkpt>
      <trkpt lat="44.45741" lon="5.16185">
        <ele>656</ele>
        <time>2021-11-19T13:12:21Z</time>
      </trkpt>
      <trkpt lat="44.45742" lon="5.16189">
        <ele>656.2</ele>
        <time>2021-11-19T13:12:22Z</time>
      </trkpt>
      <trkpt lat="44.45742" lon="5.16191">
        <ele>656.2</ele>
        <time>2021-11-19T13:12:23Z</time>
      </trkpt>
      <trkpt lat="44.45744" lon="5.16204">
        <ele>656.7</ele>
        <time>2021-11-19T13:12:25Z</time>
      </trkpt>
      <trkpt lat="44.45743" lon="5.1621">
        <ele>657</ele>
        <time>2021-11-19T13:12:26Z</time>
      </trkpt>
      <trkpt lat="44.45743" lon="5.16215">
        <ele>657.2</ele>
        <time>2021-11-19T13:12:28Z</time>
      </trkpt>
      <trkpt lat="44.45743" lon="5.16221">
        <ele>657.4</ele>
        <time>2021-11-19T13:12:29Z</time>
      </trkpt>
      <trkpt lat="44.45743" lon="5.16227">
        <ele>657.6</ele>
        <time>2021-11-19T13:12:30Z</time>
      </trkpt>
      <trkpt lat="44.45744" lon="5.16233">
        <ele>657.8</ele>
        <time>2021-11-19T13:12:31Z</time>
      </trkpt>
      <trkpt lat="44.45744" lon="5.16239">
        <ele>658.1</ele>
        <time>2021-11-19T13:12:32Z</time>
      </trkpt>
      <trkpt lat="44.45744" lon="5.16243">
        <ele>658.3</ele>
        <time>2021-11-19T13:12:33Z</time>
      </trkpt>
      <trkpt lat="44.45744" lon="5.16249">
        <ele>658.5</ele>
        <time>2021-11-19T13:12:34Z</time>
      </trkpt>
      <trkpt lat="44.45745" lon="5.16258">
        <ele>658.9</ele>
        <time>2021-11-19T13:12:35Z</time>
      </trkpt>
      <trkpt lat="44.45746" lon="5.1627">
        <ele>659.3</ele>
        <time>2021-11-19T13:12:38Z</time>
      </trkpt>
      <trkpt lat="44.45746" lon="5.16272">
        <ele>659.4</ele>
        <time>2021-11-19T13:12:39Z</time>
      </trkpt>
      <trkpt lat="44.45747" lon="5.16276">
        <ele>659.6</ele>
        <time>2021-11-19T13:12:40Z</time>
      </trkpt>
      <trkpt lat="44.45747" lon="5.1628">
        <ele>659.7</ele>
        <time>2021-11-19T13:12:41Z</time>
      </trkpt>
      <trkpt lat="44.45748" lon="5.16284">
        <ele>659.9</ele>
        <time>2021-11-19T13:12:43Z</time>
      </trkpt>
      <trkpt lat="44.4575" lon="5.16288">
        <ele>660.1</ele>
        <time>2021-11-19T13:12:44Z</time>
      </trkpt>
      <trkpt lat="44.45753" lon="5.16291">
        <ele>660.3</ele>
        <time>2021-11-19T13:12:45Z</time>
      </trkpt>
      <trkpt lat="44.45754" lon="5.16292">
        <ele>660.4</ele>
        <time>2021-11-19T13:12:46Z</time>
      </trkpt>
      <trkpt lat="44.45756" lon="5.16297">
        <ele>660.6</ele>
        <time>2021-11-19T13:12:47Z</time>
      </trkpt>
      <trkpt lat="44.45756" lon="5.16299">
        <ele>660.7</ele>
        <time>2021-11-19T13:12:48Z</time>
      </trkpt>
      <trkpt lat="44.45763" lon="5.16311">
        <ele>661.3</ele>
        <time>2021-11-19T13:12:51Z</time>
      </trkpt>
      <trkpt lat="44.45764" lon="5.16312">
        <ele>661.4</ele>
        <time>2021-11-19T13:12:52Z</time>
      </trkpt>
      <trkpt lat="44.45768" lon="5.16316">
        <ele>661.6</ele>
        <time>2021-11-19T13:12:54Z</time>
      </trkpt>
      <trkpt lat="44.45763" lon="5.16311">
        <ele>662</ele>
        <time>2021-11-19T13:12:56Z</time>
      </trkpt>
      <trkpt lat="44.45762" lon="5.16312">
        <ele>662.1</ele>
        <time>2021-11-19T13:12:59Z</time>
      </trkpt>
      <trkpt lat="44.45763" lon="5.16318">
        <ele>662.3</ele>
        <time>2021-11-19T13:13:01Z</time>
      </trkpt>
      <trkpt lat="44.45765" lon="5.16325">
        <ele>662.6</ele>
        <time>2021-11-19T13:13:02Z</time>
      </trkpt>
      <trkpt lat="44.45771" lon="5.16338">
        <ele>663.1</ele>
        <time>2021-11-19T13:13:04Z</time>
      </trkpt>
      <trkpt lat="44.45776" lon="5.16348">
        <ele>663.5</ele>
        <time>2021-11-19T13:13:06Z</time>
      </trkpt>
      <trkpt lat="44.45777" lon="5.16356">
        <ele>663.8</ele>
        <time>2021-11-19T13:13:08Z</time>
      </trkpt>
      <trkpt lat="44.45773" lon="5.16351">
        <ele>664</ele>
        <time>2021-11-19T13:13:09Z</time>
      </trkpt>
      <trkpt lat="44.45769" lon="5.16357">
        <ele>664.3</ele>
        <time>2021-11-19T13:13:11Z</time>
      </trkpt>
      <trkpt lat="44.45768" lon="5.16362">
        <ele>664.4</ele>
        <time>2021-11-19T13:13:12Z</time>
      </trkpt>
      <trkpt lat="44.45765" lon="5.16368">
        <ele>664.6</ele>
        <time>2021-11-19T13:13:14Z</time>
      </trkpt>
      <trkpt lat="44.45759" lon="5.16378">
        <ele>665</ele>
        <time>2021-11-19T13:13:16Z</time>
      </trkpt>
      <trkpt lat="44.45754" lon="5.16386">
        <ele>665.3</ele>
        <time>2021-11-19T13:13:18Z</time>
      </trkpt>
      <trkpt lat="44.4575" lon="5.16394">
        <ele>665.5</ele>
        <time>2021-11-19T13:13:19Z</time>
      </trkpt>
      <trkpt lat="44.45748" lon="5.16399">
        <ele>665.7</ele>
        <time>2021-11-19T13:13:21Z</time>
      </trkpt>
      <trkpt lat="44.45745" lon="5.16404">
        <ele>665.9</ele>
        <time>2021-11-19T13:13:22Z</time>
      </trkpt>
      <trkpt lat="44.4574" lon="5.16415">
        <ele>666.2</ele>
        <time>2021-11-19T13:13:24Z</time>
      </trkpt>
      <trkpt lat="44.45735" lon="5.16421">
        <ele>666.5</ele>
        <time>2021-11-19T13:13:26Z</time>
      </trkpt>
      <trkpt lat="44.45733" lon="5.16423">
        <ele>666.6</ele>
        <time>2021-11-19T13:13:27Z</time>
      </trkpt>
      <trkpt lat="44.45727" lon="5.16425">
        <ele>666.9</ele>
        <time>2021-11-19T13:13:29Z</time>
      </trkpt>
      <trkpt lat="44.45722" lon="5.16426">
        <ele>667.1</ele>
        <time>2021-11-19T13:13:31Z</time>
      </trkpt>
      <trkpt lat="44.45719" lon="5.16426">
        <ele>667.2</ele>
        <time>2021-11-19T13:13:32Z</time>
      </trkpt>
      <trkpt lat="44.45714" lon="5.16429">
        <ele>667.4</ele>
        <time>2021-11-19T13:13:34Z</time>
      </trkpt>
      <trkpt lat="44.45711" lon="5.16434">
        <ele>667.6</ele>
        <time>2021-11-19T13:13:36Z</time>
      </trkpt>
      <trkpt lat="44.45709" lon="5.16437">
        <ele>667.7</ele>
        <time>2021-11-19T13:13:37Z</time>
      </trkpt>
      <trkpt lat="44.45707" lon="5.16443">
        <ele>667.9</ele>
        <time>2021-11-19T13:13:39Z</time>
      </trkpt>
      <trkpt lat="44.45704" lon="5.1645">
        <ele>668.2</ele>
        <time>2021-11-19T13:13:41Z</time>
      </trkpt>
      <trkpt lat="44.45701" lon="5.16455">
        <ele>668.4</ele>
        <time>2021-11-19T13:13:43Z</time>
      </trkpt>
      <trkpt lat="44.45699" lon="5.16457">
        <ele>668.5</ele>
        <time>2021-11-19T13:13:44Z</time>
      </trkpt>
      <trkpt lat="44.45694" lon="5.16463">
        <ele>668.8</ele>
        <time>2021-11-19T13:13:46Z</time>
      </trkpt>
      <trkpt lat="44.45691" lon="5.16466">
        <ele>669</ele>
        <time>2021-11-19T13:13:47Z</time>
      </trkpt>
      <trkpt lat="44.45687" lon="5.16473">
        <ele>669.3</ele>
        <time>2021-11-19T13:13:49Z</time>
      </trkpt>
      <trkpt lat="44.45683" lon="5.16479">
        <ele>669.6</ele>
        <time>2021-11-19T13:13:51Z</time>
      </trkpt>
      <trkpt lat="44.45682" lon="5.1648">
        <ele>669.7</ele>
        <time>2021-11-19T13:13:52Z</time>
      </trkpt>
      <trkpt lat="44.45681" lon="5.16484">
        <ele>669.9</ele>
        <time>2021-11-19T13:13:54Z</time>
      </trkpt>
      <trkpt lat="44.45683" lon="5.16487">
        <ele>670</ele>
        <time>2021-11-19T13:13:55Z</time>
      </trkpt>
      <trkpt lat="44.45687" lon="5.16498">
        <ele>670.4</ele>
        <time>2021-11-19T13:13:57Z</time>
      </trkpt>
      <trkpt lat="44.45696" lon="5.16504">
        <ele>670.9</ele>
        <time>2021-11-19T13:13:59Z</time>
      </trkpt>
      <trkpt lat="44.45705" lon="5.16507">
        <ele>671.2</ele>
        <time>2021-11-19T13:14:00Z</time>
      </trkpt>
      <trkpt lat="44.4571" lon="5.16507">
        <ele>671.5</ele>
        <time>2021-11-19T13:14:01Z</time>
      </trkpt>
      <trkpt lat="44.45716" lon="5.16507">
        <ele>671.7</ele>
        <time>2021-11-19T13:14:03Z</time>
      </trkpt>
      <trkpt lat="44.45724" lon="5.16507">
        <ele>672.1</ele>
        <time>2021-11-19T13:14:04Z</time>
      </trkpt>
      <trkpt lat="44.45729" lon="5.16507">
        <ele>672.2</ele>
        <time>2021-11-19T13:14:05Z</time>
      </trkpt>
      <trkpt lat="44.45732" lon="5.16507">
        <ele>672.4</ele>
        <time>2021-11-19T13:14:06Z</time>
      </trkpt>
      <trkpt lat="44.45737" lon="5.16508">
        <ele>672.6</ele>
        <time>2021-11-19T13:14:08Z</time>
      </trkpt>
      <trkpt lat="44.45744" lon="5.1651">
        <ele>672.9</ele>
        <time>2021-11-19T13:14:09Z</time>
      </trkpt>
      <trkpt lat="44.45747" lon="5.1651">
        <ele>673</ele>
        <time>2021-11-19T13:14:11Z</time>
      </trkpt>
      <trkpt lat="44.45753" lon="5.16511">
        <ele>673.3</ele>
        <time>2021-11-19T13:14:13Z</time>
      </trkpt>
      <trkpt lat="44.4576" lon="5.16514">
        <ele>673.6</ele>
        <time>2021-11-19T13:14:15Z</time>
      </trkpt>
      <trkpt lat="44.45766" lon="5.16515">
        <ele>673.9</ele>
        <time>2021-11-19T13:14:17Z</time>
      </trkpt>
      <trkpt lat="44.45771" lon="5.16519">
        <ele>674.2</ele>
        <time>2021-11-19T13:14:18Z</time>
      </trkpt>
      <trkpt lat="44.45775" lon="5.16521">
        <ele>674.4</ele>
        <time>2021-11-19T13:14:19Z</time>
      </trkpt>
      <trkpt lat="44.45778" lon="5.16522">
        <ele>674.5</ele>
        <time>2021-11-19T13:14:21Z</time>
      </trkpt>
      <trkpt lat="44.45783" lon="5.16524">
        <ele>674.7</ele>
        <time>2021-11-19T13:14:22Z</time>
      </trkpt>
      <trkpt lat="44.45785" lon="5.16526">
        <ele>674.9</ele>
        <time>2021-11-19T13:14:23Z</time>
      </trkpt>
      <trkpt lat="44.45786" lon="5.16526">
        <ele>674.9</ele>
        <time>2021-11-19T13:14:25Z</time>
      </trkpt>
      <trkpt lat="44.4579" lon="5.16526">
        <ele>675.1</ele>
        <time>2021-11-19T13:14:26Z</time>
      </trkpt>
      <trkpt lat="44.45792" lon="5.16526">
        <ele>675.2</ele>
        <time>2021-11-19T13:14:27Z</time>
      </trkpt>
      <trkpt lat="44.45793" lon="5.16526">
        <ele>675.2</ele>
        <time>2021-11-19T13:14:29Z</time>
      </trkpt>
      <trkpt lat="44.45796" lon="5.16524">
        <ele>675.4</ele>
        <time>2021-11-19T13:14:31Z</time>
      </trkpt>
      <trkpt lat="44.45801" lon="5.16518">
        <ele>675.7</ele>
        <time>2021-11-19T13:14:32Z</time>
      </trkpt>
      <trkpt lat="44.45803" lon="5.16513">
        <ele>675.8</ele>
        <time>2021-11-19T13:14:34Z</time>
      </trkpt>
      <trkpt lat="44.45806" lon="5.16509">
        <ele>676</ele>
        <time>2021-11-19T13:14:35Z</time>
      </trkpt>
      <trkpt lat="44.45808" lon="5.16504">
        <ele>676.2</ele>
        <time>2021-11-19T13:14:36Z</time>
      </trkpt>
      <trkpt lat="44.45809" lon="5.16497">
        <ele>676.4</ele>
        <time>2021-11-19T13:14:38Z</time>
      </trkpt>
      <trkpt lat="44.45812" lon="5.16489">
        <ele>676.7</ele>
        <time>2021-11-19T13:14:40Z</time>
      </trkpt>
      <trkpt lat="44.45815" lon="5.16484">
        <ele>676.9</ele>
        <time>2021-11-19T13:14:42Z</time>
      </trkpt>
      <trkpt lat="44.45821" lon="5.16477">
        <ele>677.3</ele>
        <time>2021-11-19T13:14:45Z</time>
      </trkpt>
      <trkpt lat="44.45824" lon="5.16474">
        <ele>677.5</ele>
        <time>2021-11-19T13:14:47Z</time>
      </trkpt>
      <trkpt lat="44.45831" lon="5.16469">
        <ele>677.8</ele>
        <time>2021-11-19T13:14:50Z</time>
      </trkpt>
      <trkpt lat="44.45834" lon="5.16471">
        <ele>678</ele>
        <time>2021-11-19T13:14:51Z</time>
      </trkpt>
      <trkpt lat="44.4584" lon="5.16477">
        <ele>678.3</ele>
        <time>2021-11-19T13:14:53Z</time>
      </trkpt>
      <trkpt lat="44.45843" lon="5.16486">
        <ele>678.6</ele>
        <time>2021-11-19T13:14:54Z</time>
      </trkpt>
      <trkpt lat="44.45845" lon="5.16494">
        <ele>678.9</ele>
        <time>2021-11-19T13:14:56Z</time>
      </trkpt>
      <trkpt lat="44.45845" lon="5.16501">
        <ele>679.1</ele>
        <time>2021-11-19T13:14:57Z</time>
      </trkpt>
      <trkpt lat="44.45846" lon="5.16509">
        <ele>679.3</ele>
        <time>2021-11-19T13:14:59Z</time>
      </trkpt>
      <trkpt lat="44.45847" lon="5.1652">
        <ele>679.6</ele>
        <time>2021-11-19T13:15:00Z</time>
      </trkpt>
      <trkpt lat="44.45848" lon="5.16525">
        <ele>679.8</ele>
        <time>2021-11-19T13:15:02Z</time>
      </trkpt>
      <trkpt lat="44.4585" lon="5.16535">
        <ele>680.1</ele>
        <time>2021-11-19T13:15:04Z</time>
      </trkpt>
      <trkpt lat="44.45852" lon="5.1654">
        <ele>680.3</ele>
        <time>2021-11-19T13:15:05Z</time>
      </trkpt>
      <trkpt lat="44.45854" lon="5.16549">
        <ele>680.6</ele>
        <time>2021-11-19T13:15:07Z</time>
      </trkpt>
      <trkpt lat="44.45856" lon="5.16558">
        <ele>680.9</ele>
        <time>2021-11-19T13:15:09Z</time>
      </trkpt>
      <trkpt lat="44.45857" lon="5.16563">
        <ele>681</ele>
        <time>2021-11-19T13:15:10Z</time>
      </trkpt>
      <trkpt lat="44.45858" lon="5.16567">
        <ele>681.2</ele>
        <time>2021-11-19T13:15:11Z</time>
      </trkpt>
      <trkpt lat="44.45862" lon="5.16576">
        <ele>681.5</ele>
        <time>2021-11-19T13:15:13Z</time>
      </trkpt>
      <trkpt lat="44.45862" lon="5.1658">
        <ele>681.7</ele>
        <time>2021-11-19T13:15:14Z</time>
      </trkpt>
      <trkpt lat="44.4586" lon="5.16588">
        <ele>682</ele>
        <time>2021-11-19T13:15:15Z</time>
      </trkpt>
      <trkpt lat="44.45857" lon="5.16589">
        <ele>682.2</ele>
        <time>2021-11-19T13:15:17Z</time>
      </trkpt>
      <trkpt lat="44.45852" lon="5.16591">
        <ele>682.4</ele>
        <time>2021-11-19T13:15:19Z</time>
      </trkpt>
      <trkpt lat="44.45849" lon="5.16593">
        <ele>682.6</ele>
        <time>2021-11-19T13:15:20Z</time>
      </trkpt>
      <trkpt lat="44.45845" lon="5.16598">
        <ele>682.9</ele>
        <time>2021-11-19T13:15:22Z</time>
      </trkpt>
      <trkpt lat="44.45843" lon="5.16602">
        <ele>683</ele>
        <time>2021-11-19T13:15:23Z</time>
      </trkpt>
      <trkpt lat="44.45843" lon="5.16606">
        <ele>683.2</ele>
        <time>2021-11-19T13:15:24Z</time>
      </trkpt>
      <trkpt lat="44.45842" lon="5.16614">
        <ele>683.4</ele>
        <time>2021-11-19T13:15:26Z</time>
      </trkpt>
      <trkpt lat="44.45842" lon="5.16622">
        <ele>683.7</ele>
        <time>2021-11-19T13:15:28Z</time>
      </trkpt>
      <trkpt lat="44.45843" lon="5.16627">
        <ele>684</ele>
        <time>2021-11-19T13:15:30Z</time>
      </trkpt>
      <trkpt lat="44.45842" lon="5.16636">
        <ele>684.3</ele>
        <time>2021-11-19T13:15:32Z</time>
      </trkpt>
      <trkpt lat="44.45842" lon="5.1664">
        <ele>684.5</ele>
        <time>2021-11-19T13:15:33Z</time>
      </trkpt>
      <trkpt lat="44.45842" lon="5.16648">
        <ele>684.8</ele>
        <time>2021-11-19T13:15:35Z</time>
      </trkpt>
      <trkpt lat="44.45843" lon="5.16654">
        <ele>685.1</ele>
        <time>2021-11-19T13:15:36Z</time>
      </trkpt>
      <trkpt lat="44.45844" lon="5.16658">
        <ele>685.3</ele>
        <time>2021-11-19T13:15:37Z</time>
      </trkpt>
      <trkpt lat="44.45845" lon="5.16664">
        <ele>685.6</ele>
        <time>2021-11-19T13:15:39Z</time>
      </trkpt>
      <trkpt lat="44.45845" lon="5.16667">
        <ele>685.7</ele>
        <time>2021-11-19T13:15:40Z</time>
      </trkpt>
      <trkpt lat="44.45845" lon="5.1667">
        <ele>685.8</ele>
        <time>2021-11-19T13:15:41Z</time>
      </trkpt>
      <trkpt lat="44.45845" lon="5.16673">
        <ele>686</ele>
        <time>2021-11-19T13:15:43Z</time>
      </trkpt>
      <trkpt lat="44.45844" lon="5.16675">
        <ele>686</ele>
        <time>2021-11-19T13:15:44Z</time>
      </trkpt>
      <trkpt lat="44.45846" lon="5.16678">
        <ele>686.2</ele>
        <time>2021-11-19T13:15:45Z</time>
      </trkpt>
      <trkpt lat="44.45846" lon="5.16679">
        <ele>686.3</ele>
        <time>2021-11-19T13:15:46Z</time>
      </trkpt>
      <trkpt lat="44.45847" lon="5.16674">
        <ele>686.6</ele>
        <time>2021-11-19T13:15:48Z</time>
      </trkpt>
      <trkpt lat="44.45846" lon="5.16663">
        <ele>687</ele>
        <time>2021-11-19T13:15:51Z</time>
      </trkpt>
      <trkpt lat="44.45845" lon="5.16654">
        <ele>687.4</ele>
        <time>2021-11-19T13:15:53Z</time>
      </trkpt>
      <trkpt lat="44.45846" lon="5.16647">
        <ele>687.8</ele>
        <time>2021-11-19T13:15:54Z</time>
      </trkpt>
      <trkpt lat="44.45847" lon="5.16656">
        <ele>688.1</ele>
        <time>2021-11-19T13:15:55Z</time>
      </trkpt>
      <trkpt lat="44.45847" lon="5.16669">
        <ele>688.7</ele>
        <time>2021-11-19T13:15:57Z</time>
      </trkpt>
      <trkpt lat="44.45848" lon="5.16678">
        <ele>689.1</ele>
        <time>2021-11-19T13:15:58Z</time>
      </trkpt>
      <trkpt lat="44.45849" lon="5.1669">
        <ele>689.6</ele>
        <time>2021-11-19T13:16:00Z</time>
      </trkpt>
      <trkpt lat="44.45851" lon="5.167">
        <ele>690.1</ele>
        <time>2021-11-19T13:16:02Z</time>
      </trkpt>
      <trkpt lat="44.45852" lon="5.16713">
        <ele>690.7</ele>
        <time>2021-11-19T13:16:04Z</time>
      </trkpt>
      <trkpt lat="44.45852" lon="5.16723">
        <ele>691.2</ele>
        <time>2021-11-19T13:16:06Z</time>
      </trkpt>
      <trkpt lat="44.45852" lon="5.16729">
        <ele>691.5</ele>
        <time>2021-11-19T13:16:07Z</time>
      </trkpt>
      <trkpt lat="44.45853" lon="5.16733">
        <ele>691.7</ele>
        <time>2021-11-19T13:16:09Z</time>
      </trkpt>
      <trkpt lat="44.45853" lon="5.16741">
        <ele>692.1</ele>
        <time>2021-11-19T13:16:11Z</time>
      </trkpt>
      <trkpt lat="44.45854" lon="5.16747">
        <ele>692.4</ele>
        <time>2021-11-19T13:16:13Z</time>
      </trkpt>
      <trkpt lat="44.45855" lon="5.16754">
        <ele>692.7</ele>
        <time>2021-11-19T13:16:15Z</time>
      </trkpt>
      <trkpt lat="44.45855" lon="5.16762">
        <ele>693.1</ele>
        <time>2021-11-19T13:16:17Z</time>
      </trkpt>
      <trkpt lat="44.45857" lon="5.16769">
        <ele>693.4</ele>
        <time>2021-11-19T13:16:20Z</time>
      </trkpt>
      <trkpt lat="44.45858" lon="5.16773">
        <ele>693.6</ele>
        <time>2021-11-19T13:16:21Z</time>
      </trkpt>
      <trkpt lat="44.45861" lon="5.16777">
        <ele>693.8</ele>
        <time>2021-11-19T13:16:22Z</time>
      </trkpt>
      <trkpt lat="44.45866" lon="5.16782">
        <ele>693.8</ele>
        <time>2021-11-19T13:16:24Z</time>
      </trkpt>
      <trkpt lat="44.45873" lon="5.16785">
        <ele>694.1</ele>
        <time>2021-11-19T13:16:26Z</time>
      </trkpt>
      <trkpt lat="44.4588" lon="5.16789">
        <ele>694.4</ele>
        <time>2021-11-19T13:16:28Z</time>
      </trkpt>
      <trkpt lat="44.45886" lon="5.16789">
        <ele>694.7</ele>
        <time>2021-11-19T13:16:30Z</time>
      </trkpt>
      <trkpt lat="44.45892" lon="5.16789">
        <ele>694.9</ele>
        <time>2021-11-19T13:16:32Z</time>
      </trkpt>
      <trkpt lat="44.45897" lon="5.16788">
        <ele>695</ele>
        <time>2021-11-19T13:16:33Z</time>
      </trkpt>
      <trkpt lat="44.45901" lon="5.16788">
        <ele>695.2</ele>
        <time>2021-11-19T13:16:34Z</time>
      </trkpt>
      <trkpt lat="44.45905" lon="5.1679">
        <ele>695.3</ele>
        <time>2021-11-19T13:16:35Z</time>
      </trkpt>
      <trkpt lat="44.45909" lon="5.16791">
        <ele>695.4</ele>
        <time>2021-11-19T13:16:37Z</time>
      </trkpt>
      <trkpt lat="44.45912" lon="5.16793">
        <ele>695.5</ele>
        <time>2021-11-19T13:16:38Z</time>
      </trkpt>
      <trkpt lat="44.45917" lon="5.16799">
        <ele>695.8</ele>
        <time>2021-11-19T13:16:39Z</time>
      </trkpt>
      <trkpt lat="44.45922" lon="5.16805">
        <ele>696</ele>
        <time>2021-11-19T13:16:42Z</time>
      </trkpt>
      <trkpt lat="44.45924" lon="5.16807">
        <ele>696</ele>
        <time>2021-11-19T13:16:43Z</time>
      </trkpt>
      <trkpt lat="44.45926" lon="5.16809">
        <ele>696.1</ele>
        <time>2021-11-19T13:16:44Z</time>
      </trkpt>
      <trkpt lat="44.45927" lon="5.16812">
        <ele>696.2</ele>
        <time>2021-11-19T13:16:45Z</time>
      </trkpt>
      <trkpt lat="44.4593" lon="5.16818">
        <ele>696.3</ele>
        <time>2021-11-19T13:16:47Z</time>
      </trkpt>
      <trkpt lat="44.45931" lon="5.16822">
        <ele>696.4</ele>
        <time>2021-11-19T13:16:48Z</time>
      </trkpt>
      <trkpt lat="44.45933" lon="5.16828">
        <ele>696.6</ele>
        <time>2021-11-19T13:16:50Z</time>
      </trkpt>
      <trkpt lat="44.45934" lon="5.16832">
        <ele>696.6</ele>
        <time>2021-11-19T13:16:51Z</time>
      </trkpt>
      <trkpt lat="44.45939" lon="5.16838">
        <ele>696.9</ele>
        <time>2021-11-19T13:16:53Z</time>
      </trkpt>
      <trkpt lat="44.45942" lon="5.1684">
        <ele>697</ele>
        <time>2021-11-19T13:16:54Z</time>
      </trkpt>
      <trkpt lat="44.45946" lon="5.16842">
        <ele>697.2</ele>
        <time>2021-11-19T13:16:55Z</time>
      </trkpt>
      <trkpt lat="44.45954" lon="5.16845">
        <ele>697.4</ele>
        <time>2021-11-19T13:16:57Z</time>
      </trkpt>
      <trkpt lat="44.45958" lon="5.16846">
        <ele>697.6</ele>
        <time>2021-11-19T13:16:58Z</time>
      </trkpt>
      <trkpt lat="44.45965" lon="5.16847">
        <ele>697.8</ele>
        <time>2021-11-19T13:17:00Z</time>
      </trkpt>
      <trkpt lat="44.45969" lon="5.16847">
        <ele>698</ele>
        <time>2021-11-19T13:17:01Z</time>
      </trkpt>
      <trkpt lat="44.45978" lon="5.16848">
        <ele>698.3</ele>
        <time>2021-11-19T13:17:03Z</time>
      </trkpt>
      <trkpt lat="44.45983" lon="5.16849">
        <ele>698.5</ele>
        <time>2021-11-19T13:17:04Z</time>
      </trkpt>
      <trkpt lat="44.45992" lon="5.16851">
        <ele>698.8</ele>
        <time>2021-11-19T13:17:06Z</time>
      </trkpt>
      <trkpt lat="44.45997" lon="5.16852">
        <ele>699</ele>
        <time>2021-11-19T13:17:07Z</time>
      </trkpt>
      <trkpt lat="44.46004" lon="5.16856">
        <ele>699.2</ele>
        <time>2021-11-19T13:17:09Z</time>
      </trkpt>
      <trkpt lat="44.46006" lon="5.16859">
        <ele>699.4</ele>
        <time>2021-11-19T13:17:10Z</time>
      </trkpt>
      <trkpt lat="44.46013" lon="5.16868">
        <ele>699.7</ele>
        <time>2021-11-19T13:17:13Z</time>
      </trkpt>
      <trkpt lat="44.46014" lon="5.16872">
        <ele>699.8</ele>
        <time>2021-11-19T13:17:14Z</time>
      </trkpt>
      <trkpt lat="44.46015" lon="5.16876">
        <ele>699.9</ele>
        <time>2021-11-19T13:17:15Z</time>
      </trkpt>
      <trkpt lat="44.46017" lon="5.16882">
        <ele>700.1</ele>
        <time>2021-11-19T13:17:16Z</time>
      </trkpt>
      <trkpt lat="44.46021" lon="5.16891">
        <ele>700.3</ele>
        <time>2021-11-19T13:17:17Z</time>
      </trkpt>
      <trkpt lat="44.46022" lon="5.16894">
        <ele>700.4</ele>
        <time>2021-11-19T13:17:18Z</time>
      </trkpt>
      <trkpt lat="44.46025" lon="5.16899">
        <ele>700.6</ele>
        <time>2021-11-19T13:17:20Z</time>
      </trkpt>
      <trkpt lat="44.46027" lon="5.16901">
        <ele>700.6</ele>
        <time>2021-11-19T13:17:21Z</time>
      </trkpt>
      <trkpt lat="44.46033" lon="5.16907">
        <ele>700.9</ele>
        <time>2021-11-19T13:17:22Z</time>
      </trkpt>
      <trkpt lat="44.46035" lon="5.1691">
        <ele>701</ele>
        <time>2021-11-19T13:17:24Z</time>
      </trkpt>
      <trkpt lat="44.46038" lon="5.16913">
        <ele>701.1</ele>
        <time>2021-11-19T13:17:25Z</time>
      </trkpt>
      <trkpt lat="44.46044" lon="5.16919">
        <ele>701.3</ele>
        <time>2021-11-19T13:17:26Z</time>
      </trkpt>
      <trkpt lat="44.46048" lon="5.16922">
        <ele>701.5</ele>
        <time>2021-11-19T13:17:28Z</time>
      </trkpt>
      <trkpt lat="44.46051" lon="5.16924">
        <ele>701.6</ele>
        <time>2021-11-19T13:17:29Z</time>
      </trkpt>
      <trkpt lat="44.46059" lon="5.1693">
        <ele>701.8</ele>
        <time>2021-11-19T13:17:31Z</time>
      </trkpt>
      <trkpt lat="44.46066" lon="5.16934">
        <ele>702.1</ele>
        <time>2021-11-19T13:17:32Z</time>
      </trkpt>
      <trkpt lat="44.46072" lon="5.16938">
        <ele>702.3</ele>
        <time>2021-11-19T13:17:35Z</time>
      </trkpt>
      <trkpt lat="44.46081" lon="5.1694">
        <ele>702.6</ele>
        <time>2021-11-19T13:17:37Z</time>
      </trkpt>
      <trkpt lat="44.46084" lon="5.1694">
        <ele>702.7</ele>
        <time>2021-11-19T13:17:38Z</time>
      </trkpt>
      <trkpt lat="44.46091" lon="5.16942">
        <ele>703</ele>
        <time>2021-11-19T13:17:40Z</time>
      </trkpt>
      <trkpt lat="44.46097" lon="5.16942">
        <ele>703.2</ele>
        <time>2021-11-19T13:17:42Z</time>
      </trkpt>
      <trkpt lat="44.46099" lon="5.16943">
        <ele>703.3</ele>
        <time>2021-11-19T13:17:43Z</time>
      </trkpt>
      <trkpt lat="44.46106" lon="5.16946">
        <ele>703.5</ele>
        <time>2021-11-19T13:17:45Z</time>
      </trkpt>
      <trkpt lat="44.46115" lon="5.16951">
        <ele>703.8</ele>
        <time>2021-11-19T13:17:47Z</time>
      </trkpt>
      <trkpt lat="44.46118" lon="5.16953">
        <ele>703.9</ele>
        <time>2021-11-19T13:17:48Z</time>
      </trkpt>
      <trkpt lat="44.46121" lon="5.16955">
        <ele>704</ele>
        <time>2021-11-19T13:17:50Z</time>
      </trkpt>
      <trkpt lat="44.46126" lon="5.16958">
        <ele>704.2</ele>
        <time>2021-11-19T13:17:51Z</time>
      </trkpt>
      <trkpt lat="44.46129" lon="5.1696">
        <ele>704.3</ele>
        <time>2021-11-19T13:17:53Z</time>
      </trkpt>
      <trkpt lat="44.46132" lon="5.16963">
        <ele>704.4</ele>
        <time>2021-11-19T13:17:54Z</time>
      </trkpt>
      <trkpt lat="44.46141" lon="5.16969">
        <ele>704.6</ele>
        <time>2021-11-19T13:17:55Z</time>
      </trkpt>
      <trkpt lat="44.46146" lon="5.16973">
        <ele>704.8</ele>
        <time>2021-11-19T13:17:56Z</time>
      </trkpt>
      <trkpt lat="44.46151" lon="5.16977">
        <ele>704.9</ele>
        <time>2021-11-19T13:17:58Z</time>
      </trkpt>
      <trkpt lat="44.46162" lon="5.16984">
        <ele>705.3</ele>
        <time>2021-11-19T13:18:00Z</time>
      </trkpt>
      <trkpt lat="44.46171" lon="5.16989">
        <ele>705.6</ele>
        <time>2021-11-19T13:18:02Z</time>
      </trkpt>
      <trkpt lat="44.46173" lon="5.16991">
        <ele>705.7</ele>
        <time>2021-11-19T13:18:03Z</time>
      </trkpt>
      <trkpt lat="44.4618" lon="5.16994">
        <ele>705.9</ele>
        <time>2021-11-19T13:18:05Z</time>
      </trkpt>
      <trkpt lat="44.46184" lon="5.16997">
        <ele>706</ele>
        <time>2021-11-19T13:18:06Z</time>
      </trkpt>
      <trkpt lat="44.46195" lon="5.17005">
        <ele>706.4</ele>
        <time>2021-11-19T13:18:09Z</time>
      </trkpt>
      <trkpt lat="44.46198" lon="5.17009">
        <ele>706.6</ele>
        <time>2021-11-19T13:18:10Z</time>
      </trkpt>
      <trkpt lat="44.46204" lon="5.17016">
        <ele>706.9</ele>
        <time>2021-11-19T13:18:11Z</time>
      </trkpt>
      <trkpt lat="44.46207" lon="5.17021">
        <ele>707</ele>
        <time>2021-11-19T13:18:13Z</time>
      </trkpt>
      <trkpt lat="44.46208" lon="5.17026">
        <ele>707.2</ele>
        <time>2021-11-19T13:18:14Z</time>
      </trkpt>
      <trkpt lat="44.46212" lon="5.17036">
        <ele>707.5</ele>
        <time>2021-11-19T13:18:16Z</time>
      </trkpt>
      <trkpt lat="44.46215" lon="5.17041">
        <ele>707.8</ele>
        <time>2021-11-19T13:18:18Z</time>
      </trkpt>
      <trkpt lat="44.46218" lon="5.17045">
        <ele>707.9</ele>
        <time>2021-11-19T13:18:19Z</time>
      </trkpt>
      <trkpt lat="44.46222" lon="5.1705">
        <ele>708.2</ele>
        <time>2021-11-19T13:18:21Z</time>
      </trkpt>
      <trkpt lat="44.46223" lon="5.17052">
        <ele>708.3</ele>
        <time>2021-11-19T13:18:22Z</time>
      </trkpt>
      <trkpt lat="44.46228" lon="5.17058">
        <ele>708.6</ele>
        <time>2021-11-19T13:18:24Z</time>
      </trkpt>
      <trkpt lat="44.4623" lon="5.17062">
        <ele>708.8</ele>
        <time>2021-11-19T13:18:25Z</time>
      </trkpt>
      <trkpt lat="44.46233" lon="5.17065">
        <ele>708.9</ele>
        <time>2021-11-19T13:18:26Z</time>
      </trkpt>
      <trkpt lat="44.4624" lon="5.17074">
        <ele>709.4</ele>
        <time>2021-11-19T13:18:29Z</time>
      </trkpt>
      <trkpt lat="44.46242" lon="5.17077">
        <ele>709.7</ele>
        <time>2021-11-19T13:18:31Z</time>
      </trkpt>
      <trkpt lat="44.46245" lon="5.1708">
        <ele>709.9</ele>
        <time>2021-11-19T13:18:32Z</time>
      </trkpt>
      <trkpt lat="44.46246" lon="5.17083">
        <ele>710</ele>
        <time>2021-11-19T13:18:34Z</time>
      </trkpt>
      <trkpt lat="44.46248" lon="5.17092">
        <ele>710.4</ele>
        <time>2021-11-19T13:18:36Z</time>
      </trkpt>
      <trkpt lat="44.46249" lon="5.17099">
        <ele>710.8</ele>
        <time>2021-11-19T13:18:38Z</time>
      </trkpt>
      <trkpt lat="44.46247" lon="5.17103">
        <ele>711</ele>
        <time>2021-11-19T13:18:39Z</time>
      </trkpt>
      <trkpt lat="44.46245" lon="5.17106">
        <ele>711.2</ele>
        <time>2021-11-19T13:18:41Z</time>
      </trkpt>
      <trkpt lat="44.46241" lon="5.17108">
        <ele>711.4</ele>
        <time>2021-11-19T13:18:42Z</time>
      </trkpt>
      <trkpt lat="44.46237" lon="5.1711">
        <ele>711.7</ele>
        <time>2021-11-19T13:18:43Z</time>
      </trkpt>
      <trkpt lat="44.46231" lon="5.17115">
        <ele>712.2</ele>
        <time>2021-11-19T13:18:45Z</time>
      </trkpt>
      <trkpt lat="44.46227" lon="5.17117">
        <ele>712.4</ele>
        <time>2021-11-19T13:18:46Z</time>
      </trkpt>
      <trkpt lat="44.46224" lon="5.17119">
        <ele>712.6</ele>
        <time>2021-11-19T13:18:47Z</time>
      </trkpt>
      <trkpt lat="44.46219" lon="5.17122">
        <ele>712.9</ele>
        <time>2021-11-19T13:18:49Z</time>
      </trkpt>
      <trkpt lat="44.46214" lon="5.17126">
        <ele>713.2</ele>
        <time>2021-11-19T13:18:50Z</time>
      </trkpt>
      <trkpt lat="44.4621" lon="5.17131">
        <ele>713.5</ele>
        <time>2021-11-19T13:18:53Z</time>
      </trkpt>
      <trkpt lat="44.46207" lon="5.17135">
        <ele>713.8</ele>
        <time>2021-11-19T13:18:55Z</time>
      </trkpt>
      <trkpt lat="44.46205" lon="5.17138">
        <ele>714</ele>
        <time>2021-11-19T13:18:56Z</time>
      </trkpt>
      <trkpt lat="44.462" lon="5.17143">
        <ele>714.3</ele>
        <time>2021-11-19T13:18:58Z</time>
      </trkpt>
      <trkpt lat="44.46195" lon="5.17148">
        <ele>714.7</ele>
        <time>2021-11-19T13:19:00Z</time>
      </trkpt>
      <trkpt lat="44.46193" lon="5.17151">
        <ele>714.8</ele>
        <time>2021-11-19T13:19:01Z</time>
      </trkpt>
      <trkpt lat="44.4619" lon="5.17154">
        <ele>715</ele>
        <time>2021-11-19T13:19:02Z</time>
      </trkpt>
      <trkpt lat="44.46186" lon="5.1716">
        <ele>715.4</ele>
        <time>2021-11-19T13:19:04Z</time>
      </trkpt>
      <trkpt lat="44.46182" lon="5.17165">
        <ele>715.7</ele>
        <time>2021-11-19T13:19:06Z</time>
      </trkpt>
      <trkpt lat="44.46181" lon="5.17166">
        <ele>715.7</ele>
        <time>2021-11-19T13:19:07Z</time>
      </trkpt>
      <trkpt lat="44.46178" lon="5.17172">
        <ele>716</ele>
        <time>2021-11-19T13:19:09Z</time>
      </trkpt>
      <trkpt lat="44.46181" lon="5.17183">
        <ele>716.4</ele>
        <time>2021-11-19T13:19:12Z</time>
      </trkpt>
      <trkpt lat="44.46185" lon="5.17189">
        <ele>716.7</ele>
        <time>2021-11-19T13:19:14Z</time>
      </trkpt>
      <trkpt lat="44.4619" lon="5.17192">
        <ele>717</ele>
        <time>2021-11-19T13:19:15Z</time>
      </trkpt>
      <trkpt lat="44.46197" lon="5.17203">
        <ele>717.4</ele>
        <time>2021-11-19T13:19:17Z</time>
      </trkpt>
      <trkpt lat="44.46201" lon="5.17209">
        <ele>717.6</ele>
        <time>2021-11-19T13:19:19Z</time>
      </trkpt>
      <trkpt lat="44.46205" lon="5.17217">
        <ele>717.8</ele>
        <time>2021-11-19T13:19:21Z</time>
      </trkpt>
      <trkpt lat="44.46207" lon="5.17221">
        <ele>717.9</ele>
        <time>2021-11-19T13:19:22Z</time>
      </trkpt>
      <trkpt lat="44.46209" lon="5.17225">
        <ele>718</ele>
        <time>2021-11-19T13:19:23Z</time>
      </trkpt>
      <trkpt lat="44.46213" lon="5.17233">
        <ele>718.1</ele>
        <time>2021-11-19T13:19:25Z</time>
      </trkpt>
      <trkpt lat="44.46214" lon="5.17238">
        <ele>718.2</ele>
        <time>2021-11-19T13:19:26Z</time>
      </trkpt>
      <trkpt lat="44.46216" lon="5.17242">
        <ele>718.3</ele>
        <time>2021-11-19T13:19:27Z</time>
      </trkpt>
      <trkpt lat="44.46221" lon="5.17251">
        <ele>718.4</ele>
        <time>2021-11-19T13:19:28Z</time>
      </trkpt>
      <trkpt lat="44.46224" lon="5.17255">
        <ele>718.5</ele>
        <time>2021-11-19T13:19:30Z</time>
      </trkpt>
      <trkpt lat="44.46227" lon="5.17258">
        <ele>718.6</ele>
        <time>2021-11-19T13:19:31Z</time>
      </trkpt>
      <trkpt lat="44.4623" lon="5.17262">
        <ele>718.7</ele>
        <time>2021-11-19T13:19:32Z</time>
      </trkpt>
      <trkpt lat="44.46233" lon="5.17266">
        <ele>718.8</ele>
        <time>2021-11-19T13:19:33Z</time>
      </trkpt>
      <trkpt lat="44.46236" lon="5.17275">
        <ele>719</ele>
        <time>2021-11-19T13:19:36Z</time>
      </trkpt>
      <trkpt lat="44.46238" lon="5.17281">
        <ele>719.1</ele>
        <time>2021-11-19T13:19:38Z</time>
      </trkpt>
      <trkpt lat="44.4624" lon="5.17288">
        <ele>719.2</ele>
        <time>2021-11-19T13:19:40Z</time>
      </trkpt>
      <trkpt lat="44.46243" lon="5.17293">
        <ele>719.4</ele>
        <time>2021-11-19T13:19:41Z</time>
      </trkpt>
      <trkpt lat="44.46246" lon="5.17302">
        <ele>719.6</ele>
        <time>2021-11-19T13:19:42Z</time>
      </trkpt>
      <trkpt lat="44.46248" lon="5.17306">
        <ele>719.7</ele>
        <time>2021-11-19T13:19:43Z</time>
      </trkpt>
      <trkpt lat="44.4625" lon="5.17311">
        <ele>719.8</ele>
        <time>2021-11-19T13:19:45Z</time>
      </trkpt>
      <trkpt lat="44.46253" lon="5.17317">
        <ele>720</ele>
        <time>2021-11-19T13:19:46Z</time>
      </trkpt>
      <trkpt lat="44.46256" lon="5.17322">
        <ele>720.2</ele>
        <time>2021-11-19T13:19:47Z</time>
      </trkpt>
      <trkpt lat="44.46262" lon="5.1733">
        <ele>720.5</ele>
        <time>2021-11-19T13:19:49Z</time>
      </trkpt>
      <trkpt lat="44.46263" lon="5.17333">
        <ele>720.6</ele>
        <time>2021-11-19T13:19:50Z</time>
      </trkpt>
      <trkpt lat="44.46267" lon="5.17342">
        <ele>720.9</ele>
        <time>2021-11-19T13:19:52Z</time>
      </trkpt>
      <trkpt lat="44.46269" lon="5.17348">
        <ele>721</ele>
        <time>2021-11-19T13:19:53Z</time>
      </trkpt>
      <trkpt lat="44.4627" lon="5.17352">
        <ele>721.1</ele>
        <time>2021-11-19T13:19:54Z</time>
      </trkpt>
      <trkpt lat="44.46272" lon="5.17355">
        <ele>721.2</ele>
        <time>2021-11-19T13:19:56Z</time>
      </trkpt>
      <trkpt lat="44.46275" lon="5.17359">
        <ele>721.4</ele>
        <time>2021-11-19T13:19:57Z</time>
      </trkpt>
      <trkpt lat="44.46278" lon="5.17366">
        <ele>721.6</ele>
        <time>2021-11-19T13:19:59Z</time>
      </trkpt>
      <trkpt lat="44.4628" lon="5.17371">
        <ele>721.7</ele>
        <time>2021-11-19T13:20:00Z</time>
      </trkpt>
      <trkpt lat="44.4628" lon="5.17375">
        <ele>721.8</ele>
        <time>2021-11-19T13:20:01Z</time>
      </trkpt>
      <trkpt lat="44.46281" lon="5.17382">
        <ele>722</ele>
        <time>2021-11-19T13:20:03Z</time>
      </trkpt>
      <trkpt lat="44.4628" lon="5.17391">
        <ele>722.3</ele>
        <time>2021-11-19T13:20:05Z</time>
      </trkpt>
      <trkpt lat="44.46275" lon="5.17397">
        <ele>722.5</ele>
        <time>2021-11-19T13:20:07Z</time>
      </trkpt>
      <trkpt lat="44.46266" lon="5.17409">
        <ele>723</ele>
        <time>2021-11-19T13:20:10Z</time>
      </trkpt>
      <trkpt lat="44.46257" lon="5.17418">
        <ele>723.4</ele>
        <time>2021-11-19T13:20:12Z</time>
      </trkpt>
      <trkpt lat="44.4625" lon="5.17426">
        <ele>723.8</ele>
        <time>2021-11-19T13:20:14Z</time>
      </trkpt>
      <trkpt lat="44.46243" lon="5.17434">
        <ele>724.2</ele>
        <time>2021-11-19T13:20:16Z</time>
      </trkpt>
      <trkpt lat="44.46238" lon="5.17442">
        <ele>724.4</ele>
        <time>2021-11-19T13:20:18Z</time>
      </trkpt>
      <trkpt lat="44.46236" lon="5.17446">
        <ele>724.6</ele>
        <time>2021-11-19T13:20:20Z</time>
      </trkpt>
      <trkpt lat="44.46234" lon="5.17453">
        <ele>724.8</ele>
        <time>2021-11-19T13:20:22Z</time>
      </trkpt>
      <trkpt lat="44.46234" lon="5.1746">
        <ele>724.9</ele>
        <time>2021-11-19T13:20:24Z</time>
      </trkpt>
      <trkpt lat="44.46233" lon="5.17471">
        <ele>725.2</ele>
        <time>2021-11-19T13:20:25Z</time>
      </trkpt>
      <trkpt lat="44.46233" lon="5.17476">
        <ele>725.3</ele>
        <time>2021-11-19T13:20:27Z</time>
      </trkpt>
      <trkpt lat="44.46233" lon="5.17489">
        <ele>725.7</ele>
        <time>2021-11-19T13:20:30Z</time>
      </trkpt>
      <trkpt lat="44.46231" lon="5.175">
        <ele>726</ele>
        <time>2021-11-19T13:20:32Z</time>
      </trkpt>
      <trkpt lat="44.46228" lon="5.17505">
        <ele>726.1</ele>
        <time>2021-11-19T13:20:33Z</time>
      </trkpt>
      <trkpt lat="44.46222" lon="5.17512">
        <ele>726.4</ele>
        <time>2021-11-19T13:20:35Z</time>
      </trkpt>
      <trkpt lat="44.46219" lon="5.17515">
        <ele>726.5</ele>
        <time>2021-11-19T13:20:36Z</time>
      </trkpt>
      <trkpt lat="44.46212" lon="5.17523">
        <ele>726.8</ele>
        <time>2021-11-19T13:20:37Z</time>
      </trkpt>
      <trkpt lat="44.46207" lon="5.17528">
        <ele>727</ele>
        <time>2021-11-19T13:20:39Z</time>
      </trkpt>
      <trkpt lat="44.46204" lon="5.1753">
        <ele>727.2</ele>
        <time>2021-11-19T13:20:40Z</time>
      </trkpt>
      <trkpt lat="44.46197" lon="5.17534">
        <ele>727.4</ele>
        <time>2021-11-19T13:20:42Z</time>
      </trkpt>
      <trkpt lat="44.46194" lon="5.17537">
        <ele>727.6</ele>
        <time>2021-11-19T13:20:43Z</time>
      </trkpt>
      <trkpt lat="44.46186" lon="5.17544">
        <ele>727.9</ele>
        <time>2021-11-19T13:20:45Z</time>
      </trkpt>
      <trkpt lat="44.46183" lon="5.17548">
        <ele>728</ele>
        <time>2021-11-19T13:20:46Z</time>
      </trkpt>
      <trkpt lat="44.46181" lon="5.17556">
        <ele>728.3</ele>
        <time>2021-11-19T13:20:47Z</time>
      </trkpt>
      <trkpt lat="44.46178" lon="5.17562">
        <ele>728.5</ele>
        <time>2021-11-19T13:20:49Z</time>
      </trkpt>
      <trkpt lat="44.46174" lon="5.17573">
        <ele>728.8</ele>
        <time>2021-11-19T13:20:51Z</time>
      </trkpt>
      <trkpt lat="44.46174" lon="5.1758">
        <ele>729</ele>
        <time>2021-11-19T13:20:53Z</time>
      </trkpt>
      <trkpt lat="44.46173" lon="5.17584">
        <ele>729.1</ele>
        <time>2021-11-19T13:20:54Z</time>
      </trkpt>
      <trkpt lat="44.4617" lon="5.17593">
        <ele>729.3</ele>
        <time>2021-11-19T13:20:56Z</time>
      </trkpt>
      <trkpt lat="44.46168" lon="5.17597">
        <ele>729.5</ele>
        <time>2021-11-19T13:20:57Z</time>
      </trkpt>
      <trkpt lat="44.46165" lon="5.17603">
        <ele>729.7</ele>
        <time>2021-11-19T13:20:59Z</time>
      </trkpt>
      <trkpt lat="44.4617" lon="5.17596">
        <ele>729.9</ele>
        <time>2021-11-19T13:21:02Z</time>
      </trkpt>
      <trkpt lat="44.46171" lon="5.17594">
        <ele>730</ele>
        <time>2021-11-19T13:21:03Z</time>
      </trkpt>
      <trkpt lat="44.46172" lon="5.17591">
        <ele>730.1</ele>
        <time>2021-11-19T13:21:04Z</time>
      </trkpt>
      <trkpt lat="44.46176" lon="5.17586">
        <ele>730.2</ele>
        <time>2021-11-19T13:21:05Z</time>
      </trkpt>
      <trkpt lat="44.46177" lon="5.17584">
        <ele>730.3</ele>
        <time>2021-11-19T13:21:06Z</time>
      </trkpt>
      <trkpt lat="44.46178" lon="5.17583">
        <ele>730.3</ele>
        <time>2021-11-19T13:21:07Z</time>
      </trkpt>
      <trkpt lat="44.46179" lon="5.17584">
        <ele>730.3</ele>
        <time>2021-11-19T13:21:08Z</time>
      </trkpt>
      <trkpt lat="44.46179" lon="5.17587">
        <ele>730.4</ele>
        <time>2021-11-19T13:21:09Z</time>
      </trkpt>
      <trkpt lat="44.4618" lon="5.17589">
        <ele>730.4</ele>
        <time>2021-11-19T13:21:10Z</time>
      </trkpt>
      <trkpt lat="44.4618" lon="5.17591">
        <ele>730.5</ele>
        <time>2021-11-19T13:21:13Z</time>
      </trkpt>
      <trkpt lat="44.4618" lon="5.17593">
        <ele>730.5</ele>
        <time>2021-11-19T13:21:14Z</time>
      </trkpt>
      <trkpt lat="44.46181" lon="5.17596">
        <ele>730.7</ele>
        <time>2021-11-19T13:21:15Z</time>
      </trkpt>
      <trkpt lat="44.46181" lon="5.17598">
        <ele>730.8</ele>
        <time>2021-11-19T13:21:34Z</time>
      </trkpt>
      <trkpt lat="44.46181" lon="5.176">
        <ele>730.8</ele>
        <time>2021-11-19T13:21:35Z</time>
      </trkpt>
      <trkpt lat="44.46182" lon="5.17603">
        <ele>730.9</ele>
        <time>2021-11-19T13:21:36Z</time>
      </trkpt>
      <trkpt lat="44.4618" lon="5.17607">
        <ele>731</ele>
        <time>2021-11-19T13:21:38Z</time>
      </trkpt>
      <trkpt lat="44.4618" lon="5.17609">
        <ele>731.1</ele>
        <time>2021-11-19T13:21:40Z</time>
      </trkpt>
      <trkpt lat="44.46179" lon="5.17612">
        <ele>731.1</ele>
        <time>2021-11-19T13:21:42Z</time>
      </trkpt>
      <trkpt lat="44.46179" lon="5.17612">
        <ele>731.1</ele>
        <time>2021-11-19T13:21:43Z</time>
      </trkpt>
      <trkpt lat="44.46179" lon="5.17611">
        <ele>731.2</ele>
        <time>2021-11-19T13:21:44Z</time>
      </trkpt>
      <trkpt lat="44.46179" lon="5.17611">
        <ele>731.2</ele>
        <time>2021-11-19T13:21:47Z</time>
      </trkpt>
      <trkpt lat="44.46179" lon="5.17611">
        <ele>731.2</ele>
        <time>2021-11-19T13:21:49Z</time>
      </trkpt>
      <trkpt lat="44.46179" lon="5.17611">
        <ele>731.2</ele>
        <time>2021-11-19T13:21:50Z</time>
      </trkpt>
      <trkpt lat="44.46179" lon="5.17611">
        <ele>731.2</ele>
        <time>2021-11-19T13:21:51Z</time>
      </trkpt>
      <trkpt lat="44.46179" lon="5.17611">
        <ele>731.2</ele>
        <time>2021-11-19T13:21:52Z</time>
      </trkpt>
      <trkpt lat="44.46182" lon="5.17615">
        <ele>731.3</ele>
        <time>2021-11-19T13:22:08Z</time>
      </trkpt>
      <trkpt lat="44.46182" lon="5.17617">
        <ele>731.4</ele>
        <time>2021-11-19T13:22:09Z</time>
      </trkpt>
      <trkpt lat="44.46183" lon="5.17618">
        <ele>731.4</ele>
        <time>2021-11-19T13:22:10Z</time>
      </trkpt>
      <trkpt lat="44.46183" lon="5.17619">
        <ele>731.4</ele>
        <time>2021-11-19T13:22:11Z</time>
      </trkpt>
      <trkpt lat="44.46184" lon="5.17621">
        <ele>731.5</ele>
        <time>2021-11-19T13:22:12Z</time>
      </trkpt>
      <trkpt lat="44.46185" lon="5.17621">
        <ele>731.5</ele>
        <time>2021-11-19T13:22:13Z</time>
      </trkpt>
      <trkpt lat="44.46186" lon="5.17621">
        <ele>731.5</ele>
        <time>2021-11-19T13:22:14Z</time>
      </trkpt>
      <trkpt lat="44.46187" lon="5.17621">
        <ele>731.5</ele>
        <time>2021-11-19T13:22:15Z</time>
      </trkpt>
      <trkpt lat="44.46187" lon="5.1762">
        <ele>731.5</ele>
        <time>2021-11-19T13:22:16Z</time>
      </trkpt>
      <trkpt lat="44.46187" lon="5.1762">
        <ele>731.5</ele>
        <time>2021-11-19T13:22:17Z</time>
      </trkpt>
      <trkpt lat="44.46187" lon="5.1762">
        <ele>731.5</ele>
        <time>2021-11-19T13:22:18Z</time>
      </trkpt>
      <trkpt lat="44.46187" lon="5.1762">
        <ele>731.5</ele>
        <time>2021-11-19T13:22:19Z</time>
      </trkpt>
      <trkpt lat="44.46187" lon="5.1762">
        <ele>731.5</ele>
        <time>2021-11-19T13:22:20Z</time>
      </trkpt>
      <trkpt lat="44.46186" lon="5.1762">
        <ele>731.5</ele>
        <time>2021-11-19T13:22:21Z</time>
      </trkpt>
      <trkpt lat="44.46186" lon="5.17621">
        <ele>731.5</ele>
        <time>2021-11-19T13:22:22Z</time>
      </trkpt>
      <trkpt lat="44.46187" lon="5.17621">
        <ele>731.4</ele>
        <time>2021-11-19T13:22:23Z</time>
      </trkpt>
      <trkpt lat="44.46187" lon="5.17622">
        <ele>731.4</ele>
        <time>2021-11-19T13:22:24Z</time>
      </trkpt>
      <trkpt lat="44.46188" lon="5.17624">
        <ele>731.4</ele>
        <time>2021-11-19T13:22:25Z</time>
      </trkpt>
      <trkpt lat="44.46188" lon="5.17625">
        <ele>731.4</ele>
        <time>2021-11-19T13:22:26Z</time>
      </trkpt>
      <trkpt lat="44.46188" lon="5.17626">
        <ele>731.4</ele>
        <time>2021-11-19T13:22:27Z</time>
      </trkpt>
      <trkpt lat="44.46189" lon="5.17627">
        <ele>731.4</ele>
        <time>2021-11-19T13:22:28Z</time>
      </trkpt>
      <trkpt lat="44.46189" lon="5.17628">
        <ele>731.4</ele>
        <time>2021-11-19T13:22:29Z</time>
      </trkpt>
      <trkpt lat="44.46189" lon="5.17629">
        <ele>731.4</ele>
        <time>2021-11-19T13:22:30Z</time>
      </trkpt>
      <trkpt lat="44.4619" lon="5.17629">
        <ele>731.4</ele>
        <time>2021-11-19T13:22:31Z</time>
      </trkpt>
      <trkpt lat="44.4619" lon="5.1763">
        <ele>731.4</ele>
        <time>2021-11-19T13:22:32Z</time>
      </trkpt>
      <trkpt lat="44.4619" lon="5.1763">
        <ele>731.3</ele>
        <time>2021-11-19T13:22:33Z</time>
      </trkpt>
      <trkpt lat="44.46191" lon="5.1763">
        <ele>731.3</ele>
        <time>2021-11-19T13:22:34Z</time>
      </trkpt>
      <trkpt lat="44.46191" lon="5.17629">
        <ele>731.3</ele>
        <time>2021-11-19T13:22:35Z</time>
      </trkpt>
      <trkpt lat="44.46191" lon="5.17629">
        <ele>731.3</ele>
        <time>2021-11-19T13:22:36Z</time>
      </trkpt>
      <trkpt lat="44.46191" lon="5.17629">
        <ele>731.3</ele>
        <time>2021-11-19T13:22:37Z</time>
      </trkpt>
      <trkpt lat="44.46191" lon="5.17629">
        <ele>731.3</ele>
        <time>2021-11-19T13:22:38Z</time>
      </trkpt>
      <trkpt lat="44.46191" lon="5.17628">
        <ele>731.3</ele>
        <time>2021-11-19T13:22:39Z</time>
      </trkpt>
      <trkpt lat="44.46191" lon="5.17628">
        <ele>731.3</ele>
        <time>2021-11-19T13:22:40Z</time>
      </trkpt>
      <trkpt lat="44.46191" lon="5.17627">
        <ele>731.3</ele>
        <time>2021-11-19T13:22:41Z</time>
      </trkpt>
      <trkpt lat="44.46192" lon="5.17627">
        <ele>731.3</ele>
        <time>2021-11-19T13:22:42Z</time>
      </trkpt>
      <trkpt lat="44.46192" lon="5.17626">
        <ele>731.3</ele>
        <time>2021-11-19T13:22:43Z</time>
      </trkpt>
      <trkpt lat="44.46192" lon="5.17625">
        <ele>731.3</ele>
        <time>2021-11-19T13:22:44Z</time>
      </trkpt>
      <trkpt lat="44.46193" lon="5.17624">
        <ele>731.3</ele>
        <time>2021-11-19T13:22:45Z</time>
      </trkpt>
      <trkpt lat="44.46193" lon="5.17623">
        <ele>731.3</ele>
        <time>2021-11-19T13:22:46Z</time>
      </trkpt>
      <trkpt lat="44.46193" lon="5.17622">
        <ele>731.3</ele>
        <time>2021-11-19T13:22:47Z</time>
      </trkpt>
      <trkpt lat="44.46193" lon="5.17621">
        <ele>731.3</ele>
        <time>2021-11-19T13:22:48Z</time>
      </trkpt>
      <trkpt lat="44.46193" lon="5.17621">
        <ele>731.3</ele>
        <time>2021-11-19T13:22:49Z</time>
      </trkpt>
      <trkpt lat="44.46193" lon="5.17621">
        <ele>731.3</ele>
        <time>2021-11-19T13:22:50Z</time>
      </trkpt>
      <trkpt lat="44.46193" lon="5.17621">
        <ele>731.3</ele>
        <time>2021-11-19T13:22:51Z</time>
      </trkpt>
      <trkpt lat="44.46193" lon="5.17621">
        <ele>731.2</ele>
        <time>2021-11-19T13:22:52Z</time>
      </trkpt>
      <trkpt lat="44.46193" lon="5.17621">
        <ele>731.2</ele>
        <time>2021-11-19T13:22:53Z</time>
      </trkpt>
      <trkpt lat="44.46193" lon="5.17621">
        <ele>731.2</ele>
        <time>2021-11-19T13:22:54Z</time>
      </trkpt>
      <trkpt lat="44.46193" lon="5.17621">
        <ele>731.2</ele>
        <time>2021-11-19T13:22:55Z</time>
      </trkpt>
      <trkpt lat="44.46193" lon="5.17621">
        <ele>731.2</ele>
        <time>2021-11-19T13:22:56Z</time>
      </trkpt>
      <trkpt lat="44.46193" lon="5.17621">
        <ele>731.2</ele>
        <time>2021-11-19T13:22:57Z</time>
      </trkpt>
      <trkpt lat="44.46193" lon="5.17621">
        <ele>731.2</ele>
        <time>2021-11-19T13:22:58Z</time>
      </trkpt>
      <trkpt lat="44.46193" lon="5.17621">
        <ele>731.2</ele>
        <time>2021-11-19T13:22:59Z</time>
      </trkpt>
      <trkpt lat="44.46191" lon="5.17625">
        <ele>731.2</ele>
        <time>2021-11-19T13:23:31Z</time>
      </trkpt>
      <trkpt lat="44.46191" lon="5.17626">
        <ele>731.2</ele>
        <time>2021-11-19T13:23:32Z</time>
      </trkpt>
      <trkpt lat="44.46191" lon="5.17626">
        <ele>731.2</ele>
        <time>2021-11-19T13:23:33Z</time>
      </trkpt>
      <trkpt lat="44.46191" lon="5.17626">
        <ele>731.2</ele>
        <time>2021-11-19T13:23:34Z</time>
      </trkpt>
      <trkpt lat="44.46191" lon="5.17626">
        <ele>731.2</ele>
        <time>2021-11-19T13:23:35Z</time>
      </trkpt>
      <trkpt lat="44.46191" lon="5.17626">
        <ele>731.2</ele>
        <time>2021-11-19T13:23:36Z</time>
      </trkpt>
      <trkpt lat="44.46191" lon="5.17626">
        <ele>731.2</ele>
        <time>2021-11-19T13:23:37Z</time>
      </trkpt>
      <trkpt lat="44.46191" lon="5.17626">
        <ele>731.2</ele>
        <time>2021-11-19T13:23:38Z</time>
      </trkpt>
      <trkpt lat="44.46191" lon="5.17626">
        <ele>731.2</ele>
        <time>2021-11-19T13:23:39Z</time>
      </trkpt>
      <trkpt lat="44.46191" lon="5.17626">
        <ele>731.2</ele>
        <time>2021-11-19T13:23:40Z</time>
      </trkpt>
      <trkpt lat="44.46191" lon="5.17626">
        <ele>731.2</ele>
        <time>2021-11-19T13:23:41Z</time>
      </trkpt>
      <trkpt lat="44.4619" lon="5.17627">
        <ele>731.2</ele>
        <time>2021-11-19T13:23:42Z</time>
      </trkpt>
      <trkpt lat="44.4619" lon="5.17626">
        <ele>731.2</ele>
        <time>2021-11-19T13:23:43Z</time>
      </trkpt>
      <trkpt lat="44.46189" lon="5.17625">
        <ele>731.2</ele>
        <time>2021-11-19T13:23:44Z</time>
      </trkpt>
      <trkpt lat="44.46189" lon="5.17624">
        <ele>731.1</ele>
        <time>2021-11-19T13:23:45Z</time>
      </trkpt>
      <trkpt lat="44.46189" lon="5.17623">
        <ele>731.1</ele>
        <time>2021-11-19T13:23:46Z</time>
      </trkpt>
      <trkpt lat="44.46189" lon="5.17622">
        <ele>731.1</ele>
        <time>2021-11-19T13:23:47Z</time>
      </trkpt>
      <trkpt lat="44.46189" lon="5.17621">
        <ele>731.1</ele>
        <time>2021-11-19T13:23:48Z</time>
      </trkpt>
      <trkpt lat="44.46188" lon="5.17621">
        <ele>731.1</ele>
        <time>2021-11-19T13:23:49Z</time>
      </trkpt>
      <trkpt lat="44.46188" lon="5.17621">
        <ele>731.1</ele>
        <time>2021-11-19T13:23:50Z</time>
      </trkpt>
      <trkpt lat="44.46188" lon="5.17621">
        <ele>731.1</ele>
        <time>2021-11-19T13:23:51Z</time>
      </trkpt>
      <trkpt lat="44.46187" lon="5.17621">
        <ele>731.1</ele>
        <time>2021-11-19T13:23:52Z</time>
      </trkpt>
      <trkpt lat="44.46187" lon="5.17621">
        <ele>731.1</ele>
        <time>2021-11-19T13:23:53Z</time>
      </trkpt>
      <trkpt lat="44.46186" lon="5.17621">
        <ele>731.1</ele>
        <time>2021-11-19T13:23:54Z</time>
      </trkpt>
      <trkpt lat="44.46186" lon="5.17621">
        <ele>731.1</ele>
        <time>2021-11-19T13:23:55Z</time>
      </trkpt>
      <trkpt lat="44.46185" lon="5.17621">
        <ele>731.1</ele>
        <time>2021-11-19T13:23:56Z</time>
      </trkpt>
      <trkpt lat="44.46185" lon="5.1762">
        <ele>731.1</ele>
        <time>2021-11-19T13:23:57Z</time>
      </trkpt>
      <trkpt lat="44.46184" lon="5.1762">
        <ele>731.1</ele>
        <time>2021-11-19T13:23:58Z</time>
      </trkpt>
      <trkpt lat="44.46184" lon="5.1762">
        <ele>731.1</ele>
        <time>2021-11-19T13:23:59Z</time>
      </trkpt>
      <trkpt lat="44.46184" lon="5.1762">
        <ele>731</ele>
        <time>2021-11-19T13:24:58Z</time>
      </trkpt>
      <trkpt lat="44.46183" lon="5.1762">
        <ele>731</ele>
        <time>2021-11-19T13:25:00Z</time>
      </trkpt>
      <trkpt lat="44.46183" lon="5.1762">
        <ele>731</ele>
        <time>2021-11-19T13:25:01Z</time>
      </trkpt>
      <trkpt lat="44.46182" lon="5.1762">
        <ele>731</ele>
        <time>2021-11-19T13:25:04Z</time>
      </trkpt>
      <trkpt lat="44.46182" lon="5.1762">
        <ele>731</ele>
        <time>2021-11-19T13:25:05Z</time>
      </trkpt>
      <trkpt lat="44.46181" lon="5.1762">
        <ele>731</ele>
        <time>2021-11-19T13:25:06Z</time>
      </trkpt>
      <trkpt lat="44.46181" lon="5.1762">
        <ele>731</ele>
        <time>2021-11-19T13:25:09Z</time>
      </trkpt>
      <trkpt lat="44.4618" lon="5.17619">
        <ele>731</ele>
        <time>2021-11-19T13:25:09Z</time>
      </trkpt>
      <trkpt lat="44.4618" lon="5.17618">
        <ele>731</ele>
        <time>2021-11-19T13:25:10Z</time>
      </trkpt>
      <trkpt lat="44.46179" lon="5.17616">
        <ele>731</ele>
        <time>2021-11-19T13:25:11Z</time>
      </trkpt>
      <trkpt lat="44.46177" lon="5.17613">
        <ele>730.9</ele>
        <time>2021-11-19T13:25:12Z</time>
      </trkpt>
      <trkpt lat="44.46174" lon="5.17609">
        <ele>730.9</ele>
        <time>2021-11-19T13:25:15Z</time>
      </trkpt>
      <trkpt lat="44.46173" lon="5.17608">
        <ele>730.8</ele>
        <time>2021-11-19T13:25:16Z</time>
      </trkpt>
      <trkpt lat="44.46173" lon="5.17608">
        <ele>730.8</ele>
        <time>2021-11-19T13:25:17Z</time>
      </trkpt>
      <trkpt lat="44.46172" lon="5.17608">
        <ele>730.8</ele>
        <time>2021-11-19T13:25:18Z</time>
      </trkpt>
      <trkpt lat="44.46172" lon="5.17607">
        <ele>730.8</ele>
        <time>2021-11-19T13:25:19Z</time>
      </trkpt>
      <trkpt lat="44.46172" lon="5.17607">
        <ele>730.8</ele>
        <time>2021-11-19T13:25:20Z</time>
      </trkpt>
      <trkpt lat="44.46171" lon="5.17606">
        <ele>730.8</ele>
        <time>2021-11-19T13:25:21Z</time>
      </trkpt>
      <trkpt lat="44.46171" lon="5.17606">
        <ele>730.8</ele>
        <time>2021-11-19T13:25:22Z</time>
      </trkpt>
      <trkpt lat="44.4617" lon="5.17606">
        <ele>730.8</ele>
        <time>2021-11-19T13:25:23Z</time>
      </trkpt>
      <trkpt lat="44.4617" lon="5.17605">
        <ele>730.5</ele>
        <time>2021-11-19T13:25:24Z</time>
      </trkpt>
      <trkpt lat="44.4617" lon="5.17605">
        <ele>730.4</ele>
        <time>2021-11-19T13:25:25Z</time>
      </trkpt>
      <trkpt lat="44.46169" lon="5.17604">
        <ele>730.4</ele>
        <time>2021-11-19T13:25:54Z</time>
      </trkpt>
      <trkpt lat="44.46169" lon="5.17604">
        <ele>730.4</ele>
        <time>2021-11-19T13:25:55Z</time>
      </trkpt>
      <trkpt lat="44.46169" lon="5.17604">
        <ele>730.4</ele>
        <time>2021-11-19T13:25:56Z</time>
      </trkpt>
      <trkpt lat="44.46165" lon="5.17602">
        <ele>730.2</ele>
        <time>2021-11-19T13:25:58Z</time>
      </trkpt>
      <trkpt lat="44.46162" lon="5.17599">
        <ele>730.1</ele>
        <time>2021-11-19T13:25:59Z</time>
      </trkpt>
      <trkpt lat="44.46156" lon="5.17596">
        <ele>729.8</ele>
        <time>2021-11-19T13:26:00Z</time>
      </trkpt>
      <trkpt lat="44.46148" lon="5.17592">
        <ele>729.5</ele>
        <time>2021-11-19T13:26:01Z</time>
      </trkpt>
      <trkpt lat="44.46141" lon="5.17591">
        <ele>729.2</ele>
        <time>2021-11-19T13:26:03Z</time>
      </trkpt>
      <trkpt lat="44.4613" lon="5.17588">
        <ele>728.8</ele>
        <time>2021-11-19T13:26:05Z</time>
      </trkpt>
      <trkpt lat="44.46124" lon="5.17589">
        <ele>728.5</ele>
        <time>2021-11-19T13:26:06Z</time>
      </trkpt>
      <trkpt lat="44.46115" lon="5.17591">
        <ele>728.2</ele>
        <time>2021-11-19T13:26:09Z</time>
      </trkpt>
      <trkpt lat="44.46103" lon="5.17593">
        <ele>727.8</ele>
        <time>2021-11-19T13:26:10Z</time>
      </trkpt>
      <trkpt lat="44.46107" lon="5.17599">
        <ele>727.6</ele>
        <time>2021-11-19T13:26:12Z</time>
      </trkpt>
      <trkpt lat="44.46097" lon="5.176">
        <ele>727.3</ele>
        <time>2021-11-19T13:26:13Z</time>
      </trkpt>
      <trkpt lat="44.46096" lon="5.17601">
        <ele>727.2</ele>
        <time>2021-11-19T13:26:16Z</time>
      </trkpt>
      <trkpt lat="44.461" lon="5.17598">
        <ele>727.1</ele>
        <time>2021-11-19T13:26:19Z</time>
      </trkpt>
      <trkpt lat="44.46101" lon="5.17598">
        <ele>727</ele>
        <time>2021-11-19T13:26:20Z</time>
      </trkpt>
      <trkpt lat="44.46101" lon="5.17598">
        <ele>727</ele>
        <time>2021-11-19T13:26:21Z</time>
      </trkpt>
      <trkpt lat="44.46101" lon="5.17598">
        <ele>727</ele>
        <time>2021-11-19T13:26:22Z</time>
      </trkpt>
      <trkpt lat="44.46101" lon="5.17597">
        <ele>727</ele>
        <time>2021-11-19T13:26:23Z</time>
      </trkpt>
      <trkpt lat="44.46101" lon="5.17597">
        <ele>727</ele>
        <time>2021-11-19T13:26:24Z</time>
      </trkpt>
      <trkpt lat="44.46101" lon="5.17598">
        <ele>727</ele>
        <time>2021-11-19T13:26:25Z</time>
      </trkpt>
      <trkpt lat="44.46101" lon="5.17598">
        <ele>727</ele>
        <time>2021-11-19T13:26:26Z</time>
      </trkpt>
      <trkpt lat="44.46096" lon="5.17601">
        <ele>726.9</ele>
        <time>2021-11-19T13:26:36Z</time>
      </trkpt>
      <trkpt lat="44.46095" lon="5.17604">
        <ele>726.8</ele>
        <time>2021-11-19T13:26:37Z</time>
      </trkpt>
      <trkpt lat="44.46092" lon="5.17611">
        <ele>726.6</ele>
        <time>2021-11-19T13:26:38Z</time>
      </trkpt>
      <trkpt lat="44.46076" lon="5.17619">
        <ele>726.2</ele>
        <time>2021-11-19T13:26:41Z</time>
      </trkpt>
      <trkpt lat="44.46068" lon="5.17631">
        <ele>725.9</ele>
        <time>2021-11-19T13:26:43Z</time>
      </trkpt>
      <trkpt lat="44.46064" lon="5.17643">
        <ele>725.6</ele>
        <time>2021-11-19T13:26:45Z</time>
      </trkpt>
      <trkpt lat="44.46061" lon="5.17648">
        <ele>725.5</ele>
        <time>2021-11-19T13:26:46Z</time>
      </trkpt>
      <trkpt lat="44.46057" lon="5.17653">
        <ele>725.4</ele>
        <time>2021-11-19T13:26:47Z</time>
      </trkpt>
      <trkpt lat="44.46053" lon="5.17658">
        <ele>725.3</ele>
        <time>2021-11-19T13:26:48Z</time>
      </trkpt>
      <trkpt lat="44.46049" lon="5.17664">
        <ele>725.1</ele>
        <time>2021-11-19T13:26:49Z</time>
      </trkpt>
      <trkpt lat="44.46045" lon="5.17669">
        <ele>725</ele>
        <time>2021-11-19T13:26:50Z</time>
      </trkpt>
      <trkpt lat="44.46041" lon="5.17675">
        <ele>724.8</ele>
        <time>2021-11-19T13:26:51Z</time>
      </trkpt>
      <trkpt lat="44.46036" lon="5.17681">
        <ele>724.7</ele>
        <time>2021-11-19T13:26:52Z</time>
      </trkpt>
      <trkpt lat="44.46032" lon="5.17687">
        <ele>724.5</ele>
        <time>2021-11-19T13:26:53Z</time>
      </trkpt>
      <trkpt lat="44.46027" lon="5.17693">
        <ele>724.3</ele>
        <time>2021-11-19T13:26:54Z</time>
      </trkpt>
      <trkpt lat="44.46023" lon="5.177">
        <ele>724.2</ele>
        <time>2021-11-19T13:26:55Z</time>
      </trkpt>
      <trkpt lat="44.46018" lon="5.17706">
        <ele>724</ele>
        <time>2021-11-19T13:26:56Z</time>
      </trkpt>
      <trkpt lat="44.46014" lon="5.17712">
        <ele>723.8</ele>
        <time>2021-11-19T13:26:57Z</time>
      </trkpt>
      <trkpt lat="44.46009" lon="5.17719">
        <ele>723.6</ele>
        <time>2021-11-19T13:26:58Z</time>
      </trkpt>
      <trkpt lat="44.46004" lon="5.17726">
        <ele>723.4</ele>
        <time>2021-11-19T13:26:59Z</time>
      </trkpt>
      <trkpt lat="44.46" lon="5.17732">
        <ele>723.2</ele>
        <time>2021-11-19T13:27:00Z</time>
      </trkpt>
      <trkpt lat="44.45994" lon="5.17739">
        <ele>723.1</ele>
        <time>2021-11-19T13:27:01Z</time>
      </trkpt>
      <trkpt lat="44.45989" lon="5.17744">
        <ele>722.9</ele>
        <time>2021-11-19T13:27:02Z</time>
      </trkpt>
      <trkpt lat="44.45984" lon="5.17751">
        <ele>722.7</ele>
        <time>2021-11-19T13:27:03Z</time>
      </trkpt>
      <trkpt lat="44.45979" lon="5.17758">
        <ele>722.6</ele>
        <time>2021-11-19T13:27:04Z</time>
      </trkpt>
      <trkpt lat="44.45975" lon="5.17766">
        <ele>722.4</ele>
        <time>2021-11-19T13:27:05Z</time>
      </trkpt>
      <trkpt lat="44.4597" lon="5.17772">
        <ele>722.2</ele>
        <time>2021-11-19T13:27:06Z</time>
      </trkpt>
      <trkpt lat="44.45965" lon="5.17779">
        <ele>722</ele>
        <time>2021-11-19T13:27:07Z</time>
      </trkpt>
      <trkpt lat="44.45959" lon="5.17786">
        <ele>721.8</ele>
        <time>2021-11-19T13:27:08Z</time>
      </trkpt>
      <trkpt lat="44.45954" lon="5.17793">
        <ele>721.6</ele>
        <time>2021-11-19T13:27:09Z</time>
      </trkpt>
      <trkpt lat="44.45948" lon="5.17799">
        <ele>721.3</ele>
        <time>2021-11-19T13:27:10Z</time>
      </trkpt>
      <trkpt lat="44.45943" lon="5.17806">
        <ele>721.1</ele>
        <time>2021-11-19T13:27:11Z</time>
      </trkpt>
      <trkpt lat="44.45937" lon="5.17812">
        <ele>720.9</ele>
        <time>2021-11-19T13:27:12Z</time>
      </trkpt>
      <trkpt lat="44.45932" lon="5.17818">
        <ele>720.6</ele>
        <time>2021-11-19T13:27:13Z</time>
      </trkpt>
      <trkpt lat="44.45926" lon="5.17824">
        <ele>720.4</ele>
        <time>2021-11-19T13:27:14Z</time>
      </trkpt>
      <trkpt lat="44.45919" lon="5.17829">
        <ele>720.1</ele>
        <time>2021-11-19T13:27:15Z</time>
      </trkpt>
      <trkpt lat="44.45913" lon="5.17834">
        <ele>719.9</ele>
        <time>2021-11-19T13:27:16Z</time>
      </trkpt>
      <trkpt lat="44.45907" lon="5.1784">
        <ele>719.6</ele>
        <time>2021-11-19T13:27:17Z</time>
      </trkpt>
      <trkpt lat="44.45902" lon="5.17847">
        <ele>719.4</ele>
        <time>2021-11-19T13:27:18Z</time>
      </trkpt>
      <trkpt lat="44.45898" lon="5.17856">
        <ele>719.1</ele>
        <time>2021-11-19T13:27:19Z</time>
      </trkpt>
      <trkpt lat="44.45896" lon="5.17867">
        <ele>718.8</ele>
        <time>2021-11-19T13:27:20Z</time>
      </trkpt>
      <trkpt lat="44.45895" lon="5.17878">
        <ele>718.5</ele>
        <time>2021-11-19T13:27:21Z</time>
      </trkpt>
      <trkpt lat="44.45895" lon="5.17889">
        <ele>718.2</ele>
        <time>2021-11-19T13:27:22Z</time>
      </trkpt>
      <trkpt lat="44.45897" lon="5.17899">
        <ele>717.8</ele>
        <time>2021-11-19T13:27:23Z</time>
      </trkpt>
      <trkpt lat="44.45898" lon="5.1791">
        <ele>717.5</ele>
        <time>2021-11-19T13:27:24Z</time>
      </trkpt>
      <trkpt lat="44.459" lon="5.17921">
        <ele>717.1</ele>
        <time>2021-11-19T13:27:25Z</time>
      </trkpt>
      <trkpt lat="44.45901" lon="5.17932">
        <ele>716.7</ele>
        <time>2021-11-19T13:27:26Z</time>
      </trkpt>
      <trkpt lat="44.45902" lon="5.17943">
        <ele>716.4</ele>
        <time>2021-11-19T13:27:27Z</time>
      </trkpt>
      <trkpt lat="44.45903" lon="5.17954">
        <ele>716</ele>
        <time>2021-11-19T13:27:28Z</time>
      </trkpt>
      <trkpt lat="44.45903" lon="5.17965">
        <ele>715.6</ele>
        <time>2021-11-19T13:27:29Z</time>
      </trkpt>
      <trkpt lat="44.45902" lon="5.17976">
        <ele>715.2</ele>
        <time>2021-11-19T13:27:30Z</time>
      </trkpt>
      <trkpt lat="44.45901" lon="5.17988">
        <ele>714.8</ele>
        <time>2021-11-19T13:27:31Z</time>
      </trkpt>
      <trkpt lat="44.45899" lon="5.17999">
        <ele>714.3</ele>
        <time>2021-11-19T13:27:32Z</time>
      </trkpt>
      <trkpt lat="44.45895" lon="5.1801">
        <ele>713.9</ele>
        <time>2021-11-19T13:27:33Z</time>
      </trkpt>
      <trkpt lat="44.45892" lon="5.18019">
        <ele>713.5</ele>
        <time>2021-11-19T13:27:34Z</time>
      </trkpt>
      <trkpt lat="44.45888" lon="5.18027">
        <ele>713.2</ele>
        <time>2021-11-19T13:27:35Z</time>
      </trkpt>
      <trkpt lat="44.45885" lon="5.18033">
        <ele>712.9</ele>
        <time>2021-11-19T13:27:36Z</time>
      </trkpt>
      <trkpt lat="44.45883" lon="5.18037">
        <ele>712.7</ele>
        <time>2021-11-19T13:27:37Z</time>
      </trkpt>
      <trkpt lat="44.45882" lon="5.1804">
        <ele>712.6</ele>
        <time>2021-11-19T13:27:38Z</time>
      </trkpt>
      <trkpt lat="44.45881" lon="5.18042">
        <ele>712.5</ele>
        <time>2021-11-19T13:27:39Z</time>
      </trkpt>
      <trkpt lat="44.45882" lon="5.18042">
        <ele>712.5</ele>
        <time>2021-11-19T13:27:40Z</time>
      </trkpt>
      <trkpt lat="44.45882" lon="5.18041">
        <ele>712.5</ele>
        <time>2021-11-19T13:27:41Z</time>
      </trkpt>
      <trkpt lat="44.45881" lon="5.1804">
        <ele>712.5</ele>
        <time>2021-11-19T13:27:42Z</time>
      </trkpt>
      <trkpt lat="44.45881" lon="5.1804">
        <ele>712.5</ele>
        <time>2021-11-19T13:27:43Z</time>
      </trkpt>
      <trkpt lat="44.45881" lon="5.1804">
        <ele>712.5</ele>
        <time>2021-11-19T13:27:44Z</time>
      </trkpt>
      <trkpt lat="44.45882" lon="5.18042">
        <ele>712.4</ele>
        <time>2021-11-19T13:27:45Z</time>
      </trkpt>
      <trkpt lat="44.45884" lon="5.18042">
        <ele>712.3</ele>
        <time>2021-11-19T13:27:48Z</time>
      </trkpt>
      <trkpt lat="44.45888" lon="5.18065">
        <ele>711.5</ele>
        <time>2021-11-19T13:27:51Z</time>
      </trkpt>
      <trkpt lat="44.45888" lon="5.18088">
        <ele>710.8</ele>
        <time>2021-11-19T13:27:54Z</time>
      </trkpt>
      <trkpt lat="44.4589" lon="5.18097">
        <ele>710.6</ele>
        <time>2021-11-19T13:27:55Z</time>
      </trkpt>
      <trkpt lat="44.45894" lon="5.18105">
        <ele>710.4</ele>
        <time>2021-11-19T13:27:56Z</time>
      </trkpt>
      <trkpt lat="44.459" lon="5.18111">
        <ele>710.2</ele>
        <time>2021-11-19T13:27:57Z</time>
      </trkpt>
      <trkpt lat="44.45905" lon="5.18116">
        <ele>710</ele>
        <time>2021-11-19T13:27:58Z</time>
      </trkpt>
      <trkpt lat="44.45911" lon="5.18119">
        <ele>709.7</ele>
        <time>2021-11-19T13:27:59Z</time>
      </trkpt>
      <trkpt lat="44.45917" lon="5.18123">
        <ele>709.3</ele>
        <time>2021-11-19T13:28:00Z</time>
      </trkpt>
      <trkpt lat="44.45922" lon="5.18129">
        <ele>708.9</ele>
        <time>2021-11-19T13:28:01Z</time>
      </trkpt>
      <trkpt lat="44.45926" lon="5.18136">
        <ele>708.4</ele>
        <time>2021-11-19T13:28:02Z</time>
      </trkpt>
      <trkpt lat="44.45927" lon="5.18144">
        <ele>707.9</ele>
        <time>2021-11-19T13:28:03Z</time>
      </trkpt>
      <trkpt lat="44.45924" lon="5.18154">
        <ele>707.3</ele>
        <time>2021-11-19T13:28:04Z</time>
      </trkpt>
      <trkpt lat="44.45921" lon="5.18163">
        <ele>706.8</ele>
        <time>2021-11-19T13:28:05Z</time>
      </trkpt>
      <trkpt lat="44.45918" lon="5.18172">
        <ele>706.2</ele>
        <time>2021-11-19T13:28:06Z</time>
      </trkpt>
      <trkpt lat="44.45914" lon="5.18182">
        <ele>705.6</ele>
        <time>2021-11-19T13:28:07Z</time>
      </trkpt>
      <trkpt lat="44.45912" lon="5.18193">
        <ele>704.9</ele>
        <time>2021-11-19T13:28:08Z</time>
      </trkpt>
      <trkpt lat="44.4591" lon="5.18205">
        <ele>704.2</ele>
        <time>2021-11-19T13:28:09Z</time>
      </trkpt>
      <trkpt lat="44.45909" lon="5.18217">
        <ele>703.6</ele>
        <time>2021-11-19T13:28:10Z</time>
      </trkpt>
      <trkpt lat="44.45907" lon="5.18229">
        <ele>702.9</ele>
        <time>2021-11-19T13:28:11Z</time>
      </trkpt>
      <trkpt lat="44.45905" lon="5.18241">
        <ele>702.2</ele>
        <time>2021-11-19T13:28:12Z</time>
      </trkpt>
      <trkpt lat="44.45902" lon="5.18252">
        <ele>701.5</ele>
        <time>2021-11-19T13:28:13Z</time>
      </trkpt>
      <trkpt lat="44.45898" lon="5.18264">
        <ele>700.8</ele>
        <time>2021-11-19T13:28:14Z</time>
      </trkpt>
      <trkpt lat="44.45894" lon="5.18277">
        <ele>700.1</ele>
        <time>2021-11-19T13:28:15Z</time>
      </trkpt>
      <trkpt lat="44.45889" lon="5.18289">
        <ele>699.4</ele>
        <time>2021-11-19T13:28:16Z</time>
      </trkpt>
      <trkpt lat="44.45886" lon="5.18301">
        <ele>698.7</ele>
        <time>2021-11-19T13:28:17Z</time>
      </trkpt>
      <trkpt lat="44.45884" lon="5.18314">
        <ele>698.1</ele>
        <time>2021-11-19T13:28:18Z</time>
      </trkpt>
      <trkpt lat="44.45883" lon="5.18327">
        <ele>697.4</ele>
        <time>2021-11-19T13:28:19Z</time>
      </trkpt>
      <trkpt lat="44.45882" lon="5.1834">
        <ele>696.7</ele>
        <time>2021-11-19T13:28:20Z</time>
      </trkpt>
      <trkpt lat="44.45882" lon="5.18352">
        <ele>695.9</ele>
        <time>2021-11-19T13:28:21Z</time>
      </trkpt>
      <trkpt lat="44.45882" lon="5.18366">
        <ele>695.2</ele>
        <time>2021-11-19T13:28:22Z</time>
      </trkpt>
      <trkpt lat="44.45881" lon="5.18379">
        <ele>694.5</ele>
        <time>2021-11-19T13:28:23Z</time>
      </trkpt>
      <trkpt lat="44.4588" lon="5.18394">
        <ele>693.8</ele>
        <time>2021-11-19T13:28:24Z</time>
      </trkpt>
      <trkpt lat="44.45879" lon="5.18408">
        <ele>693.1</ele>
        <time>2021-11-19T13:28:25Z</time>
      </trkpt>
      <trkpt lat="44.45878" lon="5.18422">
        <ele>692.4</ele>
        <time>2021-11-19T13:28:26Z</time>
      </trkpt>
      <trkpt lat="44.45878" lon="5.18437">
        <ele>691.7</ele>
        <time>2021-11-19T13:28:27Z</time>
      </trkpt>
      <trkpt lat="44.45878" lon="5.18451">
        <ele>691</ele>
        <time>2021-11-19T13:28:28Z</time>
      </trkpt>
      <trkpt lat="44.45877" lon="5.18466">
        <ele>690.3</ele>
        <time>2021-11-19T13:28:29Z</time>
      </trkpt>
      <trkpt lat="44.45876" lon="5.1848">
        <ele>689.7</ele>
        <time>2021-11-19T13:28:30Z</time>
      </trkpt>
      <trkpt lat="44.45876" lon="5.18494">
        <ele>689</ele>
        <time>2021-11-19T13:28:31Z</time>
      </trkpt>
      <trkpt lat="44.45875" lon="5.18505">
        <ele>688.4</ele>
        <time>2021-11-19T13:28:32Z</time>
      </trkpt>
      <trkpt lat="44.45875" lon="5.18515">
        <ele>687.9</ele>
        <time>2021-11-19T13:28:33Z</time>
      </trkpt>
      <trkpt lat="44.45876" lon="5.18524">
        <ele>687.4</ele>
        <time>2021-11-19T13:28:34Z</time>
      </trkpt>
      <trkpt lat="44.45878" lon="5.18533">
        <ele>687.1</ele>
        <time>2021-11-19T13:28:35Z</time>
      </trkpt>
      <trkpt lat="44.45883" lon="5.18542">
        <ele>687</ele>
        <time>2021-11-19T13:28:36Z</time>
      </trkpt>
      <trkpt lat="44.45888" lon="5.18552">
        <ele>686.2</ele>
        <time>2021-11-19T13:28:37Z</time>
      </trkpt>
      <trkpt lat="44.45893" lon="5.18561">
        <ele>685.5</ele>
        <time>2021-11-19T13:28:38Z</time>
      </trkpt>
      <trkpt lat="44.45897" lon="5.18571">
        <ele>684.8</ele>
        <time>2021-11-19T13:28:39Z</time>
      </trkpt>
      <trkpt lat="44.45899" lon="5.18582">
        <ele>684.2</ele>
        <time>2021-11-19T13:28:40Z</time>
      </trkpt>
      <trkpt lat="44.45901" lon="5.18592">
        <ele>683.5</ele>
        <time>2021-11-19T13:28:41Z</time>
      </trkpt>
      <trkpt lat="44.45901" lon="5.18604">
        <ele>682.8</ele>
        <time>2021-11-19T13:28:42Z</time>
      </trkpt>
      <trkpt lat="44.45901" lon="5.18617">
        <ele>682.1</ele>
        <time>2021-11-19T13:28:43Z</time>
      </trkpt>
      <trkpt lat="44.459" lon="5.1863">
        <ele>681.3</ele>
        <time>2021-11-19T13:28:44Z</time>
      </trkpt>
      <trkpt lat="44.45899" lon="5.18643">
        <ele>680.6</ele>
        <time>2021-11-19T13:28:45Z</time>
      </trkpt>
      <trkpt lat="44.45896" lon="5.18654">
        <ele>679.9</ele>
        <time>2021-11-19T13:28:46Z</time>
      </trkpt>
      <trkpt lat="44.45894" lon="5.18664">
        <ele>679.3</ele>
        <time>2021-11-19T13:28:47Z</time>
      </trkpt>
      <trkpt lat="44.4589" lon="5.18674">
        <ele>678.7</ele>
        <time>2021-11-19T13:28:48Z</time>
      </trkpt>
      <trkpt lat="44.45886" lon="5.18683">
        <ele>678.1</ele>
        <time>2021-11-19T13:28:49Z</time>
      </trkpt>
      <trkpt lat="44.45881" lon="5.18691">
        <ele>677.4</ele>
        <time>2021-11-19T13:28:50Z</time>
      </trkpt>
      <trkpt lat="44.45874" lon="5.18698">
        <ele>676.7</ele>
        <time>2021-11-19T13:28:51Z</time>
      </trkpt>
      <trkpt lat="44.45868" lon="5.18704">
        <ele>676</ele>
        <time>2021-11-19T13:28:52Z</time>
      </trkpt>
      <trkpt lat="44.45861" lon="5.18712">
        <ele>675.2</ele>
        <time>2021-11-19T13:28:53Z</time>
      </trkpt>
      <trkpt lat="44.45855" lon="5.18722">
        <ele>674.5</ele>
        <time>2021-11-19T13:28:54Z</time>
      </trkpt>
      <trkpt lat="44.4585" lon="5.18733">
        <ele>673.6</ele>
        <time>2021-11-19T13:28:55Z</time>
      </trkpt>
      <trkpt lat="44.45845" lon="5.18744">
        <ele>672.9</ele>
        <time>2021-11-19T13:28:56Z</time>
      </trkpt>
      <trkpt lat="44.45841" lon="5.18755">
        <ele>672.2</ele>
        <time>2021-11-19T13:28:57Z</time>
      </trkpt>
      <trkpt lat="44.45838" lon="5.18765">
        <ele>671.5</ele>
        <time>2021-11-19T13:28:58Z</time>
      </trkpt>
      <trkpt lat="44.45834" lon="5.18775">
        <ele>671</ele>
        <time>2021-11-19T13:28:59Z</time>
      </trkpt>
      <trkpt lat="44.45831" lon="5.18782">
        <ele>670.5</ele>
        <time>2021-11-19T13:29:00Z</time>
      </trkpt>
      <trkpt lat="44.45829" lon="5.18789">
        <ele>670</ele>
        <time>2021-11-19T13:29:01Z</time>
      </trkpt>
      <trkpt lat="44.45826" lon="5.18796">
        <ele>669.6</ele>
        <time>2021-11-19T13:29:02Z</time>
      </trkpt>
      <trkpt lat="44.45824" lon="5.18803">
        <ele>669.1</ele>
        <time>2021-11-19T13:29:03Z</time>
      </trkpt>
      <trkpt lat="44.4582" lon="5.18811">
        <ele>668.5</ele>
        <time>2021-11-19T13:29:04Z</time>
      </trkpt>
      <trkpt lat="44.45816" lon="5.18819">
        <ele>667.9</ele>
        <time>2021-11-19T13:29:05Z</time>
      </trkpt>
      <trkpt lat="44.45811" lon="5.18826">
        <ele>667.3</ele>
        <time>2021-11-19T13:29:06Z</time>
      </trkpt>
      <trkpt lat="44.45804" lon="5.18832">
        <ele>666.7</ele>
        <time>2021-11-19T13:29:07Z</time>
      </trkpt>
      <trkpt lat="44.45795" lon="5.18837">
        <ele>666</ele>
        <time>2021-11-19T13:29:08Z</time>
      </trkpt>
      <trkpt lat="44.45787" lon="5.1884">
        <ele>665.3</ele>
        <time>2021-11-19T13:29:09Z</time>
      </trkpt>
      <trkpt lat="44.45778" lon="5.18844">
        <ele>664.6</ele>
        <time>2021-11-19T13:29:10Z</time>
      </trkpt>
      <trkpt lat="44.4577" lon="5.18849">
        <ele>663.9</ele>
        <time>2021-11-19T13:29:11Z</time>
      </trkpt>
      <trkpt lat="44.45762" lon="5.18854">
        <ele>663.2</ele>
        <time>2021-11-19T13:29:12Z</time>
      </trkpt>
      <trkpt lat="44.45754" lon="5.1886">
        <ele>662.5</ele>
        <time>2021-11-19T13:29:13Z</time>
      </trkpt>
      <trkpt lat="44.45747" lon="5.18866">
        <ele>661.9</ele>
        <time>2021-11-19T13:29:14Z</time>
      </trkpt>
      <trkpt lat="44.45741" lon="5.18874">
        <ele>661.2</ele>
        <time>2021-11-19T13:29:15Z</time>
      </trkpt>
      <trkpt lat="44.45736" lon="5.18883">
        <ele>660.6</ele>
        <time>2021-11-19T13:29:16Z</time>
      </trkpt>
      <trkpt lat="44.45732" lon="5.18895">
        <ele>659.9</ele>
        <time>2021-11-19T13:29:17Z</time>
      </trkpt>
      <trkpt lat="44.45729" lon="5.18908">
        <ele>659.2</ele>
        <time>2021-11-19T13:29:18Z</time>
      </trkpt>
      <trkpt lat="44.45727" lon="5.18921">
        <ele>658.5</ele>
        <time>2021-11-19T13:29:19Z</time>
      </trkpt>
      <trkpt lat="44.45727" lon="5.18935">
        <ele>657.9</ele>
        <time>2021-11-19T13:29:20Z</time>
      </trkpt>
      <trkpt lat="44.45727" lon="5.18948">
        <ele>657.2</ele>
        <time>2021-11-19T13:29:21Z</time>
      </trkpt>
      <trkpt lat="44.45727" lon="5.18959">
        <ele>656.7</ele>
        <time>2021-11-19T13:29:22Z</time>
      </trkpt>
      <trkpt lat="44.45725" lon="5.18968">
        <ele>656.3</ele>
        <time>2021-11-19T13:29:23Z</time>
      </trkpt>
      <trkpt lat="44.45721" lon="5.18977">
        <ele>655.8</ele>
        <time>2021-11-19T13:29:24Z</time>
      </trkpt>
      <trkpt lat="44.45714" lon="5.18983">
        <ele>655.3</ele>
        <time>2021-11-19T13:29:25Z</time>
      </trkpt>
      <trkpt lat="44.45706" lon="5.18988">
        <ele>654.8</ele>
        <time>2021-11-19T13:29:26Z</time>
      </trkpt>
      <trkpt lat="44.45698" lon="5.18992">
        <ele>654.2</ele>
        <time>2021-11-19T13:29:27Z</time>
      </trkpt>
      <trkpt lat="44.45689" lon="5.18995">
        <ele>653.6</ele>
        <time>2021-11-19T13:29:28Z</time>
      </trkpt>
      <trkpt lat="44.4568" lon="5.18998">
        <ele>652.9</ele>
        <time>2021-11-19T13:29:29Z</time>
      </trkpt>
      <trkpt lat="44.45672" lon="5.19001">
        <ele>652.3</ele>
        <time>2021-11-19T13:29:30Z</time>
      </trkpt>
      <trkpt lat="44.45663" lon="5.19005">
        <ele>651.6</ele>
        <time>2021-11-19T13:29:31Z</time>
      </trkpt>
      <trkpt lat="44.45655" lon="5.19011">
        <ele>651</ele>
        <time>2021-11-19T13:29:32Z</time>
      </trkpt>
      <trkpt lat="44.45648" lon="5.19018">
        <ele>650.3</ele>
        <time>2021-11-19T13:29:33Z</time>
      </trkpt>
      <trkpt lat="44.4564" lon="5.19026">
        <ele>649.6</ele>
        <time>2021-11-19T13:29:34Z</time>
      </trkpt>
      <trkpt lat="44.45633" lon="5.19034">
        <ele>648.9</ele>
        <time>2021-11-19T13:29:35Z</time>
      </trkpt>
      <trkpt lat="44.45625" lon="5.19042">
        <ele>648.2</ele>
        <time>2021-11-19T13:29:36Z</time>
      </trkpt>
      <trkpt lat="44.45618" lon="5.19049">
        <ele>647.5</ele>
        <time>2021-11-19T13:29:37Z</time>
      </trkpt>
      <trkpt lat="44.45611" lon="5.19055">
        <ele>646.9</ele>
        <time>2021-11-19T13:29:38Z</time>
      </trkpt>
      <trkpt lat="44.45603" lon="5.19059">
        <ele>646.4</ele>
        <time>2021-11-19T13:29:39Z</time>
      </trkpt>
      <trkpt lat="44.45596" lon="5.19063">
        <ele>645.7</ele>
        <time>2021-11-19T13:29:40Z</time>
      </trkpt>
      <trkpt lat="44.45589" lon="5.19067">
        <ele>645.2</ele>
        <time>2021-11-19T13:29:41Z</time>
      </trkpt>
      <trkpt lat="44.45584" lon="5.19074">
        <ele>644.6</ele>
        <time>2021-11-19T13:29:42Z</time>
      </trkpt>
      <trkpt lat="44.45581" lon="5.19085">
        <ele>643.9</ele>
        <time>2021-11-19T13:29:43Z</time>
      </trkpt>
      <trkpt lat="44.4558" lon="5.19097">
        <ele>643.1</ele>
        <time>2021-11-19T13:29:44Z</time>
      </trkpt>
      <trkpt lat="44.4558" lon="5.1911">
        <ele>642.3</ele>
        <time>2021-11-19T13:29:45Z</time>
      </trkpt>
      <trkpt lat="44.45581" lon="5.19124">
        <ele>641.5</ele>
        <time>2021-11-19T13:29:46Z</time>
      </trkpt>
      <trkpt lat="44.45581" lon="5.19136">
        <ele>640.7</ele>
        <time>2021-11-19T13:29:47Z</time>
      </trkpt>
      <trkpt lat="44.45581" lon="5.19147">
        <ele>640</ele>
        <time>2021-11-19T13:29:48Z</time>
      </trkpt>
      <trkpt lat="44.45579" lon="5.19157">
        <ele>639.4</ele>
        <time>2021-11-19T13:29:49Z</time>
      </trkpt>
      <trkpt lat="44.45574" lon="5.19165">
        <ele>638.7</ele>
        <time>2021-11-19T13:29:50Z</time>
      </trkpt>
      <trkpt lat="44.45568" lon="5.19174">
        <ele>638</ele>
        <time>2021-11-19T13:29:51Z</time>
      </trkpt>
      <trkpt lat="44.45563" lon="5.19184">
        <ele>637.2</ele>
        <time>2021-11-19T13:29:52Z</time>
      </trkpt>
      <trkpt lat="44.45559" lon="5.19195">
        <ele>636.4</ele>
        <time>2021-11-19T13:29:53Z</time>
      </trkpt>
      <trkpt lat="44.45556" lon="5.19207">
        <ele>635.6</ele>
        <time>2021-11-19T13:29:54Z</time>
      </trkpt>
      <trkpt lat="44.45554" lon="5.19219">
        <ele>634.8</ele>
        <time>2021-11-19T13:29:55Z</time>
      </trkpt>
      <trkpt lat="44.45551" lon="5.19232">
        <ele>634</ele>
        <time>2021-11-19T13:29:56Z</time>
      </trkpt>
      <trkpt lat="44.4555" lon="5.19244">
        <ele>633.3</ele>
        <time>2021-11-19T13:29:57Z</time>
      </trkpt>
      <trkpt lat="44.4555" lon="5.19256">
        <ele>632.5</ele>
        <time>2021-11-19T13:29:58Z</time>
      </trkpt>
      <trkpt lat="44.45551" lon="5.19268">
        <ele>631.7</ele>
        <time>2021-11-19T13:29:59Z</time>
      </trkpt>
      <trkpt lat="44.45552" lon="5.1928">
        <ele>631</ele>
        <time>2021-11-19T13:30:00Z</time>
      </trkpt>
      <trkpt lat="44.45554" lon="5.19291">
        <ele>630.3</ele>
        <time>2021-11-19T13:30:01Z</time>
      </trkpt>
      <trkpt lat="44.45553" lon="5.19302">
        <ele>629.6</ele>
        <time>2021-11-19T13:30:02Z</time>
      </trkpt>
      <trkpt lat="44.4555" lon="5.19313">
        <ele>628.8</ele>
        <time>2021-11-19T13:30:03Z</time>
      </trkpt>
      <trkpt lat="44.45545" lon="5.19324">
        <ele>628</ele>
        <time>2021-11-19T13:30:04Z</time>
      </trkpt>
      <trkpt lat="44.45539" lon="5.19334">
        <ele>627.2</ele>
        <time>2021-11-19T13:30:05Z</time>
      </trkpt>
      <trkpt lat="44.45532" lon="5.19345">
        <ele>626.3</ele>
        <time>2021-11-19T13:30:06Z</time>
      </trkpt>
      <trkpt lat="44.45527" lon="5.19356">
        <ele>625.4</ele>
        <time>2021-11-19T13:30:07Z</time>
      </trkpt>
      <trkpt lat="44.45521" lon="5.19368">
        <ele>624.6</ele>
        <time>2021-11-19T13:30:08Z</time>
      </trkpt>
      <trkpt lat="44.45517" lon="5.19381">
        <ele>623.7</ele>
        <time>2021-11-19T13:30:09Z</time>
      </trkpt>
      <trkpt lat="44.45513" lon="5.19395">
        <ele>622.8</ele>
        <time>2021-11-19T13:30:10Z</time>
      </trkpt>
      <trkpt lat="44.45509" lon="5.19407">
        <ele>621.9</ele>
        <time>2021-11-19T13:30:11Z</time>
      </trkpt>
      <trkpt lat="44.45503" lon="5.19419">
        <ele>621</ele>
        <time>2021-11-19T13:30:12Z</time>
      </trkpt>
      <trkpt lat="44.45495" lon="5.1943">
        <ele>620</ele>
        <time>2021-11-19T13:30:13Z</time>
      </trkpt>
      <trkpt lat="44.45486" lon="5.19439">
        <ele>619</ele>
        <time>2021-11-19T13:30:14Z</time>
      </trkpt>
      <trkpt lat="44.45476" lon="5.19447">
        <ele>618</ele>
        <time>2021-11-19T13:30:15Z</time>
      </trkpt>
      <trkpt lat="44.45468" lon="5.19455">
        <ele>617.2</ele>
        <time>2021-11-19T13:30:16Z</time>
      </trkpt>
      <trkpt lat="44.45461" lon="5.19462">
        <ele>616.4</ele>
        <time>2021-11-19T13:30:17Z</time>
      </trkpt>
      <trkpt lat="44.45455" lon="5.19472">
        <ele>615.6</ele>
        <time>2021-11-19T13:30:18Z</time>
      </trkpt>
      <trkpt lat="44.4545" lon="5.19485">
        <ele>614.7</ele>
        <time>2021-11-19T13:30:19Z</time>
      </trkpt>
      <trkpt lat="44.45446" lon="5.19498">
        <ele>613.8</ele>
        <time>2021-11-19T13:30:20Z</time>
      </trkpt>
      <trkpt lat="44.45442" lon="5.19513">
        <ele>612.8</ele>
        <time>2021-11-19T13:30:21Z</time>
      </trkpt>
      <trkpt lat="44.45438" lon="5.19526">
        <ele>611.9</ele>
        <time>2021-11-19T13:30:22Z</time>
      </trkpt>
      <trkpt lat="44.45433" lon="5.19541">
        <ele>610.9</ele>
        <time>2021-11-19T13:30:23Z</time>
      </trkpt>
      <trkpt lat="44.45429" lon="5.19555">
        <ele>609.9</ele>
        <time>2021-11-19T13:30:24Z</time>
      </trkpt>
      <trkpt lat="44.45424" lon="5.1957">
        <ele>608.9</ele>
        <time>2021-11-19T13:30:25Z</time>
      </trkpt>
      <trkpt lat="44.45418" lon="5.19584">
        <ele>607.9</ele>
        <time>2021-11-19T13:30:26Z</time>
      </trkpt>
      <trkpt lat="44.45412" lon="5.19598">
        <ele>606.9</ele>
        <time>2021-11-19T13:30:27Z</time>
      </trkpt>
      <trkpt lat="44.45406" lon="5.19611">
        <ele>605.9</ele>
        <time>2021-11-19T13:30:28Z</time>
      </trkpt>
      <trkpt lat="44.45399" lon="5.19625">
        <ele>604.8</ele>
        <time>2021-11-19T13:30:29Z</time>
      </trkpt>
      <trkpt lat="44.45393" lon="5.19638">
        <ele>603.9</ele>
        <time>2021-11-19T13:30:30Z</time>
      </trkpt>
      <trkpt lat="44.45389" lon="5.19651">
        <ele>603</ele>
        <time>2021-11-19T13:30:31Z</time>
      </trkpt>
      <trkpt lat="44.45384" lon="5.19663">
        <ele>602.1</ele>
        <time>2021-11-19T13:30:32Z</time>
      </trkpt>
      <trkpt lat="44.45379" lon="5.19675">
        <ele>601.3</ele>
        <time>2021-11-19T13:30:33Z</time>
      </trkpt>
      <trkpt lat="44.45371" lon="5.19685">
        <ele>600.4</ele>
        <time>2021-11-19T13:30:34Z</time>
      </trkpt>
      <trkpt lat="44.45362" lon="5.19693">
        <ele>599.4</ele>
        <time>2021-11-19T13:30:35Z</time>
      </trkpt>
      <trkpt lat="44.45353" lon="5.19701">
        <ele>598.5</ele>
        <time>2021-11-19T13:30:36Z</time>
      </trkpt>
      <trkpt lat="44.45344" lon="5.19708">
        <ele>597.6</ele>
        <time>2021-11-19T13:30:37Z</time>
      </trkpt>
      <trkpt lat="44.45334" lon="5.19715">
        <ele>596.6</ele>
        <time>2021-11-19T13:30:38Z</time>
      </trkpt>
      <trkpt lat="44.45325" lon="5.19723">
        <ele>595.7</ele>
        <time>2021-11-19T13:30:39Z</time>
      </trkpt>
      <trkpt lat="44.45315" lon="5.1973">
        <ele>594.7</ele>
        <time>2021-11-19T13:30:40Z</time>
      </trkpt>
      <trkpt lat="44.45305" lon="5.19737">
        <ele>593.7</ele>
        <time>2021-11-19T13:30:41Z</time>
      </trkpt>
      <trkpt lat="44.45295" lon="5.19744">
        <ele>592.8</ele>
        <time>2021-11-19T13:30:42Z</time>
      </trkpt>
      <trkpt lat="44.45285" lon="5.19749">
        <ele>591.8</ele>
        <time>2021-11-19T13:30:43Z</time>
      </trkpt>
      <trkpt lat="44.45274" lon="5.19755">
        <ele>590.8</ele>
        <time>2021-11-19T13:30:44Z</time>
      </trkpt>
      <trkpt lat="44.45264" lon="5.1976">
        <ele>589.8</ele>
        <time>2021-11-19T13:30:45Z</time>
      </trkpt>
      <trkpt lat="44.45254" lon="5.19766">
        <ele>588.8</ele>
        <time>2021-11-19T13:30:46Z</time>
      </trkpt>
      <trkpt lat="44.45244" lon="5.19776">
        <ele>587.9</ele>
        <time>2021-11-19T13:30:47Z</time>
      </trkpt>
      <trkpt lat="44.45236" lon="5.19785">
        <ele>586.9</ele>
        <time>2021-11-19T13:30:48Z</time>
      </trkpt>
      <trkpt lat="44.45226" lon="5.19794">
        <ele>585.9</ele>
        <time>2021-11-19T13:30:49Z</time>
      </trkpt>
      <trkpt lat="44.45215" lon="5.19801">
        <ele>584.8</ele>
        <time>2021-11-19T13:30:50Z</time>
      </trkpt>
      <trkpt lat="44.45203" lon="5.19808">
        <ele>583.7</ele>
        <time>2021-11-19T13:30:51Z</time>
      </trkpt>
      <trkpt lat="44.45193" lon="5.19815">
        <ele>582.7</ele>
        <time>2021-11-19T13:30:52Z</time>
      </trkpt>
      <trkpt lat="44.45181" lon="5.19822">
        <ele>581.6</ele>
        <time>2021-11-19T13:30:53Z</time>
      </trkpt>
      <trkpt lat="44.4517" lon="5.1983">
        <ele>580.5</ele>
        <time>2021-11-19T13:30:54Z</time>
      </trkpt>
      <trkpt lat="44.4516" lon="5.19838">
        <ele>579.4</ele>
        <time>2021-11-19T13:30:55Z</time>
      </trkpt>
      <trkpt lat="44.45149" lon="5.19848">
        <ele>578.4</ele>
        <time>2021-11-19T13:30:56Z</time>
      </trkpt>
      <trkpt lat="44.45139" lon="5.19857">
        <ele>577.3</ele>
        <time>2021-11-19T13:30:57Z</time>
      </trkpt>
      <trkpt lat="44.45127" lon="5.19865">
        <ele>576.2</ele>
        <time>2021-11-19T13:30:58Z</time>
      </trkpt>
      <trkpt lat="44.45117" lon="5.19872">
        <ele>575.2</ele>
        <time>2021-11-19T13:30:59Z</time>
      </trkpt>
      <trkpt lat="44.45108" lon="5.19877">
        <ele>574.7</ele>
        <time>2021-11-19T13:31:00Z</time>
      </trkpt>
      <trkpt lat="44.451" lon="5.19882">
        <ele>574.1</ele>
        <time>2021-11-19T13:31:01Z</time>
      </trkpt>
      <trkpt lat="44.45092" lon="5.19884">
        <ele>573.6</ele>
        <time>2021-11-19T13:31:02Z</time>
      </trkpt>
      <trkpt lat="44.45086" lon="5.19887">
        <ele>573.1</ele>
        <time>2021-11-19T13:31:03Z</time>
      </trkpt>
      <trkpt lat="44.45079" lon="5.19887">
        <ele>572.6</ele>
        <time>2021-11-19T13:31:04Z</time>
      </trkpt>
      <trkpt lat="44.45072" lon="5.19884">
        <ele>572.1</ele>
        <time>2021-11-19T13:31:05Z</time>
      </trkpt>
      <trkpt lat="44.45064" lon="5.19877">
        <ele>571.3</ele>
        <time>2021-11-19T13:31:06Z</time>
      </trkpt>
      <trkpt lat="44.45058" lon="5.19869">
        <ele>570.6</ele>
        <time>2021-11-19T13:31:07Z</time>
      </trkpt>
      <trkpt lat="44.45052" lon="5.19862">
        <ele>570</ele>
        <time>2021-11-19T13:31:08Z</time>
      </trkpt>
      <trkpt lat="44.45048" lon="5.19854">
        <ele>569.6</ele>
        <time>2021-11-19T13:31:09Z</time>
      </trkpt>
      <trkpt lat="44.45043" lon="5.19847">
        <ele>569.1</ele>
        <time>2021-11-19T13:31:10Z</time>
      </trkpt>
      <trkpt lat="44.45037" lon="5.19842">
        <ele>568.7</ele>
        <time>2021-11-19T13:31:11Z</time>
      </trkpt>
      <trkpt lat="44.45031" lon="5.19841">
        <ele>568.3</ele>
        <time>2021-11-19T13:31:12Z</time>
      </trkpt>
      <trkpt lat="44.45025" lon="5.19843">
        <ele>567.9</ele>
        <time>2021-11-19T13:31:13Z</time>
      </trkpt>
      <trkpt lat="44.4502" lon="5.19851">
        <ele>567.4</ele>
        <time>2021-11-19T13:31:14Z</time>
      </trkpt>
      <trkpt lat="44.45018" lon="5.19861">
        <ele>566.8</ele>
        <time>2021-11-19T13:31:15Z</time>
      </trkpt>
      <trkpt lat="44.45019" lon="5.19871">
        <ele>566.1</ele>
        <time>2021-11-19T13:31:16Z</time>
      </trkpt>
      <trkpt lat="44.4502" lon="5.19882">
        <ele>565.5</ele>
        <time>2021-11-19T13:31:17Z</time>
      </trkpt>
      <trkpt lat="44.45021" lon="5.19892">
        <ele>564.9</ele>
        <time>2021-11-19T13:31:18Z</time>
      </trkpt>
      <trkpt lat="44.4502" lon="5.19901">
        <ele>564.4</ele>
        <time>2021-11-19T13:31:19Z</time>
      </trkpt>
      <trkpt lat="44.45018" lon="5.19909">
        <ele>563.9</ele>
        <time>2021-11-19T13:31:20Z</time>
      </trkpt>
      <trkpt lat="44.45013" lon="5.19914">
        <ele>563.5</ele>
        <time>2021-11-19T13:31:21Z</time>
      </trkpt>
      <trkpt lat="44.45006" lon="5.19918">
        <ele>562.9</ele>
        <time>2021-11-19T13:31:22Z</time>
      </trkpt>
      <trkpt lat="44.44997" lon="5.19917">
        <ele>562.2</ele>
        <time>2021-11-19T13:31:23Z</time>
      </trkpt>
      <trkpt lat="44.44989" lon="5.19914">
        <ele>561.5</ele>
        <time>2021-11-19T13:31:24Z</time>
      </trkpt>
      <trkpt lat="44.44981" lon="5.19908">
        <ele>560.8</ele>
        <time>2021-11-19T13:31:25Z</time>
      </trkpt>
      <trkpt lat="44.44974" lon="5.19901">
        <ele>560.1</ele>
        <time>2021-11-19T13:31:26Z</time>
      </trkpt>
      <trkpt lat="44.44967" lon="5.19895">
        <ele>559.5</ele>
        <time>2021-11-19T13:31:27Z</time>
      </trkpt>
      <trkpt lat="44.4496" lon="5.19891">
        <ele>558.9</ele>
        <time>2021-11-19T13:31:28Z</time>
      </trkpt>
      <trkpt lat="44.44953" lon="5.19889">
        <ele>558.4</ele>
        <time>2021-11-19T13:31:29Z</time>
      </trkpt>
      <trkpt lat="44.44945" lon="5.19889">
        <ele>557.9</ele>
        <time>2021-11-19T13:31:30Z</time>
      </trkpt>
      <trkpt lat="44.44937" lon="5.19891">
        <ele>557.3</ele>
        <time>2021-11-19T13:31:31Z</time>
      </trkpt>
      <trkpt lat="44.44929" lon="5.19894">
        <ele>556.8</ele>
        <time>2021-11-19T13:31:32Z</time>
      </trkpt>
      <trkpt lat="44.44921" lon="5.19896">
        <ele>556.2</ele>
        <time>2021-11-19T13:31:33Z</time>
      </trkpt>
      <trkpt lat="44.44912" lon="5.19896">
        <ele>555.6</ele>
        <time>2021-11-19T13:31:34Z</time>
      </trkpt>
      <trkpt lat="44.44903" lon="5.19895">
        <ele>554.9</ele>
        <time>2021-11-19T13:31:35Z</time>
      </trkpt>
      <trkpt lat="44.44894" lon="5.19893">
        <ele>554.4</ele>
        <time>2021-11-19T13:31:36Z</time>
      </trkpt>
      <trkpt lat="44.44884" lon="5.19892">
        <ele>553.8</ele>
        <time>2021-11-19T13:31:37Z</time>
      </trkpt>
      <trkpt lat="44.44875" lon="5.19893">
        <ele>553.3</ele>
        <time>2021-11-19T13:31:38Z</time>
      </trkpt>
      <trkpt lat="44.44866" lon="5.19897">
        <ele>552.7</ele>
        <time>2021-11-19T13:31:39Z</time>
      </trkpt>
      <trkpt lat="44.44857" lon="5.19901">
        <ele>552</ele>
        <time>2021-11-19T13:31:40Z</time>
      </trkpt>
      <trkpt lat="44.44847" lon="5.19904">
        <ele>551.4</ele>
        <time>2021-11-19T13:31:41Z</time>
      </trkpt>
      <trkpt lat="44.44838" lon="5.19904">
        <ele>550.8</ele>
        <time>2021-11-19T13:31:42Z</time>
      </trkpt>
      <trkpt lat="44.44829" lon="5.19904">
        <ele>550.3</ele>
        <time>2021-11-19T13:31:43Z</time>
      </trkpt>
      <trkpt lat="44.44819" lon="5.19906">
        <ele>549.7</ele>
        <time>2021-11-19T13:31:44Z</time>
      </trkpt>
      <trkpt lat="44.4481" lon="5.1991">
        <ele>549.2</ele>
        <time>2021-11-19T13:31:45Z</time>
      </trkpt>
      <trkpt lat="44.44801" lon="5.19915">
        <ele>548.8</ele>
        <time>2021-11-19T13:31:46Z</time>
      </trkpt>
      <trkpt lat="44.44792" lon="5.19921">
        <ele>548.4</ele>
        <time>2021-11-19T13:31:47Z</time>
      </trkpt>
      <trkpt lat="44.44784" lon="5.19928">
        <ele>548.1</ele>
        <time>2021-11-19T13:31:48Z</time>
      </trkpt>
      <trkpt lat="44.44778" lon="5.19936">
        <ele>547.9</ele>
        <time>2021-11-19T13:31:49Z</time>
      </trkpt>
      <trkpt lat="44.44773" lon="5.19944">
        <ele>547.7</ele>
        <time>2021-11-19T13:31:50Z</time>
      </trkpt>
      <trkpt lat="44.44768" lon="5.19951">
        <ele>547.6</ele>
        <time>2021-11-19T13:31:51Z</time>
      </trkpt>
      <trkpt lat="44.44762" lon="5.19957">
        <ele>547.5</ele>
        <time>2021-11-19T13:31:52Z</time>
      </trkpt>
      <trkpt lat="44.44757" lon="5.19962">
        <ele>547.3</ele>
        <time>2021-11-19T13:31:53Z</time>
      </trkpt>
      <trkpt lat="44.44753" lon="5.19966">
        <ele>547.2</ele>
        <time>2021-11-19T13:31:54Z</time>
      </trkpt>
      <trkpt lat="44.44752" lon="5.19971">
        <ele>547</ele>
        <time>2021-11-19T13:31:55Z</time>
      </trkpt>
      <trkpt lat="44.44753" lon="5.19978">
        <ele>546.7</ele>
        <time>2021-11-19T13:31:56Z</time>
      </trkpt>
      <trkpt lat="44.44757" lon="5.19981">
        <ele>546.3</ele>
        <time>2021-11-19T13:31:57Z</time>
      </trkpt>
      <trkpt lat="44.44764" lon="5.19978">
        <ele>545.7</ele>
        <time>2021-11-19T13:31:58Z</time>
      </trkpt>
      <trkpt lat="44.44768" lon="5.19976">
        <ele>545.3</ele>
        <time>2021-11-19T13:31:59Z</time>
      </trkpt>
      <trkpt lat="44.4477" lon="5.19974">
        <ele>545</ele>
        <time>2021-11-19T13:32:00Z</time>
      </trkpt>
      <trkpt lat="44.44771" lon="5.19974">
        <ele>544.9</ele>
        <time>2021-11-19T13:32:01Z</time>
      </trkpt>
      <trkpt lat="44.44772" lon="5.19972">
        <ele>544.8</ele>
        <time>2021-11-19T13:32:02Z</time>
      </trkpt>
      <trkpt lat="44.44773" lon="5.19971">
        <ele>544.6</ele>
        <time>2021-11-19T13:32:03Z</time>
      </trkpt>
      <trkpt lat="44.44775" lon="5.1997">
        <ele>544.4</ele>
        <time>2021-11-19T13:32:04Z</time>
      </trkpt>
      <trkpt lat="44.44776" lon="5.19968">
        <ele>544.2</ele>
        <time>2021-11-19T13:32:05Z</time>
      </trkpt>
      <trkpt lat="44.44778" lon="5.19967">
        <ele>544.1</ele>
        <time>2021-11-19T13:32:08Z</time>
      </trkpt>
      <trkpt lat="44.44779" lon="5.19966">
        <ele>543.9</ele>
        <time>2021-11-19T13:32:10Z</time>
      </trkpt>
      <trkpt lat="44.44781" lon="5.19964">
        <ele>543.8</ele>
        <time>2021-11-19T13:32:13Z</time>
      </trkpt>
      <trkpt lat="44.44782" lon="5.19963">
        <ele>543.6</ele>
        <time>2021-11-19T13:32:44Z</time>
      </trkpt>
      <trkpt lat="44.44784" lon="5.19962">
        <ele>543.5</ele>
        <time>2021-11-19T13:32:45Z</time>
      </trkpt>
      <trkpt lat="44.44795" lon="5.19955">
        <ele>542.5</ele>
        <time>2021-11-19T13:32:47Z</time>
      </trkpt>
      <trkpt lat="44.44801" lon="5.19953">
        <ele>542</ele>
        <time>2021-11-19T13:32:48Z</time>
      </trkpt>
      <trkpt lat="44.44807" lon="5.19952">
        <ele>541.5</ele>
        <time>2021-11-19T13:32:49Z</time>
      </trkpt>
      <trkpt lat="44.44814" lon="5.19952">
        <ele>541</ele>
        <time>2021-11-19T13:32:50Z</time>
      </trkpt>
      <trkpt lat="44.4482" lon="5.19953">
        <ele>540.6</ele>
        <time>2021-11-19T13:32:51Z</time>
      </trkpt>
      <trkpt lat="44.44827" lon="5.19953">
        <ele>540.1</ele>
        <time>2021-11-19T13:32:52Z</time>
      </trkpt>
      <trkpt lat="44.44834" lon="5.19955">
        <ele>539.7</ele>
        <time>2021-11-19T13:32:53Z</time>
      </trkpt>
      <trkpt lat="44.44842" lon="5.19957">
        <ele>539.2</ele>
        <time>2021-11-19T13:32:54Z</time>
      </trkpt>
      <trkpt lat="44.44857" lon="5.19966">
        <ele>538.2</ele>
        <time>2021-11-19T13:32:56Z</time>
      </trkpt>
      <trkpt lat="44.44863" lon="5.19973">
        <ele>537.8</ele>
        <time>2021-11-19T13:32:57Z</time>
      </trkpt>
      <trkpt lat="44.44869" lon="5.19983">
        <ele>537.3</ele>
        <time>2021-11-19T13:32:58Z</time>
      </trkpt>
      <trkpt lat="44.44874" lon="5.19992">
        <ele>536.8</ele>
        <time>2021-11-19T13:32:59Z</time>
      </trkpt>
      <trkpt lat="44.44879" lon="5.20001">
        <ele>536.3</ele>
        <time>2021-11-19T13:33:00Z</time>
      </trkpt>
      <trkpt lat="44.44886" lon="5.20008">
        <ele>535.8</ele>
        <time>2021-11-19T13:33:01Z</time>
      </trkpt>
      <trkpt lat="44.44895" lon="5.2001">
        <ele>535.2</ele>
        <time>2021-11-19T13:33:02Z</time>
      </trkpt>
      <trkpt lat="44.44903" lon="5.20009">
        <ele>534.5</ele>
        <time>2021-11-19T13:33:03Z</time>
      </trkpt>
      <trkpt lat="44.44913" lon="5.20007">
        <ele>533.8</ele>
        <time>2021-11-19T13:33:04Z</time>
      </trkpt>
      <trkpt lat="44.44922" lon="5.20004">
        <ele>533.1</ele>
        <time>2021-11-19T13:33:05Z</time>
      </trkpt>
      <trkpt lat="44.4493" lon="5.20001">
        <ele>532.4</ele>
        <time>2021-11-19T13:33:06Z</time>
      </trkpt>
      <trkpt lat="44.44939" lon="5.19999">
        <ele>531.7</ele>
        <time>2021-11-19T13:33:07Z</time>
      </trkpt>
      <trkpt lat="44.44949" lon="5.19998">
        <ele>530.9</ele>
        <time>2021-11-19T13:33:08Z</time>
      </trkpt>
      <trkpt lat="44.44959" lon="5.19998">
        <ele>530.2</ele>
        <time>2021-11-19T13:33:09Z</time>
      </trkpt>
      <trkpt lat="44.44968" lon="5.2">
        <ele>529.6</ele>
        <time>2021-11-19T13:33:10Z</time>
      </trkpt>
      <trkpt lat="44.44978" lon="5.20003">
        <ele>529.1</ele>
        <time>2021-11-19T13:33:11Z</time>
      </trkpt>
      <trkpt lat="44.44988" lon="5.20008">
        <ele>528.7</ele>
        <time>2021-11-19T13:33:12Z</time>
      </trkpt>
      <trkpt lat="44.44996" lon="5.20014">
        <ele>528.4</ele>
        <time>2021-11-19T13:33:13Z</time>
      </trkpt>
      <trkpt lat="44.45003" lon="5.20019">
        <ele>528.1</ele>
        <time>2021-11-19T13:33:14Z</time>
      </trkpt>
      <trkpt lat="44.45009" lon="5.20026">
        <ele>527.7</ele>
        <time>2021-11-19T13:33:15Z</time>
      </trkpt>
      <trkpt lat="44.45013" lon="5.20033">
        <ele>527.4</ele>
        <time>2021-11-19T13:33:16Z</time>
      </trkpt>
      <trkpt lat="44.45015" lon="5.20041">
        <ele>526.9</ele>
        <time>2021-11-19T13:33:17Z</time>
      </trkpt>
      <trkpt lat="44.45014" lon="5.20051">
        <ele>526.3</ele>
        <time>2021-11-19T13:33:18Z</time>
      </trkpt>
      <trkpt lat="44.4501" lon="5.2006">
        <ele>525.5</ele>
        <time>2021-11-19T13:33:19Z</time>
      </trkpt>
      <trkpt lat="44.45002" lon="5.20065">
        <ele>524.6</ele>
        <time>2021-11-19T13:33:20Z</time>
      </trkpt>
      <trkpt lat="44.44991" lon="5.20066">
        <ele>523.4</ele>
        <time>2021-11-19T13:33:21Z</time>
      </trkpt>
      <trkpt lat="44.44979" lon="5.20066">
        <ele>522.3</ele>
        <time>2021-11-19T13:33:22Z</time>
      </trkpt>
      <trkpt lat="44.44967" lon="5.20066">
        <ele>521.4</ele>
        <time>2021-11-19T13:33:23Z</time>
      </trkpt>
      <trkpt lat="44.44957" lon="5.20067">
        <ele>520.6</ele>
        <time>2021-11-19T13:33:24Z</time>
      </trkpt>
      <trkpt lat="44.44948" lon="5.20071">
        <ele>520</ele>
        <time>2021-11-19T13:33:25Z</time>
      </trkpt>
      <trkpt lat="44.44941" lon="5.20076">
        <ele>519.6</ele>
        <time>2021-11-19T13:33:26Z</time>
      </trkpt>
      <trkpt lat="44.44935" lon="5.20084">
        <ele>519.3</ele>
        <time>2021-11-19T13:33:27Z</time>
      </trkpt>
      <trkpt lat="44.44932" lon="5.20093">
        <ele>519.1</ele>
        <time>2021-11-19T13:33:28Z</time>
      </trkpt>
      <trkpt lat="44.4493" lon="5.20104">
        <ele>519</ele>
        <time>2021-11-19T13:33:29Z</time>
      </trkpt>
      <trkpt lat="44.4493" lon="5.20114">
        <ele>518.9</ele>
        <time>2021-11-19T13:33:30Z</time>
      </trkpt>
      <trkpt lat="44.4493" lon="5.20124">
        <ele>518.8</ele>
        <time>2021-11-19T13:33:31Z</time>
      </trkpt>
      <trkpt lat="44.44929" lon="5.20133">
        <ele>518.8</ele>
        <time>2021-11-19T13:33:32Z</time>
      </trkpt>
      <trkpt lat="44.44928" lon="5.20141">
        <ele>518.8</ele>
        <time>2021-11-19T13:33:33Z</time>
      </trkpt>
      <trkpt lat="44.44927" lon="5.20147">
        <ele>518.9</ele>
        <time>2021-11-19T13:33:34Z</time>
      </trkpt>
      <trkpt lat="44.44925" lon="5.20152">
        <ele>518.8</ele>
        <time>2021-11-19T13:33:35Z</time>
      </trkpt>
      <trkpt lat="44.44922" lon="5.20155">
        <ele>518.8</ele>
        <time>2021-11-19T13:33:36Z</time>
      </trkpt>
      <trkpt lat="44.44918" lon="5.20159">
        <ele>518.6</ele>
        <time>2021-11-19T13:33:37Z</time>
      </trkpt>
      <trkpt lat="44.44912" lon="5.2016">
        <ele>518.4</ele>
        <time>2021-11-19T13:33:38Z</time>
      </trkpt>
      <trkpt lat="44.44907" lon="5.20161">
        <ele>518.3</ele>
        <time>2021-11-19T13:33:39Z</time>
      </trkpt>
      <trkpt lat="44.44902" lon="5.20161">
        <ele>518.1</ele>
        <time>2021-11-19T13:33:40Z</time>
      </trkpt>
      <trkpt lat="44.44895" lon="5.20161">
        <ele>517.9</ele>
        <time>2021-11-19T13:33:41Z</time>
      </trkpt>
      <trkpt lat="44.44885" lon="5.20158">
        <ele>517.5</ele>
        <time>2021-11-19T13:33:42Z</time>
      </trkpt>
      <trkpt lat="44.44882" lon="5.20155">
        <ele>517.3</ele>
        <time>2021-11-19T13:33:43Z</time>
      </trkpt>
      <trkpt lat="44.44876" lon="5.20157">
        <ele>517</ele>
        <time>2021-11-19T13:33:44Z</time>
      </trkpt>
      <trkpt lat="44.4487" lon="5.20166">
        <ele>516.7</ele>
        <time>2021-11-19T13:33:47Z</time>
      </trkpt>
      <trkpt lat="44.44864" lon="5.20165">
        <ele>516.4</ele>
        <time>2021-11-19T13:33:48Z</time>
      </trkpt>
      <trkpt lat="44.4486" lon="5.20165">
        <ele>516.2</ele>
        <time>2021-11-19T13:33:49Z</time>
      </trkpt>
      <trkpt lat="44.44855" lon="5.20166">
        <ele>516</ele>
        <time>2021-11-19T13:33:50Z</time>
      </trkpt>
      <trkpt lat="44.4485" lon="5.20169">
        <ele>515.8</ele>
        <time>2021-11-19T13:33:51Z</time>
      </trkpt>
      <trkpt lat="44.44844" lon="5.2017">
        <ele>515.5</ele>
        <time>2021-11-19T13:33:52Z</time>
      </trkpt>
      <trkpt lat="44.44837" lon="5.20171">
        <ele>515.3</ele>
        <time>2021-11-19T13:33:53Z</time>
      </trkpt>
      <trkpt lat="44.4483" lon="5.20171">
        <ele>515</ele>
        <time>2021-11-19T13:33:54Z</time>
      </trkpt>
      <trkpt lat="44.44823" lon="5.2017">
        <ele>514.7</ele>
        <time>2021-11-19T13:33:55Z</time>
      </trkpt>
      <trkpt lat="44.44815" lon="5.20168">
        <ele>514.4</ele>
        <time>2021-11-19T13:33:56Z</time>
      </trkpt>
      <trkpt lat="44.44807" lon="5.20166">
        <ele>514.1</ele>
        <time>2021-11-19T13:33:57Z</time>
      </trkpt>
      <trkpt lat="44.448" lon="5.20164">
        <ele>513.8</ele>
        <time>2021-11-19T13:33:58Z</time>
      </trkpt>
      <trkpt lat="44.44792" lon="5.20163">
        <ele>513.5</ele>
        <time>2021-11-19T13:33:59Z</time>
      </trkpt>
      <trkpt lat="44.44784" lon="5.20162">
        <ele>513.2</ele>
        <time>2021-11-19T13:34:00Z</time>
      </trkpt>
      <trkpt lat="44.44776" lon="5.20161">
        <ele>512.9</ele>
        <time>2021-11-19T13:34:01Z</time>
      </trkpt>
      <trkpt lat="44.44768" lon="5.2016">
        <ele>512.6</ele>
        <time>2021-11-19T13:34:02Z</time>
      </trkpt>
      <trkpt lat="44.4476" lon="5.20159">
        <ele>512.4</ele>
        <time>2021-11-19T13:34:03Z</time>
      </trkpt>
      <trkpt lat="44.44752" lon="5.20159">
        <ele>512.2</ele>
        <time>2021-11-19T13:34:04Z</time>
      </trkpt>
      <trkpt lat="44.44746" lon="5.20157">
        <ele>512</ele>
        <time>2021-11-19T13:34:05Z</time>
      </trkpt>
      <trkpt lat="44.44739" lon="5.20154">
        <ele>511.8</ele>
        <time>2021-11-19T13:34:06Z</time>
      </trkpt>
      <trkpt lat="44.44733" lon="5.20151">
        <ele>511.5</ele>
        <time>2021-11-19T13:34:07Z</time>
      </trkpt>
      <trkpt lat="44.44727" lon="5.20152">
        <ele>511.3</ele>
        <time>2021-11-19T13:34:08Z</time>
      </trkpt>
      <trkpt lat="44.44721" lon="5.20157">
        <ele>511</ele>
        <time>2021-11-19T13:34:09Z</time>
      </trkpt>
      <trkpt lat="44.44716" lon="5.20161">
        <ele>510.8</ele>
        <time>2021-11-19T13:34:10Z</time>
      </trkpt>
      <trkpt lat="44.4471" lon="5.20164">
        <ele>510.5</ele>
        <time>2021-11-19T13:34:11Z</time>
      </trkpt>
      <trkpt lat="44.44704" lon="5.20165">
        <ele>510.2</ele>
        <time>2021-11-19T13:34:12Z</time>
      </trkpt>
      <trkpt lat="44.44698" lon="5.20161">
        <ele>509.8</ele>
        <time>2021-11-19T13:34:13Z</time>
      </trkpt>
      <trkpt lat="44.44692" lon="5.20157">
        <ele>509.4</ele>
        <time>2021-11-19T13:34:14Z</time>
      </trkpt>
      <trkpt lat="44.44687" lon="5.20157">
        <ele>508.9</ele>
        <time>2021-11-19T13:34:15Z</time>
      </trkpt>
      <trkpt lat="44.44681" lon="5.2016">
        <ele>508.4</ele>
        <time>2021-11-19T13:34:16Z</time>
      </trkpt>
      <trkpt lat="44.44676" lon="5.20166">
        <ele>507.9</ele>
        <time>2021-11-19T13:34:17Z</time>
      </trkpt>
      <trkpt lat="44.44674" lon="5.20176">
        <ele>507.4</ele>
        <time>2021-11-19T13:34:18Z</time>
      </trkpt>
      <trkpt lat="44.44673" lon="5.20189">
        <ele>506.7</ele>
        <time>2021-11-19T13:34:19Z</time>
      </trkpt>
      <trkpt lat="44.4467" lon="5.202">
        <ele>506</ele>
        <time>2021-11-19T13:34:20Z</time>
      </trkpt>
      <trkpt lat="44.44664" lon="5.20207">
        <ele>505.4</ele>
        <time>2021-11-19T13:34:21Z</time>
      </trkpt>
      <trkpt lat="44.44657" lon="5.2021">
        <ele>504.9</ele>
        <time>2021-11-19T13:34:22Z</time>
      </trkpt>
      <trkpt lat="44.4465" lon="5.20214">
        <ele>504.3</ele>
        <time>2021-11-19T13:34:23Z</time>
      </trkpt>
      <trkpt lat="44.44643" lon="5.20218">
        <ele>503.8</ele>
        <time>2021-11-19T13:34:24Z</time>
      </trkpt>
      <trkpt lat="44.44636" lon="5.2022">
        <ele>503.2</ele>
        <time>2021-11-19T13:34:25Z</time>
      </trkpt>
      <trkpt lat="44.44628" lon="5.20218">
        <ele>502.7</ele>
        <time>2021-11-19T13:34:26Z</time>
      </trkpt>
      <trkpt lat="44.44619" lon="5.20214">
        <ele>502.1</ele>
        <time>2021-11-19T13:34:27Z</time>
      </trkpt>
      <trkpt lat="44.44611" lon="5.2021">
        <ele>501.4</ele>
        <time>2021-11-19T13:34:28Z</time>
      </trkpt>
      <trkpt lat="44.44602" lon="5.20205">
        <ele>500.6</ele>
        <time>2021-11-19T13:34:29Z</time>
      </trkpt>
      <trkpt lat="44.44594" lon="5.20205">
        <ele>499.9</ele>
        <time>2021-11-19T13:34:30Z</time>
      </trkpt>
      <trkpt lat="44.44585" lon="5.20204">
        <ele>499.3</ele>
        <time>2021-11-19T13:34:31Z</time>
      </trkpt>
      <trkpt lat="44.44576" lon="5.20201">
        <ele>498.6</ele>
        <time>2021-11-19T13:34:32Z</time>
      </trkpt>
      <trkpt lat="44.44568" lon="5.20197">
        <ele>498</ele>
        <time>2021-11-19T13:34:33Z</time>
      </trkpt>
      <trkpt lat="44.44561" lon="5.20193">
        <ele>497.4</ele>
        <time>2021-11-19T13:34:34Z</time>
      </trkpt>
      <trkpt lat="44.44553" lon="5.2019">
        <ele>496.9</ele>
        <time>2021-11-19T13:34:35Z</time>
      </trkpt>
      <trkpt lat="44.44545" lon="5.20189">
        <ele>496.3</ele>
        <time>2021-11-19T13:34:36Z</time>
      </trkpt>
      <trkpt lat="44.44537" lon="5.20191">
        <ele>495.8</ele>
        <time>2021-11-19T13:34:37Z</time>
      </trkpt>
      <trkpt lat="44.44528" lon="5.20195">
        <ele>495.3</ele>
        <time>2021-11-19T13:34:38Z</time>
      </trkpt>
      <trkpt lat="44.4452" lon="5.20199">
        <ele>494.8</ele>
        <time>2021-11-19T13:34:39Z</time>
      </trkpt>
      <trkpt lat="44.44512" lon="5.202">
        <ele>494.4</ele>
        <time>2021-11-19T13:34:40Z</time>
      </trkpt>
      <trkpt lat="44.44505" lon="5.20198">
        <ele>494</ele>
        <time>2021-11-19T13:34:41Z</time>
      </trkpt>
      <trkpt lat="44.445" lon="5.20195">
        <ele>493.6</ele>
        <time>2021-11-19T13:34:42Z</time>
      </trkpt>
      <trkpt lat="44.44496" lon="5.2019">
        <ele>493.3</ele>
        <time>2021-11-19T13:34:43Z</time>
      </trkpt>
      <trkpt lat="44.44494" lon="5.20185">
        <ele>493.1</ele>
        <time>2021-11-19T13:34:44Z</time>
      </trkpt>
      <trkpt lat="44.44491" lon="5.20178">
        <ele>492.7</ele>
        <time>2021-11-19T13:34:45Z</time>
      </trkpt>
      <trkpt lat="44.44487" lon="5.20173">
        <ele>492.3</ele>
        <time>2021-11-19T13:34:46Z</time>
      </trkpt>
      <trkpt lat="44.4448" lon="5.2017">
        <ele>491.8</ele>
        <time>2021-11-19T13:34:47Z</time>
      </trkpt>
      <trkpt lat="44.44473" lon="5.20169">
        <ele>491.2</ele>
        <time>2021-11-19T13:34:48Z</time>
      </trkpt>
      <trkpt lat="44.44466" lon="5.20169">
        <ele>490.7</ele>
        <time>2021-11-19T13:34:49Z</time>
      </trkpt>
      <trkpt lat="44.4446" lon="5.20173">
        <ele>490.3</ele>
        <time>2021-11-19T13:34:50Z</time>
      </trkpt>
      <trkpt lat="44.44452" lon="5.20178">
        <ele>489.7</ele>
        <time>2021-11-19T13:34:51Z</time>
      </trkpt>
      <trkpt lat="44.44445" lon="5.20182">
        <ele>489.2</ele>
        <time>2021-11-19T13:34:52Z</time>
      </trkpt>
      <trkpt lat="44.44437" lon="5.20183">
        <ele>488.8</ele>
        <time>2021-11-19T13:34:53Z</time>
      </trkpt>
      <trkpt lat="44.44429" lon="5.20183">
        <ele>488.4</ele>
        <time>2021-11-19T13:34:54Z</time>
      </trkpt>
      <trkpt lat="44.44421" lon="5.20182">
        <ele>487.9</ele>
        <time>2021-11-19T13:34:55Z</time>
      </trkpt>
      <trkpt lat="44.44412" lon="5.20179">
        <ele>487.3</ele>
        <time>2021-11-19T13:34:56Z</time>
      </trkpt>
      <trkpt lat="44.44403" lon="5.20176">
        <ele>486.8</ele>
        <time>2021-11-19T13:34:57Z</time>
      </trkpt>
      <trkpt lat="44.44394" lon="5.20174">
        <ele>486.3</ele>
        <time>2021-11-19T13:34:58Z</time>
      </trkpt>
      <trkpt lat="44.44384" lon="5.20172">
        <ele>485.8</ele>
        <time>2021-11-19T13:34:59Z</time>
      </trkpt>
      <trkpt lat="44.44375" lon="5.20169">
        <ele>485.4</ele>
        <time>2021-11-19T13:35:00Z</time>
      </trkpt>
      <trkpt lat="44.44366" lon="5.20167">
        <ele>485</ele>
        <time>2021-11-19T13:35:01Z</time>
      </trkpt>
      <trkpt lat="44.44357" lon="5.20164">
        <ele>484.5</ele>
        <time>2021-11-19T13:35:02Z</time>
      </trkpt>
      <trkpt lat="44.44348" lon="5.20162">
        <ele>484.1</ele>
        <time>2021-11-19T13:35:03Z</time>
      </trkpt>
      <trkpt lat="44.4434" lon="5.20161">
        <ele>483.7</ele>
        <time>2021-11-19T13:35:04Z</time>
      </trkpt>
      <trkpt lat="44.44332" lon="5.20161">
        <ele>483.3</ele>
        <time>2021-11-19T13:35:05Z</time>
      </trkpt>
      <trkpt lat="44.44324" lon="5.20162">
        <ele>482.9</ele>
        <time>2021-11-19T13:35:06Z</time>
      </trkpt>
      <trkpt lat="44.44316" lon="5.20165">
        <ele>482.5</ele>
        <time>2021-11-19T13:35:07Z</time>
      </trkpt>
      <trkpt lat="44.44308" lon="5.2017">
        <ele>482.1</ele>
        <time>2021-11-19T13:35:08Z</time>
      </trkpt>
      <trkpt lat="44.443" lon="5.20175">
        <ele>481.8</ele>
        <time>2021-11-19T13:35:09Z</time>
      </trkpt>
      <trkpt lat="44.44292" lon="5.20181">
        <ele>481.4</ele>
        <time>2021-11-19T13:35:10Z</time>
      </trkpt>
      <trkpt lat="44.44284" lon="5.20186">
        <ele>481</ele>
        <time>2021-11-19T13:35:11Z</time>
      </trkpt>
      <trkpt lat="44.44276" lon="5.20192">
        <ele>480.6</ele>
        <time>2021-11-19T13:35:12Z</time>
      </trkpt>
      <trkpt lat="44.44268" lon="5.20198">
        <ele>480.3</ele>
        <time>2021-11-19T13:35:13Z</time>
      </trkpt>
      <trkpt lat="44.44261" lon="5.20206">
        <ele>479.9</ele>
        <time>2021-11-19T13:35:14Z</time>
      </trkpt>
      <trkpt lat="44.44254" lon="5.20215">
        <ele>479.5</ele>
        <time>2021-11-19T13:35:15Z</time>
      </trkpt>
      <trkpt lat="44.44248" lon="5.20226">
        <ele>479.1</ele>
        <time>2021-11-19T13:35:16Z</time>
      </trkpt>
      <trkpt lat="44.44243" lon="5.20237">
        <ele>478.8</ele>
        <time>2021-11-19T13:35:17Z</time>
      </trkpt>
      <trkpt lat="44.44238" lon="5.20249">
        <ele>478.4</ele>
        <time>2021-11-19T13:35:18Z</time>
      </trkpt>
      <trkpt lat="44.44234" lon="5.20261">
        <ele>478.2</ele>
        <time>2021-11-19T13:35:19Z</time>
      </trkpt>
      <trkpt lat="44.44231" lon="5.20272">
        <ele>478</ele>
        <time>2021-11-19T13:35:20Z</time>
      </trkpt>
      <trkpt lat="44.44227" lon="5.20282">
        <ele>477.8</ele>
        <time>2021-11-19T13:35:21Z</time>
      </trkpt>
      <trkpt lat="44.44223" lon="5.20293">
        <ele>477.7</ele>
        <time>2021-11-19T13:35:22Z</time>
      </trkpt>
      <trkpt lat="44.44219" lon="5.20303">
        <ele>477.5</ele>
        <time>2021-11-19T13:35:23Z</time>
      </trkpt>
      <trkpt lat="44.44215" lon="5.20313">
        <ele>477.3</ele>
        <time>2021-11-19T13:35:24Z</time>
      </trkpt>
      <trkpt lat="44.44211" lon="5.20321">
        <ele>477.1</ele>
        <time>2021-11-19T13:35:25Z</time>
      </trkpt>
      <trkpt lat="44.44205" lon="5.2033">
        <ele>476.9</ele>
        <time>2021-11-19T13:35:26Z</time>
      </trkpt>
      <trkpt lat="44.44199" lon="5.20338">
        <ele>476.8</ele>
        <time>2021-11-19T13:35:27Z</time>
      </trkpt>
      <trkpt lat="44.44194" lon="5.20346">
        <ele>476.6</ele>
        <time>2021-11-19T13:35:28Z</time>
      </trkpt>
      <trkpt lat="44.44188" lon="5.20355">
        <ele>476.5</ele>
        <time>2021-11-19T13:35:29Z</time>
      </trkpt>
      <trkpt lat="44.44183" lon="5.20363">
        <ele>476.4</ele>
        <time>2021-11-19T13:35:30Z</time>
      </trkpt>
      <trkpt lat="44.44178" lon="5.2037">
        <ele>476.3</ele>
        <time>2021-11-19T13:35:31Z</time>
      </trkpt>
      <trkpt lat="44.44172" lon="5.20377">
        <ele>476.2</ele>
        <time>2021-11-19T13:35:32Z</time>
      </trkpt>
      <trkpt lat="44.44164" lon="5.20383">
        <ele>476.2</ele>
        <time>2021-11-19T13:35:33Z</time>
      </trkpt>
      <trkpt lat="44.44157" lon="5.20388">
        <ele>476.1</ele>
        <time>2021-11-19T13:35:34Z</time>
      </trkpt>
      <trkpt lat="44.4415" lon="5.20392">
        <ele>476.1</ele>
        <time>2021-11-19T13:35:35Z</time>
      </trkpt>
      <trkpt lat="44.44142" lon="5.20397">
        <ele>476.1</ele>
        <time>2021-11-19T13:35:36Z</time>
      </trkpt>
      <trkpt lat="44.44135" lon="5.204">
        <ele>476</ele>
        <time>2021-11-19T13:35:37Z</time>
      </trkpt>
      <trkpt lat="44.44127" lon="5.20403">
        <ele>476</ele>
        <time>2021-11-19T13:35:38Z</time>
      </trkpt>
      <trkpt lat="44.4412" lon="5.20407">
        <ele>476</ele>
        <time>2021-11-19T13:35:39Z</time>
      </trkpt>
      <trkpt lat="44.44114" lon="5.20411">
        <ele>475.9</ele>
        <time>2021-11-19T13:35:40Z</time>
      </trkpt>
      <trkpt lat="44.44107" lon="5.20415">
        <ele>475.9</ele>
        <time>2021-11-19T13:35:41Z</time>
      </trkpt>
      <trkpt lat="44.44101" lon="5.20421">
        <ele>475.9</ele>
        <time>2021-11-19T13:35:42Z</time>
      </trkpt>
      <trkpt lat="44.44096" lon="5.20429">
        <ele>475.9</ele>
        <time>2021-11-19T13:35:43Z</time>
      </trkpt>
      <trkpt lat="44.44093" lon="5.20436">
        <ele>475.9</ele>
        <time>2021-11-19T13:35:44Z</time>
      </trkpt>
      <trkpt lat="44.44089" lon="5.20445">
        <ele>476</ele>
        <time>2021-11-19T13:35:45Z</time>
      </trkpt>
      <trkpt lat="44.44086" lon="5.20453">
        <ele>476</ele>
        <time>2021-11-19T13:35:46Z</time>
      </trkpt>
      <trkpt lat="44.44083" lon="5.20461">
        <ele>476.1</ele>
        <time>2021-11-19T13:35:47Z</time>
      </trkpt>
      <trkpt lat="44.4408" lon="5.2047">
        <ele>476.1</ele>
        <time>2021-11-19T13:35:48Z</time>
      </trkpt>
      <trkpt lat="44.44078" lon="5.20479">
        <ele>476.1</ele>
        <time>2021-11-19T13:35:49Z</time>
      </trkpt>
      <trkpt lat="44.44075" lon="5.20487">
        <ele>476.2</ele>
        <time>2021-11-19T13:35:50Z</time>
      </trkpt>
      <trkpt lat="44.44073" lon="5.20495">
        <ele>476.2</ele>
        <time>2021-11-19T13:35:51Z</time>
      </trkpt>
      <trkpt lat="44.4407" lon="5.20504">
        <ele>476.2</ele>
        <time>2021-11-19T13:35:52Z</time>
      </trkpt>
      <trkpt lat="44.44066" lon="5.20511">
        <ele>476.3</ele>
        <time>2021-11-19T13:35:53Z</time>
      </trkpt>
      <trkpt lat="44.44063" lon="5.20519">
        <ele>476.3</ele>
        <time>2021-11-19T13:35:54Z</time>
      </trkpt>
      <trkpt lat="44.4406" lon="5.20527">
        <ele>476.3</ele>
        <time>2021-11-19T13:35:55Z</time>
      </trkpt>
      <trkpt lat="44.44057" lon="5.20535">
        <ele>476.2</ele>
        <time>2021-11-19T13:35:56Z</time>
      </trkpt>
      <trkpt lat="44.44055" lon="5.20543">
        <ele>476.2</ele>
        <time>2021-11-19T13:35:57Z</time>
      </trkpt>
      <trkpt lat="44.44053" lon="5.20552">
        <ele>476.2</ele>
        <time>2021-11-19T13:35:58Z</time>
      </trkpt>
      <trkpt lat="44.44051" lon="5.2056">
        <ele>476.2</ele>
        <time>2021-11-19T13:35:59Z</time>
      </trkpt>
      <trkpt lat="44.44049" lon="5.20568">
        <ele>476.1</ele>
        <time>2021-11-19T13:36:00Z</time>
      </trkpt>
      <trkpt lat="44.44047" lon="5.20577">
        <ele>476.1</ele>
        <time>2021-11-19T13:36:01Z</time>
      </trkpt>
      <trkpt lat="44.44046" lon="5.20586">
        <ele>476.1</ele>
        <time>2021-11-19T13:36:02Z</time>
      </trkpt>
      <trkpt lat="44.44045" lon="5.20596">
        <ele>476</ele>
        <time>2021-11-19T13:36:03Z</time>
      </trkpt>
      <trkpt lat="44.44044" lon="5.20606">
        <ele>476</ele>
        <time>2021-11-19T13:36:04Z</time>
      </trkpt>
      <trkpt lat="44.44042" lon="5.20615">
        <ele>475.9</ele>
        <time>2021-11-19T13:36:05Z</time>
      </trkpt>
      <trkpt lat="44.44041" lon="5.20624">
        <ele>475.9</ele>
        <time>2021-11-19T13:36:06Z</time>
      </trkpt>
      <trkpt lat="44.4404" lon="5.20633">
        <ele>475.8</ele>
        <time>2021-11-19T13:36:07Z</time>
      </trkpt>
      <trkpt lat="44.44039" lon="5.20643">
        <ele>475.7</ele>
        <time>2021-11-19T13:36:08Z</time>
      </trkpt>
      <trkpt lat="44.44037" lon="5.20652">
        <ele>475.7</ele>
        <time>2021-11-19T13:36:09Z</time>
      </trkpt>
      <trkpt lat="44.44036" lon="5.20661">
        <ele>475.6</ele>
        <time>2021-11-19T13:36:10Z</time>
      </trkpt>
      <trkpt lat="44.44035" lon="5.20669">
        <ele>475.5</ele>
        <time>2021-11-19T13:36:11Z</time>
      </trkpt>
      <trkpt lat="44.44034" lon="5.20678">
        <ele>475.5</ele>
        <time>2021-11-19T13:36:12Z</time>
      </trkpt>
      <trkpt lat="44.44033" lon="5.20687">
        <ele>475.4</ele>
        <time>2021-11-19T13:36:13Z</time>
      </trkpt>
      <trkpt lat="44.44031" lon="5.20695">
        <ele>475.4</ele>
        <time>2021-11-19T13:36:14Z</time>
      </trkpt>
      <trkpt lat="44.4403" lon="5.20704">
        <ele>475.3</ele>
        <time>2021-11-19T13:36:15Z</time>
      </trkpt>
      <trkpt lat="44.44028" lon="5.20712">
        <ele>475.2</ele>
        <time>2021-11-19T13:36:16Z</time>
      </trkpt>
      <trkpt lat="44.44026" lon="5.20721">
        <ele>475.2</ele>
        <time>2021-11-19T13:36:17Z</time>
      </trkpt>
      <trkpt lat="44.44026" lon="5.2073">
        <ele>475.1</ele>
        <time>2021-11-19T13:36:18Z</time>
      </trkpt>
      <trkpt lat="44.4403" lon="5.20738">
        <ele>475</ele>
        <time>2021-11-19T13:36:19Z</time>
      </trkpt>
      <trkpt lat="44.44035" lon="5.20746">
        <ele>474.9</ele>
        <time>2021-11-19T13:36:20Z</time>
      </trkpt>
      <trkpt lat="44.4404" lon="5.20753">
        <ele>474.7</ele>
        <time>2021-11-19T13:36:21Z</time>
      </trkpt>
      <trkpt lat="44.44045" lon="5.20759">
        <ele>474.5</ele>
        <time>2021-11-19T13:36:22Z</time>
      </trkpt>
      <trkpt lat="44.4405" lon="5.20766">
        <ele>474.2</ele>
        <time>2021-11-19T13:36:23Z</time>
      </trkpt>
      <trkpt lat="44.44055" lon="5.20775">
        <ele>474</ele>
        <time>2021-11-19T13:36:24Z</time>
      </trkpt>
      <trkpt lat="44.44059" lon="5.20783">
        <ele>473.8</ele>
        <time>2021-11-19T13:36:25Z</time>
      </trkpt>
      <trkpt lat="44.44063" lon="5.20792">
        <ele>473.6</ele>
        <time>2021-11-19T13:36:26Z</time>
      </trkpt>
      <trkpt lat="44.44068" lon="5.20801">
        <ele>473.4</ele>
        <time>2021-11-19T13:36:27Z</time>
      </trkpt>
      <trkpt lat="44.44072" lon="5.2081">
        <ele>473.1</ele>
        <time>2021-11-19T13:36:28Z</time>
      </trkpt>
      <trkpt lat="44.44076" lon="5.20818">
        <ele>472.9</ele>
        <time>2021-11-19T13:36:29Z</time>
      </trkpt>
      <trkpt lat="44.44081" lon="5.20826">
        <ele>472.7</ele>
        <time>2021-11-19T13:36:30Z</time>
      </trkpt>
      <trkpt lat="44.44087" lon="5.20834">
        <ele>472.4</ele>
        <time>2021-11-19T13:36:31Z</time>
      </trkpt>
      <trkpt lat="44.44092" lon="5.20842">
        <ele>472.2</ele>
        <time>2021-11-19T13:36:32Z</time>
      </trkpt>
      <trkpt lat="44.44098" lon="5.20849">
        <ele>472</ele>
        <time>2021-11-19T13:36:33Z</time>
      </trkpt>
      <trkpt lat="44.44104" lon="5.20854">
        <ele>471.9</ele>
        <time>2021-11-19T13:36:34Z</time>
      </trkpt>
      <trkpt lat="44.44111" lon="5.20859">
        <ele>471.7</ele>
        <time>2021-11-19T13:36:35Z</time>
      </trkpt>
      <trkpt lat="44.44118" lon="5.20864">
        <ele>471.6</ele>
        <time>2021-11-19T13:36:36Z</time>
      </trkpt>
      <trkpt lat="44.44125" lon="5.20868">
        <ele>471.4</ele>
        <time>2021-11-19T13:36:37Z</time>
      </trkpt>
      <trkpt lat="44.44131" lon="5.20873">
        <ele>471.3</ele>
        <time>2021-11-19T13:36:38Z</time>
      </trkpt>
      <trkpt lat="44.44138" lon="5.20878">
        <ele>471.2</ele>
        <time>2021-11-19T13:36:39Z</time>
      </trkpt>
      <trkpt lat="44.44144" lon="5.20884">
        <ele>471.1</ele>
        <time>2021-11-19T13:36:40Z</time>
      </trkpt>
      <trkpt lat="44.4415" lon="5.20889">
        <ele>471.1</ele>
        <time>2021-11-19T13:36:41Z</time>
      </trkpt>
      <trkpt lat="44.44155" lon="5.20893">
        <ele>471.1</ele>
        <time>2021-11-19T13:36:42Z</time>
      </trkpt>
      <trkpt lat="44.4416" lon="5.20896">
        <ele>471.1</ele>
        <time>2021-11-19T13:36:43Z</time>
      </trkpt>
      <trkpt lat="44.44164" lon="5.209">
        <ele>470.9</ele>
        <time>2021-11-19T13:36:44Z</time>
      </trkpt>
      <trkpt lat="44.44167" lon="5.20902">
        <ele>470.8</ele>
        <time>2021-11-19T13:36:45Z</time>
      </trkpt>
      <trkpt lat="44.44167" lon="5.20904">
        <ele>470.8</ele>
        <time>2021-11-19T13:36:46Z</time>
      </trkpt>
      <trkpt lat="44.44164" lon="5.20904">
        <ele>470.7</ele>
        <time>2021-11-19T13:36:47Z</time>
      </trkpt>
      <trkpt lat="44.44162" lon="5.20904">
        <ele>470.7</ele>
        <time>2021-11-19T13:36:48Z</time>
      </trkpt>
      <trkpt lat="44.44162" lon="5.20907">
        <ele>470.6</ele>
        <time>2021-11-19T13:36:49Z</time>
      </trkpt>
      <trkpt lat="44.44162" lon="5.20905">
        <ele>470.6</ele>
        <time>2021-11-19T13:36:52Z</time>
      </trkpt>
      <trkpt lat="44.44162" lon="5.20904">
        <ele>470.6</ele>
        <time>2021-11-19T13:36:53Z</time>
      </trkpt>
      <trkpt lat="44.44161" lon="5.20904">
        <ele>470.6</ele>
        <time>2021-11-19T13:36:54Z</time>
      </trkpt>
      <trkpt lat="44.44161" lon="5.20905">
        <ele>470.6</ele>
        <time>2021-11-19T13:36:57Z</time>
      </trkpt>
      <trkpt lat="44.44162" lon="5.20907">
        <ele>470.5</ele>
        <time>2021-11-19T13:36:58Z</time>
      </trkpt>
      <trkpt lat="44.44152" lon="5.20915">
        <ele>470.2</ele>
        <time>2021-11-19T13:37:01Z</time>
      </trkpt>
      <trkpt lat="44.44142" lon="5.20925">
        <ele>469.9</ele>
        <time>2021-11-19T13:37:03Z</time>
      </trkpt>
      <trkpt lat="44.4413" lon="5.20935">
        <ele>469.5</ele>
        <time>2021-11-19T13:37:06Z</time>
      </trkpt>
      <trkpt lat="44.44126" lon="5.20939">
        <ele>469.5</ele>
        <time>2021-11-19T13:37:07Z</time>
      </trkpt>
      <trkpt lat="44.44121" lon="5.20943">
        <ele>469.4</ele>
        <time>2021-11-19T13:37:08Z</time>
      </trkpt>
      <trkpt lat="44.44116" lon="5.20947">
        <ele>469.3</ele>
        <time>2021-11-19T13:37:09Z</time>
      </trkpt>
      <trkpt lat="44.44111" lon="5.2095">
        <ele>469.3</ele>
        <time>2021-11-19T13:37:10Z</time>
      </trkpt>
      <trkpt lat="44.44106" lon="5.20951">
        <ele>469.1</ele>
        <time>2021-11-19T13:37:11Z</time>
      </trkpt>
      <trkpt lat="44.44093" lon="5.2095">
        <ele>468.7</ele>
        <time>2021-11-19T13:37:13Z</time>
      </trkpt>
      <trkpt lat="44.44088" lon="5.2095">
        <ele>468.5</ele>
        <time>2021-11-19T13:37:14Z</time>
      </trkpt>
      <trkpt lat="44.44081" lon="5.2095">
        <ele>468.2</ele>
        <time>2021-11-19T13:37:15Z</time>
      </trkpt>
      <trkpt lat="44.44075" lon="5.2095">
        <ele>468</ele>
        <time>2021-11-19T13:37:16Z</time>
      </trkpt>
      <trkpt lat="44.44069" lon="5.2095">
        <ele>467.8</ele>
        <time>2021-11-19T13:37:17Z</time>
      </trkpt>
      <trkpt lat="44.44063" lon="5.20949">
        <ele>467.6</ele>
        <time>2021-11-19T13:37:18Z</time>
      </trkpt>
      <trkpt lat="44.44056" lon="5.20949">
        <ele>467.4</ele>
        <time>2021-11-19T13:37:19Z</time>
      </trkpt>
      <trkpt lat="44.4405" lon="5.20948">
        <ele>467.2</ele>
        <time>2021-11-19T13:37:20Z</time>
      </trkpt>
      <trkpt lat="44.44043" lon="5.20948">
        <ele>467</ele>
        <time>2021-11-19T13:37:21Z</time>
      </trkpt>
      <trkpt lat="44.44036" lon="5.20948">
        <ele>466.8</ele>
        <time>2021-11-19T13:37:22Z</time>
      </trkpt>
      <trkpt lat="44.4403" lon="5.20949">
        <ele>466.6</ele>
        <time>2021-11-19T13:37:23Z</time>
      </trkpt>
      <trkpt lat="44.44024" lon="5.20949">
        <ele>466.5</ele>
        <time>2021-11-19T13:37:24Z</time>
      </trkpt>
      <trkpt lat="44.44017" lon="5.20949">
        <ele>466.3</ele>
        <time>2021-11-19T13:37:25Z</time>
      </trkpt>
      <trkpt lat="44.44011" lon="5.20949">
        <ele>466.2</ele>
        <time>2021-11-19T13:37:26Z</time>
      </trkpt>
      <trkpt lat="44.44004" lon="5.20947">
        <ele>466</ele>
        <time>2021-11-19T13:37:27Z</time>
      </trkpt>
      <trkpt lat="44.43997" lon="5.20946">
        <ele>465.8</ele>
        <time>2021-11-19T13:37:28Z</time>
      </trkpt>
      <trkpt lat="44.4399" lon="5.20947">
        <ele>465.7</ele>
        <time>2021-11-19T13:37:29Z</time>
      </trkpt>
      <trkpt lat="44.43983" lon="5.20949">
        <ele>465.5</ele>
        <time>2021-11-19T13:37:30Z</time>
      </trkpt>
      <trkpt lat="44.43976" lon="5.2095">
        <ele>465.3</ele>
        <time>2021-11-19T13:37:31Z</time>
      </trkpt>
      <trkpt lat="44.43969" lon="5.20952">
        <ele>465.1</ele>
        <time>2021-11-19T13:37:32Z</time>
      </trkpt>
      <trkpt lat="44.43962" lon="5.20954">
        <ele>464.9</ele>
        <time>2021-11-19T13:37:33Z</time>
      </trkpt>
      <trkpt lat="44.43954" lon="5.20955">
        <ele>464.7</ele>
        <time>2021-11-19T13:37:34Z</time>
      </trkpt>
      <trkpt lat="44.43947" lon="5.20956">
        <ele>464.5</ele>
        <time>2021-11-19T13:37:35Z</time>
      </trkpt>
      <trkpt lat="44.4394" lon="5.20957">
        <ele>464.3</ele>
        <time>2021-11-19T13:37:36Z</time>
      </trkpt>
      <trkpt lat="44.43932" lon="5.20959">
        <ele>464.1</ele>
        <time>2021-11-19T13:37:37Z</time>
      </trkpt>
      <trkpt lat="44.43925" lon="5.2096">
        <ele>463.9</ele>
        <time>2021-11-19T13:37:38Z</time>
      </trkpt>
      <trkpt lat="44.43917" lon="5.20962">
        <ele>463.6</ele>
        <time>2021-11-19T13:37:39Z</time>
      </trkpt>
      <trkpt lat="44.4391" lon="5.20962">
        <ele>463.4</ele>
        <time>2021-11-19T13:37:40Z</time>
      </trkpt>
      <trkpt lat="44.43901" lon="5.20962">
        <ele>463.2</ele>
        <time>2021-11-19T13:37:41Z</time>
      </trkpt>
      <trkpt lat="44.43893" lon="5.20961">
        <ele>462.9</ele>
        <time>2021-11-19T13:37:42Z</time>
      </trkpt>
      <trkpt lat="44.43886" lon="5.20959">
        <ele>462.7</ele>
        <time>2021-11-19T13:37:43Z</time>
      </trkpt>
      <trkpt lat="44.43878" lon="5.20957">
        <ele>462.5</ele>
        <time>2021-11-19T13:37:44Z</time>
      </trkpt>
      <trkpt lat="44.4387" lon="5.20956">
        <ele>462.4</ele>
        <time>2021-11-19T13:37:45Z</time>
      </trkpt>
      <trkpt lat="44.43862" lon="5.20956">
        <ele>462.2</ele>
        <time>2021-11-19T13:37:46Z</time>
      </trkpt>
      <trkpt lat="44.43855" lon="5.20957">
        <ele>462</ele>
        <time>2021-11-19T13:37:47Z</time>
      </trkpt>
      <trkpt lat="44.43847" lon="5.2096">
        <ele>461.8</ele>
        <time>2021-11-19T13:37:48Z</time>
      </trkpt>
      <trkpt lat="44.43839" lon="5.20962">
        <ele>461.7</ele>
        <time>2021-11-19T13:37:49Z</time>
      </trkpt>
      <trkpt lat="44.43831" lon="5.20964">
        <ele>461.5</ele>
        <time>2021-11-19T13:37:50Z</time>
      </trkpt>
      <trkpt lat="44.43824" lon="5.20968">
        <ele>461.2</ele>
        <time>2021-11-19T13:37:51Z</time>
      </trkpt>
      <trkpt lat="44.43817" lon="5.20972">
        <ele>461</ele>
        <time>2021-11-19T13:37:52Z</time>
      </trkpt>
      <trkpt lat="44.43809" lon="5.20977">
        <ele>460.7</ele>
        <time>2021-11-19T13:37:53Z</time>
      </trkpt>
      <trkpt lat="44.43802" lon="5.20982">
        <ele>460.5</ele>
        <time>2021-11-19T13:37:54Z</time>
      </trkpt>
      <trkpt lat="44.43795" lon="5.20989">
        <ele>460.2</ele>
        <time>2021-11-19T13:37:55Z</time>
      </trkpt>
      <trkpt lat="44.43789" lon="5.20997">
        <ele>460</ele>
        <time>2021-11-19T13:37:56Z</time>
      </trkpt>
      <trkpt lat="44.43784" lon="5.21006">
        <ele>459.7</ele>
        <time>2021-11-19T13:37:57Z</time>
      </trkpt>
      <trkpt lat="44.43778" lon="5.21016">
        <ele>459.5</ele>
        <time>2021-11-19T13:37:58Z</time>
      </trkpt>
      <trkpt lat="44.43772" lon="5.21024">
        <ele>459.2</ele>
        <time>2021-11-19T13:37:59Z</time>
      </trkpt>
      <trkpt lat="44.43765" lon="5.21031">
        <ele>458.9</ele>
        <time>2021-11-19T13:38:00Z</time>
      </trkpt>
      <trkpt lat="44.43757" lon="5.21039">
        <ele>458.7</ele>
        <time>2021-11-19T13:38:01Z</time>
      </trkpt>
      <trkpt lat="44.43751" lon="5.21047">
        <ele>458.4</ele>
        <time>2021-11-19T13:38:02Z</time>
      </trkpt>
      <trkpt lat="44.43745" lon="5.21055">
        <ele>458.2</ele>
        <time>2021-11-19T13:38:03Z</time>
      </trkpt>
      <trkpt lat="44.43738" lon="5.21063">
        <ele>457.9</ele>
        <time>2021-11-19T13:38:04Z</time>
      </trkpt>
      <trkpt lat="44.43732" lon="5.2107">
        <ele>457.7</ele>
        <time>2021-11-19T13:38:05Z</time>
      </trkpt>
      <trkpt lat="44.43726" lon="5.21078">
        <ele>457.7</ele>
        <time>2021-11-19T13:38:06Z</time>
      </trkpt>
      <trkpt lat="44.43719" lon="5.21085">
        <ele>457.3</ele>
        <time>2021-11-19T13:38:07Z</time>
      </trkpt>
      <trkpt lat="44.43713" lon="5.21094">
        <ele>456.8</ele>
        <time>2021-11-19T13:38:08Z</time>
      </trkpt>
      <trkpt lat="44.43708" lon="5.21102">
        <ele>456.4</ele>
        <time>2021-11-19T13:38:09Z</time>
      </trkpt>
      <trkpt lat="44.43703" lon="5.21113">
        <ele>455.9</ele>
        <time>2021-11-19T13:38:10Z</time>
      </trkpt>
      <trkpt lat="44.43697" lon="5.21123">
        <ele>455.4</ele>
        <time>2021-11-19T13:38:11Z</time>
      </trkpt>
      <trkpt lat="44.43692" lon="5.21133">
        <ele>454.9</ele>
        <time>2021-11-19T13:38:12Z</time>
      </trkpt>
      <trkpt lat="44.43685" lon="5.21142">
        <ele>454.4</ele>
        <time>2021-11-19T13:38:13Z</time>
      </trkpt>
      <trkpt lat="44.43678" lon="5.21151">
        <ele>453.9</ele>
        <time>2021-11-19T13:38:14Z</time>
      </trkpt>
      <trkpt lat="44.43671" lon="5.21159">
        <ele>453.4</ele>
        <time>2021-11-19T13:38:15Z</time>
      </trkpt>
      <trkpt lat="44.43663" lon="5.21166">
        <ele>452.9</ele>
        <time>2021-11-19T13:38:16Z</time>
      </trkpt>
      <trkpt lat="44.43655" lon="5.21173">
        <ele>452.3</ele>
        <time>2021-11-19T13:38:17Z</time>
      </trkpt>
      <trkpt lat="44.43646" lon="5.21178">
        <ele>451.8</ele>
        <time>2021-11-19T13:38:18Z</time>
      </trkpt>
      <trkpt lat="44.43637" lon="5.21181">
        <ele>451.3</ele>
        <time>2021-11-19T13:38:19Z</time>
      </trkpt>
      <trkpt lat="44.43627" lon="5.21183">
        <ele>450.7</ele>
        <time>2021-11-19T13:38:20Z</time>
      </trkpt>
      <trkpt lat="44.43619" lon="5.21185">
        <ele>450.2</ele>
        <time>2021-11-19T13:38:21Z</time>
      </trkpt>
      <trkpt lat="44.4361" lon="5.21187">
        <ele>449.7</ele>
        <time>2021-11-19T13:38:22Z</time>
      </trkpt>
      <trkpt lat="44.436" lon="5.21189">
        <ele>449.1</ele>
        <time>2021-11-19T13:38:23Z</time>
      </trkpt>
      <trkpt lat="44.43591" lon="5.21192">
        <ele>448.6</ele>
        <time>2021-11-19T13:38:24Z</time>
      </trkpt>
      <trkpt lat="44.43582" lon="5.21195">
        <ele>448.1</ele>
        <time>2021-11-19T13:38:25Z</time>
      </trkpt>
      <trkpt lat="44.43573" lon="5.21198">
        <ele>447.6</ele>
        <time>2021-11-19T13:38:26Z</time>
      </trkpt>
      <trkpt lat="44.43565" lon="5.21202">
        <ele>447.1</ele>
        <time>2021-11-19T13:38:27Z</time>
      </trkpt>
      <trkpt lat="44.43556" lon="5.21205">
        <ele>446.6</ele>
        <time>2021-11-19T13:38:28Z</time>
      </trkpt>
      <trkpt lat="44.43547" lon="5.21209">
        <ele>446.1</ele>
        <time>2021-11-19T13:38:29Z</time>
      </trkpt>
      <trkpt lat="44.43538" lon="5.21214">
        <ele>445.9</ele>
        <time>2021-11-19T13:38:30Z</time>
      </trkpt>
      <trkpt lat="44.43529" lon="5.2122">
        <ele>445.8</ele>
        <time>2021-11-19T13:38:31Z</time>
      </trkpt>
      <trkpt lat="44.4352" lon="5.21225">
        <ele>445.6</ele>
        <time>2021-11-19T13:38:32Z</time>
      </trkpt>
      <trkpt lat="44.43511" lon="5.2123">
        <ele>445.3</ele>
        <time>2021-11-19T13:38:33Z</time>
      </trkpt>
      <trkpt lat="44.43502" lon="5.21235">
        <ele>445</ele>
        <time>2021-11-19T13:38:34Z</time>
      </trkpt>
      <trkpt lat="44.43494" lon="5.2124">
        <ele>444.6</ele>
        <time>2021-11-19T13:38:35Z</time>
      </trkpt>
      <trkpt lat="44.43485" lon="5.21245">
        <ele>444.3</ele>
        <time>2021-11-19T13:38:36Z</time>
      </trkpt>
      <trkpt lat="44.43477" lon="5.21251">
        <ele>444.1</ele>
        <time>2021-11-19T13:38:37Z</time>
      </trkpt>
      <trkpt lat="44.43468" lon="5.21256">
        <ele>443.8</ele>
        <time>2021-11-19T13:38:38Z</time>
      </trkpt>
      <trkpt lat="44.4346" lon="5.21261">
        <ele>443.5</ele>
        <time>2021-11-19T13:38:39Z</time>
      </trkpt>
      <trkpt lat="44.43452" lon="5.21266">
        <ele>443.3</ele>
        <time>2021-11-19T13:38:40Z</time>
      </trkpt>
      <trkpt lat="44.43443" lon="5.2127">
        <ele>443</ele>
        <time>2021-11-19T13:38:41Z</time>
      </trkpt>
      <trkpt lat="44.43435" lon="5.21275">
        <ele>442.8</ele>
        <time>2021-11-19T13:38:42Z</time>
      </trkpt>
      <trkpt lat="44.43427" lon="5.21279">
        <ele>442.5</ele>
        <time>2021-11-19T13:38:43Z</time>
      </trkpt>
      <trkpt lat="44.43419" lon="5.21283">
        <ele>442.2</ele>
        <time>2021-11-19T13:38:44Z</time>
      </trkpt>
      <trkpt lat="44.4341" lon="5.21285">
        <ele>441.9</ele>
        <time>2021-11-19T13:38:45Z</time>
      </trkpt>
      <trkpt lat="44.43402" lon="5.21287">
        <ele>441.6</ele>
        <time>2021-11-19T13:38:46Z</time>
      </trkpt>
      <trkpt lat="44.43393" lon="5.21288">
        <ele>441.3</ele>
        <time>2021-11-19T13:38:47Z</time>
      </trkpt>
      <trkpt lat="44.43385" lon="5.21287">
        <ele>441</ele>
        <time>2021-11-19T13:38:48Z</time>
      </trkpt>
      <trkpt lat="44.43376" lon="5.21286">
        <ele>440.6</ele>
        <time>2021-11-19T13:38:49Z</time>
      </trkpt>
      <trkpt lat="44.43368" lon="5.21285">
        <ele>440.3</ele>
        <time>2021-11-19T13:38:50Z</time>
      </trkpt>
      <trkpt lat="44.43359" lon="5.21286">
        <ele>440</ele>
        <time>2021-11-19T13:38:51Z</time>
      </trkpt>
      <trkpt lat="44.43351" lon="5.21286">
        <ele>439.7</ele>
        <time>2021-11-19T13:38:52Z</time>
      </trkpt>
      <trkpt lat="44.43342" lon="5.21285">
        <ele>439.4</ele>
        <time>2021-11-19T13:38:53Z</time>
      </trkpt>
      <trkpt lat="44.43333" lon="5.21285">
        <ele>439.1</ele>
        <time>2021-11-19T13:38:54Z</time>
      </trkpt>
      <trkpt lat="44.43325" lon="5.21285">
        <ele>438.8</ele>
        <time>2021-11-19T13:38:55Z</time>
      </trkpt>
      <trkpt lat="44.43317" lon="5.21288">
        <ele>438.6</ele>
        <time>2021-11-19T13:38:56Z</time>
      </trkpt>
      <trkpt lat="44.4331" lon="5.21291">
        <ele>438.4</ele>
        <time>2021-11-19T13:38:57Z</time>
      </trkpt>
      <trkpt lat="44.43302" lon="5.21295">
        <ele>438.2</ele>
        <time>2021-11-19T13:38:58Z</time>
      </trkpt>
      <trkpt lat="44.43294" lon="5.213">
        <ele>437.9</ele>
        <time>2021-11-19T13:38:59Z</time>
      </trkpt>
      <trkpt lat="44.43286" lon="5.21305">
        <ele>437.7</ele>
        <time>2021-11-19T13:39:00Z</time>
      </trkpt>
      <trkpt lat="44.43278" lon="5.21309">
        <ele>437.4</ele>
        <time>2021-11-19T13:39:01Z</time>
      </trkpt>
      <trkpt lat="44.43271" lon="5.21313">
        <ele>437.2</ele>
        <time>2021-11-19T13:39:02Z</time>
      </trkpt>
      <trkpt lat="44.43262" lon="5.21318">
        <ele>436.9</ele>
        <time>2021-11-19T13:39:03Z</time>
      </trkpt>
      <trkpt lat="44.43255" lon="5.21322">
        <ele>436.6</ele>
        <time>2021-11-19T13:39:04Z</time>
      </trkpt>
      <trkpt lat="44.43248" lon="5.21327">
        <ele>436.3</ele>
        <time>2021-11-19T13:39:05Z</time>
      </trkpt>
      <trkpt lat="44.4324" lon="5.21332">
        <ele>436</ele>
        <time>2021-11-19T13:39:06Z</time>
      </trkpt>
      <trkpt lat="44.43233" lon="5.21337">
        <ele>435.7</ele>
        <time>2021-11-19T13:39:07Z</time>
      </trkpt>
      <trkpt lat="44.43226" lon="5.21344">
        <ele>435.4</ele>
        <time>2021-11-19T13:39:08Z</time>
      </trkpt>
      <trkpt lat="44.43219" lon="5.21351">
        <ele>435.1</ele>
        <time>2021-11-19T13:39:09Z</time>
      </trkpt>
      <trkpt lat="44.43212" lon="5.21358">
        <ele>434.7</ele>
        <time>2021-11-19T13:39:10Z</time>
      </trkpt>
      <trkpt lat="44.43205" lon="5.21364">
        <ele>434.4</ele>
        <time>2021-11-19T13:39:11Z</time>
      </trkpt>
      <trkpt lat="44.43196" lon="5.2137">
        <ele>434</ele>
        <time>2021-11-19T13:39:12Z</time>
      </trkpt>
      <trkpt lat="44.43189" lon="5.21376">
        <ele>433.6</ele>
        <time>2021-11-19T13:39:13Z</time>
      </trkpt>
      <trkpt lat="44.43181" lon="5.21382">
        <ele>433.2</ele>
        <time>2021-11-19T13:39:14Z</time>
      </trkpt>
      <trkpt lat="44.43174" lon="5.21388">
        <ele>432.9</ele>
        <time>2021-11-19T13:39:15Z</time>
      </trkpt>
      <trkpt lat="44.43166" lon="5.21394">
        <ele>432.4</ele>
        <time>2021-11-19T13:39:16Z</time>
      </trkpt>
      <trkpt lat="44.43158" lon="5.214">
        <ele>432</ele>
        <time>2021-11-19T13:39:17Z</time>
      </trkpt>
      <trkpt lat="44.4315" lon="5.21406">
        <ele>431.6</ele>
        <time>2021-11-19T13:39:18Z</time>
      </trkpt>
      <trkpt lat="44.43143" lon="5.21413">
        <ele>431.2</ele>
        <time>2021-11-19T13:39:19Z</time>
      </trkpt>
      <trkpt lat="44.43135" lon="5.2142">
        <ele>430.8</ele>
        <time>2021-11-19T13:39:20Z</time>
      </trkpt>
      <trkpt lat="44.43128" lon="5.21427">
        <ele>430.4</ele>
        <time>2021-11-19T13:39:21Z</time>
      </trkpt>
      <trkpt lat="44.43121" lon="5.21435">
        <ele>430</ele>
        <time>2021-11-19T13:39:22Z</time>
      </trkpt>
      <trkpt lat="44.43114" lon="5.21444">
        <ele>429.5</ele>
        <time>2021-11-19T13:39:23Z</time>
      </trkpt>
      <trkpt lat="44.43107" lon="5.21452">
        <ele>429.1</ele>
        <time>2021-11-19T13:39:24Z</time>
      </trkpt>
      <trkpt lat="44.431" lon="5.2146">
        <ele>428.7</ele>
        <time>2021-11-19T13:39:25Z</time>
      </trkpt>
      <trkpt lat="44.43093" lon="5.21467">
        <ele>428.3</ele>
        <time>2021-11-19T13:39:26Z</time>
      </trkpt>
      <trkpt lat="44.43085" lon="5.21475">
        <ele>427.9</ele>
        <time>2021-11-19T13:39:27Z</time>
      </trkpt>
      <trkpt lat="44.43078" lon="5.21483">
        <ele>427.5</ele>
        <time>2021-11-19T13:39:28Z</time>
      </trkpt>
      <trkpt lat="44.43071" lon="5.2149">
        <ele>427.1</ele>
        <time>2021-11-19T13:39:29Z</time>
      </trkpt>
      <trkpt lat="44.43064" lon="5.21498">
        <ele>426.6</ele>
        <time>2021-11-19T13:39:30Z</time>
      </trkpt>
      <trkpt lat="44.43057" lon="5.21506">
        <ele>426.2</ele>
        <time>2021-11-19T13:39:31Z</time>
      </trkpt>
      <trkpt lat="44.4305" lon="5.21514">
        <ele>425.7</ele>
        <time>2021-11-19T13:39:32Z</time>
      </trkpt>
      <trkpt lat="44.43043" lon="5.21522">
        <ele>425.3</ele>
        <time>2021-11-19T13:39:33Z</time>
      </trkpt>
      <trkpt lat="44.43035" lon="5.2153">
        <ele>424.8</ele>
        <time>2021-11-19T13:39:34Z</time>
      </trkpt>
      <trkpt lat="44.43028" lon="5.21538">
        <ele>424.4</ele>
        <time>2021-11-19T13:39:35Z</time>
      </trkpt>
      <trkpt lat="44.43021" lon="5.21547">
        <ele>424.1</ele>
        <time>2021-11-19T13:39:36Z</time>
      </trkpt>
      <trkpt lat="44.43013" lon="5.21555">
        <ele>423.8</ele>
        <time>2021-11-19T13:39:37Z</time>
      </trkpt>
      <trkpt lat="44.43006" lon="5.21563">
        <ele>423.4</ele>
        <time>2021-11-19T13:39:38Z</time>
      </trkpt>
      <trkpt lat="44.42998" lon="5.21571">
        <ele>423.1</ele>
        <time>2021-11-19T13:39:39Z</time>
      </trkpt>
      <trkpt lat="44.42991" lon="5.21578">
        <ele>422.8</ele>
        <time>2021-11-19T13:39:40Z</time>
      </trkpt>
      <trkpt lat="44.42983" lon="5.21586">
        <ele>422.5</ele>
        <time>2021-11-19T13:39:41Z</time>
      </trkpt>
      <trkpt lat="44.42976" lon="5.21594">
        <ele>422.2</ele>
        <time>2021-11-19T13:39:42Z</time>
      </trkpt>
      <trkpt lat="44.42969" lon="5.21601">
        <ele>422</ele>
        <time>2021-11-19T13:39:43Z</time>
      </trkpt>
      <trkpt lat="44.42962" lon="5.21609">
        <ele>421.8</ele>
        <time>2021-11-19T13:39:44Z</time>
      </trkpt>
      <trkpt lat="44.42955" lon="5.21616">
        <ele>421.5</ele>
        <time>2021-11-19T13:39:45Z</time>
      </trkpt>
      <trkpt lat="44.42948" lon="5.21624">
        <ele>421.3</ele>
        <time>2021-11-19T13:39:46Z</time>
      </trkpt>
      <trkpt lat="44.42942" lon="5.21631">
        <ele>421.1</ele>
        <time>2021-11-19T13:39:47Z</time>
      </trkpt>
      <trkpt lat="44.42935" lon="5.21638">
        <ele>420.8</ele>
        <time>2021-11-19T13:39:48Z</time>
      </trkpt>
      <trkpt lat="44.42928" lon="5.21645">
        <ele>420.6</ele>
        <time>2021-11-19T13:39:49Z</time>
      </trkpt>
      <trkpt lat="44.42921" lon="5.21652">
        <ele>420.4</ele>
        <time>2021-11-19T13:39:50Z</time>
      </trkpt>
      <trkpt lat="44.42915" lon="5.2166">
        <ele>420.2</ele>
        <time>2021-11-19T13:39:51Z</time>
      </trkpt>
      <trkpt lat="44.42908" lon="5.21667">
        <ele>420</ele>
        <time>2021-11-19T13:39:52Z</time>
      </trkpt>
      <trkpt lat="44.42902" lon="5.21674">
        <ele>419.8</ele>
        <time>2021-11-19T13:39:53Z</time>
      </trkpt>
      <trkpt lat="44.42895" lon="5.21681">
        <ele>419.6</ele>
        <time>2021-11-19T13:39:54Z</time>
      </trkpt>
      <trkpt lat="44.42888" lon="5.21687">
        <ele>419.4</ele>
        <time>2021-11-19T13:39:55Z</time>
      </trkpt>
      <trkpt lat="44.42881" lon="5.21693">
        <ele>419.2</ele>
        <time>2021-11-19T13:39:56Z</time>
      </trkpt>
      <trkpt lat="44.42873" lon="5.21699">
        <ele>419</ele>
        <time>2021-11-19T13:39:57Z</time>
      </trkpt>
      <trkpt lat="44.42866" lon="5.21704">
        <ele>418.8</ele>
        <time>2021-11-19T13:39:58Z</time>
      </trkpt>
      <trkpt lat="44.42859" lon="5.21708">
        <ele>418.6</ele>
        <time>2021-11-19T13:39:59Z</time>
      </trkpt>
      <trkpt lat="44.42851" lon="5.21712">
        <ele>418.3</ele>
        <time>2021-11-19T13:40:00Z</time>
      </trkpt>
      <trkpt lat="44.42843" lon="5.21714">
        <ele>418.1</ele>
        <time>2021-11-19T13:40:01Z</time>
      </trkpt>
      <trkpt lat="44.42836" lon="5.21718">
        <ele>417.9</ele>
        <time>2021-11-19T13:40:02Z</time>
      </trkpt>
      <trkpt lat="44.42828" lon="5.21721">
        <ele>417.7</ele>
        <time>2021-11-19T13:40:03Z</time>
      </trkpt>
      <trkpt lat="44.42821" lon="5.21724">
        <ele>417.5</ele>
        <time>2021-11-19T13:40:04Z</time>
      </trkpt>
      <trkpt lat="44.42813" lon="5.21728">
        <ele>417.3</ele>
        <time>2021-11-19T13:40:05Z</time>
      </trkpt>
      <trkpt lat="44.42806" lon="5.21731">
        <ele>417.1</ele>
        <time>2021-11-19T13:40:06Z</time>
      </trkpt>
      <trkpt lat="44.42798" lon="5.21734">
        <ele>416.9</ele>
        <time>2021-11-19T13:40:07Z</time>
      </trkpt>
      <trkpt lat="44.42791" lon="5.21737">
        <ele>416.7</ele>
        <time>2021-11-19T13:40:08Z</time>
      </trkpt>
      <trkpt lat="44.42783" lon="5.21741">
        <ele>416.6</ele>
        <time>2021-11-19T13:40:09Z</time>
      </trkpt>
      <trkpt lat="44.42775" lon="5.21743">
        <ele>416.4</ele>
        <time>2021-11-19T13:40:10Z</time>
      </trkpt>
      <trkpt lat="44.42768" lon="5.21745">
        <ele>416.3</ele>
        <time>2021-11-19T13:40:11Z</time>
      </trkpt>
      <trkpt lat="44.42759" lon="5.21744">
        <ele>416.1</ele>
        <time>2021-11-19T13:40:12Z</time>
      </trkpt>
      <trkpt lat="44.42752" lon="5.21741">
        <ele>416</ele>
        <time>2021-11-19T13:40:13Z</time>
      </trkpt>
      <trkpt lat="44.42745" lon="5.21736">
        <ele>415.9</ele>
        <time>2021-11-19T13:40:14Z</time>
      </trkpt>
      <trkpt lat="44.42739" lon="5.21729">
        <ele>415.9</ele>
        <time>2021-11-19T13:40:15Z</time>
      </trkpt>
      <trkpt lat="44.42733" lon="5.21721">
        <ele>415.8</ele>
        <time>2021-11-19T13:40:16Z</time>
      </trkpt>
      <trkpt lat="44.42726" lon="5.21714">
        <ele>415.8</ele>
        <time>2021-11-19T13:40:17Z</time>
      </trkpt>
      <trkpt lat="44.4272" lon="5.21709">
        <ele>415.7</ele>
        <time>2021-11-19T13:40:18Z</time>
      </trkpt>
      <trkpt lat="44.42714" lon="5.21706">
        <ele>415.6</ele>
        <time>2021-11-19T13:40:19Z</time>
      </trkpt>
      <trkpt lat="44.42707" lon="5.21704">
        <ele>415.4</ele>
        <time>2021-11-19T13:40:20Z</time>
      </trkpt>
      <trkpt lat="44.427" lon="5.21704">
        <ele>415.3</ele>
        <time>2021-11-19T13:40:21Z</time>
      </trkpt>
      <trkpt lat="44.42695" lon="5.21705">
        <ele>415.2</ele>
        <time>2021-11-19T13:40:22Z</time>
      </trkpt>
      <trkpt lat="44.42689" lon="5.21709">
        <ele>415.1</ele>
        <time>2021-11-19T13:40:23Z</time>
      </trkpt>
      <trkpt lat="44.42684" lon="5.21713">
        <ele>415</ele>
        <time>2021-11-19T13:40:24Z</time>
      </trkpt>
      <trkpt lat="44.42678" lon="5.21717">
        <ele>414.9</ele>
        <time>2021-11-19T13:40:25Z</time>
      </trkpt>
      <trkpt lat="44.42672" lon="5.21721">
        <ele>414.9</ele>
        <time>2021-11-19T13:40:26Z</time>
      </trkpt>
      <trkpt lat="44.42666" lon="5.21725">
        <ele>414.8</ele>
        <time>2021-11-19T13:40:27Z</time>
      </trkpt>
      <trkpt lat="44.42661" lon="5.21729">
        <ele>414.7</ele>
        <time>2021-11-19T13:40:28Z</time>
      </trkpt>
      <trkpt lat="44.42655" lon="5.21734">
        <ele>414.6</ele>
        <time>2021-11-19T13:40:29Z</time>
      </trkpt>
      <trkpt lat="44.4265" lon="5.21738">
        <ele>414.5</ele>
        <time>2021-11-19T13:40:30Z</time>
      </trkpt>
      <trkpt lat="44.42645" lon="5.21742">
        <ele>414.4</ele>
        <time>2021-11-19T13:40:31Z</time>
      </trkpt>
      <trkpt lat="44.42639" lon="5.21744">
        <ele>414.3</ele>
        <time>2021-11-19T13:40:32Z</time>
      </trkpt>
      <trkpt lat="44.42633" lon="5.21748">
        <ele>414.2</ele>
        <time>2021-11-19T13:40:33Z</time>
      </trkpt>
      <trkpt lat="44.42627" lon="5.21751">
        <ele>414.1</ele>
        <time>2021-11-19T13:40:34Z</time>
      </trkpt>
      <trkpt lat="44.4262" lon="5.21753">
        <ele>413.9</ele>
        <time>2021-11-19T13:40:35Z</time>
      </trkpt>
      <trkpt lat="44.42614" lon="5.21754">
        <ele>413.7</ele>
        <time>2021-11-19T13:40:36Z</time>
      </trkpt>
      <trkpt lat="44.42607" lon="5.21755">
        <ele>413.6</ele>
        <time>2021-11-19T13:40:37Z</time>
      </trkpt>
      <trkpt lat="44.42599" lon="5.21754">
        <ele>413.3</ele>
        <time>2021-11-19T13:40:38Z</time>
      </trkpt>
      <trkpt lat="44.42591" lon="5.21754">
        <ele>413</ele>
        <time>2021-11-19T13:40:39Z</time>
      </trkpt>
      <trkpt lat="44.42584" lon="5.21753">
        <ele>412.8</ele>
        <time>2021-11-19T13:40:40Z</time>
      </trkpt>
      <trkpt lat="44.42576" lon="5.21751">
        <ele>412.5</ele>
        <time>2021-11-19T13:40:41Z</time>
      </trkpt>
      <trkpt lat="44.42568" lon="5.2175">
        <ele>412.3</ele>
        <time>2021-11-19T13:40:42Z</time>
      </trkpt>
      <trkpt lat="44.42561" lon="5.21748">
        <ele>412</ele>
        <time>2021-11-19T13:40:43Z</time>
      </trkpt>
      <trkpt lat="44.42553" lon="5.21746">
        <ele>411.7</ele>
        <time>2021-11-19T13:40:44Z</time>
      </trkpt>
      <trkpt lat="44.42545" lon="5.21745">
        <ele>411.5</ele>
        <time>2021-11-19T13:40:45Z</time>
      </trkpt>
      <trkpt lat="44.42537" lon="5.21744">
        <ele>411.2</ele>
        <time>2021-11-19T13:40:46Z</time>
      </trkpt>
      <trkpt lat="44.42529" lon="5.21742">
        <ele>411</ele>
        <time>2021-11-19T13:40:47Z</time>
      </trkpt>
      <trkpt lat="44.42522" lon="5.21741">
        <ele>410.7</ele>
        <time>2021-11-19T13:40:48Z</time>
      </trkpt>
      <trkpt lat="44.42514" lon="5.2174">
        <ele>410.5</ele>
        <time>2021-11-19T13:40:49Z</time>
      </trkpt>
      <trkpt lat="44.42506" lon="5.21738">
        <ele>410.2</ele>
        <time>2021-11-19T13:40:50Z</time>
      </trkpt>
      <trkpt lat="44.42498" lon="5.21736">
        <ele>409.9</ele>
        <time>2021-11-19T13:40:51Z</time>
      </trkpt>
      <trkpt lat="44.4249" lon="5.21734">
        <ele>409.7</ele>
        <time>2021-11-19T13:40:52Z</time>
      </trkpt>
      <trkpt lat="44.42482" lon="5.21733">
        <ele>409.4</ele>
        <time>2021-11-19T13:40:53Z</time>
      </trkpt>
      <trkpt lat="44.42474" lon="5.21732">
        <ele>409.1</ele>
        <time>2021-11-19T13:40:54Z</time>
      </trkpt>
      <trkpt lat="44.42466" lon="5.21729">
        <ele>408.8</ele>
        <time>2021-11-19T13:40:55Z</time>
      </trkpt>
      <trkpt lat="44.42458" lon="5.21727">
        <ele>408.5</ele>
        <time>2021-11-19T13:40:56Z</time>
      </trkpt>
      <trkpt lat="44.4245" lon="5.21723">
        <ele>408.1</ele>
        <time>2021-11-19T13:40:57Z</time>
      </trkpt>
      <trkpt lat="44.42443" lon="5.21719">
        <ele>407.8</ele>
        <time>2021-11-19T13:40:58Z</time>
      </trkpt>
      <trkpt lat="44.42435" lon="5.21712">
        <ele>407.4</ele>
        <time>2021-11-19T13:40:59Z</time>
      </trkpt>
      <trkpt lat="44.42428" lon="5.21706">
        <ele>407.1</ele>
        <time>2021-11-19T13:41:00Z</time>
      </trkpt>
      <trkpt lat="44.42422" lon="5.21699">
        <ele>406.8</ele>
        <time>2021-11-19T13:41:01Z</time>
      </trkpt>
      <trkpt lat="44.42417" lon="5.2169">
        <ele>406.4</ele>
        <time>2021-11-19T13:41:02Z</time>
      </trkpt>
      <trkpt lat="44.42413" lon="5.21679">
        <ele>406.1</ele>
        <time>2021-11-19T13:41:03Z</time>
      </trkpt>
      <trkpt lat="44.42408" lon="5.21668">
        <ele>405.8</ele>
        <time>2021-11-19T13:41:04Z</time>
      </trkpt>
      <trkpt lat="44.42405" lon="5.21656">
        <ele>405.4</ele>
        <time>2021-11-19T13:41:05Z</time>
      </trkpt>
      <trkpt lat="44.42402" lon="5.21644">
        <ele>405.1</ele>
        <time>2021-11-19T13:41:06Z</time>
      </trkpt>
      <trkpt lat="44.424" lon="5.21632">
        <ele>404.9</ele>
        <time>2021-11-19T13:41:07Z</time>
      </trkpt>
      <trkpt lat="44.42398" lon="5.21621">
        <ele>404.6</ele>
        <time>2021-11-19T13:41:08Z</time>
      </trkpt>
      <trkpt lat="44.42396" lon="5.2161">
        <ele>404.3</ele>
        <time>2021-11-19T13:41:09Z</time>
      </trkpt>
      <trkpt lat="44.42393" lon="5.21598">
        <ele>404</ele>
        <time>2021-11-19T13:41:10Z</time>
      </trkpt>
      <trkpt lat="44.42391" lon="5.21587">
        <ele>403.6</ele>
        <time>2021-11-19T13:41:11Z</time>
      </trkpt>
      <trkpt lat="44.42388" lon="5.21575">
        <ele>403.3</ele>
        <time>2021-11-19T13:41:12Z</time>
      </trkpt>
      <trkpt lat="44.42386" lon="5.21563">
        <ele>402.9</ele>
        <time>2021-11-19T13:41:13Z</time>
      </trkpt>
      <trkpt lat="44.42383" lon="5.21552">
        <ele>402.6</ele>
        <time>2021-11-19T13:41:14Z</time>
      </trkpt>
      <trkpt lat="44.42381" lon="5.21541">
        <ele>402.4</ele>
        <time>2021-11-19T13:41:15Z</time>
      </trkpt>
      <trkpt lat="44.42378" lon="5.2153">
        <ele>402.1</ele>
        <time>2021-11-19T13:41:16Z</time>
      </trkpt>
      <trkpt lat="44.42376" lon="5.21518">
        <ele>401.8</ele>
        <time>2021-11-19T13:41:17Z</time>
      </trkpt>
      <trkpt lat="44.42374" lon="5.21507">
        <ele>401.6</ele>
        <time>2021-11-19T13:41:18Z</time>
      </trkpt>
      <trkpt lat="44.42371" lon="5.21495">
        <ele>401.4</ele>
        <time>2021-11-19T13:41:19Z</time>
      </trkpt>
      <trkpt lat="44.42369" lon="5.21483">
        <ele>401.1</ele>
        <time>2021-11-19T13:41:20Z</time>
      </trkpt>
      <trkpt lat="44.42367" lon="5.21471">
        <ele>400.9</ele>
        <time>2021-11-19T13:41:21Z</time>
      </trkpt>
      <trkpt lat="44.42365" lon="5.21459">
        <ele>400.7</ele>
        <time>2021-11-19T13:41:22Z</time>
      </trkpt>
      <trkpt lat="44.42363" lon="5.21448">
        <ele>400.5</ele>
        <time>2021-11-19T13:41:23Z</time>
      </trkpt>
      <trkpt lat="44.42361" lon="5.21436">
        <ele>400.2</ele>
        <time>2021-11-19T13:41:24Z</time>
      </trkpt>
      <trkpt lat="44.42359" lon="5.21424">
        <ele>400</ele>
        <time>2021-11-19T13:41:25Z</time>
      </trkpt>
      <trkpt lat="44.42358" lon="5.21412">
        <ele>399.9</ele>
        <time>2021-11-19T13:41:26Z</time>
      </trkpt>
      <trkpt lat="44.42357" lon="5.214">
        <ele>399.6</ele>
        <time>2021-11-19T13:41:27Z</time>
      </trkpt>
      <trkpt lat="44.42357" lon="5.21388">
        <ele>399.4</ele>
        <time>2021-11-19T13:41:28Z</time>
      </trkpt>
      <trkpt lat="44.42357" lon="5.21376">
        <ele>399.2</ele>
        <time>2021-11-19T13:41:29Z</time>
      </trkpt>
      <trkpt lat="44.42356" lon="5.21365">
        <ele>399</ele>
        <time>2021-11-19T13:41:30Z</time>
      </trkpt>
      <trkpt lat="44.42355" lon="5.21354">
        <ele>398.8</ele>
        <time>2021-11-19T13:41:31Z</time>
      </trkpt>
      <trkpt lat="44.42354" lon="5.21343">
        <ele>398.7</ele>
        <time>2021-11-19T13:41:32Z</time>
      </trkpt>
      <trkpt lat="44.42352" lon="5.21332">
        <ele>398.5</ele>
        <time>2021-11-19T13:41:33Z</time>
      </trkpt>
      <trkpt lat="44.4235" lon="5.21322">
        <ele>398.3</ele>
        <time>2021-11-19T13:41:34Z</time>
      </trkpt>
      <trkpt lat="44.42346" lon="5.21311">
        <ele>398.1</ele>
        <time>2021-11-19T13:41:35Z</time>
      </trkpt>
      <trkpt lat="44.42342" lon="5.21301">
        <ele>397.9</ele>
        <time>2021-11-19T13:41:36Z</time>
      </trkpt>
      <trkpt lat="44.42338" lon="5.21292">
        <ele>397.7</ele>
        <time>2021-11-19T13:41:37Z</time>
      </trkpt>
      <trkpt lat="44.42335" lon="5.21283">
        <ele>397.5</ele>
        <time>2021-11-19T13:41:38Z</time>
      </trkpt>
      <trkpt lat="44.42331" lon="5.21274">
        <ele>397.3</ele>
        <time>2021-11-19T13:41:39Z</time>
      </trkpt>
      <trkpt lat="44.42327" lon="5.21265">
        <ele>397.1</ele>
        <time>2021-11-19T13:41:40Z</time>
      </trkpt>
      <trkpt lat="44.42323" lon="5.21255">
        <ele>396.9</ele>
        <time>2021-11-19T13:41:41Z</time>
      </trkpt>
      <trkpt lat="44.42319" lon="5.21246">
        <ele>396.7</ele>
        <time>2021-11-19T13:41:42Z</time>
      </trkpt>
      <trkpt lat="44.42315" lon="5.21238">
        <ele>396.5</ele>
        <time>2021-11-19T13:41:43Z</time>
      </trkpt>
      <trkpt lat="44.42309" lon="5.2123">
        <ele>396.4</ele>
        <time>2021-11-19T13:41:44Z</time>
      </trkpt>
      <trkpt lat="44.42304" lon="5.21223">
        <ele>396.2</ele>
        <time>2021-11-19T13:41:45Z</time>
      </trkpt>
      <trkpt lat="44.42298" lon="5.21216">
        <ele>396.1</ele>
        <time>2021-11-19T13:41:46Z</time>
      </trkpt>
      <trkpt lat="44.42292" lon="5.21209">
        <ele>395.9</ele>
        <time>2021-11-19T13:41:47Z</time>
      </trkpt>
      <trkpt lat="44.42285" lon="5.21202">
        <ele>395.8</ele>
        <time>2021-11-19T13:41:48Z</time>
      </trkpt>
      <trkpt lat="44.42279" lon="5.21196">
        <ele>395.6</ele>
        <time>2021-11-19T13:41:49Z</time>
      </trkpt>
      <trkpt lat="44.42273" lon="5.21191">
        <ele>395.5</ele>
        <time>2021-11-19T13:41:50Z</time>
      </trkpt>
      <trkpt lat="44.42268" lon="5.21187">
        <ele>395.4</ele>
        <time>2021-11-19T13:41:51Z</time>
      </trkpt>
      <trkpt lat="44.42263" lon="5.2118">
        <ele>395.3</ele>
        <time>2021-11-19T13:41:52Z</time>
      </trkpt>
      <trkpt lat="44.42258" lon="5.21173">
        <ele>395.2</ele>
        <time>2021-11-19T13:41:53Z</time>
      </trkpt>
      <trkpt lat="44.42254" lon="5.21165">
        <ele>395.1</ele>
        <time>2021-11-19T13:41:54Z</time>
      </trkpt>
      <trkpt lat="44.42251" lon="5.21157">
        <ele>395</ele>
        <time>2021-11-19T13:41:55Z</time>
      </trkpt>
      <trkpt lat="44.42247" lon="5.21148">
        <ele>394.9</ele>
        <time>2021-11-19T13:41:56Z</time>
      </trkpt>
      <trkpt lat="44.42244" lon="5.2114">
        <ele>394.8</ele>
        <time>2021-11-19T13:41:57Z</time>
      </trkpt>
      <trkpt lat="44.42241" lon="5.21131">
        <ele>394.7</ele>
        <time>2021-11-19T13:41:58Z</time>
      </trkpt>
      <trkpt lat="44.42238" lon="5.21123">
        <ele>394.6</ele>
        <time>2021-11-19T13:41:59Z</time>
      </trkpt>
      <trkpt lat="44.42234" lon="5.21114">
        <ele>394.5</ele>
        <time>2021-11-19T13:42:00Z</time>
      </trkpt>
      <trkpt lat="44.4223" lon="5.21106">
        <ele>394.5</ele>
        <time>2021-11-19T13:42:01Z</time>
      </trkpt>
      <trkpt lat="44.42226" lon="5.21098">
        <ele>394.4</ele>
        <time>2021-11-19T13:42:02Z</time>
      </trkpt>
      <trkpt lat="44.42222" lon="5.2109">
        <ele>394.3</ele>
        <time>2021-11-19T13:42:03Z</time>
      </trkpt>
      <trkpt lat="44.42219" lon="5.21082">
        <ele>394.2</ele>
        <time>2021-11-19T13:42:04Z</time>
      </trkpt>
      <trkpt lat="44.42216" lon="5.21074">
        <ele>394.2</ele>
        <time>2021-11-19T13:42:05Z</time>
      </trkpt>
      <trkpt lat="44.42213" lon="5.21067">
        <ele>394.1</ele>
        <time>2021-11-19T13:42:06Z</time>
      </trkpt>
      <trkpt lat="44.42209" lon="5.21059">
        <ele>394</ele>
        <time>2021-11-19T13:42:07Z</time>
      </trkpt>
      <trkpt lat="44.42205" lon="5.21053">
        <ele>394</ele>
        <time>2021-11-19T13:42:08Z</time>
      </trkpt>
      <trkpt lat="44.42201" lon="5.21046">
        <ele>393.9</ele>
        <time>2021-11-19T13:42:09Z</time>
      </trkpt>
      <trkpt lat="44.42197" lon="5.21038">
        <ele>393.8</ele>
        <time>2021-11-19T13:42:10Z</time>
      </trkpt>
      <trkpt lat="44.42192" lon="5.21031">
        <ele>393.7</ele>
        <time>2021-11-19T13:42:11Z</time>
      </trkpt>
      <trkpt lat="44.42187" lon="5.21024">
        <ele>393.6</ele>
        <time>2021-11-19T13:42:12Z</time>
      </trkpt>
      <trkpt lat="44.42182" lon="5.21017">
        <ele>393.5</ele>
        <time>2021-11-19T13:42:13Z</time>
      </trkpt>
      <trkpt lat="44.42178" lon="5.21011">
        <ele>393.4</ele>
        <time>2021-11-19T13:42:14Z</time>
      </trkpt>
      <trkpt lat="44.42173" lon="5.21004">
        <ele>393.3</ele>
        <time>2021-11-19T13:42:15Z</time>
      </trkpt>
      <trkpt lat="44.42168" lon="5.20997">
        <ele>393.2</ele>
        <time>2021-11-19T13:42:16Z</time>
      </trkpt>
      <trkpt lat="44.42163" lon="5.2099">
        <ele>393</ele>
        <time>2021-11-19T13:42:17Z</time>
      </trkpt>
      <trkpt lat="44.42158" lon="5.20983">
        <ele>393</ele>
        <time>2021-11-19T13:42:18Z</time>
      </trkpt>
      <trkpt lat="44.42154" lon="5.20977">
        <ele>392.9</ele>
        <time>2021-11-19T13:42:19Z</time>
      </trkpt>
      <trkpt lat="44.4215" lon="5.2097">
        <ele>392.6</ele>
        <time>2021-11-19T13:42:20Z</time>
      </trkpt>
      <trkpt lat="44.42145" lon="5.20963">
        <ele>392.4</ele>
        <time>2021-11-19T13:42:21Z</time>
      </trkpt>
      <trkpt lat="44.4214" lon="5.20956">
        <ele>392.2</ele>
        <time>2021-11-19T13:42:22Z</time>
      </trkpt>
      <trkpt lat="44.42135" lon="5.20949">
        <ele>391.9</ele>
        <time>2021-11-19T13:42:23Z</time>
      </trkpt>
      <trkpt lat="44.42131" lon="5.20943">
        <ele>391.7</ele>
        <time>2021-11-19T13:42:24Z</time>
      </trkpt>
      <trkpt lat="44.42125" lon="5.20936">
        <ele>391.5</ele>
        <time>2021-11-19T13:42:25Z</time>
      </trkpt>
      <trkpt lat="44.4212" lon="5.20929">
        <ele>391.2</ele>
        <time>2021-11-19T13:42:26Z</time>
      </trkpt>
      <trkpt lat="44.42116" lon="5.20923">
        <ele>391</ele>
        <time>2021-11-19T13:42:27Z</time>
      </trkpt>
      <trkpt lat="44.42111" lon="5.20916">
        <ele>390.8</ele>
        <time>2021-11-19T13:42:28Z</time>
      </trkpt>
      <trkpt lat="44.42105" lon="5.20909">
        <ele>390.5</ele>
        <time>2021-11-19T13:42:29Z</time>
      </trkpt>
      <trkpt lat="44.421" lon="5.20902">
        <ele>390.3</ele>
        <time>2021-11-19T13:42:30Z</time>
      </trkpt>
      <trkpt lat="44.42095" lon="5.20895">
        <ele>390</ele>
        <time>2021-11-19T13:42:31Z</time>
      </trkpt>
      <trkpt lat="44.4209" lon="5.20888">
        <ele>389.8</ele>
        <time>2021-11-19T13:42:32Z</time>
      </trkpt>
      <trkpt lat="44.42085" lon="5.20881">
        <ele>389.6</ele>
        <time>2021-11-19T13:42:33Z</time>
      </trkpt>
      <trkpt lat="44.42079" lon="5.20874">
        <ele>389.4</ele>
        <time>2021-11-19T13:42:34Z</time>
      </trkpt>
      <trkpt lat="44.42074" lon="5.20866">
        <ele>389.2</ele>
        <time>2021-11-19T13:42:35Z</time>
      </trkpt>
      <trkpt lat="44.42068" lon="5.20859">
        <ele>389</ele>
        <time>2021-11-19T13:42:36Z</time>
      </trkpt>
      <trkpt lat="44.42063" lon="5.20852">
        <ele>388.7</ele>
        <time>2021-11-19T13:42:37Z</time>
      </trkpt>
      <trkpt lat="44.42058" lon="5.20844">
        <ele>388.5</ele>
        <time>2021-11-19T13:42:38Z</time>
      </trkpt>
      <trkpt lat="44.42052" lon="5.20837">
        <ele>388.3</ele>
        <time>2021-11-19T13:42:39Z</time>
      </trkpt>
      <trkpt lat="44.42046" lon="5.2083">
        <ele>388.1</ele>
        <time>2021-11-19T13:42:40Z</time>
      </trkpt>
      <trkpt lat="44.42041" lon="5.20825">
        <ele>387.9</ele>
        <time>2021-11-19T13:42:41Z</time>
      </trkpt>
      <trkpt lat="44.42035" lon="5.20819">
        <ele>387.7</ele>
        <time>2021-11-19T13:42:42Z</time>
      </trkpt>
      <trkpt lat="44.42029" lon="5.20813">
        <ele>387.4</ele>
        <time>2021-11-19T13:42:43Z</time>
      </trkpt>
      <trkpt lat="44.42022" lon="5.20807">
        <ele>387.1</ele>
        <time>2021-11-19T13:42:44Z</time>
      </trkpt>
      <trkpt lat="44.42016" lon="5.20801">
        <ele>386.7</ele>
        <time>2021-11-19T13:42:45Z</time>
      </trkpt>
      <trkpt lat="44.42009" lon="5.20795">
        <ele>386.4</ele>
        <time>2021-11-19T13:42:46Z</time>
      </trkpt>
      <trkpt lat="44.42002" lon="5.20789">
        <ele>386</ele>
        <time>2021-11-19T13:42:47Z</time>
      </trkpt>
      <trkpt lat="44.41995" lon="5.20783">
        <ele>385.7</ele>
        <time>2021-11-19T13:42:48Z</time>
      </trkpt>
      <trkpt lat="44.41988" lon="5.20777">
        <ele>385.4</ele>
        <time>2021-11-19T13:42:49Z</time>
      </trkpt>
      <trkpt lat="44.41981" lon="5.20771">
        <ele>385.2</ele>
        <time>2021-11-19T13:42:50Z</time>
      </trkpt>
      <trkpt lat="44.41974" lon="5.20765">
        <ele>385</ele>
        <time>2021-11-19T13:42:51Z</time>
      </trkpt>
      <trkpt lat="44.41967" lon="5.20759">
        <ele>384.8</ele>
        <time>2021-11-19T13:42:52Z</time>
      </trkpt>
      <trkpt lat="44.4196" lon="5.20753">
        <ele>384.6</ele>
        <time>2021-11-19T13:42:53Z</time>
      </trkpt>
      <trkpt lat="44.41955" lon="5.20747">
        <ele>384.5</ele>
        <time>2021-11-19T13:42:54Z</time>
      </trkpt>
      <trkpt lat="44.41949" lon="5.2074">
        <ele>384.4</ele>
        <time>2021-11-19T13:42:55Z</time>
      </trkpt>
      <trkpt lat="44.41943" lon="5.20734">
        <ele>384.2</ele>
        <time>2021-11-19T13:42:56Z</time>
      </trkpt>
      <trkpt lat="44.41936" lon="5.20727">
        <ele>384.1</ele>
        <time>2021-11-19T13:42:57Z</time>
      </trkpt>
      <trkpt lat="44.4193" lon="5.20721">
        <ele>384</ele>
        <time>2021-11-19T13:42:58Z</time>
      </trkpt>
      <trkpt lat="44.41924" lon="5.20716">
        <ele>383.9</ele>
        <time>2021-11-19T13:42:59Z</time>
      </trkpt>
      <trkpt lat="44.41918" lon="5.2071">
        <ele>383.8</ele>
        <time>2021-11-19T13:43:00Z</time>
      </trkpt>
      <trkpt lat="44.41911" lon="5.20705">
        <ele>383.7</ele>
        <time>2021-11-19T13:43:01Z</time>
      </trkpt>
      <trkpt lat="44.41905" lon="5.20699">
        <ele>383.6</ele>
        <time>2021-11-19T13:43:02Z</time>
      </trkpt>
      <trkpt lat="44.41899" lon="5.20693">
        <ele>383.5</ele>
        <time>2021-11-19T13:43:03Z</time>
      </trkpt>
      <trkpt lat="44.41893" lon="5.20688">
        <ele>383.5</ele>
        <time>2021-11-19T13:43:04Z</time>
      </trkpt>
      <trkpt lat="44.41886" lon="5.20683">
        <ele>383.4</ele>
        <time>2021-11-19T13:43:05Z</time>
      </trkpt>
      <trkpt lat="44.4188" lon="5.20678">
        <ele>383.4</ele>
        <time>2021-11-19T13:43:06Z</time>
      </trkpt>
      <trkpt lat="44.41874" lon="5.20673">
        <ele>383.3</ele>
        <time>2021-11-19T13:43:07Z</time>
      </trkpt>
      <trkpt lat="44.41868" lon="5.20667">
        <ele>383.2</ele>
        <time>2021-11-19T13:43:08Z</time>
      </trkpt>
      <trkpt lat="44.41862" lon="5.20661">
        <ele>383.2</ele>
        <time>2021-11-19T13:43:09Z</time>
      </trkpt>
      <trkpt lat="44.41856" lon="5.20656">
        <ele>383.1</ele>
        <time>2021-11-19T13:43:10Z</time>
      </trkpt>
      <trkpt lat="44.41849" lon="5.2065">
        <ele>383</ele>
        <time>2021-11-19T13:43:11Z</time>
      </trkpt>
      <trkpt lat="44.41843" lon="5.20644">
        <ele>383</ele>
        <time>2021-11-19T13:43:12Z</time>
      </trkpt>
      <trkpt lat="44.41837" lon="5.20638">
        <ele>383</ele>
        <time>2021-11-19T13:43:13Z</time>
      </trkpt>
      <trkpt lat="44.41831" lon="5.20633">
        <ele>382.9</ele>
        <time>2021-11-19T13:43:14Z</time>
      </trkpt>
      <trkpt lat="44.41824" lon="5.20628">
        <ele>382.8</ele>
        <time>2021-11-19T13:43:15Z</time>
      </trkpt>
      <trkpt lat="44.41818" lon="5.20623">
        <ele>382.7</ele>
        <time>2021-11-19T13:43:16Z</time>
      </trkpt>
      <trkpt lat="44.41811" lon="5.20619">
        <ele>382.6</ele>
        <time>2021-11-19T13:43:17Z</time>
      </trkpt>
      <trkpt lat="44.41804" lon="5.20618">
        <ele>382.5</ele>
        <time>2021-11-19T13:43:18Z</time>
      </trkpt>
      <trkpt lat="44.41797" lon="5.20618">
        <ele>382.4</ele>
        <time>2021-11-19T13:43:19Z</time>
      </trkpt>
      <trkpt lat="44.4179" lon="5.20617">
        <ele>382.3</ele>
        <time>2021-11-19T13:43:20Z</time>
      </trkpt>
      <trkpt lat="44.41782" lon="5.20616">
        <ele>382.1</ele>
        <time>2021-11-19T13:43:21Z</time>
      </trkpt>
      <trkpt lat="44.41775" lon="5.20615">
        <ele>382</ele>
        <time>2021-11-19T13:43:22Z</time>
      </trkpt>
      <trkpt lat="44.41768" lon="5.20614">
        <ele>381.9</ele>
        <time>2021-11-19T13:43:23Z</time>
      </trkpt>
      <trkpt lat="44.41761" lon="5.20613">
        <ele>381.7</ele>
        <time>2021-11-19T13:43:24Z</time>
      </trkpt>
      <trkpt lat="44.41754" lon="5.20611">
        <ele>381.6</ele>
        <time>2021-11-19T13:43:25Z</time>
      </trkpt>
      <trkpt lat="44.41747" lon="5.2061">
        <ele>381.4</ele>
        <time>2021-11-19T13:43:26Z</time>
      </trkpt>
      <trkpt lat="44.4174" lon="5.20608">
        <ele>381.3</ele>
        <time>2021-11-19T13:43:27Z</time>
      </trkpt>
      <trkpt lat="44.41734" lon="5.20605">
        <ele>381.1</ele>
        <time>2021-11-19T13:43:28Z</time>
      </trkpt>
      <trkpt lat="44.41728" lon="5.206">
        <ele>380.9</ele>
        <time>2021-11-19T13:43:29Z</time>
      </trkpt>
      <trkpt lat="44.41722" lon="5.20594">
        <ele>380.7</ele>
        <time>2021-11-19T13:43:30Z</time>
      </trkpt>
      <trkpt lat="44.41717" lon="5.20586">
        <ele>380.5</ele>
        <time>2021-11-19T13:43:31Z</time>
      </trkpt>
      <trkpt lat="44.41712" lon="5.20578">
        <ele>380.3</ele>
        <time>2021-11-19T13:43:32Z</time>
      </trkpt>
      <trkpt lat="44.41707" lon="5.2057">
        <ele>380</ele>
        <time>2021-11-19T13:43:33Z</time>
      </trkpt>
      <trkpt lat="44.41702" lon="5.20563">
        <ele>379.8</ele>
        <time>2021-11-19T13:43:34Z</time>
      </trkpt>
      <trkpt lat="44.41697" lon="5.20556">
        <ele>379.5</ele>
        <time>2021-11-19T13:43:35Z</time>
      </trkpt>
      <trkpt lat="44.41691" lon="5.20549">
        <ele>379.3</ele>
        <time>2021-11-19T13:43:36Z</time>
      </trkpt>
      <trkpt lat="44.41685" lon="5.20544">
        <ele>379.1</ele>
        <time>2021-11-19T13:43:37Z</time>
      </trkpt>
      <trkpt lat="44.41679" lon="5.20539">
        <ele>378.8</ele>
        <time>2021-11-19T13:43:38Z</time>
      </trkpt>
      <trkpt lat="44.41672" lon="5.20534">
        <ele>378.7</ele>
        <time>2021-11-19T13:43:39Z</time>
      </trkpt>
      <trkpt lat="44.41665" lon="5.20531">
        <ele>378.5</ele>
        <time>2021-11-19T13:43:40Z</time>
      </trkpt>
      <trkpt lat="44.41658" lon="5.20528">
        <ele>378.3</ele>
        <time>2021-11-19T13:43:41Z</time>
      </trkpt>
      <trkpt lat="44.41651" lon="5.20524">
        <ele>378.1</ele>
        <time>2021-11-19T13:43:42Z</time>
      </trkpt>
      <trkpt lat="44.41643" lon="5.20519">
        <ele>377.9</ele>
        <time>2021-11-19T13:43:43Z</time>
      </trkpt>
      <trkpt lat="44.41636" lon="5.20515">
        <ele>377.8</ele>
        <time>2021-11-19T13:43:44Z</time>
      </trkpt>
      <trkpt lat="44.41629" lon="5.20511">
        <ele>377.6</ele>
        <time>2021-11-19T13:43:45Z</time>
      </trkpt>
      <trkpt lat="44.41622" lon="5.20507">
        <ele>377.5</ele>
        <time>2021-11-19T13:43:46Z</time>
      </trkpt>
      <trkpt lat="44.41615" lon="5.20504">
        <ele>377.3</ele>
        <time>2021-11-19T13:43:47Z</time>
      </trkpt>
      <trkpt lat="44.41607" lon="5.20501">
        <ele>377.1</ele>
        <time>2021-11-19T13:43:48Z</time>
      </trkpt>
      <trkpt lat="44.41599" lon="5.20499">
        <ele>376.9</ele>
        <time>2021-11-19T13:43:49Z</time>
      </trkpt>
      <trkpt lat="44.41591" lon="5.20497">
        <ele>376.7</ele>
        <time>2021-11-19T13:43:50Z</time>
      </trkpt>
      <trkpt lat="44.41583" lon="5.20497">
        <ele>376.6</ele>
        <time>2021-11-19T13:43:51Z</time>
      </trkpt>
      <trkpt lat="44.41575" lon="5.20498">
        <ele>376.4</ele>
        <time>2021-11-19T13:43:52Z</time>
      </trkpt>
      <trkpt lat="44.41567" lon="5.20498">
        <ele>376.2</ele>
        <time>2021-11-19T13:43:53Z</time>
      </trkpt>
      <trkpt lat="44.41559" lon="5.20498">
        <ele>376.1</ele>
        <time>2021-11-19T13:43:54Z</time>
      </trkpt>
      <trkpt lat="44.41552" lon="5.20498">
        <ele>375.9</ele>
        <time>2021-11-19T13:43:55Z</time>
      </trkpt>
      <trkpt lat="44.41544" lon="5.20496">
        <ele>375.6</ele>
        <time>2021-11-19T13:43:56Z</time>
      </trkpt>
      <trkpt lat="44.41536" lon="5.20494">
        <ele>375.4</ele>
        <time>2021-11-19T13:43:57Z</time>
      </trkpt>
      <trkpt lat="44.41528" lon="5.20491">
        <ele>375.2</ele>
        <time>2021-11-19T13:43:58Z</time>
      </trkpt>
      <trkpt lat="44.41521" lon="5.20487">
        <ele>375</ele>
        <time>2021-11-19T13:43:59Z</time>
      </trkpt>
      <trkpt lat="44.41513" lon="5.20484">
        <ele>374.8</ele>
        <time>2021-11-19T13:44:00Z</time>
      </trkpt>
      <trkpt lat="44.41506" lon="5.20481">
        <ele>374.7</ele>
        <time>2021-11-19T13:44:01Z</time>
      </trkpt>
      <trkpt lat="44.41498" lon="5.2048">
        <ele>374.6</ele>
        <time>2021-11-19T13:44:02Z</time>
      </trkpt>
      <trkpt lat="44.41491" lon="5.2048">
        <ele>374.5</ele>
        <time>2021-11-19T13:44:03Z</time>
      </trkpt>
      <trkpt lat="44.41484" lon="5.20479">
        <ele>374.4</ele>
        <time>2021-11-19T13:44:04Z</time>
      </trkpt>
      <trkpt lat="44.41477" lon="5.20479">
        <ele>374.4</ele>
        <time>2021-11-19T13:44:05Z</time>
      </trkpt>
      <trkpt lat="44.41469" lon="5.2048">
        <ele>374.3</ele>
        <time>2021-11-19T13:44:06Z</time>
      </trkpt>
      <trkpt lat="44.41462" lon="5.20481">
        <ele>374.3</ele>
        <time>2021-11-19T13:44:07Z</time>
      </trkpt>
      <trkpt lat="44.41454" lon="5.20482">
        <ele>374.2</ele>
        <time>2021-11-19T13:44:08Z</time>
      </trkpt>
      <trkpt lat="44.41447" lon="5.20483">
        <ele>374.2</ele>
        <time>2021-11-19T13:44:09Z</time>
      </trkpt>
      <trkpt lat="44.41439" lon="5.20483">
        <ele>374.1</ele>
        <time>2021-11-19T13:44:10Z</time>
      </trkpt>
      <trkpt lat="44.41432" lon="5.20484">
        <ele>374.1</ele>
        <time>2021-11-19T13:44:11Z</time>
      </trkpt>
      <trkpt lat="44.41425" lon="5.20482">
        <ele>374</ele>
        <time>2021-11-19T13:44:12Z</time>
      </trkpt>
      <trkpt lat="44.41418" lon="5.20481">
        <ele>374</ele>
        <time>2021-11-19T13:44:13Z</time>
      </trkpt>
      <trkpt lat="44.4141" lon="5.20478">
        <ele>373.9</ele>
        <time>2021-11-19T13:44:14Z</time>
      </trkpt>
      <trkpt lat="44.41403" lon="5.20475">
        <ele>373.8</ele>
        <time>2021-11-19T13:44:15Z</time>
      </trkpt>
      <trkpt lat="44.41396" lon="5.20473">
        <ele>373.7</ele>
        <time>2021-11-19T13:44:16Z</time>
      </trkpt>
      <trkpt lat="44.4139" lon="5.20471">
        <ele>373.7</ele>
        <time>2021-11-19T13:44:17Z</time>
      </trkpt>
      <trkpt lat="44.41384" lon="5.20468">
        <ele>373.6</ele>
        <time>2021-11-19T13:44:18Z</time>
      </trkpt>
      <trkpt lat="44.41378" lon="5.20465">
        <ele>373.6</ele>
        <time>2021-11-19T13:44:19Z</time>
      </trkpt>
      <trkpt lat="44.41372" lon="5.20462">
        <ele>373.5</ele>
        <time>2021-11-19T13:44:20Z</time>
      </trkpt>
      <trkpt lat="44.41365" lon="5.20458">
        <ele>373.4</ele>
        <time>2021-11-19T13:44:21Z</time>
      </trkpt>
      <trkpt lat="44.41359" lon="5.20455">
        <ele>373.4</ele>
        <time>2021-11-19T13:44:22Z</time>
      </trkpt>
      <trkpt lat="44.41353" lon="5.20452">
        <ele>373.3</ele>
        <time>2021-11-19T13:44:23Z</time>
      </trkpt>
      <trkpt lat="44.41347" lon="5.20449">
        <ele>373.2</ele>
        <time>2021-11-19T13:44:24Z</time>
      </trkpt>
      <trkpt lat="44.41341" lon="5.20447">
        <ele>373.1</ele>
        <time>2021-11-19T13:44:25Z</time>
      </trkpt>
      <trkpt lat="44.41335" lon="5.20443">
        <ele>373</ele>
        <time>2021-11-19T13:44:26Z</time>
      </trkpt>
      <trkpt lat="44.41329" lon="5.20438">
        <ele>372.9</ele>
        <time>2021-11-19T13:44:27Z</time>
      </trkpt>
      <trkpt lat="44.41323" lon="5.20433">
        <ele>372.7</ele>
        <time>2021-11-19T13:44:28Z</time>
      </trkpt>
      <trkpt lat="44.41317" lon="5.20428">
        <ele>372.6</ele>
        <time>2021-11-19T13:44:29Z</time>
      </trkpt>
      <trkpt lat="44.41311" lon="5.20423">
        <ele>372.5</ele>
        <time>2021-11-19T13:44:30Z</time>
      </trkpt>
      <trkpt lat="44.41305" lon="5.20418">
        <ele>372.4</ele>
        <time>2021-11-19T13:44:31Z</time>
      </trkpt>
      <trkpt lat="44.41299" lon="5.20414">
        <ele>372.2</ele>
        <time>2021-11-19T13:44:32Z</time>
      </trkpt>
      <trkpt lat="44.41293" lon="5.20409">
        <ele>372.1</ele>
        <time>2021-11-19T13:44:33Z</time>
      </trkpt>
      <trkpt lat="44.41288" lon="5.20403">
        <ele>372</ele>
        <time>2021-11-19T13:44:34Z</time>
      </trkpt>
      <trkpt lat="44.41282" lon="5.20399">
        <ele>371.9</ele>
        <time>2021-11-19T13:44:35Z</time>
      </trkpt>
      <trkpt lat="44.41276" lon="5.20394">
        <ele>371.8</ele>
        <time>2021-11-19T13:44:36Z</time>
      </trkpt>
      <trkpt lat="44.4127" lon="5.20389">
        <ele>371.7</ele>
        <time>2021-11-19T13:44:37Z</time>
      </trkpt>
      <trkpt lat="44.41265" lon="5.20384">
        <ele>371.6</ele>
        <time>2021-11-19T13:44:38Z</time>
      </trkpt>
      <trkpt lat="44.41259" lon="5.20379">
        <ele>371.5</ele>
        <time>2021-11-19T13:44:39Z</time>
      </trkpt>
      <trkpt lat="44.41253" lon="5.20375">
        <ele>371.3</ele>
        <time>2021-11-19T13:44:40Z</time>
      </trkpt>
      <trkpt lat="44.41248" lon="5.20371">
        <ele>371.2</ele>
        <time>2021-11-19T13:44:41Z</time>
      </trkpt>
      <trkpt lat="44.41242" lon="5.20367">
        <ele>371</ele>
        <time>2021-11-19T13:44:42Z</time>
      </trkpt>
      <trkpt lat="44.41236" lon="5.20362">
        <ele>370.8</ele>
        <time>2021-11-19T13:44:43Z</time>
      </trkpt>
      <trkpt lat="44.4123" lon="5.20357">
        <ele>370.5</ele>
        <time>2021-11-19T13:44:44Z</time>
      </trkpt>
      <trkpt lat="44.41224" lon="5.20354">
        <ele>370.3</ele>
        <time>2021-11-19T13:44:45Z</time>
      </trkpt>
      <trkpt lat="44.41218" lon="5.20349">
        <ele>370</ele>
        <time>2021-11-19T13:44:46Z</time>
      </trkpt>
      <trkpt lat="44.41212" lon="5.20345">
        <ele>369.8</ele>
        <time>2021-11-19T13:44:47Z</time>
      </trkpt>
      <trkpt lat="44.41206" lon="5.2034">
        <ele>369.5</ele>
        <time>2021-11-19T13:44:48Z</time>
      </trkpt>
      <trkpt lat="44.412" lon="5.20336">
        <ele>369.2</ele>
        <time>2021-11-19T13:44:49Z</time>
      </trkpt>
      <trkpt lat="44.41193" lon="5.20331">
        <ele>368.9</ele>
        <time>2021-11-19T13:44:50Z</time>
      </trkpt>
      <trkpt lat="44.41187" lon="5.20326">
        <ele>368.6</ele>
        <time>2021-11-19T13:44:51Z</time>
      </trkpt>
      <trkpt lat="44.41181" lon="5.2032">
        <ele>368.3</ele>
        <time>2021-11-19T13:44:52Z</time>
      </trkpt>
      <trkpt lat="44.41174" lon="5.20314">
        <ele>367.9</ele>
        <time>2021-11-19T13:44:53Z</time>
      </trkpt>
      <trkpt lat="44.41168" lon="5.20307">
        <ele>367.5</ele>
        <time>2021-11-19T13:44:54Z</time>
      </trkpt>
      <trkpt lat="44.41162" lon="5.203">
        <ele>367.2</ele>
        <time>2021-11-19T13:44:55Z</time>
      </trkpt>
      <trkpt lat="44.41156" lon="5.20294">
        <ele>366.8</ele>
        <time>2021-11-19T13:44:56Z</time>
      </trkpt>
      <trkpt lat="44.4115" lon="5.20286">
        <ele>366.5</ele>
        <time>2021-11-19T13:44:57Z</time>
      </trkpt>
      <trkpt lat="44.41145" lon="5.20278">
        <ele>366.1</ele>
        <time>2021-11-19T13:44:58Z</time>
      </trkpt>
      <trkpt lat="44.4114" lon="5.20269">
        <ele>365.7</ele>
        <time>2021-11-19T13:44:59Z</time>
      </trkpt>
      <trkpt lat="44.41134" lon="5.2026">
        <ele>365.3</ele>
        <time>2021-11-19T13:45:00Z</time>
      </trkpt>
      <trkpt lat="44.41128" lon="5.20251">
        <ele>364.8</ele>
        <time>2021-11-19T13:45:01Z</time>
      </trkpt>
      <trkpt lat="44.41122" lon="5.20242">
        <ele>364.4</ele>
        <time>2021-11-19T13:45:02Z</time>
      </trkpt>
      <trkpt lat="44.41115" lon="5.20234">
        <ele>364</ele>
        <time>2021-11-19T13:45:03Z</time>
      </trkpt>
      <trkpt lat="44.41109" lon="5.20228">
        <ele>363.6</ele>
        <time>2021-11-19T13:45:04Z</time>
      </trkpt>
      <trkpt lat="44.41103" lon="5.2022">
        <ele>363.3</ele>
        <time>2021-11-19T13:45:05Z</time>
      </trkpt>
      <trkpt lat="44.41096" lon="5.20214">
        <ele>362.9</ele>
        <time>2021-11-19T13:45:06Z</time>
      </trkpt>
      <trkpt lat="44.41089" lon="5.20209">
        <ele>362.6</ele>
        <time>2021-11-19T13:45:07Z</time>
      </trkpt>
      <trkpt lat="44.41082" lon="5.20205">
        <ele>362.4</ele>
        <time>2021-11-19T13:45:08Z</time>
      </trkpt>
      <trkpt lat="44.41074" lon="5.20202">
        <ele>362.1</ele>
        <time>2021-11-19T13:45:09Z</time>
      </trkpt>
      <trkpt lat="44.41067" lon="5.20198">
        <ele>361.9</ele>
        <time>2021-11-19T13:45:10Z</time>
      </trkpt>
      <trkpt lat="44.41059" lon="5.20194">
        <ele>361.7</ele>
        <time>2021-11-19T13:45:11Z</time>
      </trkpt>
      <trkpt lat="44.41052" lon="5.2019">
        <ele>361.6</ele>
        <time>2021-11-19T13:45:12Z</time>
      </trkpt>
      <trkpt lat="44.41045" lon="5.20188">
        <ele>361.5</ele>
        <time>2021-11-19T13:45:13Z</time>
      </trkpt>
      <trkpt lat="44.41038" lon="5.20185">
        <ele>361.4</ele>
        <time>2021-11-19T13:45:14Z</time>
      </trkpt>
      <trkpt lat="44.41031" lon="5.20182">
        <ele>361.2</ele>
        <time>2021-11-19T13:45:15Z</time>
      </trkpt>
      <trkpt lat="44.41024" lon="5.2018">
        <ele>361.1</ele>
        <time>2021-11-19T13:45:16Z</time>
      </trkpt>
      <trkpt lat="44.41017" lon="5.20178">
        <ele>361</ele>
        <time>2021-11-19T13:45:17Z</time>
      </trkpt>
      <trkpt lat="44.4101" lon="5.20176">
        <ele>360.9</ele>
        <time>2021-11-19T13:45:18Z</time>
      </trkpt>
      <trkpt lat="44.41003" lon="5.20173">
        <ele>360.8</ele>
        <time>2021-11-19T13:45:19Z</time>
      </trkpt>
      <trkpt lat="44.40996" lon="5.20171">
        <ele>360.7</ele>
        <time>2021-11-19T13:45:20Z</time>
      </trkpt>
      <trkpt lat="44.40989" lon="5.20169">
        <ele>360.6</ele>
        <time>2021-11-19T13:45:21Z</time>
      </trkpt>
      <trkpt lat="44.40983" lon="5.20167">
        <ele>360.6</ele>
        <time>2021-11-19T13:45:22Z</time>
      </trkpt>
      <trkpt lat="44.40976" lon="5.20165">
        <ele>360.5</ele>
        <time>2021-11-19T13:45:23Z</time>
      </trkpt>
      <trkpt lat="44.4097" lon="5.20163">
        <ele>360.4</ele>
        <time>2021-11-19T13:45:24Z</time>
      </trkpt>
      <trkpt lat="44.40964" lon="5.20161">
        <ele>360.4</ele>
        <time>2021-11-19T13:45:25Z</time>
      </trkpt>
      <trkpt lat="44.40958" lon="5.20158">
        <ele>360.4</ele>
        <time>2021-11-19T13:45:26Z</time>
      </trkpt>
      <trkpt lat="44.40952" lon="5.20156">
        <ele>360.3</ele>
        <time>2021-11-19T13:45:27Z</time>
      </trkpt>
      <trkpt lat="44.40946" lon="5.20153">
        <ele>360.3</ele>
        <time>2021-11-19T13:45:28Z</time>
      </trkpt>
      <trkpt lat="44.4094" lon="5.20151">
        <ele>360.3</ele>
        <time>2021-11-19T13:45:29Z</time>
      </trkpt>
      <trkpt lat="44.40935" lon="5.20149">
        <ele>360.2</ele>
        <time>2021-11-19T13:45:30Z</time>
      </trkpt>
      <trkpt lat="44.40929" lon="5.20145">
        <ele>360.2</ele>
        <time>2021-11-19T13:45:31Z</time>
      </trkpt>
      <trkpt lat="44.40925" lon="5.20142">
        <ele>360.2</ele>
        <time>2021-11-19T13:45:32Z</time>
      </trkpt>
      <trkpt lat="44.4092" lon="5.20141">
        <ele>360.1</ele>
        <time>2021-11-19T13:45:33Z</time>
      </trkpt>
      <trkpt lat="44.40916" lon="5.20141">
        <ele>360.1</ele>
        <time>2021-11-19T13:45:34Z</time>
      </trkpt>
      <trkpt lat="44.40912" lon="5.2014">
        <ele>360</ele>
        <time>2021-11-19T13:45:35Z</time>
      </trkpt>
      <trkpt lat="44.40908" lon="5.20139">
        <ele>360</ele>
        <time>2021-11-19T13:45:36Z</time>
      </trkpt>
      <trkpt lat="44.40907" lon="5.20138">
        <ele>360</ele>
        <time>2021-11-19T13:45:37Z</time>
      </trkpt>
      <trkpt lat="44.40901" lon="5.20135">
        <ele>359.9</ele>
        <time>2021-11-19T13:45:38Z</time>
      </trkpt>
      <trkpt lat="44.40889" lon="5.20127">
        <ele>359.8</ele>
        <time>2021-11-19T13:45:40Z</time>
      </trkpt>
      <trkpt lat="44.40882" lon="5.20127">
        <ele>359.7</ele>
        <time>2021-11-19T13:45:41Z</time>
      </trkpt>
      <trkpt lat="44.40869" lon="5.20124">
        <ele>359.6</ele>
        <time>2021-11-19T13:45:44Z</time>
      </trkpt>
      <trkpt lat="44.40862" lon="5.20126">
        <ele>359.5</ele>
        <time>2021-11-19T13:45:45Z</time>
      </trkpt>
      <trkpt lat="44.40852" lon="5.20127">
        <ele>359.4</ele>
        <time>2021-11-19T13:45:48Z</time>
      </trkpt>
      <trkpt lat="44.40844" lon="5.20124">
        <ele>359.4</ele>
        <time>2021-11-19T13:45:50Z</time>
      </trkpt>
      <trkpt lat="44.40842" lon="5.20121">
        <ele>359.3</ele>
        <time>2021-11-19T13:45:51Z</time>
      </trkpt>
      <trkpt lat="44.40838" lon="5.20119">
        <ele>359.3</ele>
        <time>2021-11-19T13:45:52Z</time>
      </trkpt>
      <trkpt lat="44.40835" lon="5.2012">
        <ele>359.3</ele>
        <time>2021-11-19T13:45:54Z</time>
      </trkpt>
      <trkpt lat="44.40831" lon="5.2012">
        <ele>359.3</ele>
        <time>2021-11-19T13:45:55Z</time>
      </trkpt>
      <trkpt lat="44.40827" lon="5.2012">
        <ele>359.2</ele>
        <time>2021-11-19T13:45:56Z</time>
      </trkpt>
      <trkpt lat="44.40826" lon="5.20113">
        <ele>359.2</ele>
        <time>2021-11-19T13:45:59Z</time>
      </trkpt>
      <trkpt lat="44.40824" lon="5.2011">
        <ele>359.1</ele>
        <time>2021-11-19T13:46:00Z</time>
      </trkpt>
      <trkpt lat="44.40819" lon="5.20114">
        <ele>359.1</ele>
        <time>2021-11-19T13:46:03Z</time>
      </trkpt>
      <trkpt lat="44.40815" lon="5.20113">
        <ele>359</ele>
        <time>2021-11-19T13:46:04Z</time>
      </trkpt>
      <trkpt lat="44.40808" lon="5.20115">
        <ele>359</ele>
        <time>2021-11-19T13:46:06Z</time>
      </trkpt>
      <trkpt lat="44.40798" lon="5.20114">
        <ele>358.9</ele>
        <time>2021-11-19T13:46:09Z</time>
      </trkpt>
      <trkpt lat="44.40793" lon="5.20111">
        <ele>358.8</ele>
        <time>2021-11-19T13:46:10Z</time>
      </trkpt>
      <trkpt lat="44.40783" lon="5.20103">
        <ele>358.8</ele>
        <time>2021-11-19T13:46:12Z</time>
      </trkpt>
      <trkpt lat="44.40774" lon="5.20098">
        <ele>358.7</ele>
        <time>2021-11-19T13:46:14Z</time>
      </trkpt>
      <trkpt lat="44.40764" lon="5.20094">
        <ele>358.6</ele>
        <time>2021-11-19T13:46:16Z</time>
      </trkpt>
      <trkpt lat="44.40752" lon="5.20091">
        <ele>358.6</ele>
        <time>2021-11-19T13:46:18Z</time>
      </trkpt>
      <trkpt lat="44.40748" lon="5.2009">
        <ele>358.6</ele>
        <time>2021-11-19T13:46:19Z</time>
      </trkpt>
      <trkpt lat="44.40742" lon="5.20083">
        <ele>358.5</ele>
        <time>2021-11-19T13:46:20Z</time>
      </trkpt>
      <trkpt lat="44.40739" lon="5.2008">
        <ele>358.5</ele>
        <time>2021-11-19T13:46:22Z</time>
      </trkpt>
      <trkpt lat="44.40734" lon="5.20079">
        <ele>358.5</ele>
        <time>2021-11-19T13:46:23Z</time>
      </trkpt>
      <trkpt lat="44.40731" lon="5.20077">
        <ele>358.5</ele>
        <time>2021-11-19T13:46:25Z</time>
      </trkpt>
      <trkpt lat="44.40727" lon="5.20074">
        <ele>358.4</ele>
        <time>2021-11-19T13:46:26Z</time>
      </trkpt>
      <trkpt lat="44.40721" lon="5.20068">
        <ele>358.4</ele>
        <time>2021-11-19T13:46:28Z</time>
      </trkpt>
      <trkpt lat="44.40715" lon="5.20062">
        <ele>358.3</ele>
        <time>2021-11-19T13:46:31Z</time>
      </trkpt>
      <trkpt lat="44.40715" lon="5.2006">
        <ele>358.3</ele>
        <time>2021-11-19T13:46:32Z</time>
      </trkpt>
      <trkpt lat="44.40714" lon="5.20058">
        <ele>358.3</ele>
        <time>2021-11-19T13:46:33Z</time>
      </trkpt>
      <trkpt lat="44.40712" lon="5.20055">
        <ele>358.3</ele>
        <time>2021-11-19T13:46:34Z</time>
      </trkpt>
      <trkpt lat="44.40709" lon="5.20051">
        <ele>358.2</ele>
        <time>2021-11-19T13:46:35Z</time>
      </trkpt>
      <trkpt lat="44.40707" lon="5.20047">
        <ele>358.2</ele>
        <time>2021-11-19T13:46:36Z</time>
      </trkpt>
      <trkpt lat="44.40699" lon="5.20034">
        <ele>358.1</ele>
        <time>2021-11-19T13:46:37Z</time>
      </trkpt>
      <trkpt lat="44.40693" lon="5.20027">
        <ele>357.9</ele>
        <time>2021-11-19T13:46:39Z</time>
      </trkpt>
      <trkpt lat="44.40686" lon="5.20015">
        <ele>357.8</ele>
        <time>2021-11-19T13:46:42Z</time>
      </trkpt>
      <trkpt lat="44.40683" lon="5.20011">
        <ele>357.7</ele>
        <time>2021-11-19T13:46:43Z</time>
      </trkpt>
      <trkpt lat="44.40679" lon="5.20007">
        <ele>357.6</ele>
        <time>2021-11-19T13:46:44Z</time>
      </trkpt>
      <trkpt lat="44.40675" lon="5.20003">
        <ele>357.6</ele>
        <time>2021-11-19T13:46:45Z</time>
      </trkpt>
      <trkpt lat="44.40671" lon="5.19998">
        <ele>357.5</ele>
        <time>2021-11-19T13:46:46Z</time>
      </trkpt>
      <trkpt lat="44.40668" lon="5.19994">
        <ele>357.5</ele>
        <time>2021-11-19T13:46:47Z</time>
      </trkpt>
      <trkpt lat="44.40664" lon="5.19989">
        <ele>357.4</ele>
        <time>2021-11-19T13:46:48Z</time>
      </trkpt>
      <trkpt lat="44.4066" lon="5.19984">
        <ele>357.3</ele>
        <time>2021-11-19T13:46:49Z</time>
      </trkpt>
      <trkpt lat="44.40657" lon="5.19979">
        <ele>357.3</ele>
        <time>2021-11-19T13:46:50Z</time>
      </trkpt>
      <trkpt lat="44.40653" lon="5.19975">
        <ele>357.2</ele>
        <time>2021-11-19T13:46:51Z</time>
      </trkpt>
      <trkpt lat="44.4065" lon="5.1997">
        <ele>357.2</ele>
        <time>2021-11-19T13:46:52Z</time>
      </trkpt>
      <trkpt lat="44.40647" lon="5.19967">
        <ele>357.1</ele>
        <time>2021-11-19T13:46:53Z</time>
      </trkpt>
      <trkpt lat="44.40644" lon="5.19964">
        <ele>357.1</ele>
        <time>2021-11-19T13:46:54Z</time>
      </trkpt>
      <trkpt lat="44.40642" lon="5.19965">
        <ele>357</ele>
        <time>2021-11-19T13:46:55Z</time>
      </trkpt>
      <trkpt lat="44.40642" lon="5.19968">
        <ele>357</ele>
        <time>2021-11-19T13:46:56Z</time>
      </trkpt>
      <trkpt lat="44.40643" lon="5.19971">
        <ele>357</ele>
        <time>2021-11-19T13:46:57Z</time>
      </trkpt>
      <trkpt lat="44.40643" lon="5.19973">
        <ele>357</ele>
        <time>2021-11-19T13:46:58Z</time>
      </trkpt>
      <trkpt lat="44.40642" lon="5.19974">
        <ele>357</ele>
        <time>2021-11-19T13:46:59Z</time>
      </trkpt>
      <trkpt lat="44.40643" lon="5.19974">
        <ele>357</ele>
        <time>2021-11-19T13:47:00Z</time>
      </trkpt>
      <trkpt lat="44.40643" lon="5.19974">
        <ele>356.9</ele>
        <time>2021-11-19T13:47:04Z</time>
      </trkpt>
      <trkpt lat="44.40643" lon="5.19974">
        <ele>356.9</ele>
        <time>2021-11-19T13:47:05Z</time>
      </trkpt>
      <trkpt lat="44.40642" lon="5.19974">
        <ele>356.9</ele>
        <time>2021-11-19T13:47:06Z</time>
      </trkpt>
      <trkpt lat="44.40642" lon="5.19975">
        <ele>356.9</ele>
        <time>2021-11-19T13:47:07Z</time>
      </trkpt>
      <trkpt lat="44.40642" lon="5.19976">
        <ele>356.9</ele>
        <time>2021-11-19T13:47:10Z</time>
      </trkpt>
      <trkpt lat="44.40641" lon="5.19976">
        <ele>356.9</ele>
        <time>2021-11-19T13:47:11Z</time>
      </trkpt>
      <trkpt lat="44.4064" lon="5.19977">
        <ele>356.9</ele>
        <time>2021-11-19T13:47:14Z</time>
      </trkpt>
      <trkpt lat="44.4064" lon="5.19977">
        <ele>356.9</ele>
        <time>2021-11-19T13:47:15Z</time>
      </trkpt>
      <trkpt lat="44.4064" lon="5.19977">
        <ele>356.9</ele>
        <time>2021-11-19T13:47:16Z</time>
      </trkpt>
      <trkpt lat="44.4064" lon="5.19977">
        <ele>356.9</ele>
        <time>2021-11-19T13:47:17Z</time>
      </trkpt>
      <trkpt lat="44.4064" lon="5.19977">
        <ele>356.9</ele>
        <time>2021-11-19T13:47:18Z</time>
      </trkpt>
      <trkpt lat="44.4064" lon="5.19977">
        <ele>356.9</ele>
        <time>2021-11-19T13:47:19Z</time>
      </trkpt>
      <trkpt lat="44.4064" lon="5.19978">
        <ele>356.9</ele>
        <time>2021-11-19T13:47:20Z</time>
      </trkpt>
      <trkpt lat="44.4064" lon="5.19978">
        <ele>356.9</ele>
        <time>2021-11-19T13:47:21Z</time>
      </trkpt>
    </trkseg>
  </trk>
</gpx>